<?xml version='1.0' encoding='UTF-8'?><gpx version="1.1" creator="JPX - https://github.com/jenetics/jpx" xmlns="http://www.topografix.com/GPX/1/1"><trk><trkseg><trkpt lat="43.4671374" lon="11.4344609"><ele>354.0</ele><time>2026-04-04T10:09:09.582Z</time></trkpt><trkpt lat="43.4670837" lon="11.4345142"><ele>354.0</ele><time>2026-04-04T10:09:11.583Z</time></trkpt><trkpt lat="43.4671589" lon="11.434544"><ele>354.0</ele><time>2026-04-04T10:09:14.571Z</time></trkpt><trkpt lat="43.4672743" lon="11.4344947"><ele>354.0</ele><time>2026-04-04T10:09:16.57Z</time></trkpt><trkpt lat="43.4673663" lon="11.4344542"><ele>354.0</ele><time>2026-04-04T10:09:17.58Z</time></trkpt><trkpt lat="43.4674338" lon="11.4344224"><ele>354.0</ele><time>2026-04-04T10:09:18.564Z</time></trkpt><trkpt lat="43.4675294" lon="11.4343601"><ele>354.0</ele><time>2026-04-04T10:09:20.58Z</time></trkpt><trkpt lat="43.4675305" lon="11.4342492"><ele>354.0</ele><time>2026-04-04T10:09:23.583Z</time></trkpt><trkpt lat="43.4675479" lon="11.4341224"><ele>354.0</ele><time>2026-04-04T10:09:26.58Z</time></trkpt><trkpt lat="43.4676461" lon="11.434017"><ele>354.0</ele><time>2026-04-04T10:09:28.567Z</time></trkpt><trkpt lat="43.4677212" lon="11.433949"><ele>354.0</ele><time>2026-04-04T10:09:29.562Z</time></trkpt><trkpt lat="43.4678132" lon="11.4338493"><ele>354.25</ele><time>2026-04-04T10:09:30.583Z</time></trkpt><trkpt lat="43.4679154" lon="11.4337414"><ele>354.5</ele><time>2026-04-04T10:09:31.576Z</time></trkpt><trkpt lat="43.4680159" lon="11.4336346"><ele>354.75</ele><time>2026-04-04T10:09:32.58Z</time></trkpt><trkpt lat="43.4681072" lon="11.4335404"><ele>355.0</ele><time>2026-04-04T10:09:33.584Z</time></trkpt><trkpt lat="43.4681926" lon="11.4334635"><ele>355.5</ele><time>2026-04-04T10:09:34.583Z</time></trkpt><trkpt lat="43.4682798" lon="11.433406"><ele>356.0</ele><time>2026-04-04T10:09:35.577Z</time></trkpt><trkpt lat="43.4683627" lon="11.4333522"><ele>356.5</ele><time>2026-04-04T10:09:36.576Z</time></trkpt><trkpt lat="43.4684412" lon="11.43331"><ele>357.0</ele><time>2026-04-04T10:09:37.589Z</time></trkpt><trkpt lat="43.4685021" lon="11.4332837"><ele>357.5</ele><time>2026-04-04T10:09:38.579Z</time></trkpt><trkpt lat="43.4685704" lon="11.4332253"><ele>358.0</ele><time>2026-04-04T10:09:40.58Z</time></trkpt><trkpt lat="43.46859" lon="11.4331283"><ele>358.0</ele><time>2026-04-04T10:09:42.583Z</time></trkpt><trkpt lat="43.468559" lon="11.4330136"><ele>358.0</ele><time>2026-04-04T10:09:44.596Z</time></trkpt><trkpt lat="43.4685186" lon="11.43286"><ele>358.0</ele><time>2026-04-04T10:09:46.58Z</time></trkpt><trkpt lat="43.4684978" lon="11.4327651"><ele>358.0</ele><time>2026-04-04T10:09:47.573Z</time></trkpt><trkpt lat="43.468472" lon="11.4326549"><ele>358.0</ele><time>2026-04-04T10:09:48.579Z</time></trkpt><trkpt lat="43.4684249" lon="11.4325418"><ele>359.5</ele><time>2026-04-04T10:09:49.581Z</time></trkpt><trkpt lat="43.4683538" lon="11.4324267"><ele>361.0</ele><time>2026-04-04T10:09:50.571Z</time></trkpt><trkpt lat="43.4682608" lon="11.4323069"><ele>362.5</ele><time>2026-04-04T10:09:51.579Z</time></trkpt><trkpt lat="43.4681567" lon="11.4321766"><ele>364.0</ele><time>2026-04-04T10:09:52.586Z</time></trkpt><trkpt lat="43.468044" lon="11.4320375"><ele>368.0</ele><time>2026-04-04T10:09:53.578Z</time></trkpt><trkpt lat="43.4679254" lon="11.4318908"><ele>372.0</ele><time>2026-04-04T10:09:54.577Z</time></trkpt><trkpt lat="43.4677999" lon="11.4317557"><ele>376.0</ele><time>2026-04-04T10:09:55.568Z</time></trkpt><trkpt lat="43.4676655" lon="11.4316349"><ele>376.0</ele><time>2026-04-04T10:09:56.584Z</time></trkpt><trkpt lat="43.467518" lon="11.4315302"><ele>376.0</ele><time>2026-04-04T10:09:57.583Z</time></trkpt><trkpt lat="43.4673711" lon="11.4314423"><ele>376.0</ele><time>2026-04-04T10:09:58.573Z</time></trkpt><trkpt lat="43.4672369" lon="11.4313761"><ele>376.0</ele><time>2026-04-04T10:09:59.568Z</time></trkpt><trkpt lat="43.4671192" lon="11.4313246"><ele>376.0</ele><time>2026-04-04T10:10:00.586Z</time></trkpt><trkpt lat="43.467016" lon="11.431284"><ele>376.0</ele><time>2026-04-04T10:10:01.569Z</time></trkpt><trkpt lat="43.4669206" lon="11.4312339"><ele>376.0</ele><time>2026-04-04T10:10:02.578Z</time></trkpt><trkpt lat="43.4668356" lon="11.4311642"><ele>376.0</ele><time>2026-04-04T10:10:03.589Z</time></trkpt><trkpt lat="43.4667591" lon="11.4310845"><ele>378.4</ele><time>2026-04-04T10:10:04.573Z</time></trkpt><trkpt lat="43.4666962" lon="11.4309896"><ele>380.8</ele><time>2026-04-04T10:10:05.57Z</time></trkpt><trkpt lat="43.4666508" lon="11.4308968"><ele>383.2</ele><time>2026-04-04T10:10:06.582Z</time></trkpt><trkpt lat="43.4665965" lon="11.4307969"><ele>385.59999999999997</ele><time>2026-04-04T10:10:07.574Z</time></trkpt><trkpt lat="43.4665361" lon="11.4306869"><ele>388.0</ele><time>2026-04-04T10:10:08.587Z</time></trkpt><trkpt lat="43.4664752" lon="11.4305608"><ele>388.79999999999995</ele><time>2026-04-04T10:10:09.578Z</time></trkpt><trkpt lat="43.4664102" lon="11.430428"><ele>389.6</ele><time>2026-04-04T10:10:10.585Z</time></trkpt><trkpt lat="43.4663392" lon="11.4302987"><ele>390.4</ele><time>2026-04-04T10:10:11.571Z</time></trkpt><trkpt lat="43.4662686" lon="11.4301848"><ele>391.20000000000005</ele><time>2026-04-04T10:10:12.58Z</time></trkpt><trkpt lat="43.466196" lon="11.4300909"><ele>392.0</ele><time>2026-04-04T10:10:13.578Z</time></trkpt><trkpt lat="43.4661281" lon="11.4300139"><ele>391.99999999999994</ele><time>2026-04-04T10:10:14.58Z</time></trkpt><trkpt lat="43.4660645" lon="11.4299463"><ele>392.0</ele><time>2026-04-04T10:10:15.565Z</time></trkpt><trkpt lat="43.4660035" lon="11.4298906"><ele>392.0</ele><time>2026-04-04T10:10:16.583Z</time></trkpt><trkpt lat="43.4659453" lon="11.4298408"><ele>392.0</ele><time>2026-04-04T10:10:17.583Z</time></trkpt><trkpt lat="43.4658764" lon="11.429755"><ele>391.99999999999994</ele><time>2026-04-04T10:10:19.577Z</time></trkpt><trkpt lat="43.4658713" lon="11.4296612"><ele>392.0</ele><time>2026-04-04T10:10:33.575Z</time></trkpt><trkpt lat="43.4658737" lon="11.4295681"><ele>393.16666666666663</ele><time>2026-04-04T10:10:35.576Z</time></trkpt><trkpt lat="43.4658399" lon="11.4294708"><ele>394.3333333333333</ele><time>2026-04-04T10:10:37.577Z</time></trkpt><trkpt lat="43.4657773" lon="11.4293678"><ele>395.5</ele><time>2026-04-04T10:10:39.578Z</time></trkpt><trkpt lat="43.4657396" lon="11.4292524"><ele>396.66666666666663</ele><time>2026-04-04T10:10:41.578Z</time></trkpt><trkpt lat="43.4657072" lon="11.4291258"><ele>397.8333333333333</ele><time>2026-04-04T10:10:43.573Z</time></trkpt><trkpt lat="43.465687" lon="11.4290237"><ele>399.0</ele><time>2026-04-04T10:10:45.586Z</time></trkpt><trkpt lat="43.4656621" lon="11.4289407"><ele>399.0</ele><time>2026-04-04T10:10:47.574Z</time></trkpt><trkpt lat="43.4656204" lon="11.4288618"><ele>399.0</ele><time>2026-04-04T10:10:50.577Z</time></trkpt><trkpt lat="43.465551" lon="11.4288169"><ele>399.0</ele><time>2026-04-04T10:11:58.584Z</time></trkpt><trkpt lat="43.4655922" lon="11.4288867"><ele>399.0</ele><time>2026-04-04T10:12:06.57Z</time></trkpt><trkpt lat="43.4656707" lon="11.4289669"><ele>399.0</ele><time>2026-04-04T10:12:09.581Z</time></trkpt><trkpt lat="43.4656963" lon="11.4290882"><ele>399.0</ele><time>2026-04-04T10:12:11.585Z</time></trkpt><trkpt lat="43.4657102" lon="11.4291852"><ele>399.0</ele><time>2026-04-04T10:12:13.571Z</time></trkpt><trkpt lat="43.4657448" lon="11.4292829"><ele>399.0</ele><time>2026-04-04T10:12:15.573Z</time></trkpt><trkpt lat="43.4657862" lon="11.4293835"><ele>399.0</ele><time>2026-04-04T10:12:17.566Z</time></trkpt><trkpt lat="43.4658143" lon="11.4294733"><ele>399.0</ele><time>2026-04-04T10:12:19.587Z</time></trkpt><trkpt lat="43.4658384" lon="11.4295548"><ele>399.0</ele><time>2026-04-04T10:12:21.575Z</time></trkpt><trkpt lat="43.4658628" lon="11.4296817"><ele>399.0</ele><time>2026-04-04T10:12:24.573Z</time></trkpt><trkpt lat="43.4658819" lon="11.4297673"><ele>397.8333333333333</ele><time>2026-04-04T10:12:26.587Z</time></trkpt><trkpt lat="43.4659544" lon="11.4298547"><ele>396.66666666666663</ele><time>2026-04-04T10:12:28.572Z</time></trkpt><trkpt lat="43.4660116" lon="11.429911"><ele>395.5</ele><time>2026-04-04T10:12:29.585Z</time></trkpt><trkpt lat="43.4660819" lon="11.4299824"><ele>394.3333333333333</ele><time>2026-04-04T10:12:30.573Z</time></trkpt><trkpt lat="43.4661501" lon="11.4300599"><ele>393.16666666666663</ele><time>2026-04-04T10:12:31.571Z</time></trkpt><trkpt lat="43.466212" lon="11.4301314"><ele>392.0</ele><time>2026-04-04T10:12:32.572Z</time></trkpt><trkpt lat="43.4662659" lon="11.4302086"><ele>392.3333333333333</ele><time>2026-04-04T10:12:33.579Z</time></trkpt><trkpt lat="43.4663159" lon="11.4302884"><ele>392.66666666666663</ele><time>2026-04-04T10:12:34.574Z</time></trkpt><trkpt lat="43.4663737" lon="11.4303831"><ele>393.0</ele><time>2026-04-04T10:12:35.563Z</time></trkpt><trkpt lat="43.4664279" lon="11.4304899"><ele>393.33333333333337</ele><time>2026-04-04T10:12:36.582Z</time></trkpt><trkpt lat="43.4664793" lon="11.430602"><ele>393.6666666666667</ele><time>2026-04-04T10:12:37.567Z</time></trkpt><trkpt lat="43.4665262" lon="11.4307047"><ele>394.0</ele><time>2026-04-04T10:12:38.576Z</time></trkpt><trkpt lat="43.4665663" lon="11.4308005"><ele>393.00000000000006</ele><time>2026-04-04T10:12:39.569Z</time></trkpt><trkpt lat="43.4666064" lon="11.4308868"><ele>392.0</ele><time>2026-04-04T10:12:40.579Z</time></trkpt><trkpt lat="43.4666489" lon="11.4309675"><ele>391.0</ele><time>2026-04-04T10:12:41.596Z</time></trkpt><trkpt lat="43.4666933" lon="11.4310443"><ele>390.0</ele><time>2026-04-04T10:12:42.58Z</time></trkpt><trkpt lat="43.4667487" lon="11.431119"><ele>389.00000000000006</ele><time>2026-04-04T10:12:43.584Z</time></trkpt><trkpt lat="43.4668147" lon="11.4311925"><ele>388.0</ele><time>2026-04-04T10:12:44.586Z</time></trkpt><trkpt lat="43.4668945" lon="11.431254"><ele>388.0</ele><time>2026-04-04T10:12:45.582Z</time></trkpt><trkpt lat="43.4669844" lon="11.4313029"><ele>388.0</ele><time>2026-04-04T10:12:46.577Z</time></trkpt><trkpt lat="43.4670797" lon="11.4313426"><ele>388.0</ele><time>2026-04-04T10:12:47.575Z</time></trkpt><trkpt lat="43.4671811" lon="11.4313842"><ele>388.0</ele><time>2026-04-04T10:12:48.571Z</time></trkpt><trkpt lat="43.467297" lon="11.4314299"><ele>388.0</ele><time>2026-04-04T10:12:49.587Z</time></trkpt><trkpt lat="43.4674143" lon="11.4314847"><ele>385.0</ele><time>2026-04-04T10:12:50.575Z</time></trkpt><trkpt lat="43.4675268" lon="11.4315534"><ele>382.0</ele><time>2026-04-04T10:12:51.579Z</time></trkpt><trkpt lat="43.4676322" lon="11.4316321"><ele>379.0</ele><time>2026-04-04T10:12:52.574Z</time></trkpt><trkpt lat="43.467732" lon="11.4317216"><ele>376.0</ele><time>2026-04-04T10:12:53.578Z</time></trkpt><trkpt lat="43.4678265" lon="11.4318148"><ele>376.0</ele><time>2026-04-04T10:12:54.576Z</time></trkpt><trkpt lat="43.4679101" lon="11.4319074"><ele>376.0</ele><time>2026-04-04T10:12:55.573Z</time></trkpt><trkpt lat="43.4679894" lon="11.4319996"><ele>376.0</ele><time>2026-04-04T10:12:56.578Z</time></trkpt><trkpt lat="43.4680618" lon="11.4320839"><ele>376.0</ele><time>2026-04-04T10:12:57.57Z</time></trkpt><trkpt lat="43.468133" lon="11.4321709"><ele>376.0</ele><time>2026-04-04T10:12:58.581Z</time></trkpt><trkpt lat="43.4682019" lon="11.4322612"><ele>374.0</ele><time>2026-04-04T10:12:59.575Z</time></trkpt><trkpt lat="43.468267" lon="11.4323482"><ele>372.0</ele><time>2026-04-04T10:13:00.573Z</time></trkpt><trkpt lat="43.4683302" lon="11.4324275"><ele>370.0</ele><time>2026-04-04T10:13:01.574Z</time></trkpt><trkpt lat="43.4683884" lon="11.4325041"><ele>368.0</ele><time>2026-04-04T10:13:02.579Z</time></trkpt><trkpt lat="43.4684304" lon="11.4325984"><ele>366.0</ele><time>2026-04-04T10:13:03.577Z</time></trkpt><trkpt lat="43.4684585" lon="11.4327045"><ele>364.0</ele><time>2026-04-04T10:13:04.575Z</time></trkpt><trkpt lat="43.4684849" lon="11.4328193"><ele>364.0</ele><time>2026-04-04T10:13:05.582Z</time></trkpt><trkpt lat="43.468509" lon="11.4329189"><ele>364.0</ele><time>2026-04-04T10:13:06.581Z</time></trkpt><trkpt lat="43.4685459" lon="11.4330655"><ele>364.0</ele><time>2026-04-04T10:13:08.579Z</time></trkpt><trkpt lat="43.4685365" lon="11.4331721"><ele>364.0</ele><time>2026-04-04T10:13:10.576Z</time></trkpt><trkpt lat="43.4684476" lon="11.4332725"><ele>364.0</ele><time>2026-04-04T10:13:12.574Z</time></trkpt><trkpt lat="43.4683688" lon="11.4333195"><ele>362.79999999999995</ele><time>2026-04-04T10:13:13.565Z</time></trkpt><trkpt lat="43.4682841" lon="11.433368"><ele>361.59999999999997</ele><time>2026-04-04T10:13:14.573Z</time></trkpt><trkpt lat="43.4681957" lon="11.4334288"><ele>360.4</ele><time>2026-04-04T10:13:15.571Z</time></trkpt><trkpt lat="43.4681053" lon="11.4335048"><ele>359.2</ele><time>2026-04-04T10:13:16.591Z</time></trkpt><trkpt lat="43.4680151" lon="11.4335936"><ele>358.0</ele><time>2026-04-04T10:13:17.563Z</time></trkpt><trkpt lat="43.4679216" lon="11.4336888"><ele>357.4</ele><time>2026-04-04T10:13:18.572Z</time></trkpt><trkpt lat="43.467831" lon="11.4337865"><ele>356.79999999999995</ele><time>2026-04-04T10:13:19.565Z</time></trkpt><trkpt lat="43.4677464" lon="11.4338749"><ele>356.2</ele><time>2026-04-04T10:13:20.569Z</time></trkpt><trkpt lat="43.4676665" lon="11.4339528"><ele>355.6</ele><time>2026-04-04T10:13:21.57Z</time></trkpt><trkpt lat="43.4675877" lon="11.4340248"><ele>355.0</ele><time>2026-04-04T10:13:22.574Z</time></trkpt><trkpt lat="43.467513" lon="11.434082"><ele>354.8</ele><time>2026-04-04T10:13:23.581Z</time></trkpt><trkpt lat="43.4674406" lon="11.4341325"><ele>354.6</ele><time>2026-04-04T10:13:24.574Z</time></trkpt><trkpt lat="43.467362" lon="11.4341747"><ele>354.4</ele><time>2026-04-04T10:13:25.577Z</time></trkpt><trkpt lat="43.4672685" lon="11.4342147"><ele>354.2</ele><time>2026-04-04T10:13:26.578Z</time></trkpt><trkpt lat="43.4671773" lon="11.4342519"><ele>354.0</ele><time>2026-04-04T10:13:27.581Z</time></trkpt><trkpt lat="43.467074" lon="11.4342805"><ele>353.25</ele><time>2026-04-04T10:13:28.576Z</time></trkpt><trkpt lat="43.4669623" lon="11.4343068"><ele>352.5</ele><time>2026-04-04T10:13:29.567Z</time></trkpt><trkpt lat="43.4668468" lon="11.4343339"><ele>351.75</ele><time>2026-04-04T10:13:30.574Z</time></trkpt><trkpt lat="43.4667272" lon="11.4343526"><ele>351.0</ele><time>2026-04-04T10:13:31.592Z</time></trkpt><trkpt lat="43.4666014" lon="11.4343539"><ele>351.0</ele><time>2026-04-04T10:13:32.579Z</time></trkpt><trkpt lat="43.4664715" lon="11.4343477"><ele>351.0</ele><time>2026-04-04T10:13:33.581Z</time></trkpt><trkpt lat="43.4663383" lon="11.4343394"><ele>351.0</ele><time>2026-04-04T10:13:34.577Z</time></trkpt><trkpt lat="43.4662026" lon="11.4343157"><ele>351.0</ele><time>2026-04-04T10:13:35.574Z</time></trkpt><trkpt lat="43.4660629" lon="11.4342691"><ele>350.25</ele><time>2026-04-04T10:13:36.58Z</time></trkpt><trkpt lat="43.4659206" lon="11.4342197"><ele>349.5</ele><time>2026-04-04T10:13:37.583Z</time></trkpt><trkpt lat="43.4657821" lon="11.4341651"><ele>348.75</ele><time>2026-04-04T10:13:38.575Z</time></trkpt><trkpt lat="43.4656505" lon="11.4341002"><ele>348.0</ele><time>2026-04-04T10:13:39.585Z</time></trkpt><trkpt lat="43.4655358" lon="11.4340103"><ele>348.0</ele><time>2026-04-04T10:13:40.585Z</time></trkpt><trkpt lat="43.4654364" lon="11.4338902"><ele>348.0</ele><time>2026-04-04T10:13:41.583Z</time></trkpt><trkpt lat="43.4653433" lon="11.4337522"><ele>348.0</ele><time>2026-04-04T10:13:42.582Z</time></trkpt><trkpt lat="43.4652482" lon="11.433609"><ele>348.0</ele><time>2026-04-04T10:13:43.576Z</time></trkpt><trkpt lat="43.4651532" lon="11.4334737"><ele>348.0</ele><time>2026-04-04T10:13:44.583Z</time></trkpt><trkpt lat="43.4650563" lon="11.4333554"><ele>348.0</ele><time>2026-04-04T10:13:45.58Z</time></trkpt><trkpt lat="43.4649548" lon="11.4332571"><ele>348.0</ele><time>2026-04-04T10:13:46.575Z</time></trkpt><trkpt lat="43.4648478" lon="11.4331741"><ele>348.0</ele><time>2026-04-04T10:13:47.584Z</time></trkpt><trkpt lat="43.4647393" lon="11.433089"><ele>348.0</ele><time>2026-04-04T10:13:48.574Z</time></trkpt><trkpt lat="43.464627" lon="11.4330006"><ele>348.0</ele><time>2026-04-04T10:13:49.576Z</time></trkpt><trkpt lat="43.464514" lon="11.4329053"><ele>348.0</ele><time>2026-04-04T10:13:50.57Z</time></trkpt><trkpt lat="43.4644066" lon="11.4327989"><ele>348.0</ele><time>2026-04-04T10:13:51.575Z</time></trkpt><trkpt lat="43.4643098" lon="11.4326713"><ele>348.25</ele><time>2026-04-04T10:13:52.577Z</time></trkpt><trkpt lat="43.4642217" lon="11.4325198"><ele>348.5</ele><time>2026-04-04T10:13:53.574Z</time></trkpt><trkpt lat="43.4641442" lon="11.4323449"><ele>348.75</ele><time>2026-04-04T10:13:54.575Z</time></trkpt><trkpt lat="43.4640661" lon="11.4321556"><ele>349.0</ele><time>2026-04-04T10:13:55.586Z</time></trkpt><trkpt lat="43.4639838" lon="11.4319526"><ele>347.66666666666663</ele><time>2026-04-04T10:13:56.574Z</time></trkpt><trkpt lat="43.4639001" lon="11.4317353"><ele>346.3333333333333</ele><time>2026-04-04T10:13:57.575Z</time></trkpt><trkpt lat="43.4638193" lon="11.4315205"><ele>345.0</ele><time>2026-04-04T10:13:58.572Z</time></trkpt><trkpt lat="43.4637327" lon="11.4313172"><ele>345.6666666666667</ele><time>2026-04-04T10:13:59.572Z</time></trkpt><trkpt lat="43.4636395" lon="11.4311172"><ele>346.33333333333337</ele><time>2026-04-04T10:14:00.571Z</time></trkpt><trkpt lat="43.463541" lon="11.4309196"><ele>347.0</ele><time>2026-04-04T10:14:01.576Z</time></trkpt><trkpt lat="43.4634327" lon="11.4307314"><ele>347.0</ele><time>2026-04-04T10:14:02.574Z</time></trkpt><trkpt lat="43.463313" lon="11.4305454"><ele>347.0</ele><time>2026-04-04T10:14:03.576Z</time></trkpt><trkpt lat="43.4631942" lon="11.4303567"><ele>347.0</ele><time>2026-04-04T10:14:04.57Z</time></trkpt><trkpt lat="43.4630803" lon="11.4301575"><ele>346.6666666666667</ele><time>2026-04-04T10:14:05.578Z</time></trkpt><trkpt lat="43.4629646" lon="11.4299549"><ele>346.3333333333333</ele><time>2026-04-04T10:14:06.572Z</time></trkpt><trkpt lat="43.4628391" lon="11.4297546"><ele>346.0</ele><time>2026-04-04T10:14:07.58Z</time></trkpt><trkpt lat="43.4626958" lon="11.4295615"><ele>346.0</ele><time>2026-04-04T10:14:08.574Z</time></trkpt><trkpt lat="43.4625442" lon="11.4293721"><ele>346.0</ele><time>2026-04-04T10:14:09.583Z</time></trkpt><trkpt lat="43.462403" lon="11.4291891"><ele>346.0</ele><time>2026-04-04T10:14:10.571Z</time></trkpt><trkpt lat="43.4622673" lon="11.4290145"><ele>346.0</ele><time>2026-04-04T10:14:11.575Z</time></trkpt><trkpt lat="43.4621334" lon="11.4288507"><ele>346.0</ele><time>2026-04-04T10:14:12.572Z</time></trkpt><trkpt lat="43.4620001" lon="11.4286836"><ele>346.0</ele><time>2026-04-04T10:14:13.577Z</time></trkpt><trkpt lat="43.4618643" lon="11.428518"><ele>344.66666666666663</ele><time>2026-04-04T10:14:14.569Z</time></trkpt><trkpt lat="43.4617211" lon="11.4283565"><ele>343.3333333333333</ele><time>2026-04-04T10:14:15.583Z</time></trkpt><trkpt lat="43.4615748" lon="11.4281972"><ele>342.0</ele><time>2026-04-04T10:14:16.57Z</time></trkpt><trkpt lat="43.4614254" lon="11.4280382"><ele>341.3333333333333</ele><time>2026-04-04T10:14:17.575Z</time></trkpt><trkpt lat="43.4612809" lon="11.4278883"><ele>340.66666666666663</ele><time>2026-04-04T10:14:18.572Z</time></trkpt><trkpt lat="43.4611406" lon="11.427746"><ele>340.0</ele><time>2026-04-04T10:14:19.574Z</time></trkpt><trkpt lat="43.461014" lon="11.4276126"><ele>340.0</ele><time>2026-04-04T10:14:20.576Z</time></trkpt><trkpt lat="43.4609029" lon="11.4274946"><ele>340.0</ele><time>2026-04-04T10:14:21.584Z</time></trkpt><trkpt lat="43.4608054" lon="11.4273903"><ele>340.0</ele><time>2026-04-04T10:14:22.583Z</time></trkpt><trkpt lat="43.4607176" lon="11.427299"><ele>340.0</ele><time>2026-04-04T10:14:23.575Z</time></trkpt><trkpt lat="43.4606371" lon="11.4272259"><ele>340.0</ele><time>2026-04-04T10:14:24.585Z</time></trkpt><trkpt lat="43.4605519" lon="11.4271631"><ele>340.0</ele><time>2026-04-04T10:14:25.579Z</time></trkpt><trkpt lat="43.460451" lon="11.4271088"><ele>340.0</ele><time>2026-04-04T10:14:26.584Z</time></trkpt><trkpt lat="43.4603436" lon="11.427059"><ele>340.0</ele><time>2026-04-04T10:14:27.578Z</time></trkpt><trkpt lat="43.4602125" lon="11.4270017"><ele>341.0</ele><time>2026-04-04T10:14:28.584Z</time></trkpt><trkpt lat="43.4600604" lon="11.4269369"><ele>342.0</ele><time>2026-04-04T10:14:29.575Z</time></trkpt><trkpt lat="43.4598867" lon="11.4268614"><ele>343.0</ele><time>2026-04-04T10:14:30.574Z</time></trkpt><trkpt lat="43.4596952" lon="11.4267747"><ele>341.0</ele><time>2026-04-04T10:14:31.576Z</time></trkpt><trkpt lat="43.4594867" lon="11.4266793"><ele>339.0</ele><time>2026-04-04T10:14:32.575Z</time></trkpt><trkpt lat="43.4592679" lon="11.4265806"><ele>339.0</ele><time>2026-04-04T10:14:33.575Z</time></trkpt><trkpt lat="43.4590436" lon="11.426482"><ele>339.0</ele><time>2026-04-04T10:14:34.576Z</time></trkpt><trkpt lat="43.4588327" lon="11.4263873"><ele>338.0</ele><time>2026-04-04T10:14:35.579Z</time></trkpt><trkpt lat="43.4586336" lon="11.4262976"><ele>337.0</ele><time>2026-04-04T10:14:36.575Z</time></trkpt><trkpt lat="43.4584499" lon="11.4262177"><ele>336.0</ele><time>2026-04-04T10:14:37.577Z</time></trkpt><trkpt lat="43.4582874" lon="11.4261447"><ele>336.0</ele><time>2026-04-04T10:14:38.576Z</time></trkpt><trkpt lat="43.4581534" lon="11.4260816"><ele>336.0</ele><time>2026-04-04T10:14:39.576Z</time></trkpt><trkpt lat="43.45805" lon="11.4260357"><ele>336.0</ele><time>2026-04-04T10:14:40.573Z</time></trkpt><trkpt lat="43.4579815" lon="11.4260051"><ele>336.0</ele><time>2026-04-04T10:14:41.574Z</time></trkpt><trkpt lat="43.4579336" lon="11.4259476"><ele>336.0</ele><time>2026-04-04T10:14:43.575Z</time></trkpt><trkpt lat="43.4579506" lon="11.4258505"><ele>336.0</ele><time>2026-04-04T10:14:46.571Z</time></trkpt><trkpt lat="43.4580081" lon="11.4257595"><ele>336.0</ele><time>2026-04-04T10:15:30.582Z</time></trkpt><trkpt lat="43.458016" lon="11.4256509"><ele>336.0</ele><time>2026-04-04T10:15:32.577Z</time></trkpt><trkpt lat="43.4580076" lon="11.4255467"><ele>336.0</ele><time>2026-04-04T10:15:34.567Z</time></trkpt><trkpt lat="43.4579612" lon="11.4254619"><ele>336.0</ele><time>2026-04-04T10:15:36.57Z</time></trkpt><trkpt lat="43.4578882" lon="11.4254115"><ele>336.0</ele><time>2026-04-04T10:15:38.572Z</time></trkpt><trkpt lat="43.4578002" lon="11.4253679"><ele>337.5</ele><time>2026-04-04T10:15:40.568Z</time></trkpt><trkpt lat="43.4576887" lon="11.4253063"><ele>339.0</ele><time>2026-04-04T10:15:42.57Z</time></trkpt><trkpt lat="43.4576286" lon="11.4252663"><ele>340.5</ele><time>2026-04-04T10:15:43.564Z</time></trkpt><trkpt lat="43.4575621" lon="11.4252252"><ele>342.0</ele><time>2026-04-04T10:15:44.593Z</time></trkpt><trkpt lat="43.4574893" lon="11.4251831"><ele>343.5</ele><time>2026-04-04T10:15:45.577Z</time></trkpt><trkpt lat="43.4574158" lon="11.425144"><ele>345.0</ele><time>2026-04-04T10:15:46.567Z</time></trkpt><trkpt lat="43.4573424" lon="11.4251057"><ele>345.0</ele><time>2026-04-04T10:15:47.58Z</time></trkpt><trkpt lat="43.4572813" lon="11.4250673"><ele>345.0</ele><time>2026-04-04T10:15:48.575Z</time></trkpt><trkpt lat="43.4571923" lon="11.4249574"><ele>345.0</ele><time>2026-04-04T10:15:50.572Z</time></trkpt><trkpt lat="43.4571401" lon="11.4248068"><ele>345.0</ele><time>2026-04-04T10:15:52.578Z</time></trkpt><trkpt lat="43.4571125" lon="11.4247147"><ele>345.0</ele><time>2026-04-04T10:15:53.587Z</time></trkpt><trkpt lat="43.4570783" lon="11.4246209"><ele>346.8</ele><time>2026-04-04T10:15:54.591Z</time></trkpt><trkpt lat="43.4570342" lon="11.4245249"><ele>348.6</ele><time>2026-04-04T10:15:55.574Z</time></trkpt><trkpt lat="43.4569844" lon="11.424425"><ele>350.4</ele><time>2026-04-04T10:15:56.574Z</time></trkpt><trkpt lat="43.4569278" lon="11.4243168"><ele>352.2</ele><time>2026-04-04T10:15:57.574Z</time></trkpt><trkpt lat="43.4568668" lon="11.424203"><ele>354.0</ele><time>2026-04-04T10:15:58.58Z</time></trkpt><trkpt lat="43.4568183" lon="11.4241116"><ele>354.0</ele><time>2026-04-04T10:15:59.572Z</time></trkpt><trkpt lat="43.4567607" lon="11.4240139"><ele>354.0</ele><time>2026-04-04T10:16:00.572Z</time></trkpt><trkpt lat="43.4567146" lon="11.4239312"><ele>354.0</ele><time>2026-04-04T10:16:01.575Z</time></trkpt><trkpt lat="43.4566661" lon="11.4238549"><ele>354.0</ele><time>2026-04-04T10:16:02.571Z</time></trkpt><trkpt lat="43.4566065" lon="11.4237437"><ele>354.0</ele><time>2026-04-04T10:16:04.588Z</time></trkpt><trkpt lat="43.4565689" lon="11.4236585"><ele>354.0</ele><time>2026-04-04T10:16:06.572Z</time></trkpt><trkpt lat="43.4565091" lon="11.42359"><ele>354.0</ele><time>2026-04-04T10:16:09.578Z</time></trkpt><trkpt lat="43.456447" lon="11.4235446"><ele>354.0</ele><time>2026-04-04T10:16:11.584Z</time></trkpt><trkpt lat="43.4563771" lon="11.4234928"><ele>354.0</ele><time>2026-04-04T10:16:15.566Z</time></trkpt><trkpt lat="43.4563247" lon="11.4234397"><ele>354.0</ele><time>2026-04-04T10:16:54.576Z</time></trkpt><trkpt lat="43.4562475" lon="11.4233654"><ele>354.0</ele><time>2026-04-04T10:16:56.585Z</time></trkpt><trkpt lat="43.456169" lon="11.4232789"><ele>354.0</ele><time>2026-04-04T10:16:58.576Z</time></trkpt><trkpt lat="43.4560961" lon="11.4231857"><ele>354.0</ele><time>2026-04-04T10:17:00.584Z</time></trkpt><trkpt lat="43.4560309" lon="11.4230952"><ele>354.0</ele><time>2026-04-04T10:17:02.578Z</time></trkpt><trkpt lat="43.4559743" lon="11.4229875"><ele>354.0</ele><time>2026-04-04T10:17:04.568Z</time></trkpt><trkpt lat="43.4559199" lon="11.42288"><ele>354.0</ele><time>2026-04-04T10:17:06.572Z</time></trkpt><trkpt lat="43.4558706" lon="11.4227551"><ele>354.0</ele><time>2026-04-04T10:17:08.568Z</time></trkpt><trkpt lat="43.4558352" lon="11.4226787"><ele>354.6</ele><time>2026-04-04T10:17:09.572Z</time></trkpt><trkpt lat="43.4557747" lon="11.4225586"><ele>355.2</ele><time>2026-04-04T10:17:11.586Z</time></trkpt><trkpt lat="43.4557105" lon="11.4224366"><ele>355.8</ele><time>2026-04-04T10:17:13.577Z</time></trkpt><trkpt lat="43.455639" lon="11.4223221"><ele>356.40000000000003</ele><time>2026-04-04T10:17:15.58Z</time></trkpt><trkpt lat="43.4555551" lon="11.4222144"><ele>357.0</ele><time>2026-04-04T10:17:17.572Z</time></trkpt><trkpt lat="43.4555086" lon="11.4221477"><ele>356.6666666666667</ele><time>2026-04-04T10:17:18.577Z</time></trkpt><trkpt lat="43.4554618" lon="11.4220779"><ele>356.3333333333333</ele><time>2026-04-04T10:17:19.576Z</time></trkpt><trkpt lat="43.4554171" lon="11.4220138"><ele>356.0</ele><time>2026-04-04T10:17:20.585Z</time></trkpt><trkpt lat="43.4553252" lon="11.4218854"><ele>355.66666666666663</ele><time>2026-04-04T10:17:22.569Z</time></trkpt><trkpt lat="43.4552733" lon="11.4218028"><ele>355.3333333333333</ele><time>2026-04-04T10:17:23.586Z</time></trkpt><trkpt lat="43.4552175" lon="11.4217089"><ele>355.0</ele><time>2026-04-04T10:17:24.571Z</time></trkpt><trkpt lat="43.4551697" lon="11.4216261"><ele>355.0</ele><time>2026-04-04T10:17:25.576Z</time></trkpt><trkpt lat="43.4551228" lon="11.4215438"><ele>355.0</ele><time>2026-04-04T10:17:26.574Z</time></trkpt><trkpt lat="43.4550789" lon="11.4214648"><ele>355.0</ele><time>2026-04-04T10:17:27.564Z</time></trkpt><trkpt lat="43.4550371" lon="11.4213887"><ele>355.0</ele><time>2026-04-04T10:17:28.574Z</time></trkpt><trkpt lat="43.4549649" lon="11.4212558"><ele>355.0</ele><time>2026-04-04T10:17:30.579Z</time></trkpt><trkpt lat="43.4548879" lon="11.4211327"><ele>355.0</ele><time>2026-04-04T10:17:32.571Z</time></trkpt><trkpt lat="43.4548122" lon="11.4210512"><ele>355.0</ele><time>2026-04-04T10:17:34.572Z</time></trkpt><trkpt lat="43.4547534" lon="11.4210132"><ele>355.0</ele><time>2026-04-04T10:17:37.568Z</time></trkpt><trkpt lat="43.4546896" lon="11.420966"><ele>355.0</ele><time>2026-04-04T10:17:42.575Z</time></trkpt><trkpt lat="43.4546298" lon="11.4209171"><ele>355.0</ele><time>2026-04-04T10:17:44.585Z</time></trkpt><trkpt lat="43.454563" lon="11.42085"><ele>355.0</ele><time>2026-04-04T10:17:46.572Z</time></trkpt><trkpt lat="43.454493" lon="11.4207679"><ele>354.6</ele><time>2026-04-04T10:17:48.571Z</time></trkpt><trkpt lat="43.4544382" lon="11.4206789"><ele>354.2</ele><time>2026-04-04T10:17:50.576Z</time></trkpt><trkpt lat="43.4543776" lon="11.4205812"><ele>353.79999999999995</ele><time>2026-04-04T10:17:52.581Z</time></trkpt><trkpt lat="43.4542878" lon="11.4205105"><ele>353.4</ele><time>2026-04-04T10:17:54.577Z</time></trkpt><trkpt lat="43.4541835" lon="11.4204637"><ele>353.0</ele><time>2026-04-04T10:17:56.573Z</time></trkpt><trkpt lat="43.4540866" lon="11.4204031"><ele>353.0</ele><time>2026-04-04T10:17:58.574Z</time></trkpt><trkpt lat="43.4539799" lon="11.420355"><ele>353.0</ele><time>2026-04-04T10:18:00.573Z</time></trkpt><trkpt lat="43.4538834" lon="11.4203231"><ele>353.0</ele><time>2026-04-04T10:18:02.576Z</time></trkpt><trkpt lat="43.4537951" lon="11.4202712"><ele>353.0</ele><time>2026-04-04T10:18:04.576Z</time></trkpt><trkpt lat="43.4537272" lon="11.4201726"><ele>353.0</ele><time>2026-04-04T10:18:06.575Z</time></trkpt><trkpt lat="43.4536727" lon="11.4200845"><ele>352.6666666666667</ele><time>2026-04-04T10:18:08.575Z</time></trkpt><trkpt lat="43.4536218" lon="11.4200003"><ele>352.33333333333337</ele><time>2026-04-04T10:18:10.583Z</time></trkpt><trkpt lat="43.4535895" lon="11.4199043"><ele>352.0</ele><time>2026-04-04T10:18:12.57Z</time></trkpt><trkpt lat="43.4535771" lon="11.4198079"><ele>351.6666666666667</ele><time>2026-04-04T10:18:14.57Z</time></trkpt><trkpt lat="43.4535448" lon="11.4197231"><ele>351.3333333333333</ele><time>2026-04-04T10:18:16.581Z</time></trkpt><trkpt lat="43.4534785" lon="11.4196849"><ele>351.0</ele><time>2026-04-04T10:18:18.574Z</time></trkpt><trkpt lat="43.4533933" lon="11.4197061"><ele>351.0</ele><time>2026-04-04T10:18:20.571Z</time></trkpt><trkpt lat="43.4533202" lon="11.4197766"><ele>351.0</ele><time>2026-04-04T10:18:22.581Z</time></trkpt><trkpt lat="43.4532493" lon="11.419849"><ele>351.0</ele><time>2026-04-04T10:18:24.573Z</time></trkpt><trkpt lat="43.45318" lon="11.419927"><ele>351.0</ele><time>2026-04-04T10:18:26.565Z</time></trkpt><trkpt lat="43.4531202" lon="11.4199887"><ele>351.0</ele><time>2026-04-04T10:18:28.57Z</time></trkpt><trkpt lat="43.4530653" lon="11.4200352"><ele>351.0</ele><time>2026-04-04T10:18:30.582Z</time></trkpt><trkpt lat="43.4529738" lon="11.4200593"><ele>350.14285714285717</ele><time>2026-04-04T10:18:33.567Z</time></trkpt><trkpt lat="43.4529068" lon="11.4200416"><ele>349.2857142857143</ele><time>2026-04-04T10:18:35.578Z</time></trkpt><trkpt lat="43.452844" lon="11.4199877"><ele>348.42857142857144</ele><time>2026-04-04T10:18:37.581Z</time></trkpt><trkpt lat="43.4527848" lon="11.419931"><ele>347.57142857142856</ele><time>2026-04-04T10:18:39.573Z</time></trkpt><trkpt lat="43.4527171" lon="11.4199085"><ele>346.7142857142857</ele><time>2026-04-04T10:18:41.574Z</time></trkpt><trkpt lat="43.4526384" lon="11.4199084"><ele>345.8571428571429</ele><time>2026-04-04T10:18:43.581Z</time></trkpt><trkpt lat="43.4525534" lon="11.4199004"><ele>345.0</ele><time>2026-04-04T10:18:45.574Z</time></trkpt><trkpt lat="43.4524603" lon="11.4198691"><ele>345.0</ele><time>2026-04-04T10:18:47.575Z</time></trkpt><trkpt lat="43.4523672" lon="11.4198278"><ele>345.0</ele><time>2026-04-04T10:18:49.575Z</time></trkpt><trkpt lat="43.4522861" lon="11.4197812"><ele>345.0</ele><time>2026-04-04T10:18:51.571Z</time></trkpt><trkpt lat="43.4522088" lon="11.4197312"><ele>345.0</ele><time>2026-04-04T10:18:53.578Z</time></trkpt><trkpt lat="43.4521295" lon="11.4196948"><ele>345.0</ele><time>2026-04-04T10:18:55.577Z</time></trkpt><trkpt lat="43.4520482" lon="11.4196576"><ele>345.0</ele><time>2026-04-04T10:18:57.579Z</time></trkpt><trkpt lat="43.4519638" lon="11.4195787"><ele>342.8</ele><time>2026-04-04T10:18:59.574Z</time></trkpt><trkpt lat="43.4518784" lon="11.4195049"><ele>340.6</ele><time>2026-04-04T10:19:01.577Z</time></trkpt><trkpt lat="43.4517938" lon="11.4194486"><ele>338.4</ele><time>2026-04-04T10:19:03.572Z</time></trkpt><trkpt lat="43.4517141" lon="11.4194012"><ele>336.2</ele><time>2026-04-04T10:19:05.569Z</time></trkpt><trkpt lat="43.4516385" lon="11.4193489"><ele>334.0</ele><time>2026-04-04T10:19:07.572Z</time></trkpt><trkpt lat="43.4515664" lon="11.4192847"><ele>334.0</ele><time>2026-04-04T10:19:09.592Z</time></trkpt><trkpt lat="43.4515154" lon="11.4192054"><ele>334.0</ele><time>2026-04-04T10:19:11.577Z</time></trkpt><trkpt lat="43.4515046" lon="11.4191137"><ele>334.0</ele><time>2026-04-04T10:19:13.572Z</time></trkpt><trkpt lat="43.4515147" lon="11.4190251"><ele>334.0</ele><time>2026-04-04T10:19:15.576Z</time></trkpt><trkpt lat="43.4514906" lon="11.4189303"><ele>334.0</ele><time>2026-04-04T10:19:28.567Z</time></trkpt><trkpt lat="43.4515584" lon="11.4188958"><ele>334.0</ele><time>2026-04-04T10:19:36.569Z</time></trkpt><trkpt lat="43.4516195" lon="11.4188586"><ele>334.0</ele><time>2026-04-04T10:19:44.578Z</time></trkpt><trkpt lat="43.4515345" lon="11.4188986"><ele>334.0</ele><time>2026-04-04T10:22:58.568Z</time></trkpt><trkpt lat="43.4514669" lon="11.4189477"><ele>334.0</ele><time>2026-04-04T10:23:00.564Z</time></trkpt><trkpt lat="43.4514096" lon="11.4189995"><ele>334.0</ele><time>2026-04-04T10:23:02.58Z</time></trkpt><trkpt lat="43.4513773" lon="11.4190918"><ele>334.0</ele><time>2026-04-04T10:23:04.582Z</time></trkpt><trkpt lat="43.4513539" lon="11.4191993"><ele>334.0</ele><time>2026-04-04T10:23:07.574Z</time></trkpt><trkpt lat="43.4513004" lon="11.4192512"><ele>334.0</ele><time>2026-04-04T10:23:10.567Z</time></trkpt><trkpt lat="43.4512192" lon="11.4192599"><ele>334.0</ele><time>2026-04-04T10:23:13.579Z</time></trkpt><trkpt lat="43.4511462" lon="11.4192499"><ele>332.4</ele><time>2026-04-04T10:23:42.572Z</time></trkpt><trkpt lat="43.4510776" lon="11.4192082"><ele>330.79999999999995</ele><time>2026-04-04T10:23:43.58Z</time></trkpt><trkpt lat="43.4509954" lon="11.4191623"><ele>329.20000000000005</ele><time>2026-04-04T10:23:44.577Z</time></trkpt><trkpt lat="43.4508937" lon="11.4191174"><ele>327.6</ele><time>2026-04-04T10:23:45.588Z</time></trkpt><trkpt lat="43.4507788" lon="11.4190794"><ele>326.0</ele><time>2026-04-04T10:23:46.578Z</time></trkpt><trkpt lat="43.4506538" lon="11.4190426"><ele>326.0</ele><time>2026-04-04T10:23:47.573Z</time></trkpt><trkpt lat="43.450519" lon="11.419006"><ele>326.0</ele><time>2026-04-04T10:23:48.577Z</time></trkpt><trkpt lat="43.4503696" lon="11.4189829"><ele>326.0</ele><time>2026-04-04T10:23:49.58Z</time></trkpt><trkpt lat="43.4502109" lon="11.4189613"><ele>326.0</ele><time>2026-04-04T10:23:50.572Z</time></trkpt><trkpt lat="43.4500412" lon="11.4189243"><ele>325.33333333333337</ele><time>2026-04-04T10:23:51.577Z</time></trkpt><trkpt lat="43.4498711" lon="11.4188527"><ele>324.6666666666667</ele><time>2026-04-04T10:23:52.581Z</time></trkpt><trkpt lat="43.4496935" lon="11.4187694"><ele>324.0</ele><time>2026-04-04T10:23:53.585Z</time></trkpt><trkpt lat="43.4495196" lon="11.4186856"><ele>326.3333333333333</ele><time>2026-04-04T10:23:54.573Z</time></trkpt><trkpt lat="43.4493486" lon="11.4186113"><ele>328.66666666666663</ele><time>2026-04-04T10:23:55.579Z</time></trkpt><trkpt lat="43.449175" lon="11.418577"><ele>331.0</ele><time>2026-04-04T10:23:56.564Z</time></trkpt><trkpt lat="43.4489894" lon="11.4185609"><ele>331.0</ele><time>2026-04-04T10:23:57.576Z</time></trkpt><trkpt lat="43.4488101" lon="11.4185438"><ele>331.0</ele><time>2026-04-04T10:23:58.583Z</time></trkpt><trkpt lat="43.4486459" lon="11.4185203"><ele>331.0</ele><time>2026-04-04T10:23:59.581Z</time></trkpt><trkpt lat="43.4484934" lon="11.4184832"><ele>331.0</ele><time>2026-04-04T10:24:00.582Z</time></trkpt><trkpt lat="43.448347" lon="11.4184166"><ele>331.0</ele><time>2026-04-04T10:24:01.576Z</time></trkpt><trkpt lat="43.4482076" lon="11.4183176"><ele>331.0</ele><time>2026-04-04T10:24:02.573Z</time></trkpt><trkpt lat="43.4480773" lon="11.4181967"><ele>331.0</ele><time>2026-04-04T10:24:03.578Z</time></trkpt><trkpt lat="43.4479671" lon="11.4180925"><ele>331.0</ele><time>2026-04-04T10:24:04.58Z</time></trkpt><trkpt lat="43.4478825" lon="11.4180072"><ele>331.0</ele><time>2026-04-04T10:24:05.583Z</time></trkpt><trkpt lat="43.4478254" lon="11.4179421"><ele>331.0</ele><time>2026-04-04T10:24:06.577Z</time></trkpt><trkpt lat="43.4477642" lon="11.4178439"><ele>331.0</ele><time>2026-04-04T10:24:08.58Z</time></trkpt><trkpt lat="43.4477095" lon="11.4177775"><ele>332.4</ele><time>2026-04-04T10:24:10.585Z</time></trkpt><trkpt lat="43.4476474" lon="11.4177299"><ele>333.8</ele><time>2026-04-04T10:24:13.613Z</time></trkpt><trkpt lat="43.4475424" lon="11.4176661"><ele>335.2</ele><time>2026-04-04T10:24:15.574Z</time></trkpt><trkpt lat="43.4474807" lon="11.4176424"><ele>336.59999999999997</ele><time>2026-04-04T10:24:16.582Z</time></trkpt><trkpt lat="43.4473668" lon="11.4176073"><ele>338.0</ele><time>2026-04-04T10:24:18.572Z</time></trkpt><trkpt lat="43.4472649" lon="11.417577"><ele>338.0</ele><time>2026-04-04T10:24:20.579Z</time></trkpt><trkpt lat="43.4471627" lon="11.4175376"><ele>338.0</ele><time>2026-04-04T10:24:22.577Z</time></trkpt><trkpt lat="43.4470451" lon="11.4174979"><ele>338.0</ele><time>2026-04-04T10:24:24.573Z</time></trkpt><trkpt lat="43.4469666" lon="11.4174718"><ele>338.0</ele><time>2026-04-04T10:24:26.565Z</time></trkpt><trkpt lat="43.4469029" lon="11.4174514"><ele>338.0</ele><time>2026-04-04T10:24:28.574Z</time></trkpt><trkpt lat="43.4467953" lon="11.4174205"><ele>338.33333333333337</ele><time>2026-04-04T10:24:30.575Z</time></trkpt><trkpt lat="43.4467281" lon="11.4174016"><ele>338.6666666666667</ele><time>2026-04-04T10:24:31.58Z</time></trkpt><trkpt lat="43.4466344" lon="11.4173834"><ele>339.0</ele><time>2026-04-04T10:24:33.583Z</time></trkpt><trkpt lat="43.4465457" lon="11.4173696"><ele>339.3333333333333</ele><time>2026-04-04T10:24:35.573Z</time></trkpt><trkpt lat="43.4464578" lon="11.4173568"><ele>339.66666666666663</ele><time>2026-04-04T10:24:37.577Z</time></trkpt><trkpt lat="43.4463681" lon="11.4173461"><ele>340.0</ele><time>2026-04-04T10:24:39.585Z</time></trkpt><trkpt lat="43.4462408" lon="11.4172953"><ele>342.0</ele><time>2026-04-04T10:24:41.575Z</time></trkpt><trkpt lat="43.4461651" lon="11.4172646"><ele>344.0</ele><time>2026-04-04T10:24:42.579Z</time></trkpt><trkpt lat="43.4460916" lon="11.417222"><ele>346.0</ele><time>2026-04-04T10:24:43.573Z</time></trkpt><trkpt lat="43.4460276" lon="11.4171945"><ele>348.0</ele><time>2026-04-04T10:24:44.57Z</time></trkpt><trkpt lat="43.4459102" lon="11.4172118"><ele>350.0</ele><time>2026-04-04T10:24:46.574Z</time></trkpt><trkpt lat="43.4458381" lon="11.4172407"><ele>352.0</ele><time>2026-04-04T10:24:47.576Z</time></trkpt><trkpt lat="43.4457633" lon="11.417283"><ele>352.0</ele><time>2026-04-04T10:24:48.578Z</time></trkpt><trkpt lat="43.4456841" lon="11.4173336"><ele>352.0</ele><time>2026-04-04T10:24:49.577Z</time></trkpt><trkpt lat="43.4456002" lon="11.417385"><ele>352.0</ele><time>2026-04-04T10:24:50.572Z</time></trkpt><trkpt lat="43.4455279" lon="11.417439"><ele>352.0</ele><time>2026-04-04T10:24:51.576Z</time></trkpt><trkpt lat="43.4454741" lon="11.4174968"><ele>352.0</ele><time>2026-04-04T10:24:52.565Z</time></trkpt><trkpt lat="43.4454243" lon="11.4175725"><ele>352.0</ele><time>2026-04-04T10:24:53.577Z</time></trkpt><trkpt lat="43.4453812" lon="11.4176594"><ele>354.0</ele><time>2026-04-04T10:24:54.573Z</time></trkpt><trkpt lat="43.4453404" lon="11.4177568"><ele>356.0</ele><time>2026-04-04T10:24:55.592Z</time></trkpt><trkpt lat="43.4453037" lon="11.4178585"><ele>358.0</ele><time>2026-04-04T10:24:56.573Z</time></trkpt><trkpt lat="43.4452793" lon="11.4179513"><ele>360.0</ele><time>2026-04-04T10:24:57.576Z</time></trkpt><trkpt lat="43.4452509" lon="11.4180441"><ele>362.0</ele><time>2026-04-04T10:24:58.575Z</time></trkpt><trkpt lat="43.4452173" lon="11.4181195"><ele>364.0</ele><time>2026-04-04T10:24:59.584Z</time></trkpt><trkpt lat="43.4451235" lon="11.4182431"><ele>364.0</ele><time>2026-04-04T10:25:01.592Z</time></trkpt><trkpt lat="43.4450613" lon="11.4182869"><ele>364.0</ele><time>2026-04-04T10:25:02.57Z</time></trkpt><trkpt lat="43.4449973" lon="11.4183235"><ele>364.0</ele><time>2026-04-04T10:25:03.576Z</time></trkpt><trkpt lat="43.4449032" lon="11.4183443"><ele>364.0</ele><time>2026-04-04T10:25:05.575Z</time></trkpt><trkpt lat="43.4448497" lon="11.4182399"><ele>364.0</ele><time>2026-04-04T10:25:08.571Z</time></trkpt><trkpt lat="43.4448715" lon="11.418139"><ele>364.0</ele><time>2026-04-04T10:25:10.573Z</time></trkpt><trkpt lat="43.4448496" lon="11.418037"><ele>364.0</ele><time>2026-04-04T10:25:13.574Z</time></trkpt><trkpt lat="43.4447875" lon="11.4180179"><ele>364.0</ele><time>2026-04-04T10:25:15.573Z</time></trkpt><trkpt lat="43.4446915" lon="11.4180287"><ele>364.0</ele><time>2026-04-04T10:25:17.568Z</time></trkpt><trkpt lat="43.4445658" lon="11.4180286"><ele>364.0</ele><time>2026-04-04T10:25:19.574Z</time></trkpt><trkpt lat="43.4444978" lon="11.4180355"><ele>364.0</ele><time>2026-04-04T10:25:20.572Z</time></trkpt><trkpt lat="43.4444249" lon="11.4180508"><ele>364.0</ele><time>2026-04-04T10:25:21.582Z</time></trkpt><trkpt lat="43.4443581" lon="11.4180773"><ele>366.14285714285717</ele><time>2026-04-04T10:25:22.584Z</time></trkpt><trkpt lat="43.4442884" lon="11.4180954"><ele>368.2857142857143</ele><time>2026-04-04T10:25:23.573Z</time></trkpt><trkpt lat="43.4442132" lon="11.4181089"><ele>370.42857142857144</ele><time>2026-04-04T10:25:24.572Z</time></trkpt><trkpt lat="43.4441396" lon="11.4181218"><ele>372.57142857142856</ele><time>2026-04-04T10:25:25.573Z</time></trkpt><trkpt lat="43.4440625" lon="11.4181423"><ele>374.7142857142857</ele><time>2026-04-04T10:25:26.565Z</time></trkpt><trkpt lat="43.4439915" lon="11.4181653"><ele>376.8571428571429</ele><time>2026-04-04T10:25:27.58Z</time></trkpt><trkpt lat="43.4439209" lon="11.4181927"><ele>379.0</ele><time>2026-04-04T10:25:28.574Z</time></trkpt><trkpt lat="43.4438607" lon="11.4182216"><ele>379.0</ele><time>2026-04-04T10:25:29.577Z</time></trkpt><trkpt lat="43.443799" lon="11.4182512"><ele>379.0</ele><time>2026-04-04T10:25:30.579Z</time></trkpt><trkpt lat="43.4437046" lon="11.4183028"><ele>379.0</ele><time>2026-04-04T10:25:32.575Z</time></trkpt><trkpt lat="43.4435845" lon="11.4183694"><ele>379.0</ele><time>2026-04-04T10:25:34.567Z</time></trkpt><trkpt lat="43.44351" lon="11.4184131"><ele>379.0</ele><time>2026-04-04T10:25:35.579Z</time></trkpt><trkpt lat="43.4434317" lon="11.4184609"><ele>381.0</ele><time>2026-04-04T10:25:36.585Z</time></trkpt><trkpt lat="43.4433561" lon="11.4185195"><ele>383.0</ele><time>2026-04-04T10:25:37.588Z</time></trkpt><trkpt lat="43.4432766" lon="11.4185747"><ele>385.0</ele><time>2026-04-04T10:25:38.573Z</time></trkpt><trkpt lat="43.4431891" lon="11.4186234"><ele>387.0</ele><time>2026-04-04T10:25:39.574Z</time></trkpt><trkpt lat="43.4431017" lon="11.4186679"><ele>389.0</ele><time>2026-04-04T10:25:40.588Z</time></trkpt><trkpt lat="43.4430146" lon="11.41871"><ele>391.66666666666663</ele><time>2026-04-04T10:25:41.573Z</time></trkpt><trkpt lat="43.4429428" lon="11.4187441"><ele>394.3333333333333</ele><time>2026-04-04T10:25:42.573Z</time></trkpt><trkpt lat="43.4428734" lon="11.4187731"><ele>397.0</ele><time>2026-04-04T10:25:43.575Z</time></trkpt><trkpt lat="43.4428116" lon="11.4187897"><ele>399.66666666666663</ele><time>2026-04-04T10:25:44.569Z</time></trkpt><trkpt lat="43.4427466" lon="11.418796"><ele>402.3333333333333</ele><time>2026-04-04T10:25:45.573Z</time></trkpt><trkpt lat="43.4426218" lon="11.4187779"><ele>405.0</ele><time>2026-04-04T10:25:47.578Z</time></trkpt><trkpt lat="43.4425039" lon="11.4187919"><ele>405.0</ele><time>2026-04-04T10:25:49.568Z</time></trkpt><trkpt lat="43.4424401" lon="11.4188072"><ele>405.0</ele><time>2026-04-04T10:25:50.573Z</time></trkpt><trkpt lat="43.4423751" lon="11.4188302"><ele>405.0</ele><time>2026-04-04T10:25:51.573Z</time></trkpt><trkpt lat="43.4422552" lon="11.4188875"><ele>405.0</ele><time>2026-04-04T10:25:53.572Z</time></trkpt><trkpt lat="43.4421941" lon="11.4189106"><ele>405.0</ele><time>2026-04-04T10:25:54.585Z</time></trkpt><trkpt lat="43.4420704" lon="11.418921"><ele>405.0</ele><time>2026-04-04T10:25:56.583Z</time></trkpt><trkpt lat="43.441956" lon="11.4188863"><ele>404.4</ele><time>2026-04-04T10:25:58.582Z</time></trkpt><trkpt lat="43.4418603" lon="11.4188242"><ele>403.8</ele><time>2026-04-04T10:26:00.571Z</time></trkpt><trkpt lat="43.4417613" lon="11.418778"><ele>403.20000000000005</ele><time>2026-04-04T10:26:02.585Z</time></trkpt><trkpt lat="43.4416708" lon="11.4187331"><ele>402.6</ele><time>2026-04-04T10:26:04.594Z</time></trkpt><trkpt lat="43.4415745" lon="11.4186645"><ele>402.0</ele><time>2026-04-04T10:26:06.58Z</time></trkpt><trkpt lat="43.4414915" lon="11.4185825"><ele>402.0</ele><time>2026-04-04T10:26:08.578Z</time></trkpt><trkpt lat="43.4414222" lon="11.4185066"><ele>402.0</ele><time>2026-04-04T10:26:10.566Z</time></trkpt><trkpt lat="43.4413282" lon="11.4184133"><ele>402.0</ele><time>2026-04-04T10:26:12.584Z</time></trkpt><trkpt lat="43.4412409" lon="11.4183095"><ele>402.0</ele><time>2026-04-04T10:26:14.573Z</time></trkpt><trkpt lat="43.4411468" lon="11.4181874"><ele>402.0</ele><time>2026-04-04T10:26:16.573Z</time></trkpt><trkpt lat="43.4410651" lon="11.4180687"><ele>401.3333333333333</ele><time>2026-04-04T10:26:18.586Z</time></trkpt><trkpt lat="43.4409888" lon="11.4179343"><ele>400.66666666666663</ele><time>2026-04-04T10:26:20.585Z</time></trkpt><trkpt lat="43.4409481" lon="11.4178668"><ele>400.0</ele><time>2026-04-04T10:26:21.57Z</time></trkpt><trkpt lat="43.4409118" lon="11.4177937"><ele>399.3333333333333</ele><time>2026-04-04T10:26:22.581Z</time></trkpt><trkpt lat="43.4408776" lon="11.4177174"><ele>398.66666666666663</ele><time>2026-04-04T10:26:23.572Z</time></trkpt><trkpt lat="43.4408135" lon="11.4175847"><ele>398.0</ele><time>2026-04-04T10:26:25.573Z</time></trkpt><trkpt lat="43.4407411" lon="11.4174832"><ele>398.0</ele><time>2026-04-04T10:26:27.577Z</time></trkpt><trkpt lat="43.4406377" lon="11.4174296"><ele>398.0</ele><time>2026-04-04T10:26:29.585Z</time></trkpt><trkpt lat="43.4405243" lon="11.4173993"><ele>398.0</ele><time>2026-04-04T10:26:31.573Z</time></trkpt><trkpt lat="43.4403963" lon="11.4173753"><ele>398.0</ele><time>2026-04-04T10:26:33.575Z</time></trkpt><trkpt lat="43.4403145" lon="11.417357"><ele>398.0</ele><time>2026-04-04T10:26:34.575Z</time></trkpt><trkpt lat="43.4402432" lon="11.4173444"><ele>396.49999999999994</ele><time>2026-04-04T10:26:35.579Z</time></trkpt><trkpt lat="43.4401249" lon="11.4173314"><ele>395.0</ele><time>2026-04-04T10:26:37.586Z</time></trkpt><trkpt lat="43.4400569" lon="11.4173188"><ele>393.5</ele><time>2026-04-04T10:26:38.586Z</time></trkpt><trkpt lat="43.4399922" lon="11.4173072"><ele>392.0</ele><time>2026-04-04T10:26:39.577Z</time></trkpt><trkpt lat="43.4399148" lon="11.4173015"><ele>390.49999999999994</ele><time>2026-04-04T10:26:40.592Z</time></trkpt><trkpt lat="43.43984" lon="11.4172842"><ele>389.0</ele><time>2026-04-04T10:26:41.573Z</time></trkpt><trkpt lat="43.4397664" lon="11.4172616"><ele>389.0</ele><time>2026-04-04T10:26:42.583Z</time></trkpt><trkpt lat="43.4396923" lon="11.4172378"><ele>389.0</ele><time>2026-04-04T10:26:43.576Z</time></trkpt><trkpt lat="43.4396272" lon="11.4171977"><ele>389.0</ele><time>2026-04-04T10:26:44.58Z</time></trkpt><trkpt lat="43.4395639" lon="11.4171755"><ele>389.0</ele><time>2026-04-04T10:26:45.582Z</time></trkpt><trkpt lat="43.4394953" lon="11.4171458"><ele>389.0</ele><time>2026-04-04T10:26:46.581Z</time></trkpt><trkpt lat="43.4394313" lon="11.4171185"><ele>389.0</ele><time>2026-04-04T10:26:47.578Z</time></trkpt><trkpt lat="43.439361" lon="11.4170745"><ele>389.0</ele><time>2026-04-04T10:26:48.582Z</time></trkpt><trkpt lat="43.4392894" lon="11.4170198"><ele>389.7142857142857</ele><time>2026-04-04T10:26:49.568Z</time></trkpt><trkpt lat="43.4392175" lon="11.4169689"><ele>390.4285714285714</ele><time>2026-04-04T10:26:50.569Z</time></trkpt><trkpt lat="43.4391569" lon="11.4169216"><ele>391.1428571428571</ele><time>2026-04-04T10:26:51.589Z</time></trkpt><trkpt lat="43.4390964" lon="11.4168768"><ele>391.8571428571429</ele><time>2026-04-04T10:26:52.584Z</time></trkpt><trkpt lat="43.4390389" lon="11.416823"><ele>392.57142857142856</ele><time>2026-04-04T10:26:53.575Z</time></trkpt><trkpt lat="43.4389788" lon="11.4167619"><ele>393.2857142857143</ele><time>2026-04-04T10:26:54.572Z</time></trkpt><trkpt lat="43.4389238" lon="11.4167082"><ele>394.0</ele><time>2026-04-04T10:26:55.58Z</time></trkpt><trkpt lat="43.4388669" lon="11.4166571"><ele>392.00000000000006</ele><time>2026-04-04T10:26:56.58Z</time></trkpt><trkpt lat="43.4387713" lon="11.4165683"><ele>390.0</ele><time>2026-04-04T10:26:58.587Z</time></trkpt><trkpt lat="43.43868" lon="11.4164584"><ele>388.0</ele><time>2026-04-04T10:27:00.593Z</time></trkpt><trkpt lat="43.4386199" lon="11.4163998"><ele>386.0</ele><time>2026-04-04T10:27:01.574Z</time></trkpt><trkpt lat="43.4385733" lon="11.4163408"><ele>384.0</ele><time>2026-04-04T10:27:02.576Z</time></trkpt><trkpt lat="43.4385278" lon="11.4162789"><ele>382.0</ele><time>2026-04-04T10:27:03.581Z</time></trkpt><trkpt lat="43.4384835" lon="11.4162166"><ele>382.0</ele><time>2026-04-04T10:27:04.581Z</time></trkpt><trkpt lat="43.4384053" lon="11.4161089"><ele>382.0</ele><time>2026-04-04T10:27:06.584Z</time></trkpt><trkpt lat="43.4383521" lon="11.4160164"><ele>382.0</ele><time>2026-04-04T10:27:08.572Z</time></trkpt><trkpt lat="43.4382902" lon="11.4159642"><ele>382.0</ele><time>2026-04-04T10:32:02.575Z</time></trkpt><trkpt lat="43.4382327" lon="11.4159182"><ele>382.0</ele><time>2026-04-04T10:32:05.581Z</time></trkpt><trkpt lat="43.4381734" lon="11.4158777"><ele>382.0</ele><time>2026-04-04T10:32:09.595Z</time></trkpt><trkpt lat="43.4381079" lon="11.4159488"><ele>382.0</ele><time>2026-04-04T10:32:13.579Z</time></trkpt><trkpt lat="43.4380639" lon="11.4160168"><ele>382.0</ele><time>2026-04-04T10:32:16.576Z</time></trkpt><trkpt lat="43.4380129" lon="11.4160893"><ele>382.0</ele><time>2026-04-04T10:32:19.57Z</time></trkpt><trkpt lat="43.4379644" lon="11.4161666"><ele>382.0</ele><time>2026-04-04T10:32:22.578Z</time></trkpt><trkpt lat="43.4379236" lon="11.4162482"><ele>382.0</ele><time>2026-04-04T10:32:25.572Z</time></trkpt><trkpt lat="43.4378773" lon="11.4163248"><ele>382.0</ele><time>2026-04-04T10:32:28.569Z</time></trkpt><trkpt lat="43.4378147" lon="11.4163861"><ele>382.0</ele><time>2026-04-04T10:32:31.573Z</time></trkpt><trkpt lat="43.4377568" lon="11.4164373"><ele>379.0</ele><time>2026-04-04T10:32:34.581Z</time></trkpt><trkpt lat="43.4377078" lon="11.4164993"><ele>376.0</ele><time>2026-04-04T10:32:37.578Z</time></trkpt><trkpt lat="43.4376676" lon="11.4165788"><ele>373.0</ele><time>2026-04-04T10:32:40.574Z</time></trkpt><trkpt lat="43.4376194" lon="11.4166809"><ele>370.0</ele><time>2026-04-04T10:32:43.579Z</time></trkpt><trkpt lat="43.4375548" lon="11.4167695"><ele>367.0</ele><time>2026-04-04T10:32:46.578Z</time></trkpt><trkpt lat="43.4375011" lon="11.4168294"><ele>364.0</ele><time>2026-04-04T10:32:49.566Z</time></trkpt><trkpt lat="43.4374314" lon="11.4168979"><ele>364.0</ele><time>2026-04-04T10:32:53.585Z</time></trkpt><trkpt lat="43.4373845" lon="11.4169749"><ele>364.0</ele><time>2026-04-04T10:32:56.575Z</time></trkpt><trkpt lat="43.4373567" lon="11.4170679"><ele>364.0</ele><time>2026-04-04T10:33:00.579Z</time></trkpt><trkpt lat="43.4373314" lon="11.4171488"><ele>364.0</ele><time>2026-04-04T10:33:04.57Z</time></trkpt><trkpt lat="43.4372884" lon="11.4172311"><ele>364.0</ele><time>2026-04-04T10:33:10.572Z</time></trkpt><trkpt lat="43.4372451" lon="11.417302"><ele>364.0</ele><time>2026-04-04T10:33:13.573Z</time></trkpt><trkpt lat="43.4372097" lon="11.4173797"><ele>364.0</ele><time>2026-04-04T10:33:16.569Z</time></trkpt><trkpt lat="43.4371706" lon="11.4174532"><ele>361.85714285714283</ele><time>2026-04-04T10:33:19.573Z</time></trkpt><trkpt lat="43.4371017" lon="11.4175153"><ele>359.7142857142857</ele><time>2026-04-04T10:33:23.577Z</time></trkpt><trkpt lat="43.4370459" lon="11.4175598"><ele>357.57142857142856</ele><time>2026-04-04T10:33:26.589Z</time></trkpt><trkpt lat="43.4369822" lon="11.4176338"><ele>355.42857142857144</ele><time>2026-04-04T10:33:30.571Z</time></trkpt><trkpt lat="43.4369299" lon="11.4176831"><ele>353.2857142857143</ele><time>2026-04-04T10:33:33.569Z</time></trkpt><trkpt lat="43.4368563" lon="11.4177186"><ele>351.1428571428571</ele><time>2026-04-04T10:33:36.576Z</time></trkpt><trkpt lat="43.4367908" lon="11.4177464"><ele>349.0</ele><time>2026-04-04T10:33:39.573Z</time></trkpt><trkpt lat="43.4367166" lon="11.4177534"><ele>349.0</ele><time>2026-04-04T10:33:42.568Z</time></trkpt><trkpt lat="43.4366527" lon="11.4178244"><ele>349.0</ele><time>2026-04-04T10:33:46.587Z</time></trkpt><trkpt lat="43.4366296" lon="11.4179182"><ele>349.0</ele><time>2026-04-04T10:33:49.576Z</time></trkpt><trkpt lat="43.4366058" lon="11.4180153"><ele>349.0</ele><time>2026-04-04T10:33:52.586Z</time></trkpt><trkpt lat="43.4365717" lon="11.418096"><ele>349.0</ele><time>2026-04-04T10:33:55.577Z</time></trkpt><trkpt lat="43.4365136" lon="11.4181556"><ele>349.0</ele><time>2026-04-04T10:33:58.571Z</time></trkpt><trkpt lat="43.4364197" lon="11.4181489"><ele>347.16666666666663</ele><time>2026-04-04T10:34:01.58Z</time></trkpt><trkpt lat="43.4363505" lon="11.4181255"><ele>345.3333333333333</ele><time>2026-04-04T10:34:03.567Z</time></trkpt><trkpt lat="43.43628" lon="11.418097"><ele>343.5</ele><time>2026-04-04T10:34:06.575Z</time></trkpt><trkpt lat="43.4362084" lon="11.4180748"><ele>341.6666666666667</ele><time>2026-04-04T10:35:46.578Z</time></trkpt><trkpt lat="43.4362893" lon="11.4181155"><ele>339.83333333333337</ele><time>2026-04-04T10:36:07.579Z</time></trkpt><trkpt lat="43.4363703" lon="11.418144"><ele>338.0</ele><time>2026-04-04T10:36:10.578Z</time></trkpt><trkpt lat="43.4364496" lon="11.4181536"><ele>338.0</ele><time>2026-04-04T10:36:13.583Z</time></trkpt><trkpt lat="43.4365227" lon="11.4181752"><ele>338.0</ele><time>2026-04-04T10:36:16.569Z</time></trkpt><trkpt lat="43.4365927" lon="11.4181932"><ele>338.0</ele><time>2026-04-04T10:36:41.579Z</time></trkpt><trkpt lat="43.4366641" lon="11.4182139"><ele>338.0</ele><time>2026-04-04T10:36:44.581Z</time></trkpt><trkpt lat="43.4367453" lon="11.4182518"><ele>338.0</ele><time>2026-04-04T10:36:47.566Z</time></trkpt><trkpt lat="43.4368221" lon="11.4182899"><ele>338.0</ele><time>2026-04-04T10:36:50.571Z</time></trkpt><trkpt lat="43.4369095" lon="11.4183298"><ele>338.0</ele><time>2026-04-04T10:36:53.586Z</time></trkpt><trkpt lat="43.4369925" lon="11.4183623"><ele>338.0</ele><time>2026-04-04T10:36:56.576Z</time></trkpt><trkpt lat="43.4370599" lon="11.4183581"><ele>338.0</ele><time>2026-04-04T10:36:58.586Z</time></trkpt><trkpt lat="43.4371323" lon="11.4183459"><ele>338.0</ele><time>2026-04-04T10:37:00.571Z</time></trkpt><trkpt lat="43.437201" lon="11.4183573"><ele>338.0</ele><time>2026-04-04T10:37:03.575Z</time></trkpt><trkpt lat="43.437233" lon="11.4184384"><ele>338.0</ele><time>2026-04-04T10:37:06.574Z</time></trkpt><trkpt lat="43.4371688" lon="11.4185053"><ele>338.0</ele><time>2026-04-04T10:37:09.576Z</time></trkpt><trkpt lat="43.4371048" lon="11.4185521"><ele>338.0</ele><time>2026-04-04T10:37:12.571Z</time></trkpt><trkpt lat="43.4370568" lon="11.4186148"><ele>338.0</ele><time>2026-04-04T10:37:35.573Z</time></trkpt><trkpt lat="43.4370444" lon="11.4187021"><ele>338.0</ele><time>2026-04-04T10:37:53.566Z</time></trkpt><trkpt lat="43.4370898" lon="11.4187754"><ele>338.0</ele><time>2026-04-04T10:38:09.58Z</time></trkpt><trkpt lat="43.4371476" lon="11.4188342"><ele>338.0</ele><time>2026-04-04T10:38:13.579Z</time></trkpt><trkpt lat="43.4372006" lon="11.4189096"><ele>338.0</ele><time>2026-04-04T10:38:16.574Z</time></trkpt><trkpt lat="43.4372578" lon="11.4189701"><ele>338.0</ele><time>2026-04-04T10:38:19.571Z</time></trkpt><trkpt lat="43.4373113" lon="11.4190397"><ele>335.5</ele><time>2026-04-04T10:38:22.569Z</time></trkpt><trkpt lat="43.4373699" lon="11.4190997"><ele>333.0</ele><time>2026-04-04T10:38:25.579Z</time></trkpt><trkpt lat="43.4374036" lon="11.4191975"><ele>330.5</ele><time>2026-04-04T10:38:29.578Z</time></trkpt><trkpt lat="43.4373874" lon="11.4193092"><ele>328.0</ele><time>2026-04-04T10:38:55.582Z</time></trkpt><trkpt lat="43.4374155" lon="11.4193973"><ele>325.5</ele><time>2026-04-04T10:39:02.574Z</time></trkpt><trkpt lat="43.4373488" lon="11.4194335"><ele>323.0</ele><time>2026-04-04T10:39:29.577Z</time></trkpt><trkpt lat="43.4372018" lon="11.4193898"><ele>322.25</ele><time>2026-04-04T10:39:31.575Z</time></trkpt><trkpt lat="43.4370889" lon="11.419368"><ele>321.5</ele><time>2026-04-04T10:39:32.568Z</time></trkpt><trkpt lat="43.4369499" lon="11.4193393"><ele>320.75</ele><time>2026-04-04T10:39:33.575Z</time></trkpt><trkpt lat="43.436796" lon="11.4193124"><ele>320.0</ele><time>2026-04-04T10:39:34.581Z</time></trkpt><trkpt lat="43.4366283" lon="11.4192817"><ele>320.0</ele><time>2026-04-04T10:39:35.576Z</time></trkpt><trkpt lat="43.4364762" lon="11.4192515"><ele>320.0</ele><time>2026-04-04T10:39:36.569Z</time></trkpt><trkpt lat="43.4363268" lon="11.4192222"><ele>320.0</ele><time>2026-04-04T10:39:37.579Z</time></trkpt><trkpt lat="43.4361843" lon="11.4191953"><ele>320.0</ele><time>2026-04-04T10:39:38.579Z</time></trkpt><trkpt lat="43.4360413" lon="11.4191749"><ele>319.0</ele><time>2026-04-04T10:39:39.568Z</time></trkpt><trkpt lat="43.4358939" lon="11.4191518"><ele>318.0</ele><time>2026-04-04T10:39:40.58Z</time></trkpt><trkpt lat="43.4357447" lon="11.419121"><ele>317.0</ele><time>2026-04-04T10:39:41.583Z</time></trkpt><trkpt lat="43.4356042" lon="11.4190964"><ele>316.0</ele><time>2026-04-04T10:39:42.593Z</time></trkpt><trkpt lat="43.4354706" lon="11.4190806"><ele>316.75</ele><time>2026-04-04T10:39:43.579Z</time></trkpt><trkpt lat="43.4353398" lon="11.4190905"><ele>317.5</ele><time>2026-04-04T10:39:44.574Z</time></trkpt><trkpt lat="43.4352138" lon="11.4191358"><ele>318.25</ele><time>2026-04-04T10:39:45.578Z</time></trkpt><trkpt lat="43.4350842" lon="11.4192221"><ele>319.0</ele><time>2026-04-04T10:39:46.579Z</time></trkpt><trkpt lat="43.434957" lon="11.4193164"><ele>319.0</ele><time>2026-04-04T10:39:47.579Z</time></trkpt><trkpt lat="43.4348226" lon="11.4194286"><ele>319.0</ele><time>2026-04-04T10:39:48.578Z</time></trkpt><trkpt lat="43.434683" lon="11.4195557"><ele>319.0</ele><time>2026-04-04T10:39:49.58Z</time></trkpt><trkpt lat="43.4345537" lon="11.4196973"><ele>318.0</ele><time>2026-04-04T10:39:50.582Z</time></trkpt><trkpt lat="43.4344294" lon="11.4198407"><ele>317.0</ele><time>2026-04-04T10:39:51.58Z</time></trkpt><trkpt lat="43.4343075" lon="11.4199818"><ele>316.0</ele><time>2026-04-04T10:39:52.581Z</time></trkpt><trkpt lat="43.4341896" lon="11.4201185"><ele>316.0</ele><time>2026-04-04T10:39:53.598Z</time></trkpt><trkpt lat="43.4340752" lon="11.4202528"><ele>316.0</ele><time>2026-04-04T10:39:54.589Z</time></trkpt><trkpt lat="43.4339583" lon="11.420385"><ele>316.0</ele><time>2026-04-04T10:39:55.578Z</time></trkpt><trkpt lat="43.4338439" lon="11.4205204"><ele>312.75</ele><time>2026-04-04T10:39:56.573Z</time></trkpt><trkpt lat="43.4337414" lon="11.4206563"><ele>309.5</ele><time>2026-04-04T10:39:57.588Z</time></trkpt><trkpt lat="43.433645" lon="11.4207735"><ele>306.25</ele><time>2026-04-04T10:39:58.578Z</time></trkpt><trkpt lat="43.4335466" lon="11.4208515"><ele>303.0</ele><time>2026-04-04T10:39:59.574Z</time></trkpt><trkpt lat="43.4334451" lon="11.4208593"><ele>303.0</ele><time>2026-04-04T10:40:00.592Z</time></trkpt><trkpt lat="43.4333375" lon="11.4208184"><ele>303.0</ele><time>2026-04-04T10:40:01.586Z</time></trkpt><trkpt lat="43.4332329" lon="11.4207399"><ele>303.0</ele><time>2026-04-04T10:40:02.58Z</time></trkpt><trkpt lat="43.4331499" lon="11.4206054"><ele>303.0</ele><time>2026-04-04T10:40:03.579Z</time></trkpt><trkpt lat="43.4330798" lon="11.4204427"><ele>302.3333333333333</ele><time>2026-04-04T10:40:04.575Z</time></trkpt><trkpt lat="43.4330029" lon="11.420268"><ele>301.66666666666663</ele><time>2026-04-04T10:40:05.573Z</time></trkpt><trkpt lat="43.4329235" lon="11.420079"><ele>301.0</ele><time>2026-04-04T10:40:06.58Z</time></trkpt><trkpt lat="43.432839" lon="11.4198841"><ele>301.0</ele><time>2026-04-04T10:40:07.588Z</time></trkpt><trkpt lat="43.4327591" lon="11.4197079"><ele>301.0</ele><time>2026-04-04T10:40:08.576Z</time></trkpt><trkpt lat="43.4326699" lon="11.4195503"><ele>301.0</ele><time>2026-04-04T10:40:09.575Z</time></trkpt><trkpt lat="43.4325783" lon="11.4194142"><ele>301.0</ele><time>2026-04-04T10:40:10.575Z</time></trkpt><trkpt lat="43.4324899" lon="11.4192881"><ele>300.5</ele><time>2026-04-04T10:40:11.58Z</time></trkpt><trkpt lat="43.432399" lon="11.4191617"><ele>300.0</ele><time>2026-04-04T10:40:12.578Z</time></trkpt><trkpt lat="43.4323093" lon="11.4190231"><ele>299.5</ele><time>2026-04-04T10:40:13.581Z</time></trkpt><trkpt lat="43.4322191" lon="11.4188787"><ele>299.0</ele><time>2026-04-04T10:40:14.575Z</time></trkpt><trkpt lat="43.4321221" lon="11.4187343"><ele>299.0</ele><time>2026-04-04T10:40:15.58Z</time></trkpt><trkpt lat="43.4320244" lon="11.4185884"><ele>299.0</ele><time>2026-04-04T10:40:16.572Z</time></trkpt><trkpt lat="43.4319331" lon="11.4184526"><ele>299.0</ele><time>2026-04-04T10:40:17.579Z</time></trkpt><trkpt lat="43.4318456" lon="11.4183255"><ele>299.0</ele><time>2026-04-04T10:40:18.579Z</time></trkpt><trkpt lat="43.4317616" lon="11.418209"><ele>299.0</ele><time>2026-04-04T10:40:19.585Z</time></trkpt><trkpt lat="43.4316835" lon="11.4180918"><ele>299.0</ele><time>2026-04-04T10:40:20.576Z</time></trkpt><trkpt lat="43.431605" lon="11.417969"><ele>299.0</ele><time>2026-04-04T10:40:21.584Z</time></trkpt><trkpt lat="43.4315308" lon="11.4178491"><ele>299.0</ele><time>2026-04-04T10:40:22.578Z</time></trkpt><trkpt lat="43.4314606" lon="11.4177396"><ele>299.33333333333337</ele><time>2026-04-04T10:40:23.583Z</time></trkpt><trkpt lat="43.4313912" lon="11.4176504"><ele>299.6666666666667</ele><time>2026-04-04T10:40:24.582Z</time></trkpt><trkpt lat="43.4313251" lon="11.4175973"><ele>300.0</ele><time>2026-04-04T10:40:25.583Z</time></trkpt><trkpt lat="43.4312555" lon="11.4175884"><ele>300.3333333333333</ele><time>2026-04-04T10:40:26.567Z</time></trkpt><trkpt lat="43.4311825" lon="11.4176222"><ele>300.66666666666663</ele><time>2026-04-04T10:40:27.586Z</time></trkpt><trkpt lat="43.4310993" lon="11.4176882"><ele>301.0</ele><time>2026-04-04T10:40:28.577Z</time></trkpt><trkpt lat="43.4309988" lon="11.4177581"><ele>301.0</ele><time>2026-04-04T10:40:29.585Z</time></trkpt><trkpt lat="43.4308836" lon="11.4178388"><ele>301.0</ele><time>2026-04-04T10:40:30.58Z</time></trkpt><trkpt lat="43.4307583" lon="11.4179295"><ele>301.0</ele><time>2026-04-04T10:40:31.578Z</time></trkpt><trkpt lat="43.4306231" lon="11.4180305"><ele>301.0</ele><time>2026-04-04T10:40:32.583Z</time></trkpt><trkpt lat="43.4304783" lon="11.4181387"><ele>301.3333333333333</ele><time>2026-04-04T10:40:33.576Z</time></trkpt><trkpt lat="43.4303236" lon="11.4182492"><ele>301.6666666666667</ele><time>2026-04-04T10:40:34.573Z</time></trkpt><trkpt lat="43.4301652" lon="11.4183653"><ele>302.0</ele><time>2026-04-04T10:40:35.58Z</time></trkpt><trkpt lat="43.4300046" lon="11.41849"><ele>302.0</ele><time>2026-04-04T10:40:36.582Z</time></trkpt><trkpt lat="43.4298433" lon="11.4186049"><ele>302.0</ele><time>2026-04-04T10:40:37.57Z</time></trkpt><trkpt lat="43.4296814" lon="11.418718"><ele>302.0</ele><time>2026-04-04T10:40:38.574Z</time></trkpt><trkpt lat="43.4295285" lon="11.4188309"><ele>304.6666666666667</ele><time>2026-04-04T10:40:39.577Z</time></trkpt><trkpt lat="43.4293711" lon="11.4189286"><ele>307.3333333333333</ele><time>2026-04-04T10:40:40.588Z</time></trkpt><trkpt lat="43.4292164" lon="11.4190054"><ele>310.0</ele><time>2026-04-04T10:40:41.583Z</time></trkpt><trkpt lat="43.4290669" lon="11.4190592"><ele>310.0</ele><time>2026-04-04T10:40:42.572Z</time></trkpt><trkpt lat="43.4289235" lon="11.4190995"><ele>310.0</ele><time>2026-04-04T10:40:43.58Z</time></trkpt><trkpt lat="43.4287783" lon="11.4191334"><ele>310.0</ele><time>2026-04-04T10:40:44.571Z</time></trkpt><trkpt lat="43.4286364" lon="11.4191766"><ele>310.0</ele><time>2026-04-04T10:40:45.579Z</time></trkpt><trkpt lat="43.4284936" lon="11.4192384"><ele>310.3333333333333</ele><time>2026-04-04T10:40:46.579Z</time></trkpt><trkpt lat="43.4283516" lon="11.4193232"><ele>310.6666666666667</ele><time>2026-04-04T10:40:47.58Z</time></trkpt><trkpt lat="43.4282195" lon="11.4194304"><ele>311.0</ele><time>2026-04-04T10:40:48.579Z</time></trkpt><trkpt lat="43.428095" lon="11.4195529"><ele>311.5</ele><time>2026-04-04T10:40:49.576Z</time></trkpt><trkpt lat="43.4279792" lon="11.4196923"><ele>312.0</ele><time>2026-04-04T10:40:50.579Z</time></trkpt><trkpt lat="43.4278789" lon="11.419827"><ele>312.5</ele><time>2026-04-04T10:40:51.579Z</time></trkpt><trkpt lat="43.4277983" lon="11.4199655"><ele>313.0</ele><time>2026-04-04T10:40:52.57Z</time></trkpt><trkpt lat="43.4277431" lon="11.4201085"><ele>313.0</ele><time>2026-04-04T10:40:53.586Z</time></trkpt><trkpt lat="43.427719" lon="11.4202707"><ele>313.0</ele><time>2026-04-04T10:40:54.57Z</time></trkpt><trkpt lat="43.4277326" lon="11.4204397"><ele>313.0</ele><time>2026-04-04T10:40:55.567Z</time></trkpt><trkpt lat="43.4277661" lon="11.4206255"><ele>313.0</ele><time>2026-04-04T10:40:56.581Z</time></trkpt><trkpt lat="43.4277995" lon="11.420833"><ele>312.3333333333333</ele><time>2026-04-04T10:40:57.582Z</time></trkpt><trkpt lat="43.4278257" lon="11.4210374"><ele>311.6666666666667</ele><time>2026-04-04T10:40:58.572Z</time></trkpt><trkpt lat="43.4278426" lon="11.4212383"><ele>311.0</ele><time>2026-04-04T10:40:59.574Z</time></trkpt><trkpt lat="43.4278452" lon="11.421448"><ele>310.6666666666667</ele><time>2026-04-04T10:41:00.579Z</time></trkpt><trkpt lat="43.4278267" lon="11.421659"><ele>310.3333333333333</ele><time>2026-04-04T10:41:01.571Z</time></trkpt><trkpt lat="43.4277973" lon="11.4218738"><ele>310.0</ele><time>2026-04-04T10:41:02.586Z</time></trkpt><trkpt lat="43.4277568" lon="11.4220781"><ele>312.0</ele><time>2026-04-04T10:41:03.576Z</time></trkpt><trkpt lat="43.4276946" lon="11.422268"><ele>314.0</ele><time>2026-04-04T10:41:04.581Z</time></trkpt><trkpt lat="43.4276222" lon="11.4224413"><ele>316.0</ele><time>2026-04-04T10:41:05.582Z</time></trkpt><trkpt lat="43.4275339" lon="11.4225738"><ele>318.0</ele><time>2026-04-04T10:41:06.575Z</time></trkpt><trkpt lat="43.4274272" lon="11.4226644"><ele>318.0</ele><time>2026-04-04T10:41:07.581Z</time></trkpt><trkpt lat="43.427303" lon="11.4227114"><ele>318.0</ele><time>2026-04-04T10:41:08.585Z</time></trkpt><trkpt lat="43.4271738" lon="11.4227327"><ele>318.0</ele><time>2026-04-04T10:41:09.574Z</time></trkpt><trkpt lat="43.427037" lon="11.4227657"><ele>318.0</ele><time>2026-04-04T10:41:10.571Z</time></trkpt><trkpt lat="43.4268931" lon="11.4227951"><ele>317.0</ele><time>2026-04-04T10:41:11.571Z</time></trkpt><trkpt lat="43.4267439" lon="11.4228268"><ele>316.0</ele><time>2026-04-04T10:41:12.566Z</time></trkpt><trkpt lat="43.4265956" lon="11.4228642"><ele>315.0</ele><time>2026-04-04T10:41:13.579Z</time></trkpt><trkpt lat="43.426462" lon="11.4229078"><ele>314.0</ele><time>2026-04-04T10:41:14.576Z</time></trkpt><trkpt lat="43.4263404" lon="11.4229681"><ele>314.2</ele><time>2026-04-04T10:41:15.589Z</time></trkpt><trkpt lat="43.4262437" lon="11.4230566"><ele>314.4</ele><time>2026-04-04T10:41:16.58Z</time></trkpt><trkpt lat="43.4261798" lon="11.4231748"><ele>314.6</ele><time>2026-04-04T10:41:17.571Z</time></trkpt><trkpt lat="43.4261549" lon="11.4233221"><ele>314.8</ele><time>2026-04-04T10:41:18.58Z</time></trkpt><trkpt lat="43.4261681" lon="11.4234812"><ele>315.0</ele><time>2026-04-04T10:41:19.574Z</time></trkpt><trkpt lat="43.4262081" lon="11.4236488"><ele>316.0</ele><time>2026-04-04T10:41:20.583Z</time></trkpt><trkpt lat="43.426257" lon="11.4238378"><ele>317.0</ele><time>2026-04-04T10:41:21.567Z</time></trkpt><trkpt lat="43.4263021" lon="11.4240412"><ele>318.0</ele><time>2026-04-04T10:41:22.582Z</time></trkpt><trkpt lat="43.4263517" lon="11.4242574"><ele>321.6666666666667</ele><time>2026-04-04T10:41:23.577Z</time></trkpt><trkpt lat="43.4264023" lon="11.4244869"><ele>325.33333333333337</ele><time>2026-04-04T10:41:24.585Z</time></trkpt><trkpt lat="43.4264546" lon="11.42473"><ele>329.0</ele><time>2026-04-04T10:41:25.57Z</time></trkpt><trkpt lat="43.4265063" lon="11.4249811"><ele>329.0</ele><time>2026-04-04T10:41:26.587Z</time></trkpt><trkpt lat="43.4265493" lon="11.4252222"><ele>329.0</ele><time>2026-04-04T10:41:27.583Z</time></trkpt><trkpt lat="43.4265677" lon="11.4254703"><ele>329.0</ele><time>2026-04-04T10:41:28.572Z</time></trkpt><trkpt lat="43.4265613" lon="11.4257293"><ele>329.33333333333337</ele><time>2026-04-04T10:41:29.577Z</time></trkpt><trkpt lat="43.4265349" lon="11.4259854"><ele>329.6666666666667</ele><time>2026-04-04T10:41:30.582Z</time></trkpt><trkpt lat="43.4264976" lon="11.4262198"><ele>330.0</ele><time>2026-04-04T10:41:31.58Z</time></trkpt><trkpt lat="43.4264528" lon="11.4264457"><ele>330.3333333333333</ele><time>2026-04-04T10:41:32.591Z</time></trkpt><trkpt lat="43.4263975" lon="11.4266596"><ele>330.66666666666663</ele><time>2026-04-04T10:41:33.581Z</time></trkpt><trkpt lat="43.426332" lon="11.4268486"><ele>331.0</ele><time>2026-04-04T10:41:34.583Z</time></trkpt><trkpt lat="43.4262547" lon="11.4270131"><ele>330.0</ele><time>2026-04-04T10:41:35.575Z</time></trkpt><trkpt lat="43.4261579" lon="11.4271587"><ele>329.0</ele><time>2026-04-04T10:41:36.579Z</time></trkpt><trkpt lat="43.4260623" lon="11.4272849"><ele>328.0</ele><time>2026-04-04T10:41:37.576Z</time></trkpt><trkpt lat="43.4259822" lon="11.4274139"><ele>327.0</ele><time>2026-04-04T10:41:38.577Z</time></trkpt><trkpt lat="43.4259365" lon="11.4275667"><ele>327.0</ele><time>2026-04-04T10:41:39.58Z</time></trkpt><trkpt lat="43.4259141" lon="11.4277447"><ele>327.0</ele><time>2026-04-04T10:41:40.584Z</time></trkpt><trkpt lat="43.4259158" lon="11.4279473"><ele>327.0</ele><time>2026-04-04T10:41:41.573Z</time></trkpt><trkpt lat="43.42592" lon="11.428163"><ele>327.0</ele><time>2026-04-04T10:41:42.588Z</time></trkpt><trkpt lat="43.4259179" lon="11.4283938"><ele>327.3333333333333</ele><time>2026-04-04T10:41:43.574Z</time></trkpt><trkpt lat="43.4259203" lon="11.428633"><ele>327.66666666666663</ele><time>2026-04-04T10:41:44.581Z</time></trkpt><trkpt lat="43.4259248" lon="11.4288803"><ele>328.0</ele><time>2026-04-04T10:41:45.578Z</time></trkpt><trkpt lat="43.4259237" lon="11.4291366"><ele>329.3333333333333</ele><time>2026-04-04T10:41:46.584Z</time></trkpt><trkpt lat="43.4259219" lon="11.4294015"><ele>330.6666666666667</ele><time>2026-04-04T10:41:47.57Z</time></trkpt><trkpt lat="43.4259265" lon="11.4296733"><ele>332.0</ele><time>2026-04-04T10:41:48.587Z</time></trkpt><trkpt lat="43.4259283" lon="11.4299297"><ele>332.0</ele><time>2026-04-04T10:41:49.576Z</time></trkpt><trkpt lat="43.4259215" lon="11.430178"><ele>332.0</ele><time>2026-04-04T10:41:50.575Z</time></trkpt><trkpt lat="43.4258932" lon="11.4304246"><ele>332.0</ele><time>2026-04-04T10:41:51.574Z</time></trkpt><trkpt lat="43.4258338" lon="11.4306594"><ele>332.6666666666667</ele><time>2026-04-04T10:41:52.577Z</time></trkpt><trkpt lat="43.4257538" lon="11.4308879"><ele>333.3333333333333</ele><time>2026-04-04T10:41:53.574Z</time></trkpt><trkpt lat="43.425673" lon="11.4311001"><ele>334.0</ele><time>2026-04-04T10:41:54.577Z</time></trkpt><trkpt lat="43.4256002" lon="11.4313019"><ele>335.5</ele><time>2026-04-04T10:41:55.576Z</time></trkpt><trkpt lat="43.4255335" lon="11.4314969"><ele>337.0</ele><time>2026-04-04T10:41:56.574Z</time></trkpt><trkpt lat="43.4254718" lon="11.4316719"><ele>338.5</ele><time>2026-04-04T10:41:57.571Z</time></trkpt><trkpt lat="43.4254166" lon="11.4318318"><ele>340.0</ele><time>2026-04-04T10:41:58.57Z</time></trkpt><trkpt lat="43.4253664" lon="11.4319709"><ele>340.0</ele><time>2026-04-04T10:41:59.578Z</time></trkpt><trkpt lat="43.4253122" lon="11.4320892"><ele>340.0</ele><time>2026-04-04T10:42:00.578Z</time></trkpt><trkpt lat="43.4252417" lon="11.4321657"><ele>340.0</ele><time>2026-04-04T10:42:01.579Z</time></trkpt><trkpt lat="43.4251568" lon="11.4322068"><ele>340.0</ele><time>2026-04-04T10:42:02.577Z</time></trkpt><trkpt lat="43.4250694" lon="11.4322475"><ele>340.0</ele><time>2026-04-04T10:42:03.579Z</time></trkpt><trkpt lat="43.4249888" lon="11.4323335"><ele>340.0</ele><time>2026-04-04T10:42:04.582Z</time></trkpt><trkpt lat="43.4249299" lon="11.4324647"><ele>340.0</ele><time>2026-04-04T10:42:05.567Z</time></trkpt><trkpt lat="43.4248718" lon="11.4326195"><ele>340.0</ele><time>2026-04-04T10:42:06.583Z</time></trkpt><trkpt lat="43.4248126" lon="11.4327811"><ele>340.0</ele><time>2026-04-04T10:42:07.573Z</time></trkpt><trkpt lat="43.4247502" lon="11.4329384"><ele>339.25</ele><time>2026-04-04T10:42:08.585Z</time></trkpt><trkpt lat="43.4246884" lon="11.433107"><ele>338.5</ele><time>2026-04-04T10:42:09.574Z</time></trkpt><trkpt lat="43.424624" lon="11.4332808"><ele>337.75</ele><time>2026-04-04T10:42:10.579Z</time></trkpt><trkpt lat="43.4245549" lon="11.4334605"><ele>337.0</ele><time>2026-04-04T10:42:11.586Z</time></trkpt><trkpt lat="43.4244898" lon="11.4336549"><ele>340.5</ele><time>2026-04-04T10:42:12.579Z</time></trkpt><trkpt lat="43.4244375" lon="11.4338519"><ele>344.0</ele><time>2026-04-04T10:42:13.571Z</time></trkpt><trkpt lat="43.4244075" lon="11.4340378"><ele>347.5</ele><time>2026-04-04T10:42:14.572Z</time></trkpt><trkpt lat="43.4243841" lon="11.4342104"><ele>351.0</ele><time>2026-04-04T10:42:15.572Z</time></trkpt><trkpt lat="43.4243741" lon="11.4343655"><ele>351.0</ele><time>2026-04-04T10:42:16.586Z</time></trkpt><trkpt lat="43.4243797" lon="11.4345294"><ele>351.0</ele><time>2026-04-04T10:42:17.568Z</time></trkpt><trkpt lat="43.4244124" lon="11.4346895"><ele>351.0</ele><time>2026-04-04T10:42:18.585Z</time></trkpt><trkpt lat="43.4244725" lon="11.4348385"><ele>351.0</ele><time>2026-04-04T10:42:19.568Z</time></trkpt><trkpt lat="43.4245589" lon="11.4349655"><ele>349.0</ele><time>2026-04-04T10:42:20.569Z</time></trkpt><trkpt lat="43.4246732" lon="11.4350637"><ele>347.0</ele><time>2026-04-04T10:42:21.583Z</time></trkpt><trkpt lat="43.4247974" lon="11.4351487"><ele>345.0</ele><time>2026-04-04T10:42:22.569Z</time></trkpt><trkpt lat="43.4249306" lon="11.4352416"><ele>343.0</ele><time>2026-04-04T10:42:23.571Z</time></trkpt><trkpt lat="43.4250636" lon="11.4353403"><ele>343.0</ele><time>2026-04-04T10:42:24.566Z</time></trkpt><trkpt lat="43.4251829" lon="11.4354388"><ele>343.0</ele><time>2026-04-04T10:42:25.563Z</time></trkpt><trkpt lat="43.4252789" lon="11.4355582"><ele>343.0</ele><time>2026-04-04T10:42:26.583Z</time></trkpt><trkpt lat="43.425328" lon="11.4356801"><ele>343.0</ele><time>2026-04-04T10:42:27.578Z</time></trkpt><trkpt lat="43.4253307" lon="11.4358086"><ele>345.25</ele><time>2026-04-04T10:42:28.571Z</time></trkpt><trkpt lat="43.4252845" lon="11.4359282"><ele>347.5</ele><time>2026-04-04T10:42:29.571Z</time></trkpt><trkpt lat="43.425223" lon="11.4360384"><ele>349.75</ele><time>2026-04-04T10:42:30.575Z</time></trkpt><trkpt lat="43.4251404" lon="11.4361777"><ele>352.0</ele><time>2026-04-04T10:42:31.572Z</time></trkpt><trkpt lat="43.4250687" lon="11.4363431"><ele>353.0</ele><time>2026-04-04T10:42:32.566Z</time></trkpt><trkpt lat="43.4250118" lon="11.4365355"><ele>354.0</ele><time>2026-04-04T10:42:33.575Z</time></trkpt><trkpt lat="43.4249727" lon="11.4367597"><ele>355.0</ele><time>2026-04-04T10:42:34.574Z</time></trkpt><trkpt lat="43.4249592" lon="11.4369991"><ele>355.0</ele><time>2026-04-04T10:42:35.568Z</time></trkpt><trkpt lat="43.4249557" lon="11.4372426"><ele>355.0</ele><time>2026-04-04T10:42:36.564Z</time></trkpt><trkpt lat="43.4249662" lon="11.4374647"><ele>355.0</ele><time>2026-04-04T10:42:37.58Z</time></trkpt><trkpt lat="43.4249899" lon="11.4376749"><ele>355.0</ele><time>2026-04-04T10:42:38.572Z</time></trkpt><trkpt lat="43.425027" lon="11.4378844"><ele>355.0</ele><time>2026-04-04T10:42:39.589Z</time></trkpt><trkpt lat="43.425065" lon="11.4380754"><ele>355.0</ele><time>2026-04-04T10:42:40.57Z</time></trkpt><trkpt lat="43.4251015" lon="11.4382526"><ele>355.0</ele><time>2026-04-04T10:42:41.572Z</time></trkpt><trkpt lat="43.4251364" lon="11.4384272"><ele>356.2</ele><time>2026-04-04T10:42:42.574Z</time></trkpt><trkpt lat="43.4251712" lon="11.438585"><ele>357.4</ele><time>2026-04-04T10:42:43.574Z</time></trkpt><trkpt lat="43.4252023" lon="11.4387336"><ele>358.6</ele><time>2026-04-04T10:42:44.571Z</time></trkpt><trkpt lat="43.4252353" lon="11.4388783"><ele>359.8</ele><time>2026-04-04T10:42:45.573Z</time></trkpt><trkpt lat="43.425272" lon="11.4390112"><ele>361.0</ele><time>2026-04-04T10:42:46.575Z</time></trkpt><trkpt lat="43.4252966" lon="11.4391216"><ele>362.16666666666663</ele><time>2026-04-04T10:42:47.582Z</time></trkpt><trkpt lat="43.4252731" lon="11.4392649"><ele>363.3333333333333</ele><time>2026-04-04T10:42:49.57Z</time></trkpt><trkpt lat="43.42524" lon="11.4393776"><ele>364.5</ele><time>2026-04-04T10:42:51.568Z</time></trkpt><trkpt lat="43.4252139" lon="11.4394991"><ele>365.6666666666667</ele><time>2026-04-04T10:42:53.572Z</time></trkpt><trkpt lat="43.4251556" lon="11.4395605"><ele>366.83333333333337</ele><time>2026-04-04T10:42:56.578Z</time></trkpt><trkpt lat="43.4251684" lon="11.4396724"><ele>368.0</ele><time>2026-04-04T10:44:08.579Z</time></trkpt><trkpt lat="43.4251771" lon="11.4397858"><ele>368.5</ele><time>2026-04-04T10:44:10.579Z</time></trkpt><trkpt lat="43.4252081" lon="11.4398693"><ele>369.0</ele><time>2026-04-04T10:44:12.572Z</time></trkpt><trkpt lat="43.4252921" lon="11.4399123"><ele>369.5</ele><time>2026-04-04T10:44:14.571Z</time></trkpt><trkpt lat="43.4253792" lon="11.4399307"><ele>370.0</ele><time>2026-04-04T10:44:15.561Z</time></trkpt><trkpt lat="43.4254805" lon="11.439952"><ele>370.5</ele><time>2026-04-04T10:44:16.589Z</time></trkpt><trkpt lat="43.4255739" lon="11.4399763"><ele>371.0</ele><time>2026-04-04T10:44:17.566Z</time></trkpt><trkpt lat="43.4256513" lon="11.4400058"><ele>370.0</ele><time>2026-04-04T10:44:18.576Z</time></trkpt><trkpt lat="43.4257385" lon="11.4400794"><ele>369.0</ele><time>2026-04-04T10:44:20.577Z</time></trkpt><trkpt lat="43.4257965" lon="11.4402182"><ele>368.0</ele><time>2026-04-04T10:44:22.574Z</time></trkpt><trkpt lat="43.425841" lon="11.4403325"><ele>367.0</ele><time>2026-04-04T10:44:24.573Z</time></trkpt><trkpt lat="43.4258649" lon="11.4404475"><ele>366.0</ele><time>2026-04-04T10:44:26.571Z</time></trkpt><trkpt lat="43.4258466" lon="11.4405446"><ele>366.0</ele><time>2026-04-04T10:44:28.585Z</time></trkpt><trkpt lat="43.4257739" lon="11.4406057"><ele>366.0</ele><time>2026-04-04T10:44:31.568Z</time></trkpt><trkpt lat="43.4256948" lon="11.4405756"><ele>366.0</ele><time>2026-04-04T10:44:50.584Z</time></trkpt><trkpt lat="43.4256624" lon="11.4404984"><ele>366.0</ele><time>2026-04-04T10:44:52.59Z</time></trkpt><trkpt lat="43.4256554" lon="11.4403696"><ele>366.0</ele><time>2026-04-04T10:44:54.584Z</time></trkpt><trkpt lat="43.4256742" lon="11.4402144"><ele>366.0</ele><time>2026-04-04T10:44:56.579Z</time></trkpt><trkpt lat="43.4256877" lon="11.4400857"><ele>365.1666666666667</ele><time>2026-04-04T10:44:58.579Z</time></trkpt><trkpt lat="43.4256486" lon="11.4399983"><ele>364.3333333333333</ele><time>2026-04-04T10:45:00.568Z</time></trkpt><trkpt lat="43.4255642" lon="11.4399605"><ele>363.5</ele><time>2026-04-04T10:45:02.58Z</time></trkpt><trkpt lat="43.4254938" lon="11.4399478"><ele>362.66666666666663</ele><time>2026-04-04T10:45:03.567Z</time></trkpt><trkpt lat="43.4253974" lon="11.4399303"><ele>361.8333333333333</ele><time>2026-04-04T10:45:04.583Z</time></trkpt><trkpt lat="43.4253237" lon="11.4399106"><ele>361.0</ele><time>2026-04-04T10:45:05.572Z</time></trkpt><trkpt lat="43.4252375" lon="11.4398691"><ele>362.16666666666663</ele><time>2026-04-04T10:45:07.58Z</time></trkpt><trkpt lat="43.4251932" lon="11.4397945"><ele>363.3333333333333</ele><time>2026-04-04T10:45:10.573Z</time></trkpt><trkpt lat="43.4251756" lon="11.439677"><ele>364.5</ele><time>2026-04-04T10:45:14.576Z</time></trkpt><trkpt lat="43.4251791" lon="11.4395616"><ele>365.6666666666667</ele><time>2026-04-04T10:45:17.57Z</time></trkpt><trkpt lat="43.4252278" lon="11.4394673"><ele>366.83333333333337</ele><time>2026-04-04T10:45:20.569Z</time></trkpt><trkpt lat="43.4252604" lon="11.439352"><ele>368.0</ele><time>2026-04-04T10:45:23.581Z</time></trkpt><trkpt lat="43.4252973" lon="11.4392546"><ele>368.0</ele><time>2026-04-04T10:45:26.574Z</time></trkpt><trkpt lat="43.4253751" lon="11.4392237"><ele>368.0</ele><time>2026-04-04T10:45:29.574Z</time></trkpt><trkpt lat="43.4254663" lon="11.4393187"><ele>368.0</ele><time>2026-04-04T10:45:31.576Z</time></trkpt><trkpt lat="43.4255378" lon="11.4393399"><ele>368.0</ele><time>2026-04-04T10:45:32.567Z</time></trkpt><trkpt lat="43.4256141" lon="11.4393457"><ele>368.0</ele><time>2026-04-04T10:45:33.57Z</time></trkpt><trkpt lat="43.4256981" lon="11.4393365"><ele>368.0</ele><time>2026-04-04T10:45:34.58Z</time></trkpt><trkpt lat="43.4257762" lon="11.4393456"><ele>366.83333333333337</ele><time>2026-04-04T10:45:35.575Z</time></trkpt><trkpt lat="43.4258577" lon="11.4393653"><ele>365.6666666666667</ele><time>2026-04-04T10:45:36.579Z</time></trkpt><trkpt lat="43.4259287" lon="11.4394111"><ele>364.5</ele><time>2026-04-04T10:45:37.564Z</time></trkpt><trkpt lat="43.4259874" lon="11.4394793"><ele>363.3333333333333</ele><time>2026-04-04T10:45:38.584Z</time></trkpt><trkpt lat="43.4260382" lon="11.4395653"><ele>362.16666666666663</ele><time>2026-04-04T10:45:39.567Z</time></trkpt><trkpt lat="43.4260726" lon="11.4396692"><ele>361.0</ele><time>2026-04-04T10:45:40.571Z</time></trkpt><trkpt lat="43.4260981" lon="11.4397818"><ele>361.0</ele><time>2026-04-04T10:45:41.567Z</time></trkpt><trkpt lat="43.4261104" lon="11.4399059"><ele>361.0</ele><time>2026-04-04T10:45:42.577Z</time></trkpt><trkpt lat="43.4261162" lon="11.4400357"><ele>361.0</ele><time>2026-04-04T10:45:43.577Z</time></trkpt><trkpt lat="43.4261201" lon="11.4401644"><ele>361.0</ele><time>2026-04-04T10:45:44.578Z</time></trkpt><trkpt lat="43.4261238" lon="11.4402837"><ele>361.0</ele><time>2026-04-04T10:45:45.57Z</time></trkpt><trkpt lat="43.4261293" lon="11.4404023"><ele>361.8333333333333</ele><time>2026-04-04T10:45:46.575Z</time></trkpt><trkpt lat="43.4261327" lon="11.44052"><ele>362.66666666666663</ele><time>2026-04-04T10:45:47.578Z</time></trkpt><trkpt lat="43.4261367" lon="11.4406377"><ele>363.5</ele><time>2026-04-04T10:45:48.57Z</time></trkpt><trkpt lat="43.4261445" lon="11.4407519"><ele>364.3333333333333</ele><time>2026-04-04T10:45:49.572Z</time></trkpt><trkpt lat="43.4261537" lon="11.4408727"><ele>365.1666666666667</ele><time>2026-04-04T10:45:50.579Z</time></trkpt><trkpt lat="43.4261615" lon="11.4410014"><ele>366.0</ele><time>2026-04-04T10:45:51.575Z</time></trkpt><trkpt lat="43.4261595" lon="11.4411344"><ele>366.0</ele><time>2026-04-04T10:45:52.574Z</time></trkpt><trkpt lat="43.4261394" lon="11.4412656"><ele>366.0</ele><time>2026-04-04T10:45:53.581Z</time></trkpt><trkpt lat="43.4260946" lon="11.4413802"><ele>366.0</ele><time>2026-04-04T10:45:54.58Z</time></trkpt><trkpt lat="43.426019" lon="11.441473"><ele>366.0</ele><time>2026-04-04T10:45:55.58Z</time></trkpt><trkpt lat="43.4259128" lon="11.4415429"><ele>366.0</ele><time>2026-04-04T10:45:56.591Z</time></trkpt><trkpt lat="43.425789" lon="11.4416007"><ele>365.5</ele><time>2026-04-04T10:45:57.565Z</time></trkpt><trkpt lat="43.4256528" lon="11.4416754"><ele>365.0</ele><time>2026-04-04T10:45:58.578Z</time></trkpt><trkpt lat="43.4255197" lon="11.4417474"><ele>364.5</ele><time>2026-04-04T10:45:59.58Z</time></trkpt><trkpt lat="43.4253982" lon="11.4418161"><ele>364.0</ele><time>2026-04-04T10:46:00.58Z</time></trkpt><trkpt lat="43.4252906" lon="11.4419053"><ele>365.25</ele><time>2026-04-04T10:46:01.576Z</time></trkpt><trkpt lat="43.4251953" lon="11.4420301"><ele>366.5</ele><time>2026-04-04T10:46:02.571Z</time></trkpt><trkpt lat="43.425114" lon="11.4421853"><ele>367.75</ele><time>2026-04-04T10:46:03.574Z</time></trkpt><trkpt lat="43.4250386" lon="11.4423597"><ele>369.0</ele><time>2026-04-04T10:46:04.578Z</time></trkpt><trkpt lat="43.4249738" lon="11.442552"><ele>369.0</ele><time>2026-04-04T10:46:05.589Z</time></trkpt><trkpt lat="43.4249202" lon="11.4427598"><ele>369.0</ele><time>2026-04-04T10:46:06.58Z</time></trkpt><trkpt lat="43.4248796" lon="11.4429745"><ele>369.0</ele><time>2026-04-04T10:46:07.577Z</time></trkpt><trkpt lat="43.4248613" lon="11.4431708"><ele>368.75</ele><time>2026-04-04T10:46:08.584Z</time></trkpt><trkpt lat="43.4248554" lon="11.4433565"><ele>368.5</ele><time>2026-04-04T10:46:09.577Z</time></trkpt><trkpt lat="43.4248427" lon="11.4435254"><ele>368.25</ele><time>2026-04-04T10:46:10.571Z</time></trkpt><trkpt lat="43.4248191" lon="11.4436871"><ele>368.0</ele><time>2026-04-04T10:46:11.575Z</time></trkpt><trkpt lat="43.424775" lon="11.4438417"><ele>367.5</ele><time>2026-04-04T10:46:12.583Z</time></trkpt><trkpt lat="43.4247103" lon="11.4439821"><ele>367.0</ele><time>2026-04-04T10:46:13.584Z</time></trkpt><trkpt lat="43.4246262" lon="11.4441048"><ele>366.5</ele><time>2026-04-04T10:46:14.585Z</time></trkpt><trkpt lat="43.4245315" lon="11.4442194"><ele>366.0</ele><time>2026-04-04T10:46:15.575Z</time></trkpt><trkpt lat="43.4244465" lon="11.4443508"><ele>369.5</ele><time>2026-04-04T10:46:16.574Z</time></trkpt><trkpt lat="43.4243716" lon="11.4445036"><ele>373.0</ele><time>2026-04-04T10:46:17.592Z</time></trkpt><trkpt lat="43.4242956" lon="11.444665"><ele>376.5</ele><time>2026-04-04T10:46:18.579Z</time></trkpt><trkpt lat="43.4242173" lon="11.4448346"><ele>380.0</ele><time>2026-04-04T10:46:19.576Z</time></trkpt><trkpt lat="43.4241364" lon="11.4450102"><ele>380.0</ele><time>2026-04-04T10:46:20.574Z</time></trkpt><trkpt lat="43.4240582" lon="11.4451875"><ele>380.0</ele><time>2026-04-04T10:46:21.583Z</time></trkpt><trkpt lat="43.4239915" lon="11.4453553"><ele>380.0</ele><time>2026-04-04T10:46:22.591Z</time></trkpt><trkpt lat="43.4239317" lon="11.445511"><ele>380.0</ele><time>2026-04-04T10:46:23.58Z</time></trkpt><trkpt lat="43.423891" lon="11.4456575"><ele>380.0</ele><time>2026-04-04T10:46:24.573Z</time></trkpt><trkpt lat="43.4238753" lon="11.4457921"><ele>380.0</ele><time>2026-04-04T10:46:25.579Z</time></trkpt><trkpt lat="43.4238912" lon="11.4459147"><ele>380.0</ele><time>2026-04-04T10:46:26.572Z</time></trkpt><trkpt lat="43.4239377" lon="11.4460249"><ele>380.0</ele><time>2026-04-04T10:46:27.579Z</time></trkpt><trkpt lat="43.4240177" lon="11.4461041"><ele>380.0</ele><time>2026-04-04T10:46:28.567Z</time></trkpt><trkpt lat="43.4241191" lon="11.4461554"><ele>380.0</ele><time>2026-04-04T10:46:29.577Z</time></trkpt><trkpt lat="43.424232" lon="11.4461908"><ele>380.0</ele><time>2026-04-04T10:46:30.579Z</time></trkpt><trkpt lat="43.4243262" lon="11.4462797"><ele>380.0</ele><time>2026-04-04T10:46:31.576Z</time></trkpt><trkpt lat="43.4244049" lon="11.4464025"><ele>380.0</ele><time>2026-04-04T10:46:32.567Z</time></trkpt><trkpt lat="43.4244607" lon="11.4465517"><ele>382.5</ele><time>2026-04-04T10:46:33.587Z</time></trkpt><trkpt lat="43.4244832" lon="11.4467173"><ele>385.0</ele><time>2026-04-04T10:46:34.575Z</time></trkpt><trkpt lat="43.4244788" lon="11.4468883"><ele>387.5</ele><time>2026-04-04T10:46:35.582Z</time></trkpt><trkpt lat="43.4244553" lon="11.447061"><ele>390.0</ele><time>2026-04-04T10:46:36.586Z</time></trkpt><trkpt lat="43.424422" lon="11.4472356"><ele>391.0</ele><time>2026-04-04T10:46:37.58Z</time></trkpt><trkpt lat="43.424371" lon="11.4473908"><ele>392.0</ele><time>2026-04-04T10:46:38.566Z</time></trkpt><trkpt lat="43.4242909" lon="11.4475255"><ele>393.0</ele><time>2026-04-04T10:46:39.575Z</time></trkpt><trkpt lat="43.4241946" lon="11.4476427"><ele>394.0</ele><time>2026-04-04T10:46:40.569Z</time></trkpt><trkpt lat="43.4240901" lon="11.4477531"><ele>394.0</ele><time>2026-04-04T10:46:41.571Z</time></trkpt><trkpt lat="43.4239886" lon="11.4478635"><ele>394.0</ele><time>2026-04-04T10:46:42.573Z</time></trkpt><trkpt lat="43.4239141" lon="11.4479818"><ele>394.0</ele><time>2026-04-04T10:46:43.572Z</time></trkpt><trkpt lat="43.4238627" lon="11.4481232"><ele>394.0</ele><time>2026-04-04T10:46:44.57Z</time></trkpt><trkpt lat="43.4238384" lon="11.4482793"><ele>393.5</ele><time>2026-04-04T10:46:45.573Z</time></trkpt><trkpt lat="43.4238547" lon="11.4484371"><ele>393.0</ele><time>2026-04-04T10:46:46.574Z</time></trkpt><trkpt lat="43.423894" lon="11.4485965"><ele>392.5</ele><time>2026-04-04T10:46:47.571Z</time></trkpt><trkpt lat="43.4239344" lon="11.4487661"><ele>392.0</ele><time>2026-04-04T10:46:48.565Z</time></trkpt><trkpt lat="43.4239714" lon="11.4489375"><ele>392.0</ele><time>2026-04-04T10:46:49.585Z</time></trkpt><trkpt lat="43.4239949" lon="11.4491004"><ele>392.0</ele><time>2026-04-04T10:46:50.568Z</time></trkpt><trkpt lat="43.4240018" lon="11.4492694"><ele>392.0</ele><time>2026-04-04T10:46:51.579Z</time></trkpt><trkpt lat="43.4239795" lon="11.4494429"><ele>392.0</ele><time>2026-04-04T10:46:52.574Z</time></trkpt><trkpt lat="43.4239376" lon="11.4496175"><ele>390.0</ele><time>2026-04-04T10:46:53.572Z</time></trkpt><trkpt lat="43.4238772" lon="11.4497932"><ele>388.0</ele><time>2026-04-04T10:46:54.572Z</time></trkpt><trkpt lat="43.4237961" lon="11.4499615"><ele>386.0</ele><time>2026-04-04T10:46:55.581Z</time></trkpt><trkpt lat="43.4236913" lon="11.4501168"><ele>384.0</ele><time>2026-04-04T10:46:56.572Z</time></trkpt><trkpt lat="43.4235761" lon="11.4502728"><ele>388.33333333333337</ele><time>2026-04-04T10:46:57.579Z</time></trkpt><trkpt lat="43.4234657" lon="11.4504426"><ele>392.6666666666667</ele><time>2026-04-04T10:46:58.564Z</time></trkpt><trkpt lat="43.4233409" lon="11.4506177"><ele>397.0</ele><time>2026-04-04T10:46:59.573Z</time></trkpt><trkpt lat="43.4231985" lon="11.4507661"><ele>397.0</ele><time>2026-04-04T10:47:00.582Z</time></trkpt><trkpt lat="43.423046" lon="11.4509016"><ele>397.0</ele><time>2026-04-04T10:47:01.57Z</time></trkpt><trkpt lat="43.4229063" lon="11.4510229"><ele>397.0</ele><time>2026-04-04T10:47:02.568Z</time></trkpt><trkpt lat="43.422776" lon="11.4511334"><ele>396.75</ele><time>2026-04-04T10:47:03.565Z</time></trkpt><trkpt lat="43.4226415" lon="11.451212"><ele>396.5</ele><time>2026-04-04T10:47:04.573Z</time></trkpt><trkpt lat="43.4225089" lon="11.4512742"><ele>396.25</ele><time>2026-04-04T10:47:05.575Z</time></trkpt><trkpt lat="43.4223706" lon="11.4513103"><ele>396.0</ele><time>2026-04-04T10:47:06.576Z</time></trkpt><trkpt lat="43.42224" lon="11.4513238"><ele>402.4</ele><time>2026-04-04T10:47:07.576Z</time></trkpt><trkpt lat="43.4221181" lon="11.4513368"><ele>408.8</ele><time>2026-04-04T10:47:08.576Z</time></trkpt><trkpt lat="43.4220101" lon="11.4513633"><ele>415.19999999999993</ele><time>2026-04-04T10:47:09.573Z</time></trkpt><trkpt lat="43.4219197" lon="11.4514227"><ele>421.59999999999997</ele><time>2026-04-04T10:47:10.568Z</time></trkpt><trkpt lat="43.4218502" lon="11.4515102"><ele>428.0</ele><time>2026-04-04T10:47:11.574Z</time></trkpt><trkpt lat="43.4218013" lon="11.4516289"><ele>428.0</ele><time>2026-04-04T10:47:12.577Z</time></trkpt><trkpt lat="43.4217884" lon="11.4517734"><ele>428.0</ele><time>2026-04-04T10:47:13.57Z</time></trkpt><trkpt lat="43.4217898" lon="11.4519278"><ele>428.0</ele><time>2026-04-04T10:47:14.575Z</time></trkpt><trkpt lat="43.4217762" lon="11.452087"><ele>428.0</ele><time>2026-04-04T10:47:15.579Z</time></trkpt><trkpt lat="43.4217438" lon="11.4522516"><ele>425.75</ele><time>2026-04-04T10:47:16.572Z</time></trkpt><trkpt lat="43.4216891" lon="11.4524112"><ele>423.5</ele><time>2026-04-04T10:47:17.577Z</time></trkpt><trkpt lat="43.4216315" lon="11.4525729"><ele>421.25</ele><time>2026-04-04T10:47:18.571Z</time></trkpt><trkpt lat="43.4215897" lon="11.4527307"><ele>419.0</ele><time>2026-04-04T10:47:19.574Z</time></trkpt><trkpt lat="43.4215826" lon="11.4528917"><ele>418.0</ele><time>2026-04-04T10:47:20.569Z</time></trkpt><trkpt lat="43.4216098" lon="11.4530503"><ele>417.0</ele><time>2026-04-04T10:47:21.58Z</time></trkpt><trkpt lat="43.4216744" lon="11.453182"><ele>416.0</ele><time>2026-04-04T10:47:22.571Z</time></trkpt><trkpt lat="43.421748" lon="11.4533122"><ele>415.0</ele><time>2026-04-04T10:47:23.574Z</time></trkpt><trkpt lat="43.4218048" lon="11.4534584"><ele>415.0</ele><time>2026-04-04T10:47:24.567Z</time></trkpt><trkpt lat="43.4218295" lon="11.4536068"><ele>415.0</ele><time>2026-04-04T10:47:25.592Z</time></trkpt><trkpt lat="43.4218227" lon="11.4537673"><ele>415.0</ele><time>2026-04-04T10:47:26.569Z</time></trkpt><trkpt lat="43.4217851" lon="11.4539175"><ele>415.0</ele><time>2026-04-04T10:47:27.574Z</time></trkpt><trkpt lat="43.4217239" lon="11.4540571"><ele>414.5</ele><time>2026-04-04T10:47:28.578Z</time></trkpt><trkpt lat="43.421636" lon="11.4541732"><ele>414.0</ele><time>2026-04-04T10:47:29.573Z</time></trkpt><trkpt lat="43.4215319" lon="11.4542752"><ele>413.5</ele><time>2026-04-04T10:47:30.573Z</time></trkpt><trkpt lat="43.4214204" lon="11.4543703"><ele>413.0</ele><time>2026-04-04T10:47:31.576Z</time></trkpt><trkpt lat="43.4212989" lon="11.4544597"><ele>415.25</ele><time>2026-04-04T10:47:32.574Z</time></trkpt><trkpt lat="43.4211847" lon="11.4545534"><ele>417.5</ele><time>2026-04-04T10:47:33.584Z</time></trkpt><trkpt lat="43.4210657" lon="11.454667"><ele>419.75</ele><time>2026-04-04T10:47:34.572Z</time></trkpt><trkpt lat="43.4209666" lon="11.454812"><ele>422.0</ele><time>2026-04-04T10:47:35.579Z</time></trkpt><trkpt lat="43.4208794" lon="11.4549729"><ele>422.0</ele><time>2026-04-04T10:47:36.576Z</time></trkpt><trkpt lat="43.4207908" lon="11.4551356"><ele>422.0</ele><time>2026-04-04T10:47:37.571Z</time></trkpt><trkpt lat="43.4206913" lon="11.4552895"><ele>422.0</ele><time>2026-04-04T10:47:38.574Z</time></trkpt><trkpt lat="43.4205788" lon="11.455433"><ele>424.0</ele><time>2026-04-04T10:47:39.583Z</time></trkpt><trkpt lat="43.4204664" lon="11.4555812"><ele>426.0</ele><time>2026-04-04T10:47:40.579Z</time></trkpt><trkpt lat="43.4203593" lon="11.4557379"><ele>428.0</ele><time>2026-04-04T10:47:41.578Z</time></trkpt><trkpt lat="43.4202536" lon="11.455899"><ele>428.0</ele><time>2026-04-04T10:47:42.582Z</time></trkpt><trkpt lat="43.4201444" lon="11.4560599"><ele>428.0</ele><time>2026-04-04T10:47:43.58Z</time></trkpt><trkpt lat="43.4200333" lon="11.4562183"><ele>428.0</ele><time>2026-04-04T10:47:44.572Z</time></trkpt><trkpt lat="43.4199263" lon="11.4563671"><ele>426.75</ele><time>2026-04-04T10:47:45.568Z</time></trkpt><trkpt lat="43.4198273" lon="11.4565062"><ele>425.5</ele><time>2026-04-04T10:47:46.58Z</time></trkpt><trkpt lat="43.4197335" lon="11.456626"><ele>424.25</ele><time>2026-04-04T10:47:47.574Z</time></trkpt><trkpt lat="43.4196396" lon="11.4567213"><ele>423.0</ele><time>2026-04-04T10:47:48.581Z</time></trkpt><trkpt lat="43.419544" lon="11.4567844"><ele>425.59999999999997</ele><time>2026-04-04T10:47:49.576Z</time></trkpt><trkpt lat="43.4194399" lon="11.4568225"><ele>428.2</ele><time>2026-04-04T10:47:50.575Z</time></trkpt><trkpt lat="43.4193283" lon="11.4568431"><ele>430.8</ele><time>2026-04-04T10:47:51.581Z</time></trkpt><trkpt lat="43.4192269" lon="11.4568839"><ele>433.4</ele><time>2026-04-04T10:47:52.579Z</time></trkpt><trkpt lat="43.4191439" lon="11.4569627"><ele>436.0</ele><time>2026-04-04T10:47:53.574Z</time></trkpt><trkpt lat="43.4190764" lon="11.4570758"><ele>435.4</ele><time>2026-04-04T10:47:54.581Z</time></trkpt><trkpt lat="43.4190365" lon="11.4572193"><ele>434.8</ele><time>2026-04-04T10:47:55.581Z</time></trkpt><trkpt lat="43.4190057" lon="11.457377"><ele>434.19999999999993</ele><time>2026-04-04T10:47:56.572Z</time></trkpt><trkpt lat="43.4189739" lon="11.4575216"><ele>433.59999999999997</ele><time>2026-04-04T10:47:57.573Z</time></trkpt><trkpt lat="43.4189213" lon="11.4576395"><ele>433.0</ele><time>2026-04-04T10:47:58.568Z</time></trkpt><trkpt lat="43.4188445" lon="11.4577422"><ele>433.0</ele><time>2026-04-04T10:47:59.567Z</time></trkpt><trkpt lat="43.4187476" lon="11.4578288"><ele>433.0</ele><time>2026-04-04T10:48:00.58Z</time></trkpt><trkpt lat="43.4186416" lon="11.4579194"><ele>433.0</ele><time>2026-04-04T10:48:01.58Z</time></trkpt><trkpt lat="43.4185233" lon="11.4580156"><ele>433.0</ele><time>2026-04-04T10:48:02.574Z</time></trkpt><trkpt lat="43.4183963" lon="11.4581157"><ele>433.0</ele><time>2026-04-04T10:48:03.574Z</time></trkpt><trkpt lat="43.4182774" lon="11.4582136"><ele>433.0</ele><time>2026-04-04T10:48:04.578Z</time></trkpt><trkpt lat="43.4181593" lon="11.4582964"><ele>433.0</ele><time>2026-04-04T10:48:05.572Z</time></trkpt><trkpt lat="43.4180349" lon="11.4583627"><ele>433.0</ele><time>2026-04-04T10:48:06.58Z</time></trkpt><trkpt lat="43.4179018" lon="11.4583981"><ele>434.5</ele><time>2026-04-04T10:48:07.578Z</time></trkpt><trkpt lat="43.4177754" lon="11.4583559"><ele>436.0</ele><time>2026-04-04T10:48:08.575Z</time></trkpt><trkpt lat="43.4176516" lon="11.4582885"><ele>437.5</ele><time>2026-04-04T10:48:09.576Z</time></trkpt><trkpt lat="43.4175298" lon="11.4581985"><ele>439.0</ele><time>2026-04-04T10:48:10.568Z</time></trkpt><trkpt lat="43.4174124" lon="11.4581208"><ele>439.0</ele><time>2026-04-04T10:48:11.582Z</time></trkpt><trkpt lat="43.417298" lon="11.4580602"><ele>439.0</ele><time>2026-04-04T10:48:12.58Z</time></trkpt><trkpt lat="43.4171785" lon="11.4580181"><ele>439.0</ele><time>2026-04-04T10:48:13.579Z</time></trkpt><trkpt lat="43.4170556" lon="11.457999"><ele>439.0</ele><time>2026-04-04T10:48:14.584Z</time></trkpt><trkpt lat="43.4169328" lon="11.4579842"><ele>439.6666666666667</ele><time>2026-04-04T10:48:15.576Z</time></trkpt><trkpt lat="43.4168185" lon="11.4579714"><ele>440.33333333333337</ele><time>2026-04-04T10:48:16.574Z</time></trkpt><trkpt lat="43.4167109" lon="11.4579578"><ele>441.0</ele><time>2026-04-04T10:48:17.581Z</time></trkpt><trkpt lat="43.4162564" lon="11.458132"><ele>442.0</ele><time>2026-04-04T10:52:15.578Z</time></trkpt><trkpt lat="43.4161908" lon="11.4582143"><ele>443.0</ele><time>2026-04-04T10:52:17.58Z</time></trkpt><trkpt lat="43.4161118" lon="11.4583027"><ele>444.0</ele><time>2026-04-04T10:52:19.564Z</time></trkpt><trkpt lat="43.416034" lon="11.4584076"><ele>445.0</ele><time>2026-04-04T10:52:21.576Z</time></trkpt><trkpt lat="43.4159748" lon="11.4585088"><ele>446.0</ele><time>2026-04-04T10:52:23.585Z</time></trkpt><trkpt lat="43.415926" lon="11.4586246"><ele>446.0</ele><time>2026-04-04T10:52:25.574Z</time></trkpt><trkpt lat="43.4159013" lon="11.4587836"><ele>446.0</ele><time>2026-04-04T10:52:27.581Z</time></trkpt><trkpt lat="43.4158766" lon="11.4589441"><ele>446.0</ele><time>2026-04-04T10:52:29.574Z</time></trkpt><trkpt lat="43.4158687" lon="11.4591019"><ele>446.0</ele><time>2026-04-04T10:52:31.573Z</time></trkpt><trkpt lat="43.4158848" lon="11.4592614"><ele>446.66666666666663</ele><time>2026-04-04T10:52:33.569Z</time></trkpt><trkpt lat="43.4158958" lon="11.4593897"><ele>447.3333333333333</ele><time>2026-04-04T10:52:35.574Z</time></trkpt><trkpt lat="43.4158922" lon="11.4594825"><ele>448.0</ele><time>2026-04-04T10:52:38.572Z</time></trkpt><trkpt lat="43.4158941" lon="11.4595703"><ele>448.66666666666663</ele><time>2026-04-04T10:52:56.572Z</time></trkpt><trkpt lat="43.4158947" lon="11.4597228"><ele>449.3333333333333</ele><time>2026-04-04T10:52:58.578Z</time></trkpt><trkpt lat="43.4158945" lon="11.4598156"><ele>450.0</ele><time>2026-04-04T10:52:59.579Z</time></trkpt><trkpt lat="43.4158944" lon="11.4599192"><ele>451.4</ele><time>2026-04-04T10:53:00.571Z</time></trkpt><trkpt lat="43.4158983" lon="11.460026"><ele>452.8</ele><time>2026-04-04T10:53:01.567Z</time></trkpt><trkpt lat="43.4159025" lon="11.4601161"><ele>454.20000000000005</ele><time>2026-04-04T10:53:02.579Z</time></trkpt><trkpt lat="43.4159061" lon="11.4602732"><ele>455.6</ele><time>2026-04-04T10:53:04.571Z</time></trkpt><trkpt lat="43.4159181" lon="11.4604487"><ele>457.0</ele><time>2026-04-04T10:53:06.58Z</time></trkpt><trkpt lat="43.415922" lon="11.4605388"><ele>459.33333333333337</ele><time>2026-04-04T10:53:07.563Z</time></trkpt><trkpt lat="43.4159289" lon="11.4606288"><ele>461.6666666666667</ele><time>2026-04-04T10:53:08.572Z</time></trkpt><trkpt lat="43.4159733" lon="11.4607862"><ele>464.0</ele><time>2026-04-04T10:53:10.57Z</time></trkpt><trkpt lat="43.4160149" lon="11.4608574"><ele>466.33333333333337</ele><time>2026-04-04T10:53:11.565Z</time></trkpt><trkpt lat="43.4160968" lon="11.4609747"><ele>468.6666666666667</ele><time>2026-04-04T10:53:13.577Z</time></trkpt><trkpt lat="43.4161399" lon="11.4610417"><ele>471.0</ele><time>2026-04-04T10:53:14.573Z</time></trkpt><trkpt lat="43.4161715" lon="11.4611638"><ele>472.20000000000005</ele><time>2026-04-04T10:53:16.577Z</time></trkpt><trkpt lat="43.4161348" lon="11.4612923"><ele>473.40000000000003</ele><time>2026-04-04T10:53:18.572Z</time></trkpt><trkpt lat="43.4160566" lon="11.4613794"><ele>474.6</ele><time>2026-04-04T10:53:20.565Z</time></trkpt><trkpt lat="43.4159624" lon="11.4614295"><ele>475.8</ele><time>2026-04-04T10:53:22.573Z</time></trkpt><trkpt lat="43.4158684" lon="11.4614621"><ele>477.0</ele><time>2026-04-04T10:53:24.573Z</time></trkpt><trkpt lat="43.4157603" lon="11.4614003"><ele>475.8</ele><time>2026-04-04T10:53:26.569Z</time></trkpt><trkpt lat="43.4156763" lon="11.4612515"><ele>474.6</ele><time>2026-04-04T10:53:28.573Z</time></trkpt><trkpt lat="43.415649" lon="11.4611414"><ele>473.40000000000003</ele><time>2026-04-04T10:53:29.569Z</time></trkpt><trkpt lat="43.4156338" lon="11.4610204"><ele>472.20000000000005</ele><time>2026-04-04T10:53:30.573Z</time></trkpt><trkpt lat="43.4156085" lon="11.4609172"><ele>471.0</ele><time>2026-04-04T10:53:31.57Z</time></trkpt><trkpt lat="43.4155865" lon="11.4608313"><ele>471.0</ele><time>2026-04-04T10:53:32.574Z</time></trkpt><trkpt lat="43.4155538" lon="11.4607427"><ele>471.0</ele><time>2026-04-04T10:53:33.568Z</time></trkpt><trkpt lat="43.4155003" lon="11.4606707"><ele>471.0</ele><time>2026-04-04T10:53:34.575Z</time></trkpt><trkpt lat="43.4154299" lon="11.4606193"><ele>471.0</ele><time>2026-04-04T10:53:35.564Z</time></trkpt><trkpt lat="43.4153508" lon="11.4605923"><ele>471.0</ele><time>2026-04-04T10:53:36.569Z</time></trkpt><trkpt lat="43.4152597" lon="11.4605927"><ele>471.0</ele><time>2026-04-04T10:53:38.57Z</time></trkpt><trkpt lat="43.4152723" lon="11.460699"><ele>471.0</ele><time>2026-04-04T10:53:40.57Z</time></trkpt><trkpt lat="43.4153384" lon="11.4607744"><ele>471.0</ele><time>2026-04-04T10:53:42.567Z</time></trkpt><trkpt lat="43.4154221" lon="11.4608726"><ele>471.0</ele><time>2026-04-04T10:53:44.568Z</time></trkpt><trkpt lat="43.4154741" lon="11.4610258"><ele>471.0</ele><time>2026-04-04T10:53:46.581Z</time></trkpt><trkpt lat="43.4154891" lon="11.4611872"><ele>471.0</ele><time>2026-04-04T10:53:48.576Z</time></trkpt><trkpt lat="43.4154537" lon="11.4613355"><ele>474.8</ele><time>2026-04-04T10:53:50.574Z</time></trkpt><trkpt lat="43.4154131" lon="11.4614863"><ele>478.6</ele><time>2026-04-04T10:53:52.566Z</time></trkpt><trkpt lat="43.4153929" lon="11.4616371"><ele>482.4</ele><time>2026-04-04T10:53:54.574Z</time></trkpt><trkpt lat="43.4153582" lon="11.4617446"><ele>486.2</ele><time>2026-04-04T10:53:56.573Z</time></trkpt><trkpt lat="43.4152652" lon="11.4617328"><ele>490.0</ele><time>2026-04-04T10:53:59.572Z</time></trkpt><trkpt lat="43.4152558" lon="11.4615692"><ele>490.0</ele><time>2026-04-04T10:54:01.572Z</time></trkpt><trkpt lat="43.4152087" lon="11.4614207"><ele>490.0</ele><time>2026-04-04T10:54:03.581Z</time></trkpt><trkpt lat="43.4151231" lon="11.4613552"><ele>490.0</ele><time>2026-04-04T10:54:05.574Z</time></trkpt><trkpt lat="43.4150448" lon="11.4613699"><ele>490.0</ele><time>2026-04-04T10:54:07.579Z</time></trkpt><trkpt lat="43.4149985" lon="11.4614781"><ele>490.0</ele><time>2026-04-04T10:54:09.571Z</time></trkpt><trkpt lat="43.4149646" lon="11.4616176"><ele>490.0</ele><time>2026-04-04T10:54:11.575Z</time></trkpt><trkpt lat="43.414942" lon="11.4617936"><ele>490.0</ele><time>2026-04-04T10:54:13.582Z</time></trkpt><trkpt lat="43.414922" lon="11.4618833"><ele>490.0</ele><time>2026-04-04T10:54:14.574Z</time></trkpt><trkpt lat="43.4148487" lon="11.4620102"><ele>490.0</ele><time>2026-04-04T10:54:16.567Z</time></trkpt><trkpt lat="43.4147654" lon="11.4621271"><ele>490.0</ele><time>2026-04-04T10:54:18.574Z</time></trkpt><trkpt lat="43.4147289" lon="11.4622793"><ele>491.6</ele><time>2026-04-04T10:54:20.575Z</time></trkpt><trkpt lat="43.4147023" lon="11.4624285"><ele>493.2</ele><time>2026-04-04T10:54:22.575Z</time></trkpt><trkpt lat="43.4146804" lon="11.4625215"><ele>494.79999999999995</ele><time>2026-04-04T10:54:23.571Z</time></trkpt><trkpt lat="43.4146235" lon="11.462663"><ele>496.4</ele><time>2026-04-04T10:54:25.572Z</time></trkpt><trkpt lat="43.4145773" lon="11.4628026"><ele>498.0</ele><time>2026-04-04T10:54:27.572Z</time></trkpt><trkpt lat="43.4145586" lon="11.4629136"><ele>503.0</ele><time>2026-04-04T10:54:28.578Z</time></trkpt><trkpt lat="43.4145611" lon="11.4630402"><ele>508.0</ele><time>2026-04-04T10:54:29.57Z</time></trkpt><trkpt lat="43.414559" lon="11.4631477"><ele>513.0</ele><time>2026-04-04T10:54:30.581Z</time></trkpt><trkpt lat="43.4145719" lon="11.4632447"><ele>518.0</ele><time>2026-04-04T10:54:31.579Z</time></trkpt><trkpt lat="43.4145844" lon="11.4633547"><ele>523.0</ele><time>2026-04-04T10:54:32.565Z</time></trkpt><trkpt lat="43.414592" lon="11.4634817"><ele>528.0</ele><time>2026-04-04T10:54:33.578Z</time></trkpt><trkpt lat="43.4145913" lon="11.4635959"><ele>528.0</ele><time>2026-04-04T10:54:34.575Z</time></trkpt><trkpt lat="43.4145745" lon="11.4637202"><ele>528.0</ele><time>2026-04-04T10:54:35.576Z</time></trkpt><trkpt lat="43.4145513" lon="11.463824"><ele>528.0</ele><time>2026-04-04T10:54:36.579Z</time></trkpt><trkpt lat="43.4145285" lon="11.4639072"><ele>528.0</ele><time>2026-04-04T10:54:37.569Z</time></trkpt><trkpt lat="43.4144558" lon="11.4640579"><ele>528.0</ele><time>2026-04-04T10:54:39.572Z</time></trkpt><trkpt lat="43.4143957" lon="11.4641247"><ele>528.0</ele><time>2026-04-04T10:54:40.57Z</time></trkpt><trkpt lat="43.4143306" lon="11.4641823"><ele>527.3333333333334</ele><time>2026-04-04T10:54:41.567Z</time></trkpt><trkpt lat="43.4142603" lon="11.4642408"><ele>526.6666666666666</ele><time>2026-04-04T10:54:42.585Z</time></trkpt><trkpt lat="43.4142044" lon="11.4643106"><ele>526.0</ele><time>2026-04-04T10:54:43.578Z</time></trkpt><trkpt lat="43.4141432" lon="11.464369"><ele>525.3333333333333</ele><time>2026-04-04T10:54:44.573Z</time></trkpt><trkpt lat="43.4140802" lon="11.4644263"><ele>524.6666666666666</ele><time>2026-04-04T10:54:45.57Z</time></trkpt><trkpt lat="43.4140039" lon="11.4644565"><ele>524.0</ele><time>2026-04-04T10:54:46.571Z</time></trkpt><trkpt lat="43.4139333" lon="11.4644977"><ele>524.0</ele><time>2026-04-04T10:54:47.576Z</time></trkpt><trkpt lat="43.4138516" lon="11.4645378"><ele>524.0</ele><time>2026-04-04T10:54:48.573Z</time></trkpt><trkpt lat="43.4137672" lon="11.4645758"><ele>524.0</ele><time>2026-04-04T10:54:49.573Z</time></trkpt><trkpt lat="43.4136848" lon="11.4646062"><ele>524.0</ele><time>2026-04-04T10:54:50.583Z</time></trkpt><trkpt lat="43.4136204" lon="11.4646105"><ele>524.0</ele><time>2026-04-04T10:54:51.576Z</time></trkpt><trkpt lat="43.4135485" lon="11.464614"><ele>524.0</ele><time>2026-04-04T10:54:52.574Z</time></trkpt><trkpt lat="43.4134728" lon="11.4646043"><ele>525.1666666666666</ele><time>2026-04-04T10:54:53.563Z</time></trkpt><trkpt lat="43.4133912" lon="11.4645963"><ele>526.3333333333333</ele><time>2026-04-04T10:54:54.565Z</time></trkpt><trkpt lat="43.4133154" lon="11.4645684"><ele>527.5</ele><time>2026-04-04T10:54:55.577Z</time></trkpt><trkpt lat="43.4132407" lon="11.4645389"><ele>528.6666666666666</ele><time>2026-04-04T10:54:56.572Z</time></trkpt><trkpt lat="43.4131785" lon="11.4645084"><ele>529.8333333333334</ele><time>2026-04-04T10:54:57.574Z</time></trkpt><trkpt lat="43.4130966" lon="11.4644319"><ele>531.0</ele><time>2026-04-04T10:54:59.587Z</time></trkpt><trkpt lat="43.4130041" lon="11.4643991"><ele>528.1666666666666</ele><time>2026-04-04T10:55:01.571Z</time></trkpt><trkpt lat="43.412901" lon="11.4643718"><ele>525.3333333333334</ele><time>2026-04-04T10:55:03.577Z</time></trkpt><trkpt lat="43.4128087" lon="11.4643655"><ele>522.5</ele><time>2026-04-04T10:55:05.582Z</time></trkpt><trkpt lat="43.4127305" lon="11.4643502"><ele>519.6666666666667</ele><time>2026-04-04T10:55:07.583Z</time></trkpt><trkpt lat="43.4126403" lon="11.4643471"><ele>516.8333333333334</ele><time>2026-04-04T10:55:09.579Z</time></trkpt><trkpt lat="43.4125586" lon="11.464348"><ele>514.0</ele><time>2026-04-04T10:55:11.596Z</time></trkpt><trkpt lat="43.4124859" lon="11.4643561"><ele>514.0</ele><time>2026-04-04T10:55:27.57Z</time></trkpt><trkpt lat="43.4124124" lon="11.4643901"><ele>514.0</ele><time>2026-04-04T10:55:29.572Z</time></trkpt><trkpt lat="43.4123263" lon="11.4644532"><ele>514.0</ele><time>2026-04-04T10:55:31.585Z</time></trkpt><trkpt lat="43.4122338" lon="11.4645154"><ele>514.0</ele><time>2026-04-04T10:55:33.575Z</time></trkpt><trkpt lat="43.4121237" lon="11.4645734"><ele>514.0</ele><time>2026-04-04T10:55:35.58Z</time></trkpt><trkpt lat="43.4120648" lon="11.4646115"><ele>511.79999999999995</ele><time>2026-04-04T10:55:36.571Z</time></trkpt><trkpt lat="43.4120044" lon="11.4646561"><ele>509.59999999999997</ele><time>2026-04-04T10:55:37.57Z</time></trkpt><trkpt lat="43.4119449" lon="11.464692"><ele>507.4</ele><time>2026-04-04T10:55:38.58Z</time></trkpt><trkpt lat="43.4118331" lon="11.4647569"><ele>505.2</ele><time>2026-04-04T10:55:40.576Z</time></trkpt><trkpt lat="43.41173" lon="11.4648129"><ele>503.0</ele><time>2026-04-04T10:55:42.577Z</time></trkpt><trkpt lat="43.4116257" lon="11.4648126"><ele>503.0</ele><time>2026-04-04T10:55:44.572Z</time></trkpt><trkpt lat="43.4115262" lon="11.4647566"><ele>502.99999999999994</ele><time>2026-04-04T10:55:46.573Z</time></trkpt><trkpt lat="43.4114187" lon="11.4647044"><ele>502.99999999999994</ele><time>2026-04-04T10:55:48.581Z</time></trkpt><trkpt lat="43.4113121" lon="11.4646461"><ele>503.0</ele><time>2026-04-04T10:55:50.576Z</time></trkpt><trkpt lat="43.4112273" lon="11.4645666"><ele>503.0</ele><time>2026-04-04T10:55:52.576Z</time></trkpt><trkpt lat="43.4111397" lon="11.464501"><ele>501.2</ele><time>2026-04-04T10:55:54.574Z</time></trkpt><trkpt lat="43.4110556" lon="11.4644539"><ele>499.4</ele><time>2026-04-04T10:55:56.58Z</time></trkpt><trkpt lat="43.4109447" lon="11.464439"><ele>497.59999999999997</ele><time>2026-04-04T10:55:58.59Z</time></trkpt><trkpt lat="43.4108396" lon="11.4644566"><ele>495.79999999999995</ele><time>2026-04-04T10:56:00.575Z</time></trkpt><trkpt lat="43.4107291" lon="11.4644727"><ele>494.0</ele><time>2026-04-04T10:56:02.569Z</time></trkpt><trkpt lat="43.4106096" lon="11.4644757"><ele>493.66666666666663</ele><time>2026-04-04T10:56:04.574Z</time></trkpt><trkpt lat="43.4104804" lon="11.464474"><ele>493.3333333333333</ele><time>2026-04-04T10:56:06.568Z</time></trkpt><trkpt lat="43.4104087" lon="11.4644671"><ele>493.0</ele><time>2026-04-04T10:56:07.576Z</time></trkpt><trkpt lat="43.4103343" lon="11.4644648"><ele>492.66666666666663</ele><time>2026-04-04T10:56:08.573Z</time></trkpt><trkpt lat="43.4102663" lon="11.4644724"><ele>492.3333333333333</ele><time>2026-04-04T10:56:09.567Z</time></trkpt><trkpt lat="43.4101993" lon="11.4644784"><ele>492.0</ele><time>2026-04-04T10:56:10.572Z</time></trkpt><trkpt lat="43.410131" lon="11.4644757"><ele>492.0</ele><time>2026-04-04T10:56:11.581Z</time></trkpt><trkpt lat="43.4100606" lon="11.4644812"><ele>492.0</ele><time>2026-04-04T10:56:12.573Z</time></trkpt><trkpt lat="43.4099915" lon="11.464481"><ele>492.0</ele><time>2026-04-04T10:56:13.575Z</time></trkpt><trkpt lat="43.4099268" lon="11.4644723"><ele>492.0</ele><time>2026-04-04T10:56:14.575Z</time></trkpt><trkpt lat="43.4098069" lon="11.464481"><ele>492.0</ele><time>2026-04-04T10:56:16.57Z</time></trkpt><trkpt lat="43.4096897" lon="11.4644886"><ele>492.0</ele><time>2026-04-04T10:56:18.581Z</time></trkpt><trkpt lat="43.4096266" lon="11.4644649"><ele>492.20000000000005</ele><time>2026-04-04T10:56:19.575Z</time></trkpt><trkpt lat="43.4095052" lon="11.464415"><ele>492.40000000000003</ele><time>2026-04-04T10:56:21.58Z</time></trkpt><trkpt lat="43.4094372" lon="11.464409"><ele>492.59999999999997</ele><time>2026-04-04T10:56:22.577Z</time></trkpt><trkpt lat="43.4093387" lon="11.4644166"><ele>492.79999999999995</ele><time>2026-04-04T10:56:24.571Z</time></trkpt><trkpt lat="43.4092647" lon="11.4644101"><ele>493.0</ele><time>2026-04-04T10:56:26.578Z</time></trkpt><trkpt lat="43.4091903" lon="11.4644864"><ele>493.00000000000006</ele><time>2026-04-04T10:56:29.582Z</time></trkpt><trkpt lat="43.409125" lon="11.4645449"><ele>493.0</ele><time>2026-04-04T10:56:31.573Z</time></trkpt><trkpt lat="43.4089967" lon="11.4645448"><ele>493.0</ele><time>2026-04-04T10:56:33.574Z</time></trkpt><trkpt lat="43.4089284" lon="11.4645569"><ele>493.0</ele><time>2026-04-04T10:56:34.578Z</time></trkpt><trkpt lat="43.4088615" lon="11.4645592"><ele>493.00000000000006</ele><time>2026-04-04T10:56:35.575Z</time></trkpt><trkpt lat="43.4087902" lon="11.4645702"><ele>493.0</ele><time>2026-04-04T10:56:36.583Z</time></trkpt><trkpt lat="43.4087229" lon="11.4645648"><ele>492.42857142857144</ele><time>2026-04-04T10:56:37.576Z</time></trkpt><trkpt lat="43.408649" lon="11.4645589"><ele>491.8571428571429</ele><time>2026-04-04T10:56:38.577Z</time></trkpt><trkpt lat="43.4085779" lon="11.4645493"><ele>491.28571428571433</ele><time>2026-04-04T10:56:39.585Z</time></trkpt><trkpt lat="43.4085063" lon="11.4645485"><ele>490.7142857142857</ele><time>2026-04-04T10:56:40.575Z</time></trkpt><trkpt lat="43.4084377" lon="11.4645433"><ele>490.1428571428572</ele><time>2026-04-04T10:56:41.58Z</time></trkpt><trkpt lat="43.4083694" lon="11.4645421"><ele>489.5714285714286</ele><time>2026-04-04T10:56:42.575Z</time></trkpt><trkpt lat="43.4082995" lon="11.4645397"><ele>489.0</ele><time>2026-04-04T10:56:43.572Z</time></trkpt><trkpt lat="43.4082285" lon="11.4645404"><ele>489.0</ele><time>2026-04-04T10:56:44.571Z</time></trkpt><trkpt lat="43.4081588" lon="11.464542"><ele>489.00000000000006</ele><time>2026-04-04T10:56:45.582Z</time></trkpt><trkpt lat="43.4080876" lon="11.4645414"><ele>489.0</ele><time>2026-04-04T10:56:46.572Z</time></trkpt><trkpt lat="43.4080166" lon="11.4645452"><ele>489.0</ele><time>2026-04-04T10:56:47.584Z</time></trkpt><trkpt lat="43.4079471" lon="11.4645458"><ele>489.00000000000006</ele><time>2026-04-04T10:56:48.577Z</time></trkpt><trkpt lat="43.4078744" lon="11.4645534"><ele>489.0</ele><time>2026-04-04T10:56:49.583Z</time></trkpt><trkpt lat="43.4077995" lon="11.4645653"><ele>489.0</ele><time>2026-04-04T10:56:50.574Z</time></trkpt><trkpt lat="43.4077257" lon="11.4645734"><ele>487.8571428571429</ele><time>2026-04-04T10:56:51.581Z</time></trkpt><trkpt lat="43.4076529" lon="11.4645831"><ele>486.7142857142858</ele><time>2026-04-04T10:56:52.575Z</time></trkpt><trkpt lat="43.4075851" lon="11.4645887"><ele>485.57142857142856</ele><time>2026-04-04T10:56:53.573Z</time></trkpt><trkpt lat="43.4075182" lon="11.4645952"><ele>484.42857142857144</ele><time>2026-04-04T10:56:54.569Z</time></trkpt><trkpt lat="43.4074512" lon="11.4646078"><ele>483.2857142857143</ele><time>2026-04-04T10:56:55.575Z</time></trkpt><trkpt lat="43.4073778" lon="11.4646204"><ele>482.1428571428571</ele><time>2026-04-04T10:56:56.574Z</time></trkpt><trkpt lat="43.4073027" lon="11.4646325"><ele>480.99999999999994</ele><time>2026-04-04T10:56:57.582Z</time></trkpt><trkpt lat="43.4072253" lon="11.4646438"><ele>480.50000000000006</ele><time>2026-04-04T10:56:58.58Z</time></trkpt><trkpt lat="43.4071485" lon="11.46465"><ele>480.0</ele><time>2026-04-04T10:56:59.579Z</time></trkpt><trkpt lat="43.4070696" lon="11.464648"><ele>479.5</ele><time>2026-04-04T10:57:00.573Z</time></trkpt><trkpt lat="43.4069892" lon="11.4646435"><ele>479.0</ele><time>2026-04-04T10:57:01.572Z</time></trkpt><trkpt lat="43.4069105" lon="11.464623"><ele>478.50000000000006</ele><time>2026-04-04T10:57:02.568Z</time></trkpt><trkpt lat="43.4068303" lon="11.4645975"><ele>478.0</ele><time>2026-04-04T10:57:03.579Z</time></trkpt><trkpt lat="43.4067554" lon="11.4645723"><ele>477.33333333333337</ele><time>2026-04-04T10:57:04.574Z</time></trkpt><trkpt lat="43.4066866" lon="11.4645503"><ele>476.6666666666667</ele><time>2026-04-04T10:57:05.574Z</time></trkpt><trkpt lat="43.4066233" lon="11.4645291"><ele>476.0</ele><time>2026-04-04T10:57:06.578Z</time></trkpt><trkpt lat="43.4065624" lon="11.4645061"><ele>475.33333333333337</ele><time>2026-04-04T10:57:07.57Z</time></trkpt><trkpt lat="43.4064424" lon="11.4644692"><ele>474.6666666666667</ele><time>2026-04-04T10:57:09.579Z</time></trkpt><trkpt lat="43.406321" lon="11.4644302"><ele>474.0</ele><time>2026-04-04T10:57:11.576Z</time></trkpt><trkpt lat="43.406257" lon="11.4644089"><ele>473.1428571428571</ele><time>2026-04-04T10:57:12.582Z</time></trkpt><trkpt lat="43.4061917" lon="11.4643799"><ele>472.2857142857143</ele><time>2026-04-04T10:57:13.572Z</time></trkpt><trkpt lat="43.4061261" lon="11.4643476"><ele>471.42857142857144</ele><time>2026-04-04T10:57:14.582Z</time></trkpt><trkpt lat="43.4060605" lon="11.4643091"><ele>470.57142857142856</ele><time>2026-04-04T10:57:15.583Z</time></trkpt><trkpt lat="43.405994" lon="11.4642686"><ele>469.7142857142858</ele><time>2026-04-04T10:57:16.569Z</time></trkpt><trkpt lat="43.4059272" lon="11.4642244"><ele>468.8571428571429</ele><time>2026-04-04T10:57:17.579Z</time></trkpt><trkpt lat="43.4058632" lon="11.4641724"><ele>468.0</ele><time>2026-04-04T10:57:18.572Z</time></trkpt><trkpt lat="43.4057978" lon="11.4641183"><ele>468.0</ele><time>2026-04-04T10:57:19.589Z</time></trkpt><trkpt lat="43.4057321" lon="11.4640639"><ele>468.00000000000006</ele><time>2026-04-04T10:57:20.572Z</time></trkpt><trkpt lat="43.4056739" lon="11.4640084"><ele>468.0</ele><time>2026-04-04T10:57:21.584Z</time></trkpt><trkpt lat="43.4056152" lon="11.4639541"><ele>468.0</ele><time>2026-04-04T10:57:22.581Z</time></trkpt><trkpt lat="43.4055551" lon="11.4639014"><ele>468.00000000000006</ele><time>2026-04-04T10:57:23.589Z</time></trkpt><trkpt lat="43.4054999" lon="11.463846"><ele>468.0</ele><time>2026-04-04T10:57:24.585Z</time></trkpt><trkpt lat="43.4054477" lon="11.4637846"><ele>468.0</ele><time>2026-04-04T10:57:25.586Z</time></trkpt><trkpt lat="43.4053941" lon="11.4637259"><ele>465.5</ele><time>2026-04-04T10:57:26.583Z</time></trkpt><trkpt lat="43.4053431" lon="11.4636668"><ele>463.0</ele><time>2026-04-04T10:57:27.587Z</time></trkpt><trkpt lat="43.4052948" lon="11.4636055"><ele>460.5</ele><time>2026-04-04T10:57:28.581Z</time></trkpt><trkpt lat="43.4052455" lon="11.463547"><ele>458.0</ele><time>2026-04-04T10:57:29.579Z</time></trkpt><trkpt lat="43.405199" lon="11.4634865"><ele>455.5</ele><time>2026-04-04T10:57:30.57Z</time></trkpt><trkpt lat="43.4051162" lon="11.4633817"><ele>453.0</ele><time>2026-04-04T10:57:32.584Z</time></trkpt><trkpt lat="43.4050422" lon="11.4633047"><ele>453.0</ele><time>2026-04-04T10:57:34.587Z</time></trkpt><trkpt lat="43.4049716" lon="11.4632225"><ele>453.0</ele><time>2026-04-04T10:57:36.579Z</time></trkpt><trkpt lat="43.4049189" lon="11.463171"><ele>453.0</ele><time>2026-04-04T10:57:38.582Z</time></trkpt><trkpt lat="43.4049004" lon="11.4630714"><ele>453.0</ele><time>2026-04-04T10:58:56.57Z</time></trkpt><trkpt lat="43.4048516" lon="11.4629796"><ele>453.0</ele><time>2026-04-04T10:58:58.577Z</time></trkpt><trkpt lat="43.4047864" lon="11.4628502"><ele>453.0</ele><time>2026-04-04T10:59:00.581Z</time></trkpt><trkpt lat="43.4047407" lon="11.4626902"><ele>453.5</ele><time>2026-04-04T10:59:02.57Z</time></trkpt><trkpt lat="43.4047267" lon="11.4626049"><ele>454.0</ele><time>2026-04-04T10:59:03.564Z</time></trkpt><trkpt lat="43.4047072" lon="11.4625168"><ele>454.5</ele><time>2026-04-04T10:59:04.575Z</time></trkpt><trkpt lat="43.4046864" lon="11.4623585"><ele>455.0</ele><time>2026-04-04T10:59:06.568Z</time></trkpt><trkpt lat="43.404663" lon="11.4622001"><ele>455.5</ele><time>2026-04-04T10:59:08.564Z</time></trkpt><trkpt lat="43.4046474" lon="11.4621108"><ele>456.0</ele><time>2026-04-04T10:59:09.585Z</time></trkpt><trkpt lat="43.4046314" lon="11.4620044"><ele>456.0</ele><time>2026-04-04T10:59:10.576Z</time></trkpt><trkpt lat="43.4046103" lon="11.4618887"><ele>456.0</ele><time>2026-04-04T10:59:11.574Z</time></trkpt><trkpt lat="43.4045885" lon="11.4617794"><ele>456.0</ele><time>2026-04-04T10:59:12.575Z</time></trkpt><trkpt lat="43.4045615" lon="11.4616742"><ele>456.0</ele><time>2026-04-04T10:59:13.572Z</time></trkpt><trkpt lat="43.4045269" lon="11.4615744"><ele>456.0</ele><time>2026-04-04T10:59:14.579Z</time></trkpt><trkpt lat="43.4044872" lon="11.4614791"><ele>456.0</ele><time>2026-04-04T10:59:15.57Z</time></trkpt><trkpt lat="43.4044393" lon="11.4613733"><ele>456.5</ele><time>2026-04-04T10:59:16.574Z</time></trkpt><trkpt lat="43.404387" lon="11.4612528"><ele>457.0</ele><time>2026-04-04T10:59:17.582Z</time></trkpt><trkpt lat="43.4043267" lon="11.4611158"><ele>457.5</ele><time>2026-04-04T10:59:18.57Z</time></trkpt><trkpt lat="43.4042625" lon="11.4609793"><ele>458.0</ele><time>2026-04-04T10:59:19.571Z</time></trkpt><trkpt lat="43.404204" lon="11.460845"><ele>458.0</ele><time>2026-04-04T10:59:20.566Z</time></trkpt><trkpt lat="43.4041557" lon="11.4607128"><ele>457.99999999999994</ele><time>2026-04-04T10:59:21.58Z</time></trkpt><trkpt lat="43.4041197" lon="11.4605757"><ele>457.99999999999994</ele><time>2026-04-04T10:59:22.58Z</time></trkpt><trkpt lat="43.4041047" lon="11.460449"><ele>458.0</ele><time>2026-04-04T10:59:23.586Z</time></trkpt><trkpt lat="43.4041053" lon="11.4603143"><ele>458.0</ele><time>2026-04-04T10:59:24.578Z</time></trkpt><trkpt lat="43.4041203" lon="11.4601754"><ele>457.59999999999997</ele><time>2026-04-04T10:59:25.582Z</time></trkpt><trkpt lat="43.40414" lon="11.4600311"><ele>457.19999999999993</ele><time>2026-04-04T10:59:26.575Z</time></trkpt><trkpt lat="43.4041599" lon="11.4598875"><ele>456.8</ele><time>2026-04-04T10:59:27.579Z</time></trkpt><trkpt lat="43.404185" lon="11.4597554"><ele>456.4</ele><time>2026-04-04T10:59:28.575Z</time></trkpt><trkpt lat="43.4042232" lon="11.4596186"><ele>456.0</ele><time>2026-04-04T10:59:29.574Z</time></trkpt><trkpt lat="43.4042735" lon="11.4594851"><ele>455.75</ele><time>2026-04-04T10:59:30.582Z</time></trkpt><trkpt lat="43.404339" lon="11.4593481"><ele>455.5</ele><time>2026-04-04T10:59:31.581Z</time></trkpt><trkpt lat="43.4044176" lon="11.4592129"><ele>455.25</ele><time>2026-04-04T10:59:32.572Z</time></trkpt><trkpt lat="43.4044958" lon="11.4590972"><ele>455.0</ele><time>2026-04-04T10:59:33.579Z</time></trkpt><trkpt lat="43.4045693" lon="11.4589909"><ele>454.99999999999994</ele><time>2026-04-04T10:59:34.57Z</time></trkpt><trkpt lat="43.404636" lon="11.4589021"><ele>455.0</ele><time>2026-04-04T10:59:35.577Z</time></trkpt><trkpt lat="43.4046897" lon="11.4588311"><ele>455.0</ele><time>2026-04-04T10:59:36.578Z</time></trkpt><trkpt lat="43.4047306" lon="11.4587552"><ele>455.0</ele><time>2026-04-04T10:59:37.584Z</time></trkpt><trkpt lat="43.404763" lon="11.4586802"><ele>454.99999999999994</ele><time>2026-04-04T10:59:38.577Z</time></trkpt><trkpt lat="43.4048007" lon="11.4585368"><ele>455.0</ele><time>2026-04-04T10:59:40.568Z</time></trkpt><trkpt lat="43.4048409" lon="11.4584074"><ele>454.3333333333333</ele><time>2026-04-04T10:59:42.566Z</time></trkpt><trkpt lat="43.4048791" lon="11.4582888"><ele>453.66666666666663</ele><time>2026-04-04T10:59:44.579Z</time></trkpt><trkpt lat="43.4049182" lon="11.4581965"><ele>453.0</ele><time>2026-04-04T10:59:46.578Z</time></trkpt><trkpt lat="43.4049699" lon="11.4581198"><ele>452.33333333333337</ele><time>2026-04-04T10:59:48.571Z</time></trkpt><trkpt lat="43.4050206" lon="11.4580199"><ele>451.6666666666667</ele><time>2026-04-04T10:59:50.586Z</time></trkpt><trkpt lat="43.4050388" lon="11.4578723"><ele>451.0</ele><time>2026-04-04T10:59:52.574Z</time></trkpt><trkpt lat="43.4050339" lon="11.457778"><ele>449.6666666666667</ele><time>2026-04-04T10:59:53.573Z</time></trkpt><trkpt lat="43.4050277" lon="11.4576663"><ele>448.33333333333337</ele><time>2026-04-04T10:59:54.573Z</time></trkpt><trkpt lat="43.4050187" lon="11.4575478"><ele>447.0</ele><time>2026-04-04T10:59:55.581Z</time></trkpt><trkpt lat="43.4050114" lon="11.4574376"><ele>445.66666666666663</ele><time>2026-04-04T10:59:56.582Z</time></trkpt><trkpt lat="43.4050062" lon="11.4573329"><ele>444.3333333333333</ele><time>2026-04-04T10:59:57.575Z</time></trkpt><trkpt lat="43.4049986" lon="11.4572317"><ele>443.0</ele><time>2026-04-04T10:59:58.581Z</time></trkpt><trkpt lat="43.4049865" lon="11.4571348"><ele>441.8333333333333</ele><time>2026-04-04T10:59:59.587Z</time></trkpt><trkpt lat="43.4049676" lon="11.4570378"><ele>440.66666666666663</ele><time>2026-04-04T11:00:00.581Z</time></trkpt><trkpt lat="43.4049399" lon="11.4569454"><ele>439.5</ele><time>2026-04-04T11:00:01.58Z</time></trkpt><trkpt lat="43.4049053" lon="11.4568578"><ele>438.33333333333337</ele><time>2026-04-04T11:00:02.578Z</time></trkpt><trkpt lat="43.4048742" lon="11.4567722"><ele>437.1666666666667</ele><time>2026-04-04T11:00:03.587Z</time></trkpt><trkpt lat="43.4048297" lon="11.4566284"><ele>436.0</ele><time>2026-04-04T11:00:05.581Z</time></trkpt><trkpt lat="43.4048186" lon="11.4565121"><ele>436.00000000000006</ele><time>2026-04-04T11:00:07.584Z</time></trkpt><trkpt lat="43.4048425" lon="11.4564215"><ele>436.0</ele><time>2026-04-04T11:00:09.569Z</time></trkpt><trkpt lat="43.4049305" lon="11.4563673"><ele>436.0</ele><time>2026-04-04T11:00:11.584Z</time></trkpt><trkpt lat="43.4050016" lon="11.4563652"><ele>436.0</ele><time>2026-04-04T11:00:12.571Z</time></trkpt><trkpt lat="43.4050914" lon="11.4563782"><ele>436.00000000000006</ele><time>2026-04-04T11:00:13.584Z</time></trkpt><trkpt lat="43.4051979" lon="11.4563909"><ele>436.0</ele><time>2026-04-04T11:00:14.57Z</time></trkpt><trkpt lat="43.4052893" lon="11.4563974"><ele>436.00000000000006</ele><time>2026-04-04T11:00:15.578Z</time></trkpt><trkpt lat="43.4053743" lon="11.456406"><ele>436.0</ele><time>2026-04-04T11:00:16.573Z</time></trkpt><trkpt lat="43.4054497" lon="11.4564122"><ele>436.0</ele><time>2026-04-04T11:00:17.573Z</time></trkpt><trkpt lat="43.4055197" lon="11.4564097"><ele>436.0</ele><time>2026-04-04T11:00:18.572Z</time></trkpt><trkpt lat="43.4055896" lon="11.4563968"><ele>436.00000000000006</ele><time>2026-04-04T11:00:19.578Z</time></trkpt><trkpt lat="43.4056643" lon="11.4563668"><ele>436.0</ele><time>2026-04-04T11:00:20.571Z</time></trkpt><trkpt lat="43.4057319" lon="11.4563173"><ele>434.0</ele><time>2026-04-04T11:00:21.582Z</time></trkpt><trkpt lat="43.4058045" lon="11.4562432"><ele>432.0</ele><time>2026-04-04T11:00:22.572Z</time></trkpt><trkpt lat="43.4058741" lon="11.4561514"><ele>430.0</ele><time>2026-04-04T11:00:23.587Z</time></trkpt><trkpt lat="43.4059322" lon="11.4560495"><ele>428.0</ele><time>2026-04-04T11:00:24.567Z</time></trkpt><trkpt lat="43.4059816" lon="11.4559389"><ele>426.0</ele><time>2026-04-04T11:00:25.573Z</time></trkpt><trkpt lat="43.4060203" lon="11.4558228"><ele>426.0</ele><time>2026-04-04T11:00:26.572Z</time></trkpt><trkpt lat="43.4060513" lon="11.4556924"><ele>426.0</ele><time>2026-04-04T11:00:27.574Z</time></trkpt><trkpt lat="43.4060766" lon="11.4555453"><ele>426.0</ele><time>2026-04-04T11:00:28.57Z</time></trkpt><trkpt lat="43.4061033" lon="11.4553888"><ele>426.0</ele><time>2026-04-04T11:00:29.574Z</time></trkpt><trkpt lat="43.4061365" lon="11.4552319"><ele>426.0</ele><time>2026-04-04T11:00:30.562Z</time></trkpt><trkpt lat="43.4061659" lon="11.455087"><ele>425.20000000000005</ele><time>2026-04-04T11:00:31.581Z</time></trkpt><trkpt lat="43.4061965" lon="11.454957"><ele>424.40000000000003</ele><time>2026-04-04T11:00:32.578Z</time></trkpt><trkpt lat="43.4062315" lon="11.4548354"><ele>423.6</ele><time>2026-04-04T11:00:33.58Z</time></trkpt><trkpt lat="43.4062823" lon="11.4547099"><ele>422.8</ele><time>2026-04-04T11:00:34.567Z</time></trkpt><trkpt lat="43.4063528" lon="11.4545886"><ele>422.0</ele><time>2026-04-04T11:00:35.583Z</time></trkpt><trkpt lat="43.4064197" lon="11.4544659"><ele>420.0</ele><time>2026-04-04T11:00:36.578Z</time></trkpt><trkpt lat="43.4064721" lon="11.4543329"><ele>418.0</ele><time>2026-04-04T11:00:37.57Z</time></trkpt><trkpt lat="43.4065194" lon="11.4541826"><ele>416.0</ele><time>2026-04-04T11:00:38.573Z</time></trkpt><trkpt lat="43.4065542" lon="11.4540383"><ele>414.0</ele><time>2026-04-04T11:00:39.578Z</time></trkpt><trkpt lat="43.4065702" lon="11.4538994"><ele>412.0</ele><time>2026-04-04T11:00:40.575Z</time></trkpt><trkpt lat="43.4065682" lon="11.4537695"><ele>412.0</ele><time>2026-04-04T11:00:41.577Z</time></trkpt><trkpt lat="43.40655" lon="11.4536444"><ele>412.0</ele><time>2026-04-04T11:00:42.575Z</time></trkpt><trkpt lat="43.4065144" lon="11.4535177"><ele>412.0</ele><time>2026-04-04T11:00:43.577Z</time></trkpt><trkpt lat="43.4064881" lon="11.453396"><ele>412.0</ele><time>2026-04-04T11:00:44.565Z</time></trkpt><trkpt lat="43.4064716" lon="11.4532704"><ele>412.0</ele><time>2026-04-04T11:00:45.582Z</time></trkpt><trkpt lat="43.4064622" lon="11.4531337"><ele>412.0</ele><time>2026-04-04T11:00:46.569Z</time></trkpt><trkpt lat="43.4064678" lon="11.4529953"><ele>412.0</ele><time>2026-04-04T11:00:47.592Z</time></trkpt><trkpt lat="43.4064934" lon="11.452862"><ele>412.0</ele><time>2026-04-04T11:00:48.58Z</time></trkpt><trkpt lat="43.4065111" lon="11.4527109"><ele>412.0</ele><time>2026-04-04T11:00:49.575Z</time></trkpt><trkpt lat="43.4065241" lon="11.452539"><ele>412.0</ele><time>2026-04-04T11:00:50.576Z</time></trkpt><trkpt lat="43.4065334" lon="11.4523722"><ele>411.40000000000003</ele><time>2026-04-04T11:00:51.57Z</time></trkpt><trkpt lat="43.4065325" lon="11.4522144"><ele>410.8</ele><time>2026-04-04T11:00:52.583Z</time></trkpt><trkpt lat="43.4065157" lon="11.4520683"><ele>410.2</ele><time>2026-04-04T11:00:53.584Z</time></trkpt><trkpt lat="43.4064844" lon="11.4519402"><ele>409.6</ele><time>2026-04-04T11:00:54.577Z</time></trkpt><trkpt lat="43.4064453" lon="11.451826"><ele>409.0</ele><time>2026-04-04T11:00:55.575Z</time></trkpt><trkpt lat="43.4063916" lon="11.4517025"><ele>409.5</ele><time>2026-04-04T11:00:56.575Z</time></trkpt><trkpt lat="43.4063302" lon="11.4515714"><ele>410.0</ele><time>2026-04-04T11:00:57.575Z</time></trkpt><trkpt lat="43.4062619" lon="11.4514279"><ele>410.5</ele><time>2026-04-04T11:00:58.572Z</time></trkpt><trkpt lat="43.4061831" lon="11.4512814"><ele>411.0</ele><time>2026-04-04T11:00:59.581Z</time></trkpt><trkpt lat="43.4061117" lon="11.4511475"><ele>411.0</ele><time>2026-04-04T11:01:00.565Z</time></trkpt><trkpt lat="43.4060519" lon="11.4510128"><ele>411.0</ele><time>2026-04-04T11:01:01.572Z</time></trkpt><trkpt lat="43.4060026" lon="11.4508816"><ele>411.0</ele><time>2026-04-04T11:01:02.572Z</time></trkpt><trkpt lat="43.4059585" lon="11.450742"><ele>411.0</ele><time>2026-04-04T11:01:03.573Z</time></trkpt><trkpt lat="43.4059253" lon="11.4506107"><ele>411.0</ele><time>2026-04-04T11:01:04.566Z</time></trkpt><trkpt lat="43.4058902" lon="11.4504821"><ele>410.25</ele><time>2026-04-04T11:01:05.573Z</time></trkpt><trkpt lat="43.4058443" lon="11.4503478"><ele>409.5</ele><time>2026-04-04T11:01:06.576Z</time></trkpt><trkpt lat="43.4057902" lon="11.4501982"><ele>408.75</ele><time>2026-04-04T11:01:07.582Z</time></trkpt><trkpt lat="43.4057282" lon="11.4500426"><ele>408.0</ele><time>2026-04-04T11:01:08.584Z</time></trkpt><trkpt lat="43.4056546" lon="11.4498876"><ele>408.0</ele><time>2026-04-04T11:01:09.574Z</time></trkpt><trkpt lat="43.4055695" lon="11.4497277"><ele>408.0</ele><time>2026-04-04T11:01:10.577Z</time></trkpt><trkpt lat="43.4054787" lon="11.4495704"><ele>408.0</ele><time>2026-04-04T11:01:11.572Z</time></trkpt><trkpt lat="43.4053893" lon="11.4494257"><ele>408.0</ele><time>2026-04-04T11:01:12.576Z</time></trkpt><trkpt lat="43.4053071" lon="11.4492863"><ele>406.8333333333333</ele><time>2026-04-04T11:01:13.582Z</time></trkpt><trkpt lat="43.4052364" lon="11.4491668"><ele>405.66666666666663</ele><time>2026-04-04T11:01:14.572Z</time></trkpt><trkpt lat="43.4051752" lon="11.4490604"><ele>404.5</ele><time>2026-04-04T11:01:15.569Z</time></trkpt><trkpt lat="43.4051228" lon="11.448962"><ele>403.3333333333333</ele><time>2026-04-04T11:01:16.568Z</time></trkpt><trkpt lat="43.4050745" lon="11.4488734"><ele>402.16666666666663</ele><time>2026-04-04T11:01:17.563Z</time></trkpt><trkpt lat="43.4050343" lon="11.4487951"><ele>401.0</ele><time>2026-04-04T11:01:18.567Z</time></trkpt><trkpt lat="43.4049965" lon="11.448723"><ele>400.7142857142857</ele><time>2026-04-04T11:01:19.565Z</time></trkpt><trkpt lat="43.4049541" lon="11.4486483"><ele>400.42857142857144</ele><time>2026-04-04T11:01:20.581Z</time></trkpt><trkpt lat="43.4048963" lon="11.4485897"><ele>400.1428571428571</ele><time>2026-04-04T11:01:21.576Z</time></trkpt><trkpt lat="43.4048329" lon="11.4485242"><ele>399.8571428571429</ele><time>2026-04-04T11:01:22.574Z</time></trkpt><trkpt lat="43.4047683" lon="11.448468"><ele>399.57142857142856</ele><time>2026-04-04T11:01:23.572Z</time></trkpt><trkpt lat="43.40471" lon="11.4484213"><ele>399.2857142857143</ele><time>2026-04-04T11:01:24.579Z</time></trkpt><trkpt lat="43.4046547" lon="11.4483763"><ele>399.0</ele><time>2026-04-04T11:01:25.573Z</time></trkpt><trkpt lat="43.4045971" lon="11.448331"><ele>398.85714285714283</ele><time>2026-04-04T11:01:26.572Z</time></trkpt><trkpt lat="43.4045396" lon="11.4482818"><ele>398.7142857142857</ele><time>2026-04-04T11:01:27.571Z</time></trkpt><trkpt lat="43.4044867" lon="11.4482346"><ele>398.57142857142856</ele><time>2026-04-04T11:01:28.571Z</time></trkpt><trkpt lat="43.4044263" lon="11.4481877"><ele>398.42857142857144</ele><time>2026-04-04T11:01:29.578Z</time></trkpt><trkpt lat="43.4043591" lon="11.4481392"><ele>398.2857142857143</ele><time>2026-04-04T11:01:30.577Z</time></trkpt><trkpt lat="43.4042885" lon="11.4480893"><ele>398.1428571428571</ele><time>2026-04-04T11:01:31.577Z</time></trkpt><trkpt lat="43.4042167" lon="11.4480422"><ele>398.0</ele><time>2026-04-04T11:01:32.57Z</time></trkpt><trkpt lat="43.4041466" lon="11.4479893"><ele>398.16666666666663</ele><time>2026-04-04T11:01:33.57Z</time></trkpt><trkpt lat="43.4040747" lon="11.4479384"><ele>398.3333333333333</ele><time>2026-04-04T11:01:34.577Z</time></trkpt><trkpt lat="43.4040013" lon="11.4478951"><ele>398.5</ele><time>2026-04-04T11:01:35.585Z</time></trkpt><trkpt lat="43.4039278" lon="11.4478558"><ele>398.66666666666663</ele><time>2026-04-04T11:01:36.578Z</time></trkpt><trkpt lat="43.4038553" lon="11.447823"><ele>398.8333333333333</ele><time>2026-04-04T11:01:37.578Z</time></trkpt><trkpt lat="43.4037886" lon="11.4477896"><ele>399.0</ele><time>2026-04-04T11:01:38.576Z</time></trkpt><trkpt lat="43.4037252" lon="11.4477663"><ele>399.0</ele><time>2026-04-04T11:01:39.582Z</time></trkpt><trkpt lat="43.4036618" lon="11.4477352"><ele>399.0</ele><time>2026-04-04T11:01:40.578Z</time></trkpt><trkpt lat="43.4035967" lon="11.4477066"><ele>399.0</ele><time>2026-04-04T11:01:41.587Z</time></trkpt><trkpt lat="43.403534" lon="11.4476805"><ele>399.0</ele><time>2026-04-04T11:01:42.569Z</time></trkpt><trkpt lat="43.4034651" lon="11.4476463"><ele>399.0</ele><time>2026-04-04T11:01:43.588Z</time></trkpt><trkpt lat="43.4033895" lon="11.4476079"><ele>399.0</ele><time>2026-04-04T11:01:44.591Z</time></trkpt><trkpt lat="43.4033031" lon="11.4475609"><ele>399.0</ele><time>2026-04-04T11:01:45.588Z</time></trkpt><trkpt lat="43.4032032" lon="11.4475057"><ele>399.0</ele><time>2026-04-04T11:01:46.572Z</time></trkpt><trkpt lat="43.4030895" lon="11.4474419"><ele>399.0</ele><time>2026-04-04T11:01:47.588Z</time></trkpt><trkpt lat="43.4029659" lon="11.4473708"><ele>399.0</ele><time>2026-04-04T11:01:48.582Z</time></trkpt><trkpt lat="43.402842" lon="11.4473024"><ele>399.0</ele><time>2026-04-04T11:01:49.582Z</time></trkpt><trkpt lat="43.4027132" lon="11.4472386"><ele>399.0</ele><time>2026-04-04T11:01:50.569Z</time></trkpt><trkpt lat="43.4025722" lon="11.4471663"><ele>399.0</ele><time>2026-04-04T11:01:51.579Z</time></trkpt><trkpt lat="43.4024326" lon="11.4470786"><ele>399.0</ele><time>2026-04-04T11:01:52.567Z</time></trkpt><trkpt lat="43.4022937" lon="11.4469785"><ele>395.33333333333337</ele><time>2026-04-04T11:01:53.582Z</time></trkpt><trkpt lat="43.4021567" lon="11.4468696"><ele>391.6666666666667</ele><time>2026-04-04T11:01:54.57Z</time></trkpt><trkpt lat="43.4020281" lon="11.4467621"><ele>388.0</ele><time>2026-04-04T11:01:55.577Z</time></trkpt><trkpt lat="43.4019087" lon="11.4466509"><ele>388.0</ele><time>2026-04-04T11:01:56.567Z</time></trkpt><trkpt lat="43.4017954" lon="11.4465236"><ele>388.0</ele><time>2026-04-04T11:01:57.585Z</time></trkpt><trkpt lat="43.4016839" lon="11.4463874"><ele>388.0</ele><time>2026-04-04T11:01:58.568Z</time></trkpt><trkpt lat="43.4015781" lon="11.4462595"><ele>388.0</ele><time>2026-04-04T11:01:59.584Z</time></trkpt><trkpt lat="43.401473" lon="11.4461235"><ele>388.6666666666667</ele><time>2026-04-04T11:02:00.572Z</time></trkpt><trkpt lat="43.4013645" lon="11.4459649"><ele>389.33333333333337</ele><time>2026-04-04T11:02:01.576Z</time></trkpt><trkpt lat="43.4012575" lon="11.4457922"><ele>390.0</ele><time>2026-04-04T11:02:02.572Z</time></trkpt><trkpt lat="43.4011485" lon="11.4456103"><ele>387.3333333333333</ele><time>2026-04-04T11:02:03.585Z</time></trkpt><trkpt lat="43.4010252" lon="11.4454195"><ele>384.66666666666663</ele><time>2026-04-04T11:02:04.57Z</time></trkpt><trkpt lat="43.4008946" lon="11.4452328"><ele>382.0</ele><time>2026-04-04T11:02:05.584Z</time></trkpt><trkpt lat="43.4007672" lon="11.4450595"><ele>382.0</ele><time>2026-04-04T11:02:06.573Z</time></trkpt><trkpt lat="43.4006456" lon="11.4448916"><ele>382.0</ele><time>2026-04-04T11:02:07.575Z</time></trkpt><trkpt lat="43.400525" lon="11.4447374"><ele>382.0</ele><time>2026-04-04T11:02:08.579Z</time></trkpt><trkpt lat="43.4004057" lon="11.4445926"><ele>380.75</ele><time>2026-04-04T11:02:09.57Z</time></trkpt><trkpt lat="43.4002937" lon="11.4444517"><ele>379.5</ele><time>2026-04-04T11:02:10.577Z</time></trkpt><trkpt lat="43.4001902" lon="11.4443139"><ele>378.25</ele><time>2026-04-04T11:02:11.58Z</time></trkpt><trkpt lat="43.4000938" lon="11.4441816"><ele>377.0</ele><time>2026-04-04T11:02:12.575Z</time></trkpt><trkpt lat="43.4000047" lon="11.4440567"><ele>377.0</ele><time>2026-04-04T11:02:13.566Z</time></trkpt><trkpt lat="43.3999159" lon="11.4439349"><ele>377.0</ele><time>2026-04-04T11:02:14.566Z</time></trkpt><trkpt lat="43.3998178" lon="11.4438222"><ele>377.0</ele><time>2026-04-04T11:02:15.589Z</time></trkpt><trkpt lat="43.3997052" lon="11.4437363"><ele>377.0</ele><time>2026-04-04T11:02:16.588Z</time></trkpt><trkpt lat="43.3995941" lon="11.4436847"><ele>376.8</ele><time>2026-04-04T11:02:17.581Z</time></trkpt><trkpt lat="43.3994892" lon="11.4436368"><ele>376.6</ele><time>2026-04-04T11:02:18.576Z</time></trkpt><trkpt lat="43.3993913" lon="11.4435834"><ele>376.40000000000003</ele><time>2026-04-04T11:02:19.592Z</time></trkpt><trkpt lat="43.399287" lon="11.4435357"><ele>376.20000000000005</ele><time>2026-04-04T11:02:20.574Z</time></trkpt><trkpt lat="43.399178" lon="11.4434929"><ele>376.0</ele><time>2026-04-04T11:02:21.587Z</time></trkpt><trkpt lat="43.3990773" lon="11.4434659"><ele>376.0</ele><time>2026-04-04T11:02:22.578Z</time></trkpt><trkpt lat="43.3989751" lon="11.4434669"><ele>376.0</ele><time>2026-04-04T11:02:23.579Z</time></trkpt><trkpt lat="43.3988572" lon="11.4434839"><ele>376.0</ele><time>2026-04-04T11:02:24.573Z</time></trkpt><trkpt lat="43.3987247" lon="11.4435061"><ele>376.0</ele><time>2026-04-04T11:02:25.584Z</time></trkpt><trkpt lat="43.3985966" lon="11.44353"><ele>376.0</ele><time>2026-04-04T11:02:26.575Z</time></trkpt><trkpt lat="43.3984737" lon="11.4435505"><ele>376.0</ele><time>2026-04-04T11:02:27.587Z</time></trkpt><trkpt lat="43.3983481" lon="11.4435733"><ele>376.0</ele><time>2026-04-04T11:02:28.568Z</time></trkpt><trkpt lat="43.3982477" lon="11.4435972"><ele>376.0</ele><time>2026-04-04T11:02:29.577Z</time></trkpt><trkpt lat="43.3981621" lon="11.4436161"><ele>376.0</ele><time>2026-04-04T11:02:30.583Z</time></trkpt><trkpt lat="43.3980792" lon="11.4436303"><ele>376.0</ele><time>2026-04-04T11:02:31.568Z</time></trkpt><trkpt lat="43.3980034" lon="11.4436437"><ele>376.0</ele><time>2026-04-04T11:02:32.578Z</time></trkpt><trkpt lat="43.3979308" lon="11.4436511"><ele>376.0</ele><time>2026-04-04T11:02:33.584Z</time></trkpt><trkpt lat="43.397853" lon="11.4436377"><ele>376.0</ele><time>2026-04-04T11:02:34.58Z</time></trkpt><trkpt lat="43.3977763" lon="11.4436071"><ele>376.0</ele><time>2026-04-04T11:02:35.587Z</time></trkpt><trkpt lat="43.3976942" lon="11.443573"><ele>376.0</ele><time>2026-04-04T11:02:36.579Z</time></trkpt><trkpt lat="43.3976111" lon="11.4435368"><ele>375.4</ele><time>2026-04-04T11:02:37.578Z</time></trkpt><trkpt lat="43.3975293" lon="11.4435006"><ele>374.8</ele><time>2026-04-04T11:02:38.57Z</time></trkpt><trkpt lat="43.397435" lon="11.4434668"><ele>374.2</ele><time>2026-04-04T11:02:39.58Z</time></trkpt><trkpt lat="43.3973306" lon="11.4434281"><ele>373.59999999999997</ele><time>2026-04-04T11:02:40.575Z</time></trkpt><trkpt lat="43.3972112" lon="11.4433829"><ele>373.0</ele><time>2026-04-04T11:02:41.577Z</time></trkpt><trkpt lat="43.3970765" lon="11.4433366"><ele>372.3333333333333</ele><time>2026-04-04T11:02:42.572Z</time></trkpt><trkpt lat="43.3969299" lon="11.4432799"><ele>371.6666666666667</ele><time>2026-04-04T11:02:43.574Z</time></trkpt><trkpt lat="43.3967734" lon="11.4432153"><ele>371.0</ele><time>2026-04-04T11:02:44.573Z</time></trkpt><trkpt lat="43.3966104" lon="11.4431508"><ele>371.0</ele><time>2026-04-04T11:02:45.571Z</time></trkpt><trkpt lat="43.3964375" lon="11.4430848"><ele>371.0</ele><time>2026-04-04T11:02:46.571Z</time></trkpt><trkpt lat="43.3962595" lon="11.4430166"><ele>371.0</ele><time>2026-04-04T11:02:47.578Z</time></trkpt><trkpt lat="43.396085" lon="11.442944"><ele>369.6666666666667</ele><time>2026-04-04T11:02:48.581Z</time></trkpt><trkpt lat="43.3959196" lon="11.4428747"><ele>368.3333333333333</ele><time>2026-04-04T11:02:49.579Z</time></trkpt><trkpt lat="43.3957603" lon="11.442811"><ele>367.0</ele><time>2026-04-04T11:02:50.579Z</time></trkpt><trkpt lat="43.3956009" lon="11.4427549"><ele>367.3333333333333</ele><time>2026-04-04T11:02:51.578Z</time></trkpt><trkpt lat="43.3954349" lon="11.4427107"><ele>367.6666666666667</ele><time>2026-04-04T11:02:52.571Z</time></trkpt><trkpt lat="43.3952596" lon="11.4426911"><ele>368.0</ele><time>2026-04-04T11:02:53.581Z</time></trkpt><trkpt lat="43.3950798" lon="11.4426913"><ele>368.0</ele><time>2026-04-04T11:02:54.566Z</time></trkpt><trkpt lat="43.3949081" lon="11.4426968"><ele>368.0</ele><time>2026-04-04T11:02:55.577Z</time></trkpt><trkpt lat="43.3947515" lon="11.4427041"><ele>368.0</ele><time>2026-04-04T11:02:56.569Z</time></trkpt><trkpt lat="43.3946061" lon="11.4427051"><ele>368.0</ele><time>2026-04-04T11:02:57.578Z</time></trkpt><trkpt lat="43.3944686" lon="11.4426952"><ele>368.0</ele><time>2026-04-04T11:02:58.592Z</time></trkpt><trkpt lat="43.3943365" lon="11.4426814"><ele>368.0</ele><time>2026-04-04T11:02:59.571Z</time></trkpt><trkpt lat="43.3941991" lon="11.4426637"><ele>368.0</ele><time>2026-04-04T11:03:00.571Z</time></trkpt><trkpt lat="43.394056" lon="11.4426417"><ele>368.0</ele><time>2026-04-04T11:03:01.568Z</time></trkpt><trkpt lat="43.3939064" lon="11.442623"><ele>368.0</ele><time>2026-04-04T11:03:02.574Z</time></trkpt><trkpt lat="43.3937521" lon="11.442599"><ele>368.0</ele><time>2026-04-04T11:03:03.571Z</time></trkpt><trkpt lat="43.3936014" lon="11.4425554"><ele>368.0</ele><time>2026-04-04T11:03:04.574Z</time></trkpt><trkpt lat="43.3934524" lon="11.4424843"><ele>368.0</ele><time>2026-04-04T11:03:05.57Z</time></trkpt><trkpt lat="43.3933034" lon="11.4424099"><ele>368.0</ele><time>2026-04-04T11:03:06.581Z</time></trkpt><trkpt lat="43.3931628" lon="11.4423492"><ele>368.0</ele><time>2026-04-04T11:03:07.581Z</time></trkpt><trkpt lat="43.3930224" lon="11.4423175"><ele>368.0</ele><time>2026-04-04T11:03:08.574Z</time></trkpt><trkpt lat="43.3928748" lon="11.4423144"><ele>368.0</ele><time>2026-04-04T11:03:09.574Z</time></trkpt><trkpt lat="43.3927265" lon="11.4423309"><ele>368.0</ele><time>2026-04-04T11:03:10.574Z</time></trkpt><trkpt lat="43.3925826" lon="11.4423587"><ele>368.33333333333337</ele><time>2026-04-04T11:03:11.572Z</time></trkpt><trkpt lat="43.3924364" lon="11.442411"><ele>368.6666666666667</ele><time>2026-04-04T11:03:12.58Z</time></trkpt><trkpt lat="43.3922892" lon="11.4424891"><ele>369.0</ele><time>2026-04-04T11:03:13.583Z</time></trkpt><trkpt lat="43.3921405" lon="11.4425802"><ele>368.25</ele><time>2026-04-04T11:03:14.572Z</time></trkpt><trkpt lat="43.3920011" lon="11.4426699"><ele>367.5</ele><time>2026-04-04T11:03:15.578Z</time></trkpt><trkpt lat="43.3918665" lon="11.4427509"><ele>366.75</ele><time>2026-04-04T11:03:16.582Z</time></trkpt><trkpt lat="43.3917353" lon="11.4428103"><ele>366.0</ele><time>2026-04-04T11:03:17.582Z</time></trkpt><trkpt lat="43.3915962" lon="11.4428413"><ele>366.0</ele><time>2026-04-04T11:03:18.577Z</time></trkpt><trkpt lat="43.3914542" lon="11.4428453"><ele>366.0</ele><time>2026-04-04T11:03:19.568Z</time></trkpt><trkpt lat="43.3913194" lon="11.4428456"><ele>366.0</ele><time>2026-04-04T11:03:20.581Z</time></trkpt><trkpt lat="43.3911946" lon="11.4428588"><ele>366.0</ele><time>2026-04-04T11:03:21.582Z</time></trkpt><trkpt lat="43.3910683" lon="11.4428845"><ele>366.4</ele><time>2026-04-04T11:03:22.581Z</time></trkpt><trkpt lat="43.3909506" lon="11.4429085"><ele>366.8</ele><time>2026-04-04T11:03:23.575Z</time></trkpt><trkpt lat="43.3908387" lon="11.4429327"><ele>367.2</ele><time>2026-04-04T11:03:24.578Z</time></trkpt><trkpt lat="43.3907337" lon="11.4429521"><ele>367.59999999999997</ele><time>2026-04-04T11:03:25.579Z</time></trkpt><trkpt lat="43.3906398" lon="11.4429602"><ele>368.0</ele><time>2026-04-04T11:03:26.581Z</time></trkpt><trkpt lat="43.3905689" lon="11.4429606"><ele>367.5</ele><time>2026-04-04T11:03:27.577Z</time></trkpt><trkpt lat="43.3904885" lon="11.4429496"><ele>367.0</ele><time>2026-04-04T11:03:29.581Z</time></trkpt><trkpt lat="43.3904192" lon="11.4429359"><ele>366.5</ele><time>2026-04-04T11:03:38.583Z</time></trkpt><trkpt lat="43.3903478" lon="11.4429286"><ele>366.0</ele><time>2026-04-04T11:03:39.576Z</time></trkpt><trkpt lat="43.3902697" lon="11.442925"><ele>365.5</ele><time>2026-04-04T11:03:40.584Z</time></trkpt><trkpt lat="43.3901898" lon="11.4429147"><ele>365.0</ele><time>2026-04-04T11:03:41.573Z</time></trkpt><trkpt lat="43.3900948" lon="11.4429003"><ele>365.0</ele><time>2026-04-04T11:03:42.579Z</time></trkpt><trkpt lat="43.3899898" lon="11.4428689"><ele>365.0</ele><time>2026-04-04T11:03:43.59Z</time></trkpt><trkpt lat="43.3898922" lon="11.4428094"><ele>365.0</ele><time>2026-04-04T11:03:44.585Z</time></trkpt><trkpt lat="43.3898134" lon="11.4427248"><ele>365.0</ele><time>2026-04-04T11:03:45.577Z</time></trkpt><trkpt lat="43.3897454" lon="11.4426082"><ele>365.0</ele><time>2026-04-04T11:03:46.573Z</time></trkpt><trkpt lat="43.3896894" lon="11.4424682"><ele>363.4</ele><time>2026-04-04T11:03:47.581Z</time></trkpt><trkpt lat="43.3896319" lon="11.442319"><ele>361.8</ele><time>2026-04-04T11:03:48.578Z</time></trkpt><trkpt lat="43.3895641" lon="11.4421995"><ele>360.20000000000005</ele><time>2026-04-04T11:03:49.591Z</time></trkpt><trkpt lat="43.3894992" lon="11.4420879"><ele>358.6</ele><time>2026-04-04T11:03:50.573Z</time></trkpt><trkpt lat="43.3894407" lon="11.4419842"><ele>357.0</ele><time>2026-04-04T11:03:51.578Z</time></trkpt><trkpt lat="43.3893818" lon="11.4418883"><ele>357.0</ele><time>2026-04-04T11:03:52.579Z</time></trkpt><trkpt lat="43.3893262" lon="11.4417947"><ele>357.0</ele><time>2026-04-04T11:03:53.573Z</time></trkpt><trkpt lat="43.3892907" lon="11.4416971"><ele>357.0</ele><time>2026-04-04T11:03:54.578Z</time></trkpt><trkpt lat="43.3892586" lon="11.4416129"><ele>357.0</ele><time>2026-04-04T11:03:55.571Z</time></trkpt><trkpt lat="43.3892236" lon="11.4415339"><ele>357.0</ele><time>2026-04-04T11:03:56.584Z</time></trkpt><trkpt lat="43.3891447" lon="11.4414055"><ele>357.0</ele><time>2026-04-04T11:03:58.578Z</time></trkpt><trkpt lat="43.3890565" lon="11.4413003"><ele>356.25</ele><time>2026-04-04T11:04:00.582Z</time></trkpt><trkpt lat="43.3889718" lon="11.4411936"><ele>355.5</ele><time>2026-04-04T11:04:02.58Z</time></trkpt><trkpt lat="43.3888923" lon="11.4410772"><ele>354.75</ele><time>2026-04-04T11:04:04.592Z</time></trkpt><trkpt lat="43.3888108" lon="11.4409634"><ele>354.0</ele><time>2026-04-04T11:04:06.579Z</time></trkpt><trkpt lat="43.3887277" lon="11.4408722"><ele>354.0</ele><time>2026-04-04T11:04:08.567Z</time></trkpt><trkpt lat="43.3886522" lon="11.4407677"><ele>354.0</ele><time>2026-04-04T11:04:10.58Z</time></trkpt><trkpt lat="43.3885982" lon="11.4406999"><ele>354.0</ele><time>2026-04-04T11:04:11.579Z</time></trkpt><trkpt lat="43.3885327" lon="11.4406054"><ele>354.0</ele><time>2026-04-04T11:04:12.59Z</time></trkpt><trkpt lat="43.3884549" lon="11.4404973"><ele>354.0</ele><time>2026-04-04T11:04:13.564Z</time></trkpt><trkpt lat="43.3883717" lon="11.4403898"><ele>352.2</ele><time>2026-04-04T11:04:14.574Z</time></trkpt><trkpt lat="43.3882838" lon="11.4402737"><ele>350.4</ele><time>2026-04-04T11:04:15.575Z</time></trkpt><trkpt lat="43.3882084" lon="11.4401625"><ele>348.6</ele><time>2026-04-04T11:04:16.577Z</time></trkpt><trkpt lat="43.3881397" lon="11.4400546"><ele>346.8</ele><time>2026-04-04T11:04:17.572Z</time></trkpt><trkpt lat="43.388074" lon="11.4399518"><ele>345.0</ele><time>2026-04-04T11:04:18.575Z</time></trkpt><trkpt lat="43.3880121" lon="11.4398558"><ele>345.1666666666667</ele><time>2026-04-04T11:04:19.572Z</time></trkpt><trkpt lat="43.3879579" lon="11.4397634"><ele>345.3333333333333</ele><time>2026-04-04T11:04:20.575Z</time></trkpt><trkpt lat="43.3879102" lon="11.4396706"><ele>345.5</ele><time>2026-04-04T11:04:21.574Z</time></trkpt><trkpt lat="43.387849" lon="11.4395664"><ele>345.66666666666663</ele><time>2026-04-04T11:04:22.57Z</time></trkpt><trkpt lat="43.3877941" lon="11.4394686"><ele>345.8333333333333</ele><time>2026-04-04T11:04:23.578Z</time></trkpt><trkpt lat="43.3877395" lon="11.439385"><ele>346.0</ele><time>2026-04-04T11:04:24.569Z</time></trkpt><trkpt lat="43.3876874" lon="11.439301"><ele>345.3333333333333</ele><time>2026-04-04T11:04:25.575Z</time></trkpt><trkpt lat="43.3876284" lon="11.4392223"><ele>344.66666666666663</ele><time>2026-04-04T11:04:26.574Z</time></trkpt><trkpt lat="43.3875646" lon="11.4391453"><ele>344.0</ele><time>2026-04-04T11:04:27.578Z</time></trkpt><trkpt lat="43.3875079" lon="11.4390803"><ele>343.3333333333333</ele><time>2026-04-04T11:04:28.577Z</time></trkpt><trkpt lat="43.3874556" lon="11.4390171"><ele>342.6666666666667</ele><time>2026-04-04T11:04:29.57Z</time></trkpt><trkpt lat="43.3873685" lon="11.438891"><ele>342.0</ele><time>2026-04-04T11:04:31.566Z</time></trkpt><trkpt lat="43.3873251" lon="11.4388183"><ele>342.1666666666667</ele><time>2026-04-04T11:04:32.58Z</time></trkpt><trkpt lat="43.3872543" lon="11.4386886"><ele>342.3333333333333</ele><time>2026-04-04T11:04:34.573Z</time></trkpt><trkpt lat="43.3872166" lon="11.4386114"><ele>342.5</ele><time>2026-04-04T11:04:35.576Z</time></trkpt><trkpt lat="43.3871768" lon="11.4385173"><ele>342.66666666666663</ele><time>2026-04-04T11:04:36.572Z</time></trkpt><trkpt lat="43.3871399" lon="11.4384108"><ele>342.8333333333333</ele><time>2026-04-04T11:04:37.579Z</time></trkpt><trkpt lat="43.3871064" lon="11.4382932"><ele>343.0</ele><time>2026-04-04T11:04:38.583Z</time></trkpt><trkpt lat="43.3870715" lon="11.4381678"><ele>343.0</ele><time>2026-04-04T11:04:39.57Z</time></trkpt><trkpt lat="43.387041" lon="11.4380386"><ele>343.0</ele><time>2026-04-04T11:04:40.576Z</time></trkpt><trkpt lat="43.3870061" lon="11.4379044"><ele>343.0</ele><time>2026-04-04T11:04:41.567Z</time></trkpt><trkpt lat="43.3869699" lon="11.4377674"><ele>343.0</ele><time>2026-04-04T11:04:42.582Z</time></trkpt><trkpt lat="43.3869343" lon="11.4376357"><ele>343.0</ele><time>2026-04-04T11:04:43.584Z</time></trkpt><trkpt lat="43.3869006" lon="11.4375148"><ele>343.2</ele><time>2026-04-04T11:04:44.579Z</time></trkpt><trkpt lat="43.386866" lon="11.4373946"><ele>343.4</ele><time>2026-04-04T11:04:45.57Z</time></trkpt><trkpt lat="43.386833" lon="11.4372756"><ele>343.59999999999997</ele><time>2026-04-04T11:04:46.574Z</time></trkpt><trkpt lat="43.3867882" lon="11.4371604"><ele>343.79999999999995</ele><time>2026-04-04T11:04:47.574Z</time></trkpt><trkpt lat="43.3867281" lon="11.4370502"><ele>344.0</ele><time>2026-04-04T11:04:48.575Z</time></trkpt><trkpt lat="43.3866557" lon="11.4369478"><ele>342.75</ele><time>2026-04-04T11:04:49.574Z</time></trkpt><trkpt lat="43.3865668" lon="11.4368475"><ele>341.5</ele><time>2026-04-04T11:04:50.582Z</time></trkpt><trkpt lat="43.3864692" lon="11.4367349"><ele>340.25</ele><time>2026-04-04T11:04:51.589Z</time></trkpt><trkpt lat="43.3863681" lon="11.4366137"><ele>339.0</ele><time>2026-04-04T11:04:52.58Z</time></trkpt><trkpt lat="43.3862735" lon="11.4365061"><ele>339.0</ele><time>2026-04-04T11:04:53.566Z</time></trkpt><trkpt lat="43.386181" lon="11.4363997"><ele>339.0</ele><time>2026-04-04T11:04:54.581Z</time></trkpt><trkpt lat="43.386094" lon="11.4362859"><ele>339.0</ele><time>2026-04-04T11:04:55.569Z</time></trkpt><trkpt lat="43.3860157" lon="11.436166"><ele>339.0</ele><time>2026-04-04T11:04:56.582Z</time></trkpt><trkpt lat="43.3859422" lon="11.4360599"><ele>338.4</ele><time>2026-04-04T11:04:57.575Z</time></trkpt><trkpt lat="43.3858655" lon="11.4359724"><ele>337.79999999999995</ele><time>2026-04-04T11:04:58.584Z</time></trkpt><trkpt lat="43.3857794" lon="11.4358973"><ele>337.20000000000005</ele><time>2026-04-04T11:04:59.576Z</time></trkpt><trkpt lat="43.3856961" lon="11.4358337"><ele>336.6</ele><time>2026-04-04T11:05:00.579Z</time></trkpt><trkpt lat="43.3856143" lon="11.4357671"><ele>336.0</ele><time>2026-04-04T11:05:01.583Z</time></trkpt><trkpt lat="43.3855282" lon="11.4356923"><ele>335.1666666666667</ele><time>2026-04-04T11:05:02.577Z</time></trkpt><trkpt lat="43.3854518" lon="11.4356207"><ele>334.3333333333333</ele><time>2026-04-04T11:05:03.574Z</time></trkpt><trkpt lat="43.3853815" lon="11.4355567"><ele>333.5</ele><time>2026-04-04T11:05:04.583Z</time></trkpt><trkpt lat="43.3853212" lon="11.4355026"><ele>332.66666666666663</ele><time>2026-04-04T11:05:05.573Z</time></trkpt><trkpt lat="43.3852525" lon="11.4354073"><ele>331.8333333333333</ele><time>2026-04-04T11:05:07.571Z</time></trkpt><trkpt lat="43.385185" lon="11.4353301"><ele>331.0</ele><time>2026-04-04T11:05:09.581Z</time></trkpt><trkpt lat="43.3851004" lon="11.4352625"><ele>330.6</ele><time>2026-04-04T11:05:11.569Z</time></trkpt><trkpt lat="43.384994" lon="11.4351871"><ele>330.20000000000005</ele><time>2026-04-04T11:05:13.586Z</time></trkpt><trkpt lat="43.3849178" lon="11.4351518"><ele>329.79999999999995</ele><time>2026-04-04T11:05:14.57Z</time></trkpt><trkpt lat="43.3848333" lon="11.4351262"><ele>329.4</ele><time>2026-04-04T11:05:15.583Z</time></trkpt><trkpt lat="43.384739" lon="11.4351042"><ele>329.0</ele><time>2026-04-04T11:05:16.586Z</time></trkpt><trkpt lat="43.3846554" lon="11.4350823"><ele>328.42857142857144</ele><time>2026-04-04T11:05:17.573Z</time></trkpt><trkpt lat="43.3845789" lon="11.4350608"><ele>327.8571428571429</ele><time>2026-04-04T11:05:18.578Z</time></trkpt><trkpt lat="43.3845093" lon="11.4350435"><ele>327.2857142857143</ele><time>2026-04-04T11:05:19.589Z</time></trkpt><trkpt lat="43.3844445" lon="11.4350295"><ele>326.7142857142857</ele><time>2026-04-04T11:05:20.587Z</time></trkpt><trkpt lat="43.3843808" lon="11.4350066"><ele>326.14285714285717</ele><time>2026-04-04T11:05:21.573Z</time></trkpt><trkpt lat="43.3843105" lon="11.4349933"><ele>325.57142857142856</ele><time>2026-04-04T11:05:22.579Z</time></trkpt><trkpt lat="43.3842323" lon="11.4349645"><ele>325.0</ele><time>2026-04-04T11:05:23.573Z</time></trkpt><trkpt lat="43.3841457" lon="11.4349334"><ele>325.0</ele><time>2026-04-04T11:05:24.574Z</time></trkpt><trkpt lat="43.384063" lon="11.4349089"><ele>325.0</ele><time>2026-04-04T11:05:25.573Z</time></trkpt><trkpt lat="43.3839748" lon="11.4348825"><ele>325.0</ele><time>2026-04-04T11:05:26.576Z</time></trkpt><trkpt lat="43.3838714" lon="11.4348536"><ele>325.0</ele><time>2026-04-04T11:05:27.569Z</time></trkpt><trkpt lat="43.3837689" lon="11.4348137"><ele>325.0</ele><time>2026-04-04T11:05:28.582Z</time></trkpt><trkpt lat="43.383677" lon="11.4347719"><ele>324.8</ele><time>2026-04-04T11:05:29.588Z</time></trkpt><trkpt lat="43.3835928" lon="11.4347271"><ele>324.6</ele><time>2026-04-04T11:05:30.574Z</time></trkpt><trkpt lat="43.3835032" lon="11.4346734"><ele>324.4</ele><time>2026-04-04T11:05:31.573Z</time></trkpt><trkpt lat="43.3834148" lon="11.4346123"><ele>324.2</ele><time>2026-04-04T11:05:32.58Z</time></trkpt><trkpt lat="43.3833385" lon="11.4345371"><ele>324.0</ele><time>2026-04-04T11:05:33.583Z</time></trkpt><trkpt lat="43.3832567" lon="11.4344587"><ele>324.5</ele><time>2026-04-04T11:05:34.579Z</time></trkpt><trkpt lat="43.3831781" lon="11.4343741"><ele>325.0</ele><time>2026-04-04T11:05:35.578Z</time></trkpt><trkpt lat="43.3831092" lon="11.434288"><ele>325.5</ele><time>2026-04-04T11:05:36.578Z</time></trkpt><trkpt lat="43.3830515" lon="11.4342043"><ele>326.0</ele><time>2026-04-04T11:05:37.571Z</time></trkpt><trkpt lat="43.3829995" lon="11.4341115"><ele>326.5</ele><time>2026-04-04T11:05:38.576Z</time></trkpt><trkpt lat="43.3829614" lon="11.4340115"><ele>327.0</ele><time>2026-04-04T11:05:39.593Z</time></trkpt><trkpt lat="43.3829317" lon="11.4339218"><ele>327.0</ele><time>2026-04-04T11:05:40.566Z</time></trkpt><trkpt lat="43.3828951" lon="11.4338395"><ele>327.0</ele><time>2026-04-04T11:05:41.576Z</time></trkpt><trkpt lat="43.3828269" lon="11.4337548"><ele>327.0</ele><time>2026-04-04T11:05:43.577Z</time></trkpt><trkpt lat="43.3827527" lon="11.4337943"><ele>327.0</ele><time>2026-04-04T11:05:46.585Z</time></trkpt><trkpt lat="43.3827014" lon="11.4338958"><ele>327.0</ele><time>2026-04-04T11:05:48.581Z</time></trkpt><trkpt lat="43.3826405" lon="11.434023"><ele>327.0</ele><time>2026-04-04T11:05:50.587Z</time></trkpt><trkpt lat="43.3825853" lon="11.434096"><ele>327.0</ele><time>2026-04-04T11:05:52.577Z</time></trkpt><trkpt lat="43.3824834" lon="11.4341001"><ele>327.0</ele><time>2026-04-04T11:05:54.569Z</time></trkpt><trkpt lat="43.3824171" lon="11.434062"><ele>327.0</ele><time>2026-04-04T11:05:55.575Z</time></trkpt><trkpt lat="43.3823477" lon="11.4340444"><ele>327.0</ele><time>2026-04-04T11:05:56.579Z</time></trkpt><trkpt lat="43.3822838" lon="11.434037"><ele>327.0</ele><time>2026-04-04T11:05:57.57Z</time></trkpt><trkpt lat="43.3822123" lon="11.4340297"><ele>327.0</ele><time>2026-04-04T11:05:58.568Z</time></trkpt><trkpt lat="43.3821358" lon="11.4340179"><ele>326.6666666666667</ele><time>2026-04-04T11:05:59.569Z</time></trkpt><trkpt lat="43.3820536" lon="11.4340045"><ele>326.3333333333333</ele><time>2026-04-04T11:06:00.571Z</time></trkpt><trkpt lat="43.3819719" lon="11.4339953"><ele>326.0</ele><time>2026-04-04T11:06:01.571Z</time></trkpt><trkpt lat="43.3818988" lon="11.4339875"><ele>325.66666666666663</ele><time>2026-04-04T11:06:02.571Z</time></trkpt><trkpt lat="43.3818181" lon="11.4339723"><ele>325.3333333333333</ele><time>2026-04-04T11:06:03.577Z</time></trkpt><trkpt lat="43.3817324" lon="11.4339441"><ele>325.0</ele><time>2026-04-04T11:06:04.572Z</time></trkpt><trkpt lat="43.3816373" lon="11.4338951"><ele>325.0</ele><time>2026-04-04T11:06:05.577Z</time></trkpt><trkpt lat="43.3815249" lon="11.4338219"><ele>325.0</ele><time>2026-04-04T11:06:06.574Z</time></trkpt><trkpt lat="43.3813924" lon="11.4337399"><ele>325.0</ele><time>2026-04-04T11:06:07.583Z</time></trkpt><trkpt lat="43.381262" lon="11.4336633"><ele>325.0</ele><time>2026-04-04T11:06:08.58Z</time></trkpt><trkpt lat="43.3811401" lon="11.4335754"><ele>323.0</ele><time>2026-04-04T11:06:09.579Z</time></trkpt><trkpt lat="43.3810308" lon="11.433466"><ele>321.0</ele><time>2026-04-04T11:06:10.573Z</time></trkpt><trkpt lat="43.3809361" lon="11.4333468"><ele>319.0</ele><time>2026-04-04T11:06:11.579Z</time></trkpt><trkpt lat="43.3808527" lon="11.4332241"><ele>317.0</ele><time>2026-04-04T11:06:12.575Z</time></trkpt><trkpt lat="43.3807851" lon="11.433096"><ele>317.0</ele><time>2026-04-04T11:06:13.576Z</time></trkpt><trkpt lat="43.3807262" lon="11.4329747"><ele>317.0</ele><time>2026-04-04T11:06:14.577Z</time></trkpt><trkpt lat="43.3806585" lon="11.4328739"><ele>317.0</ele><time>2026-04-04T11:06:15.577Z</time></trkpt><trkpt lat="43.3805783" lon="11.4327989"><ele>317.0</ele><time>2026-04-04T11:06:16.568Z</time></trkpt><trkpt lat="43.38049" lon="11.4327423"><ele>317.0</ele><time>2026-04-04T11:06:17.575Z</time></trkpt><trkpt lat="43.3804035" lon="11.4327108"><ele>317.6666666666667</ele><time>2026-04-04T11:06:18.578Z</time></trkpt><trkpt lat="43.3803128" lon="11.4326818"><ele>318.33333333333337</ele><time>2026-04-04T11:06:19.578Z</time></trkpt><trkpt lat="43.3802287" lon="11.4326552"><ele>319.0</ele><time>2026-04-04T11:06:20.578Z</time></trkpt><trkpt lat="43.3801429" lon="11.4326352"><ele>319.6666666666667</ele><time>2026-04-04T11:06:21.589Z</time></trkpt><trkpt lat="43.3800562" lon="11.4326296"><ele>320.3333333333333</ele><time>2026-04-04T11:06:22.575Z</time></trkpt><trkpt lat="43.3799626" lon="11.4326128"><ele>321.0</ele><time>2026-04-04T11:06:23.571Z</time></trkpt><trkpt lat="43.3798639" lon="11.4325936"><ele>321.0</ele><time>2026-04-04T11:06:24.576Z</time></trkpt><trkpt lat="43.3797632" lon="11.4325678"><ele>321.0</ele><time>2026-04-04T11:06:25.579Z</time></trkpt><trkpt lat="43.3796607" lon="11.4325342"><ele>321.0</ele><time>2026-04-04T11:06:26.573Z</time></trkpt><trkpt lat="43.3795627" lon="11.4324981"><ele>321.0</ele><time>2026-04-04T11:06:27.582Z</time></trkpt><trkpt lat="43.3794759" lon="11.4324616"><ele>321.0</ele><time>2026-04-04T11:06:28.579Z</time></trkpt><trkpt lat="43.3793943" lon="11.4324199"><ele>320.40000000000003</ele><time>2026-04-04T11:06:29.576Z</time></trkpt><trkpt lat="43.379305" lon="11.4323723"><ele>319.8</ele><time>2026-04-04T11:06:30.571Z</time></trkpt><trkpt lat="43.379209" lon="11.4323276"><ele>319.20000000000005</ele><time>2026-04-04T11:06:31.571Z</time></trkpt><trkpt lat="43.3791062" lon="11.4322827"><ele>318.6</ele><time>2026-04-04T11:06:32.578Z</time></trkpt><trkpt lat="43.3789964" lon="11.4322355"><ele>318.0</ele><time>2026-04-04T11:06:33.576Z</time></trkpt><trkpt lat="43.3788797" lon="11.4321815"><ele>317.75</ele><time>2026-04-04T11:06:34.581Z</time></trkpt><trkpt lat="43.3787545" lon="11.4321202"><ele>317.5</ele><time>2026-04-04T11:06:35.572Z</time></trkpt><trkpt lat="43.3786198" lon="11.4320505"><ele>317.25</ele><time>2026-04-04T11:06:36.579Z</time></trkpt><trkpt lat="43.3784865" lon="11.4319826"><ele>317.0</ele><time>2026-04-04T11:06:37.583Z</time></trkpt><trkpt lat="43.378365" lon="11.4319215"><ele>317.0</ele><time>2026-04-04T11:06:38.571Z</time></trkpt><trkpt lat="43.3782497" lon="11.4318592"><ele>317.0</ele><time>2026-04-04T11:06:39.574Z</time></trkpt><trkpt lat="43.378133" lon="11.4317944"><ele>317.0</ele><time>2026-04-04T11:06:40.576Z</time></trkpt><trkpt lat="43.378012" lon="11.4317354"><ele>317.0</ele><time>2026-04-04T11:06:41.575Z</time></trkpt><trkpt lat="43.3778832" lon="11.4316721"><ele>317.5</ele><time>2026-04-04T11:06:42.577Z</time></trkpt><trkpt lat="43.3777501" lon="11.431605"><ele>318.0</ele><time>2026-04-04T11:06:43.573Z</time></trkpt><trkpt lat="43.3776206" lon="11.4315374"><ele>318.5</ele><time>2026-04-04T11:06:44.575Z</time></trkpt><trkpt lat="43.3774963" lon="11.4314835"><ele>319.0</ele><time>2026-04-04T11:06:45.578Z</time></trkpt><trkpt lat="43.3773769" lon="11.431443"><ele>319.0</ele><time>2026-04-04T11:06:46.575Z</time></trkpt><trkpt lat="43.3772552" lon="11.4314114"><ele>319.0</ele><time>2026-04-04T11:06:47.565Z</time></trkpt><trkpt lat="43.3771269" lon="11.4313827"><ele>319.0</ele><time>2026-04-04T11:06:48.582Z</time></trkpt><trkpt lat="43.3769923" lon="11.4313628"><ele>319.0</ele><time>2026-04-04T11:06:49.584Z</time></trkpt><trkpt lat="43.3768617" lon="11.4313463"><ele>318.25</ele><time>2026-04-04T11:06:50.577Z</time></trkpt><trkpt lat="43.3767381" lon="11.4313297"><ele>317.5</ele><time>2026-04-04T11:06:51.577Z</time></trkpt><trkpt lat="43.3766181" lon="11.4313123"><ele>316.75</ele><time>2026-04-04T11:06:52.579Z</time></trkpt><trkpt lat="43.3765042" lon="11.4312968"><ele>316.0</ele><time>2026-04-04T11:06:53.577Z</time></trkpt><trkpt lat="43.3763934" lon="11.4312845"><ele>315.25</ele><time>2026-04-04T11:06:54.578Z</time></trkpt><trkpt lat="43.3762775" lon="11.4312682"><ele>314.5</ele><time>2026-04-04T11:06:55.58Z</time></trkpt><trkpt lat="43.3761598" lon="11.4312434"><ele>313.75</ele><time>2026-04-04T11:06:56.575Z</time></trkpt><trkpt lat="43.3760345" lon="11.4312211"><ele>313.0</ele><time>2026-04-04T11:06:57.577Z</time></trkpt><trkpt lat="43.3759039" lon="11.4311819"><ele>313.0</ele><time>2026-04-04T11:06:58.581Z</time></trkpt><trkpt lat="43.3757668" lon="11.4311085"><ele>313.0</ele><time>2026-04-04T11:06:59.568Z</time></trkpt><trkpt lat="43.3756282" lon="11.4310206"><ele>313.0</ele><time>2026-04-04T11:07:00.58Z</time></trkpt><trkpt lat="43.3754723" lon="11.4309133"><ele>310.0</ele><time>2026-04-04T11:07:01.576Z</time></trkpt><trkpt lat="43.3753094" lon="11.4307896"><ele>307.0</ele><time>2026-04-04T11:07:02.581Z</time></trkpt><trkpt lat="43.3751368" lon="11.4306694"><ele>304.0</ele><time>2026-04-04T11:07:03.577Z</time></trkpt><trkpt lat="43.3749687" lon="11.4305795"><ele>304.0</ele><time>2026-04-04T11:07:04.583Z</time></trkpt><trkpt lat="43.374808" lon="11.4305026"><ele>304.0</ele><time>2026-04-04T11:07:05.572Z</time></trkpt><trkpt lat="43.3746546" lon="11.4304431"><ele>304.0</ele><time>2026-04-04T11:07:06.586Z</time></trkpt><trkpt lat="43.3745068" lon="11.430393"><ele>304.25</ele><time>2026-04-04T11:07:07.583Z</time></trkpt><trkpt lat="43.3743652" lon="11.4303415"><ele>304.5</ele><time>2026-04-04T11:07:08.592Z</time></trkpt><trkpt lat="43.3742296" lon="11.4302991"><ele>304.75</ele><time>2026-04-04T11:07:09.576Z</time></trkpt><trkpt lat="43.3741012" lon="11.4302541"><ele>305.0</ele><time>2026-04-04T11:07:10.585Z</time></trkpt><trkpt lat="43.3739741" lon="11.4302056"><ele>304.6666666666667</ele><time>2026-04-04T11:07:11.572Z</time></trkpt><trkpt lat="43.3738387" lon="11.4301541"><ele>304.3333333333333</ele><time>2026-04-04T11:07:12.57Z</time></trkpt><trkpt lat="43.373694" lon="11.4300868"><ele>304.0</ele><time>2026-04-04T11:07:13.586Z</time></trkpt><trkpt lat="43.3735406" lon="11.4300069"><ele>304.0</ele><time>2026-04-04T11:07:14.576Z</time></trkpt><trkpt lat="43.3733813" lon="11.4299201"><ele>304.0</ele><time>2026-04-04T11:07:15.575Z</time></trkpt><trkpt lat="43.3732092" lon="11.4298244"><ele>304.0</ele><time>2026-04-04T11:07:16.578Z</time></trkpt><trkpt lat="43.3730295" lon="11.4297198"><ele>301.66666666666663</ele><time>2026-04-04T11:07:17.578Z</time></trkpt><trkpt lat="43.3728363" lon="11.4296075"><ele>299.3333333333333</ele><time>2026-04-04T11:07:18.578Z</time></trkpt><trkpt lat="43.3726339" lon="11.429494"><ele>297.0</ele><time>2026-04-04T11:07:19.569Z</time></trkpt><trkpt lat="43.3724239" lon="11.4293782"><ele>297.0</ele><time>2026-04-04T11:07:20.578Z</time></trkpt><trkpt lat="43.372201" lon="11.4292564"><ele>297.0</ele><time>2026-04-04T11:07:21.573Z</time></trkpt><trkpt lat="43.3719883" lon="11.4291394"><ele>295.6666666666667</ele><time>2026-04-04T11:07:22.582Z</time></trkpt><trkpt lat="43.371791" lon="11.4290213"><ele>294.33333333333337</ele><time>2026-04-04T11:07:23.576Z</time></trkpt><trkpt lat="43.3716018" lon="11.4289155"><ele>293.0</ele><time>2026-04-04T11:07:24.574Z</time></trkpt><trkpt lat="43.3714205" lon="11.4288308"><ele>293.33333333333337</ele><time>2026-04-04T11:07:25.573Z</time></trkpt><trkpt lat="43.3712468" lon="11.4287713"><ele>293.6666666666667</ele><time>2026-04-04T11:07:26.574Z</time></trkpt><trkpt lat="43.3710799" lon="11.428723"><ele>294.0</ele><time>2026-04-04T11:07:27.572Z</time></trkpt><trkpt lat="43.3709206" lon="11.4286866"><ele>294.0</ele><time>2026-04-04T11:07:28.578Z</time></trkpt><trkpt lat="43.3707673" lon="11.4286625"><ele>294.0</ele><time>2026-04-04T11:07:29.572Z</time></trkpt><trkpt lat="43.3706209" lon="11.4286491"><ele>294.0</ele><time>2026-04-04T11:07:30.581Z</time></trkpt><trkpt lat="43.3704744" lon="11.4286349"><ele>294.0</ele><time>2026-04-04T11:07:31.577Z</time></trkpt><trkpt lat="43.3703228" lon="11.4286162"><ele>291.6666666666667</ele><time>2026-04-04T11:07:32.588Z</time></trkpt><trkpt lat="43.3701647" lon="11.4285985"><ele>289.33333333333337</ele><time>2026-04-04T11:07:33.572Z</time></trkpt><trkpt lat="43.3700044" lon="11.4285765"><ele>287.0</ele><time>2026-04-04T11:07:34.578Z</time></trkpt><trkpt lat="43.369841" lon="11.4285505"><ele>285.33333333333337</ele><time>2026-04-04T11:07:35.566Z</time></trkpt><trkpt lat="43.369674" lon="11.4285247"><ele>283.6666666666667</ele><time>2026-04-04T11:07:36.571Z</time></trkpt><trkpt lat="43.3695047" lon="11.428509"><ele>282.0</ele><time>2026-04-04T11:07:37.58Z</time></trkpt><trkpt lat="43.3693434" lon="11.4285027"><ele>282.0</ele><time>2026-04-04T11:07:38.576Z</time></trkpt><trkpt lat="43.3692028" lon="11.4285"><ele>282.0</ele><time>2026-04-04T11:07:39.583Z</time></trkpt><trkpt lat="43.3690765" lon="11.4284932"><ele>282.0</ele><time>2026-04-04T11:07:40.577Z</time></trkpt><trkpt lat="43.3689548" lon="11.4284833"><ele>282.0</ele><time>2026-04-04T11:07:41.576Z</time></trkpt><trkpt lat="43.3688258" lon="11.4284539"><ele>282.5</ele><time>2026-04-04T11:07:42.578Z</time></trkpt><trkpt lat="43.368701" lon="11.4284065"><ele>283.0</ele><time>2026-04-04T11:07:43.58Z</time></trkpt><trkpt lat="43.3685876" lon="11.4283449"><ele>283.5</ele><time>2026-04-04T11:07:44.579Z</time></trkpt><trkpt lat="43.3684783" lon="11.4282662"><ele>284.0</ele><time>2026-04-04T11:07:45.573Z</time></trkpt><trkpt lat="43.3683735" lon="11.4281672"><ele>284.0</ele><time>2026-04-04T11:07:46.586Z</time></trkpt><trkpt lat="43.3682769" lon="11.4280528"><ele>284.0</ele><time>2026-04-04T11:07:47.57Z</time></trkpt><trkpt lat="43.3682001" lon="11.4279322"><ele>284.0</ele><time>2026-04-04T11:07:48.578Z</time></trkpt><trkpt lat="43.3681412" lon="11.427801"><ele>284.0</ele><time>2026-04-04T11:07:49.568Z</time></trkpt><trkpt lat="43.3680976" lon="11.4276714"><ele>284.0</ele><time>2026-04-04T11:07:50.577Z</time></trkpt><trkpt lat="43.3680643" lon="11.4275489"><ele>284.0</ele><time>2026-04-04T11:07:51.587Z</time></trkpt><trkpt lat="43.3680315" lon="11.4274301"><ele>284.0</ele><time>2026-04-04T11:07:52.573Z</time></trkpt><trkpt lat="43.3679972" lon="11.4273217"><ele>284.0</ele><time>2026-04-04T11:07:53.574Z</time></trkpt><trkpt lat="43.3679602" lon="11.4272133"><ele>284.0</ele><time>2026-04-04T11:07:54.582Z</time></trkpt><trkpt lat="43.3679197" lon="11.4271073"><ele>284.0</ele><time>2026-04-04T11:07:55.57Z</time></trkpt><trkpt lat="43.3678749" lon="11.4270113"><ele>284.0</ele><time>2026-04-04T11:07:56.578Z</time></trkpt><trkpt lat="43.3678244" lon="11.42693"><ele>284.0</ele><time>2026-04-04T11:07:57.571Z</time></trkpt><trkpt lat="43.3677678" lon="11.4268632"><ele>284.0</ele><time>2026-04-04T11:07:58.572Z</time></trkpt><trkpt lat="43.367699" lon="11.4268074"><ele>284.0</ele><time>2026-04-04T11:07:59.576Z</time></trkpt><trkpt lat="43.3676213" lon="11.4267594"><ele>284.0</ele><time>2026-04-04T11:08:00.581Z</time></trkpt><trkpt lat="43.3675302" lon="11.4267207"><ele>284.0</ele><time>2026-04-04T11:08:01.583Z</time></trkpt><trkpt lat="43.367431" lon="11.4266818"><ele>284.0</ele><time>2026-04-04T11:08:02.575Z</time></trkpt><trkpt lat="43.367326" lon="11.4266392"><ele>284.0</ele><time>2026-04-04T11:08:03.574Z</time></trkpt><trkpt lat="43.3672315" lon="11.4266021"><ele>284.0</ele><time>2026-04-04T11:08:04.581Z</time></trkpt><trkpt lat="43.3671464" lon="11.4265658"><ele>284.0</ele><time>2026-04-04T11:08:05.58Z</time></trkpt><trkpt lat="43.3670683" lon="11.4265304"><ele>284.0</ele><time>2026-04-04T11:08:06.573Z</time></trkpt><trkpt lat="43.3669805" lon="11.4264958"><ele>285.0</ele><time>2026-04-04T11:08:07.577Z</time></trkpt><trkpt lat="43.3668867" lon="11.426456"><ele>286.0</ele><time>2026-04-04T11:08:08.588Z</time></trkpt><trkpt lat="43.3667856" lon="11.4264185"><ele>287.0</ele><time>2026-04-04T11:08:09.585Z</time></trkpt><trkpt lat="43.3666775" lon="11.4263763"><ele>288.0</ele><time>2026-04-04T11:08:10.577Z</time></trkpt><trkpt lat="43.3665622" lon="11.4263548"><ele>289.0</ele><time>2026-04-04T11:08:11.576Z</time></trkpt><trkpt lat="43.3664387" lon="11.4263567"><ele>288.59999999999997</ele><time>2026-04-04T11:08:12.592Z</time></trkpt><trkpt lat="43.3663197" lon="11.4263705"><ele>288.2</ele><time>2026-04-04T11:08:13.574Z</time></trkpt><trkpt lat="43.3662088" lon="11.4263783"><ele>287.79999999999995</ele><time>2026-04-04T11:08:14.582Z</time></trkpt><trkpt lat="43.3660977" lon="11.4263864"><ele>287.4</ele><time>2026-04-04T11:08:15.569Z</time></trkpt><trkpt lat="43.3659993" lon="11.4263757"><ele>287.0</ele><time>2026-04-04T11:08:16.588Z</time></trkpt><trkpt lat="43.3659002" lon="11.4263344"><ele>287.75</ele><time>2026-04-04T11:08:17.568Z</time></trkpt><trkpt lat="43.3658072" lon="11.4262523"><ele>288.5</ele><time>2026-04-04T11:08:18.582Z</time></trkpt><trkpt lat="43.3657247" lon="11.4261378"><ele>289.25</ele><time>2026-04-04T11:08:19.585Z</time></trkpt><trkpt lat="43.3656367" lon="11.4260064"><ele>290.0</ele><time>2026-04-04T11:08:20.582Z</time></trkpt><trkpt lat="43.3655457" lon="11.4258591"><ele>288.0</ele><time>2026-04-04T11:08:21.584Z</time></trkpt><trkpt lat="43.3654477" lon="11.4256984"><ele>286.0</ele><time>2026-04-04T11:08:22.59Z</time></trkpt><trkpt lat="43.3653519" lon="11.4255439"><ele>284.0</ele><time>2026-04-04T11:08:23.577Z</time></trkpt><trkpt lat="43.3652562" lon="11.4253915"><ele>282.0</ele><time>2026-04-04T11:08:24.574Z</time></trkpt><trkpt lat="43.3651629" lon="11.4252399"><ele>281.75</ele><time>2026-04-04T11:08:25.569Z</time></trkpt><trkpt lat="43.3650705" lon="11.4250902"><ele>281.5</ele><time>2026-04-04T11:08:26.573Z</time></trkpt><trkpt lat="43.3649754" lon="11.4249341"><ele>281.25</ele><time>2026-04-04T11:08:27.58Z</time></trkpt><trkpt lat="43.3648835" lon="11.4247696"><ele>281.0</ele><time>2026-04-04T11:08:28.572Z</time></trkpt><trkpt lat="43.3648" lon="11.4246061"><ele>280.5</ele><time>2026-04-04T11:08:29.573Z</time></trkpt><trkpt lat="43.3647275" lon="11.4244429"><ele>280.0</ele><time>2026-04-04T11:08:30.58Z</time></trkpt><trkpt lat="43.3646737" lon="11.4242686"><ele>279.5</ele><time>2026-04-04T11:08:31.582Z</time></trkpt><trkpt lat="43.3646319" lon="11.4240754"><ele>279.0</ele><time>2026-04-04T11:08:32.578Z</time></trkpt><trkpt lat="43.3645921" lon="11.4238682"><ele>276.3333333333333</ele><time>2026-04-04T11:08:33.582Z</time></trkpt><trkpt lat="43.3645601" lon="11.4236411"><ele>273.66666666666663</ele><time>2026-04-04T11:08:34.575Z</time></trkpt><trkpt lat="43.364542" lon="11.4233911"><ele>271.0</ele><time>2026-04-04T11:08:35.57Z</time></trkpt><trkpt lat="43.364526" lon="11.4231245"><ele>268.66666666666663</ele><time>2026-04-04T11:08:36.582Z</time></trkpt><trkpt lat="43.3645115" lon="11.4228576"><ele>266.3333333333333</ele><time>2026-04-04T11:08:37.572Z</time></trkpt><trkpt lat="43.3644975" lon="11.4226008"><ele>264.0</ele><time>2026-04-04T11:08:38.571Z</time></trkpt><trkpt lat="43.3644836" lon="11.4223514"><ele>261.6666666666667</ele><time>2026-04-04T11:08:39.583Z</time></trkpt><trkpt lat="43.3644741" lon="11.422114"><ele>259.33333333333337</ele><time>2026-04-04T11:08:40.578Z</time></trkpt><trkpt lat="43.3644629" lon="11.4218941"><ele>257.0</ele><time>2026-04-04T11:08:41.571Z</time></trkpt><trkpt lat="43.3644479" lon="11.4216907"><ele>257.0</ele><time>2026-04-04T11:08:42.577Z</time></trkpt><trkpt lat="43.3644269" lon="11.4215026"><ele>257.0</ele><time>2026-04-04T11:08:43.585Z</time></trkpt><trkpt lat="43.3643952" lon="11.4213308"><ele>257.0</ele><time>2026-04-04T11:08:44.572Z</time></trkpt><trkpt lat="43.3643532" lon="11.4211726"><ele>257.0</ele><time>2026-04-04T11:08:45.576Z</time></trkpt><trkpt lat="43.3643104" lon="11.421027"><ele>256.83333333333337</ele><time>2026-04-04T11:08:46.583Z</time></trkpt><trkpt lat="43.3642705" lon="11.4208931"><ele>256.6666666666667</ele><time>2026-04-04T11:08:47.585Z</time></trkpt><trkpt lat="43.3642333" lon="11.4207665"><ele>256.5</ele><time>2026-04-04T11:08:48.577Z</time></trkpt><trkpt lat="43.3641986" lon="11.4206507"><ele>256.3333333333333</ele><time>2026-04-04T11:08:49.579Z</time></trkpt><trkpt lat="43.3641699" lon="11.4205472"><ele>256.16666666666663</ele><time>2026-04-04T11:08:50.578Z</time></trkpt><trkpt lat="43.36415" lon="11.4204535"><ele>256.0</ele><time>2026-04-04T11:08:51.578Z</time></trkpt><trkpt lat="43.3641347" lon="11.4203518"><ele>255.66666666666666</ele><time>2026-04-04T11:08:52.583Z</time></trkpt><trkpt lat="43.3641192" lon="11.420238"><ele>255.33333333333331</ele><time>2026-04-04T11:08:53.586Z</time></trkpt><trkpt lat="43.3641078" lon="11.4201191"><ele>255.0</ele><time>2026-04-04T11:08:54.585Z</time></trkpt><trkpt lat="43.3640941" lon="11.4200095"><ele>254.66666666666669</ele><time>2026-04-04T11:08:55.582Z</time></trkpt><trkpt lat="43.3640821" lon="11.4199126"><ele>254.33333333333334</ele><time>2026-04-04T11:08:56.581Z</time></trkpt><trkpt lat="43.3640692" lon="11.419762"><ele>254.0</ele><time>2026-04-04T11:08:58.584Z</time></trkpt><trkpt lat="43.3640617" lon="11.4196489"><ele>253.33333333333334</ele><time>2026-04-04T11:09:00.58Z</time></trkpt><trkpt lat="43.3640542" lon="11.4195175"><ele>252.66666666666669</ele><time>2026-04-04T11:09:02.583Z</time></trkpt><trkpt lat="43.3640481" lon="11.41943"><ele>252.0</ele><time>2026-04-04T11:09:03.574Z</time></trkpt><trkpt lat="43.3640396" lon="11.419324"><ele>251.33333333333331</ele><time>2026-04-04T11:09:04.577Z</time></trkpt><trkpt lat="43.3640368" lon="11.4192087"><ele>250.66666666666666</ele><time>2026-04-04T11:09:05.572Z</time></trkpt><trkpt lat="43.3640333" lon="11.4190757"><ele>250.0</ele><time>2026-04-04T11:09:06.585Z</time></trkpt><trkpt lat="43.364033" lon="11.4189548"><ele>249.99999999999997</ele><time>2026-04-04T11:09:07.573Z</time></trkpt><trkpt lat="43.3640282" lon="11.418846"><ele>250.0</ele><time>2026-04-04T11:09:08.578Z</time></trkpt><trkpt lat="43.364001" lon="11.418755"><ele>250.0</ele><time>2026-04-04T11:09:09.575Z</time></trkpt><trkpt lat="43.3639558" lon="11.4186845"><ele>250.0</ele><time>2026-04-04T11:09:10.567Z</time></trkpt><trkpt lat="43.3638939" lon="11.4186239"><ele>249.99999999999997</ele><time>2026-04-04T11:09:11.579Z</time></trkpt><trkpt lat="43.363831" lon="11.4185866"><ele>250.0</ele><time>2026-04-04T11:09:12.588Z</time></trkpt><trkpt lat="43.3637347" lon="11.4185263"><ele>248.0</ele><time>2026-04-04T11:09:14.581Z</time></trkpt><trkpt lat="43.3636207" lon="11.4184727"><ele>246.0</ele><time>2026-04-04T11:09:16.57Z</time></trkpt><trkpt lat="43.3635382" lon="11.4184714"><ele>244.0</ele><time>2026-04-04T11:09:17.58Z</time></trkpt><trkpt lat="43.363436" lon="11.4184721"><ele>242.0</ele><time>2026-04-04T11:09:18.576Z</time></trkpt><trkpt lat="43.3633116" lon="11.4184664"><ele>240.0</ele><time>2026-04-04T11:09:19.572Z</time></trkpt><trkpt lat="43.3631741" lon="11.4184538"><ele>239.0</ele><time>2026-04-04T11:09:20.58Z</time></trkpt><trkpt lat="43.363024" lon="11.4184263"><ele>238.0</ele><time>2026-04-04T11:09:21.576Z</time></trkpt><trkpt lat="43.3628698" lon="11.4183823"><ele>237.0</ele><time>2026-04-04T11:09:22.581Z</time></trkpt><trkpt lat="43.362721" lon="11.4183335"><ele>237.0</ele><time>2026-04-04T11:09:23.584Z</time></trkpt><trkpt lat="43.3625872" lon="11.4182875"><ele>237.0</ele><time>2026-04-04T11:09:24.565Z</time></trkpt><trkpt lat="43.3624627" lon="11.4182526"><ele>237.0</ele><time>2026-04-04T11:09:25.578Z</time></trkpt><trkpt lat="43.3623436" lon="11.4182528"><ele>237.0</ele><time>2026-04-04T11:09:26.58Z</time></trkpt><trkpt lat="43.3622313" lon="11.4182984"><ele>235.5</ele><time>2026-04-04T11:09:27.584Z</time></trkpt><trkpt lat="43.3621208" lon="11.4183737"><ele>234.0</ele><time>2026-04-04T11:09:28.569Z</time></trkpt><trkpt lat="43.3620147" lon="11.4184762"><ele>232.5</ele><time>2026-04-04T11:09:29.572Z</time></trkpt><trkpt lat="43.3619165" lon="11.4186215"><ele>231.0</ele><time>2026-04-04T11:09:30.575Z</time></trkpt><trkpt lat="43.3618257" lon="11.4187737"><ele>232.75</ele><time>2026-04-04T11:09:31.58Z</time></trkpt><trkpt lat="43.3617407" lon="11.4189076"><ele>234.5</ele><time>2026-04-04T11:09:32.573Z</time></trkpt><trkpt lat="43.3616509" lon="11.4190216"><ele>236.25</ele><time>2026-04-04T11:09:33.58Z</time></trkpt><trkpt lat="43.3615438" lon="11.4190977"><ele>238.0</ele><time>2026-04-04T11:09:34.576Z</time></trkpt><trkpt lat="43.3614214" lon="11.4191587"><ele>236.5</ele><time>2026-04-04T11:09:35.575Z</time></trkpt><trkpt lat="43.3612869" lon="11.4192105"><ele>235.0</ele><time>2026-04-04T11:09:36.579Z</time></trkpt><trkpt lat="43.3611422" lon="11.4192623"><ele>233.5</ele><time>2026-04-04T11:09:37.569Z</time></trkpt><trkpt lat="43.3609885" lon="11.4193173"><ele>232.0</ele><time>2026-04-04T11:09:38.572Z</time></trkpt><trkpt lat="43.360833" lon="11.4193734"><ele>232.0</ele><time>2026-04-04T11:09:39.574Z</time></trkpt><trkpt lat="43.3606723" lon="11.4194348"><ele>232.0</ele><time>2026-04-04T11:09:40.571Z</time></trkpt><trkpt lat="43.3605056" lon="11.4194989"><ele>232.0</ele><time>2026-04-04T11:09:41.577Z</time></trkpt><trkpt lat="43.3603349" lon="11.419564"><ele>232.0</ele><time>2026-04-04T11:09:42.574Z</time></trkpt><trkpt lat="43.360162" lon="11.4196295"><ele>232.0</ele><time>2026-04-04T11:09:43.581Z</time></trkpt><trkpt lat="43.3600008" lon="11.4196879"><ele>232.0</ele><time>2026-04-04T11:09:44.575Z</time></trkpt><trkpt lat="43.3598456" lon="11.4197412"><ele>231.0</ele><time>2026-04-04T11:09:45.572Z</time></trkpt><trkpt lat="43.3596994" lon="11.4197971"><ele>230.0</ele><time>2026-04-04T11:09:46.578Z</time></trkpt><trkpt lat="43.3595592" lon="11.4198543"><ele>229.0</ele><time>2026-04-04T11:09:47.575Z</time></trkpt><trkpt lat="43.3594181" lon="11.419904"><ele>228.0</ele><time>2026-04-04T11:09:48.587Z</time></trkpt><trkpt lat="43.3592852" lon="11.4199403"><ele>228.0</ele><time>2026-04-04T11:09:49.58Z</time></trkpt><trkpt lat="43.3591663" lon="11.4199484"><ele>228.0</ele><time>2026-04-04T11:09:50.59Z</time></trkpt><trkpt lat="43.3590575" lon="11.4199095"><ele>228.0</ele><time>2026-04-04T11:09:51.582Z</time></trkpt><trkpt lat="43.3589585" lon="11.4198169"><ele>228.0</ele><time>2026-04-04T11:09:52.583Z</time></trkpt><trkpt lat="43.3588661" lon="11.4196845"><ele>226.0</ele><time>2026-04-04T11:09:53.579Z</time></trkpt><trkpt lat="43.3587664" lon="11.4195347"><ele>224.0</ele><time>2026-04-04T11:09:54.575Z</time></trkpt><trkpt lat="43.358654" lon="11.4193734"><ele>222.0</ele><time>2026-04-04T11:09:55.58Z</time></trkpt><trkpt lat="43.3585396" lon="11.4191936"><ele>222.0</ele><time>2026-04-04T11:09:56.579Z</time></trkpt><trkpt lat="43.3584165" lon="11.4190047"><ele>222.0</ele><time>2026-04-04T11:09:57.585Z</time></trkpt><trkpt lat="43.3582845" lon="11.4188054"><ele>222.0</ele><time>2026-04-04T11:09:58.576Z</time></trkpt><trkpt lat="43.3581477" lon="11.4185987"><ele>221.33333333333331</ele><time>2026-04-04T11:09:59.575Z</time></trkpt><trkpt lat="43.3580043" lon="11.4183796"><ele>220.66666666666666</ele><time>2026-04-04T11:10:00.579Z</time></trkpt><trkpt lat="43.3578711" lon="11.4181706"><ele>220.0</ele><time>2026-04-04T11:10:01.581Z</time></trkpt><trkpt lat="43.3577421" lon="11.4179753"><ele>220.0</ele><time>2026-04-04T11:10:02.57Z</time></trkpt><trkpt lat="43.3576215" lon="11.4177912"><ele>220.0</ele><time>2026-04-04T11:10:03.575Z</time></trkpt><trkpt lat="43.3575081" lon="11.417615"><ele>220.0</ele><time>2026-04-04T11:10:04.583Z</time></trkpt><trkpt lat="43.3574007" lon="11.4174514"><ele>220.0</ele><time>2026-04-04T11:10:05.582Z</time></trkpt><trkpt lat="43.3573024" lon="11.4173006"><ele>220.0</ele><time>2026-04-04T11:10:06.581Z</time></trkpt><trkpt lat="43.3572115" lon="11.4171569"><ele>220.0</ele><time>2026-04-04T11:10:07.582Z</time></trkpt><trkpt lat="43.3571305" lon="11.4170268"><ele>220.0</ele><time>2026-04-04T11:10:08.58Z</time></trkpt><trkpt lat="43.3570552" lon="11.4169108"><ele>219.8</ele><time>2026-04-04T11:10:09.575Z</time></trkpt><trkpt lat="43.3569899" lon="11.4168193"><ele>219.6</ele><time>2026-04-04T11:10:10.579Z</time></trkpt><trkpt lat="43.3569281" lon="11.4167345"><ele>219.39999999999998</ele><time>2026-04-04T11:10:11.585Z</time></trkpt><trkpt lat="43.3568693" lon="11.4166353"><ele>219.2</ele><time>2026-04-04T11:10:12.58Z</time></trkpt><trkpt lat="43.3568091" lon="11.4165301"><ele>219.0</ele><time>2026-04-04T11:10:13.575Z</time></trkpt><trkpt lat="43.3567423" lon="11.4164143"><ele>219.39999999999998</ele><time>2026-04-04T11:10:14.578Z</time></trkpt><trkpt lat="43.3566702" lon="11.4162936"><ele>219.79999999999998</ele><time>2026-04-04T11:10:15.585Z</time></trkpt><trkpt lat="43.3566017" lon="11.4161836"><ele>220.20000000000002</ele><time>2026-04-04T11:10:16.588Z</time></trkpt><trkpt lat="43.3565387" lon="11.4160851"><ele>220.60000000000002</ele><time>2026-04-04T11:10:17.579Z</time></trkpt><trkpt lat="43.3564791" lon="11.415995"><ele>221.0</ele><time>2026-04-04T11:10:18.58Z</time></trkpt><trkpt lat="43.3564236" lon="11.4159215"><ele>221.16666666666669</ele><time>2026-04-04T11:10:19.572Z</time></trkpt><trkpt lat="43.3563675" lon="11.4158697"><ele>221.33333333333334</ele><time>2026-04-04T11:10:20.577Z</time></trkpt><trkpt lat="43.3562997" lon="11.4158363"><ele>221.5</ele><time>2026-04-04T11:10:21.589Z</time></trkpt><trkpt lat="43.3562317" lon="11.4158227"><ele>221.66666666666669</ele><time>2026-04-04T11:10:22.577Z</time></trkpt><trkpt lat="43.3561153" lon="11.4158283"><ele>221.83333333333334</ele><time>2026-04-04T11:10:24.582Z</time></trkpt><trkpt lat="43.356035" lon="11.4158557"><ele>222.0</ele><time>2026-04-04T11:10:26.576Z</time></trkpt><trkpt lat="43.3559695" lon="11.4158777"><ele>222.0</ele><time>2026-04-04T11:12:39.573Z</time></trkpt><trkpt lat="43.3558885" lon="11.4159468"><ele>222.0</ele><time>2026-04-04T11:12:41.595Z</time></trkpt><trkpt lat="43.3557926" lon="11.4160119"><ele>222.0</ele><time>2026-04-04T11:12:43.583Z</time></trkpt><trkpt lat="43.3557334" lon="11.4160508"><ele>222.0</ele><time>2026-04-04T11:12:45.577Z</time></trkpt><trkpt lat="43.3556687" lon="11.4160927"><ele>222.0</ele><time>2026-04-04T11:13:32.582Z</time></trkpt><trkpt lat="43.3556042" lon="11.4161457"><ele>222.0</ele><time>2026-04-04T11:13:34.578Z</time></trkpt><trkpt lat="43.3555433" lon="11.4161877"><ele>223.25</ele><time>2026-04-04T11:13:35.58Z</time></trkpt><trkpt lat="43.3554594" lon="11.4162206"><ele>224.5</ele><time>2026-04-04T11:13:36.583Z</time></trkpt><trkpt lat="43.3553518" lon="11.4162324"><ele>225.75</ele><time>2026-04-04T11:13:37.584Z</time></trkpt><trkpt lat="43.3552265" lon="11.4162227"><ele>227.0</ele><time>2026-04-04T11:13:38.58Z</time></trkpt><trkpt lat="43.355085" lon="11.4162089"><ele>227.0</ele><time>2026-04-04T11:13:39.589Z</time></trkpt><trkpt lat="43.3549306" lon="11.4161889"><ele>227.0</ele><time>2026-04-04T11:13:40.585Z</time></trkpt><trkpt lat="43.3547668" lon="11.4161693"><ele>227.0</ele><time>2026-04-04T11:13:41.584Z</time></trkpt><trkpt lat="43.3545957" lon="11.4161477"><ele>226.33333333333334</ele><time>2026-04-04T11:13:42.581Z</time></trkpt><trkpt lat="43.3544159" lon="11.4161258"><ele>225.66666666666669</ele><time>2026-04-04T11:13:43.585Z</time></trkpt><trkpt lat="43.3542273" lon="11.4161033"><ele>225.0</ele><time>2026-04-04T11:13:44.59Z</time></trkpt><trkpt lat="43.3540327" lon="11.4160864"><ele>224.33333333333331</ele><time>2026-04-04T11:13:45.586Z</time></trkpt><trkpt lat="43.353849" lon="11.4160638"><ele>223.66666666666666</ele><time>2026-04-04T11:13:46.58Z</time></trkpt><trkpt lat="43.3536638" lon="11.4160316"><ele>223.0</ele><time>2026-04-04T11:13:47.581Z</time></trkpt><trkpt lat="43.3534793" lon="11.4159839"><ele>223.0</ele><time>2026-04-04T11:13:48.581Z</time></trkpt><trkpt lat="43.3533055" lon="11.4159273"><ele>223.0</ele><time>2026-04-04T11:13:49.578Z</time></trkpt><trkpt lat="43.3531396" lon="11.4158799"><ele>223.0</ele><time>2026-04-04T11:13:50.578Z</time></trkpt><trkpt lat="43.3529821" lon="11.4158359"><ele>223.0</ele><time>2026-04-04T11:13:51.581Z</time></trkpt><trkpt lat="43.3528483" lon="11.4157956"><ele>223.0</ele><time>2026-04-04T11:13:52.578Z</time></trkpt><trkpt lat="43.3527514" lon="11.4157684"><ele>223.0</ele><time>2026-04-04T11:13:53.58Z</time></trkpt><trkpt lat="43.3526882" lon="11.4157481"><ele>223.0</ele><time>2026-04-04T11:13:54.589Z</time></trkpt><trkpt lat="43.3525844" lon="11.4156972"><ele>223.0</ele><time>2026-04-04T11:13:56.585Z</time></trkpt><trkpt lat="43.3524528" lon="11.4156621"><ele>223.0</ele><time>2026-04-04T11:13:58.583Z</time></trkpt><trkpt lat="43.3523667" lon="11.4156488"><ele>223.0</ele><time>2026-04-04T11:13:59.585Z</time></trkpt><trkpt lat="43.3522693" lon="11.4156314"><ele>223.0</ele><time>2026-04-04T11:14:00.578Z</time></trkpt><trkpt lat="43.3521631" lon="11.4156035"><ele>223.0</ele><time>2026-04-04T11:14:01.587Z</time></trkpt><trkpt lat="43.3520392" lon="11.4155634"><ele>223.0</ele><time>2026-04-04T11:14:02.585Z</time></trkpt><trkpt lat="43.3518958" lon="11.4155234"><ele>222.33333333333331</ele><time>2026-04-04T11:14:03.591Z</time></trkpt><trkpt lat="43.3517408" lon="11.4154786"><ele>221.66666666666669</ele><time>2026-04-04T11:14:04.587Z</time></trkpt><trkpt lat="43.3515777" lon="11.41543"><ele>221.0</ele><time>2026-04-04T11:14:05.585Z</time></trkpt><trkpt lat="43.3514064" lon="11.415384"><ele>220.66666666666669</ele><time>2026-04-04T11:14:06.584Z</time></trkpt><trkpt lat="43.3512287" lon="11.4153353"><ele>220.33333333333331</ele><time>2026-04-04T11:14:07.583Z</time></trkpt><trkpt lat="43.3510417" lon="11.4152835"><ele>220.0</ele><time>2026-04-04T11:14:08.58Z</time></trkpt><trkpt lat="43.3508569" lon="11.4152347"><ele>220.0</ele><time>2026-04-04T11:14:09.578Z</time></trkpt><trkpt lat="43.3506891" lon="11.4151814"><ele>220.0</ele><time>2026-04-04T11:14:10.584Z</time></trkpt><trkpt lat="43.3505321" lon="11.415133"><ele>220.0</ele><time>2026-04-04T11:14:11.573Z</time></trkpt><trkpt lat="43.3503868" lon="11.4150868"><ele>221.5</ele><time>2026-04-04T11:14:12.578Z</time></trkpt><trkpt lat="43.3502541" lon="11.4150273"><ele>223.0</ele><time>2026-04-04T11:14:13.585Z</time></trkpt><trkpt lat="43.3501381" lon="11.4149451"><ele>224.5</ele><time>2026-04-04T11:14:14.583Z</time></trkpt><trkpt lat="43.35004" lon="11.4148246"><ele>226.0</ele><time>2026-04-04T11:14:15.584Z</time></trkpt><trkpt lat="43.3499522" lon="11.4146831"><ele>226.25</ele><time>2026-04-04T11:14:16.583Z</time></trkpt><trkpt lat="43.3498662" lon="11.414527"><ele>226.5</ele><time>2026-04-04T11:14:17.582Z</time></trkpt><trkpt lat="43.349778" lon="11.4143605"><ele>226.75</ele><time>2026-04-04T11:14:18.583Z</time></trkpt><trkpt lat="43.3496848" lon="11.4141911"><ele>227.0</ele><time>2026-04-04T11:14:19.582Z</time></trkpt><trkpt lat="43.3495929" lon="11.4140088"><ele>227.0</ele><time>2026-04-04T11:14:20.578Z</time></trkpt><trkpt lat="43.3495131" lon="11.413819"><ele>227.0</ele><time>2026-04-04T11:14:21.584Z</time></trkpt><trkpt lat="43.3494495" lon="11.4136223"><ele>227.0</ele><time>2026-04-04T11:14:22.578Z</time></trkpt><trkpt lat="43.3493803" lon="11.4134313"><ele>227.0</ele><time>2026-04-04T11:14:23.583Z</time></trkpt><trkpt lat="43.3492946" lon="11.4132521"><ele>227.0</ele><time>2026-04-04T11:14:24.581Z</time></trkpt><trkpt lat="43.3491982" lon="11.4130905"><ele>227.0</ele><time>2026-04-04T11:14:25.579Z</time></trkpt><trkpt lat="43.3491047" lon="11.4129485"><ele>227.0</ele><time>2026-04-04T11:14:26.571Z</time></trkpt><trkpt lat="43.3490146" lon="11.4128174"><ele>226.5</ele><time>2026-04-04T11:14:27.578Z</time></trkpt><trkpt lat="43.3489304" lon="11.4126898"><ele>226.0</ele><time>2026-04-04T11:14:28.574Z</time></trkpt><trkpt lat="43.3488542" lon="11.412559"><ele>225.5</ele><time>2026-04-04T11:14:29.588Z</time></trkpt><trkpt lat="43.3487861" lon="11.4124247"><ele>225.0</ele><time>2026-04-04T11:14:30.581Z</time></trkpt><trkpt lat="43.3487303" lon="11.4122806"><ele>226.75</ele><time>2026-04-04T11:14:31.585Z</time></trkpt><trkpt lat="43.3486825" lon="11.4121302"><ele>228.5</ele><time>2026-04-04T11:14:32.581Z</time></trkpt><trkpt lat="43.3486372" lon="11.4119757"><ele>230.25</ele><time>2026-04-04T11:14:33.568Z</time></trkpt><trkpt lat="43.348599" lon="11.4118139"><ele>232.0</ele><time>2026-04-04T11:14:34.582Z</time></trkpt><trkpt lat="43.3485713" lon="11.4116406"><ele>232.0</ele><time>2026-04-04T11:14:35.583Z</time></trkpt><trkpt lat="43.3485529" lon="11.4114572"><ele>232.0</ele><time>2026-04-04T11:14:36.576Z</time></trkpt><trkpt lat="43.3485401" lon="11.4112659"><ele>232.0</ele><time>2026-04-04T11:14:37.575Z</time></trkpt><trkpt lat="43.3485243" lon="11.411069"><ele>232.0</ele><time>2026-04-04T11:14:38.567Z</time></trkpt><trkpt lat="43.3485005" lon="11.4108662"><ele>234.0</ele><time>2026-04-04T11:14:39.579Z</time></trkpt><trkpt lat="43.3484666" lon="11.4106586"><ele>236.0</ele><time>2026-04-04T11:14:40.577Z</time></trkpt><trkpt lat="43.3484248" lon="11.4104464"><ele>238.0</ele><time>2026-04-04T11:14:41.586Z</time></trkpt><trkpt lat="43.348374" lon="11.4102337"><ele>238.66666666666666</ele><time>2026-04-04T11:14:42.599Z</time></trkpt><trkpt lat="43.3483186" lon="11.4100199"><ele>239.33333333333331</ele><time>2026-04-04T11:14:43.575Z</time></trkpt><trkpt lat="43.3482634" lon="11.4098022"><ele>240.0</ele><time>2026-04-04T11:14:44.581Z</time></trkpt><trkpt lat="43.3482105" lon="11.4095796"><ele>240.0</ele><time>2026-04-04T11:14:45.581Z</time></trkpt><trkpt lat="43.3481572" lon="11.4093569"><ele>240.0</ele><time>2026-04-04T11:14:46.578Z</time></trkpt><trkpt lat="43.3481072" lon="11.4091316"><ele>240.0</ele><time>2026-04-04T11:14:47.586Z</time></trkpt><trkpt lat="43.3480718" lon="11.4089052"><ele>241.0</ele><time>2026-04-04T11:14:48.588Z</time></trkpt><trkpt lat="43.3480527" lon="11.4086776"><ele>242.0</ele><time>2026-04-04T11:14:49.584Z</time></trkpt><trkpt lat="43.3480468" lon="11.4084515"><ele>243.0</ele><time>2026-04-04T11:14:50.591Z</time></trkpt><trkpt lat="43.3480418" lon="11.4082226"><ele>244.0</ele><time>2026-04-04T11:14:51.574Z</time></trkpt><trkpt lat="43.3480359" lon="11.4079908"><ele>245.0</ele><time>2026-04-04T11:14:52.58Z</time></trkpt><trkpt lat="43.3480384" lon="11.4077552"><ele>246.0</ele><time>2026-04-04T11:14:53.583Z</time></trkpt><trkpt lat="43.3480491" lon="11.4075165"><ele>246.0</ele><time>2026-04-04T11:14:54.581Z</time></trkpt><trkpt lat="43.3480613" lon="11.4072772"><ele>246.0</ele><time>2026-04-04T11:14:55.566Z</time></trkpt><trkpt lat="43.3480748" lon="11.4070356"><ele>246.0</ele><time>2026-04-04T11:14:56.582Z</time></trkpt><trkpt lat="43.3480964" lon="11.406796"><ele>247.0</ele><time>2026-04-04T11:14:57.573Z</time></trkpt><trkpt lat="43.3481291" lon="11.4065527"><ele>248.0</ele><time>2026-04-04T11:14:58.572Z</time></trkpt><trkpt lat="43.3481755" lon="11.4063119"><ele>249.0</ele><time>2026-04-04T11:14:59.566Z</time></trkpt><trkpt lat="43.3482392" lon="11.4060799"><ele>251.33333333333331</ele><time>2026-04-04T11:15:00.574Z</time></trkpt><trkpt lat="43.3483097" lon="11.4058513"><ele>253.66666666666666</ele><time>2026-04-04T11:15:01.576Z</time></trkpt><trkpt lat="43.3483726" lon="11.405621"><ele>256.0</ele><time>2026-04-04T11:15:02.586Z</time></trkpt><trkpt lat="43.3484186" lon="11.4053873"><ele>259.66666666666663</ele><time>2026-04-04T11:15:03.575Z</time></trkpt><trkpt lat="43.3484531" lon="11.4051493"><ele>263.3333333333333</ele><time>2026-04-04T11:15:04.585Z</time></trkpt><trkpt lat="43.3484784" lon="11.4049123"><ele>267.0</ele><time>2026-04-04T11:15:05.573Z</time></trkpt><trkpt lat="43.3485058" lon="11.4046778"><ele>267.6666666666667</ele><time>2026-04-04T11:15:06.585Z</time></trkpt><trkpt lat="43.3485697" lon="11.4044653"><ele>268.33333333333337</ele><time>2026-04-04T11:15:07.579Z</time></trkpt><trkpt lat="43.3486567" lon="11.4042716"><ele>269.0</ele><time>2026-04-04T11:15:08.58Z</time></trkpt><trkpt lat="43.3487596" lon="11.404094"><ele>269.0</ele><time>2026-04-04T11:15:09.581Z</time></trkpt><trkpt lat="43.3488697" lon="11.4039283"><ele>269.0</ele><time>2026-04-04T11:15:10.582Z</time></trkpt><trkpt lat="43.3489705" lon="11.4037624"><ele>269.0</ele><time>2026-04-04T11:15:11.571Z</time></trkpt><trkpt lat="43.3490511" lon="11.4035808"><ele>270.0</ele><time>2026-04-04T11:15:12.577Z</time></trkpt><trkpt lat="43.3491037" lon="11.4033848"><ele>271.0</ele><time>2026-04-04T11:15:13.576Z</time></trkpt><trkpt lat="43.3491315" lon="11.4031759"><ele>272.0</ele><time>2026-04-04T11:15:14.57Z</time></trkpt><trkpt lat="43.3491517" lon="11.402954"><ele>274.33333333333337</ele><time>2026-04-04T11:15:15.574Z</time></trkpt><trkpt lat="43.3491743" lon="11.4027241"><ele>276.6666666666667</ele><time>2026-04-04T11:15:16.582Z</time></trkpt><trkpt lat="43.3491955" lon="11.4024905"><ele>279.0</ele><time>2026-04-04T11:15:17.581Z</time></trkpt><trkpt lat="43.3492181" lon="11.4022725"><ele>281.0</ele><time>2026-04-04T11:15:18.586Z</time></trkpt><trkpt lat="43.3492478" lon="11.4020731"><ele>283.0</ele><time>2026-04-04T11:15:19.584Z</time></trkpt><trkpt lat="43.3492895" lon="11.4018874"><ele>285.0</ele><time>2026-04-04T11:15:20.572Z</time></trkpt><trkpt lat="43.3493555" lon="11.4017258"><ele>287.0</ele><time>2026-04-04T11:15:21.578Z</time></trkpt><trkpt lat="43.3494454" lon="11.4016109"><ele>287.0</ele><time>2026-04-04T11:15:22.573Z</time></trkpt><trkpt lat="43.3495481" lon="11.4015408"><ele>287.0</ele><time>2026-04-04T11:15:23.58Z</time></trkpt><trkpt lat="43.3496533" lon="11.4015305"><ele>287.0</ele><time>2026-04-04T11:15:24.582Z</time></trkpt><trkpt lat="43.3497639" lon="11.4015616"><ele>287.0</ele><time>2026-04-04T11:15:25.57Z</time></trkpt><trkpt lat="43.3498713" lon="11.4016095"><ele>287.0</ele><time>2026-04-04T11:15:26.578Z</time></trkpt><trkpt lat="43.3499784" lon="11.4016327"><ele>286.1666666666667</ele><time>2026-04-04T11:15:27.585Z</time></trkpt><trkpt lat="43.3500728" lon="11.4016267"><ele>285.33333333333337</ele><time>2026-04-04T11:15:28.582Z</time></trkpt><trkpt lat="43.3501541" lon="11.4015857"><ele>284.5</ele><time>2026-04-04T11:15:29.573Z</time></trkpt><trkpt lat="43.3502113" lon="11.4015002"><ele>283.6666666666667</ele><time>2026-04-04T11:15:30.566Z</time></trkpt><trkpt lat="43.3502428" lon="11.401391"><ele>282.8333333333333</ele><time>2026-04-04T11:15:31.585Z</time></trkpt><trkpt lat="43.3502377" lon="11.4012725"><ele>282.0</ele><time>2026-04-04T11:15:32.567Z</time></trkpt><trkpt lat="43.3501917" lon="11.4011615"><ele>284.5</ele><time>2026-04-04T11:15:33.575Z</time></trkpt><trkpt lat="43.3501242" lon="11.4010509"><ele>287.0</ele><time>2026-04-04T11:15:34.578Z</time></trkpt><trkpt lat="43.3500451" lon="11.4009358"><ele>289.5</ele><time>2026-04-04T11:15:35.579Z</time></trkpt><trkpt lat="43.3499566" lon="11.4008194"><ele>292.0</ele><time>2026-04-04T11:15:36.578Z</time></trkpt><trkpt lat="43.3498537" lon="11.4007262"><ele>292.0</ele><time>2026-04-04T11:15:37.586Z</time></trkpt><trkpt lat="43.3497366" lon="11.4006624"><ele>292.0</ele><time>2026-04-04T11:15:38.573Z</time></trkpt><trkpt lat="43.3496129" lon="11.4006362"><ele>292.0</ele><time>2026-04-04T11:15:39.572Z</time></trkpt><trkpt lat="43.3494839" lon="11.4006588"><ele>292.0</ele><time>2026-04-04T11:15:40.582Z</time></trkpt><trkpt lat="43.3493551" lon="11.4007189"><ele>292.5</ele><time>2026-04-04T11:15:41.571Z</time></trkpt><trkpt lat="43.3492212" lon="11.400787"><ele>293.0</ele><time>2026-04-04T11:15:42.565Z</time></trkpt><trkpt lat="43.3490826" lon="11.4008634"><ele>293.5</ele><time>2026-04-04T11:15:43.577Z</time></trkpt><trkpt lat="43.3489555" lon="11.4009399"><ele>294.0</ele><time>2026-04-04T11:15:44.571Z</time></trkpt><trkpt lat="43.34884" lon="11.4010097"><ele>295.2</ele><time>2026-04-04T11:15:45.576Z</time></trkpt><trkpt lat="43.348735" lon="11.4010318"><ele>296.4</ele><time>2026-04-04T11:15:46.587Z</time></trkpt><trkpt lat="43.3486349" lon="11.4010146"><ele>297.6</ele><time>2026-04-04T11:15:47.573Z</time></trkpt><trkpt lat="43.348541" lon="11.4009553"><ele>298.8</ele><time>2026-04-04T11:15:48.59Z</time></trkpt><trkpt lat="43.3484562" lon="11.4008615"><ele>300.0</ele><time>2026-04-04T11:15:49.579Z</time></trkpt><trkpt lat="43.3483588" lon="11.4007595"><ele>300.0</ele><time>2026-04-04T11:15:50.585Z</time></trkpt><trkpt lat="43.3482583" lon="11.4006385"><ele>300.0</ele><time>2026-04-04T11:15:51.578Z</time></trkpt><trkpt lat="43.3481461" lon="11.4005216"><ele>300.0</ele><time>2026-04-04T11:15:52.578Z</time></trkpt><trkpt lat="43.3480187" lon="11.4004185"><ele>300.0</ele><time>2026-04-04T11:15:53.589Z</time></trkpt><trkpt lat="43.3478819" lon="11.4003265"><ele>301.75</ele><time>2026-04-04T11:15:54.578Z</time></trkpt><trkpt lat="43.3477484" lon="11.4002469"><ele>303.5</ele><time>2026-04-04T11:15:55.588Z</time></trkpt><trkpt lat="43.3476366" lon="11.400171"><ele>305.25</ele><time>2026-04-04T11:15:56.582Z</time></trkpt><trkpt lat="43.3475516" lon="11.4000878"><ele>307.0</ele><time>2026-04-04T11:15:57.586Z</time></trkpt><trkpt lat="43.3474899" lon="11.399987"><ele>307.0</ele><time>2026-04-04T11:15:58.58Z</time></trkpt><trkpt lat="43.3474516" lon="11.3998735"><ele>307.0</ele><time>2026-04-04T11:15:59.577Z</time></trkpt><trkpt lat="43.3474354" lon="11.399761"><ele>307.0</ele><time>2026-04-04T11:16:00.584Z</time></trkpt><trkpt lat="43.3474402" lon="11.399657"><ele>307.0</ele><time>2026-04-04T11:16:01.58Z</time></trkpt><trkpt lat="43.3474675" lon="11.3995673"><ele>307.0</ele><time>2026-04-04T11:16:02.588Z</time></trkpt><trkpt lat="43.3475148" lon="11.3994888"><ele>307.0</ele><time>2026-04-04T11:16:03.57Z</time></trkpt><trkpt lat="43.3475643" lon="11.3994112"><ele>307.16666666666663</ele><time>2026-04-04T11:16:04.577Z</time></trkpt><trkpt lat="43.3476267" lon="11.3993414"><ele>307.3333333333333</ele><time>2026-04-04T11:16:05.577Z</time></trkpt><trkpt lat="43.3476974" lon="11.3992782"><ele>307.5</ele><time>2026-04-04T11:16:06.569Z</time></trkpt><trkpt lat="43.3477756" lon="11.3992187"><ele>307.6666666666667</ele><time>2026-04-04T11:16:07.579Z</time></trkpt><trkpt lat="43.3478611" lon="11.3991618"><ele>307.83333333333337</ele><time>2026-04-04T11:16:08.578Z</time></trkpt><trkpt lat="43.3479545" lon="11.3991116"><ele>308.0</ele><time>2026-04-04T11:16:09.57Z</time></trkpt><trkpt lat="43.3480566" lon="11.3990671"><ele>308.33333333333337</ele><time>2026-04-04T11:16:10.576Z</time></trkpt><trkpt lat="43.3481564" lon="11.3990266"><ele>308.6666666666667</ele><time>2026-04-04T11:16:11.582Z</time></trkpt><trkpt lat="43.3482475" lon="11.399003"><ele>309.0</ele><time>2026-04-04T11:16:12.576Z</time></trkpt><trkpt lat="43.3483239" lon="11.3989956"><ele>309.3333333333333</ele><time>2026-04-04T11:16:13.581Z</time></trkpt><trkpt lat="43.3484117" lon="11.3989642"><ele>309.66666666666663</ele><time>2026-04-04T11:16:15.566Z</time></trkpt><trkpt lat="43.3484332" lon="11.3988823"><ele>310.0</ele><time>2026-04-04T11:16:17.577Z</time></trkpt><trkpt lat="43.3483986" lon="11.3987777"><ele>309.0</ele><time>2026-04-04T11:16:25.564Z</time></trkpt><trkpt lat="43.3483392" lon="11.3986685"><ele>308.0</ele><time>2026-04-04T11:16:27.575Z</time></trkpt><trkpt lat="43.3482554" lon="11.3985428"><ele>307.0</ele><time>2026-04-04T11:16:29.591Z</time></trkpt><trkpt lat="43.3481421" lon="11.398487"><ele>306.0</ele><time>2026-04-04T11:16:31.581Z</time></trkpt><trkpt lat="43.348072" lon="11.3984979"><ele>305.0</ele><time>2026-04-04T11:16:32.579Z</time></trkpt><trkpt lat="43.3479902" lon="11.3985309"><ele>303.8</ele><time>2026-04-04T11:16:33.579Z</time></trkpt><trkpt lat="43.347905" lon="11.3985764"><ele>302.6</ele><time>2026-04-04T11:16:34.58Z</time></trkpt><trkpt lat="43.3478102" lon="11.3986159"><ele>301.4</ele><time>2026-04-04T11:16:35.572Z</time></trkpt><trkpt lat="43.3476996" lon="11.3986428"><ele>300.2</ele><time>2026-04-04T11:16:36.588Z</time></trkpt><trkpt lat="43.3475745" lon="11.3986614"><ele>299.0</ele><time>2026-04-04T11:16:37.586Z</time></trkpt><trkpt lat="43.3474455" lon="11.3986886"><ele>299.0</ele><time>2026-04-04T11:16:38.578Z</time></trkpt><trkpt lat="43.3473143" lon="11.3987181"><ele>299.0</ele><time>2026-04-04T11:16:39.574Z</time></trkpt><trkpt lat="43.3471941" lon="11.3987399"><ele>299.0</ele><time>2026-04-04T11:16:40.589Z</time></trkpt><trkpt lat="43.3470813" lon="11.3987637"><ele>299.0</ele><time>2026-04-04T11:16:41.586Z</time></trkpt><trkpt lat="43.3469801" lon="11.3988024"><ele>299.59999999999997</ele><time>2026-04-04T11:16:42.584Z</time></trkpt><trkpt lat="43.3468908" lon="11.3988571"><ele>300.2</ele><time>2026-04-04T11:16:43.58Z</time></trkpt><trkpt lat="43.3468051" lon="11.398939"><ele>300.79999999999995</ele><time>2026-04-04T11:16:44.579Z</time></trkpt><trkpt lat="43.3467203" lon="11.3990445"><ele>301.4</ele><time>2026-04-04T11:16:45.582Z</time></trkpt><trkpt lat="43.3466369" lon="11.3991575"><ele>302.0</ele><time>2026-04-04T11:16:46.573Z</time></trkpt><trkpt lat="43.3465559" lon="11.3992703"><ele>302.0</ele><time>2026-04-04T11:16:47.573Z</time></trkpt><trkpt lat="43.3464807" lon="11.3993823"><ele>302.0</ele><time>2026-04-04T11:16:48.576Z</time></trkpt><trkpt lat="43.346415" lon="11.3994942"><ele>302.0</ele><time>2026-04-04T11:16:49.582Z</time></trkpt><trkpt lat="43.3463539" lon="11.3995959"><ele>302.0</ele><time>2026-04-04T11:16:50.58Z</time></trkpt><trkpt lat="43.3462935" lon="11.3996875"><ele>302.0</ele><time>2026-04-04T11:16:51.583Z</time></trkpt><trkpt lat="43.3462387" lon="11.3997723"><ele>301.5</ele><time>2026-04-04T11:16:52.578Z</time></trkpt><trkpt lat="43.3461906" lon="11.3998486"><ele>301.0</ele><time>2026-04-04T11:16:53.566Z</time></trkpt><trkpt lat="43.3461436" lon="11.3999249"><ele>300.5</ele><time>2026-04-04T11:16:54.576Z</time></trkpt><trkpt lat="43.3460886" lon="11.4000122"><ele>300.0</ele><time>2026-04-04T11:16:55.578Z</time></trkpt><trkpt lat="43.346031" lon="11.4001034"><ele>299.5</ele><time>2026-04-04T11:16:56.582Z</time></trkpt><trkpt lat="43.3459698" lon="11.4001974"><ele>299.0</ele><time>2026-04-04T11:16:57.592Z</time></trkpt><trkpt lat="43.3459054" lon="11.4002914"><ele>299.0</ele><time>2026-04-04T11:16:58.566Z</time></trkpt><trkpt lat="43.3458391" lon="11.4003859"><ele>299.0</ele><time>2026-04-04T11:16:59.579Z</time></trkpt><trkpt lat="43.3457718" lon="11.4004825"><ele>299.0</ele><time>2026-04-04T11:17:00.578Z</time></trkpt><trkpt lat="43.3457041" lon="11.4005787"><ele>299.0</ele><time>2026-04-04T11:17:01.584Z</time></trkpt><trkpt lat="43.3456453" lon="11.4006688"><ele>299.0</ele><time>2026-04-04T11:17:02.577Z</time></trkpt><trkpt lat="43.3455902" lon="11.4007522"><ele>299.0</ele><time>2026-04-04T11:17:03.58Z</time></trkpt><trkpt lat="43.3455414" lon="11.4008306"><ele>299.0</ele><time>2026-04-04T11:17:04.587Z</time></trkpt><trkpt lat="43.3454949" lon="11.4009003"><ele>299.0</ele><time>2026-04-04T11:17:05.58Z</time></trkpt><trkpt lat="43.3454515" lon="11.4009634"><ele>299.0</ele><time>2026-04-04T11:17:06.583Z</time></trkpt><trkpt lat="43.3453536" lon="11.4010656"><ele>299.0</ele><time>2026-04-04T11:17:08.575Z</time></trkpt><trkpt lat="43.3452844" lon="11.4011113"><ele>299.0</ele><time>2026-04-04T11:17:09.574Z</time></trkpt><trkpt lat="43.3452028" lon="11.4011486"><ele>299.0</ele><time>2026-04-04T11:17:10.575Z</time></trkpt><trkpt lat="43.3451104" lon="11.4011943"><ele>299.0</ele><time>2026-04-04T11:17:11.574Z</time></trkpt><trkpt lat="43.3450079" lon="11.4012387"><ele>299.0</ele><time>2026-04-04T11:17:12.571Z</time></trkpt><trkpt lat="43.3448974" lon="11.4012767"><ele>299.0</ele><time>2026-04-04T11:17:13.571Z</time></trkpt><trkpt lat="43.3447884" lon="11.4013067"><ele>299.0</ele><time>2026-04-04T11:17:14.586Z</time></trkpt><trkpt lat="43.3446763" lon="11.4013317"><ele>297.5</ele><time>2026-04-04T11:17:15.574Z</time></trkpt><trkpt lat="43.34456" lon="11.4013362"><ele>296.0</ele><time>2026-04-04T11:17:16.577Z</time></trkpt><trkpt lat="43.3444467" lon="11.4013388"><ele>294.5</ele><time>2026-04-04T11:17:17.587Z</time></trkpt><trkpt lat="43.3443317" lon="11.4013418"><ele>293.0</ele><time>2026-04-04T11:17:18.585Z</time></trkpt><trkpt lat="43.3442172" lon="11.4013652"><ele>293.0</ele><time>2026-04-04T11:17:19.579Z</time></trkpt><trkpt lat="43.3440979" lon="11.4013942"><ele>293.0</ele><time>2026-04-04T11:17:20.578Z</time></trkpt><trkpt lat="43.34398" lon="11.4014447"><ele>293.0</ele><time>2026-04-04T11:17:21.576Z</time></trkpt><trkpt lat="43.343862" lon="11.4015032"><ele>293.0</ele><time>2026-04-04T11:17:22.581Z</time></trkpt><trkpt lat="43.343741" lon="11.4015685"><ele>292.75</ele><time>2026-04-04T11:17:23.582Z</time></trkpt><trkpt lat="43.3436226" lon="11.4016345"><ele>292.5</ele><time>2026-04-04T11:17:24.578Z</time></trkpt><trkpt lat="43.343517" lon="11.4017033"><ele>292.25</ele><time>2026-04-04T11:17:25.575Z</time></trkpt><trkpt lat="43.3434212" lon="11.4017828"><ele>292.0</ele><time>2026-04-04T11:17:26.58Z</time></trkpt><trkpt lat="43.3433382" lon="11.4018735"><ele>292.0</ele><time>2026-04-04T11:17:27.581Z</time></trkpt><trkpt lat="43.3432689" lon="11.4019713"><ele>292.0</ele><time>2026-04-04T11:17:28.577Z</time></trkpt><trkpt lat="43.3432112" lon="11.4020832"><ele>292.0</ele><time>2026-04-04T11:17:29.581Z</time></trkpt><trkpt lat="43.3431645" lon="11.4022073"><ele>292.0</ele><time>2026-04-04T11:17:30.58Z</time></trkpt><trkpt lat="43.3431265" lon="11.4023389"><ele>292.0</ele><time>2026-04-04T11:17:31.585Z</time></trkpt><trkpt lat="43.3431022" lon="11.40247"><ele>291.4</ele><time>2026-04-04T11:17:32.582Z</time></trkpt><trkpt lat="43.3430937" lon="11.4025894"><ele>290.79999999999995</ele><time>2026-04-04T11:17:33.581Z</time></trkpt><trkpt lat="43.3430858" lon="11.4027048"><ele>290.2</ele><time>2026-04-04T11:17:34.58Z</time></trkpt><trkpt lat="43.3430737" lon="11.4028238"><ele>289.59999999999997</ele><time>2026-04-04T11:17:35.576Z</time></trkpt><trkpt lat="43.3430504" lon="11.4029494"><ele>289.0</ele><time>2026-04-04T11:17:36.571Z</time></trkpt><trkpt lat="43.3430098" lon="11.4030697"><ele>289.0</ele><time>2026-04-04T11:17:37.578Z</time></trkpt><trkpt lat="43.3429523" lon="11.40318"><ele>289.0</ele><time>2026-04-04T11:17:38.578Z</time></trkpt><trkpt lat="43.3428755" lon="11.4032563"><ele>289.0</ele><time>2026-04-04T11:17:39.577Z</time></trkpt><trkpt lat="43.3427827" lon="11.4033019"><ele>289.0</ele><time>2026-04-04T11:17:40.575Z</time></trkpt><trkpt lat="43.3426857" lon="11.4033174"><ele>289.0</ele><time>2026-04-04T11:17:41.577Z</time></trkpt><trkpt lat="43.342594" lon="11.4033298"><ele>289.0</ele><time>2026-04-04T11:17:42.578Z</time></trkpt><trkpt lat="43.3425124" lon="11.403354"><ele>289.0</ele><time>2026-04-04T11:17:43.581Z</time></trkpt><trkpt lat="43.3424376" lon="11.4033844"><ele>289.0</ele><time>2026-04-04T11:17:44.586Z</time></trkpt><trkpt lat="43.3423699" lon="11.4034313"><ele>289.0</ele><time>2026-04-04T11:17:45.573Z</time></trkpt><trkpt lat="43.3423025" lon="11.4034886"><ele>289.0</ele><time>2026-04-04T11:17:46.574Z</time></trkpt><trkpt lat="43.3422303" lon="11.4035625"><ele>289.0</ele><time>2026-04-04T11:17:47.583Z</time></trkpt><trkpt lat="43.3421462" lon="11.4036576"><ele>287.75</ele><time>2026-04-04T11:17:48.581Z</time></trkpt><trkpt lat="43.3420531" lon="11.4037555"><ele>286.5</ele><time>2026-04-04T11:17:49.576Z</time></trkpt><trkpt lat="43.3419572" lon="11.403865"><ele>285.25</ele><time>2026-04-04T11:17:50.581Z</time></trkpt><trkpt lat="43.3418611" lon="11.4039781"><ele>284.0</ele><time>2026-04-04T11:17:51.576Z</time></trkpt><trkpt lat="43.3417589" lon="11.4040952"><ele>284.0</ele><time>2026-04-04T11:17:52.583Z</time></trkpt><trkpt lat="43.3416506" lon="11.4042148"><ele>284.0</ele><time>2026-04-04T11:17:53.575Z</time></trkpt><trkpt lat="43.3415498" lon="11.4043289"><ele>284.0</ele><time>2026-04-04T11:17:54.583Z</time></trkpt><trkpt lat="43.3414584" lon="11.4044371"><ele>284.0</ele><time>2026-04-04T11:17:55.577Z</time></trkpt><trkpt lat="43.3413802" lon="11.4045417"><ele>285.5</ele><time>2026-04-04T11:17:56.581Z</time></trkpt><trkpt lat="43.3413103" lon="11.4046567"><ele>287.0</ele><time>2026-04-04T11:17:57.576Z</time></trkpt><trkpt lat="43.3412391" lon="11.404773"><ele>288.5</ele><time>2026-04-04T11:17:58.577Z</time></trkpt><trkpt lat="43.3411613" lon="11.404892"><ele>290.0</ele><time>2026-04-04T11:17:59.584Z</time></trkpt><trkpt lat="43.3410825" lon="11.4050113"><ele>290.0</ele><time>2026-04-04T11:18:00.578Z</time></trkpt><trkpt lat="43.3410002" lon="11.4051266"><ele>290.0</ele><time>2026-04-04T11:18:01.576Z</time></trkpt><trkpt lat="43.3409185" lon="11.4052229"><ele>290.0</ele><time>2026-04-04T11:18:02.585Z</time></trkpt><trkpt lat="43.3408268" lon="11.4053039"><ele>290.0</ele><time>2026-04-04T11:18:03.57Z</time></trkpt><trkpt lat="43.3407256" lon="11.4053776"><ele>290.0</ele><time>2026-04-04T11:18:04.581Z</time></trkpt><trkpt lat="43.3406168" lon="11.4054493"><ele>290.0</ele><time>2026-04-04T11:18:05.585Z</time></trkpt><trkpt lat="43.3405001" lon="11.4055254"><ele>290.0</ele><time>2026-04-04T11:18:06.579Z</time></trkpt><trkpt lat="43.3403754" lon="11.4056015"><ele>290.0</ele><time>2026-04-04T11:18:07.575Z</time></trkpt><trkpt lat="43.3402459" lon="11.4056802"><ele>290.0</ele><time>2026-04-04T11:18:08.585Z</time></trkpt><trkpt lat="43.3401116" lon="11.4057661"><ele>290.0</ele><time>2026-04-04T11:18:09.577Z</time></trkpt><trkpt lat="43.339982" lon="11.4058499"><ele>290.0</ele><time>2026-04-04T11:18:10.582Z</time></trkpt><trkpt lat="43.3398685" lon="11.4059234"><ele>290.0</ele><time>2026-04-04T11:18:11.573Z</time></trkpt><trkpt lat="43.3397661" lon="11.4059959"><ele>290.0</ele><time>2026-04-04T11:18:12.583Z</time></trkpt><trkpt lat="43.3396854" lon="11.4060673"><ele>289.5</ele><time>2026-04-04T11:18:13.57Z</time></trkpt><trkpt lat="43.3396217" lon="11.4061434"><ele>289.0</ele><time>2026-04-04T11:18:14.586Z</time></trkpt><trkpt lat="43.3395732" lon="11.4062331"><ele>288.5</ele><time>2026-04-04T11:18:15.577Z</time></trkpt><trkpt lat="43.3395307" lon="11.4063345"><ele>288.0</ele><time>2026-04-04T11:18:16.573Z</time></trkpt><trkpt lat="43.3394803" lon="11.4064428"><ele>287.5</ele><time>2026-04-04T11:18:17.58Z</time></trkpt><trkpt lat="43.3394201" lon="11.4065544"><ele>287.0</ele><time>2026-04-04T11:18:18.577Z</time></trkpt><trkpt lat="43.3393471" lon="11.4066628"><ele>287.0</ele><time>2026-04-04T11:18:19.591Z</time></trkpt><trkpt lat="43.3392673" lon="11.4067741"><ele>287.0</ele><time>2026-04-04T11:18:20.586Z</time></trkpt><trkpt lat="43.3391781" lon="11.4068812"><ele>287.0</ele><time>2026-04-04T11:18:21.573Z</time></trkpt><trkpt lat="43.3390818" lon="11.4069924"><ele>287.0</ele><time>2026-04-04T11:18:22.583Z</time></trkpt><trkpt lat="43.3389788" lon="11.4071211"><ele>287.5</ele><time>2026-04-04T11:18:23.577Z</time></trkpt><trkpt lat="43.3388696" lon="11.4072577"><ele>288.0</ele><time>2026-04-04T11:18:24.581Z</time></trkpt><trkpt lat="43.3387675" lon="11.4073774"><ele>288.5</ele><time>2026-04-04T11:18:25.579Z</time></trkpt><trkpt lat="43.3386697" lon="11.4074796"><ele>289.0</ele><time>2026-04-04T11:18:26.584Z</time></trkpt><trkpt lat="43.3385749" lon="11.4075613"><ele>289.0</ele><time>2026-04-04T11:18:27.583Z</time></trkpt><trkpt lat="43.3384816" lon="11.4076405"><ele>289.0</ele><time>2026-04-04T11:18:28.585Z</time></trkpt><trkpt lat="43.3383929" lon="11.4077124"><ele>289.0</ele><time>2026-04-04T11:18:29.588Z</time></trkpt><trkpt lat="43.3383093" lon="11.4077664"><ele>289.0</ele><time>2026-04-04T11:18:30.574Z</time></trkpt><trkpt lat="43.3382353" lon="11.407801"><ele>289.0</ele><time>2026-04-04T11:18:31.583Z</time></trkpt><trkpt lat="43.3381709" lon="11.4078174"><ele>289.0</ele><time>2026-04-04T11:18:32.583Z</time></trkpt><trkpt lat="43.3380537" lon="11.4077904"><ele>289.4</ele><time>2026-04-04T11:18:34.582Z</time></trkpt><trkpt lat="43.3379953" lon="11.4077491"><ele>289.79999999999995</ele><time>2026-04-04T11:18:35.584Z</time></trkpt><trkpt lat="43.3379288" lon="11.4076844"><ele>290.20000000000005</ele><time>2026-04-04T11:18:36.581Z</time></trkpt><trkpt lat="43.3378496" lon="11.4076113"><ele>290.6</ele><time>2026-04-04T11:18:37.587Z</time></trkpt><trkpt lat="43.3377619" lon="11.4075286"><ele>291.0</ele><time>2026-04-04T11:18:38.577Z</time></trkpt><trkpt lat="43.337666" lon="11.407432"><ele>291.0</ele><time>2026-04-04T11:18:39.588Z</time></trkpt><trkpt lat="43.3375613" lon="11.4073361"><ele>291.0</ele><time>2026-04-04T11:18:40.577Z</time></trkpt><trkpt lat="43.3374625" lon="11.4072444"><ele>291.0</ele><time>2026-04-04T11:18:41.581Z</time></trkpt><trkpt lat="43.3373717" lon="11.4071574"><ele>291.0</ele><time>2026-04-04T11:18:42.579Z</time></trkpt><trkpt lat="43.3372748" lon="11.4070806"><ele>291.25</ele><time>2026-04-04T11:18:43.575Z</time></trkpt><trkpt lat="43.3371653" lon="11.4070096"><ele>291.5</ele><time>2026-04-04T11:18:44.583Z</time></trkpt><trkpt lat="43.3370399" lon="11.4069425"><ele>291.75</ele><time>2026-04-04T11:18:45.579Z</time></trkpt><trkpt lat="43.3369125" lon="11.4068841"><ele>292.0</ele><time>2026-04-04T11:18:46.571Z</time></trkpt><trkpt lat="43.3367828" lon="11.4068295"><ele>292.0</ele><time>2026-04-04T11:18:47.577Z</time></trkpt><trkpt lat="43.336661" lon="11.4067714"><ele>292.0</ele><time>2026-04-04T11:18:48.575Z</time></trkpt><trkpt lat="43.3365412" lon="11.4067197"><ele>292.0</ele><time>2026-04-04T11:18:49.584Z</time></trkpt><trkpt lat="43.3364292" lon="11.4066847"><ele>292.0</ele><time>2026-04-04T11:18:50.585Z</time></trkpt><trkpt lat="43.3363245" lon="11.4066706"><ele>293.4</ele><time>2026-04-04T11:18:51.584Z</time></trkpt><trkpt lat="43.3362284" lon="11.4066793"><ele>294.79999999999995</ele><time>2026-04-04T11:18:52.585Z</time></trkpt><trkpt lat="43.336137" lon="11.4067066"><ele>296.2</ele><time>2026-04-04T11:18:53.577Z</time></trkpt><trkpt lat="43.3360522" lon="11.4067495"><ele>297.59999999999997</ele><time>2026-04-04T11:18:54.581Z</time></trkpt><trkpt lat="43.3359627" lon="11.4068201"><ele>299.0</ele><time>2026-04-04T11:18:55.566Z</time></trkpt><trkpt lat="43.335878" lon="11.4069157"><ele>299.0</ele><time>2026-04-04T11:18:56.578Z</time></trkpt><trkpt lat="43.3357807" lon="11.4070241"><ele>299.0</ele><time>2026-04-04T11:18:57.587Z</time></trkpt><trkpt lat="43.3356886" lon="11.4071297"><ele>299.0</ele><time>2026-04-04T11:18:58.57Z</time></trkpt><trkpt lat="43.3355993" lon="11.4072217"><ele>299.0</ele><time>2026-04-04T11:18:59.583Z</time></trkpt><trkpt lat="43.3355158" lon="11.4072966"><ele>298.59999999999997</ele><time>2026-04-04T11:19:00.583Z</time></trkpt><trkpt lat="43.335432" lon="11.4073481"><ele>298.2</ele><time>2026-04-04T11:19:01.583Z</time></trkpt><trkpt lat="43.3353413" lon="11.4073808"><ele>297.79999999999995</ele><time>2026-04-04T11:19:02.575Z</time></trkpt><trkpt lat="43.3352443" lon="11.4073883"><ele>297.4</ele><time>2026-04-04T11:19:03.581Z</time></trkpt><trkpt lat="43.3351388" lon="11.4074061"><ele>297.0</ele><time>2026-04-04T11:19:04.583Z</time></trkpt><trkpt lat="43.3350339" lon="11.4074341"><ele>297.0</ele><time>2026-04-04T11:19:05.577Z</time></trkpt><trkpt lat="43.3349337" lon="11.4074576"><ele>297.0</ele><time>2026-04-04T11:19:06.573Z</time></trkpt><trkpt lat="43.3348267" lon="11.4074697"><ele>297.0</ele><time>2026-04-04T11:19:07.578Z</time></trkpt><trkpt lat="43.3347129" lon="11.4074729"><ele>297.0</ele><time>2026-04-04T11:19:08.57Z</time></trkpt><trkpt lat="43.3346036" lon="11.4074752"><ele>297.0</ele><time>2026-04-04T11:19:09.577Z</time></trkpt><trkpt lat="43.3345112" lon="11.4074751"><ele>295.6</ele><time>2026-04-04T11:19:10.582Z</time></trkpt><trkpt lat="43.3344369" lon="11.4074734"><ele>294.2</ele><time>2026-04-04T11:19:11.588Z</time></trkpt><trkpt lat="43.3343319" lon="11.4074319"><ele>292.8</ele><time>2026-04-04T11:19:13.59Z</time></trkpt><trkpt lat="43.334276" lon="11.4073302"><ele>291.4</ele><time>2026-04-04T11:19:15.589Z</time></trkpt><trkpt lat="43.3342541" lon="11.4071974"><ele>290.0</ele><time>2026-04-04T11:19:17.586Z</time></trkpt><trkpt lat="43.3342334" lon="11.4070211"><ele>289.83333333333337</ele><time>2026-04-04T11:19:19.569Z</time></trkpt><trkpt lat="43.3342241" lon="11.4069112"><ele>289.6666666666667</ele><time>2026-04-04T11:19:20.581Z</time></trkpt><trkpt lat="43.3342112" lon="11.4068002"><ele>289.5</ele><time>2026-04-04T11:19:21.585Z</time></trkpt><trkpt lat="43.3341991" lon="11.4066947"><ele>289.3333333333333</ele><time>2026-04-04T11:19:22.581Z</time></trkpt><trkpt lat="43.334188" lon="11.4065924"><ele>289.16666666666663</ele><time>2026-04-04T11:19:23.572Z</time></trkpt><trkpt lat="43.3341736" lon="11.4064818"><ele>289.0</ele><time>2026-04-04T11:19:24.588Z</time></trkpt><trkpt lat="43.3341551" lon="11.4063637"><ele>288.4</ele><time>2026-04-04T11:19:25.58Z</time></trkpt><trkpt lat="43.334138" lon="11.4062351"><ele>287.79999999999995</ele><time>2026-04-04T11:19:26.575Z</time></trkpt><trkpt lat="43.3341231" lon="11.4061042"><ele>287.20000000000005</ele><time>2026-04-04T11:19:27.582Z</time></trkpt><trkpt lat="43.3341093" lon="11.4059823"><ele>286.6</ele><time>2026-04-04T11:19:28.579Z</time></trkpt><trkpt lat="43.334108" lon="11.4058604"><ele>286.0</ele><time>2026-04-04T11:19:29.577Z</time></trkpt><trkpt lat="43.3341136" lon="11.4057423"><ele>286.0</ele><time>2026-04-04T11:19:30.577Z</time></trkpt><trkpt lat="43.3341212" lon="11.4056209"><ele>286.0</ele><time>2026-04-04T11:19:31.58Z</time></trkpt><trkpt lat="43.3341262" lon="11.4054992"><ele>286.0</ele><time>2026-04-04T11:19:32.57Z</time></trkpt><trkpt lat="43.3341345" lon="11.405377"><ele>286.0</ele><time>2026-04-04T11:19:33.577Z</time></trkpt><trkpt lat="43.3341453" lon="11.4052416"><ele>286.0</ele><time>2026-04-04T11:19:34.592Z</time></trkpt><trkpt lat="43.3341586" lon="11.4050967"><ele>285.2</ele><time>2026-04-04T11:19:35.573Z</time></trkpt><trkpt lat="43.3341746" lon="11.4049519"><ele>284.40000000000003</ele><time>2026-04-04T11:19:36.579Z</time></trkpt><trkpt lat="43.3341891" lon="11.4047973"><ele>283.6</ele><time>2026-04-04T11:19:37.568Z</time></trkpt><trkpt lat="43.3342019" lon="11.4046527"><ele>282.8</ele><time>2026-04-04T11:19:38.583Z</time></trkpt><trkpt lat="43.3342148" lon="11.4045167"><ele>282.0</ele><time>2026-04-04T11:19:39.59Z</time></trkpt><trkpt lat="43.3342211" lon="11.4043958"><ele>282.0</ele><time>2026-04-04T11:19:40.578Z</time></trkpt><trkpt lat="43.3342236" lon="11.4042879"><ele>282.0</ele><time>2026-04-04T11:19:41.582Z</time></trkpt><trkpt lat="43.3342203" lon="11.4041989"><ele>282.0</ele><time>2026-04-04T11:19:42.607Z</time></trkpt><trkpt lat="43.3341772" lon="11.4040674"><ele>282.0</ele><time>2026-04-04T11:19:44.583Z</time></trkpt><trkpt lat="43.3340868" lon="11.404028"><ele>282.0</ele><time>2026-04-04T11:19:46.579Z</time></trkpt><trkpt lat="43.3339478" lon="11.4040773"><ele>281.5</ele><time>2026-04-04T11:19:48.574Z</time></trkpt><trkpt lat="43.3338424" lon="11.4041344"><ele>281.0</ele><time>2026-04-04T11:19:49.585Z</time></trkpt><trkpt lat="43.3337169" lon="11.4042006"><ele>280.5</ele><time>2026-04-04T11:19:50.586Z</time></trkpt><trkpt lat="43.3335806" lon="11.4042669"><ele>280.0</ele><time>2026-04-04T11:19:51.581Z</time></trkpt><trkpt lat="43.3334387" lon="11.404341"><ele>280.0</ele><time>2026-04-04T11:19:52.577Z</time></trkpt><trkpt lat="43.3333116" lon="11.4044048"><ele>280.0</ele><time>2026-04-04T11:19:53.58Z</time></trkpt><trkpt lat="43.333187" lon="11.4044698"><ele>280.0</ele><time>2026-04-04T11:19:54.572Z</time></trkpt><trkpt lat="43.3330623" lon="11.4045274"><ele>280.0</ele><time>2026-04-04T11:19:55.576Z</time></trkpt><trkpt lat="43.3329381" lon="11.4045963"><ele>279.25</ele><time>2026-04-04T11:19:56.569Z</time></trkpt><trkpt lat="43.3328128" lon="11.4046651"><ele>278.5</ele><time>2026-04-04T11:19:57.579Z</time></trkpt><trkpt lat="43.3326946" lon="11.404735"><ele>277.75</ele><time>2026-04-04T11:19:58.579Z</time></trkpt><trkpt lat="43.3325847" lon="11.4047965"><ele>277.0</ele><time>2026-04-04T11:19:59.571Z</time></trkpt><trkpt lat="43.332478" lon="11.4048504"><ele>277.0</ele><time>2026-04-04T11:20:00.585Z</time></trkpt><trkpt lat="43.3323753" lon="11.4049043"><ele>277.0</ele><time>2026-04-04T11:20:01.57Z</time></trkpt><trkpt lat="43.3322679" lon="11.4049599"><ele>277.0</ele><time>2026-04-04T11:20:02.574Z</time></trkpt><trkpt lat="43.3321551" lon="11.405018"><ele>277.0</ele><time>2026-04-04T11:20:03.581Z</time></trkpt><trkpt lat="43.3320431" lon="11.4050853"><ele>277.25</ele><time>2026-04-04T11:20:04.575Z</time></trkpt><trkpt lat="43.3319271" lon="11.4051437"><ele>277.5</ele><time>2026-04-04T11:20:05.583Z</time></trkpt><trkpt lat="43.3318069" lon="11.4051902"><ele>277.75</ele><time>2026-04-04T11:20:06.576Z</time></trkpt><trkpt lat="43.331683" lon="11.4052228"><ele>278.0</ele><time>2026-04-04T11:20:07.58Z</time></trkpt><trkpt lat="43.3315501" lon="11.4052557"><ele>278.0</ele><time>2026-04-04T11:20:08.577Z</time></trkpt><trkpt lat="43.331403" lon="11.4052856"><ele>278.0</ele><time>2026-04-04T11:20:09.583Z</time></trkpt><trkpt lat="43.3312471" lon="11.405327"><ele>278.0</ele><time>2026-04-04T11:20:10.579Z</time></trkpt><trkpt lat="43.3310937" lon="11.405369"><ele>276.5</ele><time>2026-04-04T11:20:11.58Z</time></trkpt><trkpt lat="43.330948" lon="11.4054063"><ele>275.0</ele><time>2026-04-04T11:20:12.579Z</time></trkpt><trkpt lat="43.3308235" lon="11.4054447"><ele>273.5</ele><time>2026-04-04T11:20:13.573Z</time></trkpt><trkpt lat="43.3307091" lon="11.405478"><ele>272.0</ele><time>2026-04-04T11:20:14.563Z</time></trkpt><trkpt lat="43.3305993" lon="11.40552"><ele>270.4</ele><time>2026-04-04T11:20:15.585Z</time></trkpt><trkpt lat="43.3304936" lon="11.4055613"><ele>268.79999999999995</ele><time>2026-04-04T11:20:16.567Z</time></trkpt><trkpt lat="43.3303924" lon="11.4056073"><ele>267.2</ele><time>2026-04-04T11:20:17.583Z</time></trkpt><trkpt lat="43.3302973" lon="11.4056504"><ele>265.59999999999997</ele><time>2026-04-04T11:20:18.576Z</time></trkpt><trkpt lat="43.3302022" lon="11.4056987"><ele>264.0</ele><time>2026-04-04T11:20:19.581Z</time></trkpt><trkpt lat="43.330104" lon="11.4057513"><ele>264.0</ele><time>2026-04-04T11:20:20.584Z</time></trkpt><trkpt lat="43.3300009" lon="11.4058088"><ele>264.0</ele><time>2026-04-04T11:20:21.579Z</time></trkpt><trkpt lat="43.3299049" lon="11.4058693"><ele>264.0</ele><time>2026-04-04T11:20:22.587Z</time></trkpt><trkpt lat="43.3298142" lon="11.4059334"><ele>264.0</ele><time>2026-04-04T11:20:23.579Z</time></trkpt><trkpt lat="43.3297277" lon="11.4060058"><ele>264.0</ele><time>2026-04-04T11:20:24.584Z</time></trkpt><trkpt lat="43.3296477" lon="11.4060775"><ele>263.0</ele><time>2026-04-04T11:20:25.579Z</time></trkpt><trkpt lat="43.3295718" lon="11.4061506"><ele>262.0</ele><time>2026-04-04T11:20:26.576Z</time></trkpt><trkpt lat="43.3294952" lon="11.4062306"><ele>261.0</ele><time>2026-04-04T11:20:27.58Z</time></trkpt><trkpt lat="43.3294236" lon="11.4063103"><ele>260.0</ele><time>2026-04-04T11:20:28.576Z</time></trkpt><trkpt lat="43.3293537" lon="11.4063871"><ele>259.0</ele><time>2026-04-04T11:20:29.585Z</time></trkpt><trkpt lat="43.3292878" lon="11.4064651"><ele>258.8333333333333</ele><time>2026-04-04T11:20:30.578Z</time></trkpt><trkpt lat="43.3292267" lon="11.406544"><ele>258.66666666666663</ele><time>2026-04-04T11:20:31.579Z</time></trkpt><trkpt lat="43.329169" lon="11.4066193"><ele>258.5</ele><time>2026-04-04T11:20:32.572Z</time></trkpt><trkpt lat="43.3291116" lon="11.4066932"><ele>258.3333333333333</ele><time>2026-04-04T11:20:33.565Z</time></trkpt><trkpt lat="43.329054" lon="11.4067605"><ele>258.1666666666667</ele><time>2026-04-04T11:20:34.577Z</time></trkpt><trkpt lat="43.3289878" lon="11.4068334"><ele>258.0</ele><time>2026-04-04T11:20:35.585Z</time></trkpt><trkpt lat="43.328923" lon="11.4069123"><ele>257.8</ele><time>2026-04-04T11:20:36.589Z</time></trkpt><trkpt lat="43.3288551" lon="11.4069894"><ele>257.6</ele><time>2026-04-04T11:20:37.581Z</time></trkpt><trkpt lat="43.328782" lon="11.4070725"><ele>257.4</ele><time>2026-04-04T11:20:38.58Z</time></trkpt><trkpt lat="43.3287093" lon="11.407164"><ele>257.2</ele><time>2026-04-04T11:20:39.578Z</time></trkpt><trkpt lat="43.3286332" lon="11.4072579"><ele>257.0</ele><time>2026-04-04T11:20:40.573Z</time></trkpt><trkpt lat="43.328552" lon="11.4073518"><ele>256.0</ele><time>2026-04-04T11:20:41.581Z</time></trkpt><trkpt lat="43.3284657" lon="11.4074522"><ele>255.0</ele><time>2026-04-04T11:20:42.583Z</time></trkpt><trkpt lat="43.3283768" lon="11.4075567"><ele>254.0</ele><time>2026-04-04T11:20:43.579Z</time></trkpt><trkpt lat="43.3282825" lon="11.4076637"><ele>253.0</ele><time>2026-04-04T11:20:44.582Z</time></trkpt><trkpt lat="43.3281861" lon="11.4077766"><ele>253.0</ele><time>2026-04-04T11:20:45.578Z</time></trkpt><trkpt lat="43.328089" lon="11.4078928"><ele>253.0</ele><time>2026-04-04T11:20:46.573Z</time></trkpt><trkpt lat="43.3279915" lon="11.4080092"><ele>253.0</ele><time>2026-04-04T11:20:47.58Z</time></trkpt><trkpt lat="43.327894" lon="11.4081263"><ele>253.0</ele><time>2026-04-04T11:20:48.577Z</time></trkpt><trkpt lat="43.3277985" lon="11.4082397"><ele>253.0</ele><time>2026-04-04T11:20:49.576Z</time></trkpt><trkpt lat="43.3277093" lon="11.4083399"><ele>253.0</ele><time>2026-04-04T11:20:50.589Z</time></trkpt><trkpt lat="43.3276257" lon="11.4084354"><ele>253.0</ele><time>2026-04-04T11:20:51.575Z</time></trkpt><trkpt lat="43.3275476" lon="11.4085246"><ele>253.0</ele><time>2026-04-04T11:20:52.576Z</time></trkpt><trkpt lat="43.3274728" lon="11.4086083"><ele>253.0</ele><time>2026-04-04T11:20:53.581Z</time></trkpt><trkpt lat="43.3273996" lon="11.4086865"><ele>253.0</ele><time>2026-04-04T11:20:54.578Z</time></trkpt><trkpt lat="43.3273318" lon="11.4087652"><ele>253.0</ele><time>2026-04-04T11:20:55.589Z</time></trkpt><trkpt lat="43.3272658" lon="11.408843"><ele>253.0</ele><time>2026-04-04T11:20:56.583Z</time></trkpt><trkpt lat="43.327196" lon="11.408926"><ele>253.0</ele><time>2026-04-04T11:20:57.579Z</time></trkpt><trkpt lat="43.3271259" lon="11.4090115"><ele>253.0</ele><time>2026-04-04T11:20:58.571Z</time></trkpt><trkpt lat="43.3270555" lon="11.4091094"><ele>251.60000000000002</ele><time>2026-04-04T11:20:59.578Z</time></trkpt><trkpt lat="43.3269873" lon="11.4092171"><ele>250.20000000000002</ele><time>2026-04-04T11:21:00.579Z</time></trkpt><trkpt lat="43.3269198" lon="11.4093378"><ele>248.8</ele><time>2026-04-04T11:21:01.574Z</time></trkpt><trkpt lat="43.3268528" lon="11.4094468"><ele>247.4</ele><time>2026-04-04T11:21:02.574Z</time></trkpt><trkpt lat="43.3267863" lon="11.4095519"><ele>246.0</ele><time>2026-04-04T11:21:03.583Z</time></trkpt><trkpt lat="43.3267159" lon="11.4096456"><ele>245.4</ele><time>2026-04-04T11:21:04.586Z</time></trkpt><trkpt lat="43.3266512" lon="11.4097286"><ele>244.8</ele><time>2026-04-04T11:21:05.576Z</time></trkpt><trkpt lat="43.3265713" lon="11.4098043"><ele>244.20000000000002</ele><time>2026-04-04T11:21:06.584Z</time></trkpt><trkpt lat="43.3264961" lon="11.4098826"><ele>243.60000000000002</ele><time>2026-04-04T11:21:07.58Z</time></trkpt><trkpt lat="43.3264219" lon="11.4099678"><ele>243.0</ele><time>2026-04-04T11:21:08.577Z</time></trkpt><trkpt lat="43.3263504" lon="11.4100471"><ele>243.0</ele><time>2026-04-04T11:21:09.584Z</time></trkpt><trkpt lat="43.326281" lon="11.4101254"><ele>243.0</ele><time>2026-04-04T11:21:10.583Z</time></trkpt><trkpt lat="43.3262224" lon="11.4101933"><ele>243.0</ele><time>2026-04-04T11:21:11.575Z</time></trkpt><trkpt lat="43.3261709" lon="11.4102525"><ele>243.0</ele><time>2026-04-04T11:21:12.586Z</time></trkpt><trkpt lat="43.3260872" lon="11.4103304"><ele>243.0</ele><time>2026-04-04T11:21:14.593Z</time></trkpt><trkpt lat="43.3260204" lon="11.4103397"><ele>243.0</ele><time>2026-04-04T11:21:16.575Z</time></trkpt><trkpt lat="43.3259607" lon="11.4102439"><ele>243.0</ele><time>2026-04-04T11:21:19.583Z</time></trkpt><trkpt lat="43.3259285" lon="11.4101611"><ele>243.0</ele><time>2026-04-04T11:21:21.582Z</time></trkpt><trkpt lat="43.3259032" lon="11.4100729"><ele>243.0</ele><time>2026-04-04T11:21:23.577Z</time></trkpt><trkpt lat="43.325871" lon="11.4099806"><ele>243.0</ele><time>2026-04-04T11:21:25.576Z</time></trkpt><trkpt lat="43.3258443" lon="11.4098647"><ele>243.0</ele><time>2026-04-04T11:21:27.571Z</time></trkpt><trkpt lat="43.3258366" lon="11.409721"><ele>243.0</ele><time>2026-04-04T11:21:29.578Z</time></trkpt><trkpt lat="43.3258468" lon="11.4095676"><ele>241.4</ele><time>2026-04-04T11:21:31.572Z</time></trkpt><trkpt lat="43.3258542" lon="11.4094775"><ele>239.8</ele><time>2026-04-04T11:21:32.573Z</time></trkpt><trkpt lat="43.32586" lon="11.4093818"><ele>238.2</ele><time>2026-04-04T11:21:33.577Z</time></trkpt><trkpt lat="43.3258608" lon="11.4092615"><ele>236.6</ele><time>2026-04-04T11:21:34.575Z</time></trkpt><trkpt lat="43.3258524" lon="11.4091083"><ele>235.0</ele><time>2026-04-04T11:21:35.587Z</time></trkpt><trkpt lat="43.3258378" lon="11.4089246"><ele>233.66666666666666</ele><time>2026-04-04T11:21:36.579Z</time></trkpt><trkpt lat="43.3258164" lon="11.4087135"><ele>232.33333333333331</ele><time>2026-04-04T11:21:37.58Z</time></trkpt><trkpt lat="43.325792" lon="11.4084947"><ele>231.0</ele><time>2026-04-04T11:21:38.578Z</time></trkpt><trkpt lat="43.3257682" lon="11.4082854"><ele>231.0</ele><time>2026-04-04T11:21:39.578Z</time></trkpt><trkpt lat="43.3257463" lon="11.4080784"><ele>231.0</ele><time>2026-04-04T11:21:40.587Z</time></trkpt><trkpt lat="43.3257251" lon="11.4078795"><ele>231.0</ele><time>2026-04-04T11:21:41.583Z</time></trkpt><trkpt lat="43.3257036" lon="11.4076844"><ele>231.0</ele><time>2026-04-04T11:21:42.592Z</time></trkpt><trkpt lat="43.3256853" lon="11.4074884"><ele>230.0</ele><time>2026-04-04T11:21:43.583Z</time></trkpt><trkpt lat="43.3256667" lon="11.4072823"><ele>229.0</ele><time>2026-04-04T11:21:44.578Z</time></trkpt><trkpt lat="43.3256418" lon="11.40708"><ele>228.0</ele><time>2026-04-04T11:21:45.566Z</time></trkpt><trkpt lat="43.3256042" lon="11.4068847"><ele>227.0</ele><time>2026-04-04T11:21:46.571Z</time></trkpt><trkpt lat="43.3255466" lon="11.4066919"><ele>225.66666666666669</ele><time>2026-04-04T11:21:47.582Z</time></trkpt><trkpt lat="43.3254677" lon="11.4065083"><ele>224.33333333333331</ele><time>2026-04-04T11:21:48.587Z</time></trkpt><trkpt lat="43.3253796" lon="11.4063316"><ele>223.0</ele><time>2026-04-04T11:21:49.588Z</time></trkpt><trkpt lat="43.3253017" lon="11.4061581"><ele>221.5</ele><time>2026-04-04T11:21:50.586Z</time></trkpt><trkpt lat="43.3252379" lon="11.4059859"><ele>220.0</ele><time>2026-04-04T11:21:51.578Z</time></trkpt><trkpt lat="43.3251836" lon="11.4058172"><ele>218.5</ele><time>2026-04-04T11:21:52.589Z</time></trkpt><trkpt lat="43.3251366" lon="11.4056544"><ele>217.0</ele><time>2026-04-04T11:21:53.567Z</time></trkpt><trkpt lat="43.3250938" lon="11.4055007"><ele>216.5</ele><time>2026-04-04T11:21:54.579Z</time></trkpt><trkpt lat="43.3250585" lon="11.4053531"><ele>216.0</ele><time>2026-04-04T11:21:55.577Z</time></trkpt><trkpt lat="43.3250273" lon="11.4052032"><ele>215.5</ele><time>2026-04-04T11:21:56.573Z</time></trkpt><trkpt lat="43.3249987" lon="11.4050367"><ele>215.0</ele><time>2026-04-04T11:21:57.576Z</time></trkpt><trkpt lat="43.3249786" lon="11.4048621"><ele>215.0</ele><time>2026-04-04T11:21:58.585Z</time></trkpt><trkpt lat="43.3249693" lon="11.4046794"><ele>215.0</ele><time>2026-04-04T11:21:59.568Z</time></trkpt><trkpt lat="43.324964" lon="11.4044977"><ele>215.0</ele><time>2026-04-04T11:22:00.567Z</time></trkpt><trkpt lat="43.3249607" lon="11.4043304"><ele>215.0</ele><time>2026-04-04T11:22:01.566Z</time></trkpt><trkpt lat="43.3249576" lon="11.4041735"><ele>214.8</ele><time>2026-04-04T11:22:02.572Z</time></trkpt><trkpt lat="43.3249533" lon="11.4040285"><ele>214.6</ele><time>2026-04-04T11:22:03.592Z</time></trkpt><trkpt lat="43.3249531" lon="11.4038897"><ele>214.39999999999998</ele><time>2026-04-04T11:22:04.569Z</time></trkpt><trkpt lat="43.3249599" lon="11.4037507"><ele>214.2</ele><time>2026-04-04T11:22:05.575Z</time></trkpt><trkpt lat="43.3249692" lon="11.4036068"><ele>214.0</ele><time>2026-04-04T11:22:06.579Z</time></trkpt><trkpt lat="43.3249801" lon="11.4034561"><ele>213.5</ele><time>2026-04-04T11:22:07.57Z</time></trkpt><trkpt lat="43.324993" lon="11.4032926"><ele>213.0</ele><time>2026-04-04T11:22:08.567Z</time></trkpt><trkpt lat="43.3250099" lon="11.4031179"><ele>212.5</ele><time>2026-04-04T11:22:09.574Z</time></trkpt><trkpt lat="43.3250264" lon="11.4029307"><ele>212.0</ele><time>2026-04-04T11:22:10.581Z</time></trkpt><trkpt lat="43.3250429" lon="11.4027319"><ele>213.33333333333334</ele><time>2026-04-04T11:22:11.575Z</time></trkpt><trkpt lat="43.3250598" lon="11.4025283"><ele>214.66666666666669</ele><time>2026-04-04T11:22:12.578Z</time></trkpt><trkpt lat="43.3250787" lon="11.4023177"><ele>216.0</ele><time>2026-04-04T11:22:13.575Z</time></trkpt><trkpt lat="43.3250934" lon="11.4021009"><ele>219.33333333333331</ele><time>2026-04-04T11:22:14.592Z</time></trkpt><trkpt lat="43.3251017" lon="11.401882"><ele>222.66666666666666</ele><time>2026-04-04T11:22:15.577Z</time></trkpt><trkpt lat="43.3251055" lon="11.4016607"><ele>226.0</ele><time>2026-04-04T11:22:16.579Z</time></trkpt><trkpt lat="43.3251067" lon="11.4014393"><ele>227.25</ele><time>2026-04-04T11:22:17.584Z</time></trkpt><trkpt lat="43.3251018" lon="11.401218"><ele>228.5</ele><time>2026-04-04T11:22:18.576Z</time></trkpt><trkpt lat="43.3250979" lon="11.4010179"><ele>229.75</ele><time>2026-04-04T11:22:19.578Z</time></trkpt><trkpt lat="43.3251054" lon="11.4008358"><ele>231.0</ele><time>2026-04-04T11:22:20.58Z</time></trkpt><trkpt lat="43.3251222" lon="11.4006481"><ele>232.25</ele><time>2026-04-04T11:22:21.575Z</time></trkpt><trkpt lat="43.3251452" lon="11.4004546"><ele>233.5</ele><time>2026-04-04T11:22:22.576Z</time></trkpt><trkpt lat="43.3251658" lon="11.4002548"><ele>234.75</ele><time>2026-04-04T11:22:23.598Z</time></trkpt><trkpt lat="43.325175" lon="11.4000424"><ele>236.0</ele><time>2026-04-04T11:22:24.582Z</time></trkpt><trkpt lat="43.3251708" lon="11.3998175"><ele>237.66666666666669</ele><time>2026-04-04T11:22:25.575Z</time></trkpt><trkpt lat="43.3251567" lon="11.3995836"><ele>239.33333333333331</ele><time>2026-04-04T11:22:26.587Z</time></trkpt><trkpt lat="43.3251431" lon="11.399343"><ele>241.0</ele><time>2026-04-04T11:22:27.572Z</time></trkpt><trkpt lat="43.3251325" lon="11.3991074"><ele>241.0</ele><time>2026-04-04T11:22:28.584Z</time></trkpt><trkpt lat="43.3251258" lon="11.3988947"><ele>241.0</ele><time>2026-04-04T11:22:29.588Z</time></trkpt><trkpt lat="43.3251177" lon="11.3986963"><ele>241.0</ele><time>2026-04-04T11:22:30.579Z</time></trkpt><trkpt lat="43.3251085" lon="11.3985164"><ele>241.0</ele><time>2026-04-04T11:22:31.578Z</time></trkpt><trkpt lat="43.3251018" lon="11.3983509"><ele>242.20000000000002</ele><time>2026-04-04T11:22:32.583Z</time></trkpt><trkpt lat="43.3250996" lon="11.3981972"><ele>243.40000000000003</ele><time>2026-04-04T11:22:33.587Z</time></trkpt><trkpt lat="43.3250988" lon="11.3980633"><ele>244.6</ele><time>2026-04-04T11:22:34.584Z</time></trkpt><trkpt lat="43.3251044" lon="11.3979354"><ele>245.8</ele><time>2026-04-04T11:22:35.577Z</time></trkpt><trkpt lat="43.3251221" lon="11.3977983"><ele>247.0</ele><time>2026-04-04T11:22:36.584Z</time></trkpt><trkpt lat="43.3251595" lon="11.3976546"><ele>247.0</ele><time>2026-04-04T11:22:37.579Z</time></trkpt><trkpt lat="43.325211" lon="11.3975048"><ele>247.0</ele><time>2026-04-04T11:22:38.575Z</time></trkpt><trkpt lat="43.3252653" lon="11.3973415"><ele>247.0</ele><time>2026-04-04T11:22:39.564Z</time></trkpt><trkpt lat="43.3253206" lon="11.3971768"><ele>247.0</ele><time>2026-04-04T11:22:40.571Z</time></trkpt><trkpt lat="43.3253785" lon="11.3970064"><ele>247.0</ele><time>2026-04-04T11:22:41.571Z</time></trkpt><trkpt lat="43.3254383" lon="11.3968244"><ele>247.0</ele><time>2026-04-04T11:22:42.573Z</time></trkpt><trkpt lat="43.3254956" lon="11.3966334"><ele>247.0</ele><time>2026-04-04T11:22:43.581Z</time></trkpt><trkpt lat="43.3255507" lon="11.3964328"><ele>247.75</ele><time>2026-04-04T11:22:44.58Z</time></trkpt><trkpt lat="43.3256059" lon="11.3962448"><ele>248.5</ele><time>2026-04-04T11:22:45.588Z</time></trkpt><trkpt lat="43.3256533" lon="11.3960657"><ele>249.25</ele><time>2026-04-04T11:22:46.572Z</time></trkpt><trkpt lat="43.3256854" lon="11.3958716"><ele>250.0</ele><time>2026-04-04T11:22:47.575Z</time></trkpt><trkpt lat="43.3257013" lon="11.3956578"><ele>250.66666666666666</ele><time>2026-04-04T11:22:48.573Z</time></trkpt><trkpt lat="43.3257051" lon="11.3954303"><ele>251.33333333333331</ele><time>2026-04-04T11:22:49.569Z</time></trkpt><trkpt lat="43.3257119" lon="11.3952064"><ele>252.0</ele><time>2026-04-04T11:22:50.582Z</time></trkpt><trkpt lat="43.3257143" lon="11.3949967"><ele>252.0</ele><time>2026-04-04T11:22:51.576Z</time></trkpt><trkpt lat="43.3257094" lon="11.3947968"><ele>252.0</ele><time>2026-04-04T11:22:52.586Z</time></trkpt><trkpt lat="43.3256867" lon="11.3945896"><ele>252.0</ele><time>2026-04-04T11:22:53.58Z</time></trkpt><trkpt lat="43.3256421" lon="11.3943737"><ele>253.0</ele><time>2026-04-04T11:22:54.576Z</time></trkpt><trkpt lat="43.3255857" lon="11.3941481"><ele>254.0</ele><time>2026-04-04T11:22:55.578Z</time></trkpt><trkpt lat="43.3255216" lon="11.3939181"><ele>255.0</ele><time>2026-04-04T11:22:56.577Z</time></trkpt><trkpt lat="43.3254514" lon="11.3936736"><ele>256.6666666666667</ele><time>2026-04-04T11:22:57.581Z</time></trkpt><trkpt lat="43.3253814" lon="11.3934262"><ele>258.33333333333337</ele><time>2026-04-04T11:22:58.576Z</time></trkpt><trkpt lat="43.325313" lon="11.3932014"><ele>260.0</ele><time>2026-04-04T11:22:59.571Z</time></trkpt><trkpt lat="43.3252439" lon="11.3929975"><ele>260.8</ele><time>2026-04-04T11:23:00.57Z</time></trkpt><trkpt lat="43.3251817" lon="11.392822"><ele>261.6</ele><time>2026-04-04T11:23:01.576Z</time></trkpt><trkpt lat="43.3251245" lon="11.3926829"><ele>262.4</ele><time>2026-04-04T11:23:02.58Z</time></trkpt><trkpt lat="43.3250662" lon="11.392578"><ele>263.2</ele><time>2026-04-04T11:23:03.57Z</time></trkpt><trkpt lat="43.3249986" lon="11.3925247"><ele>264.0</ele><time>2026-04-04T11:23:04.582Z</time></trkpt><trkpt lat="43.3249193" lon="11.3925182"><ele>264.0</ele><time>2026-04-04T11:23:05.586Z</time></trkpt><trkpt lat="43.3248444" lon="11.3925294"><ele>264.0</ele><time>2026-04-04T11:23:06.567Z</time></trkpt><trkpt lat="43.3247656" lon="11.3925421"><ele>264.0</ele><time>2026-04-04T11:23:07.581Z</time></trkpt><trkpt lat="43.3246797" lon="11.3925521"><ele>264.0</ele><time>2026-04-04T11:23:08.583Z</time></trkpt><trkpt lat="43.324587" lon="11.3925587"><ele>264.0</ele><time>2026-04-04T11:23:09.582Z</time></trkpt><trkpt lat="43.3244842" lon="11.3925414"><ele>264.0</ele><time>2026-04-04T11:23:10.578Z</time></trkpt><trkpt lat="43.3243721" lon="11.3924968"><ele>264.25</ele><time>2026-04-04T11:23:11.579Z</time></trkpt><trkpt lat="43.3242582" lon="11.3924387"><ele>264.5</ele><time>2026-04-04T11:23:12.58Z</time></trkpt><trkpt lat="43.3241402" lon="11.3923907"><ele>264.75</ele><time>2026-04-04T11:23:13.571Z</time></trkpt><trkpt lat="43.3240262" lon="11.3923584"><ele>265.0</ele><time>2026-04-04T11:23:14.57Z</time></trkpt><trkpt lat="43.3239165" lon="11.3923289"><ele>264.8</ele><time>2026-04-04T11:23:15.577Z</time></trkpt><trkpt lat="43.323812" lon="11.3922986"><ele>264.6</ele><time>2026-04-04T11:23:16.591Z</time></trkpt><trkpt lat="43.3237133" lon="11.3922723"><ele>264.4</ele><time>2026-04-04T11:23:17.579Z</time></trkpt><trkpt lat="43.3236219" lon="11.3922465"><ele>264.2</ele><time>2026-04-04T11:23:18.577Z</time></trkpt><trkpt lat="43.323528" lon="11.3922256"><ele>264.0</ele><time>2026-04-04T11:23:19.578Z</time></trkpt><trkpt lat="43.3234315" lon="11.3922061"><ele>264.0</ele><time>2026-04-04T11:23:20.573Z</time></trkpt><trkpt lat="43.3233328" lon="11.3921871"><ele>264.0</ele><time>2026-04-04T11:23:21.591Z</time></trkpt><trkpt lat="43.3232371" lon="11.3921628"><ele>264.0</ele><time>2026-04-04T11:23:22.586Z</time></trkpt><trkpt lat="43.3231435" lon="11.3921355"><ele>264.0</ele><time>2026-04-04T11:23:23.578Z</time></trkpt><trkpt lat="43.3230558" lon="11.3921112"><ele>264.0</ele><time>2026-04-04T11:23:24.578Z</time></trkpt><trkpt lat="43.3229763" lon="11.3920893"><ele>262.59999999999997</ele><time>2026-04-04T11:23:25.585Z</time></trkpt><trkpt lat="43.3228907" lon="11.3920631"><ele>261.2</ele><time>2026-04-04T11:23:26.579Z</time></trkpt><trkpt lat="43.3227999" lon="11.3920357"><ele>259.79999999999995</ele><time>2026-04-04T11:23:27.573Z</time></trkpt><trkpt lat="43.3226974" lon="11.3920081"><ele>258.4</ele><time>2026-04-04T11:23:28.581Z</time></trkpt><trkpt lat="43.3225854" lon="11.3919778"><ele>257.0</ele><time>2026-04-04T11:23:29.571Z</time></trkpt><trkpt lat="43.3224685" lon="11.3919459"><ele>257.0</ele><time>2026-04-04T11:23:30.587Z</time></trkpt><trkpt lat="43.3223566" lon="11.3919123"><ele>257.0</ele><time>2026-04-04T11:23:31.58Z</time></trkpt><trkpt lat="43.3222376" lon="11.391883"><ele>257.0</ele><time>2026-04-04T11:23:32.58Z</time></trkpt><trkpt lat="43.3221102" lon="11.3918509"><ele>257.0</ele><time>2026-04-04T11:23:33.573Z</time></trkpt><trkpt lat="43.3219789" lon="11.3918141"><ele>256.0</ele><time>2026-04-04T11:23:34.58Z</time></trkpt><trkpt lat="43.3218381" lon="11.3917678"><ele>255.0</ele><time>2026-04-04T11:23:35.571Z</time></trkpt><trkpt lat="43.3217067" lon="11.3917156"><ele>254.0</ele><time>2026-04-04T11:23:36.579Z</time></trkpt><trkpt lat="43.3215732" lon="11.3916567"><ele>253.0</ele><time>2026-04-04T11:23:37.589Z</time></trkpt><trkpt lat="43.3214365" lon="11.391583"><ele>252.0</ele><time>2026-04-04T11:23:38.578Z</time></trkpt><trkpt lat="43.3213017" lon="11.3914977"><ele>251.0</ele><time>2026-04-04T11:23:39.579Z</time></trkpt><trkpt lat="43.3211778" lon="11.3914042"><ele>250.0</ele><time>2026-04-04T11:23:40.575Z</time></trkpt><trkpt lat="43.32106" lon="11.3913185"><ele>249.0</ele><time>2026-04-04T11:23:41.573Z</time></trkpt><trkpt lat="43.3209433" lon="11.3912368"><ele>249.0</ele><time>2026-04-04T11:23:42.58Z</time></trkpt><trkpt lat="43.3208273" lon="11.3911574"><ele>249.0</ele><time>2026-04-04T11:23:43.583Z</time></trkpt><trkpt lat="43.3207147" lon="11.3910879"><ele>249.0</ele><time>2026-04-04T11:23:44.578Z</time></trkpt><trkpt lat="43.3206079" lon="11.3910315"><ele>249.0</ele><time>2026-04-04T11:23:45.583Z</time></trkpt><trkpt lat="43.3205071" lon="11.3909832"><ele>249.0</ele><time>2026-04-04T11:23:46.583Z</time></trkpt><trkpt lat="43.3204128" lon="11.3909478"><ele>249.0</ele><time>2026-04-04T11:23:47.584Z</time></trkpt><trkpt lat="43.3203236" lon="11.3909314"><ele>249.0</ele><time>2026-04-04T11:23:48.586Z</time></trkpt><trkpt lat="43.3202439" lon="11.390905"><ele>249.0</ele><time>2026-04-04T11:23:49.59Z</time></trkpt><trkpt lat="43.3201739" lon="11.3908502"><ele>249.0</ele><time>2026-04-04T11:23:50.586Z</time></trkpt><trkpt lat="43.3201205" lon="11.3907527"><ele>249.0</ele><time>2026-04-04T11:23:51.582Z</time></trkpt><trkpt lat="43.3200926" lon="11.3906124"><ele>248.5</ele><time>2026-04-04T11:23:52.576Z</time></trkpt><trkpt lat="43.3200759" lon="11.3904448"><ele>248.0</ele><time>2026-04-04T11:23:53.578Z</time></trkpt><trkpt lat="43.3200456" lon="11.3902513"><ele>247.5</ele><time>2026-04-04T11:23:54.581Z</time></trkpt><trkpt lat="43.320012" lon="11.3900508"><ele>247.0</ele><time>2026-04-04T11:23:55.575Z</time></trkpt><trkpt lat="43.3199738" lon="11.3898602"><ele>247.0</ele><time>2026-04-04T11:23:56.576Z</time></trkpt><trkpt lat="43.3199252" lon="11.3896792"><ele>247.0</ele><time>2026-04-04T11:23:57.583Z</time></trkpt><trkpt lat="43.3198764" lon="11.3895036"><ele>247.0</ele><time>2026-04-04T11:23:58.583Z</time></trkpt><trkpt lat="43.319823" lon="11.3893342"><ele>247.0</ele><time>2026-04-04T11:23:59.572Z</time></trkpt><trkpt lat="43.3197758" lon="11.3891663"><ele>246.0</ele><time>2026-04-04T11:24:00.572Z</time></trkpt><trkpt lat="43.3197358" lon="11.3889947"><ele>245.0</ele><time>2026-04-04T11:24:01.573Z</time></trkpt><trkpt lat="43.3196967" lon="11.388812"><ele>244.0</ele><time>2026-04-04T11:24:02.58Z</time></trkpt><trkpt lat="43.3196591" lon="11.3886328"><ele>243.0</ele><time>2026-04-04T11:24:03.583Z</time></trkpt><trkpt lat="43.3196252" lon="11.3884567"><ele>239.5</ele><time>2026-04-04T11:24:04.577Z</time></trkpt><trkpt lat="43.3195894" lon="11.388282"><ele>236.0</ele><time>2026-04-04T11:24:05.583Z</time></trkpt><trkpt lat="43.3195568" lon="11.3881059"><ele>232.5</ele><time>2026-04-04T11:24:06.575Z</time></trkpt><trkpt lat="43.3195284" lon="11.3879358"><ele>229.0</ele><time>2026-04-04T11:24:07.577Z</time></trkpt><trkpt lat="43.3195008" lon="11.3877817"><ele>229.0</ele><time>2026-04-04T11:24:08.578Z</time></trkpt><trkpt lat="43.3194673" lon="11.387649"><ele>228.99999999999997</ele><time>2026-04-04T11:24:09.588Z</time></trkpt><trkpt lat="43.3194169" lon="11.3875432"><ele>228.99999999999997</ele><time>2026-04-04T11:24:10.575Z</time></trkpt><trkpt lat="43.3193472" lon="11.3874669"><ele>229.0</ele><time>2026-04-04T11:24:11.569Z</time></trkpt><trkpt lat="43.3192629" lon="11.3874146"><ele>229.0</ele><time>2026-04-04T11:24:12.58Z</time></trkpt><trkpt lat="43.3191746" lon="11.3873633"><ele>229.0</ele><time>2026-04-04T11:24:13.577Z</time></trkpt><trkpt lat="43.3191059" lon="11.3872822"><ele>228.99999999999997</ele><time>2026-04-04T11:24:14.581Z</time></trkpt><trkpt lat="43.3190605" lon="11.387174"><ele>228.99999999999997</ele><time>2026-04-04T11:24:15.589Z</time></trkpt><trkpt lat="43.3190496" lon="11.3870374"><ele>229.0</ele><time>2026-04-04T11:24:16.576Z</time></trkpt><trkpt lat="43.3190726" lon="11.3868928"><ele>229.0</ele><time>2026-04-04T11:24:17.577Z</time></trkpt><trkpt lat="43.3191115" lon="11.3867565"><ele>228.6</ele><time>2026-04-04T11:24:18.571Z</time></trkpt><trkpt lat="43.319162" lon="11.3866334"><ele>228.2</ele><time>2026-04-04T11:24:19.583Z</time></trkpt><trkpt lat="43.3192364" lon="11.3865367"><ele>227.79999999999998</ele><time>2026-04-04T11:24:20.566Z</time></trkpt><trkpt lat="43.3193326" lon="11.3864555"><ele>227.39999999999998</ele><time>2026-04-04T11:24:21.576Z</time></trkpt><trkpt lat="43.3194404" lon="11.3863814"><ele>227.0</ele><time>2026-04-04T11:24:22.578Z</time></trkpt><trkpt lat="43.3195449" lon="11.3863165"><ele>226.2</ele><time>2026-04-04T11:24:23.578Z</time></trkpt><trkpt lat="43.3196456" lon="11.3862517"><ele>225.39999999999998</ele><time>2026-04-04T11:24:24.575Z</time></trkpt><trkpt lat="43.3197437" lon="11.386193"><ele>224.60000000000002</ele><time>2026-04-04T11:24:25.577Z</time></trkpt><trkpt lat="43.3198366" lon="11.3861428"><ele>223.8</ele><time>2026-04-04T11:24:26.583Z</time></trkpt><trkpt lat="43.3199183" lon="11.3860907"><ele>223.0</ele><time>2026-04-04T11:24:27.58Z</time></trkpt><trkpt lat="43.3199892" lon="11.3860234"><ele>222.8</ele><time>2026-04-04T11:24:28.577Z</time></trkpt><trkpt lat="43.3200454" lon="11.3859384"><ele>222.60000000000002</ele><time>2026-04-04T11:24:29.577Z</time></trkpt><trkpt lat="43.3200884" lon="11.3858372"><ele>222.39999999999998</ele><time>2026-04-04T11:24:30.584Z</time></trkpt><trkpt lat="43.3201164" lon="11.3857135"><ele>222.2</ele><time>2026-04-04T11:24:31.577Z</time></trkpt><trkpt lat="43.3201229" lon="11.3855632"><ele>222.0</ele><time>2026-04-04T11:24:32.577Z</time></trkpt><trkpt lat="43.3201209" lon="11.3854087"><ele>221.0</ele><time>2026-04-04T11:24:33.58Z</time></trkpt><trkpt lat="43.3201265" lon="11.3852574"><ele>220.0</ele><time>2026-04-04T11:24:34.58Z</time></trkpt><trkpt lat="43.3201453" lon="11.3851105"><ele>219.0</ele><time>2026-04-04T11:24:35.579Z</time></trkpt><trkpt lat="43.3201857" lon="11.3849748"><ele>218.0</ele><time>2026-04-04T11:24:36.58Z</time></trkpt><trkpt lat="43.3202448" lon="11.3848445"><ele>217.0</ele><time>2026-04-04T11:24:37.579Z</time></trkpt><trkpt lat="43.3203238" lon="11.3847079"><ele>216.0</ele><time>2026-04-04T11:24:38.568Z</time></trkpt><trkpt lat="43.3204183" lon="11.3845751"><ele>215.0</ele><time>2026-04-04T11:24:39.576Z</time></trkpt><trkpt lat="43.3205211" lon="11.3844524"><ele>214.0</ele><time>2026-04-04T11:24:40.586Z</time></trkpt><trkpt lat="43.3206218" lon="11.3843361"><ele>213.0</ele><time>2026-04-04T11:24:41.581Z</time></trkpt><trkpt lat="43.3206988" lon="11.3842101"><ele>212.4</ele><time>2026-04-04T11:24:42.586Z</time></trkpt><trkpt lat="43.3207528" lon="11.384077"><ele>211.8</ele><time>2026-04-04T11:24:43.582Z</time></trkpt><trkpt lat="43.3207736" lon="11.3839428"><ele>211.2</ele><time>2026-04-04T11:24:44.578Z</time></trkpt><trkpt lat="43.320762" lon="11.3838169"><ele>210.6</ele><time>2026-04-04T11:24:45.572Z</time></trkpt><trkpt lat="43.3207381" lon="11.3837033"><ele>210.0</ele><time>2026-04-04T11:24:46.587Z</time></trkpt><trkpt lat="43.320714" lon="11.3835984"><ele>208.66666666666666</ele><time>2026-04-04T11:24:47.572Z</time></trkpt><trkpt lat="43.3206896" lon="11.3834967"><ele>207.33333333333331</ele><time>2026-04-04T11:24:48.581Z</time></trkpt><trkpt lat="43.3206671" lon="11.3833886"><ele>206.0</ele><time>2026-04-04T11:24:49.569Z</time></trkpt><trkpt lat="43.3206491" lon="11.3832772"><ele>204.66666666666666</ele><time>2026-04-04T11:24:50.573Z</time></trkpt><trkpt lat="43.320633" lon="11.3831619"><ele>203.33333333333331</ele><time>2026-04-04T11:24:51.584Z</time></trkpt><trkpt lat="43.3206179" lon="11.3830433"><ele>202.0</ele><time>2026-04-04T11:24:52.584Z</time></trkpt><trkpt lat="43.3206064" lon="11.3829225"><ele>201.39999999999998</ele><time>2026-04-04T11:24:53.578Z</time></trkpt><trkpt lat="43.3205959" lon="11.3828"><ele>200.79999999999998</ele><time>2026-04-04T11:24:54.583Z</time></trkpt><trkpt lat="43.3205848" lon="11.3826764"><ele>200.2</ele><time>2026-04-04T11:24:55.578Z</time></trkpt><trkpt lat="43.3205702" lon="11.3825526"><ele>199.6</ele><time>2026-04-04T11:24:56.572Z</time></trkpt><trkpt lat="43.320551" lon="11.3824284"><ele>199.0</ele><time>2026-04-04T11:24:57.575Z</time></trkpt><trkpt lat="43.3205325" lon="11.3823053"><ele>198.99999999999997</ele><time>2026-04-04T11:24:58.581Z</time></trkpt><trkpt lat="43.3205152" lon="11.382183"><ele>199.0</ele><time>2026-04-04T11:24:59.579Z</time></trkpt><trkpt lat="43.3204961" lon="11.382063"><ele>199.0</ele><time>2026-04-04T11:25:00.581Z</time></trkpt><trkpt lat="43.3204769" lon="11.3819462"><ele>199.0</ele><time>2026-04-04T11:25:01.581Z</time></trkpt><trkpt lat="43.3204584" lon="11.3818325"><ele>198.99999999999997</ele><time>2026-04-04T11:25:02.582Z</time></trkpt><trkpt lat="43.3204389" lon="11.3817245"><ele>199.0</ele><time>2026-04-04T11:25:03.581Z</time></trkpt><trkpt lat="43.3204194" lon="11.3816201"><ele>198.83333333333331</ele><time>2026-04-04T11:25:04.584Z</time></trkpt><trkpt lat="43.320402" lon="11.3815192"><ele>198.66666666666666</ele><time>2026-04-04T11:25:05.583Z</time></trkpt><trkpt lat="43.3203852" lon="11.3814202"><ele>198.5</ele><time>2026-04-04T11:25:06.586Z</time></trkpt><trkpt lat="43.320365" lon="11.3813139"><ele>198.33333333333331</ele><time>2026-04-04T11:25:07.595Z</time></trkpt><trkpt lat="43.3203459" lon="11.3811914"><ele>198.16666666666666</ele><time>2026-04-04T11:25:08.576Z</time></trkpt><trkpt lat="43.3203335" lon="11.3810569"><ele>198.0</ele><time>2026-04-04T11:25:09.575Z</time></trkpt><trkpt lat="43.3203301" lon="11.3809048"><ele>197.75</ele><time>2026-04-04T11:25:10.579Z</time></trkpt><trkpt lat="43.3203418" lon="11.3807395"><ele>197.5</ele><time>2026-04-04T11:25:11.579Z</time></trkpt><trkpt lat="43.3203664" lon="11.3805605"><ele>197.25</ele><time>2026-04-04T11:25:12.592Z</time></trkpt><trkpt lat="43.3203903" lon="11.3803687"><ele>197.0</ele><time>2026-04-04T11:25:13.573Z</time></trkpt><trkpt lat="43.320415" lon="11.3801893"><ele>197.0</ele><time>2026-04-04T11:25:14.573Z</time></trkpt><trkpt lat="43.3204334" lon="11.3800266"><ele>197.0</ele><time>2026-04-04T11:25:15.566Z</time></trkpt><trkpt lat="43.3204509" lon="11.3798775"><ele>197.0</ele><time>2026-04-04T11:25:16.587Z</time></trkpt><trkpt lat="43.3204688" lon="11.3797314"><ele>197.0</ele><time>2026-04-04T11:25:17.581Z</time></trkpt><trkpt lat="43.320494" lon="11.3795762"><ele>197.5</ele><time>2026-04-04T11:25:18.577Z</time></trkpt><trkpt lat="43.3205159" lon="11.37941"><ele>198.0</ele><time>2026-04-04T11:25:19.578Z</time></trkpt><trkpt lat="43.3205347" lon="11.3792351"><ele>198.5</ele><time>2026-04-04T11:25:20.59Z</time></trkpt><trkpt lat="43.320555" lon="11.379068"><ele>199.0</ele><time>2026-04-04T11:25:21.58Z</time></trkpt><trkpt lat="43.320573" lon="11.3789118"><ele>200.75</ele><time>2026-04-04T11:25:22.578Z</time></trkpt><trkpt lat="43.3205905" lon="11.3787543"><ele>202.5</ele><time>2026-04-04T11:25:23.579Z</time></trkpt><trkpt lat="43.3205999" lon="11.3785881"><ele>204.25</ele><time>2026-04-04T11:25:24.579Z</time></trkpt><trkpt lat="43.3205983" lon="11.3784079"><ele>206.0</ele><time>2026-04-04T11:25:25.59Z</time></trkpt><trkpt lat="43.3205881" lon="11.3782177"><ele>207.0</ele><time>2026-04-04T11:25:26.574Z</time></trkpt><trkpt lat="43.3205688" lon="11.3780183"><ele>208.0</ele><time>2026-04-04T11:25:27.581Z</time></trkpt><trkpt lat="43.320546" lon="11.3778073"><ele>209.0</ele><time>2026-04-04T11:25:28.574Z</time></trkpt><trkpt lat="43.3205176" lon="11.3775916"><ele>210.25</ele><time>2026-04-04T11:25:29.581Z</time></trkpt><trkpt lat="43.3204915" lon="11.3773869"><ele>211.5</ele><time>2026-04-04T11:25:30.579Z</time></trkpt><trkpt lat="43.3204685" lon="11.3771924"><ele>212.75</ele><time>2026-04-04T11:25:31.586Z</time></trkpt><trkpt lat="43.3204498" lon="11.3770092"><ele>214.0</ele><time>2026-04-04T11:25:32.582Z</time></trkpt><trkpt lat="43.3204442" lon="11.3768216"><ele>215.75</ele><time>2026-04-04T11:25:33.585Z</time></trkpt><trkpt lat="43.3204528" lon="11.3766238"><ele>217.5</ele><time>2026-04-04T11:25:34.579Z</time></trkpt><trkpt lat="43.3204668" lon="11.3764255"><ele>219.25</ele><time>2026-04-04T11:25:35.576Z</time></trkpt><trkpt lat="43.320484" lon="11.3762404"><ele>221.0</ele><time>2026-04-04T11:25:36.565Z</time></trkpt><trkpt lat="43.3204993" lon="11.376064"><ele>221.0</ele><time>2026-04-04T11:25:37.578Z</time></trkpt><trkpt lat="43.3205035" lon="11.375892"><ele>221.00000000000003</ele><time>2026-04-04T11:25:38.565Z</time></trkpt><trkpt lat="43.3205036" lon="11.3757409"><ele>221.00000000000003</ele><time>2026-04-04T11:25:39.587Z</time></trkpt><trkpt lat="43.3204889" lon="11.3756123"><ele>221.0</ele><time>2026-04-04T11:25:40.575Z</time></trkpt><trkpt lat="43.3204496" lon="11.3755011"><ele>221.0</ele><time>2026-04-04T11:25:41.575Z</time></trkpt><trkpt lat="43.3203869" lon="11.3753973"><ele>220.60000000000002</ele><time>2026-04-04T11:25:42.587Z</time></trkpt><trkpt lat="43.3203289" lon="11.3752788"><ele>220.20000000000002</ele><time>2026-04-04T11:25:43.594Z</time></trkpt><trkpt lat="43.3202854" lon="11.37517"><ele>219.79999999999998</ele><time>2026-04-04T11:25:44.575Z</time></trkpt><trkpt lat="43.3202511" lon="11.3750538"><ele>219.39999999999998</ele><time>2026-04-04T11:25:45.586Z</time></trkpt><trkpt lat="43.3202396" lon="11.3749351"><ele>219.0</ele><time>2026-04-04T11:25:46.591Z</time></trkpt><trkpt lat="43.3202479" lon="11.3748095"><ele>219.5</ele><time>2026-04-04T11:25:47.57Z</time></trkpt><trkpt lat="43.320281" lon="11.3746718"><ele>220.0</ele><time>2026-04-04T11:25:48.588Z</time></trkpt><trkpt lat="43.3203213" lon="11.374521"><ele>220.5</ele><time>2026-04-04T11:25:49.581Z</time></trkpt><trkpt lat="43.3203616" lon="11.3743484"><ele>221.0</ele><time>2026-04-04T11:25:50.58Z</time></trkpt><trkpt lat="43.3204118" lon="11.3741634"><ele>221.0</ele><time>2026-04-04T11:25:51.572Z</time></trkpt><trkpt lat="43.3204727" lon="11.373969"><ele>221.0</ele><time>2026-04-04T11:25:52.583Z</time></trkpt><trkpt lat="43.3205391" lon="11.3737683"><ele>221.0</ele><time>2026-04-04T11:25:53.582Z</time></trkpt><trkpt lat="43.3206127" lon="11.3735788"><ele>222.60000000000002</ele><time>2026-04-04T11:25:54.566Z</time></trkpt><trkpt lat="43.3206819" lon="11.37342"><ele>224.20000000000002</ele><time>2026-04-04T11:25:55.588Z</time></trkpt><trkpt lat="43.3207433" lon="11.3732868"><ele>225.79999999999998</ele><time>2026-04-04T11:25:56.565Z</time></trkpt><trkpt lat="43.3207963" lon="11.3731725"><ele>227.39999999999998</ele><time>2026-04-04T11:25:57.575Z</time></trkpt><trkpt lat="43.3208392" lon="11.3730778"><ele>229.0</ele><time>2026-04-04T11:25:58.575Z</time></trkpt><trkpt lat="43.320876" lon="11.3729928"><ele>230.49999999999997</ele><time>2026-04-04T11:25:59.586Z</time></trkpt><trkpt lat="43.3209151" lon="11.3729087"><ele>232.0</ele><time>2026-04-04T11:26:00.58Z</time></trkpt><trkpt lat="43.3209546" lon="11.3728266"><ele>233.5</ele><time>2026-04-04T11:26:01.573Z</time></trkpt><trkpt lat="43.3209922" lon="11.3727314"><ele>235.0</ele><time>2026-04-04T11:26:02.593Z</time></trkpt><trkpt lat="43.3210263" lon="11.3726185"><ele>236.49999999999997</ele><time>2026-04-04T11:26:03.585Z</time></trkpt><trkpt lat="43.3210513" lon="11.3724834"><ele>238.0</ele><time>2026-04-04T11:26:04.585Z</time></trkpt><trkpt lat="43.3210801" lon="11.372329"><ele>241.0</ele><time>2026-04-04T11:26:05.585Z</time></trkpt><trkpt lat="43.321112" lon="11.3721471"><ele>244.0</ele><time>2026-04-04T11:26:06.575Z</time></trkpt><trkpt lat="43.3211425" lon="11.371945"><ele>247.0</ele><time>2026-04-04T11:26:07.58Z</time></trkpt><trkpt lat="43.3211711" lon="11.371723"><ele>247.0</ele><time>2026-04-04T11:26:08.581Z</time></trkpt><trkpt lat="43.3211919" lon="11.3714877"><ele>247.0</ele><time>2026-04-04T11:26:09.582Z</time></trkpt><trkpt lat="43.3212216" lon="11.3712427"><ele>247.0</ele><time>2026-04-04T11:26:10.578Z</time></trkpt><trkpt lat="43.3212695" lon="11.3710244"><ele>248.66666666666666</ele><time>2026-04-04T11:26:11.589Z</time></trkpt><trkpt lat="43.3213268" lon="11.3708271"><ele>250.33333333333331</ele><time>2026-04-04T11:26:12.584Z</time></trkpt><trkpt lat="43.3213964" lon="11.3706397"><ele>252.0</ele><time>2026-04-04T11:26:13.583Z</time></trkpt><trkpt lat="43.3214804" lon="11.3704553"><ele>252.0</ele><time>2026-04-04T11:26:14.576Z</time></trkpt><trkpt lat="43.3215699" lon="11.3702705"><ele>252.0</ele><time>2026-04-04T11:26:15.586Z</time></trkpt><trkpt lat="43.3216619" lon="11.3700763"><ele>252.0</ele><time>2026-04-04T11:26:16.579Z</time></trkpt><trkpt lat="43.3217578" lon="11.3698823"><ele>252.0</ele><time>2026-04-04T11:26:17.565Z</time></trkpt><trkpt lat="43.3218476" lon="11.3697145"><ele>252.0</ele><time>2026-04-04T11:26:18.586Z</time></trkpt><trkpt lat="43.3219244" lon="11.3695705"><ele>252.0</ele><time>2026-04-04T11:26:19.571Z</time></trkpt><trkpt lat="43.3219839" lon="11.3694526"><ele>252.0</ele><time>2026-04-04T11:26:20.567Z</time></trkpt><trkpt lat="43.3220221" lon="11.3693457"><ele>253.5</ele><time>2026-04-04T11:26:21.583Z</time></trkpt><trkpt lat="43.3220254" lon="11.3692509"><ele>255.0</ele><time>2026-04-04T11:26:22.58Z</time></trkpt><trkpt lat="43.321946" lon="11.3691424"><ele>256.5</ele><time>2026-04-04T11:26:24.591Z</time></trkpt><trkpt lat="43.3218817" lon="11.3691609"><ele>258.0</ele><time>2026-04-04T11:26:25.58Z</time></trkpt><trkpt lat="43.3218151" lon="11.3692175"><ele>259.5</ele><time>2026-04-04T11:26:26.573Z</time></trkpt><trkpt lat="43.3217404" lon="11.3692935"><ele>261.0</ele><time>2026-04-04T11:26:27.573Z</time></trkpt><trkpt lat="43.3216563" lon="11.3693717"><ele>261.0</ele><time>2026-04-04T11:26:28.571Z</time></trkpt><trkpt lat="43.3215744" lon="11.3694122"><ele>261.0</ele><time>2026-04-04T11:26:29.577Z</time></trkpt><trkpt lat="43.3214889" lon="11.369411"><ele>261.0</ele><time>2026-04-04T11:26:30.573Z</time></trkpt><trkpt lat="43.3214059" lon="11.3693701"><ele>261.0</ele><time>2026-04-04T11:26:31.566Z</time></trkpt><trkpt lat="43.3213269" lon="11.3692932"><ele>261.0</ele><time>2026-04-04T11:26:32.573Z</time></trkpt><trkpt lat="43.3212403" lon="11.3691964"><ele>261.40000000000003</ele><time>2026-04-04T11:26:33.58Z</time></trkpt><trkpt lat="43.3211478" lon="11.3690998"><ele>261.8</ele><time>2026-04-04T11:26:34.574Z</time></trkpt><trkpt lat="43.3210697" lon="11.3690164"><ele>262.20000000000005</ele><time>2026-04-04T11:26:35.579Z</time></trkpt><trkpt lat="43.3210128" lon="11.3689438"><ele>262.6</ele><time>2026-04-04T11:26:36.575Z</time></trkpt><trkpt lat="43.3209599" lon="11.3688106"><ele>263.0</ele><time>2026-04-04T11:26:38.587Z</time></trkpt><trkpt lat="43.3209815" lon="11.3686513"><ele>263.0</ele><time>2026-04-04T11:26:40.575Z</time></trkpt><trkpt lat="43.3210061" lon="11.3685338"><ele>263.0</ele><time>2026-04-04T11:26:41.585Z</time></trkpt><trkpt lat="43.3210363" lon="11.3683959"><ele>263.0</ele><time>2026-04-04T11:26:42.574Z</time></trkpt><trkpt lat="43.3210679" lon="11.3682525"><ele>263.0</ele><time>2026-04-04T11:26:43.585Z</time></trkpt><trkpt lat="43.3210881" lon="11.3680763"><ele>263.0</ele><time>2026-04-04T11:26:44.581Z</time></trkpt><trkpt lat="43.3210958" lon="11.36789"><ele>264.33333333333337</ele><time>2026-04-04T11:26:45.574Z</time></trkpt><trkpt lat="43.3211091" lon="11.3676905"><ele>265.6666666666667</ele><time>2026-04-04T11:26:46.577Z</time></trkpt><trkpt lat="43.3211189" lon="11.3674783"><ele>267.0</ele><time>2026-04-04T11:26:47.586Z</time></trkpt><trkpt lat="43.321124" lon="11.3672524"><ele>268.0</ele><time>2026-04-04T11:26:48.579Z</time></trkpt><trkpt lat="43.3211247" lon="11.3670417"><ele>269.0</ele><time>2026-04-04T11:26:49.579Z</time></trkpt><trkpt lat="43.321123" lon="11.3668522"><ele>270.0</ele><time>2026-04-04T11:26:50.579Z</time></trkpt><trkpt lat="43.3211121" lon="11.36668"><ele>271.0</ele><time>2026-04-04T11:26:51.584Z</time></trkpt><trkpt lat="43.3210948" lon="11.3665201"><ele>271.0</ele><time>2026-04-04T11:26:52.584Z</time></trkpt><trkpt lat="43.3210752" lon="11.3663768"><ele>271.0</ele><time>2026-04-04T11:26:53.581Z</time></trkpt><trkpt lat="43.3210573" lon="11.3662468"><ele>271.0</ele><time>2026-04-04T11:26:54.575Z</time></trkpt><trkpt lat="43.3210447" lon="11.3661271"><ele>271.0</ele><time>2026-04-04T11:26:55.576Z</time></trkpt><trkpt lat="43.3210339" lon="11.3660308"><ele>271.0</ele><time>2026-04-04T11:26:56.57Z</time></trkpt><trkpt lat="43.321008" lon="11.365884"><ele>271.0</ele><time>2026-04-04T11:26:58.58Z</time></trkpt><trkpt lat="43.3209581" lon="11.365715"><ele>271.0</ele><time>2026-04-04T11:27:00.571Z</time></trkpt><trkpt lat="43.3209257" lon="11.3656096"><ele>271.0</ele><time>2026-04-04T11:27:01.57Z</time></trkpt><trkpt lat="43.3208856" lon="11.3654883"><ele>271.0</ele><time>2026-04-04T11:27:02.573Z</time></trkpt><trkpt lat="43.3208351" lon="11.3653516"><ele>271.0</ele><time>2026-04-04T11:27:03.578Z</time></trkpt><trkpt lat="43.3207781" lon="11.3651963"><ele>271.25</ele><time>2026-04-04T11:27:04.589Z</time></trkpt><trkpt lat="43.3207172" lon="11.365038"><ele>271.5</ele><time>2026-04-04T11:27:05.579Z</time></trkpt><trkpt lat="43.3206433" lon="11.3648727"><ele>271.75</ele><time>2026-04-04T11:27:06.582Z</time></trkpt><trkpt lat="43.3205543" lon="11.3647098"><ele>272.0</ele><time>2026-04-04T11:27:07.576Z</time></trkpt><trkpt lat="43.3204647" lon="11.3645497"><ele>272.5</ele><time>2026-04-04T11:27:08.574Z</time></trkpt><trkpt lat="43.3203847" lon="11.3644034"><ele>273.0</ele><time>2026-04-04T11:27:09.58Z</time></trkpt><trkpt lat="43.3203055" lon="11.3642672"><ele>273.5</ele><time>2026-04-04T11:27:10.588Z</time></trkpt><trkpt lat="43.3202186" lon="11.3641282"><ele>274.0</ele><time>2026-04-04T11:27:11.59Z</time></trkpt><trkpt lat="43.3201232" lon="11.3639739"><ele>272.0</ele><time>2026-04-04T11:27:12.585Z</time></trkpt><trkpt lat="43.3200192" lon="11.3638087"><ele>270.0</ele><time>2026-04-04T11:27:13.581Z</time></trkpt><trkpt lat="43.3199105" lon="11.3636473"><ele>268.0</ele><time>2026-04-04T11:27:14.594Z</time></trkpt><trkpt lat="43.3198042" lon="11.3635026"><ele>268.5</ele><time>2026-04-04T11:27:15.585Z</time></trkpt><trkpt lat="43.3197023" lon="11.3633713"><ele>269.0</ele><time>2026-04-04T11:27:16.583Z</time></trkpt><trkpt lat="43.31961" lon="11.3632432"><ele>269.5</ele><time>2026-04-04T11:27:17.583Z</time></trkpt><trkpt lat="43.3195402" lon="11.3631029"><ele>270.0</ele><time>2026-04-04T11:27:18.569Z</time></trkpt><trkpt lat="43.3194931" lon="11.3629905"><ele>270.0</ele><time>2026-04-04T11:27:19.584Z</time></trkpt><trkpt lat="43.3194609" lon="11.3628975"><ele>270.0</ele><time>2026-04-04T11:27:20.572Z</time></trkpt><trkpt lat="43.3194094" lon="11.3627447"><ele>270.0</ele><time>2026-04-04T11:27:22.587Z</time></trkpt><trkpt lat="43.3193599" lon="11.3625974"><ele>270.0</ele><time>2026-04-04T11:27:24.578Z</time></trkpt><trkpt lat="43.3192908" lon="11.3624633"><ele>270.0</ele><time>2026-04-04T11:27:26.585Z</time></trkpt><trkpt lat="43.3192481" lon="11.3623983"><ele>270.0</ele><time>2026-04-04T11:27:27.588Z</time></trkpt><trkpt lat="43.3192023" lon="11.3623214"><ele>270.0</ele><time>2026-04-04T11:27:28.577Z</time></trkpt><trkpt lat="43.3191475" lon="11.3622344"><ele>270.0</ele><time>2026-04-04T11:27:29.58Z</time></trkpt><trkpt lat="43.3190855" lon="11.3621336"><ele>270.0</ele><time>2026-04-04T11:27:30.578Z</time></trkpt><trkpt lat="43.3190129" lon="11.3620205"><ele>270.0</ele><time>2026-04-04T11:27:31.579Z</time></trkpt><trkpt lat="43.3189294" lon="11.3618979"><ele>269.0</ele><time>2026-04-04T11:27:32.568Z</time></trkpt><trkpt lat="43.3188447" lon="11.3617627"><ele>268.0</ele><time>2026-04-04T11:27:33.576Z</time></trkpt><trkpt lat="43.3187636" lon="11.3616065"><ele>267.0</ele><time>2026-04-04T11:27:34.576Z</time></trkpt><trkpt lat="43.3186918" lon="11.3614355"><ele>266.0</ele><time>2026-04-04T11:27:35.584Z</time></trkpt><trkpt lat="43.3186319" lon="11.3612623"><ele>264.0</ele><time>2026-04-04T11:27:36.571Z</time></trkpt><trkpt lat="43.318578" lon="11.3610913"><ele>262.0</ele><time>2026-04-04T11:27:37.58Z</time></trkpt><trkpt lat="43.3185207" lon="11.3609251"><ele>260.0</ele><time>2026-04-04T11:27:38.576Z</time></trkpt><trkpt lat="43.3184515" lon="11.3607702"><ele>258.0</ele><time>2026-04-04T11:27:39.582Z</time></trkpt><trkpt lat="43.3183784" lon="11.3606208"><ele>255.66666666666669</ele><time>2026-04-04T11:27:40.575Z</time></trkpt><trkpt lat="43.3183013" lon="11.3604574"><ele>253.33333333333334</ele><time>2026-04-04T11:27:41.584Z</time></trkpt><trkpt lat="43.3182234" lon="11.3602793"><ele>251.0</ele><time>2026-04-04T11:27:42.571Z</time></trkpt><trkpt lat="43.3181307" lon="11.3601019"><ele>251.0</ele><time>2026-04-04T11:27:43.592Z</time></trkpt><trkpt lat="43.3180308" lon="11.3599313"><ele>251.0</ele><time>2026-04-04T11:27:44.57Z</time></trkpt><trkpt lat="43.317946" lon="11.3597603"><ele>251.0</ele><time>2026-04-04T11:27:45.576Z</time></trkpt><trkpt lat="43.3178753" lon="11.3595858"><ele>248.5</ele><time>2026-04-04T11:27:46.571Z</time></trkpt><trkpt lat="43.3178164" lon="11.3593971"><ele>246.0</ele><time>2026-04-04T11:27:47.571Z</time></trkpt><trkpt lat="43.3177695" lon="11.3592038"><ele>243.5</ele><time>2026-04-04T11:27:48.57Z</time></trkpt><trkpt lat="43.3177343" lon="11.3590181"><ele>241.0</ele><time>2026-04-04T11:27:49.578Z</time></trkpt><trkpt lat="43.3176927" lon="11.3588442"><ele>240.0</ele><time>2026-04-04T11:27:50.567Z</time></trkpt><trkpt lat="43.3176366" lon="11.358688"><ele>239.0</ele><time>2026-04-04T11:27:51.576Z</time></trkpt><trkpt lat="43.31756" lon="11.3585528"><ele>238.0</ele><time>2026-04-04T11:27:52.581Z</time></trkpt><trkpt lat="43.3174681" lon="11.3584434"><ele>237.0</ele><time>2026-04-04T11:27:53.582Z</time></trkpt><trkpt lat="43.3173657" lon="11.3583613"><ele>237.0</ele><time>2026-04-04T11:27:54.583Z</time></trkpt><trkpt lat="43.3172509" lon="11.3583164"><ele>237.0</ele><time>2026-04-04T11:27:55.577Z</time></trkpt><trkpt lat="43.3171269" lon="11.3582996"><ele>237.0</ele><time>2026-04-04T11:27:56.58Z</time></trkpt><trkpt lat="43.3170019" lon="11.3582972"><ele>237.0</ele><time>2026-04-04T11:27:57.581Z</time></trkpt><trkpt lat="43.3168819" lon="11.3582862"><ele>235.75</ele><time>2026-04-04T11:27:58.58Z</time></trkpt><trkpt lat="43.3167755" lon="11.3582334"><ele>234.5</ele><time>2026-04-04T11:27:59.587Z</time></trkpt><trkpt lat="43.3166819" lon="11.3581467"><ele>233.25</ele><time>2026-04-04T11:28:00.581Z</time></trkpt><trkpt lat="43.3166022" lon="11.3580372"><ele>232.0</ele><time>2026-04-04T11:28:01.587Z</time></trkpt><trkpt lat="43.3165286" lon="11.3579209"><ele>232.0</ele><time>2026-04-04T11:28:02.574Z</time></trkpt><trkpt lat="43.316456" lon="11.3578017"><ele>232.0</ele><time>2026-04-04T11:28:03.584Z</time></trkpt><trkpt lat="43.3163833" lon="11.3576821"><ele>232.0</ele><time>2026-04-04T11:28:04.572Z</time></trkpt><trkpt lat="43.316306" lon="11.3575688"><ele>232.0</ele><time>2026-04-04T11:28:05.573Z</time></trkpt><trkpt lat="43.3162327" lon="11.3574494"><ele>230.75</ele><time>2026-04-04T11:28:06.577Z</time></trkpt><trkpt lat="43.3161753" lon="11.3573103"><ele>229.5</ele><time>2026-04-04T11:28:07.572Z</time></trkpt><trkpt lat="43.3161306" lon="11.3571543"><ele>228.25</ele><time>2026-04-04T11:28:08.584Z</time></trkpt><trkpt lat="43.3160976" lon="11.3569883"><ele>227.0</ele><time>2026-04-04T11:28:09.583Z</time></trkpt><trkpt lat="43.316076" lon="11.3568286"><ele>226.8</ele><time>2026-04-04T11:28:10.585Z</time></trkpt><trkpt lat="43.3160649" lon="11.3566737"><ele>226.6</ele><time>2026-04-04T11:28:11.584Z</time></trkpt><trkpt lat="43.3160589" lon="11.3565384"><ele>226.40000000000003</ele><time>2026-04-04T11:28:12.581Z</time></trkpt><trkpt lat="43.3160539" lon="11.3564203"><ele>226.20000000000002</ele><time>2026-04-04T11:28:13.572Z</time></trkpt><trkpt lat="43.3160468" lon="11.3563222"><ele>226.0</ele><time>2026-04-04T11:28:14.576Z</time></trkpt><trkpt lat="43.3160404" lon="11.3561995"><ele>225.83333333333331</ele><time>2026-04-04T11:28:16.58Z</time></trkpt><trkpt lat="43.3160766" lon="11.3561156"><ele>225.66666666666666</ele><time>2026-04-04T11:28:19.573Z</time></trkpt><trkpt lat="43.3161335" lon="11.3560312"><ele>225.5</ele><time>2026-04-04T11:28:21.567Z</time></trkpt><trkpt lat="43.3162047" lon="11.3559221"><ele>225.33333333333331</ele><time>2026-04-04T11:28:23.577Z</time></trkpt><trkpt lat="43.3162645" lon="11.3558406"><ele>225.16666666666666</ele><time>2026-04-04T11:28:25.599Z</time></trkpt><trkpt lat="43.3162789" lon="11.3557362"><ele>225.0</ele><time>2026-04-04T11:31:05.58Z</time></trkpt><trkpt lat="43.3163325" lon="11.3556368"><ele>225.4</ele><time>2026-04-04T11:31:07.595Z</time></trkpt><trkpt lat="43.3163888" lon="11.3555038"><ele>225.8</ele><time>2026-04-04T11:31:09.572Z</time></trkpt><trkpt lat="43.3163893" lon="11.3553475"><ele>226.2</ele><time>2026-04-04T11:31:11.586Z</time></trkpt><trkpt lat="43.3163007" lon="11.3552458"><ele>226.6</ele><time>2026-04-04T11:31:13.578Z</time></trkpt><trkpt lat="43.3162352" lon="11.355237"><ele>227.0</ele><time>2026-04-04T11:31:14.571Z</time></trkpt><trkpt lat="43.3161725" lon="11.3552631"><ele>227.00000000000003</ele><time>2026-04-04T11:31:15.57Z</time></trkpt><trkpt lat="43.3161237" lon="11.3553181"><ele>227.0</ele><time>2026-04-04T11:31:16.575Z</time></trkpt><trkpt lat="43.3160889" lon="11.3553922"><ele>227.0</ele><time>2026-04-04T11:31:17.578Z</time></trkpt><trkpt lat="43.3160768" lon="11.3554903"><ele>227.0</ele><time>2026-04-04T11:31:18.577Z</time></trkpt><trkpt lat="43.3160721" lon="11.3556011"><ele>227.00000000000003</ele><time>2026-04-04T11:31:19.579Z</time></trkpt><trkpt lat="43.3160478" lon="11.3557093"><ele>227.0</ele><time>2026-04-04T11:31:20.573Z</time></trkpt><trkpt lat="43.3159968" lon="11.355822"><ele>226.6</ele><time>2026-04-04T11:31:21.585Z</time></trkpt><trkpt lat="43.3159212" lon="11.3559352"><ele>226.2</ele><time>2026-04-04T11:31:22.57Z</time></trkpt><trkpt lat="43.3158447" lon="11.3560337"><ele>225.8</ele><time>2026-04-04T11:31:23.569Z</time></trkpt><trkpt lat="43.3157736" lon="11.3561272"><ele>225.4</ele><time>2026-04-04T11:31:24.587Z</time></trkpt><trkpt lat="43.3157024" lon="11.3562134"><ele>225.0</ele><time>2026-04-04T11:31:25.579Z</time></trkpt><trkpt lat="43.3156304" lon="11.3562949"><ele>225.0</ele><time>2026-04-04T11:31:26.578Z</time></trkpt><trkpt lat="43.3155547" lon="11.3563766"><ele>225.0</ele><time>2026-04-04T11:31:27.578Z</time></trkpt><trkpt lat="43.3154745" lon="11.3564608"><ele>225.0</ele><time>2026-04-04T11:31:28.574Z</time></trkpt><trkpt lat="43.3153927" lon="11.3565508"><ele>225.0</ele><time>2026-04-04T11:31:29.576Z</time></trkpt><trkpt lat="43.3153076" lon="11.3566525"><ele>225.0</ele><time>2026-04-04T11:31:30.575Z</time></trkpt><trkpt lat="43.3152204" lon="11.3567683"><ele>225.0</ele><time>2026-04-04T11:31:31.57Z</time></trkpt><trkpt lat="43.3151367" lon="11.3568883"><ele>225.0</ele><time>2026-04-04T11:31:32.58Z</time></trkpt><trkpt lat="43.3150534" lon="11.3570056"><ele>225.0</ele><time>2026-04-04T11:31:33.579Z</time></trkpt><trkpt lat="43.3149723" lon="11.3571136"><ele>225.0</ele><time>2026-04-04T11:31:34.569Z</time></trkpt><trkpt lat="43.3148893" lon="11.3572262"><ele>225.0</ele><time>2026-04-04T11:31:35.596Z</time></trkpt><trkpt lat="43.3148016" lon="11.3573444"><ele>225.0</ele><time>2026-04-04T11:31:36.581Z</time></trkpt><trkpt lat="43.3147124" lon="11.3574617"><ele>225.0</ele><time>2026-04-04T11:31:37.573Z</time></trkpt><trkpt lat="43.3146229" lon="11.3575729"><ele>225.0</ele><time>2026-04-04T11:31:38.579Z</time></trkpt><trkpt lat="43.3145359" lon="11.3576855"><ele>225.0</ele><time>2026-04-04T11:31:39.59Z</time></trkpt><trkpt lat="43.3144572" lon="11.357792"><ele>225.0</ele><time>2026-04-04T11:31:40.588Z</time></trkpt><trkpt lat="43.3143864" lon="11.3578878"><ele>225.0</ele><time>2026-04-04T11:31:41.581Z</time></trkpt><trkpt lat="43.3143236" lon="11.3579754"><ele>225.0</ele><time>2026-04-04T11:31:42.573Z</time></trkpt><trkpt lat="43.3142575" lon="11.3580513"><ele>225.0</ele><time>2026-04-04T11:31:43.588Z</time></trkpt><trkpt lat="43.314189" lon="11.3581304"><ele>225.0</ele><time>2026-04-04T11:31:44.581Z</time></trkpt><trkpt lat="43.314114" lon="11.3582105"><ele>225.0</ele><time>2026-04-04T11:31:45.583Z</time></trkpt><trkpt lat="43.314039" lon="11.358286"><ele>225.0</ele><time>2026-04-04T11:31:46.574Z</time></trkpt><trkpt lat="43.3139676" lon="11.3583542"><ele>225.0</ele><time>2026-04-04T11:31:47.571Z</time></trkpt><trkpt lat="43.3138963" lon="11.3584172"><ele>225.0</ele><time>2026-04-04T11:31:48.58Z</time></trkpt><trkpt lat="43.3138255" lon="11.3584789"><ele>225.0</ele><time>2026-04-04T11:31:49.572Z</time></trkpt><trkpt lat="43.313749" lon="11.358536"><ele>224.2</ele><time>2026-04-04T11:31:50.577Z</time></trkpt><trkpt lat="43.3136634" lon="11.3585892"><ele>223.4</ele><time>2026-04-04T11:31:51.576Z</time></trkpt><trkpt lat="43.3135722" lon="11.3586415"><ele>222.60000000000002</ele><time>2026-04-04T11:31:52.578Z</time></trkpt><trkpt lat="43.3134787" lon="11.3586905"><ele>221.8</ele><time>2026-04-04T11:31:53.581Z</time></trkpt><trkpt lat="43.3133876" lon="11.3587442"><ele>221.0</ele><time>2026-04-04T11:31:54.576Z</time></trkpt><trkpt lat="43.3132948" lon="11.3587941"><ele>221.0</ele><time>2026-04-04T11:31:55.582Z</time></trkpt><trkpt lat="43.3131971" lon="11.3588351"><ele>221.00000000000003</ele><time>2026-04-04T11:31:56.573Z</time></trkpt><trkpt lat="43.3131064" lon="11.3588709"><ele>221.00000000000003</ele><time>2026-04-04T11:31:57.579Z</time></trkpt><trkpt lat="43.3130237" lon="11.3588996"><ele>221.0</ele><time>2026-04-04T11:31:58.574Z</time></trkpt><trkpt lat="43.3129545" lon="11.3589216"><ele>221.0</ele><time>2026-04-04T11:31:59.585Z</time></trkpt><trkpt lat="43.3128432" lon="11.3589276"><ele>220.83333333333334</ele><time>2026-04-04T11:32:01.586Z</time></trkpt><trkpt lat="43.3127255" lon="11.3588923"><ele>220.66666666666669</ele><time>2026-04-04T11:32:03.577Z</time></trkpt><trkpt lat="43.3126623" lon="11.3589042"><ele>220.5</ele><time>2026-04-04T11:32:04.574Z</time></trkpt><trkpt lat="43.3126069" lon="11.3589481"><ele>220.33333333333331</ele><time>2026-04-04T11:32:05.587Z</time></trkpt><trkpt lat="43.3125622" lon="11.3590198"><ele>220.16666666666666</ele><time>2026-04-04T11:32:06.579Z</time></trkpt><trkpt lat="43.3125274" lon="11.3591079"><ele>220.0</ele><time>2026-04-04T11:32:07.58Z</time></trkpt><trkpt lat="43.3124807" lon="11.3592066"><ele>220.0</ele><time>2026-04-04T11:32:08.58Z</time></trkpt><trkpt lat="43.3124087" lon="11.3592832"><ele>220.0</ele><time>2026-04-04T11:32:09.578Z</time></trkpt><trkpt lat="43.3123176" lon="11.3593425"><ele>220.0</ele><time>2026-04-04T11:32:10.593Z</time></trkpt><trkpt lat="43.3122192" lon="11.3594013"><ele>220.0</ele><time>2026-04-04T11:32:11.579Z</time></trkpt><trkpt lat="43.3121065" lon="11.3594711"><ele>220.0</ele><time>2026-04-04T11:32:12.592Z</time></trkpt><trkpt lat="43.3119855" lon="11.3595422"><ele>219.75</ele><time>2026-04-04T11:32:13.585Z</time></trkpt><trkpt lat="43.3118675" lon="11.3596103"><ele>219.5</ele><time>2026-04-04T11:32:14.584Z</time></trkpt><trkpt lat="43.311758" lon="11.3596775"><ele>219.25</ele><time>2026-04-04T11:32:15.578Z</time></trkpt><trkpt lat="43.3116428" lon="11.3597531"><ele>219.0</ele><time>2026-04-04T11:32:16.582Z</time></trkpt><trkpt lat="43.3115235" lon="11.3598279"><ele>218.75</ele><time>2026-04-04T11:32:17.581Z</time></trkpt><trkpt lat="43.3114022" lon="11.3598984"><ele>218.5</ele><time>2026-04-04T11:32:18.584Z</time></trkpt><trkpt lat="43.3112844" lon="11.359968"><ele>218.25</ele><time>2026-04-04T11:32:19.585Z</time></trkpt><trkpt lat="43.3111671" lon="11.3600398"><ele>218.0</ele><time>2026-04-04T11:32:20.573Z</time></trkpt><trkpt lat="43.3110448" lon="11.3601139"><ele>218.0</ele><time>2026-04-04T11:32:21.58Z</time></trkpt><trkpt lat="43.3109243" lon="11.3601882"><ele>218.0</ele><time>2026-04-04T11:32:22.579Z</time></trkpt><trkpt lat="43.3108042" lon="11.3602628"><ele>218.0</ele><time>2026-04-04T11:32:23.584Z</time></trkpt><trkpt lat="43.3106858" lon="11.3603363"><ele>218.0</ele><time>2026-04-04T11:32:24.574Z</time></trkpt><trkpt lat="43.3105674" lon="11.360408"><ele>217.25</ele><time>2026-04-04T11:32:25.573Z</time></trkpt><trkpt lat="43.3104565" lon="11.3604746"><ele>216.5</ele><time>2026-04-04T11:32:26.588Z</time></trkpt><trkpt lat="43.3103445" lon="11.3605387"><ele>215.75</ele><time>2026-04-04T11:32:27.581Z</time></trkpt><trkpt lat="43.3102281" lon="11.3606078"><ele>215.0</ele><time>2026-04-04T11:32:28.586Z</time></trkpt><trkpt lat="43.3101073" lon="11.3606817"><ele>215.5</ele><time>2026-04-04T11:32:29.585Z</time></trkpt><trkpt lat="43.3099838" lon="11.3607569"><ele>216.0</ele><time>2026-04-04T11:32:30.584Z</time></trkpt><trkpt lat="43.3098583" lon="11.3608327"><ele>216.5</ele><time>2026-04-04T11:32:31.581Z</time></trkpt><trkpt lat="43.3097338" lon="11.3609062"><ele>217.0</ele><time>2026-04-04T11:32:32.58Z</time></trkpt><trkpt lat="43.3096136" lon="11.3609794"><ele>217.0</ele><time>2026-04-04T11:32:33.565Z</time></trkpt><trkpt lat="43.309493" lon="11.3610564"><ele>217.0</ele><time>2026-04-04T11:32:34.579Z</time></trkpt><trkpt lat="43.3093728" lon="11.3611331"><ele>217.0</ele><time>2026-04-04T11:32:35.583Z</time></trkpt><trkpt lat="43.3092578" lon="11.3612043"><ele>217.0</ele><time>2026-04-04T11:32:36.584Z</time></trkpt><trkpt lat="43.3091358" lon="11.3612773"><ele>217.0</ele><time>2026-04-04T11:32:37.589Z</time></trkpt><trkpt lat="43.309009" lon="11.3613547"><ele>217.0</ele><time>2026-04-04T11:32:38.573Z</time></trkpt><trkpt lat="43.3088843" lon="11.3614298"><ele>217.0</ele><time>2026-04-04T11:32:39.579Z</time></trkpt><trkpt lat="43.3087672" lon="11.3615038"><ele>217.0</ele><time>2026-04-04T11:32:40.587Z</time></trkpt><trkpt lat="43.3086452" lon="11.3615798"><ele>217.25</ele><time>2026-04-04T11:32:41.588Z</time></trkpt><trkpt lat="43.3085203" lon="11.3616603"><ele>217.5</ele><time>2026-04-04T11:32:42.578Z</time></trkpt><trkpt lat="43.3084011" lon="11.3617403"><ele>217.75</ele><time>2026-04-04T11:32:43.578Z</time></trkpt><trkpt lat="43.3082811" lon="11.3618297"><ele>218.0</ele><time>2026-04-04T11:32:44.58Z</time></trkpt><trkpt lat="43.3081597" lon="11.3619243"><ele>217.5</ele><time>2026-04-04T11:32:45.576Z</time></trkpt><trkpt lat="43.3080443" lon="11.3620109"><ele>217.0</ele><time>2026-04-04T11:32:46.587Z</time></trkpt><trkpt lat="43.3079273" lon="11.3621075"><ele>216.5</ele><time>2026-04-04T11:32:47.581Z</time></trkpt><trkpt lat="43.3078132" lon="11.3622076"><ele>216.0</ele><time>2026-04-04T11:32:48.581Z</time></trkpt><trkpt lat="43.3077038" lon="11.3623078"><ele>216.0</ele><time>2026-04-04T11:32:49.586Z</time></trkpt><trkpt lat="43.3075887" lon="11.362412"><ele>216.0</ele><time>2026-04-04T11:32:50.584Z</time></trkpt><trkpt lat="43.3074695" lon="11.3625271"><ele>216.0</ele><time>2026-04-04T11:32:51.577Z</time></trkpt><trkpt lat="43.3073514" lon="11.3626465"><ele>216.0</ele><time>2026-04-04T11:32:52.572Z</time></trkpt><trkpt lat="43.3072306" lon="11.3627754"><ele>216.25</ele><time>2026-04-04T11:32:53.572Z</time></trkpt><trkpt lat="43.3071121" lon="11.3629018"><ele>216.5</ele><time>2026-04-04T11:32:54.576Z</time></trkpt><trkpt lat="43.3070025" lon="11.3630278"><ele>216.75</ele><time>2026-04-04T11:32:55.569Z</time></trkpt><trkpt lat="43.3068912" lon="11.36316"><ele>217.0</ele><time>2026-04-04T11:32:56.577Z</time></trkpt><trkpt lat="43.3067811" lon="11.3633011"><ele>216.0</ele><time>2026-04-04T11:32:57.583Z</time></trkpt><trkpt lat="43.306673" lon="11.3634478"><ele>215.0</ele><time>2026-04-04T11:32:58.575Z</time></trkpt><trkpt lat="43.3065638" lon="11.3635946"><ele>214.0</ele><time>2026-04-04T11:32:59.577Z</time></trkpt><trkpt lat="43.3064592" lon="11.3637387"><ele>213.66666666666666</ele><time>2026-04-04T11:33:00.578Z</time></trkpt><trkpt lat="43.3063528" lon="11.3638817"><ele>213.33333333333331</ele><time>2026-04-04T11:33:01.582Z</time></trkpt><trkpt lat="43.3062438" lon="11.3640302"><ele>213.0</ele><time>2026-04-04T11:33:02.579Z</time></trkpt><trkpt lat="43.3061381" lon="11.3641763"><ele>213.0</ele><time>2026-04-04T11:33:03.585Z</time></trkpt><trkpt lat="43.3060369" lon="11.3643143"><ele>213.0</ele><time>2026-04-04T11:33:04.567Z</time></trkpt><trkpt lat="43.3059342" lon="11.3644572"><ele>213.0</ele><time>2026-04-04T11:33:05.589Z</time></trkpt><trkpt lat="43.3058315" lon="11.3645961"><ele>213.0</ele><time>2026-04-04T11:33:06.573Z</time></trkpt><trkpt lat="43.3057296" lon="11.3647328"><ele>213.0</ele><time>2026-04-04T11:33:07.583Z</time></trkpt><trkpt lat="43.3056255" lon="11.3648764"><ele>213.0</ele><time>2026-04-04T11:33:08.585Z</time></trkpt><trkpt lat="43.3055184" lon="11.3650309"><ele>213.0</ele><time>2026-04-04T11:33:09.582Z</time></trkpt><trkpt lat="43.3054019" lon="11.3651924"><ele>213.0</ele><time>2026-04-04T11:33:10.577Z</time></trkpt><trkpt lat="43.3052823" lon="11.3653553"><ele>213.0</ele><time>2026-04-04T11:33:11.585Z</time></trkpt><trkpt lat="43.3051706" lon="11.3655078"><ele>213.0</ele><time>2026-04-04T11:33:12.578Z</time></trkpt><trkpt lat="43.3050621" lon="11.3656538"><ele>212.25</ele><time>2026-04-04T11:33:13.579Z</time></trkpt><trkpt lat="43.3049597" lon="11.3657937"><ele>211.5</ele><time>2026-04-04T11:33:14.585Z</time></trkpt><trkpt lat="43.3048618" lon="11.3659282"><ele>210.75</ele><time>2026-04-04T11:33:15.581Z</time></trkpt><trkpt lat="43.3047693" lon="11.3660568"><ele>210.0</ele><time>2026-04-04T11:33:16.582Z</time></trkpt><trkpt lat="43.3046828" lon="11.36618"><ele>210.0</ele><time>2026-04-04T11:33:17.582Z</time></trkpt><trkpt lat="43.3045968" lon="11.3663014"><ele>210.0</ele><time>2026-04-04T11:33:18.58Z</time></trkpt><trkpt lat="43.3045099" lon="11.3664264"><ele>210.0</ele><time>2026-04-04T11:33:19.574Z</time></trkpt><trkpt lat="43.3044175" lon="11.3665623"><ele>210.0</ele><time>2026-04-04T11:33:20.58Z</time></trkpt><trkpt lat="43.3043119" lon="11.3667109"><ele>210.0</ele><time>2026-04-04T11:33:21.584Z</time></trkpt><trkpt lat="43.3041934" lon="11.3668731"><ele>210.0</ele><time>2026-04-04T11:33:22.583Z</time></trkpt><trkpt lat="43.3040653" lon="11.3670501"><ele>210.0</ele><time>2026-04-04T11:33:23.58Z</time></trkpt><trkpt lat="43.3039339" lon="11.3672326"><ele>211.66666666666669</ele><time>2026-04-04T11:33:24.585Z</time></trkpt><trkpt lat="43.3038011" lon="11.3674148"><ele>213.33333333333334</ele><time>2026-04-04T11:33:25.58Z</time></trkpt><trkpt lat="43.3036695" lon="11.3675916"><ele>215.0</ele><time>2026-04-04T11:33:26.579Z</time></trkpt><trkpt lat="43.3035448" lon="11.3677608"><ele>215.0</ele><time>2026-04-04T11:33:27.573Z</time></trkpt><trkpt lat="43.3034222" lon="11.3679318"><ele>215.0</ele><time>2026-04-04T11:33:28.589Z</time></trkpt><trkpt lat="43.3032989" lon="11.3681021"><ele>215.0</ele><time>2026-04-04T11:33:29.57Z</time></trkpt><trkpt lat="43.3031747" lon="11.3682733"><ele>213.66666666666669</ele><time>2026-04-04T11:33:30.58Z</time></trkpt><trkpt lat="43.3030513" lon="11.3684446"><ele>212.33333333333331</ele><time>2026-04-04T11:33:31.567Z</time></trkpt><trkpt lat="43.3029283" lon="11.3686166"><ele>211.0</ele><time>2026-04-04T11:33:32.572Z</time></trkpt><trkpt lat="43.3028054" lon="11.3687917"><ele>209.0</ele><time>2026-04-04T11:33:33.583Z</time></trkpt><trkpt lat="43.3026831" lon="11.3689726"><ele>207.0</ele><time>2026-04-04T11:33:34.583Z</time></trkpt><trkpt lat="43.3025622" lon="11.3691536"><ele>205.0</ele><time>2026-04-04T11:33:35.572Z</time></trkpt><trkpt lat="43.3024474" lon="11.3693205"><ele>205.0</ele><time>2026-04-04T11:33:36.579Z</time></trkpt><trkpt lat="43.3023437" lon="11.3694861"><ele>205.0</ele><time>2026-04-04T11:33:37.57Z</time></trkpt><trkpt lat="43.3022489" lon="11.3696526"><ele>205.0</ele><time>2026-04-04T11:33:38.58Z</time></trkpt><trkpt lat="43.3021666" lon="11.3698149"><ele>205.5</ele><time>2026-04-04T11:33:39.574Z</time></trkpt><trkpt lat="43.3020903" lon="11.3699708"><ele>206.0</ele><time>2026-04-04T11:33:40.585Z</time></trkpt><trkpt lat="43.3020257" lon="11.3701137"><ele>206.5</ele><time>2026-04-04T11:33:41.578Z</time></trkpt><trkpt lat="43.3019682" lon="11.3702327"><ele>207.0</ele><time>2026-04-04T11:33:42.59Z</time></trkpt><trkpt lat="43.3019227" lon="11.3703386"><ele>207.0</ele><time>2026-04-04T11:33:43.585Z</time></trkpt><trkpt lat="43.3018846" lon="11.3704283"><ele>207.0</ele><time>2026-04-04T11:33:44.578Z</time></trkpt><trkpt lat="43.3018404" lon="11.3705026"><ele>207.0</ele><time>2026-04-04T11:33:45.576Z</time></trkpt><trkpt lat="43.3017814" lon="11.3705601"><ele>207.0</ele><time>2026-04-04T11:33:46.585Z</time></trkpt><trkpt lat="43.3017052" lon="11.3706034"><ele>207.0</ele><time>2026-04-04T11:33:47.58Z</time></trkpt><trkpt lat="43.3016209" lon="11.3706433"><ele>207.0</ele><time>2026-04-04T11:33:48.589Z</time></trkpt><trkpt lat="43.3015494" lon="11.3707023"><ele>206.8</ele><time>2026-04-04T11:33:49.581Z</time></trkpt><trkpt lat="43.3014878" lon="11.3707968"><ele>206.6</ele><time>2026-04-04T11:33:50.58Z</time></trkpt><trkpt lat="43.3014413" lon="11.3709061"><ele>206.4</ele><time>2026-04-04T11:33:51.579Z</time></trkpt><trkpt lat="43.3013969" lon="11.3710155"><ele>206.20000000000002</ele><time>2026-04-04T11:33:52.582Z</time></trkpt><trkpt lat="43.3013304" lon="11.3711271"><ele>206.0</ele><time>2026-04-04T11:33:53.57Z</time></trkpt><trkpt lat="43.3012374" lon="11.3712226"><ele>206.0</ele><time>2026-04-04T11:33:54.583Z</time></trkpt><trkpt lat="43.3011267" lon="11.3713139"><ele>206.0</ele><time>2026-04-04T11:33:55.582Z</time></trkpt><trkpt lat="43.3010138" lon="11.3714237"><ele>206.0</ele><time>2026-04-04T11:33:56.581Z</time></trkpt><trkpt lat="43.3009092" lon="11.3715423"><ele>206.0</ele><time>2026-04-04T11:33:57.584Z</time></trkpt><trkpt lat="43.3008092" lon="11.3716698"><ele>205.5</ele><time>2026-04-04T11:33:58.585Z</time></trkpt><trkpt lat="43.3007178" lon="11.3718059"><ele>205.0</ele><time>2026-04-04T11:33:59.584Z</time></trkpt><trkpt lat="43.3006325" lon="11.3719524"><ele>204.5</ele><time>2026-04-04T11:34:00.58Z</time></trkpt><trkpt lat="43.3005562" lon="11.3721106"><ele>204.0</ele><time>2026-04-04T11:34:01.584Z</time></trkpt><trkpt lat="43.3004826" lon="11.3722739"><ele>204.0</ele><time>2026-04-04T11:34:02.592Z</time></trkpt><trkpt lat="43.3004115" lon="11.3724421"><ele>204.0</ele><time>2026-04-04T11:34:03.579Z</time></trkpt><trkpt lat="43.3003424" lon="11.372616"><ele>204.0</ele><time>2026-04-04T11:34:04.583Z</time></trkpt><trkpt lat="43.3002758" lon="11.372793"><ele>204.0</ele><time>2026-04-04T11:34:05.578Z</time></trkpt><trkpt lat="43.30021" lon="11.3729622"><ele>202.5</ele><time>2026-04-04T11:34:06.577Z</time></trkpt><trkpt lat="43.3001447" lon="11.3731411"><ele>201.0</ele><time>2026-04-04T11:34:07.582Z</time></trkpt><trkpt lat="43.300077" lon="11.3733252"><ele>199.5</ele><time>2026-04-04T11:34:08.578Z</time></trkpt><trkpt lat="43.3000044" lon="11.3735104"><ele>198.0</ele><time>2026-04-04T11:34:09.577Z</time></trkpt><trkpt lat="43.2999288" lon="11.3736902"><ele>198.0</ele><time>2026-04-04T11:34:10.586Z</time></trkpt><trkpt lat="43.2998534" lon="11.3738626"><ele>198.0</ele><time>2026-04-04T11:34:11.589Z</time></trkpt><trkpt lat="43.2997725" lon="11.374032"><ele>198.0</ele><time>2026-04-04T11:34:12.588Z</time></trkpt><trkpt lat="43.2996798" lon="11.3741946"><ele>198.0</ele><time>2026-04-04T11:34:13.583Z</time></trkpt><trkpt lat="43.2995722" lon="11.374338"><ele>198.0</ele><time>2026-04-04T11:34:14.58Z</time></trkpt><trkpt lat="43.2994534" lon="11.3744453"><ele>198.0</ele><time>2026-04-04T11:34:15.569Z</time></trkpt><trkpt lat="43.2993294" lon="11.3745386"><ele>198.0</ele><time>2026-04-04T11:34:16.583Z</time></trkpt><trkpt lat="43.2991974" lon="11.3746215"><ele>198.0</ele><time>2026-04-04T11:34:17.573Z</time></trkpt><trkpt lat="43.2990523" lon="11.3746814"><ele>196.0</ele><time>2026-04-04T11:34:18.584Z</time></trkpt><trkpt lat="43.2988985" lon="11.3747127"><ele>194.0</ele><time>2026-04-04T11:34:19.583Z</time></trkpt><trkpt lat="43.2987389" lon="11.37473"><ele>192.0</ele><time>2026-04-04T11:34:20.573Z</time></trkpt><trkpt lat="43.2985722" lon="11.3747287"><ele>192.0</ele><time>2026-04-04T11:34:21.584Z</time></trkpt><trkpt lat="43.2984029" lon="11.3746972"><ele>192.0</ele><time>2026-04-04T11:34:22.581Z</time></trkpt><trkpt lat="43.2982352" lon="11.3746409"><ele>192.0</ele><time>2026-04-04T11:34:23.576Z</time></trkpt><trkpt lat="43.2980694" lon="11.3745643"><ele>193.33333333333331</ele><time>2026-04-04T11:34:24.584Z</time></trkpt><trkpt lat="43.2979027" lon="11.3744873"><ele>194.66666666666666</ele><time>2026-04-04T11:34:25.588Z</time></trkpt><trkpt lat="43.2977328" lon="11.3744089"><ele>196.0</ele><time>2026-04-04T11:34:26.578Z</time></trkpt><trkpt lat="43.2975636" lon="11.3743297"><ele>196.0</ele><time>2026-04-04T11:34:27.586Z</time></trkpt><trkpt lat="43.2973937" lon="11.3742563"><ele>196.0</ele><time>2026-04-04T11:34:28.578Z</time></trkpt><trkpt lat="43.2972314" lon="11.374187"><ele>196.0</ele><time>2026-04-04T11:34:29.573Z</time></trkpt><trkpt lat="43.2970808" lon="11.374118"><ele>194.66666666666666</ele><time>2026-04-04T11:34:30.58Z</time></trkpt><trkpt lat="43.2969374" lon="11.3740547"><ele>193.33333333333331</ele><time>2026-04-04T11:34:31.575Z</time></trkpt><trkpt lat="43.2967902" lon="11.373994"><ele>192.0</ele><time>2026-04-04T11:34:32.58Z</time></trkpt><trkpt lat="43.2966364" lon="11.3739358"><ele>192.0</ele><time>2026-04-04T11:34:33.577Z</time></trkpt><trkpt lat="43.2964792" lon="11.3738753"><ele>192.0</ele><time>2026-04-04T11:34:34.58Z</time></trkpt><trkpt lat="43.296319" lon="11.3738186"><ele>192.0</ele><time>2026-04-04T11:34:35.575Z</time></trkpt><trkpt lat="43.2961558" lon="11.3737708"><ele>193.66666666666669</ele><time>2026-04-04T11:34:36.585Z</time></trkpt><trkpt lat="43.2959934" lon="11.3737367"><ele>195.33333333333334</ele><time>2026-04-04T11:34:37.592Z</time></trkpt><trkpt lat="43.29583" lon="11.373717"><ele>197.0</ele><time>2026-04-04T11:34:38.582Z</time></trkpt><trkpt lat="43.295665" lon="11.373711"><ele>197.33333333333334</ele><time>2026-04-04T11:34:39.581Z</time></trkpt><trkpt lat="43.295497" lon="11.373718"><ele>197.66666666666669</ele><time>2026-04-04T11:34:40.572Z</time></trkpt><trkpt lat="43.295327" lon="11.3737398"><ele>198.0</ele><time>2026-04-04T11:34:41.579Z</time></trkpt><trkpt lat="43.2951527" lon="11.3737794"><ele>198.0</ele><time>2026-04-04T11:34:42.577Z</time></trkpt><trkpt lat="43.2949781" lon="11.3738319"><ele>198.0</ele><time>2026-04-04T11:34:43.581Z</time></trkpt><trkpt lat="43.2947982" lon="11.3738943"><ele>198.0</ele><time>2026-04-04T11:34:44.573Z</time></trkpt><trkpt lat="43.2946163" lon="11.3739638"><ele>196.0</ele><time>2026-04-04T11:34:45.587Z</time></trkpt><trkpt lat="43.294445" lon="11.374031"><ele>194.0</ele><time>2026-04-04T11:34:46.585Z</time></trkpt><trkpt lat="43.2942829" lon="11.3740954"><ele>192.0</ele><time>2026-04-04T11:34:47.578Z</time></trkpt><trkpt lat="43.2941235" lon="11.3741563"><ele>192.0</ele><time>2026-04-04T11:34:48.58Z</time></trkpt><trkpt lat="43.2939725" lon="11.3742048"><ele>192.0</ele><time>2026-04-04T11:34:49.583Z</time></trkpt><trkpt lat="43.2938254" lon="11.3742368"><ele>192.0</ele><time>2026-04-04T11:34:50.579Z</time></trkpt><trkpt lat="43.2936779" lon="11.3742481"><ele>192.0</ele><time>2026-04-04T11:34:51.577Z</time></trkpt><trkpt lat="43.2935214" lon="11.3742518"><ele>192.0</ele><time>2026-04-04T11:34:52.578Z</time></trkpt><trkpt lat="43.2933537" lon="11.3742551"><ele>192.0</ele><time>2026-04-04T11:34:53.58Z</time></trkpt><trkpt lat="43.2931745" lon="11.3742596"><ele>191.33333333333334</ele><time>2026-04-04T11:34:54.581Z</time></trkpt><trkpt lat="43.2929931" lon="11.3742648"><ele>190.66666666666669</ele><time>2026-04-04T11:34:55.585Z</time></trkpt><trkpt lat="43.292821" lon="11.3742735"><ele>190.0</ele><time>2026-04-04T11:34:56.577Z</time></trkpt><trkpt lat="43.2926565" lon="11.37428"><ele>190.0</ele><time>2026-04-04T11:34:57.592Z</time></trkpt><trkpt lat="43.2924936" lon="11.3743082"><ele>190.0</ele><time>2026-04-04T11:34:58.587Z</time></trkpt><trkpt lat="43.2923283" lon="11.3743585"><ele>190.0</ele><time>2026-04-04T11:34:59.571Z</time></trkpt><trkpt lat="43.2921604" lon="11.3744288"><ele>191.0</ele><time>2026-04-04T11:35:00.582Z</time></trkpt><trkpt lat="43.2919945" lon="11.3745205"><ele>192.0</ele><time>2026-04-04T11:35:01.584Z</time></trkpt><trkpt lat="43.2918363" lon="11.3746292"><ele>193.0</ele><time>2026-04-04T11:35:02.584Z</time></trkpt><trkpt lat="43.2916807" lon="11.3747517"><ele>192.66666666666666</ele><time>2026-04-04T11:35:03.587Z</time></trkpt><trkpt lat="43.2915245" lon="11.374881"><ele>192.33333333333331</ele><time>2026-04-04T11:35:04.571Z</time></trkpt><trkpt lat="43.2913697" lon="11.3750086"><ele>192.0</ele><time>2026-04-04T11:35:05.587Z</time></trkpt><trkpt lat="43.2912226" lon="11.3751331"><ele>192.0</ele><time>2026-04-04T11:35:06.575Z</time></trkpt><trkpt lat="43.2910846" lon="11.3752517"><ele>192.0</ele><time>2026-04-04T11:35:07.588Z</time></trkpt><trkpt lat="43.2909556" lon="11.3753801"><ele>192.0</ele><time>2026-04-04T11:35:08.576Z</time></trkpt><trkpt lat="43.2908349" lon="11.3755297"><ele>190.33333333333334</ele><time>2026-04-04T11:35:09.574Z</time></trkpt><trkpt lat="43.2907296" lon="11.3757081"><ele>188.66666666666669</ele><time>2026-04-04T11:35:10.572Z</time></trkpt><trkpt lat="43.2906438" lon="11.3758964"><ele>187.0</ele><time>2026-04-04T11:35:11.571Z</time></trkpt><trkpt lat="43.2905765" lon="11.3760917"><ele>187.0</ele><time>2026-04-04T11:35:12.569Z</time></trkpt><trkpt lat="43.2905308" lon="11.3762898"><ele>187.0</ele><time>2026-04-04T11:35:13.571Z</time></trkpt><trkpt lat="43.2905092" lon="11.3764987"><ele>187.0</ele><time>2026-04-04T11:35:14.577Z</time></trkpt><trkpt lat="43.2905139" lon="11.3767162"><ele>187.0</ele><time>2026-04-04T11:35:15.571Z</time></trkpt><trkpt lat="43.2905382" lon="11.376937"><ele>187.0</ele><time>2026-04-04T11:35:16.568Z</time></trkpt><trkpt lat="43.2905724" lon="11.37716"><ele>187.0</ele><time>2026-04-04T11:35:17.57Z</time></trkpt><trkpt lat="43.2906073" lon="11.3773821"><ele>187.0</ele><time>2026-04-04T11:35:18.574Z</time></trkpt><trkpt lat="43.2906408" lon="11.3776059"><ele>187.0</ele><time>2026-04-04T11:35:19.576Z</time></trkpt><trkpt lat="43.290677" lon="11.3778312"><ele>187.0</ele><time>2026-04-04T11:35:20.58Z</time></trkpt><trkpt lat="43.2907118" lon="11.3780363"><ele>188.5</ele><time>2026-04-04T11:35:21.583Z</time></trkpt><trkpt lat="43.2907426" lon="11.3782267"><ele>190.0</ele><time>2026-04-04T11:35:22.586Z</time></trkpt><trkpt lat="43.2907696" lon="11.3784107"><ele>191.5</ele><time>2026-04-04T11:35:23.577Z</time></trkpt><trkpt lat="43.2907912" lon="11.3785936"><ele>193.0</ele><time>2026-04-04T11:35:24.589Z</time></trkpt><trkpt lat="43.2908022" lon="11.3787566"><ele>193.83333333333331</ele><time>2026-04-04T11:35:25.57Z</time></trkpt><trkpt lat="43.2908026" lon="11.3789002"><ele>194.66666666666666</ele><time>2026-04-04T11:35:26.582Z</time></trkpt><trkpt lat="43.2907937" lon="11.3790259"><ele>195.5</ele><time>2026-04-04T11:35:27.571Z</time></trkpt><trkpt lat="43.2907654" lon="11.3791254"><ele>196.33333333333331</ele><time>2026-04-04T11:35:28.588Z</time></trkpt><trkpt lat="43.2907124" lon="11.3792009"><ele>197.16666666666666</ele><time>2026-04-04T11:35:29.567Z</time></trkpt><trkpt lat="43.2906371" lon="11.3792529"><ele>198.0</ele><time>2026-04-04T11:35:30.581Z</time></trkpt><trkpt lat="43.290546" lon="11.3792927"><ele>198.8</ele><time>2026-04-04T11:35:31.576Z</time></trkpt><trkpt lat="43.2904433" lon="11.3793284"><ele>199.60000000000002</ele><time>2026-04-04T11:35:32.577Z</time></trkpt><trkpt lat="43.2903308" lon="11.3793611"><ele>200.39999999999998</ele><time>2026-04-04T11:35:33.579Z</time></trkpt><trkpt lat="43.2902266" lon="11.3793583"><ele>201.2</ele><time>2026-04-04T11:35:34.582Z</time></trkpt><trkpt lat="43.2901189" lon="11.3793287"><ele>202.0</ele><time>2026-04-04T11:35:35.585Z</time></trkpt><trkpt lat="43.2900041" lon="11.3793074"><ele>202.0</ele><time>2026-04-04T11:35:36.581Z</time></trkpt><trkpt lat="43.2898878" lon="11.3792938"><ele>202.0</ele><time>2026-04-04T11:35:37.573Z</time></trkpt><trkpt lat="43.2897812" lon="11.3792741"><ele>202.0</ele><time>2026-04-04T11:35:38.578Z</time></trkpt><trkpt lat="43.289662" lon="11.3792697"><ele>202.0</ele><time>2026-04-04T11:35:39.572Z</time></trkpt><trkpt lat="43.2895272" lon="11.3792712"><ele>201.33333333333331</ele><time>2026-04-04T11:35:40.583Z</time></trkpt><trkpt lat="43.2893806" lon="11.3792631"><ele>200.66666666666669</ele><time>2026-04-04T11:35:41.575Z</time></trkpt><trkpt lat="43.289229" lon="11.3792615"><ele>200.0</ele><time>2026-04-04T11:35:42.576Z</time></trkpt><trkpt lat="43.2890695" lon="11.3792763"><ele>200.25</ele><time>2026-04-04T11:35:43.579Z</time></trkpt><trkpt lat="43.2889147" lon="11.3792917"><ele>200.5</ele><time>2026-04-04T11:35:44.59Z</time></trkpt><trkpt lat="43.2887688" lon="11.3793059"><ele>200.75</ele><time>2026-04-04T11:35:45.571Z</time></trkpt><trkpt lat="43.2886267" lon="11.3793296"><ele>201.0</ele><time>2026-04-04T11:35:46.581Z</time></trkpt><trkpt lat="43.2884786" lon="11.3793629"><ele>201.0</ele><time>2026-04-04T11:35:47.569Z</time></trkpt><trkpt lat="43.2883277" lon="11.3794051"><ele>201.0</ele><time>2026-04-04T11:35:48.587Z</time></trkpt><trkpt lat="43.2881831" lon="11.3794558"><ele>201.0</ele><time>2026-04-04T11:35:49.577Z</time></trkpt><trkpt lat="43.2880436" lon="11.3795193"><ele>200.75</ele><time>2026-04-04T11:35:50.581Z</time></trkpt><trkpt lat="43.2879005" lon="11.3795934"><ele>200.5</ele><time>2026-04-04T11:35:51.578Z</time></trkpt><trkpt lat="43.2877617" lon="11.3796571"><ele>200.25</ele><time>2026-04-04T11:35:52.58Z</time></trkpt><trkpt lat="43.2876285" lon="11.3797125"><ele>200.0</ele><time>2026-04-04T11:35:53.58Z</time></trkpt><trkpt lat="43.2874921" lon="11.3797792"><ele>199.5</ele><time>2026-04-04T11:35:54.573Z</time></trkpt><trkpt lat="43.2873625" lon="11.3798424"><ele>199.0</ele><time>2026-04-04T11:35:55.578Z</time></trkpt><trkpt lat="43.2872313" lon="11.3798788"><ele>198.5</ele><time>2026-04-04T11:35:56.58Z</time></trkpt><trkpt lat="43.2870948" lon="11.379872"><ele>198.0</ele><time>2026-04-04T11:35:57.578Z</time></trkpt><trkpt lat="43.2869494" lon="11.3798561"><ele>197.0</ele><time>2026-04-04T11:35:58.578Z</time></trkpt><trkpt lat="43.2867911" lon="11.379827"><ele>196.0</ele><time>2026-04-04T11:35:59.585Z</time></trkpt><trkpt lat="43.2866234" lon="11.3797748"><ele>195.0</ele><time>2026-04-04T11:36:00.585Z</time></trkpt><trkpt lat="43.2864512" lon="11.3797056"><ele>195.66666666666669</ele><time>2026-04-04T11:36:01.576Z</time></trkpt><trkpt lat="43.2862944" lon="11.3796275"><ele>196.33333333333334</ele><time>2026-04-04T11:36:02.588Z</time></trkpt><trkpt lat="43.2861482" lon="11.3795388"><ele>197.0</ele><time>2026-04-04T11:36:03.575Z</time></trkpt><trkpt lat="43.2860002" lon="11.3794397"><ele>197.0</ele><time>2026-04-04T11:36:04.577Z</time></trkpt><trkpt lat="43.2858567" lon="11.3793363"><ele>197.0</ele><time>2026-04-04T11:36:05.583Z</time></trkpt><trkpt lat="43.2857226" lon="11.3792384"><ele>197.0</ele><time>2026-04-04T11:36:06.578Z</time></trkpt><trkpt lat="43.2855982" lon="11.3791525"><ele>196.25</ele><time>2026-04-04T11:36:07.58Z</time></trkpt><trkpt lat="43.2854759" lon="11.379091"><ele>195.5</ele><time>2026-04-04T11:36:08.578Z</time></trkpt><trkpt lat="43.285344" lon="11.3790444"><ele>194.75</ele><time>2026-04-04T11:36:09.574Z</time></trkpt><trkpt lat="43.2852029" lon="11.3790093"><ele>194.0</ele><time>2026-04-04T11:36:10.583Z</time></trkpt><trkpt lat="43.2850481" lon="11.3789908"><ele>194.0</ele><time>2026-04-04T11:36:11.574Z</time></trkpt><trkpt lat="43.2848833" lon="11.3789742"><ele>194.0</ele><time>2026-04-04T11:36:12.582Z</time></trkpt><trkpt lat="43.2847276" lon="11.3789577"><ele>194.0</ele><time>2026-04-04T11:36:13.585Z</time></trkpt><trkpt lat="43.2845816" lon="11.3789365"><ele>193.75</ele><time>2026-04-04T11:36:14.582Z</time></trkpt><trkpt lat="43.2844498" lon="11.3789084"><ele>193.5</ele><time>2026-04-04T11:36:15.578Z</time></trkpt><trkpt lat="43.2843287" lon="11.3788712"><ele>193.25</ele><time>2026-04-04T11:36:16.577Z</time></trkpt><trkpt lat="43.2842159" lon="11.3788046"><ele>193.0</ele><time>2026-04-04T11:36:17.584Z</time></trkpt><trkpt lat="43.2841111" lon="11.3787025"><ele>191.5</ele><time>2026-04-04T11:36:18.579Z</time></trkpt><trkpt lat="43.2840254" lon="11.378568"><ele>190.0</ele><time>2026-04-04T11:36:19.586Z</time></trkpt><trkpt lat="43.283953" lon="11.3784138"><ele>188.5</ele><time>2026-04-04T11:36:20.572Z</time></trkpt><trkpt lat="43.2838913" lon="11.3782524"><ele>187.0</ele><time>2026-04-04T11:36:21.571Z</time></trkpt><trkpt lat="43.2838107" lon="11.3781114"><ele>185.0</ele><time>2026-04-04T11:36:22.579Z</time></trkpt><trkpt lat="43.2837157" lon="11.377991"><ele>183.0</ele><time>2026-04-04T11:36:23.581Z</time></trkpt><trkpt lat="43.2836037" lon="11.377889"><ele>181.0</ele><time>2026-04-04T11:36:24.574Z</time></trkpt><trkpt lat="43.2834829" lon="11.377825"><ele>179.0</ele><time>2026-04-04T11:36:25.579Z</time></trkpt><trkpt lat="43.2833574" lon="11.377789"><ele>179.0</ele><time>2026-04-04T11:36:26.584Z</time></trkpt><trkpt lat="43.2832258" lon="11.3777757"><ele>179.0</ele><time>2026-04-04T11:36:27.586Z</time></trkpt><trkpt lat="43.2830866" lon="11.3777856"><ele>179.0</ele><time>2026-04-04T11:36:28.582Z</time></trkpt><trkpt lat="43.2829497" lon="11.3778275"><ele>179.0</ele><time>2026-04-04T11:36:29.579Z</time></trkpt><trkpt lat="43.2828104" lon="11.3778838"><ele>178.75</ele><time>2026-04-04T11:36:30.579Z</time></trkpt><trkpt lat="43.2826742" lon="11.3779185"><ele>178.5</ele><time>2026-04-04T11:36:31.581Z</time></trkpt><trkpt lat="43.2825419" lon="11.3779286"><ele>178.25</ele><time>2026-04-04T11:36:32.576Z</time></trkpt><trkpt lat="43.2824165" lon="11.3779072"><ele>178.0</ele><time>2026-04-04T11:36:33.58Z</time></trkpt><trkpt lat="43.2823047" lon="11.3778508"><ele>177.8</ele><time>2026-04-04T11:36:34.583Z</time></trkpt><trkpt lat="43.2822124" lon="11.3777713"><ele>177.60000000000002</ele><time>2026-04-04T11:36:35.572Z</time></trkpt><trkpt lat="43.2821363" lon="11.3776743"><ele>177.39999999999998</ele><time>2026-04-04T11:36:36.602Z</time></trkpt><trkpt lat="43.2820677" lon="11.3775571"><ele>177.2</ele><time>2026-04-04T11:36:37.581Z</time></trkpt><trkpt lat="43.2820141" lon="11.3774119"><ele>177.0</ele><time>2026-04-04T11:36:38.578Z</time></trkpt><trkpt lat="43.2819727" lon="11.3772509"><ele>176.6</ele><time>2026-04-04T11:36:39.596Z</time></trkpt><trkpt lat="43.2819374" lon="11.3770982"><ele>176.2</ele><time>2026-04-04T11:36:40.58Z</time></trkpt><trkpt lat="43.2819048" lon="11.3769603"><ele>175.8</ele><time>2026-04-04T11:36:41.591Z</time></trkpt><trkpt lat="43.2818774" lon="11.3768441"><ele>175.4</ele><time>2026-04-04T11:36:42.575Z</time></trkpt><trkpt lat="43.2818762" lon="11.3767292"><ele>175.0</ele><time>2026-04-04T11:36:43.577Z</time></trkpt><trkpt lat="43.2819096" lon="11.3766039"><ele>175.0</ele><time>2026-04-04T11:36:44.573Z</time></trkpt><trkpt lat="43.2819579" lon="11.3764774"><ele>175.0</ele><time>2026-04-04T11:36:45.575Z</time></trkpt><trkpt lat="43.2819785" lon="11.3763568"><ele>175.0</ele><time>2026-04-04T11:36:46.588Z</time></trkpt><trkpt lat="43.2819709" lon="11.3762426"><ele>175.0</ele><time>2026-04-04T11:36:47.574Z</time></trkpt><trkpt lat="43.2819515" lon="11.3761463"><ele>175.0</ele><time>2026-04-04T11:36:48.583Z</time></trkpt><trkpt lat="43.281859" lon="11.3760336"><ele>175.4</ele><time>2026-04-04T11:36:50.585Z</time></trkpt><trkpt lat="43.2817879" lon="11.3759722"><ele>175.8</ele><time>2026-04-04T11:36:51.573Z</time></trkpt><trkpt lat="43.2817121" lon="11.37588"><ele>176.2</ele><time>2026-04-04T11:36:52.579Z</time></trkpt><trkpt lat="43.2816439" lon="11.3757509"><ele>176.6</ele><time>2026-04-04T11:36:53.583Z</time></trkpt><trkpt lat="43.2815994" lon="11.3755836"><ele>177.0</ele><time>2026-04-04T11:36:54.579Z</time></trkpt><trkpt lat="43.2815776" lon="11.3754084"><ele>178.25</ele><time>2026-04-04T11:36:55.577Z</time></trkpt><trkpt lat="43.2815621" lon="11.3752348"><ele>179.5</ele><time>2026-04-04T11:36:56.582Z</time></trkpt><trkpt lat="43.2815637" lon="11.3750492"><ele>180.75</ele><time>2026-04-04T11:36:57.573Z</time></trkpt><trkpt lat="43.281588" lon="11.3748702"><ele>182.0</ele><time>2026-04-04T11:36:58.574Z</time></trkpt><trkpt lat="43.2816248" lon="11.3747083"><ele>183.75</ele><time>2026-04-04T11:36:59.572Z</time></trkpt><trkpt lat="43.2816641" lon="11.374562"><ele>185.5</ele><time>2026-04-04T11:37:00.571Z</time></trkpt><trkpt lat="43.2817134" lon="11.3744127"><ele>187.25</ele><time>2026-04-04T11:37:01.584Z</time></trkpt><trkpt lat="43.2817705" lon="11.374268"><ele>189.0</ele><time>2026-04-04T11:37:02.576Z</time></trkpt><trkpt lat="43.2818364" lon="11.3741286"><ele>189.0</ele><time>2026-04-04T11:37:03.575Z</time></trkpt><trkpt lat="43.2819133" lon="11.3739836"><ele>189.0</ele><time>2026-04-04T11:37:04.587Z</time></trkpt><trkpt lat="43.2819933" lon="11.3738365"><ele>189.0</ele><time>2026-04-04T11:37:05.582Z</time></trkpt><trkpt lat="43.2820655" lon="11.3736942"><ele>189.0</ele><time>2026-04-04T11:37:06.573Z</time></trkpt><trkpt lat="43.282128" lon="11.3735423"><ele>190.0</ele><time>2026-04-04T11:37:07.58Z</time></trkpt><trkpt lat="43.2821794" lon="11.3733777"><ele>191.0</ele><time>2026-04-04T11:37:08.591Z</time></trkpt><trkpt lat="43.2822266" lon="11.3732086"><ele>192.0</ele><time>2026-04-04T11:37:09.578Z</time></trkpt><trkpt lat="43.2822566" lon="11.3730347"><ele>193.0</ele><time>2026-04-04T11:37:10.586Z</time></trkpt><trkpt lat="43.2822764" lon="11.37286"><ele>193.5</ele><time>2026-04-04T11:37:11.575Z</time></trkpt><trkpt lat="43.2822928" lon="11.3726954"><ele>194.0</ele><time>2026-04-04T11:37:12.586Z</time></trkpt><trkpt lat="43.2823043" lon="11.3725223"><ele>194.5</ele><time>2026-04-04T11:37:13.571Z</time></trkpt><trkpt lat="43.2823191" lon="11.3723463"><ele>195.0</ele><time>2026-04-04T11:37:14.593Z</time></trkpt><trkpt lat="43.2823363" lon="11.3721639"><ele>196.0</ele><time>2026-04-04T11:37:15.579Z</time></trkpt><trkpt lat="43.2823559" lon="11.3719726"><ele>197.0</ele><time>2026-04-04T11:37:16.577Z</time></trkpt><trkpt lat="43.2823747" lon="11.3717707"><ele>198.0</ele><time>2026-04-04T11:37:17.574Z</time></trkpt><trkpt lat="43.2823914" lon="11.371568"><ele>199.0</ele><time>2026-04-04T11:37:18.577Z</time></trkpt><trkpt lat="43.2824075" lon="11.3713793"><ele>199.5</ele><time>2026-04-04T11:37:19.579Z</time></trkpt><trkpt lat="43.2824211" lon="11.3711927"><ele>200.0</ele><time>2026-04-04T11:37:20.58Z</time></trkpt><trkpt lat="43.2824362" lon="11.371001"><ele>200.5</ele><time>2026-04-04T11:37:21.583Z</time></trkpt><trkpt lat="43.2824586" lon="11.3708211"><ele>201.0</ele><time>2026-04-04T11:37:22.574Z</time></trkpt><trkpt lat="43.2824846" lon="11.3706543"><ele>202.0</ele><time>2026-04-04T11:37:23.574Z</time></trkpt><trkpt lat="43.2825186" lon="11.3704814"><ele>203.0</ele><time>2026-04-04T11:37:24.57Z</time></trkpt><trkpt lat="43.2825608" lon="11.370305"><ele>204.0</ele><time>2026-04-04T11:37:25.584Z</time></trkpt><trkpt lat="43.2826113" lon="11.3701283"><ele>205.0</ele><time>2026-04-04T11:37:26.571Z</time></trkpt><trkpt lat="43.2826713" lon="11.3699574"><ele>205.0</ele><time>2026-04-04T11:37:27.578Z</time></trkpt><trkpt lat="43.2827417" lon="11.369793"><ele>205.0</ele><time>2026-04-04T11:37:28.584Z</time></trkpt><trkpt lat="43.2828202" lon="11.3696274"><ele>205.0</ele><time>2026-04-04T11:37:29.579Z</time></trkpt><trkpt lat="43.2829066" lon="11.3694569"><ele>205.0</ele><time>2026-04-04T11:37:30.577Z</time></trkpt><trkpt lat="43.2829974" lon="11.3692842"><ele>204.75</ele><time>2026-04-04T11:37:31.587Z</time></trkpt><trkpt lat="43.2830817" lon="11.3691243"><ele>204.5</ele><time>2026-04-04T11:37:32.578Z</time></trkpt><trkpt lat="43.2831573" lon="11.3689753"><ele>204.25</ele><time>2026-04-04T11:37:33.577Z</time></trkpt><trkpt lat="43.2832338" lon="11.3688189"><ele>204.0</ele><time>2026-04-04T11:37:34.579Z</time></trkpt><trkpt lat="43.2833089" lon="11.3686415"><ele>205.0</ele><time>2026-04-04T11:37:35.564Z</time></trkpt><trkpt lat="43.2833756" lon="11.3684444"><ele>206.0</ele><time>2026-04-04T11:37:36.576Z</time></trkpt><trkpt lat="43.2834272" lon="11.3682511"><ele>207.0</ele><time>2026-04-04T11:37:37.576Z</time></trkpt><trkpt lat="43.2834655" lon="11.3680662"><ele>208.0</ele><time>2026-04-04T11:37:38.578Z</time></trkpt><trkpt lat="43.2834897" lon="11.3678918"><ele>208.0</ele><time>2026-04-04T11:37:39.581Z</time></trkpt><trkpt lat="43.2835072" lon="11.3677181"><ele>208.0</ele><time>2026-04-04T11:37:40.569Z</time></trkpt><trkpt lat="43.2835078" lon="11.3675437"><ele>208.0</ele><time>2026-04-04T11:37:41.574Z</time></trkpt><trkpt lat="43.2834977" lon="11.367371"><ele>208.0</ele><time>2026-04-04T11:37:42.583Z</time></trkpt><trkpt lat="43.2834741" lon="11.3672046"><ele>208.75</ele><time>2026-04-04T11:37:43.578Z</time></trkpt><trkpt lat="43.2834398" lon="11.3670378"><ele>209.5</ele><time>2026-04-04T11:37:44.588Z</time></trkpt><trkpt lat="43.2833911" lon="11.3668764"><ele>210.25</ele><time>2026-04-04T11:37:45.572Z</time></trkpt><trkpt lat="43.2833329" lon="11.3667193"><ele>211.0</ele><time>2026-04-04T11:37:46.582Z</time></trkpt><trkpt lat="43.2832671" lon="11.3665648"><ele>211.0</ele><time>2026-04-04T11:37:47.583Z</time></trkpt><trkpt lat="43.2831914" lon="11.3664161"><ele>211.0</ele><time>2026-04-04T11:37:48.575Z</time></trkpt><trkpt lat="43.283104" lon="11.3662804"><ele>211.0</ele><time>2026-04-04T11:37:49.577Z</time></trkpt><trkpt lat="43.2830098" lon="11.3661506"><ele>211.0</ele><time>2026-04-04T11:37:50.572Z</time></trkpt><trkpt lat="43.2829096" lon="11.3660254"><ele>212.0</ele><time>2026-04-04T11:37:51.573Z</time></trkpt><trkpt lat="43.2828026" lon="11.3659101"><ele>213.0</ele><time>2026-04-04T11:37:52.572Z</time></trkpt><trkpt lat="43.282692" lon="11.3657954"><ele>214.0</ele><time>2026-04-04T11:37:53.571Z</time></trkpt><trkpt lat="43.2825886" lon="11.3656801"><ele>215.0</ele><time>2026-04-04T11:37:54.578Z</time></trkpt><trkpt lat="43.2824906" lon="11.3655668"><ele>215.0</ele><time>2026-04-04T11:37:55.581Z</time></trkpt><trkpt lat="43.2824038" lon="11.3654603"><ele>215.0</ele><time>2026-04-04T11:37:56.577Z</time></trkpt><trkpt lat="43.2823285" lon="11.3653453"><ele>215.0</ele><time>2026-04-04T11:37:57.584Z</time></trkpt><trkpt lat="43.2822686" lon="11.3652199"><ele>215.0</ele><time>2026-04-04T11:37:58.576Z</time></trkpt><trkpt lat="43.2822246" lon="11.3650779"><ele>215.0</ele><time>2026-04-04T11:37:59.593Z</time></trkpt><trkpt lat="43.2821956" lon="11.3649256"><ele>215.0</ele><time>2026-04-04T11:38:00.586Z</time></trkpt><trkpt lat="43.2821847" lon="11.3647676"><ele>215.0</ele><time>2026-04-04T11:38:01.583Z</time></trkpt><trkpt lat="43.2821891" lon="11.3646002"><ele>215.0</ele><time>2026-04-04T11:38:02.575Z</time></trkpt><trkpt lat="43.2822072" lon="11.3644247"><ele>214.0</ele><time>2026-04-04T11:38:03.58Z</time></trkpt><trkpt lat="43.2822268" lon="11.3642551"><ele>213.0</ele><time>2026-04-04T11:38:04.575Z</time></trkpt><trkpt lat="43.2822564" lon="11.3640923"><ele>212.0</ele><time>2026-04-04T11:38:05.577Z</time></trkpt><trkpt lat="43.2822933" lon="11.3639323"><ele>211.0</ele><time>2026-04-04T11:38:06.571Z</time></trkpt><trkpt lat="43.2823371" lon="11.3637816"><ele>213.25</ele><time>2026-04-04T11:38:07.574Z</time></trkpt><trkpt lat="43.2823941" lon="11.3636363"><ele>215.5</ele><time>2026-04-04T11:38:08.565Z</time></trkpt><trkpt lat="43.2824622" lon="11.3634852"><ele>217.75</ele><time>2026-04-04T11:38:09.576Z</time></trkpt><trkpt lat="43.2825292" lon="11.3633265"><ele>220.0</ele><time>2026-04-04T11:38:10.574Z</time></trkpt><trkpt lat="43.2826044" lon="11.363167"><ele>218.0</ele><time>2026-04-04T11:38:11.574Z</time></trkpt><trkpt lat="43.2826829" lon="11.3630194"><ele>216.0</ele><time>2026-04-04T11:38:12.567Z</time></trkpt><trkpt lat="43.2827563" lon="11.3628841"><ele>214.0</ele><time>2026-04-04T11:38:13.576Z</time></trkpt><trkpt lat="43.2828237" lon="11.3627583"><ele>212.0</ele><time>2026-04-04T11:38:14.576Z</time></trkpt><trkpt lat="43.28289" lon="11.3626311"><ele>212.0</ele><time>2026-04-04T11:38:15.587Z</time></trkpt><trkpt lat="43.2829544" lon="11.3625037"><ele>212.0</ele><time>2026-04-04T11:38:16.579Z</time></trkpt><trkpt lat="43.2830147" lon="11.3623683"><ele>212.0</ele><time>2026-04-04T11:38:17.572Z</time></trkpt><trkpt lat="43.2830727" lon="11.3622277"><ele>212.0</ele><time>2026-04-04T11:38:18.583Z</time></trkpt><trkpt lat="43.2831297" lon="11.3620871"><ele>215.5</ele><time>2026-04-04T11:38:19.57Z</time></trkpt><trkpt lat="43.2831822" lon="11.3619426"><ele>219.0</ele><time>2026-04-04T11:38:20.583Z</time></trkpt><trkpt lat="43.2832299" lon="11.3617956"><ele>222.5</ele><time>2026-04-04T11:38:21.578Z</time></trkpt><trkpt lat="43.2832727" lon="11.3616511"><ele>226.0</ele><time>2026-04-04T11:38:22.584Z</time></trkpt><trkpt lat="43.2833069" lon="11.3615008"><ele>225.25</ele><time>2026-04-04T11:38:23.58Z</time></trkpt><trkpt lat="43.2833346" lon="11.3613426"><ele>224.5</ele><time>2026-04-04T11:38:24.587Z</time></trkpt><trkpt lat="43.2833629" lon="11.3611787"><ele>223.75</ele><time>2026-04-04T11:38:25.578Z</time></trkpt><trkpt lat="43.2833904" lon="11.3610111"><ele>223.0</ele><time>2026-04-04T11:38:26.576Z</time></trkpt><trkpt lat="43.2834204" lon="11.3608351"><ele>223.0</ele><time>2026-04-04T11:38:27.579Z</time></trkpt><trkpt lat="43.283459" lon="11.3606486"><ele>223.0</ele><time>2026-04-04T11:38:28.584Z</time></trkpt><trkpt lat="43.2835088" lon="11.3604477"><ele>223.0</ele><time>2026-04-04T11:38:29.581Z</time></trkpt><trkpt lat="43.2835684" lon="11.3602367"><ele>221.0</ele><time>2026-04-04T11:38:30.585Z</time></trkpt><trkpt lat="43.283632" lon="11.360024"><ele>219.0</ele><time>2026-04-04T11:38:31.582Z</time></trkpt><trkpt lat="43.2836965" lon="11.3598103"><ele>217.0</ele><time>2026-04-04T11:38:32.58Z</time></trkpt><trkpt lat="43.2837552" lon="11.3596038"><ele>216.33333333333331</ele><time>2026-04-04T11:38:33.575Z</time></trkpt><trkpt lat="43.2838102" lon="11.3593999"><ele>215.66666666666669</ele><time>2026-04-04T11:38:34.58Z</time></trkpt><trkpt lat="43.2838685" lon="11.3591978"><ele>215.0</ele><time>2026-04-04T11:38:35.573Z</time></trkpt><trkpt lat="43.2839327" lon="11.3589937"><ele>219.66666666666669</ele><time>2026-04-04T11:38:36.573Z</time></trkpt><trkpt lat="43.2839956" lon="11.358784"><ele>224.33333333333331</ele><time>2026-04-04T11:38:37.578Z</time></trkpt><trkpt lat="43.2840549" lon="11.3585634"><ele>229.0</ele><time>2026-04-04T11:38:38.579Z</time></trkpt><trkpt lat="43.2841123" lon="11.3583403"><ele>229.0</ele><time>2026-04-04T11:38:39.584Z</time></trkpt><trkpt lat="43.2841664" lon="11.3581278"><ele>229.0</ele><time>2026-04-04T11:38:40.585Z</time></trkpt><trkpt lat="43.2842087" lon="11.3579174"><ele>229.0</ele><time>2026-04-04T11:38:41.582Z</time></trkpt><trkpt lat="43.2842465" lon="11.3577106"><ele>228.66666666666666</ele><time>2026-04-04T11:38:42.582Z</time></trkpt><trkpt lat="43.2842873" lon="11.3575058"><ele>228.33333333333331</ele><time>2026-04-04T11:38:43.582Z</time></trkpt><trkpt lat="43.2843354" lon="11.3573047"><ele>228.0</ele><time>2026-04-04T11:38:44.581Z</time></trkpt><trkpt lat="43.2843864" lon="11.3571075"><ele>227.66666666666669</ele><time>2026-04-04T11:38:45.587Z</time></trkpt><trkpt lat="43.2844411" lon="11.3569071"><ele>227.33333333333334</ele><time>2026-04-04T11:38:46.579Z</time></trkpt><trkpt lat="43.2845017" lon="11.3567032"><ele>227.0</ele><time>2026-04-04T11:38:47.588Z</time></trkpt><trkpt lat="43.2845632" lon="11.3564941"><ele>226.66666666666669</ele><time>2026-04-04T11:38:48.59Z</time></trkpt><trkpt lat="43.2846288" lon="11.3562898"><ele>226.33333333333331</ele><time>2026-04-04T11:38:49.579Z</time></trkpt><trkpt lat="43.284698" lon="11.3560895"><ele>226.0</ele><time>2026-04-04T11:38:50.576Z</time></trkpt><trkpt lat="43.2847696" lon="11.3558957"><ele>228.5</ele><time>2026-04-04T11:38:51.583Z</time></trkpt><trkpt lat="43.2848373" lon="11.3557055"><ele>231.0</ele><time>2026-04-04T11:38:52.58Z</time></trkpt><trkpt lat="43.2849035" lon="11.355531"><ele>233.5</ele><time>2026-04-04T11:38:53.583Z</time></trkpt><trkpt lat="43.2849647" lon="11.3553679"><ele>236.0</ele><time>2026-04-04T11:38:54.583Z</time></trkpt><trkpt lat="43.2850229" lon="11.3552146"><ele>236.0</ele><time>2026-04-04T11:38:55.58Z</time></trkpt><trkpt lat="43.2850667" lon="11.3550663"><ele>236.00000000000003</ele><time>2026-04-04T11:38:56.577Z</time></trkpt><trkpt lat="43.2850956" lon="11.3549202"><ele>236.00000000000003</ele><time>2026-04-04T11:38:57.591Z</time></trkpt><trkpt lat="43.2851048" lon="11.3547739"><ele>236.0</ele><time>2026-04-04T11:38:58.582Z</time></trkpt><trkpt lat="43.285094" lon="11.3546194"><ele>236.0</ele><time>2026-04-04T11:38:59.58Z</time></trkpt><trkpt lat="43.2850608" lon="11.3544677"><ele>236.5</ele><time>2026-04-04T11:39:00.578Z</time></trkpt><trkpt lat="43.28501" lon="11.3543281"><ele>237.0</ele><time>2026-04-04T11:39:01.587Z</time></trkpt><trkpt lat="43.2849519" lon="11.3541986"><ele>237.5</ele><time>2026-04-04T11:39:02.584Z</time></trkpt><trkpt lat="43.2848802" lon="11.3540778"><ele>238.0</ele><time>2026-04-04T11:39:03.58Z</time></trkpt><trkpt lat="43.284804" lon="11.3539611"><ele>237.60000000000002</ele><time>2026-04-04T11:39:04.588Z</time></trkpt><trkpt lat="43.2847326" lon="11.353847"><ele>237.20000000000002</ele><time>2026-04-04T11:39:05.571Z</time></trkpt><trkpt lat="43.2846628" lon="11.353743"><ele>236.8</ele><time>2026-04-04T11:39:06.572Z</time></trkpt><trkpt lat="43.2846" lon="11.3536453"><ele>236.4</ele><time>2026-04-04T11:39:07.571Z</time></trkpt><trkpt lat="43.2845494" lon="11.3535554"><ele>236.0</ele><time>2026-04-04T11:39:08.582Z</time></trkpt><trkpt lat="43.2845104" lon="11.3534742"><ele>236.00000000000003</ele><time>2026-04-04T11:39:09.572Z</time></trkpt><trkpt lat="43.2844586" lon="11.353369"><ele>236.0</ele><time>2026-04-04T11:39:11.573Z</time></trkpt><trkpt lat="43.2843998" lon="11.3533296"><ele>236.0</ele><time>2026-04-04T11:39:18.577Z</time></trkpt><trkpt lat="43.2843032" lon="11.3533281"><ele>236.0</ele><time>2026-04-04T11:39:20.582Z</time></trkpt><trkpt lat="43.2842435" lon="11.3533726"><ele>236.00000000000003</ele><time>2026-04-04T11:39:21.58Z</time></trkpt><trkpt lat="43.2841642" lon="11.3534347"><ele>236.0</ele><time>2026-04-04T11:39:22.575Z</time></trkpt><trkpt lat="43.2840575" lon="11.3534966"><ele>236.5</ele><time>2026-04-04T11:39:23.58Z</time></trkpt><trkpt lat="43.2839275" lon="11.353563"><ele>237.0</ele><time>2026-04-04T11:39:24.585Z</time></trkpt><trkpt lat="43.2838062" lon="11.3536107"><ele>237.5</ele><time>2026-04-04T11:39:25.583Z</time></trkpt><trkpt lat="43.2836859" lon="11.3536415"><ele>238.0</ele><time>2026-04-04T11:39:26.581Z</time></trkpt><trkpt lat="43.2835518" lon="11.3536692"><ele>238.0</ele><time>2026-04-04T11:39:27.579Z</time></trkpt><trkpt lat="43.2834035" lon="11.3536782"><ele>238.0</ele><time>2026-04-04T11:39:28.585Z</time></trkpt><trkpt lat="43.2832565" lon="11.3536667"><ele>238.0</ele><time>2026-04-04T11:39:29.579Z</time></trkpt><trkpt lat="43.2831056" lon="11.3536436"><ele>238.0</ele><time>2026-04-04T11:39:30.59Z</time></trkpt><trkpt lat="43.2829483" lon="11.3536093"><ele>238.0</ele><time>2026-04-04T11:39:31.581Z</time></trkpt><trkpt lat="43.2827897" lon="11.3535738"><ele>238.0</ele><time>2026-04-04T11:39:32.589Z</time></trkpt><trkpt lat="43.2826301" lon="11.3535335"><ele>238.0</ele><time>2026-04-04T11:39:33.577Z</time></trkpt><trkpt lat="43.2824755" lon="11.3534917"><ele>238.0</ele><time>2026-04-04T11:39:34.579Z</time></trkpt><trkpt lat="43.2823199" lon="11.3534558"><ele>238.0</ele><time>2026-04-04T11:39:35.569Z</time></trkpt><trkpt lat="43.2821606" lon="11.3534205"><ele>238.0</ele><time>2026-04-04T11:39:36.579Z</time></trkpt><trkpt lat="43.2820027" lon="11.3533849"><ele>238.0</ele><time>2026-04-04T11:39:37.582Z</time></trkpt><trkpt lat="43.2818467" lon="11.3533504"><ele>238.0</ele><time>2026-04-04T11:39:38.575Z</time></trkpt><trkpt lat="43.2816908" lon="11.3533147"><ele>238.0</ele><time>2026-04-04T11:39:39.586Z</time></trkpt><trkpt lat="43.2815335" lon="11.3532742"><ele>238.0</ele><time>2026-04-04T11:39:40.579Z</time></trkpt><trkpt lat="43.2813757" lon="11.3532351"><ele>238.0</ele><time>2026-04-04T11:39:41.578Z</time></trkpt><trkpt lat="43.2812166" lon="11.3531926"><ele>238.0</ele><time>2026-04-04T11:39:42.583Z</time></trkpt><trkpt lat="43.281065" lon="11.3531438"><ele>238.0</ele><time>2026-04-04T11:39:43.583Z</time></trkpt><trkpt lat="43.2809182" lon="11.3530922"><ele>238.0</ele><time>2026-04-04T11:39:44.582Z</time></trkpt><trkpt lat="43.2807748" lon="11.3530427"><ele>238.0</ele><time>2026-04-04T11:39:45.588Z</time></trkpt><trkpt lat="43.2806343" lon="11.3529937"><ele>238.0</ele><time>2026-04-04T11:39:46.578Z</time></trkpt><trkpt lat="43.2804944" lon="11.3529448"><ele>236.0</ele><time>2026-04-04T11:39:47.572Z</time></trkpt><trkpt lat="43.2803531" lon="11.352897"><ele>234.0</ele><time>2026-04-04T11:39:48.571Z</time></trkpt><trkpt lat="43.2802119" lon="11.3528474"><ele>232.0</ele><time>2026-04-04T11:39:49.575Z</time></trkpt><trkpt lat="43.2800695" lon="11.3528024"><ele>230.0</ele><time>2026-04-04T11:39:50.584Z</time></trkpt><trkpt lat="43.279923" lon="11.3527602"><ele>230.0</ele><time>2026-04-04T11:39:51.581Z</time></trkpt><trkpt lat="43.2797712" lon="11.3527207"><ele>230.0</ele><time>2026-04-04T11:39:52.579Z</time></trkpt><trkpt lat="43.2796136" lon="11.3526864"><ele>230.0</ele><time>2026-04-04T11:39:53.579Z</time></trkpt><trkpt lat="43.2794592" lon="11.352654"><ele>229.25</ele><time>2026-04-04T11:39:54.577Z</time></trkpt><trkpt lat="43.2793081" lon="11.3526353"><ele>228.5</ele><time>2026-04-04T11:39:55.58Z</time></trkpt><trkpt lat="43.2791639" lon="11.352621"><ele>227.75</ele><time>2026-04-04T11:39:56.582Z</time></trkpt><trkpt lat="43.279026" lon="11.3526139"><ele>227.0</ele><time>2026-04-04T11:39:57.584Z</time></trkpt><trkpt lat="43.2788926" lon="11.3526247"><ele>227.0</ele><time>2026-04-04T11:39:58.584Z</time></trkpt><trkpt lat="43.2787616" lon="11.3526608"><ele>227.0</ele><time>2026-04-04T11:39:59.583Z</time></trkpt><trkpt lat="43.2786281" lon="11.3527255"><ele>227.0</ele><time>2026-04-04T11:40:00.585Z</time></trkpt><trkpt lat="43.2784873" lon="11.3528085"><ele>227.0</ele><time>2026-04-04T11:40:01.584Z</time></trkpt><trkpt lat="43.2783374" lon="11.3528996"><ele>227.0</ele><time>2026-04-04T11:40:02.577Z</time></trkpt><trkpt lat="43.27818" lon="11.3529946"><ele>227.0</ele><time>2026-04-04T11:40:03.577Z</time></trkpt><trkpt lat="43.2780206" lon="11.3530946"><ele>227.0</ele><time>2026-04-04T11:40:04.574Z</time></trkpt><trkpt lat="43.2778681" lon="11.3531875"><ele>228.33333333333334</ele><time>2026-04-04T11:40:05.571Z</time></trkpt><trkpt lat="43.2777206" lon="11.3532753"><ele>229.66666666666669</ele><time>2026-04-04T11:40:06.586Z</time></trkpt><trkpt lat="43.2775782" lon="11.3533658"><ele>231.0</ele><time>2026-04-04T11:40:07.576Z</time></trkpt><trkpt lat="43.2774331" lon="11.3534526"><ele>231.0</ele><time>2026-04-04T11:40:08.57Z</time></trkpt><trkpt lat="43.2772801" lon="11.3535322"><ele>231.0</ele><time>2026-04-04T11:40:09.575Z</time></trkpt><trkpt lat="43.2771198" lon="11.353603"><ele>231.0</ele><time>2026-04-04T11:40:10.582Z</time></trkpt><trkpt lat="43.2769549" lon="11.3536601"><ele>231.33333333333331</ele><time>2026-04-04T11:40:11.574Z</time></trkpt><trkpt lat="43.2767885" lon="11.3536999"><ele>231.66666666666666</ele><time>2026-04-04T11:40:12.576Z</time></trkpt><trkpt lat="43.2766299" lon="11.3537269"><ele>232.0</ele><time>2026-04-04T11:40:13.581Z</time></trkpt><trkpt lat="43.2764767" lon="11.3537567"><ele>230.75</ele><time>2026-04-04T11:40:14.575Z</time></trkpt><trkpt lat="43.2763295" lon="11.3537857"><ele>229.5</ele><time>2026-04-04T11:40:15.578Z</time></trkpt><trkpt lat="43.2761869" lon="11.3538077"><ele>228.25</ele><time>2026-04-04T11:40:16.577Z</time></trkpt><trkpt lat="43.2760388" lon="11.353833"><ele>227.0</ele><time>2026-04-04T11:40:17.583Z</time></trkpt><trkpt lat="43.2758889" lon="11.3538653"><ele>225.66666666666669</ele><time>2026-04-04T11:40:18.581Z</time></trkpt><trkpt lat="43.2757408" lon="11.3538996"><ele>224.33333333333331</ele><time>2026-04-04T11:40:19.582Z</time></trkpt><trkpt lat="43.2755941" lon="11.3539331"><ele>223.0</ele><time>2026-04-04T11:40:20.581Z</time></trkpt><trkpt lat="43.2754406" lon="11.3539635"><ele>222.66666666666666</ele><time>2026-04-04T11:40:21.584Z</time></trkpt><trkpt lat="43.2752848" lon="11.3539965"><ele>222.33333333333331</ele><time>2026-04-04T11:40:22.585Z</time></trkpt><trkpt lat="43.2751242" lon="11.3540326"><ele>222.0</ele><time>2026-04-04T11:40:23.584Z</time></trkpt><trkpt lat="43.2749632" lon="11.3540752"><ele>222.0</ele><time>2026-04-04T11:40:24.584Z</time></trkpt><trkpt lat="43.274803" lon="11.3541353"><ele>222.0</ele><time>2026-04-04T11:40:25.583Z</time></trkpt><trkpt lat="43.2746505" lon="11.3542268"><ele>222.0</ele><time>2026-04-04T11:40:26.585Z</time></trkpt><trkpt lat="43.2745078" lon="11.3543523"><ele>222.0</ele><time>2026-04-04T11:40:27.577Z</time></trkpt><trkpt lat="43.274377" lon="11.3545115"><ele>222.0</ele><time>2026-04-04T11:40:28.579Z</time></trkpt><trkpt lat="43.2742537" lon="11.3546899"><ele>222.0</ele><time>2026-04-04T11:40:29.576Z</time></trkpt><trkpt lat="43.2741319" lon="11.3548697"><ele>222.0</ele><time>2026-04-04T11:40:30.578Z</time></trkpt><trkpt lat="43.27401" lon="11.3550288"><ele>222.0</ele><time>2026-04-04T11:40:31.583Z</time></trkpt><trkpt lat="43.2738888" lon="11.3551725"><ele>222.0</ele><time>2026-04-04T11:40:32.58Z</time></trkpt><trkpt lat="43.2737722" lon="11.3553031"><ele>222.25</ele><time>2026-04-04T11:40:33.583Z</time></trkpt><trkpt lat="43.2736623" lon="11.3554223"><ele>222.5</ele><time>2026-04-04T11:40:34.596Z</time></trkpt><trkpt lat="43.2735596" lon="11.355535"><ele>222.75</ele><time>2026-04-04T11:40:35.588Z</time></trkpt><trkpt lat="43.2734638" lon="11.3556412"><ele>223.0</ele><time>2026-04-04T11:40:36.59Z</time></trkpt><trkpt lat="43.2733714" lon="11.3557446"><ele>223.0</ele><time>2026-04-04T11:40:37.574Z</time></trkpt><trkpt lat="43.2732824" lon="11.3558419"><ele>223.0</ele><time>2026-04-04T11:40:38.582Z</time></trkpt><trkpt lat="43.2731953" lon="11.355937"><ele>223.0</ele><time>2026-04-04T11:40:39.589Z</time></trkpt><trkpt lat="43.2731096" lon="11.3560308"><ele>223.0</ele><time>2026-04-04T11:40:40.59Z</time></trkpt><trkpt lat="43.2730223" lon="11.356133"><ele>223.0</ele><time>2026-04-04T11:40:41.582Z</time></trkpt><trkpt lat="43.2729318" lon="11.3562381"><ele>224.0</ele><time>2026-04-04T11:40:42.582Z</time></trkpt><trkpt lat="43.2728394" lon="11.3563479"><ele>225.0</ele><time>2026-04-04T11:40:43.566Z</time></trkpt><trkpt lat="43.2727414" lon="11.3564603"><ele>226.0</ele><time>2026-04-04T11:40:44.582Z</time></trkpt><trkpt lat="43.2726412" lon="11.3565702"><ele>227.0</ele><time>2026-04-04T11:40:45.572Z</time></trkpt><trkpt lat="43.2725377" lon="11.3566834"><ele>227.0</ele><time>2026-04-04T11:40:46.581Z</time></trkpt><trkpt lat="43.2724329" lon="11.3567986"><ele>227.0</ele><time>2026-04-04T11:40:47.572Z</time></trkpt><trkpt lat="43.272328" lon="11.3569144"><ele>227.0</ele><time>2026-04-04T11:40:48.577Z</time></trkpt><trkpt lat="43.2722223" lon="11.3570277"><ele>227.0</ele><time>2026-04-04T11:40:49.581Z</time></trkpt><trkpt lat="43.2721278" lon="11.357133"><ele>226.33333333333334</ele><time>2026-04-04T11:40:50.583Z</time></trkpt><trkpt lat="43.2720458" lon="11.3572298"><ele>225.66666666666669</ele><time>2026-04-04T11:40:51.589Z</time></trkpt><trkpt lat="43.2719742" lon="11.3573132"><ele>225.0</ele><time>2026-04-04T11:40:52.577Z</time></trkpt><trkpt lat="43.2719101" lon="11.35737"><ele>224.33333333333331</ele><time>2026-04-04T11:40:53.574Z</time></trkpt><trkpt lat="43.271846" lon="11.3573851"><ele>223.66666666666666</ele><time>2026-04-04T11:40:54.58Z</time></trkpt><trkpt lat="43.2717803" lon="11.3573568"><ele>223.0</ele><time>2026-04-04T11:40:55.581Z</time></trkpt><trkpt lat="43.2717073" lon="11.3572871"><ele>222.99999999999997</ele><time>2026-04-04T11:40:56.587Z</time></trkpt><trkpt lat="43.2716294" lon="11.35721"><ele>223.0</ele><time>2026-04-04T11:40:57.581Z</time></trkpt><trkpt lat="43.2715543" lon="11.3571338"><ele>223.0</ele><time>2026-04-04T11:40:58.578Z</time></trkpt><trkpt lat="43.2714817" lon="11.3570663"><ele>223.0</ele><time>2026-04-04T11:40:59.59Z</time></trkpt><trkpt lat="43.2714112" lon="11.3569959"><ele>222.99999999999997</ele><time>2026-04-04T11:41:00.584Z</time></trkpt><trkpt lat="43.2713435" lon="11.3569261"><ele>223.0</ele><time>2026-04-04T11:41:01.58Z</time></trkpt><trkpt lat="43.2712772" lon="11.3568588"><ele>222.8</ele><time>2026-04-04T11:41:02.58Z</time></trkpt><trkpt lat="43.2712145" lon="11.356789"><ele>222.60000000000002</ele><time>2026-04-04T11:41:03.571Z</time></trkpt><trkpt lat="43.2711522" lon="11.3567198"><ele>222.39999999999998</ele><time>2026-04-04T11:41:04.572Z</time></trkpt><trkpt lat="43.271097" lon="11.3566561"><ele>222.2</ele><time>2026-04-04T11:41:05.58Z</time></trkpt><trkpt lat="43.271008" lon="11.3565551"><ele>222.0</ele><time>2026-04-04T11:41:07.577Z</time></trkpt><trkpt lat="43.2709237" lon="11.3564726"><ele>222.0</ele><time>2026-04-04T11:41:09.577Z</time></trkpt><trkpt lat="43.2708406" lon="11.3563905"><ele>222.0</ele><time>2026-04-04T11:41:11.584Z</time></trkpt><trkpt lat="43.2707421" lon="11.3562966"><ele>222.0</ele><time>2026-04-04T11:41:13.576Z</time></trkpt><trkpt lat="43.2706856" lon="11.3562456"><ele>222.0</ele><time>2026-04-04T11:41:14.58Z</time></trkpt><trkpt lat="43.270625" lon="11.3561849"><ele>222.0</ele><time>2026-04-04T11:41:15.583Z</time></trkpt><trkpt lat="43.2705613" lon="11.3561196"><ele>222.0</ele><time>2026-04-04T11:41:16.586Z</time></trkpt><trkpt lat="43.2705026" lon="11.3560573"><ele>220.0</ele><time>2026-04-04T11:41:17.587Z</time></trkpt><trkpt lat="43.2704439" lon="11.3560016"><ele>218.0</ele><time>2026-04-04T11:41:18.583Z</time></trkpt><trkpt lat="43.2703819" lon="11.3559622"><ele>216.0</ele><time>2026-04-04T11:41:19.579Z</time></trkpt><trkpt lat="43.2703098" lon="11.3559377"><ele>214.0</ele><time>2026-04-04T11:41:20.579Z</time></trkpt><trkpt lat="43.2702244" lon="11.3559241"><ele>212.0</ele><time>2026-04-04T11:41:21.583Z</time></trkpt><trkpt lat="43.27014" lon="11.3559183"><ele>210.0</ele><time>2026-04-04T11:41:22.581Z</time></trkpt><trkpt lat="43.270056" lon="11.3559155"><ele>210.0</ele><time>2026-04-04T11:41:23.579Z</time></trkpt><trkpt lat="43.2699661" lon="11.3559209"><ele>210.0</ele><time>2026-04-04T11:41:24.568Z</time></trkpt><trkpt lat="43.2698832" lon="11.3559357"><ele>210.0</ele><time>2026-04-04T11:41:25.578Z</time></trkpt><trkpt lat="43.2698033" lon="11.355956"><ele>210.0</ele><time>2026-04-04T11:41:26.576Z</time></trkpt><trkpt lat="43.2697255" lon="11.3559898"><ele>210.0</ele><time>2026-04-04T11:41:27.583Z</time></trkpt><trkpt lat="43.2696448" lon="11.3560319"><ele>210.0</ele><time>2026-04-04T11:41:28.578Z</time></trkpt><trkpt lat="43.2695656" lon="11.3560862"><ele>208.4</ele><time>2026-04-04T11:41:29.584Z</time></trkpt><trkpt lat="43.2694865" lon="11.3561509"><ele>206.8</ele><time>2026-04-04T11:41:30.58Z</time></trkpt><trkpt lat="43.269406" lon="11.3562272"><ele>205.2</ele><time>2026-04-04T11:41:31.585Z</time></trkpt><trkpt lat="43.2693316" lon="11.3563133"><ele>203.6</ele><time>2026-04-04T11:41:32.581Z</time></trkpt><trkpt lat="43.2692586" lon="11.3564144"><ele>202.0</ele><time>2026-04-04T11:41:33.579Z</time></trkpt><trkpt lat="43.2691868" lon="11.3565339"><ele>202.0</ele><time>2026-04-04T11:41:34.582Z</time></trkpt><trkpt lat="43.2691259" lon="11.3566596"><ele>202.0</ele><time>2026-04-04T11:41:35.576Z</time></trkpt><trkpt lat="43.2690697" lon="11.3567997"><ele>202.0</ele><time>2026-04-04T11:41:36.59Z</time></trkpt><trkpt lat="43.2690282" lon="11.3569357"><ele>202.0</ele><time>2026-04-04T11:41:37.576Z</time></trkpt><trkpt lat="43.2689999" lon="11.3570714"><ele>202.0</ele><time>2026-04-04T11:41:38.583Z</time></trkpt><trkpt lat="43.2689814" lon="11.3572042"><ele>202.5</ele><time>2026-04-04T11:41:39.574Z</time></trkpt><trkpt lat="43.2689664" lon="11.357334"><ele>203.0</ele><time>2026-04-04T11:41:40.574Z</time></trkpt><trkpt lat="43.2689635" lon="11.3574767"><ele>203.5</ele><time>2026-04-04T11:41:41.57Z</time></trkpt><trkpt lat="43.2689595" lon="11.3576592"><ele>204.0</ele><time>2026-04-04T11:41:42.574Z</time></trkpt><trkpt lat="43.2689533" lon="11.3578212"><ele>204.0</ele><time>2026-04-04T11:41:43.586Z</time></trkpt><trkpt lat="43.268945" lon="11.3579748"><ele>204.0</ele><time>2026-04-04T11:41:44.585Z</time></trkpt><trkpt lat="43.2689388" lon="11.3581215"><ele>204.0</ele><time>2026-04-04T11:41:45.574Z</time></trkpt><trkpt lat="43.2689262" lon="11.3582673"><ele>204.0</ele><time>2026-04-04T11:41:46.58Z</time></trkpt><trkpt lat="43.2689043" lon="11.358422"><ele>204.0</ele><time>2026-04-04T11:41:47.572Z</time></trkpt><trkpt lat="43.2688685" lon="11.3585786"><ele>201.2</ele><time>2026-04-04T11:41:48.583Z</time></trkpt><trkpt lat="43.2688228" lon="11.3587176"><ele>198.39999999999998</ele><time>2026-04-04T11:41:49.576Z</time></trkpt><trkpt lat="43.2687678" lon="11.3588464"><ele>195.6</ele><time>2026-04-04T11:41:50.579Z</time></trkpt><trkpt lat="43.2687048" lon="11.3589641"><ele>192.8</ele><time>2026-04-04T11:41:51.571Z</time></trkpt><trkpt lat="43.2686342" lon="11.3590675"><ele>190.0</ele><time>2026-04-04T11:41:52.575Z</time></trkpt><trkpt lat="43.268556" lon="11.3591556"><ele>190.0</ele><time>2026-04-04T11:41:53.585Z</time></trkpt><trkpt lat="43.2684704" lon="11.3592264"><ele>190.0</ele><time>2026-04-04T11:41:54.584Z</time></trkpt><trkpt lat="43.268369" lon="11.359293"><ele>190.0</ele><time>2026-04-04T11:41:55.582Z</time></trkpt><trkpt lat="43.2682506" lon="11.3593495"><ele>190.0</ele><time>2026-04-04T11:41:56.577Z</time></trkpt><trkpt lat="43.2681358" lon="11.3593822"><ele>189.2</ele><time>2026-04-04T11:41:57.578Z</time></trkpt><trkpt lat="43.2680224" lon="11.3593941"><ele>188.4</ele><time>2026-04-04T11:41:58.583Z</time></trkpt><trkpt lat="43.2679087" lon="11.3593873"><ele>187.60000000000002</ele><time>2026-04-04T11:41:59.576Z</time></trkpt><trkpt lat="43.2677979" lon="11.3593674"><ele>186.8</ele><time>2026-04-04T11:42:00.579Z</time></trkpt><trkpt lat="43.2677006" lon="11.3593334"><ele>186.0</ele><time>2026-04-04T11:42:01.578Z</time></trkpt><trkpt lat="43.2676111" lon="11.3592989"><ele>186.0</ele><time>2026-04-04T11:42:02.589Z</time></trkpt><trkpt lat="43.2675247" lon="11.3592718"><ele>186.0</ele><time>2026-04-04T11:42:03.566Z</time></trkpt><trkpt lat="43.267432" lon="11.3592386"><ele>186.0</ele><time>2026-04-04T11:42:04.587Z</time></trkpt><trkpt lat="43.2673295" lon="11.3592045"><ele>186.0</ele><time>2026-04-04T11:42:05.588Z</time></trkpt><trkpt lat="43.2672184" lon="11.3591569"><ele>186.0</ele><time>2026-04-04T11:42:06.584Z</time></trkpt><trkpt lat="43.2670921" lon="11.3590987"><ele>185.75</ele><time>2026-04-04T11:42:07.576Z</time></trkpt><trkpt lat="43.2669675" lon="11.3590407"><ele>185.5</ele><time>2026-04-04T11:42:08.584Z</time></trkpt><trkpt lat="43.2668555" lon="11.3589905"><ele>185.25</ele><time>2026-04-04T11:42:09.584Z</time></trkpt><trkpt lat="43.2667508" lon="11.3589461"><ele>185.0</ele><time>2026-04-04T11:42:10.58Z</time></trkpt><trkpt lat="43.2666573" lon="11.3589051"><ele>185.0</ele><time>2026-04-04T11:42:11.577Z</time></trkpt><trkpt lat="43.2665746" lon="11.3588664"><ele>185.0</ele><time>2026-04-04T11:42:12.584Z</time></trkpt><trkpt lat="43.2665017" lon="11.3588332"><ele>185.0</ele><time>2026-04-04T11:42:13.573Z</time></trkpt><trkpt lat="43.2664378" lon="11.3588014"><ele>185.0</ele><time>2026-04-04T11:42:14.58Z</time></trkpt><trkpt lat="43.2663229" lon="11.3587472"><ele>185.0</ele><time>2026-04-04T11:42:16.582Z</time></trkpt><trkpt lat="43.2662625" lon="11.3587227"><ele>185.0</ele><time>2026-04-04T11:42:17.583Z</time></trkpt><trkpt lat="43.2661931" lon="11.3586919"><ele>185.0</ele><time>2026-04-04T11:42:18.585Z</time></trkpt><trkpt lat="43.2661135" lon="11.3586589"><ele>185.0</ele><time>2026-04-04T11:42:19.577Z</time></trkpt><trkpt lat="43.2660255" lon="11.3586189"><ele>185.0</ele><time>2026-04-04T11:42:20.587Z</time></trkpt><trkpt lat="43.2659282" lon="11.3585781"><ele>185.0</ele><time>2026-04-04T11:42:21.585Z</time></trkpt><trkpt lat="43.2658348" lon="11.3585382"><ele>185.0</ele><time>2026-04-04T11:42:22.583Z</time></trkpt><trkpt lat="43.2657377" lon="11.3585012"><ele>185.0</ele><time>2026-04-04T11:42:23.584Z</time></trkpt><trkpt lat="43.2656369" lon="11.358464"><ele>185.0</ele><time>2026-04-04T11:42:24.588Z</time></trkpt><trkpt lat="43.2655357" lon="11.3584177"><ele>185.0</ele><time>2026-04-04T11:42:25.569Z</time></trkpt><trkpt lat="43.2654357" lon="11.3583665"><ele>185.0</ele><time>2026-04-04T11:42:26.577Z</time></trkpt><trkpt lat="43.2653315" lon="11.3583236"><ele>185.0</ele><time>2026-04-04T11:42:27.573Z</time></trkpt><trkpt lat="43.2652264" lon="11.3582771"><ele>184.83333333333331</ele><time>2026-04-04T11:42:28.576Z</time></trkpt><trkpt lat="43.2651321" lon="11.3582354"><ele>184.66666666666666</ele><time>2026-04-04T11:42:29.58Z</time></trkpt><trkpt lat="43.2650412" lon="11.3582052"><ele>184.5</ele><time>2026-04-04T11:42:30.575Z</time></trkpt><trkpt lat="43.2649562" lon="11.3581942"><ele>184.33333333333334</ele><time>2026-04-04T11:42:31.578Z</time></trkpt><trkpt lat="43.2648728" lon="11.3582065"><ele>184.16666666666669</ele><time>2026-04-04T11:42:32.576Z</time></trkpt><trkpt lat="43.264792" lon="11.3582314"><ele>184.0</ele><time>2026-04-04T11:42:33.567Z</time></trkpt><trkpt lat="43.2647161" lon="11.3582748"><ele>184.6</ele><time>2026-04-04T11:42:34.586Z</time></trkpt><trkpt lat="43.2646458" lon="11.3583444"><ele>185.2</ele><time>2026-04-04T11:42:35.57Z</time></trkpt><trkpt lat="43.2645795" lon="11.3584424"><ele>185.79999999999998</ele><time>2026-04-04T11:42:36.572Z</time></trkpt><trkpt lat="43.264516" lon="11.3585635"><ele>186.39999999999998</ele><time>2026-04-04T11:42:37.568Z</time></trkpt><trkpt lat="43.2644457" lon="11.3586937"><ele>187.0</ele><time>2026-04-04T11:42:38.578Z</time></trkpt><trkpt lat="43.2643727" lon="11.3588129"><ele>186.25</ele><time>2026-04-04T11:42:39.577Z</time></trkpt><trkpt lat="43.2642946" lon="11.3589317"><ele>185.5</ele><time>2026-04-04T11:42:40.584Z</time></trkpt><trkpt lat="43.264211" lon="11.3590457"><ele>184.75</ele><time>2026-04-04T11:42:41.578Z</time></trkpt><trkpt lat="43.2641219" lon="11.3591522"><ele>184.0</ele><time>2026-04-04T11:42:42.588Z</time></trkpt><trkpt lat="43.2640172" lon="11.3592539"><ele>183.75</ele><time>2026-04-04T11:42:43.58Z</time></trkpt><trkpt lat="43.2639019" lon="11.3593464"><ele>183.5</ele><time>2026-04-04T11:42:44.585Z</time></trkpt><trkpt lat="43.2637716" lon="11.3594419"><ele>183.25</ele><time>2026-04-04T11:42:45.58Z</time></trkpt><trkpt lat="43.2636293" lon="11.3595484"><ele>183.0</ele><time>2026-04-04T11:42:46.579Z</time></trkpt><trkpt lat="43.2634794" lon="11.3596717"><ele>182.66666666666666</ele><time>2026-04-04T11:42:47.59Z</time></trkpt><trkpt lat="43.2633313" lon="11.3598079"><ele>182.33333333333331</ele><time>2026-04-04T11:42:48.583Z</time></trkpt><trkpt lat="43.2631983" lon="11.3599407"><ele>182.0</ele><time>2026-04-04T11:42:49.586Z</time></trkpt><trkpt lat="43.2630734" lon="11.3600702"><ele>183.33333333333331</ele><time>2026-04-04T11:42:50.579Z</time></trkpt><trkpt lat="43.2629536" lon="11.3602012"><ele>184.66666666666666</ele><time>2026-04-04T11:42:51.586Z</time></trkpt><trkpt lat="43.2628306" lon="11.3603393"><ele>186.0</ele><time>2026-04-04T11:42:52.582Z</time></trkpt><trkpt lat="43.2627056" lon="11.360482"><ele>185.0</ele><time>2026-04-04T11:42:53.584Z</time></trkpt><trkpt lat="43.2625775" lon="11.3606315"><ele>184.0</ele><time>2026-04-04T11:42:54.58Z</time></trkpt><trkpt lat="43.2624519" lon="11.3607893"><ele>183.0</ele><time>2026-04-04T11:42:55.585Z</time></trkpt><trkpt lat="43.2623307" lon="11.3609476"><ele>185.0</ele><time>2026-04-04T11:42:56.573Z</time></trkpt><trkpt lat="43.2622211" lon="11.3610841"><ele>187.0</ele><time>2026-04-04T11:42:57.587Z</time></trkpt><trkpt lat="43.2621074" lon="11.361212"><ele>189.0</ele><time>2026-04-04T11:42:58.579Z</time></trkpt><trkpt lat="43.2619821" lon="11.3613399"><ele>186.66666666666666</ele><time>2026-04-04T11:42:59.585Z</time></trkpt><trkpt lat="43.261842" lon="11.3614643"><ele>184.33333333333331</ele><time>2026-04-04T11:43:00.571Z</time></trkpt><trkpt lat="43.2617005" lon="11.3615732"><ele>182.0</ele><time>2026-04-04T11:43:01.571Z</time></trkpt><trkpt lat="43.2615517" lon="11.3616746"><ele>182.0</ele><time>2026-04-04T11:43:02.587Z</time></trkpt><trkpt lat="43.2614124" lon="11.3617557"><ele>182.0</ele><time>2026-04-04T11:43:03.577Z</time></trkpt><trkpt lat="43.2612788" lon="11.3618294"><ele>182.0</ele><time>2026-04-04T11:43:04.582Z</time></trkpt><trkpt lat="43.2611515" lon="11.3618848"><ele>182.0</ele><time>2026-04-04T11:43:05.583Z</time></trkpt><trkpt lat="43.2610253" lon="11.3619234"><ele>182.0</ele><time>2026-04-04T11:43:06.577Z</time></trkpt><trkpt lat="43.2608922" lon="11.3619505"><ele>182.0</ele><time>2026-04-04T11:43:07.584Z</time></trkpt><trkpt lat="43.2607566" lon="11.3619601"><ele>182.0</ele><time>2026-04-04T11:43:08.578Z</time></trkpt><trkpt lat="43.2606085" lon="11.3619432"><ele>182.0</ele><time>2026-04-04T11:43:09.584Z</time></trkpt><trkpt lat="43.2604503" lon="11.3619106"><ele>183.0</ele><time>2026-04-04T11:43:10.579Z</time></trkpt><trkpt lat="43.2602825" lon="11.3618699"><ele>184.0</ele><time>2026-04-04T11:43:11.585Z</time></trkpt><trkpt lat="43.2601046" lon="11.3618235"><ele>185.0</ele><time>2026-04-04T11:43:12.583Z</time></trkpt><trkpt lat="43.2599225" lon="11.3617668"><ele>187.66666666666666</ele><time>2026-04-04T11:43:13.584Z</time></trkpt><trkpt lat="43.2597354" lon="11.3617002"><ele>190.33333333333331</ele><time>2026-04-04T11:43:14.578Z</time></trkpt><trkpt lat="43.2595481" lon="11.3616233"><ele>193.0</ele><time>2026-04-04T11:43:15.59Z</time></trkpt><trkpt lat="43.2593806" lon="11.3615441"><ele>193.0</ele><time>2026-04-04T11:43:16.596Z</time></trkpt><trkpt lat="43.2592274" lon="11.3614641"><ele>193.0</ele><time>2026-04-04T11:43:17.573Z</time></trkpt><trkpt lat="43.2590889" lon="11.3613897"><ele>193.0</ele><time>2026-04-04T11:43:18.582Z</time></trkpt><trkpt lat="43.2589518" lon="11.3613088"><ele>193.5</ele><time>2026-04-04T11:43:19.586Z</time></trkpt><trkpt lat="43.2588246" lon="11.3612125"><ele>194.0</ele><time>2026-04-04T11:43:20.583Z</time></trkpt><trkpt lat="43.2587034" lon="11.3611024"><ele>194.5</ele><time>2026-04-04T11:43:21.579Z</time></trkpt><trkpt lat="43.2585822" lon="11.360992"><ele>195.0</ele><time>2026-04-04T11:43:22.581Z</time></trkpt><trkpt lat="43.258456" lon="11.3608789"><ele>195.0</ele><time>2026-04-04T11:43:23.583Z</time></trkpt><trkpt lat="43.2583312" lon="11.3607627"><ele>195.0</ele><time>2026-04-04T11:43:24.575Z</time></trkpt><trkpt lat="43.2582222" lon="11.3606577"><ele>195.0</ele><time>2026-04-04T11:43:25.591Z</time></trkpt><trkpt lat="43.2581197" lon="11.3605651"><ele>195.0</ele><time>2026-04-04T11:43:26.587Z</time></trkpt><trkpt lat="43.2580181" lon="11.3604869"><ele>195.0</ele><time>2026-04-04T11:43:27.574Z</time></trkpt><trkpt lat="43.2579119" lon="11.3604171"><ele>195.0</ele><time>2026-04-04T11:43:28.588Z</time></trkpt><trkpt lat="43.2578006" lon="11.3603564"><ele>195.0</ele><time>2026-04-04T11:43:29.577Z</time></trkpt><trkpt lat="43.2576831" lon="11.3603018"><ele>195.0</ele><time>2026-04-04T11:43:30.587Z</time></trkpt><trkpt lat="43.257563" lon="11.3602471"><ele>195.0</ele><time>2026-04-04T11:43:31.577Z</time></trkpt><trkpt lat="43.2574569" lon="11.360197"><ele>195.0</ele><time>2026-04-04T11:43:32.583Z</time></trkpt><trkpt lat="43.2573546" lon="11.3601558"><ele>195.0</ele><time>2026-04-04T11:43:33.58Z</time></trkpt><trkpt lat="43.2572473" lon="11.360125"><ele>195.0</ele><time>2026-04-04T11:43:34.581Z</time></trkpt><trkpt lat="43.257133" lon="11.3601043"><ele>195.0</ele><time>2026-04-04T11:43:35.586Z</time></trkpt><trkpt lat="43.2570133" lon="11.3600885"><ele>196.0</ele><time>2026-04-04T11:43:36.579Z</time></trkpt><trkpt lat="43.2568894" lon="11.3600851"><ele>197.0</ele><time>2026-04-04T11:43:37.582Z</time></trkpt><trkpt lat="43.2567624" lon="11.360092"><ele>198.0</ele><time>2026-04-04T11:43:38.587Z</time></trkpt><trkpt lat="43.2566328" lon="11.3601081"><ele>199.0</ele><time>2026-04-04T11:43:39.583Z</time></trkpt><trkpt lat="43.2565083" lon="11.3601276"><ele>199.79999999999998</ele><time>2026-04-04T11:43:40.592Z</time></trkpt><trkpt lat="43.2563898" lon="11.3601567"><ele>200.6</ele><time>2026-04-04T11:43:41.584Z</time></trkpt><trkpt lat="43.2562758" lon="11.3601919"><ele>201.4</ele><time>2026-04-04T11:43:42.578Z</time></trkpt><trkpt lat="43.2561748" lon="11.3602298"><ele>202.2</ele><time>2026-04-04T11:43:43.577Z</time></trkpt><trkpt lat="43.2560898" lon="11.3602704"><ele>203.0</ele><time>2026-04-04T11:43:44.583Z</time></trkpt><trkpt lat="43.2560007" lon="11.360316"><ele>203.0</ele><time>2026-04-04T11:43:46.583Z</time></trkpt><trkpt lat="43.2559248" lon="11.3603729"><ele>203.0</ele><time>2026-04-04T11:44:18.589Z</time></trkpt><trkpt lat="43.255812" lon="11.3604683"><ele>203.0</ele><time>2026-04-04T11:44:20.585Z</time></trkpt><trkpt lat="43.2557313" lon="11.3605279"><ele>203.0</ele><time>2026-04-04T11:44:21.588Z</time></trkpt><trkpt lat="43.2556387" lon="11.3605899"><ele>203.0</ele><time>2026-04-04T11:44:22.595Z</time></trkpt><trkpt lat="43.255536" lon="11.3606605"><ele>205.75</ele><time>2026-04-04T11:44:23.587Z</time></trkpt><trkpt lat="43.2554358" lon="11.3607325"><ele>208.5</ele><time>2026-04-04T11:44:24.588Z</time></trkpt><trkpt lat="43.2553391" lon="11.3608175"><ele>211.25</ele><time>2026-04-04T11:44:25.58Z</time></trkpt><trkpt lat="43.255246" lon="11.3609203"><ele>214.0</ele><time>2026-04-04T11:44:26.592Z</time></trkpt><trkpt lat="43.255153" lon="11.3610468"><ele>214.0</ele><time>2026-04-04T11:44:27.582Z</time></trkpt><trkpt lat="43.255061" lon="11.3611939"><ele>214.0</ele><time>2026-04-04T11:44:28.577Z</time></trkpt><trkpt lat="43.2549668" lon="11.3613602"><ele>214.0</ele><time>2026-04-04T11:44:29.573Z</time></trkpt><trkpt lat="43.2548836" lon="11.3615175"><ele>214.0</ele><time>2026-04-04T11:44:30.571Z</time></trkpt><trkpt lat="43.2548062" lon="11.3616667"><ele>216.75</ele><time>2026-04-04T11:44:31.583Z</time></trkpt><trkpt lat="43.2547244" lon="11.3618135"><ele>219.5</ele><time>2026-04-04T11:44:32.58Z</time></trkpt><trkpt lat="43.2546344" lon="11.3619457"><ele>222.25</ele><time>2026-04-04T11:44:33.573Z</time></trkpt><trkpt lat="43.2545343" lon="11.3620599"><ele>225.0</ele><time>2026-04-04T11:44:34.573Z</time></trkpt><trkpt lat="43.2544237" lon="11.3621547"><ele>225.0</ele><time>2026-04-04T11:44:35.579Z</time></trkpt><trkpt lat="43.2543013" lon="11.3622359"><ele>225.0</ele><time>2026-04-04T11:44:36.585Z</time></trkpt><trkpt lat="43.2541677" lon="11.3623032"><ele>225.0</ele><time>2026-04-04T11:44:37.587Z</time></trkpt><trkpt lat="43.2540321" lon="11.3623451"><ele>225.0</ele><time>2026-04-04T11:44:38.58Z</time></trkpt><trkpt lat="43.2538931" lon="11.3623684"><ele>225.0</ele><time>2026-04-04T11:44:39.588Z</time></trkpt><trkpt lat="43.2537525" lon="11.3623882"><ele>225.0</ele><time>2026-04-04T11:44:40.572Z</time></trkpt><trkpt lat="43.253613" lon="11.3624161"><ele>225.0</ele><time>2026-04-04T11:44:41.58Z</time></trkpt><trkpt lat="43.253472" lon="11.3624519"><ele>225.0</ele><time>2026-04-04T11:44:42.578Z</time></trkpt><trkpt lat="43.2533282" lon="11.3624981"><ele>225.0</ele><time>2026-04-04T11:44:43.583Z</time></trkpt><trkpt lat="43.2531797" lon="11.3625583"><ele>225.0</ele><time>2026-04-04T11:44:44.578Z</time></trkpt><trkpt lat="43.2530275" lon="11.3626308"><ele>225.0</ele><time>2026-04-04T11:44:45.585Z</time></trkpt><trkpt lat="43.2528758" lon="11.3627121"><ele>225.75</ele><time>2026-04-04T11:44:46.59Z</time></trkpt><trkpt lat="43.2527465" lon="11.3627849"><ele>226.5</ele><time>2026-04-04T11:44:47.587Z</time></trkpt><trkpt lat="43.2526355" lon="11.3628534"><ele>227.25</ele><time>2026-04-04T11:44:48.581Z</time></trkpt><trkpt lat="43.2525452" lon="11.3629262"><ele>228.0</ele><time>2026-04-04T11:44:49.582Z</time></trkpt><trkpt lat="43.2524625" lon="11.3630122"><ele>229.0</ele><time>2026-04-04T11:44:50.577Z</time></trkpt><trkpt lat="43.2523734" lon="11.3631028"><ele>230.0</ele><time>2026-04-04T11:44:51.581Z</time></trkpt><trkpt lat="43.2522664" lon="11.3631989"><ele>231.0</ele><time>2026-04-04T11:44:52.585Z</time></trkpt><trkpt lat="43.252181" lon="11.3632815"><ele>232.0</ele><time>2026-04-04T11:44:53.593Z</time></trkpt><trkpt lat="43.2521005" lon="11.3633688"><ele>233.0</ele><time>2026-04-04T11:44:54.574Z</time></trkpt><trkpt lat="43.2520153" lon="11.36345"><ele>233.0</ele><time>2026-04-04T11:44:55.586Z</time></trkpt><trkpt lat="43.251914" lon="11.3635179"><ele>233.0</ele><time>2026-04-04T11:44:56.575Z</time></trkpt><trkpt lat="43.2517999" lon="11.3635698"><ele>233.0</ele><time>2026-04-04T11:44:57.566Z</time></trkpt><trkpt lat="43.2516819" lon="11.3636022"><ele>233.0</ele><time>2026-04-04T11:44:58.584Z</time></trkpt><trkpt lat="43.2515628" lon="11.3636092"><ele>231.0</ele><time>2026-04-04T11:44:59.58Z</time></trkpt><trkpt lat="43.2514483" lon="11.3635907"><ele>229.0</ele><time>2026-04-04T11:45:00.587Z</time></trkpt><trkpt lat="43.2513267" lon="11.3635561"><ele>227.0</ele><time>2026-04-04T11:45:01.581Z</time></trkpt><trkpt lat="43.2511854" lon="11.363507"><ele>225.0</ele><time>2026-04-04T11:45:02.581Z</time></trkpt><trkpt lat="43.251029" lon="11.3634442"><ele>225.0</ele><time>2026-04-04T11:45:03.58Z</time></trkpt><trkpt lat="43.2508607" lon="11.3633805"><ele>225.0</ele><time>2026-04-04T11:45:04.577Z</time></trkpt><trkpt lat="43.2506809" lon="11.363325"><ele>225.0</ele><time>2026-04-04T11:45:05.583Z</time></trkpt><trkpt lat="43.250516" lon="11.3632782"><ele>224.33333333333331</ele><time>2026-04-04T11:45:06.586Z</time></trkpt><trkpt lat="43.2503588" lon="11.3632354"><ele>223.66666666666666</ele><time>2026-04-04T11:45:07.589Z</time></trkpt><trkpt lat="43.2502086" lon="11.3631936"><ele>223.0</ele><time>2026-04-04T11:45:08.576Z</time></trkpt><trkpt lat="43.2500679" lon="11.3631479"><ele>223.0</ele><time>2026-04-04T11:45:09.584Z</time></trkpt><trkpt lat="43.2499353" lon="11.3631039"><ele>223.0</ele><time>2026-04-04T11:45:10.578Z</time></trkpt><trkpt lat="43.2498056" lon="11.3630727"><ele>223.0</ele><time>2026-04-04T11:45:11.572Z</time></trkpt><trkpt lat="43.2496735" lon="11.3630622"><ele>223.0</ele><time>2026-04-04T11:45:12.574Z</time></trkpt><trkpt lat="43.2495419" lon="11.3630796"><ele>224.25</ele><time>2026-04-04T11:45:13.572Z</time></trkpt><trkpt lat="43.2494133" lon="11.3631232"><ele>225.5</ele><time>2026-04-04T11:45:14.575Z</time></trkpt><trkpt lat="43.2492873" lon="11.3631919"><ele>226.75</ele><time>2026-04-04T11:45:15.58Z</time></trkpt><trkpt lat="43.2491659" lon="11.363281"><ele>228.0</ele><time>2026-04-04T11:45:16.585Z</time></trkpt><trkpt lat="43.2490548" lon="11.3633881"><ele>228.0</ele><time>2026-04-04T11:45:17.581Z</time></trkpt><trkpt lat="43.2489536" lon="11.3635159"><ele>228.0</ele><time>2026-04-04T11:45:18.59Z</time></trkpt><trkpt lat="43.2488545" lon="11.3636589"><ele>228.0</ele><time>2026-04-04T11:45:19.584Z</time></trkpt><trkpt lat="43.2487495" lon="11.3638068"><ele>228.0</ele><time>2026-04-04T11:45:20.58Z</time></trkpt><trkpt lat="43.2486486" lon="11.3639444"><ele>227.75</ele><time>2026-04-04T11:45:21.581Z</time></trkpt><trkpt lat="43.2485518" lon="11.3640754"><ele>227.5</ele><time>2026-04-04T11:45:22.582Z</time></trkpt><trkpt lat="43.2484594" lon="11.3642035"><ele>227.25</ele><time>2026-04-04T11:45:23.579Z</time></trkpt><trkpt lat="43.2483875" lon="11.3643298"><ele>227.0</ele><time>2026-04-04T11:45:24.584Z</time></trkpt><trkpt lat="43.2483359" lon="11.3644569"><ele>227.0</ele><time>2026-04-04T11:45:25.579Z</time></trkpt><trkpt lat="43.2483002" lon="11.3645959"><ele>227.0</ele><time>2026-04-04T11:45:26.58Z</time></trkpt><trkpt lat="43.248284" lon="11.3647476"><ele>227.0</ele><time>2026-04-04T11:45:27.584Z</time></trkpt><trkpt lat="43.248282" lon="11.3649197"><ele>227.0</ele><time>2026-04-04T11:45:28.57Z</time></trkpt><trkpt lat="43.2482781" lon="11.3650991"><ele>227.25</ele><time>2026-04-04T11:45:29.574Z</time></trkpt><trkpt lat="43.2482511" lon="11.3652543"><ele>227.5</ele><time>2026-04-04T11:45:30.578Z</time></trkpt><trkpt lat="43.2482017" lon="11.3653975"><ele>227.75</ele><time>2026-04-04T11:45:31.567Z</time></trkpt><trkpt lat="43.2481356" lon="11.3655408"><ele>228.0</ele><time>2026-04-04T11:45:32.581Z</time></trkpt><trkpt lat="43.2480518" lon="11.3656828"><ele>226.75</ele><time>2026-04-04T11:45:33.584Z</time></trkpt><trkpt lat="43.2479638" lon="11.3657985"><ele>225.5</ele><time>2026-04-04T11:45:34.584Z</time></trkpt><trkpt lat="43.2478649" lon="11.3659005"><ele>224.25</ele><time>2026-04-04T11:45:35.585Z</time></trkpt><trkpt lat="43.2477476" lon="11.3659835"><ele>223.0</ele><time>2026-04-04T11:45:36.574Z</time></trkpt><trkpt lat="43.2476154" lon="11.3660362"><ele>223.0</ele><time>2026-04-04T11:45:37.583Z</time></trkpt><trkpt lat="43.2474685" lon="11.3660712"><ele>223.0</ele><time>2026-04-04T11:45:38.578Z</time></trkpt><trkpt lat="43.2473133" lon="11.3661061"><ele>223.0</ele><time>2026-04-04T11:45:39.583Z</time></trkpt><trkpt lat="43.2471503" lon="11.3661545"><ele>222.33333333333331</ele><time>2026-04-04T11:45:40.584Z</time></trkpt><trkpt lat="43.2469811" lon="11.3662107"><ele>221.66666666666669</ele><time>2026-04-04T11:45:41.576Z</time></trkpt><trkpt lat="43.2468083" lon="11.3662789"><ele>221.0</ele><time>2026-04-04T11:45:42.579Z</time></trkpt><trkpt lat="43.2466523" lon="11.3663492"><ele>221.5</ele><time>2026-04-04T11:45:43.576Z</time></trkpt><trkpt lat="43.2465073" lon="11.3664208"><ele>222.0</ele><time>2026-04-04T11:45:44.578Z</time></trkpt><trkpt lat="43.246378" lon="11.366497"><ele>222.5</ele><time>2026-04-04T11:45:45.585Z</time></trkpt><trkpt lat="43.2462767" lon="11.3665686"><ele>223.0</ele><time>2026-04-04T11:45:46.577Z</time></trkpt><trkpt lat="43.2461945" lon="11.3666411"><ele>223.2</ele><time>2026-04-04T11:45:47.579Z</time></trkpt><trkpt lat="43.2461177" lon="11.3667234"><ele>223.4</ele><time>2026-04-04T11:45:48.584Z</time></trkpt><trkpt lat="43.2460379" lon="11.3668064"><ele>223.59999999999997</ele><time>2026-04-04T11:45:49.586Z</time></trkpt><trkpt lat="43.2459563" lon="11.3668981"><ele>223.79999999999998</ele><time>2026-04-04T11:45:50.584Z</time></trkpt><trkpt lat="43.2458634" lon="11.3669974"><ele>224.0</ele><time>2026-04-04T11:45:51.582Z</time></trkpt><trkpt lat="43.2457578" lon="11.3671025"><ele>223.0</ele><time>2026-04-04T11:45:52.584Z</time></trkpt><trkpt lat="43.2456366" lon="11.3672056"><ele>222.0</ele><time>2026-04-04T11:45:53.588Z</time></trkpt><trkpt lat="43.2454977" lon="11.3672995"><ele>221.0</ele><time>2026-04-04T11:45:54.579Z</time></trkpt><trkpt lat="43.2453408" lon="11.3673791"><ele>220.66666666666669</ele><time>2026-04-04T11:45:55.584Z</time></trkpt><trkpt lat="43.2451699" lon="11.3674449"><ele>220.33333333333331</ele><time>2026-04-04T11:45:56.582Z</time></trkpt><trkpt lat="43.2449851" lon="11.3675069"><ele>220.0</ele><time>2026-04-04T11:45:57.581Z</time></trkpt><trkpt lat="43.2447917" lon="11.3675656"><ele>221.0</ele><time>2026-04-04T11:45:58.582Z</time></trkpt><trkpt lat="43.2446114" lon="11.3676211"><ele>222.0</ele><time>2026-04-04T11:45:59.578Z</time></trkpt><trkpt lat="43.2444477" lon="11.3676716"><ele>223.0</ele><time>2026-04-04T11:46:00.574Z</time></trkpt><trkpt lat="43.2442983" lon="11.3677198"><ele>223.0</ele><time>2026-04-04T11:46:01.579Z</time></trkpt><trkpt lat="43.2441579" lon="11.3677665"><ele>223.0</ele><time>2026-04-04T11:46:02.587Z</time></trkpt><trkpt lat="43.2440175" lon="11.3678127"><ele>223.0</ele><time>2026-04-04T11:46:03.589Z</time></trkpt><trkpt lat="43.2438882" lon="11.3678565"><ele>223.0</ele><time>2026-04-04T11:46:04.587Z</time></trkpt><trkpt lat="43.2437699" lon="11.3678916"><ele>223.75</ele><time>2026-04-04T11:46:05.592Z</time></trkpt><trkpt lat="43.2436519" lon="11.3679253"><ele>224.5</ele><time>2026-04-04T11:46:06.579Z</time></trkpt><trkpt lat="43.2435318" lon="11.3679539"><ele>225.25</ele><time>2026-04-04T11:46:07.59Z</time></trkpt><trkpt lat="43.2434192" lon="11.3679776"><ele>226.0</ele><time>2026-04-04T11:46:08.579Z</time></trkpt><trkpt lat="43.2433041" lon="11.3679996"><ele>225.0</ele><time>2026-04-04T11:46:09.584Z</time></trkpt><trkpt lat="43.24319" lon="11.3680273"><ele>224.0</ele><time>2026-04-04T11:46:10.579Z</time></trkpt><trkpt lat="43.2430749" lon="11.3680657"><ele>223.0</ele><time>2026-04-04T11:46:11.589Z</time></trkpt><trkpt lat="43.2429636" lon="11.368112"><ele>222.0</ele><time>2026-04-04T11:46:12.575Z</time></trkpt><trkpt lat="43.2428594" lon="11.3681659"><ele>222.0</ele><time>2026-04-04T11:46:13.58Z</time></trkpt><trkpt lat="43.2427622" lon="11.3682288"><ele>222.0</ele><time>2026-04-04T11:46:14.583Z</time></trkpt><trkpt lat="43.2426735" lon="11.3683043"><ele>222.0</ele><time>2026-04-04T11:46:15.589Z</time></trkpt><trkpt lat="43.2425887" lon="11.3683889"><ele>222.0</ele><time>2026-04-04T11:46:16.585Z</time></trkpt><trkpt lat="43.2425075" lon="11.3684782"><ele>222.0</ele><time>2026-04-04T11:46:17.589Z</time></trkpt><trkpt lat="43.2424285" lon="11.3685722"><ele>222.0</ele><time>2026-04-04T11:46:18.578Z</time></trkpt><trkpt lat="43.2423515" lon="11.3686656"><ele>222.0</ele><time>2026-04-04T11:46:19.586Z</time></trkpt><trkpt lat="43.2422764" lon="11.3687583"><ele>222.0</ele><time>2026-04-04T11:46:20.572Z</time></trkpt><trkpt lat="43.2422051" lon="11.3688513"><ele>222.0</ele><time>2026-04-04T11:46:21.584Z</time></trkpt><trkpt lat="43.2421334" lon="11.3689487"><ele>222.0</ele><time>2026-04-04T11:46:22.59Z</time></trkpt><trkpt lat="43.2420633" lon="11.3690487"><ele>221.6</ele><time>2026-04-04T11:46:23.576Z</time></trkpt><trkpt lat="43.2419889" lon="11.3691472"><ele>221.2</ele><time>2026-04-04T11:46:24.581Z</time></trkpt><trkpt lat="43.24191" lon="11.3692451"><ele>220.8</ele><time>2026-04-04T11:46:25.595Z</time></trkpt><trkpt lat="43.241832" lon="11.3693493"><ele>220.4</ele><time>2026-04-04T11:46:26.579Z</time></trkpt><trkpt lat="43.2417496" lon="11.3694522"><ele>220.0</ele><time>2026-04-04T11:46:27.577Z</time></trkpt><trkpt lat="43.2416638" lon="11.3695516"><ele>220.0</ele><time>2026-04-04T11:46:28.581Z</time></trkpt><trkpt lat="43.2415737" lon="11.3696538"><ele>220.0</ele><time>2026-04-04T11:46:29.584Z</time></trkpt><trkpt lat="43.2414772" lon="11.3697612"><ele>220.0</ele><time>2026-04-04T11:46:30.581Z</time></trkpt><trkpt lat="43.2413763" lon="11.3698731"><ele>220.0</ele><time>2026-04-04T11:46:31.59Z</time></trkpt><trkpt lat="43.2412662" lon="11.3699795"><ele>218.75</ele><time>2026-04-04T11:46:32.581Z</time></trkpt><trkpt lat="43.2411529" lon="11.370092"><ele>217.5</ele><time>2026-04-04T11:46:33.586Z</time></trkpt><trkpt lat="43.2410346" lon="11.3702019"><ele>216.25</ele><time>2026-04-04T11:46:34.585Z</time></trkpt><trkpt lat="43.2409125" lon="11.3703045"><ele>215.0</ele><time>2026-04-04T11:46:35.579Z</time></trkpt><trkpt lat="43.240798" lon="11.370411"><ele>215.0</ele><time>2026-04-04T11:46:36.58Z</time></trkpt><trkpt lat="43.2406974" lon="11.3705181"><ele>215.0</ele><time>2026-04-04T11:46:37.586Z</time></trkpt><trkpt lat="43.2406065" lon="11.3706235"><ele>215.0</ele><time>2026-04-04T11:46:38.586Z</time></trkpt><trkpt lat="43.2405273" lon="11.3707279"><ele>215.0</ele><time>2026-04-04T11:46:39.568Z</time></trkpt><trkpt lat="43.2404574" lon="11.3708314"><ele>214.8</ele><time>2026-04-04T11:46:40.582Z</time></trkpt><trkpt lat="43.2403863" lon="11.3709354"><ele>214.6</ele><time>2026-04-04T11:46:41.576Z</time></trkpt><trkpt lat="43.2403139" lon="11.3710461"><ele>214.39999999999998</ele><time>2026-04-04T11:46:42.582Z</time></trkpt><trkpt lat="43.2402418" lon="11.3711689"><ele>214.2</ele><time>2026-04-04T11:46:43.584Z</time></trkpt><trkpt lat="43.2401668" lon="11.3713006"><ele>214.0</ele><time>2026-04-04T11:46:44.589Z</time></trkpt><trkpt lat="43.2400912" lon="11.3714371"><ele>214.0</ele><time>2026-04-04T11:46:45.587Z</time></trkpt><trkpt lat="43.2400142" lon="11.3715806"><ele>214.0</ele><time>2026-04-04T11:46:46.584Z</time></trkpt><trkpt lat="43.2399383" lon="11.3717318"><ele>214.0</ele><time>2026-04-04T11:46:47.577Z</time></trkpt><trkpt lat="43.2398672" lon="11.3718815"><ele>214.0</ele><time>2026-04-04T11:46:48.573Z</time></trkpt><trkpt lat="43.2397994" lon="11.3720257"><ele>213.79999999999998</ele><time>2026-04-04T11:46:49.589Z</time></trkpt><trkpt lat="43.2397379" lon="11.3721605"><ele>213.59999999999997</ele><time>2026-04-04T11:46:50.582Z</time></trkpt><trkpt lat="43.2396808" lon="11.3722849"><ele>213.4</ele><time>2026-04-04T11:46:51.582Z</time></trkpt><trkpt lat="43.2396287" lon="11.3723956"><ele>213.2</ele><time>2026-04-04T11:46:52.583Z</time></trkpt><trkpt lat="43.2395719" lon="11.3724916"><ele>213.0</ele><time>2026-04-04T11:46:53.584Z</time></trkpt><trkpt lat="43.2395081" lon="11.3725676"><ele>213.0</ele><time>2026-04-04T11:46:54.592Z</time></trkpt><trkpt lat="43.2394379" lon="11.3726191"><ele>213.0</ele><time>2026-04-04T11:46:55.587Z</time></trkpt><trkpt lat="43.239363" lon="11.3726494"><ele>213.0</ele><time>2026-04-04T11:46:56.579Z</time></trkpt><trkpt lat="43.2392741" lon="11.3726713"><ele>213.0</ele><time>2026-04-04T11:46:57.571Z</time></trkpt><trkpt lat="43.2391726" lon="11.3726746"><ele>213.0</ele><time>2026-04-04T11:46:58.588Z</time></trkpt><trkpt lat="43.2390778" lon="11.3726735"><ele>213.0</ele><time>2026-04-04T11:46:59.577Z</time></trkpt><trkpt lat="43.238986" lon="11.3726754"><ele>213.0</ele><time>2026-04-04T11:47:00.585Z</time></trkpt><trkpt lat="43.2388988" lon="11.3726861"><ele>213.0</ele><time>2026-04-04T11:47:01.566Z</time></trkpt><trkpt lat="43.2388165" lon="11.3727033"><ele>213.0</ele><time>2026-04-04T11:47:02.588Z</time></trkpt><trkpt lat="43.2387381" lon="11.3727265"><ele>213.0</ele><time>2026-04-04T11:47:03.573Z</time></trkpt><trkpt lat="43.2386679" lon="11.3727529"><ele>213.0</ele><time>2026-04-04T11:47:04.579Z</time></trkpt><trkpt lat="43.2386064" lon="11.3727852"><ele>213.0</ele><time>2026-04-04T11:47:05.584Z</time></trkpt><trkpt lat="43.2385013" lon="11.3728442"><ele>213.0</ele><time>2026-04-04T11:47:07.578Z</time></trkpt><trkpt lat="43.2384092" lon="11.3729023"><ele>213.0</ele><time>2026-04-04T11:47:09.592Z</time></trkpt><trkpt lat="43.2383331" lon="11.3729818"><ele>213.0</ele><time>2026-04-04T11:47:11.582Z</time></trkpt><trkpt lat="43.2382607" lon="11.3731257"><ele>213.0</ele><time>2026-04-04T11:47:13.58Z</time></trkpt><trkpt lat="43.2382404" lon="11.3732255"><ele>213.0</ele><time>2026-04-04T11:47:14.588Z</time></trkpt><trkpt lat="43.2382322" lon="11.3733461"><ele>211.0</ele><time>2026-04-04T11:47:15.584Z</time></trkpt><trkpt lat="43.2382363" lon="11.3735155"><ele>209.0</ele><time>2026-04-04T11:47:16.59Z</time></trkpt><trkpt lat="43.2382531" lon="11.3737159"><ele>207.0</ele><time>2026-04-04T11:47:17.579Z</time></trkpt><trkpt lat="43.2382701" lon="11.373927"><ele>205.0</ele><time>2026-04-04T11:47:18.576Z</time></trkpt><trkpt lat="43.2382837" lon="11.3741171"><ele>204.75</ele><time>2026-04-04T11:47:19.575Z</time></trkpt><trkpt lat="43.2382916" lon="11.3742966"><ele>204.5</ele><time>2026-04-04T11:47:20.57Z</time></trkpt><trkpt lat="43.2383001" lon="11.3744671"><ele>204.25</ele><time>2026-04-04T11:47:21.573Z</time></trkpt><trkpt lat="43.2383031" lon="11.3746286"><ele>204.0</ele><time>2026-04-04T11:47:22.569Z</time></trkpt><trkpt lat="43.2382932" lon="11.3747775"><ele>204.0</ele><time>2026-04-04T11:47:23.584Z</time></trkpt><trkpt lat="43.238266" lon="11.3749119"><ele>204.0</ele><time>2026-04-04T11:47:24.58Z</time></trkpt><trkpt lat="43.2382223" lon="11.3750175"><ele>204.0</ele><time>2026-04-04T11:47:25.585Z</time></trkpt><trkpt lat="43.2381577" lon="11.3751075"><ele>204.0</ele><time>2026-04-04T11:47:26.578Z</time></trkpt><trkpt lat="43.238067" lon="11.3751977"><ele>204.0</ele><time>2026-04-04T11:47:27.583Z</time></trkpt><trkpt lat="43.2379546" lon="11.3753042"><ele>204.0</ele><time>2026-04-04T11:47:28.578Z</time></trkpt><trkpt lat="43.2378288" lon="11.3754245"><ele>204.0</ele><time>2026-04-04T11:47:29.58Z</time></trkpt><trkpt lat="43.2376912" lon="11.37556"><ele>204.0</ele><time>2026-04-04T11:47:30.583Z</time></trkpt><trkpt lat="43.2375552" lon="11.3757028"><ele>202.75</ele><time>2026-04-04T11:47:31.575Z</time></trkpt><trkpt lat="43.2374318" lon="11.3758377"><ele>201.5</ele><time>2026-04-04T11:47:32.588Z</time></trkpt><trkpt lat="43.2373196" lon="11.3759633"><ele>200.25</ele><time>2026-04-04T11:47:33.575Z</time></trkpt><trkpt lat="43.2372196" lon="11.3760742"><ele>199.0</ele><time>2026-04-04T11:47:34.577Z</time></trkpt><trkpt lat="43.2371286" lon="11.3761745"><ele>198.39999999999998</ele><time>2026-04-04T11:47:35.585Z</time></trkpt><trkpt lat="43.2370441" lon="11.3762554"><ele>197.8</ele><time>2026-04-04T11:47:36.568Z</time></trkpt><trkpt lat="43.2369478" lon="11.3763099"><ele>197.2</ele><time>2026-04-04T11:47:37.578Z</time></trkpt><trkpt lat="43.2368353" lon="11.3763457"><ele>196.60000000000002</ele><time>2026-04-04T11:47:38.567Z</time></trkpt><trkpt lat="43.2367284" lon="11.3763542"><ele>196.0</ele><time>2026-04-04T11:47:39.579Z</time></trkpt><trkpt lat="43.2366176" lon="11.3763386"><ele>196.0</ele><time>2026-04-04T11:47:40.581Z</time></trkpt><trkpt lat="43.2365203" lon="11.3763036"><ele>196.0</ele><time>2026-04-04T11:47:41.588Z</time></trkpt><trkpt lat="43.2364335" lon="11.3762441"><ele>196.0</ele><time>2026-04-04T11:47:42.58Z</time></trkpt><trkpt lat="43.2363618" lon="11.3761588"><ele>196.0</ele><time>2026-04-04T11:47:43.585Z</time></trkpt><trkpt lat="43.2362999" lon="11.3760514"><ele>196.0</ele><time>2026-04-04T11:47:44.58Z</time></trkpt><trkpt lat="43.2362518" lon="11.3759235"><ele>193.5</ele><time>2026-04-04T11:47:45.593Z</time></trkpt><trkpt lat="43.2362223" lon="11.3757786"><ele>191.0</ele><time>2026-04-04T11:47:46.582Z</time></trkpt><trkpt lat="43.2362084" lon="11.3756114"><ele>188.5</ele><time>2026-04-04T11:47:47.581Z</time></trkpt><trkpt lat="43.2362122" lon="11.3754483"><ele>186.0</ele><time>2026-04-04T11:47:48.579Z</time></trkpt><trkpt lat="43.2362334" lon="11.3753002"><ele>185.0</ele><time>2026-04-04T11:47:49.576Z</time></trkpt><trkpt lat="43.2362743" lon="11.375165"><ele>184.0</ele><time>2026-04-04T11:47:50.585Z</time></trkpt><trkpt lat="43.236337" lon="11.3750248"><ele>183.0</ele><time>2026-04-04T11:47:51.573Z</time></trkpt><trkpt lat="43.2364012" lon="11.3748772"><ele>182.0</ele><time>2026-04-04T11:47:52.566Z</time></trkpt><trkpt lat="43.2364557" lon="11.3747281"><ele>184.25</ele><time>2026-04-04T11:47:53.572Z</time></trkpt><trkpt lat="43.2365013" lon="11.3745542"><ele>186.5</ele><time>2026-04-04T11:47:54.572Z</time></trkpt><trkpt lat="43.2365388" lon="11.3743777"><ele>188.75</ele><time>2026-04-04T11:47:55.575Z</time></trkpt><trkpt lat="43.2365663" lon="11.3742125"><ele>191.0</ele><time>2026-04-04T11:47:56.578Z</time></trkpt><trkpt lat="43.2365814" lon="11.3740597"><ele>191.0</ele><time>2026-04-04T11:47:57.592Z</time></trkpt><trkpt lat="43.2365765" lon="11.3739159"><ele>191.0</ele><time>2026-04-04T11:47:58.591Z</time></trkpt><trkpt lat="43.2365544" lon="11.3737833"><ele>191.0</ele><time>2026-04-04T11:47:59.588Z</time></trkpt><trkpt lat="43.236513" lon="11.373662"><ele>191.0</ele><time>2026-04-04T11:48:00.58Z</time></trkpt><trkpt lat="43.2364478" lon="11.3735492"><ele>191.0</ele><time>2026-04-04T11:48:01.579Z</time></trkpt><trkpt lat="43.236366" lon="11.3734671"><ele>188.75</ele><time>2026-04-04T11:48:02.587Z</time></trkpt><trkpt lat="43.2362774" lon="11.3734242"><ele>186.5</ele><time>2026-04-04T11:48:03.585Z</time></trkpt><trkpt lat="43.236171" lon="11.3734051"><ele>184.25</ele><time>2026-04-04T11:48:04.579Z</time></trkpt><trkpt lat="43.236049" lon="11.3734112"><ele>182.0</ele><time>2026-04-04T11:48:05.585Z</time></trkpt><trkpt lat="43.2359041" lon="11.3734287"><ele>182.0</ele><time>2026-04-04T11:48:06.575Z</time></trkpt><trkpt lat="43.2357379" lon="11.3734421"><ele>182.0</ele><time>2026-04-04T11:48:07.571Z</time></trkpt><trkpt lat="43.2355606" lon="11.3734561"><ele>182.0</ele><time>2026-04-04T11:48:08.59Z</time></trkpt><trkpt lat="43.2353654" lon="11.3734765"><ele>180.66666666666666</ele><time>2026-04-04T11:48:09.575Z</time></trkpt><trkpt lat="43.2351585" lon="11.3734973"><ele>179.33333333333334</ele><time>2026-04-04T11:48:10.572Z</time></trkpt><trkpt lat="43.2349395" lon="11.3735144"><ele>178.0</ele><time>2026-04-04T11:48:11.583Z</time></trkpt><trkpt lat="43.2347204" lon="11.3735326"><ele>178.0</ele><time>2026-04-04T11:48:12.582Z</time></trkpt><trkpt lat="43.2345179" lon="11.3735473"><ele>178.0</ele><time>2026-04-04T11:48:13.581Z</time></trkpt><trkpt lat="43.2343263" lon="11.3735606"><ele>178.0</ele><time>2026-04-04T11:48:14.594Z</time></trkpt><trkpt lat="43.2341493" lon="11.3735755"><ele>178.0</ele><time>2026-04-04T11:48:15.572Z</time></trkpt><trkpt lat="43.2339948" lon="11.37359"><ele>178.0</ele><time>2026-04-04T11:48:16.566Z</time></trkpt><trkpt lat="43.233854" lon="11.3736128"><ele>178.0</ele><time>2026-04-04T11:48:17.58Z</time></trkpt><trkpt lat="43.2337173" lon="11.3736608"><ele>178.0</ele><time>2026-04-04T11:48:18.574Z</time></trkpt><trkpt lat="43.2335727" lon="11.3737404"><ele>178.33333333333334</ele><time>2026-04-04T11:48:19.59Z</time></trkpt><trkpt lat="43.2334215" lon="11.3738436"><ele>178.66666666666666</ele><time>2026-04-04T11:48:20.577Z</time></trkpt><trkpt lat="43.2332591" lon="11.3739547"><ele>179.0</ele><time>2026-04-04T11:48:21.594Z</time></trkpt><trkpt lat="43.2330784" lon="11.3740759"><ele>179.0</ele><time>2026-04-04T11:48:22.593Z</time></trkpt><trkpt lat="43.2328839" lon="11.3742118"><ele>179.0</ele><time>2026-04-04T11:48:23.581Z</time></trkpt><trkpt lat="43.2326811" lon="11.374355"><ele>179.0</ele><time>2026-04-04T11:48:24.594Z</time></trkpt><trkpt lat="43.2324663" lon="11.3745066"><ele>179.0</ele><time>2026-04-04T11:48:25.586Z</time></trkpt><trkpt lat="43.2322694" lon="11.3746444"><ele>179.0</ele><time>2026-04-04T11:48:26.573Z</time></trkpt><trkpt lat="43.2320817" lon="11.3747745"><ele>179.0</ele><time>2026-04-04T11:48:27.576Z</time></trkpt><trkpt lat="43.2319067" lon="11.3748998"><ele>179.0</ele><time>2026-04-04T11:48:28.579Z</time></trkpt><trkpt lat="43.2317365" lon="11.3750223"><ele>179.0</ele><time>2026-04-04T11:48:29.583Z</time></trkpt><trkpt lat="43.2315631" lon="11.3751447"><ele>179.0</ele><time>2026-04-04T11:48:30.577Z</time></trkpt><trkpt lat="43.2313892" lon="11.3752698"><ele>179.0</ele><time>2026-04-04T11:48:31.573Z</time></trkpt><trkpt lat="43.2312172" lon="11.3753939"><ele>179.0</ele><time>2026-04-04T11:48:32.581Z</time></trkpt><trkpt lat="43.2310563" lon="11.375506"><ele>179.0</ele><time>2026-04-04T11:48:33.584Z</time></trkpt><trkpt lat="43.2309013" lon="11.3756148"><ele>179.0</ele><time>2026-04-04T11:48:34.585Z</time></trkpt><trkpt lat="43.2307445" lon="11.3757283"><ele>179.0</ele><time>2026-04-04T11:48:35.577Z</time></trkpt><trkpt lat="43.2305848" lon="11.3758436"><ele>179.0</ele><time>2026-04-04T11:48:36.575Z</time></trkpt><trkpt lat="43.2304329" lon="11.3759525"><ele>180.66666666666666</ele><time>2026-04-04T11:48:37.586Z</time></trkpt><trkpt lat="43.2302903" lon="11.3760547"><ele>182.33333333333334</ele><time>2026-04-04T11:48:38.592Z</time></trkpt><trkpt lat="43.2301496" lon="11.3761559"><ele>184.0</ele><time>2026-04-04T11:48:39.585Z</time></trkpt><trkpt lat="43.2300093" lon="11.376262"><ele>184.66666666666669</ele><time>2026-04-04T11:48:40.577Z</time></trkpt><trkpt lat="43.2298686" lon="11.3763742"><ele>185.33333333333334</ele><time>2026-04-04T11:48:41.58Z</time></trkpt><trkpt lat="43.2297255" lon="11.3764875"><ele>186.0</ele><time>2026-04-04T11:48:42.576Z</time></trkpt><trkpt lat="43.2295797" lon="11.376607"><ele>186.0</ele><time>2026-04-04T11:48:43.576Z</time></trkpt><trkpt lat="43.2294412" lon="11.3767211"><ele>186.0</ele><time>2026-04-04T11:48:44.589Z</time></trkpt><trkpt lat="43.2293117" lon="11.3768285"><ele>186.0</ele><time>2026-04-04T11:48:45.578Z</time></trkpt><trkpt lat="43.2291877" lon="11.3769295"><ele>186.0</ele><time>2026-04-04T11:48:46.576Z</time></trkpt><trkpt lat="43.2290627" lon="11.3770207"><ele>186.0</ele><time>2026-04-04T11:48:47.582Z</time></trkpt><trkpt lat="43.2289298" lon="11.3770985"><ele>186.0</ele><time>2026-04-04T11:48:48.58Z</time></trkpt><trkpt lat="43.2287893" lon="11.3771629"><ele>186.0</ele><time>2026-04-04T11:48:49.584Z</time></trkpt><trkpt lat="43.2286379" lon="11.3772143"><ele>183.33333333333334</ele><time>2026-04-04T11:48:50.58Z</time></trkpt><trkpt lat="43.2284766" lon="11.3772469"><ele>180.66666666666669</ele><time>2026-04-04T11:48:51.577Z</time></trkpt><trkpt lat="43.2283232" lon="11.3772628"><ele>178.0</ele><time>2026-04-04T11:48:52.578Z</time></trkpt><trkpt lat="43.228177" lon="11.3772751"><ele>178.0</ele><time>2026-04-04T11:48:53.574Z</time></trkpt><trkpt lat="43.2280392" lon="11.3772912"><ele>178.0</ele><time>2026-04-04T11:48:54.58Z</time></trkpt><trkpt lat="43.2279104" lon="11.3773046"><ele>178.0</ele><time>2026-04-04T11:48:55.573Z</time></trkpt><trkpt lat="43.2277831" lon="11.3773098"><ele>178.0</ele><time>2026-04-04T11:48:56.582Z</time></trkpt><trkpt lat="43.2276526" lon="11.3773098"><ele>178.0</ele><time>2026-04-04T11:48:57.577Z</time></trkpt><trkpt lat="43.2275289" lon="11.3773051"><ele>178.0</ele><time>2026-04-04T11:48:58.582Z</time></trkpt><trkpt lat="43.227399" lon="11.3772881"><ele>178.0</ele><time>2026-04-04T11:48:59.577Z</time></trkpt><trkpt lat="43.2272718" lon="11.3772516"><ele>178.0</ele><time>2026-04-04T11:49:00.586Z</time></trkpt><trkpt lat="43.2271529" lon="11.3771997"><ele>178.75</ele><time>2026-04-04T11:49:01.587Z</time></trkpt><trkpt lat="43.2270371" lon="11.3771352"><ele>179.5</ele><time>2026-04-04T11:49:02.583Z</time></trkpt><trkpt lat="43.2269227" lon="11.3770617"><ele>180.25</ele><time>2026-04-04T11:49:03.584Z</time></trkpt><trkpt lat="43.2268087" lon="11.3769821"><ele>181.0</ele><time>2026-04-04T11:49:04.59Z</time></trkpt><trkpt lat="43.2266918" lon="11.3768924"><ele>181.0</ele><time>2026-04-04T11:49:05.578Z</time></trkpt><trkpt lat="43.226579" lon="11.3767816"><ele>181.0</ele><time>2026-04-04T11:49:06.585Z</time></trkpt><trkpt lat="43.2264708" lon="11.376653"><ele>181.0</ele><time>2026-04-04T11:49:07.586Z</time></trkpt><trkpt lat="43.2263738" lon="11.3765118"><ele>181.0</ele><time>2026-04-04T11:49:08.578Z</time></trkpt><trkpt lat="43.226283" lon="11.3763558"><ele>180.5</ele><time>2026-04-04T11:49:09.572Z</time></trkpt><trkpt lat="43.2262036" lon="11.3761835"><ele>180.0</ele><time>2026-04-04T11:49:10.586Z</time></trkpt><trkpt lat="43.2261405" lon="11.3760023"><ele>179.5</ele><time>2026-04-04T11:49:11.587Z</time></trkpt><trkpt lat="43.2260891" lon="11.3758147"><ele>179.0</ele><time>2026-04-04T11:49:12.592Z</time></trkpt><trkpt lat="43.2260542" lon="11.375643"><ele>178.75</ele><time>2026-04-04T11:49:13.587Z</time></trkpt><trkpt lat="43.2260337" lon="11.3754813"><ele>178.5</ele><time>2026-04-04T11:49:14.577Z</time></trkpt><trkpt lat="43.2260261" lon="11.3753323"><ele>178.25</ele><time>2026-04-04T11:49:15.582Z</time></trkpt><trkpt lat="43.2260275" lon="11.3751751"><ele>178.0</ele><time>2026-04-04T11:49:16.579Z</time></trkpt><trkpt lat="43.2260442" lon="11.3750066"><ele>178.0</ele><time>2026-04-04T11:49:17.584Z</time></trkpt><trkpt lat="43.2260648" lon="11.3748146"><ele>178.0</ele><time>2026-04-04T11:49:18.58Z</time></trkpt><trkpt lat="43.2260841" lon="11.3746011"><ele>178.0</ele><time>2026-04-04T11:49:19.582Z</time></trkpt><trkpt lat="43.2261043" lon="11.3743949"><ele>178.0</ele><time>2026-04-04T11:49:20.581Z</time></trkpt><trkpt lat="43.2261254" lon="11.3742022"><ele>178.0</ele><time>2026-04-04T11:49:21.584Z</time></trkpt><trkpt lat="43.2261384" lon="11.3740184"><ele>178.0</ele><time>2026-04-04T11:49:22.594Z</time></trkpt><trkpt lat="43.2261361" lon="11.3738374"><ele>178.0</ele><time>2026-04-04T11:49:23.584Z</time></trkpt><trkpt lat="43.2261176" lon="11.3736507"><ele>178.0</ele><time>2026-04-04T11:49:24.577Z</time></trkpt><trkpt lat="43.226079" lon="11.3734615"><ele>178.0</ele><time>2026-04-04T11:49:25.582Z</time></trkpt><trkpt lat="43.2260235" lon="11.3732667"><ele>178.0</ele><time>2026-04-04T11:49:26.584Z</time></trkpt><trkpt lat="43.2259599" lon="11.3730661"><ele>179.0</ele><time>2026-04-04T11:49:27.584Z</time></trkpt><trkpt lat="43.2259011" lon="11.3728758"><ele>180.0</ele><time>2026-04-04T11:49:28.583Z</time></trkpt><trkpt lat="43.2258486" lon="11.3726945"><ele>181.0</ele><time>2026-04-04T11:49:29.592Z</time></trkpt><trkpt lat="43.2257961" lon="11.3725284"><ele>182.0</ele><time>2026-04-04T11:49:30.586Z</time></trkpt><trkpt lat="43.2257444" lon="11.3723927"><ele>182.0</ele><time>2026-04-04T11:49:31.58Z</time></trkpt><trkpt lat="43.2256946" lon="11.3722806"><ele>182.0</ele><time>2026-04-04T11:49:32.578Z</time></trkpt><trkpt lat="43.2256449" lon="11.3722002"><ele>182.0</ele><time>2026-04-04T11:49:33.576Z</time></trkpt><trkpt lat="43.2255911" lon="11.372154"><ele>182.0</ele><time>2026-04-04T11:49:34.581Z</time></trkpt><trkpt lat="43.2254738" lon="11.3721591"><ele>182.0</ele><time>2026-04-04T11:49:36.579Z</time></trkpt><trkpt lat="43.2254113" lon="11.372203"><ele>182.0</ele><time>2026-04-04T11:49:37.583Z</time></trkpt><trkpt lat="43.2253539" lon="11.3722835"><ele>181.5</ele><time>2026-04-04T11:49:38.586Z</time></trkpt><trkpt lat="43.2252955" lon="11.3723946"><ele>181.0</ele><time>2026-04-04T11:49:39.583Z</time></trkpt><trkpt lat="43.2252385" lon="11.3725404"><ele>180.5</ele><time>2026-04-04T11:49:40.576Z</time></trkpt><trkpt lat="43.2251733" lon="11.3727066"><ele>180.0</ele><time>2026-04-04T11:49:41.582Z</time></trkpt><trkpt lat="43.2251106" lon="11.3728715"><ele>180.0</ele><time>2026-04-04T11:49:42.579Z</time></trkpt><trkpt lat="43.2250493" lon="11.3730141"><ele>180.0</ele><time>2026-04-04T11:49:43.569Z</time></trkpt><trkpt lat="43.2249854" lon="11.3731414"><ele>180.0</ele><time>2026-04-04T11:49:44.576Z</time></trkpt><trkpt lat="43.2249096" lon="11.3732546"><ele>180.0</ele><time>2026-04-04T11:49:45.587Z</time></trkpt><trkpt lat="43.2248213" lon="11.3733462"><ele>182.0</ele><time>2026-04-04T11:49:46.579Z</time></trkpt><trkpt lat="43.2247259" lon="11.3734189"><ele>184.0</ele><time>2026-04-04T11:49:47.586Z</time></trkpt><trkpt lat="43.22462" lon="11.3734699"><ele>186.0</ele><time>2026-04-04T11:49:48.58Z</time></trkpt><trkpt lat="43.2245085" lon="11.3735039"><ele>188.0</ele><time>2026-04-04T11:49:49.582Z</time></trkpt><trkpt lat="43.2243942" lon="11.3735187"><ele>188.0</ele><time>2026-04-04T11:49:50.58Z</time></trkpt><trkpt lat="43.2242792" lon="11.3735125"><ele>188.0</ele><time>2026-04-04T11:49:51.584Z</time></trkpt><trkpt lat="43.2241754" lon="11.3734813"><ele>188.0</ele><time>2026-04-04T11:49:52.585Z</time></trkpt><trkpt lat="43.2240742" lon="11.3734325"><ele>188.0</ele><time>2026-04-04T11:49:53.578Z</time></trkpt><trkpt lat="43.2239768" lon="11.3733708"><ele>188.0</ele><time>2026-04-04T11:49:54.581Z</time></trkpt><trkpt lat="43.2238832" lon="11.3732921"><ele>191.60000000000002</ele><time>2026-04-04T11:49:55.582Z</time></trkpt><trkpt lat="43.223801" lon="11.3731978"><ele>195.20000000000002</ele><time>2026-04-04T11:49:56.581Z</time></trkpt><trkpt lat="43.2237303" lon="11.3730825"><ele>198.8</ele><time>2026-04-04T11:49:57.576Z</time></trkpt><trkpt lat="43.2236674" lon="11.3729525"><ele>202.4</ele><time>2026-04-04T11:49:58.58Z</time></trkpt><trkpt lat="43.2236287" lon="11.3728325"><ele>206.0</ele><time>2026-04-04T11:49:59.583Z</time></trkpt><trkpt lat="43.2236038" lon="11.3727068"><ele>206.0</ele><time>2026-04-04T11:50:00.586Z</time></trkpt><trkpt lat="43.2235972" lon="11.3725814"><ele>206.0</ele><time>2026-04-04T11:50:01.587Z</time></trkpt><trkpt lat="43.2236066" lon="11.3724429"><ele>206.0</ele><time>2026-04-04T11:50:02.58Z</time></trkpt><trkpt lat="43.2236283" lon="11.3722991"><ele>206.0</ele><time>2026-04-04T11:50:03.579Z</time></trkpt><trkpt lat="43.223641" lon="11.3721689"><ele>206.0</ele><time>2026-04-04T11:50:04.587Z</time></trkpt><trkpt lat="43.2236525" lon="11.3720337"><ele>206.0</ele><time>2026-04-04T11:50:05.579Z</time></trkpt><trkpt lat="43.2236514" lon="11.3719012"><ele>206.0</ele><time>2026-04-04T11:50:06.587Z</time></trkpt><trkpt lat="43.2236318" lon="11.37177"><ele>206.0</ele><time>2026-04-04T11:50:07.581Z</time></trkpt><trkpt lat="43.2235954" lon="11.3716359"><ele>206.0</ele><time>2026-04-04T11:50:08.584Z</time></trkpt><trkpt lat="43.2235404" lon="11.3715068"><ele>206.0</ele><time>2026-04-04T11:50:09.576Z</time></trkpt><trkpt lat="43.223468" lon="11.3713911"><ele>205.33333333333334</ele><time>2026-04-04T11:50:10.578Z</time></trkpt><trkpt lat="43.2233922" lon="11.3712921"><ele>204.66666666666669</ele><time>2026-04-04T11:50:11.582Z</time></trkpt><trkpt lat="43.2233132" lon="11.3712284"><ele>204.0</ele><time>2026-04-04T11:50:12.579Z</time></trkpt><trkpt lat="43.2232412" lon="11.3711902"><ele>203.33333333333331</ele><time>2026-04-04T11:50:13.58Z</time></trkpt><trkpt lat="43.223166" lon="11.3711798"><ele>202.66666666666666</ele><time>2026-04-04T11:50:14.585Z</time></trkpt><trkpt lat="43.2230881" lon="11.3711973"><ele>202.0</ele><time>2026-04-04T11:50:15.576Z</time></trkpt><trkpt lat="43.2230097" lon="11.371241"><ele>201.75</ele><time>2026-04-04T11:50:16.588Z</time></trkpt><trkpt lat="43.2229321" lon="11.3713099"><ele>201.5</ele><time>2026-04-04T11:50:17.584Z</time></trkpt><trkpt lat="43.2228585" lon="11.3714071"><ele>201.25</ele><time>2026-04-04T11:50:18.585Z</time></trkpt><trkpt lat="43.2227862" lon="11.3715312"><ele>201.0</ele><time>2026-04-04T11:50:19.584Z</time></trkpt><trkpt lat="43.2227017" lon="11.3716869"><ele>203.33333333333331</ele><time>2026-04-04T11:50:20.576Z</time></trkpt><trkpt lat="43.2226053" lon="11.3718557"><ele>205.66666666666666</ele><time>2026-04-04T11:50:21.588Z</time></trkpt><trkpt lat="43.2225053" lon="11.3720165"><ele>208.0</ele><time>2026-04-04T11:50:22.581Z</time></trkpt><trkpt lat="43.2223968" lon="11.3721653"><ele>211.25</ele><time>2026-04-04T11:50:23.589Z</time></trkpt><trkpt lat="43.2222914" lon="11.3722869"><ele>214.5</ele><time>2026-04-04T11:50:24.57Z</time></trkpt><trkpt lat="43.2221784" lon="11.3724025"><ele>217.75</ele><time>2026-04-04T11:50:25.588Z</time></trkpt><trkpt lat="43.2220688" lon="11.3724913"><ele>221.0</ele><time>2026-04-04T11:50:26.586Z</time></trkpt><trkpt lat="43.2219523" lon="11.3725618"><ele>221.0</ele><time>2026-04-04T11:50:27.573Z</time></trkpt><trkpt lat="43.2218262" lon="11.3726164"><ele>221.0</ele><time>2026-04-04T11:50:28.573Z</time></trkpt><trkpt lat="43.2216929" lon="11.372658"><ele>221.0</ele><time>2026-04-04T11:50:29.583Z</time></trkpt><trkpt lat="43.221553" lon="11.3726944"><ele>221.0</ele><time>2026-04-04T11:50:30.58Z</time></trkpt><trkpt lat="43.2214053" lon="11.3727326"><ele>223.0</ele><time>2026-04-04T11:50:31.583Z</time></trkpt><trkpt lat="43.2212492" lon="11.3727694"><ele>225.0</ele><time>2026-04-04T11:50:32.585Z</time></trkpt><trkpt lat="43.2210847" lon="11.3728041"><ele>227.0</ele><time>2026-04-04T11:50:33.589Z</time></trkpt><trkpt lat="43.2209124" lon="11.3728389"><ele>227.0</ele><time>2026-04-04T11:50:34.583Z</time></trkpt><trkpt lat="43.2207324" lon="11.3728754"><ele>227.0</ele><time>2026-04-04T11:50:35.579Z</time></trkpt><trkpt lat="43.2205702" lon="11.3729102"><ele>227.0</ele><time>2026-04-04T11:50:36.578Z</time></trkpt><trkpt lat="43.2204233" lon="11.3729438"><ele>228.0</ele><time>2026-04-04T11:50:37.582Z</time></trkpt><trkpt lat="43.2202923" lon="11.3729735"><ele>229.0</ele><time>2026-04-04T11:50:38.581Z</time></trkpt><trkpt lat="43.220166" lon="11.3730021"><ele>230.0</ele><time>2026-04-04T11:50:39.584Z</time></trkpt><trkpt lat="43.2200388" lon="11.3730269"><ele>231.0</ele><time>2026-04-04T11:50:40.58Z</time></trkpt><trkpt lat="43.2199129" lon="11.3730486"><ele>234.25</ele><time>2026-04-04T11:50:41.582Z</time></trkpt><trkpt lat="43.219786" lon="11.3730668"><ele>237.5</ele><time>2026-04-04T11:50:42.588Z</time></trkpt><trkpt lat="43.2196625" lon="11.3730758"><ele>240.75</ele><time>2026-04-04T11:50:43.585Z</time></trkpt><trkpt lat="43.2195387" lon="11.373074"><ele>244.0</ele><time>2026-04-04T11:50:44.582Z</time></trkpt><trkpt lat="43.2194312" lon="11.373067"><ele>243.99999999999997</ele><time>2026-04-04T11:50:45.589Z</time></trkpt><trkpt lat="43.21934" lon="11.37306"><ele>244.0</ele><time>2026-04-04T11:50:46.577Z</time></trkpt><trkpt lat="43.2192465" lon="11.3730527"><ele>244.0</ele><time>2026-04-04T11:50:47.585Z</time></trkpt><trkpt lat="43.219161" lon="11.3730383"><ele>244.0</ele><time>2026-04-04T11:50:48.587Z</time></trkpt><trkpt lat="43.2190748" lon="11.373028"><ele>243.99999999999997</ele><time>2026-04-04T11:50:49.574Z</time></trkpt><trkpt lat="43.2189927" lon="11.3730148"><ele>244.0</ele><time>2026-04-04T11:50:50.585Z</time></trkpt><trkpt lat="43.2189148" lon="11.3729814"><ele>245.33333333333331</ele><time>2026-04-04T11:50:51.578Z</time></trkpt><trkpt lat="43.2188339" lon="11.3729455"><ele>246.66666666666666</ele><time>2026-04-04T11:50:52.586Z</time></trkpt><trkpt lat="43.2187524" lon="11.3729095"><ele>248.0</ele><time>2026-04-04T11:50:53.574Z</time></trkpt><trkpt lat="43.2186694" lon="11.3728696"><ele>249.33333333333331</ele><time>2026-04-04T11:50:54.576Z</time></trkpt><trkpt lat="43.2185852" lon="11.3728251"><ele>250.66666666666666</ele><time>2026-04-04T11:50:55.572Z</time></trkpt><trkpt lat="43.2184996" lon="11.3727787"><ele>252.0</ele><time>2026-04-04T11:50:56.585Z</time></trkpt><trkpt lat="43.2184141" lon="11.3727294"><ele>252.0</ele><time>2026-04-04T11:50:57.569Z</time></trkpt><trkpt lat="43.2183267" lon="11.3726786"><ele>252.0</ele><time>2026-04-04T11:50:58.576Z</time></trkpt><trkpt lat="43.2182366" lon="11.3726278"><ele>252.0</ele><time>2026-04-04T11:50:59.581Z</time></trkpt><trkpt lat="43.2181352" lon="11.3725792"><ele>252.0</ele><time>2026-04-04T11:51:00.574Z</time></trkpt><trkpt lat="43.2180278" lon="11.3725225"><ele>252.0</ele><time>2026-04-04T11:51:01.572Z</time></trkpt><trkpt lat="43.2179141" lon="11.3724618"><ele>250.0</ele><time>2026-04-04T11:51:02.576Z</time></trkpt><trkpt lat="43.217805" lon="11.37241"><ele>248.0</ele><time>2026-04-04T11:51:03.579Z</time></trkpt><trkpt lat="43.2177008" lon="11.3723591"><ele>246.0</ele><time>2026-04-04T11:51:04.573Z</time></trkpt><trkpt lat="43.2175986" lon="11.3723079"><ele>244.0</ele><time>2026-04-04T11:51:05.585Z</time></trkpt><trkpt lat="43.2175024" lon="11.37226"><ele>242.0</ele><time>2026-04-04T11:51:06.578Z</time></trkpt><trkpt lat="43.2174072" lon="11.3722127"><ele>241.0</ele><time>2026-04-04T11:51:07.579Z</time></trkpt><trkpt lat="43.2173039" lon="11.3721603"><ele>240.0</ele><time>2026-04-04T11:51:08.58Z</time></trkpt><trkpt lat="43.2171963" lon="11.3721025"><ele>239.0</ele><time>2026-04-04T11:51:09.575Z</time></trkpt><trkpt lat="43.217082" lon="11.3720425"><ele>238.0</ele><time>2026-04-04T11:51:10.578Z</time></trkpt><trkpt lat="43.2169695" lon="11.3719837"><ele>238.0</ele><time>2026-04-04T11:51:11.581Z</time></trkpt><trkpt lat="43.2168618" lon="11.37193"><ele>238.0</ele><time>2026-04-04T11:51:12.583Z</time></trkpt><trkpt lat="43.2167586" lon="11.3718795"><ele>238.0</ele><time>2026-04-04T11:51:13.578Z</time></trkpt><trkpt lat="43.2166621" lon="11.3718301"><ele>238.0</ele><time>2026-04-04T11:51:14.583Z</time></trkpt><trkpt lat="43.2165725" lon="11.371781"><ele>238.0</ele><time>2026-04-04T11:51:15.575Z</time></trkpt><trkpt lat="43.2164847" lon="11.371737"><ele>239.2</ele><time>2026-04-04T11:51:16.589Z</time></trkpt><trkpt lat="43.2163942" lon="11.3716944"><ele>240.4</ele><time>2026-04-04T11:51:17.58Z</time></trkpt><trkpt lat="43.2163073" lon="11.3716515"><ele>241.59999999999997</ele><time>2026-04-04T11:51:18.579Z</time></trkpt><trkpt lat="43.2162185" lon="11.3716077"><ele>242.79999999999998</ele><time>2026-04-04T11:51:19.584Z</time></trkpt><trkpt lat="43.2161247" lon="11.3715659"><ele>244.0</ele><time>2026-04-04T11:51:20.59Z</time></trkpt><trkpt lat="43.2160308" lon="11.3715176"><ele>244.0</ele><time>2026-04-04T11:51:21.574Z</time></trkpt><trkpt lat="43.2159362" lon="11.3714586"><ele>243.99999999999997</ele><time>2026-04-04T11:51:22.585Z</time></trkpt><trkpt lat="43.2158443" lon="11.3713892"><ele>243.99999999999997</ele><time>2026-04-04T11:51:23.591Z</time></trkpt><trkpt lat="43.2157615" lon="11.3713165"><ele>244.0</ele><time>2026-04-04T11:51:24.579Z</time></trkpt><trkpt lat="43.2156975" lon="11.3712336"><ele>244.0</ele><time>2026-04-04T11:51:25.584Z</time></trkpt><trkpt lat="43.215641" lon="11.3711489"><ele>243.33333333333331</ele><time>2026-04-04T11:51:26.579Z</time></trkpt><trkpt lat="43.2155779" lon="11.3710799"><ele>242.66666666666666</ele><time>2026-04-04T11:51:27.587Z</time></trkpt><trkpt lat="43.2155139" lon="11.3710203"><ele>242.0</ele><time>2026-04-04T11:51:28.589Z</time></trkpt><trkpt lat="43.2154521" lon="11.3709601"><ele>241.33333333333331</ele><time>2026-04-04T11:51:29.576Z</time></trkpt><trkpt lat="43.2153843" lon="11.3709046"><ele>240.66666666666666</ele><time>2026-04-04T11:51:30.581Z</time></trkpt><trkpt lat="43.2153078" lon="11.3708483"><ele>240.0</ele><time>2026-04-04T11:51:31.579Z</time></trkpt><trkpt lat="43.2152253" lon="11.3707957"><ele>240.0</ele><time>2026-04-04T11:51:32.584Z</time></trkpt><trkpt lat="43.2151396" lon="11.3707483"><ele>240.0</ele><time>2026-04-04T11:51:33.582Z</time></trkpt><trkpt lat="43.215052" lon="11.3707093"><ele>240.0</ele><time>2026-04-04T11:51:34.579Z</time></trkpt><trkpt lat="43.21496" lon="11.3706835"><ele>240.0</ele><time>2026-04-04T11:51:35.578Z</time></trkpt><trkpt lat="43.2148655" lon="11.3706751"><ele>240.0</ele><time>2026-04-04T11:51:36.581Z</time></trkpt><trkpt lat="43.2147696" lon="11.3706865"><ele>237.6</ele><time>2026-04-04T11:51:37.578Z</time></trkpt><trkpt lat="43.2146739" lon="11.3707186"><ele>235.2</ele><time>2026-04-04T11:51:38.572Z</time></trkpt><trkpt lat="43.2145825" lon="11.3707678"><ele>232.8</ele><time>2026-04-04T11:51:39.577Z</time></trkpt><trkpt lat="43.2144899" lon="11.3708258"><ele>230.4</ele><time>2026-04-04T11:51:40.58Z</time></trkpt><trkpt lat="43.2143928" lon="11.3708803"><ele>228.0</ele><time>2026-04-04T11:51:41.591Z</time></trkpt><trkpt lat="43.2142948" lon="11.3709314"><ele>228.0</ele><time>2026-04-04T11:51:42.584Z</time></trkpt><trkpt lat="43.2141977" lon="11.3709886"><ele>228.0</ele><time>2026-04-04T11:51:43.588Z</time></trkpt><trkpt lat="43.2141032" lon="11.3710516"><ele>228.0</ele><time>2026-04-04T11:51:44.596Z</time></trkpt><trkpt lat="43.2140061" lon="11.3711228"><ele>228.0</ele><time>2026-04-04T11:51:45.587Z</time></trkpt><trkpt lat="43.2139056" lon="11.3711909"><ele>228.0</ele><time>2026-04-04T11:51:46.581Z</time></trkpt><trkpt lat="43.2138026" lon="11.3712539"><ele>226.8</ele><time>2026-04-04T11:51:47.585Z</time></trkpt><trkpt lat="43.2137014" lon="11.3713046"><ele>225.60000000000002</ele><time>2026-04-04T11:51:48.588Z</time></trkpt><trkpt lat="43.2136009" lon="11.3713412"><ele>224.39999999999998</ele><time>2026-04-04T11:51:49.579Z</time></trkpt><trkpt lat="43.2135019" lon="11.3713618"><ele>223.2</ele><time>2026-04-04T11:51:50.585Z</time></trkpt><trkpt lat="43.2134079" lon="11.3713452"><ele>222.0</ele><time>2026-04-04T11:51:51.589Z</time></trkpt><trkpt lat="43.2133256" lon="11.3712836"><ele>222.0</ele><time>2026-04-04T11:51:52.586Z</time></trkpt><trkpt lat="43.213254" lon="11.3711867"><ele>222.0</ele><time>2026-04-04T11:51:53.58Z</time></trkpt><trkpt lat="43.2131888" lon="11.3710813"><ele>222.0</ele><time>2026-04-04T11:51:54.575Z</time></trkpt><trkpt lat="43.2131223" lon="11.3709746"><ele>222.0</ele><time>2026-04-04T11:51:55.585Z</time></trkpt><trkpt lat="43.2130579" lon="11.3708523"><ele>222.0</ele><time>2026-04-04T11:51:56.572Z</time></trkpt><trkpt lat="43.2129948" lon="11.3707322"><ele>222.0</ele><time>2026-04-04T11:51:57.591Z</time></trkpt><trkpt lat="43.2129337" lon="11.3706147"><ele>222.0</ele><time>2026-04-04T11:51:58.581Z</time></trkpt><trkpt lat="43.2128818" lon="11.370509"><ele>222.0</ele><time>2026-04-04T11:51:59.579Z</time></trkpt><trkpt lat="43.2128307" lon="11.3704065"><ele>222.0</ele><time>2026-04-04T11:52:00.58Z</time></trkpt><trkpt lat="43.2127823" lon="11.3703172"><ele>222.0</ele><time>2026-04-04T11:52:01.579Z</time></trkpt><trkpt lat="43.2127389" lon="11.3702319"><ele>222.0</ele><time>2026-04-04T11:52:02.578Z</time></trkpt><trkpt lat="43.2127023" lon="11.3701567"><ele>222.5</ele><time>2026-04-04T11:52:03.584Z</time></trkpt><trkpt lat="43.2126613" lon="11.3700715"><ele>223.0</ele><time>2026-04-04T11:52:05.582Z</time></trkpt><trkpt lat="43.2126075" lon="11.3699872"><ele>223.5</ele><time>2026-04-04T11:52:25.582Z</time></trkpt><trkpt lat="43.2125696" lon="11.3699123"><ele>224.0</ele><time>2026-04-04T11:52:26.577Z</time></trkpt><trkpt lat="43.2125246" lon="11.3698197"><ele>224.5</ele><time>2026-04-04T11:52:27.587Z</time></trkpt><trkpt lat="43.2124743" lon="11.3697333"><ele>225.0</ele><time>2026-04-04T11:52:28.582Z</time></trkpt><trkpt lat="43.2124088" lon="11.3696315"><ele>225.0</ele><time>2026-04-04T11:52:29.58Z</time></trkpt><trkpt lat="43.2123344" lon="11.3695221"><ele>225.0</ele><time>2026-04-04T11:52:30.576Z</time></trkpt><trkpt lat="43.2122618" lon="11.3694172"><ele>225.0</ele><time>2026-04-04T11:52:31.58Z</time></trkpt><trkpt lat="43.2121971" lon="11.3693244"><ele>225.0</ele><time>2026-04-04T11:52:32.586Z</time></trkpt><trkpt lat="43.212133" lon="11.3692449"><ele>225.0</ele><time>2026-04-04T11:52:33.575Z</time></trkpt><trkpt lat="43.2120583" lon="11.3691673"><ele>225.4</ele><time>2026-04-04T11:52:34.576Z</time></trkpt><trkpt lat="43.2119715" lon="11.3690897"><ele>225.8</ele><time>2026-04-04T11:52:35.583Z</time></trkpt><trkpt lat="43.2118868" lon="11.369024"><ele>226.2</ele><time>2026-04-04T11:52:36.583Z</time></trkpt><trkpt lat="43.211795" lon="11.3689589"><ele>226.6</ele><time>2026-04-04T11:52:37.573Z</time></trkpt><trkpt lat="43.2117045" lon="11.3688989"><ele>227.0</ele><time>2026-04-04T11:52:38.58Z</time></trkpt><trkpt lat="43.2116094" lon="11.3688438"><ele>227.0</ele><time>2026-04-04T11:52:39.58Z</time></trkpt><trkpt lat="43.2115052" lon="11.3687952"><ele>227.0</ele><time>2026-04-04T11:52:40.574Z</time></trkpt><trkpt lat="43.2113973" lon="11.36875"><ele>227.0</ele><time>2026-04-04T11:52:41.578Z</time></trkpt><trkpt lat="43.2112952" lon="11.3687116"><ele>227.0</ele><time>2026-04-04T11:52:42.583Z</time></trkpt><trkpt lat="43.2111982" lon="11.3686759"><ele>227.0</ele><time>2026-04-04T11:52:43.576Z</time></trkpt><trkpt lat="43.211107" lon="11.3686438"><ele>227.8</ele><time>2026-04-04T11:52:44.576Z</time></trkpt><trkpt lat="43.2110177" lon="11.3686104"><ele>228.6</ele><time>2026-04-04T11:52:45.583Z</time></trkpt><trkpt lat="43.2109241" lon="11.3685766"><ele>229.40000000000003</ele><time>2026-04-04T11:52:46.584Z</time></trkpt><trkpt lat="43.2108254" lon="11.368546"><ele>230.20000000000002</ele><time>2026-04-04T11:52:47.576Z</time></trkpt><trkpt lat="43.2107296" lon="11.3685145"><ele>231.0</ele><time>2026-04-04T11:52:48.59Z</time></trkpt><trkpt lat="43.2106317" lon="11.3684838"><ele>231.0</ele><time>2026-04-04T11:52:49.584Z</time></trkpt><trkpt lat="43.2105336" lon="11.3684545"><ele>231.00000000000003</ele><time>2026-04-04T11:52:50.584Z</time></trkpt><trkpt lat="43.2104351" lon="11.3684168"><ele>231.00000000000003</ele><time>2026-04-04T11:52:51.585Z</time></trkpt><trkpt lat="43.2103375" lon="11.3683763"><ele>231.0</ele><time>2026-04-04T11:52:52.574Z</time></trkpt><trkpt lat="43.2102487" lon="11.3683396"><ele>231.0</ele><time>2026-04-04T11:52:53.58Z</time></trkpt><trkpt lat="43.2101678" lon="11.3683032"><ele>231.0</ele><time>2026-04-04T11:52:54.575Z</time></trkpt><trkpt lat="43.2100904" lon="11.3682724"><ele>231.0</ele><time>2026-04-04T11:52:55.587Z</time></trkpt><trkpt lat="43.2100157" lon="11.3682428"><ele>231.0</ele><time>2026-04-04T11:52:56.571Z</time></trkpt><trkpt lat="43.2099417" lon="11.3682214"><ele>231.0</ele><time>2026-04-04T11:52:57.581Z</time></trkpt><trkpt lat="43.2098667" lon="11.368213"><ele>231.0</ele><time>2026-04-04T11:52:58.574Z</time></trkpt><trkpt lat="43.2097853" lon="11.3682195"><ele>231.0</ele><time>2026-04-04T11:52:59.576Z</time></trkpt><trkpt lat="43.209707" lon="11.3682425"><ele>233.8</ele><time>2026-04-04T11:53:00.582Z</time></trkpt><trkpt lat="43.2096386" lon="11.3682894"><ele>236.60000000000002</ele><time>2026-04-04T11:53:01.588Z</time></trkpt><trkpt lat="43.2095678" lon="11.3683648"><ele>239.4</ele><time>2026-04-04T11:53:02.575Z</time></trkpt><trkpt lat="43.2094878" lon="11.3684715"><ele>242.2</ele><time>2026-04-04T11:53:03.584Z</time></trkpt><trkpt lat="43.2093997" lon="11.3686026"><ele>245.0</ele><time>2026-04-04T11:53:04.581Z</time></trkpt><trkpt lat="43.2092999" lon="11.3687531"><ele>243.0</ele><time>2026-04-04T11:53:05.578Z</time></trkpt><trkpt lat="43.2091949" lon="11.3689121"><ele>241.0</ele><time>2026-04-04T11:53:06.584Z</time></trkpt><trkpt lat="43.2090902" lon="11.3690694"><ele>239.0</ele><time>2026-04-04T11:53:07.59Z</time></trkpt><trkpt lat="43.2089803" lon="11.3692243"><ele>243.66666666666669</ele><time>2026-04-04T11:53:08.58Z</time></trkpt><trkpt lat="43.2088671" lon="11.3693783"><ele>248.33333333333331</ele><time>2026-04-04T11:53:09.581Z</time></trkpt><trkpt lat="43.2087463" lon="11.3695475"><ele>253.0</ele><time>2026-04-04T11:53:10.58Z</time></trkpt><trkpt lat="43.2086325" lon="11.3697065"><ele>253.0</ele><time>2026-04-04T11:53:11.584Z</time></trkpt><trkpt lat="43.2085224" lon="11.3698621"><ele>253.0</ele><time>2026-04-04T11:53:12.574Z</time></trkpt><trkpt lat="43.2084159" lon="11.3700171"><ele>253.0</ele><time>2026-04-04T11:53:13.576Z</time></trkpt><trkpt lat="43.2083103" lon="11.370168"><ele>253.0</ele><time>2026-04-04T11:53:14.582Z</time></trkpt><trkpt lat="43.2082045" lon="11.370317"><ele>253.0</ele><time>2026-04-04T11:53:15.59Z</time></trkpt><trkpt lat="43.2080995" lon="11.3704635"><ele>253.0</ele><time>2026-04-04T11:53:16.587Z</time></trkpt><trkpt lat="43.2079955" lon="11.3706112"><ele>258.66666666666663</ele><time>2026-04-04T11:53:17.577Z</time></trkpt><trkpt lat="43.2078913" lon="11.3707595"><ele>264.3333333333333</ele><time>2026-04-04T11:53:18.583Z</time></trkpt><trkpt lat="43.2077876" lon="11.3709112"><ele>270.0</ele><time>2026-04-04T11:53:19.579Z</time></trkpt><trkpt lat="43.2076822" lon="11.3710569"><ele>270.0</ele><time>2026-04-04T11:53:20.57Z</time></trkpt><trkpt lat="43.2075861" lon="11.3711765"><ele>270.0</ele><time>2026-04-04T11:53:21.574Z</time></trkpt><trkpt lat="43.2074925" lon="11.371298"><ele>270.0</ele><time>2026-04-04T11:53:22.582Z</time></trkpt><trkpt lat="43.2074018" lon="11.3714195"><ele>270.0</ele><time>2026-04-04T11:53:23.581Z</time></trkpt><trkpt lat="43.2073142" lon="11.3715362"><ele>274.25</ele><time>2026-04-04T11:53:24.58Z</time></trkpt><trkpt lat="43.2072319" lon="11.3716594"><ele>278.5</ele><time>2026-04-04T11:53:25.589Z</time></trkpt><trkpt lat="43.2071512" lon="11.3717932"><ele>282.75</ele><time>2026-04-04T11:53:26.584Z</time></trkpt><trkpt lat="43.2070711" lon="11.3719391"><ele>287.0</ele><time>2026-04-04T11:53:27.581Z</time></trkpt><trkpt lat="43.2069955" lon="11.3720912"><ele>283.0</ele><time>2026-04-04T11:53:28.586Z</time></trkpt><trkpt lat="43.2069136" lon="11.3722443"><ele>279.0</ele><time>2026-04-04T11:53:29.58Z</time></trkpt><trkpt lat="43.2068369" lon="11.3723779"><ele>275.0</ele><time>2026-04-04T11:53:30.58Z</time></trkpt><trkpt lat="43.2067625" lon="11.372504"><ele>271.0</ele><time>2026-04-04T11:53:31.582Z</time></trkpt><trkpt lat="43.2066857" lon="11.3726193"><ele>271.0</ele><time>2026-04-04T11:53:32.586Z</time></trkpt><trkpt lat="43.2065987" lon="11.3727253"><ele>271.0</ele><time>2026-04-04T11:53:33.58Z</time></trkpt><trkpt lat="43.2064989" lon="11.3728208"><ele>271.0</ele><time>2026-04-04T11:53:34.578Z</time></trkpt><trkpt lat="43.2063879" lon="11.372905"><ele>271.0</ele><time>2026-04-04T11:53:35.584Z</time></trkpt><trkpt lat="43.2062718" lon="11.372994"><ele>270.0</ele><time>2026-04-04T11:53:36.59Z</time></trkpt><trkpt lat="43.20615" lon="11.3730858"><ele>269.0</ele><time>2026-04-04T11:53:37.581Z</time></trkpt><trkpt lat="43.2060238" lon="11.3731739"><ele>268.0</ele><time>2026-04-04T11:53:38.583Z</time></trkpt><trkpt lat="43.2058981" lon="11.3732642"><ele>267.0</ele><time>2026-04-04T11:53:39.578Z</time></trkpt><trkpt lat="43.2057792" lon="11.3733629"><ele>267.0</ele><time>2026-04-04T11:53:40.592Z</time></trkpt><trkpt lat="43.2056713" lon="11.3734633"><ele>267.0</ele><time>2026-04-04T11:53:41.588Z</time></trkpt><trkpt lat="43.2055766" lon="11.3735598"><ele>267.0</ele><time>2026-04-04T11:53:42.587Z</time></trkpt><trkpt lat="43.2054948" lon="11.3736383"><ele>267.0</ele><time>2026-04-04T11:53:43.587Z</time></trkpt><trkpt lat="43.205409" lon="11.3737029"><ele>267.0</ele><time>2026-04-04T11:53:44.581Z</time></trkpt><trkpt lat="43.2053126" lon="11.373745"><ele>267.25</ele><time>2026-04-04T11:53:45.574Z</time></trkpt><trkpt lat="43.2052131" lon="11.3737631"><ele>267.5</ele><time>2026-04-04T11:53:46.575Z</time></trkpt><trkpt lat="43.2051031" lon="11.3737642"><ele>267.75</ele><time>2026-04-04T11:53:47.588Z</time></trkpt><trkpt lat="43.204978" lon="11.3737556"><ele>268.0</ele><time>2026-04-04T11:53:48.579Z</time></trkpt><trkpt lat="43.2048526" lon="11.373759"><ele>267.75</ele><time>2026-04-04T11:53:49.582Z</time></trkpt><trkpt lat="43.204725" lon="11.3737775"><ele>267.5</ele><time>2026-04-04T11:53:50.574Z</time></trkpt><trkpt lat="43.2045936" lon="11.3738117"><ele>267.25</ele><time>2026-04-04T11:53:51.581Z</time></trkpt><trkpt lat="43.204469" lon="11.373846"><ele>267.0</ele><time>2026-04-04T11:53:52.582Z</time></trkpt><trkpt lat="43.2043535" lon="11.3738788"><ele>264.75</ele><time>2026-04-04T11:53:53.586Z</time></trkpt><trkpt lat="43.2042431" lon="11.3739182"><ele>262.5</ele><time>2026-04-04T11:53:54.584Z</time></trkpt><trkpt lat="43.2041312" lon="11.3739522"><ele>260.25</ele><time>2026-04-04T11:53:55.582Z</time></trkpt><trkpt lat="43.2040137" lon="11.373991"><ele>258.0</ele><time>2026-04-04T11:53:56.581Z</time></trkpt><trkpt lat="43.203904" lon="11.3740302"><ele>258.0</ele><time>2026-04-04T11:53:57.577Z</time></trkpt><trkpt lat="43.2037981" lon="11.374086"><ele>258.0</ele><time>2026-04-04T11:53:58.577Z</time></trkpt><trkpt lat="43.2036905" lon="11.374161"><ele>258.0</ele><time>2026-04-04T11:53:59.58Z</time></trkpt><trkpt lat="43.2035843" lon="11.3742544"><ele>258.0</ele><time>2026-04-04T11:54:00.587Z</time></trkpt><trkpt lat="43.203472" lon="11.3743445"><ele>258.0</ele><time>2026-04-04T11:54:01.58Z</time></trkpt><trkpt lat="43.2033602" lon="11.3744209"><ele>258.0</ele><time>2026-04-04T11:54:02.584Z</time></trkpt><trkpt lat="43.203237" lon="11.374487"><ele>258.0</ele><time>2026-04-04T11:54:03.59Z</time></trkpt><trkpt lat="43.2031004" lon="11.3745353"><ele>258.0</ele><time>2026-04-04T11:54:04.582Z</time></trkpt><trkpt lat="43.2029557" lon="11.374578"><ele>256.0</ele><time>2026-04-04T11:54:05.582Z</time></trkpt><trkpt lat="43.2028018" lon="11.374621"><ele>254.0</ele><time>2026-04-04T11:54:06.579Z</time></trkpt><trkpt lat="43.2026407" lon="11.3746673"><ele>252.0</ele><time>2026-04-04T11:54:07.577Z</time></trkpt><trkpt lat="43.2024761" lon="11.3747097"><ele>255.5</ele><time>2026-04-04T11:54:08.58Z</time></trkpt><trkpt lat="43.2023279" lon="11.3747479"><ele>259.0</ele><time>2026-04-04T11:54:09.591Z</time></trkpt><trkpt lat="43.2021979" lon="11.3747829"><ele>262.5</ele><time>2026-04-04T11:54:10.583Z</time></trkpt><trkpt lat="43.2020804" lon="11.3748158"><ele>266.0</ele><time>2026-04-04T11:54:11.575Z</time></trkpt><trkpt lat="43.2019643" lon="11.3748526"><ele>266.0</ele><time>2026-04-04T11:54:12.583Z</time></trkpt><trkpt lat="43.2018444" lon="11.3749051"><ele>266.0</ele><time>2026-04-04T11:54:13.581Z</time></trkpt><trkpt lat="43.2017199" lon="11.3749774"><ele>266.0</ele><time>2026-04-04T11:54:14.576Z</time></trkpt><trkpt lat="43.2016004" lon="11.3750581"><ele>266.0</ele><time>2026-04-04T11:54:15.589Z</time></trkpt><trkpt lat="43.2014896" lon="11.3751363"><ele>267.0</ele><time>2026-04-04T11:54:16.587Z</time></trkpt><trkpt lat="43.2013807" lon="11.3752092"><ele>268.0</ele><time>2026-04-04T11:54:17.587Z</time></trkpt><trkpt lat="43.201289" lon="11.3752711"><ele>269.0</ele><time>2026-04-04T11:54:18.587Z</time></trkpt><trkpt lat="43.2012103" lon="11.3753271"><ele>270.0</ele><time>2026-04-04T11:54:19.577Z</time></trkpt><trkpt lat="43.2011463" lon="11.375371"><ele>271.0</ele><time>2026-04-04T11:54:20.586Z</time></trkpt><trkpt lat="43.2010281" lon="11.37541"><ele>271.0</ele><time>2026-04-04T11:54:22.584Z</time></trkpt><trkpt lat="43.2009458" lon="11.3753841"><ele>271.0</ele><time>2026-04-04T11:54:24.584Z</time></trkpt><trkpt lat="43.2008472" lon="11.375332"><ele>271.0</ele><time>2026-04-04T11:54:26.594Z</time></trkpt><trkpt lat="43.2007788" lon="11.3753006"><ele>271.0</ele><time>2026-04-04T11:54:27.578Z</time></trkpt><trkpt lat="43.2007133" lon="11.3752631"><ele>271.0</ele><time>2026-04-04T11:54:28.582Z</time></trkpt><trkpt lat="43.2006496" lon="11.3752216"><ele>271.0</ele><time>2026-04-04T11:54:29.572Z</time></trkpt><trkpt lat="43.2005845" lon="11.3751832"><ele>268.85714285714283</ele><time>2026-04-04T11:54:30.579Z</time></trkpt><trkpt lat="43.2005215" lon="11.3751422"><ele>266.7142857142857</ele><time>2026-04-04T11:54:31.58Z</time></trkpt><trkpt lat="43.2004557" lon="11.3751054"><ele>264.57142857142856</ele><time>2026-04-04T11:54:32.577Z</time></trkpt><trkpt lat="43.2003912" lon="11.375067"><ele>262.42857142857144</ele><time>2026-04-04T11:54:33.581Z</time></trkpt><trkpt lat="43.2003273" lon="11.3750272"><ele>260.2857142857143</ele><time>2026-04-04T11:54:34.573Z</time></trkpt><trkpt lat="43.2002651" lon="11.3749968"><ele>258.1428571428571</ele><time>2026-04-04T11:54:35.584Z</time></trkpt><trkpt lat="43.2002026" lon="11.3749806"><ele>256.0</ele><time>2026-04-04T11:54:36.584Z</time></trkpt><trkpt lat="43.2000929" lon="11.3750046"><ele>255.99999999999997</ele><time>2026-04-04T11:54:38.586Z</time></trkpt><trkpt lat="43.2000122" lon="11.3750899"><ele>256.0</ele><time>2026-04-04T11:54:40.59Z</time></trkpt><trkpt lat="43.1999623" lon="11.3751881"><ele>256.0</ele><time>2026-04-04T11:54:42.577Z</time></trkpt><trkpt lat="43.1999134" lon="11.3752789"><ele>256.0</ele><time>2026-04-04T11:54:44.57Z</time></trkpt><trkpt lat="43.1998732" lon="11.3753587"><ele>255.99999999999997</ele><time>2026-04-04T11:54:46.583Z</time></trkpt><trkpt lat="43.1998301" lon="11.3754379"><ele>256.0</ele><time>2026-04-04T11:54:48.586Z</time></trkpt><trkpt lat="43.1997564" lon="11.3755559"><ele>253.60000000000002</ele><time>2026-04-04T11:54:50.579Z</time></trkpt><trkpt lat="43.1997005" lon="11.3756357"><ele>251.20000000000002</ele><time>2026-04-04T11:54:51.578Z</time></trkpt><trkpt lat="43.1996213" lon="11.3757403"><ele>248.79999999999998</ele><time>2026-04-04T11:54:52.572Z</time></trkpt><trkpt lat="43.1995404" lon="11.3758362"><ele>246.39999999999998</ele><time>2026-04-04T11:54:53.582Z</time></trkpt><trkpt lat="43.1994638" lon="11.3759285"><ele>244.0</ele><time>2026-04-04T11:54:54.58Z</time></trkpt><trkpt lat="43.1993848" lon="11.3760213"><ele>244.0</ele><time>2026-04-04T11:54:55.575Z</time></trkpt><trkpt lat="43.1992923" lon="11.3760985"><ele>244.0</ele><time>2026-04-04T11:54:56.582Z</time></trkpt><trkpt lat="43.1991812" lon="11.3761568"><ele>244.0</ele><time>2026-04-04T11:54:57.577Z</time></trkpt><trkpt lat="43.1990506" lon="11.3761991"><ele>244.0</ele><time>2026-04-04T11:54:58.579Z</time></trkpt><trkpt lat="43.1989225" lon="11.3762309"><ele>243.0</ele><time>2026-04-04T11:54:59.59Z</time></trkpt><trkpt lat="43.1987992" lon="11.3762622"><ele>242.0</ele><time>2026-04-04T11:55:00.584Z</time></trkpt><trkpt lat="43.1986787" lon="11.3762926"><ele>241.0</ele><time>2026-04-04T11:55:01.581Z</time></trkpt><trkpt lat="43.1985634" lon="11.3763313"><ele>240.0</ele><time>2026-04-04T11:55:02.582Z</time></trkpt><trkpt lat="43.1984493" lon="11.3763878"><ele>240.0</ele><time>2026-04-04T11:55:03.586Z</time></trkpt><trkpt lat="43.1983358" lon="11.3764701"><ele>240.0</ele><time>2026-04-04T11:55:04.579Z</time></trkpt><trkpt lat="43.1982181" lon="11.3765829"><ele>240.0</ele><time>2026-04-04T11:55:05.581Z</time></trkpt><trkpt lat="43.1980899" lon="11.3767209"><ele>240.0</ele><time>2026-04-04T11:55:06.588Z</time></trkpt><trkpt lat="43.1979472" lon="11.3768662"><ele>240.0</ele><time>2026-04-04T11:55:07.577Z</time></trkpt><trkpt lat="43.1977905" lon="11.3770051"><ele>240.0</ele><time>2026-04-04T11:55:08.576Z</time></trkpt><trkpt lat="43.1976158" lon="11.3771398"><ele>240.0</ele><time>2026-04-04T11:55:09.585Z</time></trkpt><trkpt lat="43.1974513" lon="11.3772563"><ele>237.33333333333331</ele><time>2026-04-04T11:55:10.581Z</time></trkpt><trkpt lat="43.1972936" lon="11.3773619"><ele>234.66666666666666</ele><time>2026-04-04T11:55:11.579Z</time></trkpt><trkpt lat="43.1971444" lon="11.3774619"><ele>232.0</ele><time>2026-04-04T11:55:12.581Z</time></trkpt><trkpt lat="43.1970048" lon="11.3775574"><ele>232.0</ele><time>2026-04-04T11:55:13.574Z</time></trkpt><trkpt lat="43.1968732" lon="11.3776474"><ele>232.0</ele><time>2026-04-04T11:55:14.581Z</time></trkpt><trkpt lat="43.1967469" lon="11.3777327"><ele>232.0</ele><time>2026-04-04T11:55:15.583Z</time></trkpt><trkpt lat="43.1966196" lon="11.377826"><ele>232.0</ele><time>2026-04-04T11:55:16.587Z</time></trkpt><trkpt lat="43.1964793" lon="11.3779282"><ele>232.66666666666666</ele><time>2026-04-04T11:55:17.585Z</time></trkpt><trkpt lat="43.1963242" lon="11.3780311"><ele>233.33333333333331</ele><time>2026-04-04T11:55:18.578Z</time></trkpt><trkpt lat="43.1961535" lon="11.3781399"><ele>234.0</ele><time>2026-04-04T11:55:19.59Z</time></trkpt><trkpt lat="43.1959774" lon="11.3782453"><ele>234.0</ele><time>2026-04-04T11:55:20.578Z</time></trkpt><trkpt lat="43.1958126" lon="11.378333"><ele>234.0</ele><time>2026-04-04T11:55:21.572Z</time></trkpt><trkpt lat="43.1956562" lon="11.3784081"><ele>234.0</ele><time>2026-04-04T11:55:22.586Z</time></trkpt><trkpt lat="43.1955213" lon="11.3784733"><ele>233.0</ele><time>2026-04-04T11:55:23.579Z</time></trkpt><trkpt lat="43.1954044" lon="11.3785343"><ele>232.0</ele><time>2026-04-04T11:55:24.584Z</time></trkpt><trkpt lat="43.1953006" lon="11.3786067"><ele>231.0</ele><time>2026-04-04T11:55:25.572Z</time></trkpt><trkpt lat="43.1952016" lon="11.3787003"><ele>230.0</ele><time>2026-04-04T11:55:26.579Z</time></trkpt><trkpt lat="43.1951023" lon="11.3788106"><ele>230.75</ele><time>2026-04-04T11:55:27.586Z</time></trkpt><trkpt lat="43.1949997" lon="11.3789375"><ele>231.5</ele><time>2026-04-04T11:55:28.585Z</time></trkpt><trkpt lat="43.1949024" lon="11.379081"><ele>232.25</ele><time>2026-04-04T11:55:29.581Z</time></trkpt><trkpt lat="43.1948252" lon="11.3792208"><ele>233.0</ele><time>2026-04-04T11:55:30.587Z</time></trkpt><trkpt lat="43.1947586" lon="11.3793631"><ele>231.5</ele><time>2026-04-04T11:55:31.579Z</time></trkpt><trkpt lat="43.1947046" lon="11.3795047"><ele>230.0</ele><time>2026-04-04T11:55:32.587Z</time></trkpt><trkpt lat="43.1946542" lon="11.3796646"><ele>228.5</ele><time>2026-04-04T11:55:33.579Z</time></trkpt><trkpt lat="43.1946075" lon="11.3798498"><ele>227.0</ele><time>2026-04-04T11:55:34.577Z</time></trkpt><trkpt lat="43.194572" lon="11.3800535"><ele>227.0</ele><time>2026-04-04T11:55:35.582Z</time></trkpt><trkpt lat="43.1945462" lon="11.3802697"><ele>227.0</ele><time>2026-04-04T11:55:36.582Z</time></trkpt><trkpt lat="43.194528" lon="11.3804642"><ele>227.0</ele><time>2026-04-04T11:55:37.578Z</time></trkpt><trkpt lat="43.1945109" lon="11.3806485"><ele>227.0</ele><time>2026-04-04T11:55:38.572Z</time></trkpt><trkpt lat="43.1944871" lon="11.3808193"><ele>227.25</ele><time>2026-04-04T11:55:39.58Z</time></trkpt><trkpt lat="43.1944528" lon="11.3809928"><ele>227.5</ele><time>2026-04-04T11:55:40.584Z</time></trkpt><trkpt lat="43.1944044" lon="11.3811649"><ele>227.75</ele><time>2026-04-04T11:55:41.578Z</time></trkpt><trkpt lat="43.1943451" lon="11.3813432"><ele>228.0</ele><time>2026-04-04T11:55:42.58Z</time></trkpt><trkpt lat="43.194276" lon="11.3815317"><ele>228.0</ele><time>2026-04-04T11:55:43.578Z</time></trkpt><trkpt lat="43.1942052" lon="11.3817357"><ele>228.0</ele><time>2026-04-04T11:55:44.584Z</time></trkpt><trkpt lat="43.1941281" lon="11.3819582"><ele>228.0</ele><time>2026-04-04T11:55:45.578Z</time></trkpt><trkpt lat="43.1940439" lon="11.3821939"><ele>225.66666666666669</ele><time>2026-04-04T11:55:46.577Z</time></trkpt><trkpt lat="43.1939672" lon="11.3824067"><ele>223.33333333333334</ele><time>2026-04-04T11:55:47.578Z</time></trkpt><trkpt lat="43.1938976" lon="11.3826107"><ele>221.0</ele><time>2026-04-04T11:55:48.587Z</time></trkpt><trkpt lat="43.1938326" lon="11.3827993"><ele>221.0</ele><time>2026-04-04T11:55:49.582Z</time></trkpt><trkpt lat="43.1937689" lon="11.3829726"><ele>221.0</ele><time>2026-04-04T11:55:50.582Z</time></trkpt><trkpt lat="43.193707" lon="11.3831286"><ele>221.0</ele><time>2026-04-04T11:55:51.587Z</time></trkpt><trkpt lat="43.1936361" lon="11.3832584"><ele>221.0</ele><time>2026-04-04T11:55:52.584Z</time></trkpt><trkpt lat="43.1935614" lon="11.3833601"><ele>221.0</ele><time>2026-04-04T11:55:53.589Z</time></trkpt><trkpt lat="43.1934796" lon="11.383435"><ele>221.00000000000003</ele><time>2026-04-04T11:55:54.571Z</time></trkpt><trkpt lat="43.1933841" lon="11.3834956"><ele>221.00000000000003</ele><time>2026-04-04T11:55:55.576Z</time></trkpt><trkpt lat="43.1932785" lon="11.3835428"><ele>221.0</ele><time>2026-04-04T11:55:56.593Z</time></trkpt><trkpt lat="43.1931622" lon="11.3835943"><ele>221.0</ele><time>2026-04-04T11:55:57.585Z</time></trkpt><trkpt lat="43.193036" lon="11.3836554"><ele>221.0</ele><time>2026-04-04T11:55:58.587Z</time></trkpt><trkpt lat="43.1929033" lon="11.3837239"><ele>221.0</ele><time>2026-04-04T11:55:59.575Z</time></trkpt><trkpt lat="43.1927633" lon="11.3837964"><ele>221.0</ele><time>2026-04-04T11:56:00.586Z</time></trkpt><trkpt lat="43.192622" lon="11.3838635"><ele>221.0</ele><time>2026-04-04T11:56:01.576Z</time></trkpt><trkpt lat="43.1924849" lon="11.3839144"><ele>221.75</ele><time>2026-04-04T11:56:02.571Z</time></trkpt><trkpt lat="43.1923491" lon="11.3839455"><ele>222.5</ele><time>2026-04-04T11:56:03.593Z</time></trkpt><trkpt lat="43.1922115" lon="11.3839512"><ele>223.25</ele><time>2026-04-04T11:56:04.575Z</time></trkpt><trkpt lat="43.1920798" lon="11.3839435"><ele>224.0</ele><time>2026-04-04T11:56:05.578Z</time></trkpt><trkpt lat="43.1919585" lon="11.3839453"><ele>224.25</ele><time>2026-04-04T11:56:06.588Z</time></trkpt><trkpt lat="43.1918479" lon="11.3839772"><ele>224.5</ele><time>2026-04-04T11:56:07.575Z</time></trkpt><trkpt lat="43.1917417" lon="11.3840473"><ele>224.75</ele><time>2026-04-04T11:56:08.586Z</time></trkpt><trkpt lat="43.1916414" lon="11.3841406"><ele>225.0</ele><time>2026-04-04T11:56:09.581Z</time></trkpt><trkpt lat="43.1915449" lon="11.3842592"><ele>225.75</ele><time>2026-04-04T11:56:10.571Z</time></trkpt><trkpt lat="43.1914489" lon="11.3843917"><ele>226.5</ele><time>2026-04-04T11:56:11.585Z</time></trkpt><trkpt lat="43.191356" lon="11.3845421"><ele>227.25</ele><time>2026-04-04T11:56:12.581Z</time></trkpt><trkpt lat="43.1912604" lon="11.3846804"><ele>228.0</ele><time>2026-04-04T11:56:13.585Z</time></trkpt><trkpt lat="43.1911635" lon="11.3848149"><ele>228.0</ele><time>2026-04-04T11:56:14.584Z</time></trkpt><trkpt lat="43.1910618" lon="11.3849398"><ele>228.0</ele><time>2026-04-04T11:56:15.575Z</time></trkpt><trkpt lat="43.1909557" lon="11.3850527"><ele>228.0</ele><time>2026-04-04T11:56:16.578Z</time></trkpt><trkpt lat="43.1908444" lon="11.3851525"><ele>228.0</ele><time>2026-04-04T11:56:17.584Z</time></trkpt><trkpt lat="43.1907247" lon="11.3852436"><ele>229.0</ele><time>2026-04-04T11:56:18.574Z</time></trkpt><trkpt lat="43.1906079" lon="11.3853231"><ele>230.0</ele><time>2026-04-04T11:56:19.577Z</time></trkpt><trkpt lat="43.1904961" lon="11.3853953"><ele>231.0</ele><time>2026-04-04T11:56:20.586Z</time></trkpt><trkpt lat="43.1903823" lon="11.3854665"><ele>232.0</ele><time>2026-04-04T11:56:21.575Z</time></trkpt><trkpt lat="43.1902597" lon="11.3855247"><ele>229.5</ele><time>2026-04-04T11:56:22.585Z</time></trkpt><trkpt lat="43.1901313" lon="11.3855747"><ele>227.0</ele><time>2026-04-04T11:56:23.577Z</time></trkpt><trkpt lat="43.1899912" lon="11.3856142"><ele>224.5</ele><time>2026-04-04T11:56:24.583Z</time></trkpt><trkpt lat="43.1898394" lon="11.3856549"><ele>222.0</ele><time>2026-04-04T11:56:25.591Z</time></trkpt><trkpt lat="43.1896744" lon="11.3856986"><ele>221.0</ele><time>2026-04-04T11:56:26.592Z</time></trkpt><trkpt lat="43.1894973" lon="11.3857478"><ele>220.0</ele><time>2026-04-04T11:56:27.586Z</time></trkpt><trkpt lat="43.1893255" lon="11.3857972"><ele>219.0</ele><time>2026-04-04T11:56:28.575Z</time></trkpt><trkpt lat="43.1891647" lon="11.3858412"><ele>219.0</ele><time>2026-04-04T11:56:29.58Z</time></trkpt><trkpt lat="43.1890134" lon="11.3858852"><ele>219.0</ele><time>2026-04-04T11:56:30.579Z</time></trkpt><trkpt lat="43.1888796" lon="11.3859261"><ele>219.0</ele><time>2026-04-04T11:56:31.587Z</time></trkpt><trkpt lat="43.1887582" lon="11.3859479"><ele>219.0</ele><time>2026-04-04T11:56:32.584Z</time></trkpt><trkpt lat="43.1886405" lon="11.3859407"><ele>220.75</ele><time>2026-04-04T11:56:33.583Z</time></trkpt><trkpt lat="43.188522" lon="11.3859029"><ele>222.5</ele><time>2026-04-04T11:56:34.572Z</time></trkpt><trkpt lat="43.1884128" lon="11.3858365"><ele>224.25</ele><time>2026-04-04T11:56:35.576Z</time></trkpt><trkpt lat="43.1883042" lon="11.3857464"><ele>226.0</ele><time>2026-04-04T11:56:36.586Z</time></trkpt><trkpt lat="43.1881911" lon="11.3856488"><ele>229.5</ele><time>2026-04-04T11:56:37.585Z</time></trkpt><trkpt lat="43.188075" lon="11.3855632"><ele>233.0</ele><time>2026-04-04T11:56:38.579Z</time></trkpt><trkpt lat="43.1879524" lon="11.3854903"><ele>236.5</ele><time>2026-04-04T11:56:39.581Z</time></trkpt><trkpt lat="43.1878205" lon="11.3854188"><ele>240.0</ele><time>2026-04-04T11:56:40.574Z</time></trkpt><trkpt lat="43.1876813" lon="11.3853524"><ele>240.0</ele><time>2026-04-04T11:56:41.58Z</time></trkpt><trkpt lat="43.1875643" lon="11.3853018"><ele>240.0</ele><time>2026-04-04T11:56:42.568Z</time></trkpt><trkpt lat="43.1874497" lon="11.3852709"><ele>240.0</ele><time>2026-04-04T11:56:43.576Z</time></trkpt><trkpt lat="43.1873307" lon="11.385259"><ele>240.0</ele><time>2026-04-04T11:56:44.571Z</time></trkpt><trkpt lat="43.1872052" lon="11.3852648"><ele>242.0</ele><time>2026-04-04T11:56:45.588Z</time></trkpt><trkpt lat="43.1870715" lon="11.3852876"><ele>244.0</ele><time>2026-04-04T11:56:46.572Z</time></trkpt><trkpt lat="43.1869286" lon="11.3853172"><ele>246.0</ele><time>2026-04-04T11:56:47.581Z</time></trkpt><trkpt lat="43.1867748" lon="11.3853447"><ele>248.0</ele><time>2026-04-04T11:56:48.572Z</time></trkpt><trkpt lat="43.1866068" lon="11.3853702"><ele>250.66666666666669</ele><time>2026-04-04T11:56:49.577Z</time></trkpt><trkpt lat="43.1864259" lon="11.385394"><ele>253.33333333333331</ele><time>2026-04-04T11:56:50.579Z</time></trkpt><trkpt lat="43.1862376" lon="11.3854093"><ele>256.0</ele><time>2026-04-04T11:56:51.576Z</time></trkpt><trkpt lat="43.1860682" lon="11.3854138"><ele>256.0</ele><time>2026-04-04T11:56:52.579Z</time></trkpt><trkpt lat="43.1859175" lon="11.3854192"><ele>256.0</ele><time>2026-04-04T11:56:53.59Z</time></trkpt><trkpt lat="43.1857861" lon="11.3854234"><ele>256.0</ele><time>2026-04-04T11:56:54.583Z</time></trkpt><trkpt lat="43.1856695" lon="11.3854238"><ele>256.0</ele><time>2026-04-04T11:56:55.579Z</time></trkpt><trkpt lat="43.1855579" lon="11.3854058"><ele>258.75</ele><time>2026-04-04T11:56:56.586Z</time></trkpt><trkpt lat="43.1854552" lon="11.3853615"><ele>261.5</ele><time>2026-04-04T11:56:57.584Z</time></trkpt><trkpt lat="43.1853585" lon="11.3852908"><ele>264.25</ele><time>2026-04-04T11:56:58.59Z</time></trkpt><trkpt lat="43.1852662" lon="11.385199"><ele>267.0</ele><time>2026-04-04T11:56:59.587Z</time></trkpt><trkpt lat="43.1851797" lon="11.3850853"><ele>267.0</ele><time>2026-04-04T11:57:00.578Z</time></trkpt><trkpt lat="43.1850928" lon="11.3849588"><ele>267.0</ele><time>2026-04-04T11:57:01.585Z</time></trkpt><trkpt lat="43.1850073" lon="11.3848263"><ele>267.0</ele><time>2026-04-04T11:57:02.578Z</time></trkpt><trkpt lat="43.1849209" lon="11.3846947"><ele>267.0</ele><time>2026-04-04T11:57:03.584Z</time></trkpt><trkpt lat="43.1848432" lon="11.3845861"><ele>269.0</ele><time>2026-04-04T11:57:04.583Z</time></trkpt><trkpt lat="43.1847622" lon="11.3844838"><ele>271.0</ele><time>2026-04-04T11:57:05.579Z</time></trkpt><trkpt lat="43.1846745" lon="11.3843847"><ele>273.0</ele><time>2026-04-04T11:57:06.573Z</time></trkpt><trkpt lat="43.1845829" lon="11.3842854"><ele>275.0</ele><time>2026-04-04T11:57:07.584Z</time></trkpt><trkpt lat="43.1844859" lon="11.3841855"><ele>275.0</ele><time>2026-04-04T11:57:08.597Z</time></trkpt><trkpt lat="43.1843828" lon="11.384091"><ele>275.0</ele><time>2026-04-04T11:57:09.586Z</time></trkpt><trkpt lat="43.1842783" lon="11.3840055"><ele>275.0</ele><time>2026-04-04T11:57:10.582Z</time></trkpt><trkpt lat="43.1841725" lon="11.3839359"><ele>275.0</ele><time>2026-04-04T11:57:11.581Z</time></trkpt><trkpt lat="43.184056" lon="11.3838775"><ele>274.75</ele><time>2026-04-04T11:57:12.584Z</time></trkpt><trkpt lat="43.1839242" lon="11.3838285"><ele>274.5</ele><time>2026-04-04T11:57:13.579Z</time></trkpt><trkpt lat="43.1837898" lon="11.3837773"><ele>274.25</ele><time>2026-04-04T11:57:14.585Z</time></trkpt><trkpt lat="43.1836685" lon="11.3837331"><ele>274.0</ele><time>2026-04-04T11:57:15.582Z</time></trkpt><trkpt lat="43.1835528" lon="11.3836939"><ele>274.0</ele><time>2026-04-04T11:57:16.576Z</time></trkpt><trkpt lat="43.1834507" lon="11.383656"><ele>274.0</ele><time>2026-04-04T11:57:17.573Z</time></trkpt><trkpt lat="43.1833555" lon="11.3836182"><ele>274.0</ele><time>2026-04-04T11:57:18.587Z</time></trkpt><trkpt lat="43.1832598" lon="11.3835783"><ele>274.0</ele><time>2026-04-04T11:57:19.587Z</time></trkpt><trkpt lat="43.1831673" lon="11.3835379"><ele>274.0</ele><time>2026-04-04T11:57:20.579Z</time></trkpt><trkpt lat="43.1830762" lon="11.3834958"><ele>273.5</ele><time>2026-04-04T11:57:21.584Z</time></trkpt><trkpt lat="43.1829885" lon="11.383454"><ele>273.0</ele><time>2026-04-04T11:57:22.577Z</time></trkpt><trkpt lat="43.1829061" lon="11.3834122"><ele>272.5</ele><time>2026-04-04T11:57:23.583Z</time></trkpt><trkpt lat="43.1828239" lon="11.3833731"><ele>272.0</ele><time>2026-04-04T11:57:24.581Z</time></trkpt><trkpt lat="43.1827422" lon="11.383334"><ele>271.5</ele><time>2026-04-04T11:57:25.576Z</time></trkpt><trkpt lat="43.1826613" lon="11.3832976"><ele>271.0</ele><time>2026-04-04T11:57:26.578Z</time></trkpt><trkpt lat="43.1825839" lon="11.3832586"><ele>271.0</ele><time>2026-04-04T11:57:27.588Z</time></trkpt><trkpt lat="43.1825059" lon="11.3832223"><ele>271.0</ele><time>2026-04-04T11:57:28.587Z</time></trkpt><trkpt lat="43.1824282" lon="11.3831929"><ele>271.0</ele><time>2026-04-04T11:57:29.583Z</time></trkpt><trkpt lat="43.1823514" lon="11.3831693"><ele>271.0</ele><time>2026-04-04T11:57:30.575Z</time></trkpt><trkpt lat="43.1822759" lon="11.3831474"><ele>271.0</ele><time>2026-04-04T11:57:31.581Z</time></trkpt><trkpt lat="43.1822041" lon="11.383126"><ele>271.0</ele><time>2026-04-04T11:57:32.581Z</time></trkpt><trkpt lat="43.1821351" lon="11.3831072"><ele>270.6</ele><time>2026-04-04T11:57:33.579Z</time></trkpt><trkpt lat="43.1820701" lon="11.3830928"><ele>270.20000000000005</ele><time>2026-04-04T11:57:34.59Z</time></trkpt><trkpt lat="43.1819577" lon="11.3830633"><ele>269.79999999999995</ele><time>2026-04-04T11:57:36.591Z</time></trkpt><trkpt lat="43.1818551" lon="11.3830323"><ele>269.4</ele><time>2026-04-04T11:57:38.585Z</time></trkpt><trkpt lat="43.181751" lon="11.3830161"><ele>269.0</ele><time>2026-04-04T11:57:40.581Z</time></trkpt><trkpt lat="43.1816325" lon="11.3829914"><ele>268.5</ele><time>2026-04-04T11:57:42.591Z</time></trkpt><trkpt lat="43.1815675" lon="11.3829758"><ele>268.0</ele><time>2026-04-04T11:57:43.587Z</time></trkpt><trkpt lat="43.1815007" lon="11.3829663"><ele>267.5</ele><time>2026-04-04T11:57:44.586Z</time></trkpt><trkpt lat="43.1814178" lon="11.3829384"><ele>267.0</ele><time>2026-04-04T11:57:45.589Z</time></trkpt><trkpt lat="43.1813271" lon="11.3829061"><ele>266.5</ele><time>2026-04-04T11:57:46.574Z</time></trkpt><trkpt lat="43.1812305" lon="11.3828666"><ele>266.0</ele><time>2026-04-04T11:57:47.584Z</time></trkpt><trkpt lat="43.1811391" lon="11.3828209"><ele>266.0</ele><time>2026-04-04T11:57:48.58Z</time></trkpt><trkpt lat="43.181061" lon="11.3827747"><ele>266.0</ele><time>2026-04-04T11:57:49.581Z</time></trkpt><trkpt lat="43.1809946" lon="11.3827356"><ele>266.0</ele><time>2026-04-04T11:57:50.578Z</time></trkpt><trkpt lat="43.1809017" lon="11.3826885"><ele>266.0</ele><time>2026-04-04T11:57:52.577Z</time></trkpt><trkpt lat="43.1807957" lon="11.3826986"><ele>266.0</ele><time>2026-04-04T11:57:54.58Z</time></trkpt><trkpt lat="43.180728" lon="11.3827565"><ele>266.0</ele><time>2026-04-04T11:57:55.586Z</time></trkpt><trkpt lat="43.1806427" lon="11.3828522"><ele>266.0</ele><time>2026-04-04T11:57:56.567Z</time></trkpt><trkpt lat="43.1805284" lon="11.382956"><ele>266.0</ele><time>2026-04-04T11:57:57.576Z</time></trkpt><trkpt lat="43.1804095" lon="11.3830727"><ele>266.0</ele><time>2026-04-04T11:57:58.583Z</time></trkpt><trkpt lat="43.1802799" lon="11.3831987"><ele>266.0</ele><time>2026-04-04T11:57:59.579Z</time></trkpt><trkpt lat="43.1801352" lon="11.3833201"><ele>266.0</ele><time>2026-04-04T11:58:00.581Z</time></trkpt><trkpt lat="43.1799759" lon="11.3834249"><ele>266.0</ele><time>2026-04-04T11:58:01.584Z</time></trkpt><trkpt lat="43.1798251" lon="11.38351"><ele>266.0</ele><time>2026-04-04T11:58:02.581Z</time></trkpt><trkpt lat="43.1796833" lon="11.3835886"><ele>265.25</ele><time>2026-04-04T11:58:03.586Z</time></trkpt><trkpt lat="43.1795504" lon="11.3836584"><ele>264.5</ele><time>2026-04-04T11:58:04.581Z</time></trkpt><trkpt lat="43.1794262" lon="11.3837195"><ele>263.75</ele><time>2026-04-04T11:58:05.573Z</time></trkpt><trkpt lat="43.1793111" lon="11.3837784"><ele>263.0</ele><time>2026-04-04T11:58:06.575Z</time></trkpt><trkpt lat="43.1792062" lon="11.3838356"><ele>264.5</ele><time>2026-04-04T11:58:07.578Z</time></trkpt><trkpt lat="43.1790973" lon="11.3838947"><ele>266.0</ele><time>2026-04-04T11:58:08.577Z</time></trkpt><trkpt lat="43.1789875" lon="11.3839602"><ele>267.5</ele><time>2026-04-04T11:58:09.589Z</time></trkpt><trkpt lat="43.1788797" lon="11.3840388"><ele>269.0</ele><time>2026-04-04T11:58:10.578Z</time></trkpt><trkpt lat="43.1787745" lon="11.3841313"><ele>269.0</ele><time>2026-04-04T11:58:11.583Z</time></trkpt><trkpt lat="43.1786731" lon="11.3842398"><ele>269.0</ele><time>2026-04-04T11:58:12.578Z</time></trkpt><trkpt lat="43.178575" lon="11.3843606"><ele>269.0</ele><time>2026-04-04T11:58:13.585Z</time></trkpt><trkpt lat="43.1784763" lon="11.3844858"><ele>269.0</ele><time>2026-04-04T11:58:14.575Z</time></trkpt><trkpt lat="43.1783739" lon="11.3846122"><ele>269.0</ele><time>2026-04-04T11:58:15.584Z</time></trkpt><trkpt lat="43.178267" lon="11.3847357"><ele>269.0</ele><time>2026-04-04T11:58:16.577Z</time></trkpt><trkpt lat="43.1781508" lon="11.384851"><ele>269.0</ele><time>2026-04-04T11:58:17.585Z</time></trkpt><trkpt lat="43.1780324" lon="11.3849495"><ele>269.0</ele><time>2026-04-04T11:58:18.587Z</time></trkpt><trkpt lat="43.1779221" lon="11.3850381"><ele>269.0</ele><time>2026-04-04T11:58:19.59Z</time></trkpt><trkpt lat="43.1778199" lon="11.3851226"><ele>269.0</ele><time>2026-04-04T11:58:20.584Z</time></trkpt><trkpt lat="43.1777226" lon="11.3852017"><ele>269.0</ele><time>2026-04-04T11:58:21.584Z</time></trkpt><trkpt lat="43.1776246" lon="11.3852829"><ele>269.0</ele><time>2026-04-04T11:58:22.579Z</time></trkpt><trkpt lat="43.1775264" lon="11.3853752"><ele>269.0</ele><time>2026-04-04T11:58:23.58Z</time></trkpt><trkpt lat="43.1774322" lon="11.3854896"><ele>269.0</ele><time>2026-04-04T11:58:24.579Z</time></trkpt><trkpt lat="43.177345" lon="11.3856316"><ele>269.0</ele><time>2026-04-04T11:58:25.569Z</time></trkpt><trkpt lat="43.1772597" lon="11.3857987"><ele>269.0</ele><time>2026-04-04T11:58:26.59Z</time></trkpt><trkpt lat="43.1771738" lon="11.3859843"><ele>270.0</ele><time>2026-04-04T11:58:27.567Z</time></trkpt><trkpt lat="43.1770863" lon="11.3861854"><ele>271.0</ele><time>2026-04-04T11:58:28.57Z</time></trkpt><trkpt lat="43.1769976" lon="11.3863957"><ele>272.0</ele><time>2026-04-04T11:58:29.581Z</time></trkpt><trkpt lat="43.1769064" lon="11.3866138"><ele>272.0</ele><time>2026-04-04T11:58:30.575Z</time></trkpt><trkpt lat="43.1768181" lon="11.3868187"><ele>272.0</ele><time>2026-04-04T11:58:31.571Z</time></trkpt><trkpt lat="43.1767356" lon="11.3870175"><ele>272.0</ele><time>2026-04-04T11:58:32.582Z</time></trkpt><trkpt lat="43.1766563" lon="11.3872224"><ele>271.33333333333337</ele><time>2026-04-04T11:58:33.574Z</time></trkpt><trkpt lat="43.1765789" lon="11.3874153"><ele>270.6666666666667</ele><time>2026-04-04T11:58:34.573Z</time></trkpt><trkpt lat="43.1764985" lon="11.3875905"><ele>270.0</ele><time>2026-04-04T11:58:35.585Z</time></trkpt><trkpt lat="43.1764052" lon="11.3877645"><ele>271.3333333333333</ele><time>2026-04-04T11:58:36.582Z</time></trkpt><trkpt lat="43.1762913" lon="11.3879299"><ele>272.66666666666663</ele><time>2026-04-04T11:58:37.579Z</time></trkpt><trkpt lat="43.17616" lon="11.3880866"><ele>274.0</ele><time>2026-04-04T11:58:38.581Z</time></trkpt><trkpt lat="43.1760107" lon="11.3882256"><ele>274.0</ele><time>2026-04-04T11:58:39.584Z</time></trkpt><trkpt lat="43.1758455" lon="11.3883385"><ele>274.0</ele><time>2026-04-04T11:58:40.576Z</time></trkpt><trkpt lat="43.1756649" lon="11.3884219"><ele>274.0</ele><time>2026-04-04T11:58:41.585Z</time></trkpt><trkpt lat="43.1754879" lon="11.3884962"><ele>273.66666666666663</ele><time>2026-04-04T11:58:42.587Z</time></trkpt><trkpt lat="43.1753145" lon="11.3885732"><ele>273.3333333333333</ele><time>2026-04-04T11:58:43.59Z</time></trkpt><trkpt lat="43.1751284" lon="11.388655"><ele>273.0</ele><time>2026-04-04T11:58:44.582Z</time></trkpt><trkpt lat="43.1749441" lon="11.3887389"><ele>272.6666666666667</ele><time>2026-04-04T11:58:45.586Z</time></trkpt><trkpt lat="43.1747759" lon="11.3888164"><ele>272.33333333333337</ele><time>2026-04-04T11:58:46.583Z</time></trkpt><trkpt lat="43.1746168" lon="11.3888847"><ele>272.0</ele><time>2026-04-04T11:58:47.576Z</time></trkpt><trkpt lat="43.1744686" lon="11.3889482"><ele>273.75</ele><time>2026-04-04T11:58:48.587Z</time></trkpt><trkpt lat="43.1743324" lon="11.3890085"><ele>275.5</ele><time>2026-04-04T11:58:49.585Z</time></trkpt><trkpt lat="43.1742082" lon="11.3890678"><ele>277.25</ele><time>2026-04-04T11:58:50.593Z</time></trkpt><trkpt lat="43.1740906" lon="11.3891383"><ele>279.0</ele><time>2026-04-04T11:58:51.578Z</time></trkpt><trkpt lat="43.1739781" lon="11.3892372"><ele>280.4</ele><time>2026-04-04T11:58:52.577Z</time></trkpt><trkpt lat="43.1738807" lon="11.3893409"><ele>281.79999999999995</ele><time>2026-04-04T11:58:53.57Z</time></trkpt><trkpt lat="43.1737969" lon="11.3894438"><ele>283.20000000000005</ele><time>2026-04-04T11:58:54.563Z</time></trkpt><trkpt lat="43.1737285" lon="11.3895434"><ele>284.6</ele><time>2026-04-04T11:58:55.589Z</time></trkpt><trkpt lat="43.1736696" lon="11.3896381"><ele>286.0</ele><time>2026-04-04T11:58:56.589Z</time></trkpt><trkpt lat="43.1736067" lon="11.3897328"><ele>286.0</ele><time>2026-04-04T11:58:57.577Z</time></trkpt><trkpt lat="43.17354" lon="11.3898383"><ele>286.0</ele><time>2026-04-04T11:58:58.583Z</time></trkpt><trkpt lat="43.1734691" lon="11.3899591"><ele>286.0</ele><time>2026-04-04T11:58:59.57Z</time></trkpt><trkpt lat="43.1733894" lon="11.3900916"><ele>286.0</ele><time>2026-04-04T11:59:00.58Z</time></trkpt><trkpt lat="43.1732976" lon="11.3902391"><ele>286.0</ele><time>2026-04-04T11:59:01.565Z</time></trkpt><trkpt lat="43.1731956" lon="11.3903974"><ele>286.0</ele><time>2026-04-04T11:59:02.574Z</time></trkpt><trkpt lat="43.1730765" lon="11.390545"><ele>286.0</ele><time>2026-04-04T11:59:03.57Z</time></trkpt><trkpt lat="43.1729529" lon="11.3906514"><ele>289.0</ele><time>2026-04-04T11:59:04.583Z</time></trkpt><trkpt lat="43.1728143" lon="11.3907357"><ele>292.0</ele><time>2026-04-04T11:59:05.575Z</time></trkpt><trkpt lat="43.1726739" lon="11.3908111"><ele>295.0</ele><time>2026-04-04T11:59:06.58Z</time></trkpt><trkpt lat="43.1725472" lon="11.3908778"><ele>298.0</ele><time>2026-04-04T11:59:07.578Z</time></trkpt><trkpt lat="43.1724297" lon="11.390941"><ele>299.75</ele><time>2026-04-04T11:59:08.57Z</time></trkpt><trkpt lat="43.1723097" lon="11.3909969"><ele>301.5</ele><time>2026-04-04T11:59:09.582Z</time></trkpt><trkpt lat="43.1721872" lon="11.3910557"><ele>303.25</ele><time>2026-04-04T11:59:10.572Z</time></trkpt><trkpt lat="43.1720657" lon="11.3911151"><ele>305.0</ele><time>2026-04-04T11:59:11.573Z</time></trkpt><trkpt lat="43.1719546" lon="11.3911676"><ele>305.0</ele><time>2026-04-04T11:59:12.578Z</time></trkpt><trkpt lat="43.171837" lon="11.3912175"><ele>305.0</ele><time>2026-04-04T11:59:13.58Z</time></trkpt><trkpt lat="43.1717269" lon="11.391253"><ele>305.0</ele><time>2026-04-04T11:59:14.578Z</time></trkpt><trkpt lat="43.171619" lon="11.3912819"><ele>305.0</ele><time>2026-04-04T11:59:15.581Z</time></trkpt><trkpt lat="43.1715034" lon="11.3912963"><ele>304.25</ele><time>2026-04-04T11:59:16.575Z</time></trkpt><trkpt lat="43.1713746" lon="11.3912966"><ele>303.5</ele><time>2026-04-04T11:59:17.585Z</time></trkpt><trkpt lat="43.1712597" lon="11.3912895"><ele>302.75</ele><time>2026-04-04T11:59:18.58Z</time></trkpt><trkpt lat="43.1711454" lon="11.3912534"><ele>302.0</ele><time>2026-04-04T11:59:19.582Z</time></trkpt><trkpt lat="43.1710238" lon="11.3911843"><ele>302.0</ele><time>2026-04-04T11:59:20.585Z</time></trkpt><trkpt lat="43.1708967" lon="11.3911083"><ele>302.0</ele><time>2026-04-04T11:59:21.577Z</time></trkpt><trkpt lat="43.1707618" lon="11.3910382"><ele>302.0</ele><time>2026-04-04T11:59:22.575Z</time></trkpt><trkpt lat="43.1706506" lon="11.3909757"><ele>302.0</ele><time>2026-04-04T11:59:23.577Z</time></trkpt><trkpt lat="43.1705636" lon="11.3909178"><ele>302.0</ele><time>2026-04-04T11:59:24.582Z</time></trkpt><trkpt lat="43.1704841" lon="11.3908655"><ele>302.0</ele><time>2026-04-04T11:59:25.574Z</time></trkpt><trkpt lat="43.1704008" lon="11.3908072"><ele>302.0</ele><time>2026-04-04T11:59:26.582Z</time></trkpt><trkpt lat="43.1703161" lon="11.3907397"><ele>302.0</ele><time>2026-04-04T11:59:27.59Z</time></trkpt><trkpt lat="43.1702261" lon="11.3906669"><ele>302.0</ele><time>2026-04-04T11:59:28.588Z</time></trkpt><trkpt lat="43.1701241" lon="11.3905854"><ele>301.75</ele><time>2026-04-04T11:59:29.578Z</time></trkpt><trkpt lat="43.1700162" lon="11.3904993"><ele>301.5</ele><time>2026-04-04T11:59:30.585Z</time></trkpt><trkpt lat="43.1699004" lon="11.3904078"><ele>301.25</ele><time>2026-04-04T11:59:31.583Z</time></trkpt><trkpt lat="43.1697786" lon="11.3903108"><ele>301.0</ele><time>2026-04-04T11:59:32.583Z</time></trkpt><trkpt lat="43.1696527" lon="11.3902216"><ele>298.25</ele><time>2026-04-04T11:59:33.579Z</time></trkpt><trkpt lat="43.1695249" lon="11.3901492"><ele>295.5</ele><time>2026-04-04T11:59:34.579Z</time></trkpt><trkpt lat="43.1693935" lon="11.3900894"><ele>292.75</ele><time>2026-04-04T11:59:35.58Z</time></trkpt><trkpt lat="43.1692524" lon="11.3900398"><ele>290.0</ele><time>2026-04-04T11:59:36.586Z</time></trkpt><trkpt lat="43.1691169" lon="11.3900056"><ele>287.25</ele><time>2026-04-04T11:59:37.581Z</time></trkpt><trkpt lat="43.1689901" lon="11.3899882"><ele>284.5</ele><time>2026-04-04T11:59:38.58Z</time></trkpt><trkpt lat="43.1688633" lon="11.3899756"><ele>281.75</ele><time>2026-04-04T11:59:39.581Z</time></trkpt><trkpt lat="43.1687244" lon="11.3899577"><ele>279.0</ele><time>2026-04-04T11:59:40.581Z</time></trkpt><trkpt lat="43.1685742" lon="11.389942"><ele>279.0</ele><time>2026-04-04T11:59:41.588Z</time></trkpt><trkpt lat="43.168425" lon="11.3899264"><ele>279.0</ele><time>2026-04-04T11:59:42.581Z</time></trkpt><trkpt lat="43.1682696" lon="11.3899163"><ele>279.0</ele><time>2026-04-04T11:59:43.581Z</time></trkpt><trkpt lat="43.168108" lon="11.3899058"><ele>277.0</ele><time>2026-04-04T11:59:44.588Z</time></trkpt><trkpt lat="43.1679514" lon="11.3898979"><ele>275.0</ele><time>2026-04-04T11:59:45.572Z</time></trkpt><trkpt lat="43.1677991" lon="11.3898902"><ele>273.0</ele><time>2026-04-04T11:59:46.58Z</time></trkpt><trkpt lat="43.167643" lon="11.3898803"><ele>273.0</ele><time>2026-04-04T11:59:47.583Z</time></trkpt><trkpt lat="43.1674892" lon="11.3898646"><ele>273.0</ele><time>2026-04-04T11:59:48.584Z</time></trkpt><trkpt lat="43.1673396" lon="11.3898521"><ele>273.0</ele><time>2026-04-04T11:59:49.585Z</time></trkpt><trkpt lat="43.1671972" lon="11.3898462"><ele>273.0</ele><time>2026-04-04T11:59:50.579Z</time></trkpt><trkpt lat="43.1670604" lon="11.3898503"><ele>273.25</ele><time>2026-04-04T11:59:51.585Z</time></trkpt><trkpt lat="43.1669274" lon="11.3898789"><ele>273.5</ele><time>2026-04-04T11:59:52.577Z</time></trkpt><trkpt lat="43.1667943" lon="11.3899358"><ele>273.75</ele><time>2026-04-04T11:59:53.586Z</time></trkpt><trkpt lat="43.1666698" lon="11.3900231"><ele>274.0</ele><time>2026-04-04T11:59:54.588Z</time></trkpt><trkpt lat="43.1665544" lon="11.3901329"><ele>274.59999999999997</ele><time>2026-04-04T11:59:55.574Z</time></trkpt><trkpt lat="43.1664597" lon="11.3902498"><ele>275.2</ele><time>2026-04-04T11:59:56.579Z</time></trkpt><trkpt lat="43.1663837" lon="11.3903655"><ele>275.79999999999995</ele><time>2026-04-04T11:59:57.58Z</time></trkpt><trkpt lat="43.1663119" lon="11.3904665"><ele>276.4</ele><time>2026-04-04T11:59:58.58Z</time></trkpt><trkpt lat="43.1662344" lon="11.3905472"><ele>277.0</ele><time>2026-04-04T11:59:59.577Z</time></trkpt><trkpt lat="43.1661508" lon="11.3906075"><ele>276.25</ele><time>2026-04-04T12:00:00.585Z</time></trkpt><trkpt lat="43.16606" lon="11.3906743"><ele>275.5</ele><time>2026-04-04T12:00:01.576Z</time></trkpt><trkpt lat="43.1659453" lon="11.3907406"><ele>274.75</ele><time>2026-04-04T12:00:02.584Z</time></trkpt><trkpt lat="43.1658115" lon="11.3907991"><ele>274.0</ele><time>2026-04-04T12:00:03.579Z</time></trkpt><trkpt lat="43.1656672" lon="11.3908515"><ele>274.0</ele><time>2026-04-04T12:00:04.583Z</time></trkpt><trkpt lat="43.1654912" lon="11.390912"><ele>274.0</ele><time>2026-04-04T12:00:05.579Z</time></trkpt><trkpt lat="43.1653069" lon="11.390965"><ele>274.0</ele><time>2026-04-04T12:00:06.576Z</time></trkpt><trkpt lat="43.1651308" lon="11.3910078"><ele>274.0</ele><time>2026-04-04T12:00:07.581Z</time></trkpt><trkpt lat="43.1649606" lon="11.3910494"><ele>274.0</ele><time>2026-04-04T12:00:08.573Z</time></trkpt><trkpt lat="43.164792" lon="11.3910938"><ele>274.0</ele><time>2026-04-04T12:00:09.573Z</time></trkpt><trkpt lat="43.1646221" lon="11.3911327"><ele>274.3333333333333</ele><time>2026-04-04T12:00:10.581Z</time></trkpt><trkpt lat="43.1644468" lon="11.3911722"><ele>274.6666666666667</ele><time>2026-04-04T12:00:11.58Z</time></trkpt><trkpt lat="43.1642692" lon="11.3912171"><ele>275.0</ele><time>2026-04-04T12:00:12.58Z</time></trkpt><trkpt lat="43.1640971" lon="11.3912617"><ele>275.6666666666667</ele><time>2026-04-04T12:00:13.573Z</time></trkpt><trkpt lat="43.1639279" lon="11.3912998"><ele>276.3333333333333</ele><time>2026-04-04T12:00:14.583Z</time></trkpt><trkpt lat="43.1637566" lon="11.3913437"><ele>277.0</ele><time>2026-04-04T12:00:15.578Z</time></trkpt><trkpt lat="43.1635818" lon="11.3913925"><ele>277.0</ele><time>2026-04-04T12:00:16.582Z</time></trkpt><trkpt lat="43.1634153" lon="11.3914347"><ele>277.0</ele><time>2026-04-04T12:00:17.584Z</time></trkpt><trkpt lat="43.1632609" lon="11.3914697"><ele>277.0</ele><time>2026-04-04T12:00:18.58Z</time></trkpt><trkpt lat="43.163113" lon="11.3915054"><ele>278.25</ele><time>2026-04-04T12:00:19.583Z</time></trkpt><trkpt lat="43.1629693" lon="11.3915423"><ele>279.5</ele><time>2026-04-04T12:00:20.589Z</time></trkpt><trkpt lat="43.1628336" lon="11.3915705"><ele>280.75</ele><time>2026-04-04T12:00:21.582Z</time></trkpt><trkpt lat="43.1626951" lon="11.3915965"><ele>282.0</ele><time>2026-04-04T12:00:22.585Z</time></trkpt><trkpt lat="43.1625527" lon="11.3916199"><ele>282.0</ele><time>2026-04-04T12:00:23.58Z</time></trkpt><trkpt lat="43.1624192" lon="11.3916394"><ele>282.0</ele><time>2026-04-04T12:00:24.577Z</time></trkpt><trkpt lat="43.162306" lon="11.3916508"><ele>282.0</ele><time>2026-04-04T12:00:25.572Z</time></trkpt><trkpt lat="43.1622083" lon="11.391655"><ele>282.0</ele><time>2026-04-04T12:00:26.576Z</time></trkpt><trkpt lat="43.1621191" lon="11.3916658"><ele>282.0</ele><time>2026-04-04T12:00:27.586Z</time></trkpt><trkpt lat="43.1620368" lon="11.3916928"><ele>282.0</ele><time>2026-04-04T12:00:28.577Z</time></trkpt><trkpt lat="43.1619515" lon="11.3917357"><ele>282.0</ele><time>2026-04-04T12:00:29.595Z</time></trkpt><trkpt lat="43.161863" lon="11.3918104"><ele>282.0</ele><time>2026-04-04T12:00:30.579Z</time></trkpt><trkpt lat="43.1617818" lon="11.3919256"><ele>282.0</ele><time>2026-04-04T12:00:31.574Z</time></trkpt><trkpt lat="43.1617173" lon="11.3920816"><ele>282.0</ele><time>2026-04-04T12:00:32.587Z</time></trkpt><trkpt lat="43.1616606" lon="11.3922663"><ele>282.0</ele><time>2026-04-04T12:00:33.584Z</time></trkpt><trkpt lat="43.1616011" lon="11.3924689"><ele>282.0</ele><time>2026-04-04T12:00:34.588Z</time></trkpt><trkpt lat="43.1615319" lon="11.3926471"><ele>282.0</ele><time>2026-04-04T12:00:35.58Z</time></trkpt><trkpt lat="43.1614523" lon="11.3928019"><ele>282.0</ele><time>2026-04-04T12:00:36.581Z</time></trkpt><trkpt lat="43.1613541" lon="11.3929259"><ele>281.0</ele><time>2026-04-04T12:00:37.574Z</time></trkpt><trkpt lat="43.1612262" lon="11.3930334"><ele>280.0</ele><time>2026-04-04T12:00:38.577Z</time></trkpt><trkpt lat="43.1610703" lon="11.3931219"><ele>279.0</ele><time>2026-04-04T12:00:39.585Z</time></trkpt><trkpt lat="43.1608955" lon="11.3932001"><ele>279.0</ele><time>2026-04-04T12:00:40.582Z</time></trkpt><trkpt lat="43.1607221" lon="11.3932776"><ele>279.0</ele><time>2026-04-04T12:00:41.58Z</time></trkpt><trkpt lat="43.1605439" lon="11.393357"><ele>279.0</ele><time>2026-04-04T12:00:42.591Z</time></trkpt><trkpt lat="43.1603475" lon="11.3934407"><ele>278.3333333333333</ele><time>2026-04-04T12:00:43.579Z</time></trkpt><trkpt lat="43.1601641" lon="11.3935187"><ele>277.66666666666663</ele><time>2026-04-04T12:00:44.585Z</time></trkpt><trkpt lat="43.1599892" lon="11.3936034"><ele>277.0</ele><time>2026-04-04T12:00:45.574Z</time></trkpt><trkpt lat="43.1598262" lon="11.3936979"><ele>276.66666666666663</ele><time>2026-04-04T12:00:46.575Z</time></trkpt><trkpt lat="43.159676" lon="11.3938029"><ele>276.3333333333333</ele><time>2026-04-04T12:00:47.583Z</time></trkpt><trkpt lat="43.1595321" lon="11.3939162"><ele>276.0</ele><time>2026-04-04T12:00:48.581Z</time></trkpt><trkpt lat="43.1594024" lon="11.3940369"><ele>276.0</ele><time>2026-04-04T12:00:49.589Z</time></trkpt><trkpt lat="43.1592786" lon="11.3941738"><ele>276.0</ele><time>2026-04-04T12:00:50.578Z</time></trkpt><trkpt lat="43.1591618" lon="11.3943275"><ele>276.0</ele><time>2026-04-04T12:00:51.585Z</time></trkpt><trkpt lat="43.1590489" lon="11.3944951"><ele>277.0</ele><time>2026-04-04T12:00:52.58Z</time></trkpt><trkpt lat="43.1589454" lon="11.3946746"><ele>278.0</ele><time>2026-04-04T12:00:53.586Z</time></trkpt><trkpt lat="43.1588522" lon="11.3948695"><ele>279.0</ele><time>2026-04-04T12:00:54.589Z</time></trkpt><trkpt lat="43.158782" lon="11.3950872"><ele>279.0</ele><time>2026-04-04T12:00:55.581Z</time></trkpt><trkpt lat="43.1587374" lon="11.3953297"><ele>279.0</ele><time>2026-04-04T12:00:56.576Z</time></trkpt><trkpt lat="43.1587124" lon="11.3955945"><ele>279.0</ele><time>2026-04-04T12:00:57.587Z</time></trkpt><trkpt lat="43.1587031" lon="11.395862"><ele>279.0</ele><time>2026-04-04T12:00:58.586Z</time></trkpt><trkpt lat="43.1587012" lon="11.3961406"><ele>279.0</ele><time>2026-04-04T12:00:59.587Z</time></trkpt><trkpt lat="43.1586971" lon="11.3964387"><ele>279.0</ele><time>2026-04-04T12:01:00.593Z</time></trkpt><trkpt lat="43.1586889" lon="11.3967243"><ele>279.3333333333333</ele><time>2026-04-04T12:01:01.584Z</time></trkpt><trkpt lat="43.1586827" lon="11.3969922"><ele>279.66666666666663</ele><time>2026-04-04T12:01:02.576Z</time></trkpt><trkpt lat="43.1586806" lon="11.3972493"><ele>280.0</ele><time>2026-04-04T12:01:03.585Z</time></trkpt><trkpt lat="43.1586835" lon="11.397491"><ele>280.0</ele><time>2026-04-04T12:01:04.579Z</time></trkpt><trkpt lat="43.1586953" lon="11.3977257"><ele>280.0</ele><time>2026-04-04T12:01:05.596Z</time></trkpt><trkpt lat="43.1587289" lon="11.397969"><ele>280.0</ele><time>2026-04-04T12:01:06.582Z</time></trkpt><trkpt lat="43.1587778" lon="11.3982214"><ele>280.66666666666663</ele><time>2026-04-04T12:01:07.587Z</time></trkpt><trkpt lat="43.1588319" lon="11.3984698"><ele>281.3333333333333</ele><time>2026-04-04T12:01:08.574Z</time></trkpt><trkpt lat="43.15888" lon="11.3986962"><ele>282.0</ele><time>2026-04-04T12:01:09.584Z</time></trkpt><trkpt lat="43.1589142" lon="11.3989024"><ele>282.5</ele><time>2026-04-04T12:01:10.574Z</time></trkpt><trkpt lat="43.1589301" lon="11.3990939"><ele>283.0</ele><time>2026-04-04T12:01:11.585Z</time></trkpt><trkpt lat="43.1589213" lon="11.399271"><ele>283.5</ele><time>2026-04-04T12:01:12.584Z</time></trkpt><trkpt lat="43.1588848" lon="11.3994253"><ele>284.0</ele><time>2026-04-04T12:01:13.588Z</time></trkpt><trkpt lat="43.158821" lon="11.3995417"><ele>284.0</ele><time>2026-04-04T12:01:14.589Z</time></trkpt><trkpt lat="43.1587434" lon="11.3996111"><ele>284.0</ele><time>2026-04-04T12:01:15.575Z</time></trkpt><trkpt lat="43.1586524" lon="11.3996385"><ele>284.0</ele><time>2026-04-04T12:01:16.587Z</time></trkpt><trkpt lat="43.1585484" lon="11.3996316"><ele>284.0</ele><time>2026-04-04T12:01:17.578Z</time></trkpt><trkpt lat="43.1584241" lon="11.3996108"><ele>284.0</ele><time>2026-04-04T12:01:18.584Z</time></trkpt><trkpt lat="43.1582764" lon="11.3996112"><ele>286.0</ele><time>2026-04-04T12:01:19.583Z</time></trkpt><trkpt lat="43.1581204" lon="11.3996395"><ele>288.0</ele><time>2026-04-04T12:01:20.587Z</time></trkpt><trkpt lat="43.1579759" lon="11.3997043"><ele>290.0</ele><time>2026-04-04T12:01:21.58Z</time></trkpt><trkpt lat="43.1578255" lon="11.3998175"><ele>290.0</ele><time>2026-04-04T12:01:22.574Z</time></trkpt><trkpt lat="43.1576915" lon="11.3999357"><ele>290.0</ele><time>2026-04-04T12:01:23.591Z</time></trkpt><trkpt lat="43.1575547" lon="11.4000418"><ele>290.0</ele><time>2026-04-04T12:01:24.573Z</time></trkpt><trkpt lat="43.1574176" lon="11.4001213"><ele>291.33333333333337</ele><time>2026-04-04T12:01:25.573Z</time></trkpt><trkpt lat="43.1572791" lon="11.4001582"><ele>292.6666666666667</ele><time>2026-04-04T12:01:26.578Z</time></trkpt><trkpt lat="43.157124" lon="11.4001595"><ele>294.0</ele><time>2026-04-04T12:01:27.578Z</time></trkpt><trkpt lat="43.1569671" lon="11.4001154"><ele>294.0</ele><time>2026-04-04T12:01:28.573Z</time></trkpt><trkpt lat="43.1568243" lon="11.4000563"><ele>294.0</ele><time>2026-04-04T12:01:29.572Z</time></trkpt><trkpt lat="43.1566976" lon="11.4000135"><ele>294.0</ele><time>2026-04-04T12:01:30.577Z</time></trkpt><trkpt lat="43.156588" lon="11.3999886"><ele>294.0</ele><time>2026-04-04T12:01:31.584Z</time></trkpt><trkpt lat="43.1564945" lon="11.3999966"><ele>296.59999999999997</ele><time>2026-04-04T12:01:32.574Z</time></trkpt><trkpt lat="43.1564128" lon="11.4000381"><ele>299.2</ele><time>2026-04-04T12:01:33.582Z</time></trkpt><trkpt lat="43.1563472" lon="11.4001217"><ele>301.79999999999995</ele><time>2026-04-04T12:01:34.578Z</time></trkpt><trkpt lat="43.1563097" lon="11.4002368"><ele>304.4</ele><time>2026-04-04T12:01:35.58Z</time></trkpt><trkpt lat="43.1563034" lon="11.4003734"><ele>307.0</ele><time>2026-04-04T12:01:36.59Z</time></trkpt><trkpt lat="43.1563274" lon="11.4005232"><ele>307.3333333333333</ele><time>2026-04-04T12:01:37.585Z</time></trkpt><trkpt lat="43.1563918" lon="11.4006822"><ele>307.6666666666667</ele><time>2026-04-04T12:01:38.58Z</time></trkpt><trkpt lat="43.1564748" lon="11.4008537"><ele>308.0</ele><time>2026-04-04T12:01:39.578Z</time></trkpt><trkpt lat="43.1565643" lon="11.4010568"><ele>302.75</ele><time>2026-04-04T12:01:40.572Z</time></trkpt><trkpt lat="43.1566385" lon="11.4012426"><ele>297.5</ele><time>2026-04-04T12:01:41.566Z</time></trkpt><trkpt lat="43.1566905" lon="11.4014148"><ele>292.25</ele><time>2026-04-04T12:01:42.579Z</time></trkpt><trkpt lat="43.1567167" lon="11.4015978"><ele>287.0</ele><time>2026-04-04T12:01:43.59Z</time></trkpt><trkpt lat="43.1567117" lon="11.4018059"><ele>286.33333333333337</ele><time>2026-04-04T12:01:44.575Z</time></trkpt><trkpt lat="43.1566741" lon="11.4020264"><ele>285.6666666666667</ele><time>2026-04-04T12:01:45.576Z</time></trkpt><trkpt lat="43.15663" lon="11.4022644"><ele>285.0</ele><time>2026-04-04T12:01:46.572Z</time></trkpt><trkpt lat="43.1565909" lon="11.4025198"><ele>284.3333333333333</ele><time>2026-04-04T12:01:47.59Z</time></trkpt><trkpt lat="43.1565484" lon="11.4027829"><ele>283.66666666666663</ele><time>2026-04-04T12:01:48.581Z</time></trkpt><trkpt lat="43.1565067" lon="11.403036"><ele>283.0</ele><time>2026-04-04T12:01:49.571Z</time></trkpt><trkpt lat="43.1564756" lon="11.4032831"><ele>286.0</ele><time>2026-04-04T12:01:50.576Z</time></trkpt><trkpt lat="43.1564588" lon="11.4035245"><ele>289.0</ele><time>2026-04-04T12:01:51.575Z</time></trkpt><trkpt lat="43.1564441" lon="11.4037514"><ele>292.0</ele><time>2026-04-04T12:01:52.582Z</time></trkpt><trkpt lat="43.1564276" lon="11.4039593"><ele>292.0</ele><time>2026-04-04T12:01:53.585Z</time></trkpt><trkpt lat="43.1563913" lon="11.4041438"><ele>292.0</ele><time>2026-04-04T12:01:54.586Z</time></trkpt><trkpt lat="43.1563356" lon="11.4043082"><ele>292.0</ele><time>2026-04-04T12:01:55.58Z</time></trkpt><trkpt lat="43.1562485" lon="11.4044517"><ele>292.0</ele><time>2026-04-04T12:01:56.575Z</time></trkpt><trkpt lat="43.1561377" lon="11.4045805"><ele>286.3333333333333</ele><time>2026-04-04T12:01:57.577Z</time></trkpt><trkpt lat="43.1560111" lon="11.4046915"><ele>280.6666666666667</ele><time>2026-04-04T12:01:58.579Z</time></trkpt><trkpt lat="43.1558706" lon="11.4047846"><ele>275.0</ele><time>2026-04-04T12:01:59.581Z</time></trkpt><trkpt lat="43.1557172" lon="11.4048502"><ele>278.33333333333337</ele><time>2026-04-04T12:02:00.575Z</time></trkpt><trkpt lat="43.1555548" lon="11.4048854"><ele>281.6666666666667</ele><time>2026-04-04T12:02:01.579Z</time></trkpt><trkpt lat="43.1553927" lon="11.4049003"><ele>285.0</ele><time>2026-04-04T12:02:02.566Z</time></trkpt><trkpt lat="43.1552338" lon="11.4049246"><ele>285.0</ele><time>2026-04-04T12:02:03.576Z</time></trkpt><trkpt lat="43.1550849" lon="11.405002"><ele>285.0</ele><time>2026-04-04T12:02:04.567Z</time></trkpt><trkpt lat="43.1549437" lon="11.405064"><ele>285.0</ele><time>2026-04-04T12:02:05.572Z</time></trkpt><trkpt lat="43.1548054" lon="11.4051243"><ele>287.25</ele><time>2026-04-04T12:02:06.573Z</time></trkpt><trkpt lat="43.1546707" lon="11.4051898"><ele>289.5</ele><time>2026-04-04T12:02:07.587Z</time></trkpt><trkpt lat="43.1545376" lon="11.4052654"><ele>291.75</ele><time>2026-04-04T12:02:08.591Z</time></trkpt><trkpt lat="43.1544067" lon="11.4053497"><ele>294.0</ele><time>2026-04-04T12:02:09.58Z</time></trkpt><trkpt lat="43.1542878" lon="11.4054378"><ele>292.0</ele><time>2026-04-04T12:02:10.584Z</time></trkpt><trkpt lat="43.1541785" lon="11.4055255"><ele>290.0</ele><time>2026-04-04T12:02:11.593Z</time></trkpt><trkpt lat="43.154057" lon="11.4056038"><ele>288.0</ele><time>2026-04-04T12:02:12.596Z</time></trkpt><trkpt lat="43.153918" lon="11.405648"><ele>286.0</ele><time>2026-04-04T12:02:13.585Z</time></trkpt><trkpt lat="43.1537676" lon="11.4056594"><ele>286.0</ele><time>2026-04-04T12:02:14.573Z</time></trkpt><trkpt lat="43.1536211" lon="11.4056679"><ele>286.0</ele><time>2026-04-04T12:02:15.577Z</time></trkpt><trkpt lat="43.1534857" lon="11.4056993"><ele>286.0</ele><time>2026-04-04T12:02:16.574Z</time></trkpt><trkpt lat="43.1533457" lon="11.4057635"><ele>286.0</ele><time>2026-04-04T12:02:17.58Z</time></trkpt><trkpt lat="43.1532104" lon="11.4058559"><ele>289.3333333333333</ele><time>2026-04-04T12:02:18.585Z</time></trkpt><trkpt lat="43.1530808" lon="11.4059686"><ele>292.6666666666667</ele><time>2026-04-04T12:02:19.589Z</time></trkpt><trkpt lat="43.1529575" lon="11.4060933"><ele>296.0</ele><time>2026-04-04T12:02:20.589Z</time></trkpt><trkpt lat="43.1528394" lon="11.4062078"><ele>296.0</ele><time>2026-04-04T12:02:21.59Z</time></trkpt><trkpt lat="43.1527158" lon="11.4063184"><ele>296.0</ele><time>2026-04-04T12:02:22.593Z</time></trkpt><trkpt lat="43.1525778" lon="11.406411"><ele>296.0</ele><time>2026-04-04T12:02:23.574Z</time></trkpt><trkpt lat="43.1524398" lon="11.4064823"><ele>296.0</ele><time>2026-04-04T12:02:24.58Z</time></trkpt><trkpt lat="43.1523061" lon="11.4065329"><ele>292.75</ele><time>2026-04-04T12:02:25.587Z</time></trkpt><trkpt lat="43.1521694" lon="11.4065604"><ele>289.5</ele><time>2026-04-04T12:02:26.579Z</time></trkpt><trkpt lat="43.1520244" lon="11.4065797"><ele>286.25</ele><time>2026-04-04T12:02:27.582Z</time></trkpt><trkpt lat="43.1518772" lon="11.4065994"><ele>283.0</ele><time>2026-04-04T12:02:28.586Z</time></trkpt><trkpt lat="43.1517335" lon="11.4066132"><ele>283.0</ele><time>2026-04-04T12:02:29.582Z</time></trkpt><trkpt lat="43.1515929" lon="11.4066267"><ele>283.0</ele><time>2026-04-04T12:02:30.584Z</time></trkpt><trkpt lat="43.1514521" lon="11.4066523"><ele>283.0</ele><time>2026-04-04T12:02:31.584Z</time></trkpt><trkpt lat="43.1513219" lon="11.4066968"><ele>283.0</ele><time>2026-04-04T12:02:32.588Z</time></trkpt><trkpt lat="43.1511893" lon="11.4067477"><ele>284.0</ele><time>2026-04-04T12:02:33.586Z</time></trkpt><trkpt lat="43.1510405" lon="11.4067905"><ele>285.0</ele><time>2026-04-04T12:02:34.578Z</time></trkpt><trkpt lat="43.1508779" lon="11.4068029"><ele>286.0</ele><time>2026-04-04T12:02:35.573Z</time></trkpt><trkpt lat="43.1507171" lon="11.4067898"><ele>284.75</ele><time>2026-04-04T12:02:36.586Z</time></trkpt><trkpt lat="43.1505801" lon="11.4067622"><ele>283.5</ele><time>2026-04-04T12:02:37.589Z</time></trkpt><trkpt lat="43.1504552" lon="11.4067334"><ele>282.25</ele><time>2026-04-04T12:02:38.579Z</time></trkpt><trkpt lat="43.1503411" lon="11.4067063"><ele>281.0</ele><time>2026-04-04T12:02:39.575Z</time></trkpt><trkpt lat="43.1502399" lon="11.4066585"><ele>281.0</ele><time>2026-04-04T12:02:40.577Z</time></trkpt><trkpt lat="43.1501555" lon="11.4065889"><ele>281.0</ele><time>2026-04-04T12:02:41.582Z</time></trkpt><trkpt lat="43.1500978" lon="11.4065231"><ele>281.0</ele><time>2026-04-04T12:02:42.576Z</time></trkpt><trkpt lat="43.1500243" lon="11.4063953"><ele>281.0</ele><time>2026-04-04T12:02:44.585Z</time></trkpt><trkpt lat="43.1499459" lon="11.4062872"><ele>281.0</ele><time>2026-04-04T12:02:46.582Z</time></trkpt><trkpt lat="43.1498353" lon="11.4062126"><ele>281.6666666666667</ele><time>2026-04-04T12:02:48.579Z</time></trkpt><trkpt lat="43.149771" lon="11.4061838"><ele>282.33333333333337</ele><time>2026-04-04T12:02:49.569Z</time></trkpt><trkpt lat="43.1496978" lon="11.4061723"><ele>283.0</ele><time>2026-04-04T12:02:50.58Z</time></trkpt><trkpt lat="43.149625" lon="11.4061829"><ele>283.6666666666667</ele><time>2026-04-04T12:02:51.583Z</time></trkpt><trkpt lat="43.1495567" lon="11.4062177"><ele>284.3333333333333</ele><time>2026-04-04T12:02:52.573Z</time></trkpt><trkpt lat="43.1494963" lon="11.4062591"><ele>285.0</ele><time>2026-04-04T12:02:53.583Z</time></trkpt><trkpt lat="43.1494018" lon="11.4063585"><ele>285.0</ele><time>2026-04-04T12:02:55.59Z</time></trkpt><trkpt lat="43.1493301" lon="11.406464"><ele>285.0</ele><time>2026-04-04T12:02:57.587Z</time></trkpt><trkpt lat="43.1492574" lon="11.4065651"><ele>285.0</ele><time>2026-04-04T12:02:59.584Z</time></trkpt><trkpt lat="43.1491661" lon="11.406638"><ele>285.0</ele><time>2026-04-04T12:03:01.583Z</time></trkpt><trkpt lat="43.1490576" lon="11.4066919"><ele>285.0</ele><time>2026-04-04T12:03:03.576Z</time></trkpt><trkpt lat="43.1489932" lon="11.4067092"><ele>285.57142857142856</ele><time>2026-04-04T12:03:04.573Z</time></trkpt><trkpt lat="43.1489253" lon="11.4067194"><ele>286.14285714285717</ele><time>2026-04-04T12:03:05.591Z</time></trkpt><trkpt lat="43.1488542" lon="11.4067301"><ele>286.7142857142857</ele><time>2026-04-04T12:03:06.584Z</time></trkpt><trkpt lat="43.1487823" lon="11.4067416"><ele>287.2857142857143</ele><time>2026-04-04T12:03:07.585Z</time></trkpt><trkpt lat="43.1487091" lon="11.406759"><ele>287.85714285714283</ele><time>2026-04-04T12:03:08.578Z</time></trkpt><trkpt lat="43.1486403" lon="11.4067886"><ele>288.42857142857144</ele><time>2026-04-04T12:03:09.582Z</time></trkpt><trkpt lat="43.1485758" lon="11.4068276"><ele>289.0</ele><time>2026-04-04T12:03:10.578Z</time></trkpt><trkpt lat="43.1485161" lon="11.4068771"><ele>289.0</ele><time>2026-04-04T12:03:11.579Z</time></trkpt><trkpt lat="43.1484581" lon="11.4069405"><ele>289.0</ele><time>2026-04-04T12:03:12.584Z</time></trkpt><trkpt lat="43.1484015" lon="11.4070206"><ele>289.0</ele><time>2026-04-04T12:03:13.58Z</time></trkpt><trkpt lat="43.1483495" lon="11.4071159"><ele>289.0</ele><time>2026-04-04T12:03:14.584Z</time></trkpt><trkpt lat="43.1482964" lon="11.4072226"><ele>289.0</ele><time>2026-04-04T12:03:15.582Z</time></trkpt><trkpt lat="43.1482431" lon="11.4073428"><ele>289.0</ele><time>2026-04-04T12:03:16.586Z</time></trkpt><trkpt lat="43.1481876" lon="11.4074737"><ele>289.75</ele><time>2026-04-04T12:03:17.581Z</time></trkpt><trkpt lat="43.1481291" lon="11.4076073"><ele>290.5</ele><time>2026-04-04T12:03:18.584Z</time></trkpt><trkpt lat="43.1480711" lon="11.4077394"><ele>291.25</ele><time>2026-04-04T12:03:19.584Z</time></trkpt><trkpt lat="43.1480163" lon="11.4078819"><ele>292.0</ele><time>2026-04-04T12:03:20.588Z</time></trkpt><trkpt lat="43.1479725" lon="11.4080447"><ele>290.0</ele><time>2026-04-04T12:03:21.583Z</time></trkpt><trkpt lat="43.1479392" lon="11.4082399"><ele>288.0</ele><time>2026-04-04T12:03:22.569Z</time></trkpt><trkpt lat="43.1479101" lon="11.4084731"><ele>286.0</ele><time>2026-04-04T12:03:23.584Z</time></trkpt><trkpt lat="43.1478787" lon="11.40871"><ele>284.0</ele><time>2026-04-04T12:03:24.576Z</time></trkpt><trkpt lat="43.1478452" lon="11.4089387"><ele>282.0</ele><time>2026-04-04T12:03:25.587Z</time></trkpt><trkpt lat="43.1478107" lon="11.4091896"><ele>280.0</ele><time>2026-04-04T12:03:26.574Z</time></trkpt><trkpt lat="43.1477757" lon="11.4094342"><ele>280.0</ele><time>2026-04-04T12:03:27.584Z</time></trkpt><trkpt lat="43.1477419" lon="11.4096491"><ele>280.0</ele><time>2026-04-04T12:03:28.589Z</time></trkpt><trkpt lat="43.1477093" lon="11.4098378"><ele>280.0</ele><time>2026-04-04T12:03:29.584Z</time></trkpt><trkpt lat="43.1476707" lon="11.4100152"><ele>280.0</ele><time>2026-04-04T12:03:30.589Z</time></trkpt><trkpt lat="43.1476108" lon="11.4101826"><ele>278.25</ele><time>2026-04-04T12:03:31.586Z</time></trkpt><trkpt lat="43.147528" lon="11.4103404"><ele>276.5</ele><time>2026-04-04T12:03:32.577Z</time></trkpt><trkpt lat="43.1474223" lon="11.4104707"><ele>274.75</ele><time>2026-04-04T12:03:33.588Z</time></trkpt><trkpt lat="43.1472967" lon="11.4105786"><ele>273.0</ele><time>2026-04-04T12:03:34.587Z</time></trkpt><trkpt lat="43.1471597" lon="11.4106654"><ele>271.25</ele><time>2026-04-04T12:03:35.585Z</time></trkpt><trkpt lat="43.147029" lon="11.4107442"><ele>269.5</ele><time>2026-04-04T12:03:36.595Z</time></trkpt><trkpt lat="43.1469092" lon="11.4108323"><ele>267.75</ele><time>2026-04-04T12:03:37.583Z</time></trkpt><trkpt lat="43.1468003" lon="11.4109399"><ele>266.0</ele><time>2026-04-04T12:03:38.584Z</time></trkpt><trkpt lat="43.1466925" lon="11.4110798"><ele>266.0</ele><time>2026-04-04T12:03:39.579Z</time></trkpt><trkpt lat="43.1465867" lon="11.4112498"><ele>266.0</ele><time>2026-04-04T12:03:40.573Z</time></trkpt><trkpt lat="43.146483" lon="11.4114179"><ele>266.0</ele><time>2026-04-04T12:03:41.582Z</time></trkpt><trkpt lat="43.1463895" lon="11.4115726"><ele>264.75</ele><time>2026-04-04T12:03:42.582Z</time></trkpt><trkpt lat="43.1462981" lon="11.4117169"><ele>263.5</ele><time>2026-04-04T12:03:43.573Z</time></trkpt><trkpt lat="43.1462137" lon="11.4118596"><ele>262.25</ele><time>2026-04-04T12:03:44.579Z</time></trkpt><trkpt lat="43.146138" lon="11.4120093"><ele>261.0</ele><time>2026-04-04T12:03:45.58Z</time></trkpt><trkpt lat="43.146067" lon="11.4121674"><ele>259.0</ele><time>2026-04-04T12:03:46.58Z</time></trkpt><trkpt lat="43.1460202" lon="11.4122966"><ele>257.0</ele><time>2026-04-04T12:03:47.589Z</time></trkpt><trkpt lat="43.145983" lon="11.4124315"><ele>255.0</ele><time>2026-04-04T12:03:48.589Z</time></trkpt><trkpt lat="43.1459455" lon="11.4125972"><ele>253.0</ele><time>2026-04-04T12:03:49.58Z</time></trkpt><trkpt lat="43.145899" lon="11.41279"><ele>253.0</ele><time>2026-04-04T12:03:50.578Z</time></trkpt><trkpt lat="43.1458538" lon="11.4129641"><ele>253.0</ele><time>2026-04-04T12:03:51.588Z</time></trkpt><trkpt lat="43.1458017" lon="11.4131417"><ele>253.0</ele><time>2026-04-04T12:03:52.581Z</time></trkpt><trkpt lat="43.1457364" lon="11.4133115"><ele>253.0</ele><time>2026-04-04T12:03:53.583Z</time></trkpt><trkpt lat="43.1456516" lon="11.41348"><ele>251.25</ele><time>2026-04-04T12:03:54.577Z</time></trkpt><trkpt lat="43.14556" lon="11.4136242"><ele>249.5</ele><time>2026-04-04T12:03:55.578Z</time></trkpt><trkpt lat="43.1454655" lon="11.4137548"><ele>247.75</ele><time>2026-04-04T12:03:56.574Z</time></trkpt><trkpt lat="43.1453835" lon="11.4138765"><ele>246.0</ele><time>2026-04-04T12:03:57.581Z</time></trkpt><trkpt lat="43.1453175" lon="11.4140027"><ele>245.0</ele><time>2026-04-04T12:03:58.579Z</time></trkpt><trkpt lat="43.1452682" lon="11.4141444"><ele>244.0</ele><time>2026-04-04T12:03:59.586Z</time></trkpt><trkpt lat="43.1452403" lon="11.4143027"><ele>243.0</ele><time>2026-04-04T12:04:00.593Z</time></trkpt><trkpt lat="43.1452377" lon="11.4144701"><ele>242.0</ele><time>2026-04-04T12:04:01.589Z</time></trkpt><trkpt lat="43.1452656" lon="11.4146334"><ele>240.5</ele><time>2026-04-04T12:04:02.574Z</time></trkpt><trkpt lat="43.1453308" lon="11.4147948"><ele>239.0</ele><time>2026-04-04T12:04:03.569Z</time></trkpt><trkpt lat="43.1454279" lon="11.4149523"><ele>237.5</ele><time>2026-04-04T12:04:04.585Z</time></trkpt><trkpt lat="43.1455338" lon="11.4151135"><ele>236.0</ele><time>2026-04-04T12:04:05.587Z</time></trkpt><trkpt lat="43.1456265" lon="11.4152714"><ele>236.0</ele><time>2026-04-04T12:04:06.578Z</time></trkpt><trkpt lat="43.1456991" lon="11.4154299"><ele>236.0</ele><time>2026-04-04T12:04:07.576Z</time></trkpt><trkpt lat="43.1457475" lon="11.4155928"><ele>236.0</ele><time>2026-04-04T12:04:08.584Z</time></trkpt><trkpt lat="43.1457762" lon="11.4157633"><ele>236.0</ele><time>2026-04-04T12:04:09.58Z</time></trkpt><trkpt lat="43.1457937" lon="11.4159579"><ele>236.0</ele><time>2026-04-04T12:04:10.581Z</time></trkpt><trkpt lat="43.1457864" lon="11.4161635"><ele>236.0</ele><time>2026-04-04T12:04:11.577Z</time></trkpt><trkpt lat="43.1457664" lon="11.4163795"><ele>236.0</ele><time>2026-04-04T12:04:12.585Z</time></trkpt><trkpt lat="43.1457437" lon="11.4166036"><ele>236.0</ele><time>2026-04-04T12:04:13.588Z</time></trkpt><trkpt lat="43.1457223" lon="11.416816"><ele>236.0</ele><time>2026-04-04T12:04:14.585Z</time></trkpt><trkpt lat="43.1456928" lon="11.4170363"><ele>236.0</ele><time>2026-04-04T12:04:15.58Z</time></trkpt><trkpt lat="43.1456401" lon="11.4172596"><ele>229.66666666666669</ele><time>2026-04-04T12:04:16.588Z</time></trkpt><trkpt lat="43.1455694" lon="11.4174856"><ele>223.33333333333331</ele><time>2026-04-04T12:04:17.571Z</time></trkpt><trkpt lat="43.1455021" lon="11.4177009"><ele>217.0</ele><time>2026-04-04T12:04:18.586Z</time></trkpt><trkpt lat="43.1454476" lon="11.417907"><ele>216.25</ele><time>2026-04-04T12:04:19.58Z</time></trkpt><trkpt lat="43.1454061" lon="11.4181013"><ele>215.5</ele><time>2026-04-04T12:04:20.587Z</time></trkpt><trkpt lat="43.1453842" lon="11.4182925"><ele>214.75</ele><time>2026-04-04T12:04:21.589Z</time></trkpt><trkpt lat="43.1453715" lon="11.418484"><ele>214.0</ele><time>2026-04-04T12:04:22.588Z</time></trkpt><trkpt lat="43.145363" lon="11.4186854"><ele>213.75</ele><time>2026-04-04T12:04:23.581Z</time></trkpt><trkpt lat="43.1453513" lon="11.4188931"><ele>213.5</ele><time>2026-04-04T12:04:24.585Z</time></trkpt><trkpt lat="43.1453393" lon="11.4190965"><ele>213.25</ele><time>2026-04-04T12:04:25.584Z</time></trkpt><trkpt lat="43.1453188" lon="11.4192909"><ele>213.0</ele><time>2026-04-04T12:04:26.589Z</time></trkpt><trkpt lat="43.1452875" lon="11.4194756"><ele>212.25</ele><time>2026-04-04T12:04:27.578Z</time></trkpt><trkpt lat="43.1452497" lon="11.4196516"><ele>211.5</ele><time>2026-04-04T12:04:28.582Z</time></trkpt><trkpt lat="43.1452152" lon="11.4198171"><ele>210.75</ele><time>2026-04-04T12:04:29.583Z</time></trkpt><trkpt lat="43.145189" lon="11.4199766"><ele>210.0</ele><time>2026-04-04T12:04:30.581Z</time></trkpt><trkpt lat="43.14517" lon="11.4201325"><ele>210.0</ele><time>2026-04-04T12:04:31.585Z</time></trkpt><trkpt lat="43.1451641" lon="11.4202868"><ele>210.0</ele><time>2026-04-04T12:04:32.587Z</time></trkpt><trkpt lat="43.1451688" lon="11.4204448"><ele>210.0</ele><time>2026-04-04T12:04:33.582Z</time></trkpt><trkpt lat="43.1451745" lon="11.4206161"><ele>210.0</ele><time>2026-04-04T12:04:34.586Z</time></trkpt><trkpt lat="43.1451727" lon="11.4207844"><ele>209.5</ele><time>2026-04-04T12:04:35.587Z</time></trkpt><trkpt lat="43.1451632" lon="11.4209383"><ele>209.0</ele><time>2026-04-04T12:04:36.588Z</time></trkpt><trkpt lat="43.1451501" lon="11.4210528"><ele>208.5</ele><time>2026-04-04T12:04:37.584Z</time></trkpt><trkpt lat="43.145143" lon="11.4211427"><ele>208.0</ele><time>2026-04-04T12:04:38.579Z</time></trkpt><trkpt lat="43.1451536" lon="11.4212536"><ele>207.5</ele><time>2026-04-04T12:04:40.58Z</time></trkpt><trkpt lat="43.1451097" lon="11.421351"><ele>207.0</ele><time>2026-04-04T12:05:04.576Z</time></trkpt><trkpt lat="43.1450523" lon="11.4213967"><ele>206.75</ele><time>2026-04-04T12:05:05.591Z</time></trkpt><trkpt lat="43.1449741" lon="11.421463"><ele>206.5</ele><time>2026-04-04T12:05:06.588Z</time></trkpt><trkpt lat="43.1448738" lon="11.4215445"><ele>206.25</ele><time>2026-04-04T12:05:07.577Z</time></trkpt><trkpt lat="43.1447569" lon="11.4216263"><ele>206.0</ele><time>2026-04-04T12:05:08.588Z</time></trkpt><trkpt lat="43.1446235" lon="11.4216927"><ele>205.0</ele><time>2026-04-04T12:05:09.576Z</time></trkpt><trkpt lat="43.1444749" lon="11.4217463"><ele>204.0</ele><time>2026-04-04T12:05:10.579Z</time></trkpt><trkpt lat="43.1443212" lon="11.4217872"><ele>203.0</ele><time>2026-04-04T12:05:11.573Z</time></trkpt><trkpt lat="43.1441718" lon="11.4218119"><ele>202.0</ele><time>2026-04-04T12:05:12.579Z</time></trkpt><trkpt lat="43.1440292" lon="11.4218224"><ele>201.0</ele><time>2026-04-04T12:05:13.581Z</time></trkpt><trkpt lat="43.1438899" lon="11.4218147"><ele>200.0</ele><time>2026-04-04T12:05:14.585Z</time></trkpt><trkpt lat="43.1437584" lon="11.4217977"><ele>199.0</ele><time>2026-04-04T12:05:15.585Z</time></trkpt><trkpt lat="43.1436322" lon="11.4217705"><ele>199.0</ele><time>2026-04-04T12:05:16.589Z</time></trkpt><trkpt lat="43.1434985" lon="11.4217311"><ele>199.0</ele><time>2026-04-04T12:05:17.588Z</time></trkpt><trkpt lat="43.1433516" lon="11.4216813"><ele>199.0</ele><time>2026-04-04T12:05:18.584Z</time></trkpt><trkpt lat="43.143194" lon="11.4216272"><ele>198.66666666666666</ele><time>2026-04-04T12:05:19.589Z</time></trkpt><trkpt lat="43.1430292" lon="11.4215679"><ele>198.33333333333331</ele><time>2026-04-04T12:05:20.592Z</time></trkpt><trkpt lat="43.1428673" lon="11.4215075"><ele>198.0</ele><time>2026-04-04T12:05:21.578Z</time></trkpt><trkpt lat="43.1427146" lon="11.4214516"><ele>198.0</ele><time>2026-04-04T12:05:22.595Z</time></trkpt><trkpt lat="43.1425721" lon="11.4214092"><ele>198.0</ele><time>2026-04-04T12:05:23.586Z</time></trkpt><trkpt lat="43.142435" lon="11.4213946"><ele>198.0</ele><time>2026-04-04T12:05:24.58Z</time></trkpt><trkpt lat="43.1422895" lon="11.4214138"><ele>198.0</ele><time>2026-04-04T12:05:25.583Z</time></trkpt><trkpt lat="43.1421374" lon="11.4214557"><ele>196.33333333333331</ele><time>2026-04-04T12:05:26.582Z</time></trkpt><trkpt lat="43.141979" lon="11.421517"><ele>194.66666666666666</ele><time>2026-04-04T12:05:27.586Z</time></trkpt><trkpt lat="43.1418272" lon="11.4215777"><ele>193.0</ele><time>2026-04-04T12:05:28.583Z</time></trkpt><trkpt lat="43.1416815" lon="11.421623"><ele>193.0</ele><time>2026-04-04T12:05:29.585Z</time></trkpt><trkpt lat="43.1415488" lon="11.4216391"><ele>193.0</ele><time>2026-04-04T12:05:30.579Z</time></trkpt><trkpt lat="43.1414277" lon="11.4216252"><ele>193.0</ele><time>2026-04-04T12:05:31.592Z</time></trkpt><trkpt lat="43.1413217" lon="11.4215773"><ele>193.0</ele><time>2026-04-04T12:05:32.594Z</time></trkpt><trkpt lat="43.1412185" lon="11.4215114"><ele>192.0</ele><time>2026-04-04T12:05:33.599Z</time></trkpt><trkpt lat="43.1411146" lon="11.4214223"><ele>191.0</ele><time>2026-04-04T12:05:34.585Z</time></trkpt><trkpt lat="43.1410136" lon="11.4213163"><ele>190.0</ele><time>2026-04-04T12:05:35.586Z</time></trkpt><trkpt lat="43.1409081" lon="11.4212006"><ele>189.0</ele><time>2026-04-04T12:05:36.579Z</time></trkpt><trkpt lat="43.1408032" lon="11.421089"><ele>191.5</ele><time>2026-04-04T12:05:37.58Z</time></trkpt><trkpt lat="43.1407025" lon="11.4209887"><ele>194.0</ele><time>2026-04-04T12:05:38.58Z</time></trkpt><trkpt lat="43.1405931" lon="11.4208959"><ele>196.5</ele><time>2026-04-04T12:05:39.588Z</time></trkpt><trkpt lat="43.1404739" lon="11.4208192"><ele>199.0</ele><time>2026-04-04T12:05:40.585Z</time></trkpt><trkpt lat="43.1403453" lon="11.42076"><ele>199.0</ele><time>2026-04-04T12:05:41.584Z</time></trkpt><trkpt lat="43.1402092" lon="11.4207248"><ele>199.0</ele><time>2026-04-04T12:05:42.591Z</time></trkpt><trkpt lat="43.1400688" lon="11.4207121"><ele>199.0</ele><time>2026-04-04T12:05:43.578Z</time></trkpt><trkpt lat="43.1399221" lon="11.4207219"><ele>199.0</ele><time>2026-04-04T12:05:44.591Z</time></trkpt><trkpt lat="43.1397697" lon="11.420743"><ele>199.25</ele><time>2026-04-04T12:05:45.591Z</time></trkpt><trkpt lat="43.1396152" lon="11.4207781"><ele>199.5</ele><time>2026-04-04T12:05:46.596Z</time></trkpt><trkpt lat="43.1394718" lon="11.4208279"><ele>199.75</ele><time>2026-04-04T12:05:47.577Z</time></trkpt><trkpt lat="43.1393461" lon="11.4208992"><ele>200.0</ele><time>2026-04-04T12:05:48.573Z</time></trkpt><trkpt lat="43.1392256" lon="11.4209726"><ele>200.0</ele><time>2026-04-04T12:05:49.584Z</time></trkpt><trkpt lat="43.1391006" lon="11.4210516"><ele>200.0</ele><time>2026-04-04T12:05:50.581Z</time></trkpt><trkpt lat="43.1389673" lon="11.4211317"><ele>200.0</ele><time>2026-04-04T12:05:51.587Z</time></trkpt><trkpt lat="43.1388223" lon="11.4211939"><ele>200.0</ele><time>2026-04-04T12:05:52.581Z</time></trkpt><trkpt lat="43.1386694" lon="11.4212443"><ele>200.25</ele><time>2026-04-04T12:05:53.583Z</time></trkpt><trkpt lat="43.1385212" lon="11.4212935"><ele>200.5</ele><time>2026-04-04T12:05:54.586Z</time></trkpt><trkpt lat="43.1383903" lon="11.421355"><ele>200.75</ele><time>2026-04-04T12:05:55.584Z</time></trkpt><trkpt lat="43.1382765" lon="11.4214373"><ele>201.0</ele><time>2026-04-04T12:05:56.582Z</time></trkpt><trkpt lat="43.1381682" lon="11.4215577"><ele>201.0</ele><time>2026-04-04T12:05:57.588Z</time></trkpt><trkpt lat="43.138071" lon="11.4217175"><ele>201.0</ele><time>2026-04-04T12:05:58.582Z</time></trkpt><trkpt lat="43.1379795" lon="11.4219058"><ele>201.0</ele><time>2026-04-04T12:05:59.58Z</time></trkpt><trkpt lat="43.1378773" lon="11.4220986"><ele>203.33333333333331</ele><time>2026-04-04T12:06:00.575Z</time></trkpt><trkpt lat="43.1377625" lon="11.422254"><ele>205.66666666666666</ele><time>2026-04-04T12:06:01.584Z</time></trkpt><trkpt lat="43.1376403" lon="11.4223755"><ele>208.0</ele><time>2026-04-04T12:06:02.587Z</time></trkpt><trkpt lat="43.1375046" lon="11.4224701"><ele>208.0</ele><time>2026-04-04T12:06:03.583Z</time></trkpt><trkpt lat="43.1373499" lon="11.4225376"><ele>208.0</ele><time>2026-04-04T12:06:04.597Z</time></trkpt><trkpt lat="43.137181" lon="11.4225916"><ele>208.0</ele><time>2026-04-04T12:06:05.583Z</time></trkpt><trkpt lat="43.1370149" lon="11.4226506"><ele>208.0</ele><time>2026-04-04T12:06:06.572Z</time></trkpt><trkpt lat="43.1368703" lon="11.4227256"><ele>208.0</ele><time>2026-04-04T12:06:07.58Z</time></trkpt><trkpt lat="43.1367367" lon="11.4228208"><ele>208.0</ele><time>2026-04-04T12:06:08.583Z</time></trkpt><trkpt lat="43.1366156" lon="11.4229481"><ele>208.33333333333331</ele><time>2026-04-04T12:06:09.579Z</time></trkpt><trkpt lat="43.1365133" lon="11.4231088"><ele>208.66666666666669</ele><time>2026-04-04T12:06:10.587Z</time></trkpt><trkpt lat="43.136428" lon="11.4232969"><ele>209.0</ele><time>2026-04-04T12:06:11.582Z</time></trkpt><trkpt lat="43.1363455" lon="11.423496"><ele>209.0</ele><time>2026-04-04T12:06:12.58Z</time></trkpt><trkpt lat="43.1362502" lon="11.4236917"><ele>209.0</ele><time>2026-04-04T12:06:13.581Z</time></trkpt><trkpt lat="43.1361472" lon="11.4238596"><ele>209.0</ele><time>2026-04-04T12:06:14.586Z</time></trkpt><trkpt lat="43.1360404" lon="11.4240015"><ele>210.5</ele><time>2026-04-04T12:06:15.581Z</time></trkpt><trkpt lat="43.1359335" lon="11.4241251"><ele>212.0</ele><time>2026-04-04T12:06:16.582Z</time></trkpt><trkpt lat="43.1358324" lon="11.4242448"><ele>213.5</ele><time>2026-04-04T12:06:17.591Z</time></trkpt><trkpt lat="43.1357267" lon="11.4243713"><ele>215.0</ele><time>2026-04-04T12:06:18.585Z</time></trkpt><trkpt lat="43.135604" lon="11.4244945"><ele>216.33333333333334</ele><time>2026-04-04T12:06:19.578Z</time></trkpt><trkpt lat="43.1354732" lon="11.4246214"><ele>217.66666666666669</ele><time>2026-04-04T12:06:20.583Z</time></trkpt><trkpt lat="43.1353362" lon="11.4247621"><ele>219.0</ele><time>2026-04-04T12:06:21.58Z</time></trkpt><trkpt lat="43.1351927" lon="11.4249134"><ele>221.33333333333331</ele><time>2026-04-04T12:06:22.588Z</time></trkpt><trkpt lat="43.1350407" lon="11.4250736"><ele>223.66666666666666</ele><time>2026-04-04T12:06:23.591Z</time></trkpt><trkpt lat="43.1348854" lon="11.4252372"><ele>226.0</ele><time>2026-04-04T12:06:24.584Z</time></trkpt><trkpt lat="43.1347337" lon="11.4253933"><ele>232.0</ele><time>2026-04-04T12:06:25.591Z</time></trkpt><trkpt lat="43.1345982" lon="11.4255388"><ele>238.0</ele><time>2026-04-04T12:06:26.58Z</time></trkpt><trkpt lat="43.1344656" lon="11.4256819"><ele>244.0</ele><time>2026-04-04T12:06:27.584Z</time></trkpt><trkpt lat="43.1343319" lon="11.4258242"><ele>244.0</ele><time>2026-04-04T12:06:28.583Z</time></trkpt><trkpt lat="43.1341981" lon="11.4259612"><ele>244.0</ele><time>2026-04-04T12:06:29.583Z</time></trkpt><trkpt lat="43.1340644" lon="11.4261014"><ele>244.0</ele><time>2026-04-04T12:06:30.574Z</time></trkpt><trkpt lat="43.1339263" lon="11.426237"><ele>245.25</ele><time>2026-04-04T12:06:31.584Z</time></trkpt><trkpt lat="43.1337886" lon="11.4263392"><ele>246.5</ele><time>2026-04-04T12:06:32.589Z</time></trkpt><trkpt lat="43.1336556" lon="11.4264106"><ele>247.75</ele><time>2026-04-04T12:06:33.581Z</time></trkpt><trkpt lat="43.1335211" lon="11.4264502"><ele>249.0</ele><time>2026-04-04T12:06:34.586Z</time></trkpt><trkpt lat="43.1333714" lon="11.4264707"><ele>248.66666666666669</ele><time>2026-04-04T12:06:35.584Z</time></trkpt><trkpt lat="43.1332133" lon="11.4264829"><ele>248.33333333333334</ele><time>2026-04-04T12:06:36.591Z</time></trkpt><trkpt lat="43.1330474" lon="11.4265003"><ele>248.0</ele><time>2026-04-04T12:06:37.584Z</time></trkpt><trkpt lat="43.132878" lon="11.4265146"><ele>248.0</ele><time>2026-04-04T12:06:38.582Z</time></trkpt><trkpt lat="43.1326992" lon="11.4265282"><ele>248.0</ele><time>2026-04-04T12:06:39.579Z</time></trkpt><trkpt lat="43.1325135" lon="11.4265378"><ele>248.0</ele><time>2026-04-04T12:06:40.576Z</time></trkpt><trkpt lat="43.1323248" lon="11.4265403"><ele>248.33333333333334</ele><time>2026-04-04T12:06:41.57Z</time></trkpt><trkpt lat="43.1321317" lon="11.4265435"><ele>248.66666666666669</ele><time>2026-04-04T12:06:42.581Z</time></trkpt><trkpt lat="43.131948" lon="11.4265515"><ele>249.0</ele><time>2026-04-04T12:06:43.59Z</time></trkpt><trkpt lat="43.1317764" lon="11.4265608"><ele>249.0</ele><time>2026-04-04T12:06:44.582Z</time></trkpt><trkpt lat="43.1316163" lon="11.4265688"><ele>249.0</ele><time>2026-04-04T12:06:45.587Z</time></trkpt><trkpt lat="43.1314649" lon="11.4265798"><ele>249.0</ele><time>2026-04-04T12:06:46.576Z</time></trkpt><trkpt lat="43.1313249" lon="11.4266071"><ele>249.25</ele><time>2026-04-04T12:06:47.582Z</time></trkpt><trkpt lat="43.1311988" lon="11.4266577"><ele>249.5</ele><time>2026-04-04T12:06:48.576Z</time></trkpt><trkpt lat="43.1310808" lon="11.4267406"><ele>249.75</ele><time>2026-04-04T12:06:49.574Z</time></trkpt><trkpt lat="43.1309599" lon="11.4268498"><ele>250.0</ele><time>2026-04-04T12:06:50.593Z</time></trkpt><trkpt lat="43.1308332" lon="11.4269847"><ele>249.0</ele><time>2026-04-04T12:06:51.576Z</time></trkpt><trkpt lat="43.1307022" lon="11.4271283"><ele>248.0</ele><time>2026-04-04T12:06:52.585Z</time></trkpt><trkpt lat="43.1305627" lon="11.4272888"><ele>247.0</ele><time>2026-04-04T12:06:53.585Z</time></trkpt><trkpt lat="43.1304206" lon="11.4274556"><ele>247.0</ele><time>2026-04-04T12:06:54.582Z</time></trkpt><trkpt lat="43.1302854" lon="11.4276148"><ele>247.0</ele><time>2026-04-04T12:06:55.579Z</time></trkpt><trkpt lat="43.1301582" lon="11.4277661"><ele>247.0</ele><time>2026-04-04T12:06:56.589Z</time></trkpt><trkpt lat="43.130036" lon="11.4279139"><ele>246.33333333333331</ele><time>2026-04-04T12:06:57.581Z</time></trkpt><trkpt lat="43.129916" lon="11.4280601"><ele>245.66666666666669</ele><time>2026-04-04T12:06:58.579Z</time></trkpt><trkpt lat="43.1297976" lon="11.428208"><ele>245.0</ele><time>2026-04-04T12:06:59.574Z</time></trkpt><trkpt lat="43.1296868" lon="11.4283665"><ele>245.66666666666669</ele><time>2026-04-04T12:07:00.586Z</time></trkpt><trkpt lat="43.1295879" lon="11.4285358"><ele>246.33333333333331</ele><time>2026-04-04T12:07:01.581Z</time></trkpt><trkpt lat="43.1295036" lon="11.4287224"><ele>247.0</ele><time>2026-04-04T12:07:02.571Z</time></trkpt><trkpt lat="43.1294375" lon="11.4289271"><ele>247.0</ele><time>2026-04-04T12:07:03.586Z</time></trkpt><trkpt lat="43.1293757" lon="11.4291426"><ele>247.0</ele><time>2026-04-04T12:07:04.577Z</time></trkpt><trkpt lat="43.1293129" lon="11.4293635"><ele>247.0</ele><time>2026-04-04T12:07:05.572Z</time></trkpt><trkpt lat="43.1292512" lon="11.4295747"><ele>247.0</ele><time>2026-04-04T12:07:06.586Z</time></trkpt><trkpt lat="43.1291878" lon="11.429786"><ele>247.0</ele><time>2026-04-04T12:07:07.577Z</time></trkpt><trkpt lat="43.1291199" lon="11.4300024"><ele>247.0</ele><time>2026-04-04T12:07:08.574Z</time></trkpt><trkpt lat="43.1290527" lon="11.4302296"><ele>247.0</ele><time>2026-04-04T12:07:09.587Z</time></trkpt><trkpt lat="43.1289871" lon="11.4304625"><ele>247.0</ele><time>2026-04-04T12:07:10.574Z</time></trkpt><trkpt lat="43.1289238" lon="11.4307005"><ele>247.0</ele><time>2026-04-04T12:07:11.584Z</time></trkpt><trkpt lat="43.1288626" lon="11.4309449"><ele>250.33333333333331</ele><time>2026-04-04T12:07:12.585Z</time></trkpt><trkpt lat="43.1288047" lon="11.4311942"><ele>253.66666666666669</ele><time>2026-04-04T12:07:13.592Z</time></trkpt><trkpt lat="43.1287505" lon="11.4314346"><ele>257.0</ele><time>2026-04-04T12:07:14.59Z</time></trkpt><trkpt lat="43.1287008" lon="11.43166"><ele>258.33333333333337</ele><time>2026-04-04T12:07:15.586Z</time></trkpt><trkpt lat="43.1286539" lon="11.4318732"><ele>259.6666666666667</ele><time>2026-04-04T12:07:16.597Z</time></trkpt><trkpt lat="43.1286173" lon="11.4320691"><ele>261.0</ele><time>2026-04-04T12:07:17.575Z</time></trkpt><trkpt lat="43.1285975" lon="11.4322617"><ele>261.0</ele><time>2026-04-04T12:07:18.578Z</time></trkpt><trkpt lat="43.1285917" lon="11.4324621"><ele>261.0</ele><time>2026-04-04T12:07:19.594Z</time></trkpt><trkpt lat="43.1286257" lon="11.4326816"><ele>261.0</ele><time>2026-04-04T12:07:20.573Z</time></trkpt><trkpt lat="43.1286533" lon="11.4329052"><ele>261.3333333333333</ele><time>2026-04-04T12:07:21.589Z</time></trkpt><trkpt lat="43.1286758" lon="11.4331386"><ele>261.66666666666663</ele><time>2026-04-04T12:07:22.587Z</time></trkpt><trkpt lat="43.1286967" lon="11.4333728"><ele>262.0</ele><time>2026-04-04T12:07:23.579Z</time></trkpt><trkpt lat="43.1287213" lon="11.4335947"><ele>262.0</ele><time>2026-04-04T12:07:24.58Z</time></trkpt><trkpt lat="43.1287613" lon="11.4338019"><ele>262.0</ele><time>2026-04-04T12:07:25.587Z</time></trkpt><trkpt lat="43.1288241" lon="11.4340038"><ele>262.0</ele><time>2026-04-04T12:07:26.583Z</time></trkpt><trkpt lat="43.128909" lon="11.4342043"><ele>261.66666666666663</ele><time>2026-04-04T12:07:27.57Z</time></trkpt><trkpt lat="43.1290096" lon="11.4344024"><ele>261.3333333333333</ele><time>2026-04-04T12:07:28.57Z</time></trkpt><trkpt lat="43.1291151" lon="11.4346038"><ele>261.0</ele><time>2026-04-04T12:07:29.584Z</time></trkpt><trkpt lat="43.1292141" lon="11.4347975"><ele>259.0</ele><time>2026-04-04T12:07:30.571Z</time></trkpt><trkpt lat="43.1293117" lon="11.4349889"><ele>257.0</ele><time>2026-04-04T12:07:31.579Z</time></trkpt><trkpt lat="43.129414" lon="11.4351849"><ele>255.0</ele><time>2026-04-04T12:07:32.574Z</time></trkpt><trkpt lat="43.1295224" lon="11.435387"><ele>253.66666666666669</ele><time>2026-04-04T12:07:33.584Z</time></trkpt><trkpt lat="43.129629" lon="11.4355893"><ele>252.33333333333334</ele><time>2026-04-04T12:07:34.573Z</time></trkpt><trkpt lat="43.1297275" lon="11.4357856"><ele>251.0</ele><time>2026-04-04T12:07:35.578Z</time></trkpt><trkpt lat="43.1298167" lon="11.4359803"><ele>251.0</ele><time>2026-04-04T12:07:36.579Z</time></trkpt><trkpt lat="43.1298888" lon="11.4361936"><ele>251.0</ele><time>2026-04-04T12:07:37.573Z</time></trkpt><trkpt lat="43.1299375" lon="11.4364271"><ele>251.0</ele><time>2026-04-04T12:07:38.589Z</time></trkpt><trkpt lat="43.1299695" lon="11.4366731"><ele>250.0</ele><time>2026-04-04T12:07:39.583Z</time></trkpt><trkpt lat="43.1299846" lon="11.436919"><ele>249.0</ele><time>2026-04-04T12:07:40.586Z</time></trkpt><trkpt lat="43.1299851" lon="11.43716"><ele>248.0</ele><time>2026-04-04T12:07:41.581Z</time></trkpt><trkpt lat="43.1299835" lon="11.4374008"><ele>247.66666666666669</ele><time>2026-04-04T12:07:42.572Z</time></trkpt><trkpt lat="43.1299954" lon="11.4376518"><ele>247.33333333333331</ele><time>2026-04-04T12:07:43.58Z</time></trkpt><trkpt lat="43.130007" lon="11.4379082"><ele>247.0</ele><time>2026-04-04T12:07:44.582Z</time></trkpt><trkpt lat="43.1300116" lon="11.4381499"><ele>247.0</ele><time>2026-04-04T12:07:45.583Z</time></trkpt><trkpt lat="43.1300192" lon="11.4383961"><ele>247.0</ele><time>2026-04-04T12:07:46.587Z</time></trkpt><trkpt lat="43.1300289" lon="11.4386459"><ele>247.0</ele><time>2026-04-04T12:07:47.577Z</time></trkpt><trkpt lat="43.1300354" lon="11.4388959"><ele>247.66666666666666</ele><time>2026-04-04T12:07:48.584Z</time></trkpt><trkpt lat="43.1300462" lon="11.4391451"><ele>248.33333333333331</ele><time>2026-04-04T12:07:49.577Z</time></trkpt><trkpt lat="43.1300634" lon="11.439389"><ele>249.0</ele><time>2026-04-04T12:07:50.584Z</time></trkpt><trkpt lat="43.1300783" lon="11.439615"><ele>250.0</ele><time>2026-04-04T12:07:51.581Z</time></trkpt><trkpt lat="43.1300901" lon="11.4398384"><ele>251.0</ele><time>2026-04-04T12:07:52.581Z</time></trkpt><trkpt lat="43.1301001" lon="11.4400763"><ele>252.0</ele><time>2026-04-04T12:07:53.578Z</time></trkpt><trkpt lat="43.1301125" lon="11.4403194"><ele>253.0</ele><time>2026-04-04T12:07:54.58Z</time></trkpt><trkpt lat="43.1301212" lon="11.4405477"><ele>254.0</ele><time>2026-04-04T12:07:55.588Z</time></trkpt><trkpt lat="43.1301288" lon="11.4407657"><ele>255.0</ele><time>2026-04-04T12:07:56.578Z</time></trkpt><trkpt lat="43.1301369" lon="11.4409733"><ele>255.0</ele><time>2026-04-04T12:07:57.583Z</time></trkpt><trkpt lat="43.1301484" lon="11.4411705"><ele>255.0</ele><time>2026-04-04T12:07:58.585Z</time></trkpt><trkpt lat="43.1301534" lon="11.441359"><ele>255.0</ele><time>2026-04-04T12:07:59.576Z</time></trkpt><trkpt lat="43.1301455" lon="11.4415382"><ele>255.0</ele><time>2026-04-04T12:08:00.572Z</time></trkpt><trkpt lat="43.1301144" lon="11.441719"><ele>254.25</ele><time>2026-04-04T12:08:01.583Z</time></trkpt><trkpt lat="43.1300671" lon="11.4418983"><ele>253.5</ele><time>2026-04-04T12:08:02.579Z</time></trkpt><trkpt lat="43.1300033" lon="11.442061"><ele>252.75</ele><time>2026-04-04T12:08:03.578Z</time></trkpt><trkpt lat="43.1299261" lon="11.4422032"><ele>252.0</ele><time>2026-04-04T12:08:04.577Z</time></trkpt><trkpt lat="43.1298364" lon="11.4423381"><ele>251.5</ele><time>2026-04-04T12:08:05.586Z</time></trkpt><trkpt lat="43.1297378" lon="11.4424723"><ele>251.0</ele><time>2026-04-04T12:08:06.585Z</time></trkpt><trkpt lat="43.1296248" lon="11.442609"><ele>250.5</ele><time>2026-04-04T12:08:07.585Z</time></trkpt><trkpt lat="43.1295115" lon="11.4427579"><ele>250.0</ele><time>2026-04-04T12:08:08.584Z</time></trkpt><trkpt lat="43.1293946" lon="11.4429066"><ele>250.0</ele><time>2026-04-04T12:08:09.572Z</time></trkpt><trkpt lat="43.1292732" lon="11.443056"><ele>250.0</ele><time>2026-04-04T12:08:10.579Z</time></trkpt><trkpt lat="43.1291481" lon="11.4432119"><ele>250.0</ele><time>2026-04-04T12:08:11.571Z</time></trkpt><trkpt lat="43.1290186" lon="11.4433638"><ele>250.66666666666666</ele><time>2026-04-04T12:08:12.573Z</time></trkpt><trkpt lat="43.1288913" lon="11.4435006"><ele>251.33333333333331</ele><time>2026-04-04T12:08:13.575Z</time></trkpt><trkpt lat="43.128767" lon="11.4436238"><ele>252.0</ele><time>2026-04-04T12:08:14.584Z</time></trkpt><trkpt lat="43.1286478" lon="11.4437526"><ele>251.33333333333331</ele><time>2026-04-04T12:08:15.586Z</time></trkpt><trkpt lat="43.128525" lon="11.4438773"><ele>250.66666666666666</ele><time>2026-04-04T12:08:16.593Z</time></trkpt><trkpt lat="43.1284004" lon="11.4439954"><ele>250.0</ele><time>2026-04-04T12:08:17.585Z</time></trkpt><trkpt lat="43.1282709" lon="11.4441165"><ele>248.66666666666666</ele><time>2026-04-04T12:08:18.583Z</time></trkpt><trkpt lat="43.128141" lon="11.4442413"><ele>247.33333333333331</ele><time>2026-04-04T12:08:19.578Z</time></trkpt><trkpt lat="43.1280099" lon="11.4443704"><ele>246.0</ele><time>2026-04-04T12:08:20.577Z</time></trkpt><trkpt lat="43.1278722" lon="11.4445016"><ele>245.0</ele><time>2026-04-04T12:08:21.577Z</time></trkpt><trkpt lat="43.1277319" lon="11.4446302"><ele>244.0</ele><time>2026-04-04T12:08:22.584Z</time></trkpt><trkpt lat="43.1275938" lon="11.4447629"><ele>243.0</ele><time>2026-04-04T12:08:23.573Z</time></trkpt><trkpt lat="43.1274639" lon="11.4448923"><ele>243.0</ele><time>2026-04-04T12:08:24.572Z</time></trkpt><trkpt lat="43.1273401" lon="11.4450211"><ele>243.0</ele><time>2026-04-04T12:08:25.58Z</time></trkpt><trkpt lat="43.1272302" lon="11.4451593"><ele>243.0</ele><time>2026-04-04T12:08:26.58Z</time></trkpt><trkpt lat="43.1271461" lon="11.4453107"><ele>243.0</ele><time>2026-04-04T12:08:27.585Z</time></trkpt><trkpt lat="43.1270806" lon="11.4454862"><ele>242.75</ele><time>2026-04-04T12:08:28.584Z</time></trkpt><trkpt lat="43.1270275" lon="11.4456775"><ele>242.5</ele><time>2026-04-04T12:08:29.579Z</time></trkpt><trkpt lat="43.1269842" lon="11.4458677"><ele>242.25</ele><time>2026-04-04T12:08:30.572Z</time></trkpt><trkpt lat="43.1269361" lon="11.4460513"><ele>242.0</ele><time>2026-04-04T12:08:31.577Z</time></trkpt><trkpt lat="43.1268752" lon="11.4462179"><ele>240.75</ele><time>2026-04-04T12:08:32.583Z</time></trkpt><trkpt lat="43.1268017" lon="11.4463663"><ele>239.5</ele><time>2026-04-04T12:08:33.572Z</time></trkpt><trkpt lat="43.1267119" lon="11.4465061"><ele>238.25</ele><time>2026-04-04T12:08:34.583Z</time></trkpt><trkpt lat="43.1266029" lon="11.4466427"><ele>237.0</ele><time>2026-04-04T12:08:35.575Z</time></trkpt><trkpt lat="43.1264803" lon="11.446776"><ele>236.33333333333331</ele><time>2026-04-04T12:08:36.581Z</time></trkpt><trkpt lat="43.1263494" lon="11.4469171"><ele>235.66666666666666</ele><time>2026-04-04T12:08:37.582Z</time></trkpt><trkpt lat="43.126216" lon="11.4470675"><ele>235.0</ele><time>2026-04-04T12:08:38.573Z</time></trkpt><trkpt lat="43.1260867" lon="11.4472059"><ele>235.0</ele><time>2026-04-04T12:08:39.59Z</time></trkpt><trkpt lat="43.1259627" lon="11.447337"><ele>235.0</ele><time>2026-04-04T12:08:40.582Z</time></trkpt><trkpt lat="43.1258467" lon="11.4474722"><ele>235.0</ele><time>2026-04-04T12:08:41.58Z</time></trkpt><trkpt lat="43.1257246" lon="11.4476076"><ele>234.66666666666666</ele><time>2026-04-04T12:08:42.578Z</time></trkpt><trkpt lat="43.1255991" lon="11.4477389"><ele>234.33333333333331</ele><time>2026-04-04T12:08:43.584Z</time></trkpt><trkpt lat="43.1254708" lon="11.4478699"><ele>234.0</ele><time>2026-04-04T12:08:44.579Z</time></trkpt><trkpt lat="43.1253507" lon="11.4479995"><ele>235.25</ele><time>2026-04-04T12:08:45.585Z</time></trkpt><trkpt lat="43.1252381" lon="11.4481215"><ele>236.5</ele><time>2026-04-04T12:08:46.585Z</time></trkpt><trkpt lat="43.1251355" lon="11.4482353"><ele>237.75</ele><time>2026-04-04T12:08:47.587Z</time></trkpt><trkpt lat="43.1250433" lon="11.448333"><ele>239.0</ele><time>2026-04-04T12:08:48.587Z</time></trkpt><trkpt lat="43.1249684" lon="11.4484117"><ele>239.00000000000003</ele><time>2026-04-04T12:08:49.586Z</time></trkpt><trkpt lat="43.1249105" lon="11.4484743"><ele>239.0</ele><time>2026-04-04T12:08:50.585Z</time></trkpt><trkpt lat="43.1248422" lon="11.4485795"><ele>239.0</ele><time>2026-04-04T12:08:52.578Z</time></trkpt><trkpt lat="43.1248147" lon="11.4486581"><ele>239.0</ele><time>2026-04-04T12:08:54.587Z</time></trkpt><trkpt lat="43.1248115" lon="11.4487517"><ele>239.00000000000003</ele><time>2026-04-04T12:08:57.586Z</time></trkpt><trkpt lat="43.1248862" lon="11.44885"><ele>239.0</ele><time>2026-04-04T12:08:59.589Z</time></trkpt><trkpt lat="43.1249603" lon="11.4488907"><ele>239.0</ele><time>2026-04-04T12:09:00.573Z</time></trkpt><trkpt lat="43.1250484" lon="11.44893"><ele>238.99999999999997</ele><time>2026-04-04T12:09:01.591Z</time></trkpt><trkpt lat="43.1251483" lon="11.4489743"><ele>238.99999999999997</ele><time>2026-04-04T12:09:02.578Z</time></trkpt><trkpt lat="43.1252594" lon="11.4490168"><ele>239.0</ele><time>2026-04-04T12:09:03.592Z</time></trkpt><trkpt lat="43.1253698" lon="11.4490508"><ele>239.0</ele><time>2026-04-04T12:09:04.577Z</time></trkpt><trkpt lat="43.1254723" lon="11.4490858"><ele>239.0</ele><time>2026-04-04T12:09:05.593Z</time></trkpt><trkpt lat="43.1255737" lon="11.4491209"><ele>238.99999999999997</ele><time>2026-04-04T12:09:06.582Z</time></trkpt><trkpt lat="43.1256782" lon="11.4491578"><ele>238.99999999999997</ele><time>2026-04-04T12:09:07.571Z</time></trkpt><trkpt lat="43.1257854" lon="11.4492037"><ele>239.0</ele><time>2026-04-04T12:09:08.586Z</time></trkpt><trkpt lat="43.1258862" lon="11.4492593"><ele>239.0</ele><time>2026-04-04T12:09:09.578Z</time></trkpt><trkpt lat="43.1259731" lon="11.4493324"><ele>239.25</ele><time>2026-04-04T12:09:10.592Z</time></trkpt><trkpt lat="43.1260473" lon="11.4494229"><ele>239.5</ele><time>2026-04-04T12:09:11.581Z</time></trkpt><trkpt lat="43.1261189" lon="11.4495398"><ele>239.75</ele><time>2026-04-04T12:09:12.577Z</time></trkpt><trkpt lat="43.1261796" lon="11.4496899"><ele>240.0</ele><time>2026-04-04T12:09:13.569Z</time></trkpt><trkpt lat="43.1262328" lon="11.4498629"><ele>237.75</ele><time>2026-04-04T12:09:14.577Z</time></trkpt><trkpt lat="43.126289" lon="11.4500446"><ele>235.5</ele><time>2026-04-04T12:09:15.583Z</time></trkpt><trkpt lat="43.1263466" lon="11.4502282"><ele>233.25</ele><time>2026-04-04T12:09:16.585Z</time></trkpt><trkpt lat="43.126399" lon="11.4504083"><ele>231.0</ele><time>2026-04-04T12:09:17.585Z</time></trkpt><trkpt lat="43.1264509" lon="11.4505849"><ele>229.75</ele><time>2026-04-04T12:09:18.583Z</time></trkpt><trkpt lat="43.1265074" lon="11.4507601"><ele>228.5</ele><time>2026-04-04T12:09:19.576Z</time></trkpt><trkpt lat="43.1265638" lon="11.4509386"><ele>227.25</ele><time>2026-04-04T12:09:20.576Z</time></trkpt><trkpt lat="43.1266218" lon="11.4511297"><ele>226.0</ele><time>2026-04-04T12:09:21.588Z</time></trkpt><trkpt lat="43.1266751" lon="11.4513354"><ele>225.66666666666666</ele><time>2026-04-04T12:09:22.585Z</time></trkpt><trkpt lat="43.1267107" lon="11.4515456"><ele>225.33333333333331</ele><time>2026-04-04T12:09:23.588Z</time></trkpt><trkpt lat="43.1267285" lon="11.4517549"><ele>225.0</ele><time>2026-04-04T12:09:24.587Z</time></trkpt><trkpt lat="43.1267421" lon="11.4519538"><ele>224.25</ele><time>2026-04-04T12:09:25.587Z</time></trkpt><trkpt lat="43.1267622" lon="11.4521444"><ele>223.5</ele><time>2026-04-04T12:09:26.575Z</time></trkpt><trkpt lat="43.1267738" lon="11.4523279"><ele>222.75</ele><time>2026-04-04T12:09:27.587Z</time></trkpt><trkpt lat="43.1267751" lon="11.4525099"><ele>222.0</ele><time>2026-04-04T12:09:28.593Z</time></trkpt><trkpt lat="43.1267685" lon="11.4526948"><ele>222.0</ele><time>2026-04-04T12:09:29.58Z</time></trkpt><trkpt lat="43.1267636" lon="11.4528796"><ele>222.0</ele><time>2026-04-04T12:09:30.58Z</time></trkpt><trkpt lat="43.1267651" lon="11.4530666"><ele>222.0</ele><time>2026-04-04T12:09:31.581Z</time></trkpt><trkpt lat="43.1267696" lon="11.4532594"><ele>222.0</ele><time>2026-04-04T12:09:32.583Z</time></trkpt><trkpt lat="43.1267737" lon="11.4534475"><ele>221.25</ele><time>2026-04-04T12:09:33.589Z</time></trkpt><trkpt lat="43.1267796" lon="11.4536199"><ele>220.5</ele><time>2026-04-04T12:09:34.581Z</time></trkpt><trkpt lat="43.1267886" lon="11.4537771"><ele>219.75</ele><time>2026-04-04T12:09:35.592Z</time></trkpt><trkpt lat="43.1267999" lon="11.4539391"><ele>219.0</ele><time>2026-04-04T12:09:36.573Z</time></trkpt><trkpt lat="43.1268167" lon="11.454092"><ele>217.5</ele><time>2026-04-04T12:09:37.584Z</time></trkpt><trkpt lat="43.1268488" lon="11.4542436"><ele>216.0</ele><time>2026-04-04T12:09:38.591Z</time></trkpt><trkpt lat="43.1269007" lon="11.4543913"><ele>214.5</ele><time>2026-04-04T12:09:39.588Z</time></trkpt><trkpt lat="43.1269679" lon="11.454535"><ele>213.0</ele><time>2026-04-04T12:09:40.59Z</time></trkpt><trkpt lat="43.1270414" lon="11.454671"><ele>210.75</ele><time>2026-04-04T12:09:41.577Z</time></trkpt><trkpt lat="43.1271257" lon="11.4547949"><ele>208.5</ele><time>2026-04-04T12:09:42.579Z</time></trkpt><trkpt lat="43.1272182" lon="11.4548951"><ele>206.25</ele><time>2026-04-04T12:09:43.582Z</time></trkpt><trkpt lat="43.1273239" lon="11.4549778"><ele>204.0</ele><time>2026-04-04T12:09:44.576Z</time></trkpt><trkpt lat="43.127443" lon="11.4550428"><ele>201.25</ele><time>2026-04-04T12:09:45.584Z</time></trkpt><trkpt lat="43.1275723" lon="11.4551013"><ele>198.5</ele><time>2026-04-04T12:09:46.575Z</time></trkpt><trkpt lat="43.1277121" lon="11.4551677"><ele>195.75</ele><time>2026-04-04T12:09:47.587Z</time></trkpt><trkpt lat="43.1278485" lon="11.4552339"><ele>193.0</ele><time>2026-04-04T12:09:48.583Z</time></trkpt><trkpt lat="43.1279811" lon="11.4552973"><ele>193.0</ele><time>2026-04-04T12:09:49.59Z</time></trkpt><trkpt lat="43.1281073" lon="11.4553582"><ele>193.0</ele><time>2026-04-04T12:09:50.575Z</time></trkpt><trkpt lat="43.1282325" lon="11.4554169"><ele>193.0</ele><time>2026-04-04T12:09:51.589Z</time></trkpt><trkpt lat="43.1283516" lon="11.4554836"><ele>193.0</ele><time>2026-04-04T12:09:52.586Z</time></trkpt><trkpt lat="43.1284603" lon="11.4555679"><ele>188.5</ele><time>2026-04-04T12:09:53.592Z</time></trkpt><trkpt lat="43.1285565" lon="11.4556709"><ele>184.0</ele><time>2026-04-04T12:09:54.585Z</time></trkpt><trkpt lat="43.1286381" lon="11.4557962"><ele>179.5</ele><time>2026-04-04T12:09:55.585Z</time></trkpt><trkpt lat="43.128711" lon="11.4559316"><ele>175.0</ele><time>2026-04-04T12:09:56.581Z</time></trkpt><trkpt lat="43.1287847" lon="11.4560658"><ele>175.0</ele><time>2026-04-04T12:09:57.59Z</time></trkpt><trkpt lat="43.1288575" lon="11.4562018"><ele>175.0</ele><time>2026-04-04T12:09:58.584Z</time></trkpt><trkpt lat="43.128936" lon="11.4563466"><ele>175.0</ele><time>2026-04-04T12:09:59.579Z</time></trkpt><trkpt lat="43.1290216" lon="11.4564898"><ele>175.0</ele><time>2026-04-04T12:10:00.587Z</time></trkpt><trkpt lat="43.1291007" lon="11.4566262"><ele>172.0</ele><time>2026-04-04T12:10:01.581Z</time></trkpt><trkpt lat="43.129179" lon="11.4567583"><ele>169.0</ele><time>2026-04-04T12:10:02.584Z</time></trkpt><trkpt lat="43.1292742" lon="11.4569049"><ele>166.0</ele><time>2026-04-04T12:10:03.585Z</time></trkpt><trkpt lat="43.1293836" lon="11.4570842"><ele>163.0</ele><time>2026-04-04T12:10:04.601Z</time></trkpt><trkpt lat="43.1294923" lon="11.4572926"><ele>162.33333333333334</ele><time>2026-04-04T12:10:05.586Z</time></trkpt><trkpt lat="43.1295917" lon="11.457495"><ele>161.66666666666666</ele><time>2026-04-04T12:10:06.582Z</time></trkpt><trkpt lat="43.1296845" lon="11.4576719"><ele>161.0</ele><time>2026-04-04T12:10:07.581Z</time></trkpt><trkpt lat="43.1297721" lon="11.457827"><ele>160.20000000000002</ele><time>2026-04-04T12:10:08.585Z</time></trkpt><trkpt lat="43.1298503" lon="11.4579657"><ele>159.4</ele><time>2026-04-04T12:10:09.583Z</time></trkpt><trkpt lat="43.1299143" lon="11.4580822"><ele>158.6</ele><time>2026-04-04T12:10:10.594Z</time></trkpt><trkpt lat="43.1299657" lon="11.4581756"><ele>157.8</ele><time>2026-04-04T12:10:11.58Z</time></trkpt><trkpt lat="43.130005" lon="11.4582502"><ele>157.0</ele><time>2026-04-04T12:10:12.586Z</time></trkpt><trkpt lat="43.1300227" lon="11.4583753"><ele>155.5</ele><time>2026-04-04T12:10:14.592Z</time></trkpt><trkpt lat="43.1300191" lon="11.4585123"><ele>154.0</ele><time>2026-04-04T12:10:16.581Z</time></trkpt><trkpt lat="43.1300466" lon="11.4586857"><ele>152.5</ele><time>2026-04-04T12:10:18.592Z</time></trkpt><trkpt lat="43.1300827" lon="11.4588248"><ele>151.0</ele><time>2026-04-04T12:10:19.582Z</time></trkpt><trkpt lat="43.1301296" lon="11.4589978"><ele>149.5</ele><time>2026-04-04T12:10:20.587Z</time></trkpt><trkpt lat="43.1301775" lon="11.4591854"><ele>148.0</ele><time>2026-04-04T12:10:21.58Z</time></trkpt><trkpt lat="43.1302202" lon="11.459365"><ele>146.5</ele><time>2026-04-04T12:10:22.586Z</time></trkpt><trkpt lat="43.1302596" lon="11.4595366"><ele>145.0</ele><time>2026-04-04T12:10:23.589Z</time></trkpt><trkpt lat="43.1302964" lon="11.4596974"><ele>144.75</ele><time>2026-04-04T12:10:24.581Z</time></trkpt><trkpt lat="43.1303376" lon="11.4598746"><ele>144.5</ele><time>2026-04-04T12:10:25.583Z</time></trkpt><trkpt lat="43.1303737" lon="11.4600408"><ele>144.25</ele><time>2026-04-04T12:10:26.585Z</time></trkpt><trkpt lat="43.1304084" lon="11.4602127"><ele>144.0</ele><time>2026-04-04T12:10:27.581Z</time></trkpt><trkpt lat="43.1304408" lon="11.4603677"><ele>143.8</ele><time>2026-04-04T12:10:28.58Z</time></trkpt><trkpt lat="43.1304744" lon="11.4604973"><ele>143.60000000000002</ele><time>2026-04-04T12:10:29.582Z</time></trkpt><trkpt lat="43.1305067" lon="11.4605972"><ele>143.4</ele><time>2026-04-04T12:10:30.581Z</time></trkpt><trkpt lat="43.1305729" lon="11.4607273"><ele>143.20000000000002</ele><time>2026-04-04T12:10:32.587Z</time></trkpt><trkpt lat="43.1306819" lon="11.4607871"><ele>143.0</ele><time>2026-04-04T12:10:34.578Z</time></trkpt><trkpt lat="43.1307478" lon="11.4608017"><ele>143.0</ele><time>2026-04-04T12:10:35.581Z</time></trkpt><trkpt lat="43.130826" lon="11.4608228"><ele>143.0</ele><time>2026-04-04T12:10:36.592Z</time></trkpt><trkpt lat="43.1308964" lon="11.4608443"><ele>143.0</ele><time>2026-04-04T12:10:37.582Z</time></trkpt><trkpt lat="43.1309968" lon="11.460894"><ele>143.0</ele><time>2026-04-04T12:10:39.577Z</time></trkpt><trkpt lat="43.131092" lon="11.4610049"><ele>143.0</ele><time>2026-04-04T12:10:41.583Z</time></trkpt><trkpt lat="43.131143" lon="11.4611057"><ele>143.0</ele><time>2026-04-04T12:10:42.576Z</time></trkpt><trkpt lat="43.1312043" lon="11.4612249"><ele>143.0</ele><time>2026-04-04T12:10:43.585Z</time></trkpt><trkpt lat="43.1312771" lon="11.4613474"><ele>143.0</ele><time>2026-04-04T12:10:44.588Z</time></trkpt><trkpt lat="43.13135" lon="11.4614382"><ele>143.0</ele><time>2026-04-04T12:10:45.587Z</time></trkpt><trkpt lat="43.1314265" lon="11.4615067"><ele>143.0</ele><time>2026-04-04T12:10:46.581Z</time></trkpt><trkpt lat="43.1315117" lon="11.4615501"><ele>143.6</ele><time>2026-04-04T12:10:47.583Z</time></trkpt><trkpt lat="43.1316202" lon="11.4615719"><ele>144.20000000000002</ele><time>2026-04-04T12:10:48.588Z</time></trkpt><trkpt lat="43.1317253" lon="11.4615854"><ele>144.8</ele><time>2026-04-04T12:10:49.583Z</time></trkpt><trkpt lat="43.1318106" lon="11.4615968"><ele>145.4</ele><time>2026-04-04T12:10:50.582Z</time></trkpt><trkpt lat="43.1318848" lon="11.461619"><ele>146.0</ele><time>2026-04-04T12:10:51.586Z</time></trkpt><trkpt lat="43.131956" lon="11.4616711"><ele>146.0</ele><time>2026-04-04T12:10:52.586Z</time></trkpt><trkpt lat="43.132008" lon="11.4617588"><ele>146.0</ele><time>2026-04-04T12:10:53.577Z</time></trkpt><trkpt lat="43.1320543" lon="11.4618637"><ele>146.0</ele><time>2026-04-04T12:10:54.576Z</time></trkpt><trkpt lat="43.1321148" lon="11.4619759"><ele>146.0</ele><time>2026-04-04T12:10:55.58Z</time></trkpt><trkpt lat="43.1321736" lon="11.4621066"><ele>146.0</ele><time>2026-04-04T12:10:56.588Z</time></trkpt><trkpt lat="43.1322362" lon="11.4622496"><ele>145.75</ele><time>2026-04-04T12:10:57.588Z</time></trkpt><trkpt lat="43.132298" lon="11.4624046"><ele>145.5</ele><time>2026-04-04T12:10:58.581Z</time></trkpt><trkpt lat="43.1323616" lon="11.4625726"><ele>145.25</ele><time>2026-04-04T12:10:59.586Z</time></trkpt><trkpt lat="43.1324312" lon="11.4627482"><ele>145.0</ele><time>2026-04-04T12:11:00.583Z</time></trkpt><trkpt lat="43.1325074" lon="11.4629317"><ele>145.0</ele><time>2026-04-04T12:11:01.576Z</time></trkpt><trkpt lat="43.1325846" lon="11.4631122"><ele>145.0</ele><time>2026-04-04T12:11:02.586Z</time></trkpt><trkpt lat="43.1326583" lon="11.4632759"><ele>145.0</ele><time>2026-04-04T12:11:03.579Z</time></trkpt><trkpt lat="43.1327314" lon="11.4634293"><ele>145.0</ele><time>2026-04-04T12:11:04.581Z</time></trkpt><trkpt lat="43.1328068" lon="11.4635878"><ele>145.0</ele><time>2026-04-04T12:11:05.581Z</time></trkpt><trkpt lat="43.1328926" lon="11.4637729"><ele>145.0</ele><time>2026-04-04T12:11:06.584Z</time></trkpt><trkpt lat="43.1329752" lon="11.4639816"><ele>145.0</ele><time>2026-04-04T12:11:07.572Z</time></trkpt><trkpt lat="43.1330376" lon="11.4642249"><ele>144.66666666666669</ele><time>2026-04-04T12:11:08.578Z</time></trkpt><trkpt lat="43.1330827" lon="11.4644911"><ele>144.33333333333334</ele><time>2026-04-04T12:11:09.579Z</time></trkpt><trkpt lat="43.1331281" lon="11.4647757"><ele>144.0</ele><time>2026-04-04T12:11:10.582Z</time></trkpt><trkpt lat="43.1331851" lon="11.4650659"><ele>144.0</ele><time>2026-04-04T12:11:11.578Z</time></trkpt><trkpt lat="43.1332426" lon="11.4653688"><ele>144.0</ele><time>2026-04-04T12:11:12.578Z</time></trkpt><trkpt lat="43.1333002" lon="11.4656815"><ele>144.0</ele><time>2026-04-04T12:11:13.585Z</time></trkpt><trkpt lat="43.1333524" lon="11.4659824"><ele>144.0</ele><time>2026-04-04T12:11:14.58Z</time></trkpt><trkpt lat="43.1334033" lon="11.4662695"><ele>144.0</ele><time>2026-04-04T12:11:15.578Z</time></trkpt><trkpt lat="43.1334543" lon="11.4665457"><ele>143.66666666666666</ele><time>2026-04-04T12:11:16.576Z</time></trkpt><trkpt lat="43.1335054" lon="11.466821"><ele>143.33333333333331</ele><time>2026-04-04T12:11:17.58Z</time></trkpt><trkpt lat="43.1335594" lon="11.4671017"><ele>143.0</ele><time>2026-04-04T12:11:18.58Z</time></trkpt><trkpt lat="43.1336134" lon="11.4673909"><ele>142.66666666666666</ele><time>2026-04-04T12:11:19.589Z</time></trkpt><trkpt lat="43.1336701" lon="11.4676875"><ele>142.33333333333334</ele><time>2026-04-04T12:11:20.592Z</time></trkpt><trkpt lat="43.1337266" lon="11.4679847"><ele>142.0</ele><time>2026-04-04T12:11:21.582Z</time></trkpt><trkpt lat="43.1337787" lon="11.4682659"><ele>142.0</ele><time>2026-04-04T12:11:22.58Z</time></trkpt><trkpt lat="43.1338293" lon="11.4685345"><ele>142.0</ele><time>2026-04-04T12:11:23.581Z</time></trkpt><trkpt lat="43.13388" lon="11.4688022"><ele>142.0</ele><time>2026-04-04T12:11:24.584Z</time></trkpt><trkpt lat="43.1339315" lon="11.4690731"><ele>142.0</ele><time>2026-04-04T12:11:25.582Z</time></trkpt><trkpt lat="43.1339841" lon="11.4693434"><ele>142.0</ele><time>2026-04-04T12:11:26.582Z</time></trkpt><trkpt lat="43.1340345" lon="11.4696014"><ele>142.0</ele><time>2026-04-04T12:11:27.593Z</time></trkpt><trkpt lat="43.1340842" lon="11.4698497"><ele>141.66666666666669</ele><time>2026-04-04T12:11:28.587Z</time></trkpt><trkpt lat="43.1341342" lon="11.4701021"><ele>141.33333333333334</ele><time>2026-04-04T12:11:29.584Z</time></trkpt><trkpt lat="43.1341855" lon="11.4703592"><ele>141.0</ele><time>2026-04-04T12:11:30.586Z</time></trkpt><trkpt lat="43.1342394" lon="11.4706284"><ele>140.66666666666666</ele><time>2026-04-04T12:11:31.577Z</time></trkpt><trkpt lat="43.1342929" lon="11.4709105"><ele>140.33333333333331</ele><time>2026-04-04T12:11:32.582Z</time></trkpt><trkpt lat="43.1343466" lon="11.4712027"><ele>140.0</ele><time>2026-04-04T12:11:33.582Z</time></trkpt><trkpt lat="43.1344029" lon="11.4715008"><ele>139.0</ele><time>2026-04-04T12:11:34.591Z</time></trkpt><trkpt lat="43.1344615" lon="11.4718069"><ele>138.0</ele><time>2026-04-04T12:11:35.584Z</time></trkpt><trkpt lat="43.1345201" lon="11.4721109"><ele>138.0</ele><time>2026-04-04T12:11:36.588Z</time></trkpt><trkpt lat="43.1345788" lon="11.4723998"><ele>138.0</ele><time>2026-04-04T12:11:37.585Z</time></trkpt><trkpt lat="43.1346314" lon="11.4726718"><ele>138.0</ele><time>2026-04-04T12:11:38.583Z</time></trkpt><trkpt lat="43.1346797" lon="11.4729441"><ele>138.0</ele><time>2026-04-04T12:11:39.584Z</time></trkpt><trkpt lat="43.1347284" lon="11.4732185"><ele>138.0</ele><time>2026-04-04T12:11:40.582Z</time></trkpt><trkpt lat="43.1347825" lon="11.4735022"><ele>138.0</ele><time>2026-04-04T12:11:41.578Z</time></trkpt><trkpt lat="43.134838" lon="11.47379"><ele>138.0</ele><time>2026-04-04T12:11:42.584Z</time></trkpt><trkpt lat="43.1348923" lon="11.4740847"><ele>138.0</ele><time>2026-04-04T12:11:43.582Z</time></trkpt><trkpt lat="43.134948" lon="11.4743798"><ele>138.0</ele><time>2026-04-04T12:11:44.59Z</time></trkpt><trkpt lat="43.1350018" lon="11.4746576"><ele>138.0</ele><time>2026-04-04T12:11:45.583Z</time></trkpt><trkpt lat="43.1350552" lon="11.4749185"><ele>138.0</ele><time>2026-04-04T12:11:46.586Z</time></trkpt><trkpt lat="43.135107" lon="11.4751609"><ele>138.0</ele><time>2026-04-04T12:11:47.585Z</time></trkpt><trkpt lat="43.1351575" lon="11.4753703"><ele>138.0</ele><time>2026-04-04T12:11:48.58Z</time></trkpt><trkpt lat="43.1352085" lon="11.4755706"><ele>138.0</ele><time>2026-04-04T12:11:49.577Z</time></trkpt><trkpt lat="43.1352607" lon="11.4757689"><ele>138.0</ele><time>2026-04-04T12:11:50.582Z</time></trkpt><trkpt lat="43.1353155" lon="11.4759749"><ele>138.0</ele><time>2026-04-04T12:11:51.585Z</time></trkpt><trkpt lat="43.1353718" lon="11.4761898"><ele>138.0</ele><time>2026-04-04T12:11:52.579Z</time></trkpt><trkpt lat="43.1354297" lon="11.4764104"><ele>138.0</ele><time>2026-04-04T12:11:53.591Z</time></trkpt><trkpt lat="43.1354829" lon="11.4766409"><ele>138.66666666666666</ele><time>2026-04-04T12:11:54.584Z</time></trkpt><trkpt lat="43.135531" lon="11.4768778"><ele>139.33333333333331</ele><time>2026-04-04T12:11:55.58Z</time></trkpt><trkpt lat="43.1355787" lon="11.4771041"><ele>140.0</ele><time>2026-04-04T12:11:56.571Z</time></trkpt><trkpt lat="43.1356272" lon="11.4773234"><ele>140.66666666666666</ele><time>2026-04-04T12:11:57.575Z</time></trkpt><trkpt lat="43.1356734" lon="11.4775477"><ele>141.33333333333334</ele><time>2026-04-04T12:11:58.576Z</time></trkpt><trkpt lat="43.1357191" lon="11.4777697"><ele>142.0</ele><time>2026-04-04T12:11:59.581Z</time></trkpt><trkpt lat="43.1357623" lon="11.4779807"><ele>143.0</ele><time>2026-04-04T12:12:00.58Z</time></trkpt><trkpt lat="43.1358076" lon="11.4781983"><ele>144.0</ele><time>2026-04-04T12:12:01.575Z</time></trkpt><trkpt lat="43.1358524" lon="11.4784189"><ele>145.0</ele><time>2026-04-04T12:12:02.588Z</time></trkpt><trkpt lat="43.1359017" lon="11.4786501"><ele>145.0</ele><time>2026-04-04T12:12:03.576Z</time></trkpt><trkpt lat="43.1359501" lon="11.4788739"><ele>144.0</ele><time>2026-04-04T12:12:04.568Z</time></trkpt><trkpt lat="43.1360025" lon="11.4790825"><ele>144.0</ele><time>2026-04-04T12:12:05.584Z</time></trkpt></trkseg><trkseg><trkpt lat="43.1393779" lon="11.4915361"><ele>206.00000000000003</ele><time>2026-04-04T13:58:20.578Z</time></trkpt><trkpt lat="43.1393097" lon="11.4915839"><ele>206.0</ele><time>2026-04-04T14:05:18.583Z</time></trkpt><trkpt lat="43.1393757" lon="11.4915998"><ele>206.0</ele><time>2026-04-04T14:05:23.597Z</time></trkpt><trkpt lat="43.1393801" lon="11.4914765"><ele>206.0</ele><time>2026-04-04T14:05:26.586Z</time></trkpt><trkpt lat="43.1393795" lon="11.4913775"><ele>206.00000000000003</ele><time>2026-04-04T14:05:28.584Z</time></trkpt><trkpt lat="43.1393935" lon="11.4912732"><ele>206.0</ele><time>2026-04-04T14:05:31.582Z</time></trkpt><trkpt lat="43.1393851" lon="11.4911629"><ele>205.33333333333334</ele><time>2026-04-04T14:05:34.58Z</time></trkpt><trkpt lat="43.1393217" lon="11.4910838"><ele>204.66666666666669</ele><time>2026-04-04T14:05:37.588Z</time></trkpt><trkpt lat="43.1392417" lon="11.4910363"><ele>204.0</ele><time>2026-04-04T14:05:40.583Z</time></trkpt><trkpt lat="43.1391674" lon="11.4909977"><ele>203.33333333333331</ele><time>2026-04-04T14:05:43.581Z</time></trkpt><trkpt lat="43.1390984" lon="11.490959"><ele>202.66666666666666</ele><time>2026-04-04T14:05:46.584Z</time></trkpt><trkpt lat="43.13903" lon="11.4908955"><ele>202.0</ele><time>2026-04-04T14:05:49.585Z</time></trkpt><trkpt lat="43.1389701" lon="11.4908532"><ele>200.16666666666666</ele><time>2026-04-04T14:05:51.583Z</time></trkpt><trkpt lat="43.1388819" lon="11.4908289"><ele>198.33333333333331</ele><time>2026-04-04T14:05:53.59Z</time></trkpt><trkpt lat="43.1387575" lon="11.4908132"><ele>196.5</ele><time>2026-04-04T14:05:55.597Z</time></trkpt><trkpt lat="43.1386913" lon="11.4908138"><ele>194.66666666666666</ele><time>2026-04-04T14:05:56.593Z</time></trkpt><trkpt lat="43.1386216" lon="11.4908145"><ele>192.83333333333331</ele><time>2026-04-04T14:05:57.586Z</time></trkpt><trkpt lat="43.1385472" lon="11.4908101"><ele>191.0</ele><time>2026-04-04T14:05:58.585Z</time></trkpt><trkpt lat="43.1384688" lon="11.4907998"><ele>191.0</ele><time>2026-04-04T14:05:59.593Z</time></trkpt><trkpt lat="43.1383875" lon="11.4907918"><ele>191.0</ele><time>2026-04-04T14:06:00.585Z</time></trkpt><trkpt lat="43.1383094" lon="11.4907873"><ele>191.0</ele><time>2026-04-04T14:06:01.593Z</time></trkpt><trkpt lat="43.13823" lon="11.4907831"><ele>191.0</ele><time>2026-04-04T14:06:02.585Z</time></trkpt><trkpt lat="43.1381553" lon="11.4907801"><ele>191.0</ele><time>2026-04-04T14:06:03.599Z</time></trkpt><trkpt lat="43.138088" lon="11.4907798"><ele>191.0</ele><time>2026-04-04T14:06:04.596Z</time></trkpt><trkpt lat="43.1380249" lon="11.4907797"><ele>191.0</ele><time>2026-04-04T14:06:05.586Z</time></trkpt><trkpt lat="43.1379258" lon="11.4907736"><ele>189.5</ele><time>2026-04-04T14:06:07.589Z</time></trkpt><trkpt lat="43.1378595" lon="11.4907588"><ele>188.0</ele><time>2026-04-04T14:06:09.589Z</time></trkpt><trkpt lat="43.1378045" lon="11.4906513"><ele>186.5</ele><time>2026-04-04T14:06:12.584Z</time></trkpt><trkpt lat="43.1378004" lon="11.4904998"><ele>185.0</ele><time>2026-04-04T14:06:14.578Z</time></trkpt><trkpt lat="43.1378" lon="11.4904075"><ele>183.5</ele><time>2026-04-04T14:06:15.59Z</time></trkpt><trkpt lat="43.137792" lon="11.4903084"><ele>182.0</ele><time>2026-04-04T14:06:16.595Z</time></trkpt><trkpt lat="43.1377835" lon="11.4902055"><ele>181.0</ele><time>2026-04-04T14:06:17.596Z</time></trkpt><trkpt lat="43.1377737" lon="11.4900874"><ele>180.0</ele><time>2026-04-04T14:06:18.588Z</time></trkpt><trkpt lat="43.1377636" lon="11.4899645"><ele>179.0</ele><time>2026-04-04T14:06:19.592Z</time></trkpt><trkpt lat="43.1377571" lon="11.4898267"><ele>178.0</ele><time>2026-04-04T14:06:20.595Z</time></trkpt><trkpt lat="43.1377485" lon="11.4896814"><ele>177.0</ele><time>2026-04-04T14:06:21.593Z</time></trkpt><trkpt lat="43.137743" lon="11.4895356"><ele>174.6</ele><time>2026-04-04T14:06:22.594Z</time></trkpt><trkpt lat="43.1377342" lon="11.4893849"><ele>172.2</ele><time>2026-04-04T14:06:23.579Z</time></trkpt><trkpt lat="43.137723" lon="11.4892311"><ele>169.8</ele><time>2026-04-04T14:06:24.59Z</time></trkpt><trkpt lat="43.1377177" lon="11.4890834"><ele>167.4</ele><time>2026-04-04T14:06:25.591Z</time></trkpt><trkpt lat="43.1377129" lon="11.4889462"><ele>165.0</ele><time>2026-04-04T14:06:26.587Z</time></trkpt><trkpt lat="43.1377113" lon="11.4888228"><ele>163.33333333333334</ele><time>2026-04-04T14:06:27.585Z</time></trkpt><trkpt lat="43.1377126" lon="11.4887118"><ele>161.66666666666666</ele><time>2026-04-04T14:06:28.591Z</time></trkpt><trkpt lat="43.1377103" lon="11.4886178"><ele>160.0</ele><time>2026-04-04T14:06:29.596Z</time></trkpt><trkpt lat="43.1377258" lon="11.4884866"><ele>158.33333333333331</ele><time>2026-04-04T14:06:31.588Z</time></trkpt><trkpt lat="43.1377866" lon="11.4884322"><ele>156.66666666666666</ele><time>2026-04-04T14:06:33.591Z</time></trkpt><trkpt lat="43.1378851" lon="11.4884366"><ele>155.0</ele><time>2026-04-04T14:06:35.591Z</time></trkpt><trkpt lat="43.1380143" lon="11.4884483"><ele>155.0</ele><time>2026-04-04T14:06:37.582Z</time></trkpt><trkpt lat="43.1380848" lon="11.488456"><ele>155.0</ele><time>2026-04-04T14:06:38.58Z</time></trkpt><trkpt lat="43.1381581" lon="11.4884618"><ele>155.0</ele><time>2026-04-04T14:06:39.589Z</time></trkpt><trkpt lat="43.1382335" lon="11.4884652"><ele>155.0</ele><time>2026-04-04T14:06:40.591Z</time></trkpt><trkpt lat="43.1383119" lon="11.4884666"><ele>155.0</ele><time>2026-04-04T14:06:41.591Z</time></trkpt><trkpt lat="43.1383891" lon="11.4884695"><ele>155.0</ele><time>2026-04-04T14:06:42.592Z</time></trkpt><trkpt lat="43.1384707" lon="11.4884763"><ele>154.66666666666666</ele><time>2026-04-04T14:06:43.589Z</time></trkpt><trkpt lat="43.1385571" lon="11.4884803"><ele>154.33333333333331</ele><time>2026-04-04T14:06:44.59Z</time></trkpt><trkpt lat="43.1386445" lon="11.4884732"><ele>154.0</ele><time>2026-04-04T14:06:45.587Z</time></trkpt><trkpt lat="43.1387238" lon="11.4884528"><ele>153.66666666666666</ele><time>2026-04-04T14:06:46.587Z</time></trkpt><trkpt lat="43.1387956" lon="11.4884355"><ele>153.33333333333334</ele><time>2026-04-04T14:06:47.59Z</time></trkpt><trkpt lat="43.1388926" lon="11.488418"><ele>153.0</ele><time>2026-04-04T14:06:49.589Z</time></trkpt><trkpt lat="43.1389657" lon="11.4884272"><ele>153.0</ele><time>2026-04-04T14:07:27.59Z</time></trkpt><trkpt lat="43.139035" lon="11.4883844"><ele>153.0</ele><time>2026-04-04T14:07:29.596Z</time></trkpt><trkpt lat="43.1390263" lon="11.488275"><ele>153.0</ele><time>2026-04-04T14:07:31.585Z</time></trkpt><trkpt lat="43.1389931" lon="11.488101"><ele>153.0</ele><time>2026-04-04T14:07:33.608Z</time></trkpt><trkpt lat="43.1389802" lon="11.4879836"><ele>153.0</ele><time>2026-04-04T14:07:34.58Z</time></trkpt><trkpt lat="43.1389683" lon="11.4878434"><ele>152.6</ele><time>2026-04-04T14:07:35.595Z</time></trkpt><trkpt lat="43.13895" lon="11.487688"><ele>152.20000000000002</ele><time>2026-04-04T14:07:36.582Z</time></trkpt><trkpt lat="43.138932" lon="11.4875234"><ele>151.8</ele><time>2026-04-04T14:07:37.584Z</time></trkpt><trkpt lat="43.1389174" lon="11.4873814"><ele>151.4</ele><time>2026-04-04T14:07:38.586Z</time></trkpt><trkpt lat="43.1389099" lon="11.4872496"><ele>151.0</ele><time>2026-04-04T14:07:39.594Z</time></trkpt><trkpt lat="43.138909" lon="11.4871271"><ele>150.4</ele><time>2026-04-04T14:07:40.587Z</time></trkpt><trkpt lat="43.1389102" lon="11.4869945"><ele>149.8</ele><time>2026-04-04T14:07:41.58Z</time></trkpt><trkpt lat="43.1389157" lon="11.4868528"><ele>149.20000000000002</ele><time>2026-04-04T14:07:42.591Z</time></trkpt><trkpt lat="43.1389227" lon="11.4866991"><ele>148.6</ele><time>2026-04-04T14:07:43.587Z</time></trkpt><trkpt lat="43.1389285" lon="11.4865437"><ele>148.0</ele><time>2026-04-04T14:07:44.592Z</time></trkpt><trkpt lat="43.1389306" lon="11.4863934"><ele>147.6</ele><time>2026-04-04T14:07:45.591Z</time></trkpt><trkpt lat="43.1389317" lon="11.4862506"><ele>147.20000000000002</ele><time>2026-04-04T14:07:46.591Z</time></trkpt><trkpt lat="43.1389328" lon="11.486113"><ele>146.8</ele><time>2026-04-04T14:07:47.593Z</time></trkpt><trkpt lat="43.1389307" lon="11.4859742"><ele>146.4</ele><time>2026-04-04T14:07:48.588Z</time></trkpt><trkpt lat="43.1389245" lon="11.4858448"><ele>146.0</ele><time>2026-04-04T14:07:49.585Z</time></trkpt><trkpt lat="43.1389163" lon="11.4857286"><ele>146.0</ele><time>2026-04-04T14:07:50.592Z</time></trkpt><trkpt lat="43.1389096" lon="11.4856221"><ele>146.0</ele><time>2026-04-04T14:07:51.601Z</time></trkpt><trkpt lat="43.1388991" lon="11.485526"><ele>146.0</ele><time>2026-04-04T14:07:52.585Z</time></trkpt><trkpt lat="43.1388914" lon="11.4854392"><ele>146.0</ele><time>2026-04-04T14:07:53.582Z</time></trkpt><trkpt lat="43.1388714" lon="11.485276"><ele>146.0</ele><time>2026-04-04T14:07:55.596Z</time></trkpt><trkpt lat="43.1388513" lon="11.4851864"><ele>146.0</ele><time>2026-04-04T14:07:56.592Z</time></trkpt><trkpt lat="43.1388419" lon="11.4850922"><ele>146.0</ele><time>2026-04-04T14:07:57.59Z</time></trkpt><trkpt lat="43.1388299" lon="11.484992"><ele>146.0</ele><time>2026-04-04T14:07:58.587Z</time></trkpt><trkpt lat="43.138812" lon="11.4848871"><ele>146.0</ele><time>2026-04-04T14:07:59.591Z</time></trkpt><trkpt lat="43.138806" lon="11.4847678"><ele>146.0</ele><time>2026-04-04T14:08:00.591Z</time></trkpt><trkpt lat="43.1387931" lon="11.4846614"><ele>146.0</ele><time>2026-04-04T14:08:01.594Z</time></trkpt><trkpt lat="43.1387851" lon="11.4845688"><ele>146.0</ele><time>2026-04-04T14:08:02.605Z</time></trkpt><trkpt lat="43.138778" lon="11.4844824"><ele>146.0</ele><time>2026-04-04T14:08:03.598Z</time></trkpt><trkpt lat="43.1387618" lon="11.4843299"><ele>146.0</ele><time>2026-04-04T14:08:05.576Z</time></trkpt><trkpt lat="43.1387082" lon="11.4842691"><ele>146.0</ele><time>2026-04-04T14:08:07.589Z</time></trkpt><trkpt lat="43.1387032" lon="11.4843903"><ele>146.0</ele><time>2026-04-04T14:08:10.59Z</time></trkpt><trkpt lat="43.1387417" lon="11.484571"><ele>146.0</ele><time>2026-04-04T14:08:12.591Z</time></trkpt><trkpt lat="43.1387617" lon="11.4846787"><ele>146.0</ele><time>2026-04-04T14:08:13.597Z</time></trkpt><trkpt lat="43.13878" lon="11.4847768"><ele>146.0</ele><time>2026-04-04T14:08:14.594Z</time></trkpt><trkpt lat="43.1387918" lon="11.4849114"><ele>146.0</ele><time>2026-04-04T14:08:16.591Z</time></trkpt><trkpt lat="43.138742" lon="11.4849721"><ele>146.0</ele><time>2026-04-04T14:08:19.59Z</time></trkpt><trkpt lat="43.1386387" lon="11.4849855"><ele>146.0</ele><time>2026-04-04T14:08:21.594Z</time></trkpt><trkpt lat="43.1385558" lon="11.4849846"><ele>146.0</ele><time>2026-04-04T14:08:22.586Z</time></trkpt><trkpt lat="43.13846" lon="11.4849765"><ele>146.0</ele><time>2026-04-04T14:08:23.593Z</time></trkpt><trkpt lat="43.1383451" lon="11.4849708"><ele>146.0</ele><time>2026-04-04T14:08:24.584Z</time></trkpt><trkpt lat="43.1382202" lon="11.4849605"><ele>146.0</ele><time>2026-04-04T14:08:25.581Z</time></trkpt><trkpt lat="43.1381056" lon="11.4849551"><ele>146.0</ele><time>2026-04-04T14:08:26.579Z</time></trkpt><trkpt lat="43.1379995" lon="11.4849606"><ele>146.33333333333331</ele><time>2026-04-04T14:08:27.583Z</time></trkpt><trkpt lat="43.1379039" lon="11.4849533"><ele>146.66666666666666</ele><time>2026-04-04T14:08:28.573Z</time></trkpt><trkpt lat="43.1378223" lon="11.4849367"><ele>147.0</ele><time>2026-04-04T14:08:29.581Z</time></trkpt><trkpt lat="43.1377258" lon="11.4849299"><ele>147.33333333333334</ele><time>2026-04-04T14:08:31.589Z</time></trkpt><trkpt lat="43.137672" lon="11.4849801"><ele>147.66666666666669</ele><time>2026-04-04T14:09:05.59Z</time></trkpt><trkpt lat="43.137677" lon="11.4850914"><ele>148.0</ele><time>2026-04-04T14:09:07.592Z</time></trkpt><trkpt lat="43.1376699" lon="11.4852305"><ele>148.0</ele><time>2026-04-04T14:09:09.59Z</time></trkpt><trkpt lat="43.1376675" lon="11.4853858"><ele>148.0</ele><time>2026-04-04T14:09:11.592Z</time></trkpt><trkpt lat="43.1376709" lon="11.4855477"><ele>148.0</ele><time>2026-04-04T14:09:13.587Z</time></trkpt><trkpt lat="43.1376661" lon="11.485671"><ele>148.0</ele><time>2026-04-04T14:09:15.595Z</time></trkpt><trkpt lat="43.1376534" lon="11.485774"><ele>148.0</ele><time>2026-04-04T14:09:17.587Z</time></trkpt><trkpt lat="43.1376751" lon="11.4859579"><ele>148.0</ele><time>2026-04-04T14:09:19.59Z</time></trkpt><trkpt lat="43.13768" lon="11.486089"><ele>148.0</ele><time>2026-04-04T14:09:20.587Z</time></trkpt><trkpt lat="43.1376828" lon="11.4862518"><ele>148.0</ele><time>2026-04-04T14:09:21.586Z</time></trkpt><trkpt lat="43.137682" lon="11.4864328"><ele>148.0</ele><time>2026-04-04T14:09:22.596Z</time></trkpt><trkpt lat="43.1376805" lon="11.4866289"><ele>148.0</ele><time>2026-04-04T14:09:23.602Z</time></trkpt><trkpt lat="43.137683" lon="11.4868111"><ele>148.0</ele><time>2026-04-04T14:09:24.578Z</time></trkpt><trkpt lat="43.1376806" lon="11.4869811"><ele>148.0</ele><time>2026-04-04T14:09:25.587Z</time></trkpt><trkpt lat="43.1376789" lon="11.4871472"><ele>148.0</ele><time>2026-04-04T14:09:26.593Z</time></trkpt><trkpt lat="43.1376784" lon="11.4873183"><ele>148.75</ele><time>2026-04-04T14:09:27.59Z</time></trkpt><trkpt lat="43.1376816" lon="11.48749"><ele>149.5</ele><time>2026-04-04T14:09:28.592Z</time></trkpt><trkpt lat="43.1376814" lon="11.4876756"><ele>150.25</ele><time>2026-04-04T14:09:29.588Z</time></trkpt><trkpt lat="43.1376807" lon="11.487866"><ele>151.0</ele><time>2026-04-04T14:09:30.594Z</time></trkpt><trkpt lat="43.1376812" lon="11.4880609"><ele>152.0</ele><time>2026-04-04T14:09:31.61Z</time></trkpt><trkpt lat="43.1376849" lon="11.4882357"><ele>153.0</ele><time>2026-04-04T14:09:32.585Z</time></trkpt><trkpt lat="43.1376893" lon="11.4883912"><ele>154.0</ele><time>2026-04-04T14:09:33.59Z</time></trkpt><trkpt lat="43.137694" lon="11.4885433"><ele>155.0</ele><time>2026-04-04T14:09:34.591Z</time></trkpt><trkpt lat="43.1376952" lon="11.4886908"><ele>157.5</ele><time>2026-04-04T14:09:35.589Z</time></trkpt><trkpt lat="43.1377016" lon="11.4888426"><ele>160.0</ele><time>2026-04-04T14:09:36.595Z</time></trkpt><trkpt lat="43.137706" lon="11.488997"><ele>162.5</ele><time>2026-04-04T14:09:37.575Z</time></trkpt><trkpt lat="43.13771" lon="11.4891652"><ele>165.0</ele><time>2026-04-04T14:09:38.587Z</time></trkpt><trkpt lat="43.1377127" lon="11.4893429"><ele>165.0</ele><time>2026-04-04T14:09:39.583Z</time></trkpt><trkpt lat="43.1377161" lon="11.489529"><ele>165.0</ele><time>2026-04-04T14:09:40.601Z</time></trkpt><trkpt lat="43.1377255" lon="11.4897234"><ele>165.0</ele><time>2026-04-04T14:09:41.593Z</time></trkpt><trkpt lat="43.1377398" lon="11.4899233"><ele>165.0</ele><time>2026-04-04T14:09:42.597Z</time></trkpt><trkpt lat="43.1377602" lon="11.4901151"><ele>168.0</ele><time>2026-04-04T14:09:43.608Z</time></trkpt><trkpt lat="43.1377828" lon="11.4902982"><ele>171.0</ele><time>2026-04-04T14:09:44.589Z</time></trkpt><trkpt lat="43.1377939" lon="11.4904823"><ele>174.0</ele><time>2026-04-04T14:09:45.592Z</time></trkpt><trkpt lat="43.1377973" lon="11.4906524"><ele>177.0</ele><time>2026-04-04T14:09:46.594Z</time></trkpt><trkpt lat="43.1377992" lon="11.4908003"><ele>177.25</ele><time>2026-04-04T14:09:47.592Z</time></trkpt><trkpt lat="43.137793" lon="11.4909477"><ele>177.5</ele><time>2026-04-04T14:09:48.587Z</time></trkpt><trkpt lat="43.1377727" lon="11.4911044"><ele>177.75</ele><time>2026-04-04T14:09:49.589Z</time></trkpt><trkpt lat="43.1377522" lon="11.4912842"><ele>178.0</ele><time>2026-04-04T14:09:50.579Z</time></trkpt><trkpt lat="43.1377289" lon="11.4914753"><ele>178.0</ele><time>2026-04-04T14:09:51.584Z</time></trkpt><trkpt lat="43.1377077" lon="11.4916602"><ele>178.0</ele><time>2026-04-04T14:09:52.581Z</time></trkpt><trkpt lat="43.1376857" lon="11.4918488"><ele>178.0</ele><time>2026-04-04T14:09:53.598Z</time></trkpt><trkpt lat="43.1376584" lon="11.492047"><ele>178.0</ele><time>2026-04-04T14:09:54.593Z</time></trkpt><trkpt lat="43.1376301" lon="11.4922502"><ele>175.66666666666669</ele><time>2026-04-04T14:09:55.593Z</time></trkpt><trkpt lat="43.1376035" lon="11.4924617"><ele>173.33333333333334</ele><time>2026-04-04T14:09:56.586Z</time></trkpt><trkpt lat="43.1375758" lon="11.4926797"><ele>171.0</ele><time>2026-04-04T14:09:57.586Z</time></trkpt><trkpt lat="43.1375488" lon="11.4929034"><ele>170.33333333333334</ele><time>2026-04-04T14:09:58.598Z</time></trkpt><trkpt lat="43.1375239" lon="11.4931264"><ele>169.66666666666669</ele><time>2026-04-04T14:09:59.582Z</time></trkpt><trkpt lat="43.1374985" lon="11.493345"><ele>169.0</ele><time>2026-04-04T14:10:00.591Z</time></trkpt><trkpt lat="43.1374759" lon="11.4935518"><ele>169.0</ele><time>2026-04-04T14:10:01.59Z</time></trkpt><trkpt lat="43.1374531" lon="11.4937501"><ele>169.0</ele><time>2026-04-04T14:10:02.598Z</time></trkpt><trkpt lat="43.1374237" lon="11.4939325"><ele>169.0</ele><time>2026-04-04T14:10:03.589Z</time></trkpt><trkpt lat="43.1373814" lon="11.4941063"><ele>169.0</ele><time>2026-04-04T14:10:04.593Z</time></trkpt><trkpt lat="43.1373142" lon="11.4942745"><ele>168.33333333333334</ele><time>2026-04-04T14:10:05.592Z</time></trkpt><trkpt lat="43.1372257" lon="11.4944437"><ele>167.66666666666666</ele><time>2026-04-04T14:10:06.59Z</time></trkpt><trkpt lat="43.1371225" lon="11.4946243"><ele>167.0</ele><time>2026-04-04T14:10:07.585Z</time></trkpt><trkpt lat="43.1370092" lon="11.494816"><ele>167.0</ele><time>2026-04-04T14:10:08.598Z</time></trkpt><trkpt lat="43.13689" lon="11.4950252"><ele>167.0</ele><time>2026-04-04T14:10:09.592Z</time></trkpt><trkpt lat="43.1367632" lon="11.4952495"><ele>167.0</ele><time>2026-04-04T14:10:10.594Z</time></trkpt><trkpt lat="43.1366286" lon="11.4954872"><ele>165.66666666666666</ele><time>2026-04-04T14:10:11.588Z</time></trkpt><trkpt lat="43.1364969" lon="11.4957219"><ele>164.33333333333334</ele><time>2026-04-04T14:10:12.586Z</time></trkpt><trkpt lat="43.1363652" lon="11.4959582"><ele>163.0</ele><time>2026-04-04T14:10:13.588Z</time></trkpt><trkpt lat="43.1362251" lon="11.4962028"><ele>162.66666666666669</ele><time>2026-04-04T14:10:14.588Z</time></trkpt><trkpt lat="43.1360853" lon="11.4964416"><ele>162.33333333333334</ele><time>2026-04-04T14:10:15.578Z</time></trkpt><trkpt lat="43.1359549" lon="11.4966677"><ele>162.0</ele><time>2026-04-04T14:10:16.585Z</time></trkpt><trkpt lat="43.1358276" lon="11.4968814"><ele>162.0</ele><time>2026-04-04T14:10:17.589Z</time></trkpt><trkpt lat="43.1357072" lon="11.4970848"><ele>162.0</ele><time>2026-04-04T14:10:18.596Z</time></trkpt><trkpt lat="43.1355973" lon="11.4972925"><ele>162.0</ele><time>2026-04-04T14:10:19.582Z</time></trkpt><trkpt lat="43.135503" lon="11.4975183"><ele>162.0</ele><time>2026-04-04T14:10:20.584Z</time></trkpt><trkpt lat="43.1354182" lon="11.4977648"><ele>162.0</ele><time>2026-04-04T14:10:21.587Z</time></trkpt><trkpt lat="43.1353353" lon="11.4980242"><ele>162.0</ele><time>2026-04-04T14:10:22.589Z</time></trkpt><trkpt lat="43.1352535" lon="11.4982904"><ele>162.0</ele><time>2026-04-04T14:10:23.588Z</time></trkpt><trkpt lat="43.1351676" lon="11.4985654"><ele>162.0</ele><time>2026-04-04T14:10:24.589Z</time></trkpt><trkpt lat="43.135078" lon="11.498842"><ele>162.0</ele><time>2026-04-04T14:10:25.598Z</time></trkpt><trkpt lat="43.1349949" lon="11.4991254"><ele>164.33333333333334</ele><time>2026-04-04T14:10:26.592Z</time></trkpt><trkpt lat="43.1349151" lon="11.4994083"><ele>166.66666666666669</ele><time>2026-04-04T14:10:27.595Z</time></trkpt><trkpt lat="43.1348406" lon="11.4996924"><ele>169.0</ele><time>2026-04-04T14:10:28.586Z</time></trkpt><trkpt lat="43.1347731" lon="11.4999804"><ele>171.33333333333334</ele><time>2026-04-04T14:10:29.586Z</time></trkpt><trkpt lat="43.1347079" lon="11.5002675"><ele>173.66666666666666</ele><time>2026-04-04T14:10:30.587Z</time></trkpt><trkpt lat="43.1346512" lon="11.5005559"><ele>176.0</ele><time>2026-04-04T14:10:31.584Z</time></trkpt><trkpt lat="43.1345955" lon="11.500846"><ele>179.0</ele><time>2026-04-04T14:10:32.592Z</time></trkpt><trkpt lat="43.1345397" lon="11.5011365"><ele>182.0</ele><time>2026-04-04T14:10:33.592Z</time></trkpt><trkpt lat="43.1344862" lon="11.5014298"><ele>185.0</ele><time>2026-04-04T14:10:34.591Z</time></trkpt><trkpt lat="43.1344311" lon="11.5017285"><ele>189.5</ele><time>2026-04-04T14:10:35.596Z</time></trkpt><trkpt lat="43.1343734" lon="11.502033"><ele>194.0</ele><time>2026-04-04T14:10:36.602Z</time></trkpt><trkpt lat="43.1343153" lon="11.5023397"><ele>198.0</ele><time>2026-04-04T14:10:37.586Z</time></trkpt><trkpt lat="43.1342557" lon="11.5026513"><ele>202.0</ele><time>2026-04-04T14:10:38.587Z</time></trkpt><trkpt lat="43.1341936" lon="11.5029663"><ele>204.33333333333331</ele><time>2026-04-04T14:10:39.586Z</time></trkpt><trkpt lat="43.1341342" lon="11.5032702"><ele>206.66666666666669</ele><time>2026-04-04T14:10:40.599Z</time></trkpt><trkpt lat="43.1340795" lon="11.5035426"><ele>209.0</ele><time>2026-04-04T14:10:41.582Z</time></trkpt><trkpt lat="43.1340283" lon="11.5037911"><ele>210.33333333333334</ele><time>2026-04-04T14:10:42.594Z</time></trkpt><trkpt lat="43.1339878" lon="11.5040158"><ele>211.66666666666669</ele><time>2026-04-04T14:10:43.588Z</time></trkpt><trkpt lat="43.1339562" lon="11.5042218"><ele>213.0</ele><time>2026-04-04T14:10:44.592Z</time></trkpt><trkpt lat="43.1339289" lon="11.5044268"><ele>212.33333333333331</ele><time>2026-04-04T14:10:45.592Z</time></trkpt><trkpt lat="43.1339007" lon="11.5046304"><ele>211.66666666666666</ele><time>2026-04-04T14:10:46.587Z</time></trkpt><trkpt lat="43.1338732" lon="11.5048419"><ele>211.0</ele><time>2026-04-04T14:10:47.587Z</time></trkpt><trkpt lat="43.1338462" lon="11.5050579"><ele>211.0</ele><time>2026-04-04T14:10:48.599Z</time></trkpt><trkpt lat="43.1338183" lon="11.5052784"><ele>211.0</ele><time>2026-04-04T14:10:49.601Z</time></trkpt><trkpt lat="43.1337911" lon="11.5055059"><ele>211.0</ele><time>2026-04-04T14:10:50.59Z</time></trkpt><trkpt lat="43.1337627" lon="11.50574"><ele>211.33333333333331</ele><time>2026-04-04T14:10:51.597Z</time></trkpt><trkpt lat="43.1337329" lon="11.5059802"><ele>211.66666666666669</ele><time>2026-04-04T14:10:52.588Z</time></trkpt><trkpt lat="43.133705" lon="11.5062124"><ele>212.0</ele><time>2026-04-04T14:10:53.585Z</time></trkpt><trkpt lat="43.1336802" lon="11.5064279"><ele>212.0</ele><time>2026-04-04T14:10:54.59Z</time></trkpt><trkpt lat="43.1336536" lon="11.5066355"><ele>212.0</ele><time>2026-04-04T14:10:55.588Z</time></trkpt><trkpt lat="43.1336302" lon="11.5068309"><ele>212.0</ele><time>2026-04-04T14:10:56.592Z</time></trkpt><trkpt lat="43.1336098" lon="11.5070183"><ele>212.0</ele><time>2026-04-04T14:10:57.591Z</time></trkpt><trkpt lat="43.1335909" lon="11.5071993"><ele>212.5</ele><time>2026-04-04T14:10:58.591Z</time></trkpt><trkpt lat="43.1335745" lon="11.5073787"><ele>213.0</ele><time>2026-04-04T14:10:59.588Z</time></trkpt><trkpt lat="43.1335666" lon="11.5075595"><ele>213.5</ele><time>2026-04-04T14:11:00.594Z</time></trkpt><trkpt lat="43.1335675" lon="11.5077443"><ele>214.0</ele><time>2026-04-04T14:11:01.593Z</time></trkpt><trkpt lat="43.1335834" lon="11.5079262"><ele>215.5</ele><time>2026-04-04T14:11:02.597Z</time></trkpt><trkpt lat="43.1336084" lon="11.5080954"><ele>217.0</ele><time>2026-04-04T14:11:03.593Z</time></trkpt><trkpt lat="43.1336433" lon="11.5082632"><ele>218.5</ele><time>2026-04-04T14:11:04.608Z</time></trkpt><trkpt lat="43.1336816" lon="11.5084325"><ele>220.0</ele><time>2026-04-04T14:11:05.592Z</time></trkpt><trkpt lat="43.1337216" lon="11.5086003"><ele>221.5</ele><time>2026-04-04T14:11:06.587Z</time></trkpt><trkpt lat="43.1337614" lon="11.5087686"><ele>223.0</ele><time>2026-04-04T14:11:07.592Z</time></trkpt><trkpt lat="43.1338041" lon="11.5089384"><ele>224.5</ele><time>2026-04-04T14:11:08.616Z</time></trkpt><trkpt lat="43.1338525" lon="11.5091043"><ele>226.0</ele><time>2026-04-04T14:11:09.593Z</time></trkpt><trkpt lat="43.1339074" lon="11.509269"><ele>226.0</ele><time>2026-04-04T14:11:10.584Z</time></trkpt><trkpt lat="43.1339733" lon="11.5094304"><ele>226.0</ele><time>2026-04-04T14:11:11.6Z</time></trkpt><trkpt lat="43.1340457" lon="11.509588"><ele>226.0</ele><time>2026-04-04T14:11:12.6Z</time></trkpt><trkpt lat="43.1341195" lon="11.5097388"><ele>226.0</ele><time>2026-04-04T14:11:13.589Z</time></trkpt><trkpt lat="43.1341826" lon="11.5098743"><ele>227.16666666666666</ele><time>2026-04-04T14:11:14.592Z</time></trkpt><trkpt lat="43.1342336" lon="11.5099879"><ele>228.33333333333331</ele><time>2026-04-04T14:11:15.585Z</time></trkpt><trkpt lat="43.1342777" lon="11.51009"><ele>229.5</ele><time>2026-04-04T14:11:16.597Z</time></trkpt><trkpt lat="43.1343151" lon="11.5101782"><ele>230.66666666666669</ele><time>2026-04-04T14:11:17.595Z</time></trkpt><trkpt lat="43.1343513" lon="11.5102555"><ele>231.83333333333334</ele><time>2026-04-04T14:11:18.599Z</time></trkpt><trkpt lat="43.1343867" lon="11.510327"><ele>233.0</ele><time>2026-04-04T14:11:19.599Z</time></trkpt><trkpt lat="43.1344517" lon="11.5104696"><ele>234.00000000000003</ele><time>2026-04-04T14:11:21.588Z</time></trkpt><trkpt lat="43.1345132" lon="11.5106144"><ele>235.0</ele><time>2026-04-04T14:11:23.585Z</time></trkpt><trkpt lat="43.134546" lon="11.5106884"><ele>236.0</ele><time>2026-04-04T14:11:24.601Z</time></trkpt><trkpt lat="43.1345789" lon="11.5107655"><ele>237.0</ele><time>2026-04-04T14:11:25.587Z</time></trkpt><trkpt lat="43.1346098" lon="11.510842"><ele>238.00000000000003</ele><time>2026-04-04T14:11:26.596Z</time></trkpt><trkpt lat="43.1346586" lon="11.5109576"><ele>239.0</ele><time>2026-04-04T14:11:28.588Z</time></trkpt><trkpt lat="43.1346915" lon="11.5110504"><ele>239.00000000000003</ele><time>2026-04-04T14:11:30.599Z</time></trkpt><trkpt lat="43.1347269" lon="11.5111374"><ele>239.0</ele><time>2026-04-04T14:11:32.609Z</time></trkpt><trkpt lat="43.1347622" lon="11.5112098"><ele>239.0</ele><time>2026-04-04T14:11:34.588Z</time></trkpt><trkpt lat="43.1347625" lon="11.5112995"><ele>239.0</ele><time>2026-04-04T14:12:54.599Z</time></trkpt><trkpt lat="43.1346963" lon="11.5113087"><ele>239.00000000000003</ele><time>2026-04-04T14:12:56.582Z</time></trkpt><trkpt lat="43.1345926" lon="11.5112459"><ele>239.0</ele><time>2026-04-04T14:12:58.599Z</time></trkpt><trkpt lat="43.1345283" lon="11.5112146"><ele>239.00000000000003</ele><time>2026-04-04T14:12:59.597Z</time></trkpt><trkpt lat="43.1344588" lon="11.5111738"><ele>239.0</ele><time>2026-04-04T14:13:00.589Z</time></trkpt><trkpt lat="43.1343795" lon="11.5111143"><ele>239.0</ele><time>2026-04-04T14:13:02.596Z</time></trkpt><trkpt lat="43.1343276" lon="11.5110575"><ele>239.0</ele><time>2026-04-04T14:13:05.583Z</time></trkpt><trkpt lat="43.1344077" lon="11.5111322"><ele>239.00000000000003</ele><time>2026-04-04T14:16:30.593Z</time></trkpt><trkpt lat="43.1344897" lon="11.5111741"><ele>239.0</ele><time>2026-04-04T14:16:32.609Z</time></trkpt><trkpt lat="43.1345816" lon="11.5112371"><ele>238.6</ele><time>2026-04-04T14:16:34.59Z</time></trkpt><trkpt lat="43.1346735" lon="11.5112855"><ele>238.2</ele><time>2026-04-04T14:16:36.59Z</time></trkpt><trkpt lat="43.1347618" lon="11.5113114"><ele>237.79999999999998</ele><time>2026-04-04T14:16:38.589Z</time></trkpt><trkpt lat="43.1348536" lon="11.5113664"><ele>237.39999999999998</ele><time>2026-04-04T14:16:41.594Z</time></trkpt><trkpt lat="43.1349346" lon="11.511507"><ele>237.0</ele><time>2026-04-04T14:16:43.58Z</time></trkpt><trkpt lat="43.1349875" lon="11.5116154"><ele>237.0</ele><time>2026-04-04T14:16:44.593Z</time></trkpt><trkpt lat="43.1350444" lon="11.5117234"><ele>237.0</ele><time>2026-04-04T14:16:45.595Z</time></trkpt><trkpt lat="43.1351062" lon="11.5118335"><ele>237.0</ele><time>2026-04-04T14:16:46.606Z</time></trkpt><trkpt lat="43.1351743" lon="11.5119468"><ele>237.0</ele><time>2026-04-04T14:16:47.596Z</time></trkpt><trkpt lat="43.1352493" lon="11.5120726"><ele>237.0</ele><time>2026-04-04T14:16:48.598Z</time></trkpt><trkpt lat="43.135322" lon="11.5122048"><ele>235.0</ele><time>2026-04-04T14:16:49.58Z</time></trkpt><trkpt lat="43.1353873" lon="11.5123413"><ele>233.0</ele><time>2026-04-04T14:16:50.583Z</time></trkpt><trkpt lat="43.1354444" lon="11.5124849"><ele>231.0</ele><time>2026-04-04T14:16:51.593Z</time></trkpt><trkpt lat="43.1354844" lon="11.5126226"><ele>229.0</ele><time>2026-04-04T14:16:52.602Z</time></trkpt><trkpt lat="43.1355107" lon="11.5127459"><ele>227.0</ele><time>2026-04-04T14:16:53.588Z</time></trkpt><trkpt lat="43.1355324" lon="11.5128582"><ele>226.16666666666669</ele><time>2026-04-04T14:16:54.593Z</time></trkpt><trkpt lat="43.1355549" lon="11.5129574"><ele>225.33333333333334</ele><time>2026-04-04T14:16:55.594Z</time></trkpt><trkpt lat="43.1355875" lon="11.5130502"><ele>224.5</ele><time>2026-04-04T14:16:56.595Z</time></trkpt><trkpt lat="43.1356315" lon="11.5131512"><ele>223.66666666666669</ele><time>2026-04-04T14:16:57.593Z</time></trkpt><trkpt lat="43.1356818" lon="11.5132602"><ele>222.83333333333334</ele><time>2026-04-04T14:16:58.589Z</time></trkpt><trkpt lat="43.1357266" lon="11.5133611"><ele>222.0</ele><time>2026-04-04T14:16:59.586Z</time></trkpt><trkpt lat="43.1357631" lon="11.5134527"><ele>223.16666666666666</ele><time>2026-04-04T14:17:00.586Z</time></trkpt><trkpt lat="43.1357986" lon="11.5135385"><ele>224.33333333333331</ele><time>2026-04-04T14:17:01.583Z</time></trkpt><trkpt lat="43.1358361" lon="11.5136175"><ele>225.5</ele><time>2026-04-04T14:17:02.598Z</time></trkpt><trkpt lat="43.1358834" lon="11.5137045"><ele>226.66666666666666</ele><time>2026-04-04T14:17:03.595Z</time></trkpt><trkpt lat="43.1359287" lon="11.5137997"><ele>227.83333333333331</ele><time>2026-04-04T14:17:04.586Z</time></trkpt><trkpt lat="43.1359831" lon="11.5138971"><ele>229.0</ele><time>2026-04-04T14:17:05.588Z</time></trkpt><trkpt lat="43.1360571" lon="11.5140254"><ele>229.0</ele><time>2026-04-04T14:17:06.588Z</time></trkpt><trkpt lat="43.1361264" lon="11.5141548"><ele>228.99999999999997</ele><time>2026-04-04T14:17:07.594Z</time></trkpt><trkpt lat="43.136187" lon="11.5142784"><ele>228.99999999999997</ele><time>2026-04-04T14:17:08.581Z</time></trkpt><trkpt lat="43.1362412" lon="11.5143984"><ele>229.0</ele><time>2026-04-04T14:17:09.584Z</time></trkpt><trkpt lat="43.1362863" lon="11.514519"><ele>229.0</ele><time>2026-04-04T14:17:10.583Z</time></trkpt><trkpt lat="43.1363209" lon="11.5146468"><ele>228.39999999999998</ele><time>2026-04-04T14:17:11.592Z</time></trkpt><trkpt lat="43.1363396" lon="11.5147733"><ele>227.79999999999998</ele><time>2026-04-04T14:17:12.591Z</time></trkpt><trkpt lat="43.1363506" lon="11.5149063"><ele>227.20000000000002</ele><time>2026-04-04T14:17:13.579Z</time></trkpt><trkpt lat="43.1363512" lon="11.5150464"><ele>226.60000000000002</ele><time>2026-04-04T14:17:14.593Z</time></trkpt><trkpt lat="43.1363399" lon="11.5151743"><ele>226.0</ele><time>2026-04-04T14:17:15.587Z</time></trkpt><trkpt lat="43.1363215" lon="11.5152916"><ele>226.60000000000002</ele><time>2026-04-04T14:17:16.59Z</time></trkpt><trkpt lat="43.1363008" lon="11.5154059"><ele>227.20000000000002</ele><time>2026-04-04T14:17:17.59Z</time></trkpt><trkpt lat="43.1362685" lon="11.5155113"><ele>227.79999999999998</ele><time>2026-04-04T14:17:18.595Z</time></trkpt><trkpt lat="43.136218" lon="11.5156188"><ele>228.39999999999998</ele><time>2026-04-04T14:17:19.583Z</time></trkpt><trkpt lat="43.1361514" lon="11.5157185"><ele>229.0</ele><time>2026-04-04T14:17:20.593Z</time></trkpt><trkpt lat="43.1360683" lon="11.5158052"><ele>229.0</ele><time>2026-04-04T14:17:21.585Z</time></trkpt><trkpt lat="43.1359749" lon="11.5158892"><ele>229.0</ele><time>2026-04-04T14:17:22.593Z</time></trkpt><trkpt lat="43.1358754" lon="11.5159867"><ele>229.0</ele><time>2026-04-04T14:17:23.585Z</time></trkpt><trkpt lat="43.1357775" lon="11.5161064"><ele>229.0</ele><time>2026-04-04T14:17:24.586Z</time></trkpt><trkpt lat="43.135678" lon="11.5162418"><ele>232.66666666666666</ele><time>2026-04-04T14:17:25.581Z</time></trkpt><trkpt lat="43.1355779" lon="11.5163974"><ele>236.33333333333331</ele><time>2026-04-04T14:17:26.603Z</time></trkpt><trkpt lat="43.1354765" lon="11.516565"><ele>240.0</ele><time>2026-04-04T14:17:27.586Z</time></trkpt><trkpt lat="43.1353674" lon="11.5167474"><ele>240.0</ele><time>2026-04-04T14:17:28.597Z</time></trkpt><trkpt lat="43.1352649" lon="11.5169161"><ele>240.0</ele><time>2026-04-04T14:17:29.585Z</time></trkpt><trkpt lat="43.1351705" lon="11.5170688"><ele>240.0</ele><time>2026-04-04T14:17:30.582Z</time></trkpt><trkpt lat="43.1350843" lon="11.5172123"><ele>240.0</ele><time>2026-04-04T14:17:31.578Z</time></trkpt><trkpt lat="43.1350031" lon="11.5173439"><ele>238.75</ele><time>2026-04-04T14:17:32.58Z</time></trkpt><trkpt lat="43.1349209" lon="11.5174708"><ele>237.5</ele><time>2026-04-04T14:17:33.582Z</time></trkpt><trkpt lat="43.1348415" lon="11.5175937"><ele>236.25</ele><time>2026-04-04T14:17:34.583Z</time></trkpt><trkpt lat="43.1347777" lon="11.5177198"><ele>235.0</ele><time>2026-04-04T14:17:35.578Z</time></trkpt><trkpt lat="43.1347238" lon="11.5178539"><ele>237.0</ele><time>2026-04-04T14:17:36.584Z</time></trkpt><trkpt lat="43.1346887" lon="11.5180005"><ele>239.0</ele><time>2026-04-04T14:17:37.58Z</time></trkpt><trkpt lat="43.1346721" lon="11.518159"><ele>241.0</ele><time>2026-04-04T14:17:38.587Z</time></trkpt><trkpt lat="43.1346608" lon="11.5183265"><ele>243.0</ele><time>2026-04-04T14:17:39.587Z</time></trkpt><trkpt lat="43.1346526" lon="11.5185016"><ele>243.0</ele><time>2026-04-04T14:17:40.594Z</time></trkpt><trkpt lat="43.1346533" lon="11.5186836"><ele>243.0</ele><time>2026-04-04T14:17:41.59Z</time></trkpt><trkpt lat="43.1346634" lon="11.5188686"><ele>243.0</ele><time>2026-04-04T14:17:42.592Z</time></trkpt><trkpt lat="43.1346797" lon="11.5190554"><ele>243.0</ele><time>2026-04-04T14:17:43.595Z</time></trkpt><trkpt lat="43.1347031" lon="11.5192423"><ele>238.66666666666669</ele><time>2026-04-04T14:17:44.579Z</time></trkpt><trkpt lat="43.1347382" lon="11.5194291"><ele>234.33333333333334</ele><time>2026-04-04T14:17:45.606Z</time></trkpt><trkpt lat="43.1347901" lon="11.5196298"><ele>230.0</ele><time>2026-04-04T14:17:46.598Z</time></trkpt><trkpt lat="43.1348443" lon="11.5198432"><ele>232.0</ele><time>2026-04-04T14:17:47.593Z</time></trkpt><trkpt lat="43.1348957" lon="11.5200624"><ele>234.0</ele><time>2026-04-04T14:17:48.582Z</time></trkpt><trkpt lat="43.1349407" lon="11.520277"><ele>236.0</ele><time>2026-04-04T14:17:49.591Z</time></trkpt><trkpt lat="43.1349708" lon="11.5204791"><ele>236.0</ele><time>2026-04-04T14:17:50.582Z</time></trkpt><trkpt lat="43.134993" lon="11.5206776"><ele>236.0</ele><time>2026-04-04T14:17:51.587Z</time></trkpt><trkpt lat="43.1350088" lon="11.520873"><ele>236.0</ele><time>2026-04-04T14:17:52.598Z</time></trkpt><trkpt lat="43.1350132" lon="11.5210654"><ele>236.0</ele><time>2026-04-04T14:17:53.594Z</time></trkpt><trkpt lat="43.1350126" lon="11.5212612"><ele>236.25</ele><time>2026-04-04T14:17:54.596Z</time></trkpt><trkpt lat="43.1350109" lon="11.5214581"><ele>236.5</ele><time>2026-04-04T14:17:55.598Z</time></trkpt><trkpt lat="43.1350073" lon="11.5216574"><ele>236.75</ele><time>2026-04-04T14:17:56.58Z</time></trkpt><trkpt lat="43.1350015" lon="11.5218617"><ele>237.0</ele><time>2026-04-04T14:17:57.596Z</time></trkpt><trkpt lat="43.134995" lon="11.5220677"><ele>238.33333333333331</ele><time>2026-04-04T14:17:58.592Z</time></trkpt><trkpt lat="43.1349903" lon="11.5222786"><ele>239.66666666666666</ele><time>2026-04-04T14:17:59.593Z</time></trkpt><trkpt lat="43.1349925" lon="11.5224919"><ele>241.0</ele><time>2026-04-04T14:18:00.594Z</time></trkpt><trkpt lat="43.1349994" lon="11.5227107"><ele>243.0</ele><time>2026-04-04T14:18:01.597Z</time></trkpt><trkpt lat="43.1350102" lon="11.5229328"><ele>245.0</ele><time>2026-04-04T14:18:02.592Z</time></trkpt><trkpt lat="43.1350259" lon="11.5231557"><ele>247.0</ele><time>2026-04-04T14:18:03.598Z</time></trkpt><trkpt lat="43.1350413" lon="11.5233789"><ele>247.0</ele><time>2026-04-04T14:18:04.602Z</time></trkpt><trkpt lat="43.1350532" lon="11.5235992"><ele>247.0</ele><time>2026-04-04T14:18:05.594Z</time></trkpt><trkpt lat="43.1350634" lon="11.5238135"><ele>247.0</ele><time>2026-04-04T14:18:06.589Z</time></trkpt><trkpt lat="43.1350712" lon="11.5240219"><ele>248.25</ele><time>2026-04-04T14:18:07.59Z</time></trkpt><trkpt lat="43.135073" lon="11.5242107"><ele>249.5</ele><time>2026-04-04T14:18:08.595Z</time></trkpt><trkpt lat="43.1350623" lon="11.5243799"><ele>250.75</ele><time>2026-04-04T14:18:09.598Z</time></trkpt><trkpt lat="43.1350334" lon="11.5245445"><ele>252.0</ele><time>2026-04-04T14:18:10.598Z</time></trkpt><trkpt lat="43.1349959" lon="11.524712"><ele>252.0</ele><time>2026-04-04T14:18:11.593Z</time></trkpt><trkpt lat="43.1349477" lon="11.524881"><ele>252.0</ele><time>2026-04-04T14:18:12.59Z</time></trkpt><trkpt lat="43.1348975" lon="11.5250528"><ele>252.0</ele><time>2026-04-04T14:18:13.583Z</time></trkpt><trkpt lat="43.1348424" lon="11.5252248"><ele>252.0</ele><time>2026-04-04T14:18:14.595Z</time></trkpt><trkpt lat="43.1347865" lon="11.5253817"><ele>251.6</ele><time>2026-04-04T14:18:15.599Z</time></trkpt><trkpt lat="43.1347311" lon="11.5255247"><ele>251.2</ele><time>2026-04-04T14:18:16.591Z</time></trkpt><trkpt lat="43.134678" lon="11.5256534"><ele>250.8</ele><time>2026-04-04T14:18:17.59Z</time></trkpt><trkpt lat="43.1346292" lon="11.5257737"><ele>250.4</ele><time>2026-04-04T14:18:18.588Z</time></trkpt><trkpt lat="43.1345916" lon="11.5258964"><ele>250.0</ele><time>2026-04-04T14:18:19.58Z</time></trkpt><trkpt lat="43.1345622" lon="11.5260293"><ele>250.0</ele><time>2026-04-04T14:18:20.584Z</time></trkpt><trkpt lat="43.1345424" lon="11.5261755"><ele>250.0</ele><time>2026-04-04T14:18:21.588Z</time></trkpt><trkpt lat="43.1345278" lon="11.5263295"><ele>250.0</ele><time>2026-04-04T14:18:22.593Z</time></trkpt><trkpt lat="43.1345125" lon="11.5264952"><ele>250.0</ele><time>2026-04-04T14:18:23.59Z</time></trkpt><trkpt lat="43.1344994" lon="11.5266685"><ele>251.0</ele><time>2026-04-04T14:18:24.581Z</time></trkpt><trkpt lat="43.1344829" lon="11.526851"><ele>252.0</ele><time>2026-04-04T14:18:25.594Z</time></trkpt><trkpt lat="43.1344669" lon="11.5270389"><ele>253.0</ele><time>2026-04-04T14:18:26.592Z</time></trkpt><trkpt lat="43.1344491" lon="11.5272354"><ele>254.0</ele><time>2026-04-04T14:18:27.587Z</time></trkpt><trkpt lat="43.1344321" lon="11.5274338"><ele>255.5</ele><time>2026-04-04T14:18:28.592Z</time></trkpt><trkpt lat="43.1344182" lon="11.5276355"><ele>257.0</ele><time>2026-04-04T14:18:29.595Z</time></trkpt><trkpt lat="43.1344063" lon="11.5278189"><ele>258.5</ele><time>2026-04-04T14:18:30.592Z</time></trkpt><trkpt lat="43.1343947" lon="11.5279873"><ele>260.0</ele><time>2026-04-04T14:18:31.579Z</time></trkpt><trkpt lat="43.1343814" lon="11.528149"><ele>260.4</ele><time>2026-04-04T14:18:32.585Z</time></trkpt><trkpt lat="43.1343731" lon="11.5282906"><ele>260.8</ele><time>2026-04-04T14:18:33.594Z</time></trkpt><trkpt lat="43.1343763" lon="11.5284368"><ele>261.2</ele><time>2026-04-04T14:18:34.584Z</time></trkpt><trkpt lat="43.1343965" lon="11.528587"><ele>261.6</ele><time>2026-04-04T14:18:35.59Z</time></trkpt><trkpt lat="43.1344374" lon="11.5287376"><ele>262.0</ele><time>2026-04-04T14:18:36.586Z</time></trkpt><trkpt lat="43.1344891" lon="11.5288953"><ele>262.0</ele><time>2026-04-04T14:18:37.585Z</time></trkpt><trkpt lat="43.1345454" lon="11.5290578"><ele>262.0</ele><time>2026-04-04T14:18:38.586Z</time></trkpt><trkpt lat="43.1346083" lon="11.5292223"><ele>262.0</ele><time>2026-04-04T14:18:39.597Z</time></trkpt><trkpt lat="43.1346688" lon="11.529396"><ele>262.0</ele><time>2026-04-04T14:18:40.596Z</time></trkpt><trkpt lat="43.1347286" lon="11.5295636"><ele>260.6</ele><time>2026-04-04T14:18:41.59Z</time></trkpt><trkpt lat="43.1347835" lon="11.5297126"><ele>259.2</ele><time>2026-04-04T14:18:42.581Z</time></trkpt><trkpt lat="43.1348305" lon="11.5298469"><ele>257.8</ele><time>2026-04-04T14:18:43.599Z</time></trkpt><trkpt lat="43.1348747" lon="11.529977"><ele>256.4</ele><time>2026-04-04T14:18:44.586Z</time></trkpt><trkpt lat="43.1349149" lon="11.5300956"><ele>255.0</ele><time>2026-04-04T14:18:45.585Z</time></trkpt><trkpt lat="43.1349489" lon="11.5302068"><ele>258.3333333333333</ele><time>2026-04-04T14:18:46.584Z</time></trkpt><trkpt lat="43.1349847" lon="11.5303155"><ele>261.6666666666667</ele><time>2026-04-04T14:18:47.599Z</time></trkpt><trkpt lat="43.1350166" lon="11.5304209"><ele>265.0</ele><time>2026-04-04T14:18:48.594Z</time></trkpt><trkpt lat="43.1350452" lon="11.5305159"><ele>268.33333333333337</ele><time>2026-04-04T14:18:49.591Z</time></trkpt><trkpt lat="43.1350615" lon="11.5306054"><ele>271.6666666666667</ele><time>2026-04-04T14:18:50.596Z</time></trkpt><trkpt lat="43.1350682" lon="11.5306918"><ele>275.0</ele><time>2026-04-04T14:18:51.594Z</time></trkpt><trkpt lat="43.1350664" lon="11.5308556"><ele>275.0</ele><time>2026-04-04T14:18:53.588Z</time></trkpt><trkpt lat="43.1350534" lon="11.5310135"><ele>275.0</ele><time>2026-04-04T14:18:55.587Z</time></trkpt><trkpt lat="43.1350355" lon="11.5311752"><ele>275.0</ele><time>2026-04-04T14:18:57.58Z</time></trkpt><trkpt lat="43.1350196" lon="11.5313362"><ele>275.0</ele><time>2026-04-04T14:18:59.585Z</time></trkpt><trkpt lat="43.1349971" lon="11.5315131"><ele>274.42857142857144</ele><time>2026-04-04T14:19:01.595Z</time></trkpt><trkpt lat="43.1349831" lon="11.5316094"><ele>273.85714285714283</ele><time>2026-04-04T14:19:02.583Z</time></trkpt><trkpt lat="43.1349655" lon="11.5317095"><ele>273.2857142857143</ele><time>2026-04-04T14:19:03.582Z</time></trkpt><trkpt lat="43.1349451" lon="11.5318096"><ele>272.7142857142857</ele><time>2026-04-04T14:19:04.595Z</time></trkpt><trkpt lat="43.1349253" lon="11.5319115"><ele>272.14285714285717</ele><time>2026-04-04T14:19:05.585Z</time></trkpt><trkpt lat="43.1349038" lon="11.5320108"><ele>271.57142857142856</ele><time>2026-04-04T14:19:06.588Z</time></trkpt><trkpt lat="43.1348832" lon="11.5321071"><ele>271.0</ele><time>2026-04-04T14:19:07.595Z</time></trkpt><trkpt lat="43.1348636" lon="11.5322039"><ele>269.40000000000003</ele><time>2026-04-04T14:19:08.586Z</time></trkpt><trkpt lat="43.1348485" lon="11.5322933"><ele>267.8</ele><time>2026-04-04T14:19:09.589Z</time></trkpt><trkpt lat="43.1348323" lon="11.5323782"><ele>266.20000000000005</ele><time>2026-04-04T14:19:10.588Z</time></trkpt><trkpt lat="43.1347996" lon="11.5325324"><ele>264.6</ele><time>2026-04-04T14:19:12.601Z</time></trkpt><trkpt lat="43.1347632" lon="11.532675"><ele>263.0</ele><time>2026-04-04T14:19:14.593Z</time></trkpt><trkpt lat="43.1347175" lon="11.5328411"><ele>263.1428571428571</ele><time>2026-04-04T14:19:16.604Z</time></trkpt><trkpt lat="43.1346932" lon="11.5329303"><ele>263.2857142857143</ele><time>2026-04-04T14:19:17.592Z</time></trkpt><trkpt lat="43.1346707" lon="11.5330193"><ele>263.42857142857144</ele><time>2026-04-04T14:19:18.598Z</time></trkpt><trkpt lat="43.1346459" lon="11.533105"><ele>263.57142857142856</ele><time>2026-04-04T14:19:19.588Z</time></trkpt><trkpt lat="43.1346172" lon="11.533189"><ele>263.7142857142857</ele><time>2026-04-04T14:19:20.592Z</time></trkpt><trkpt lat="43.1345922" lon="11.5332784"><ele>263.85714285714283</ele><time>2026-04-04T14:19:21.606Z</time></trkpt><trkpt lat="43.134565" lon="11.5333714"><ele>264.0</ele><time>2026-04-04T14:19:22.584Z</time></trkpt><trkpt lat="43.134536" lon="11.5334688"><ele>264.0</ele><time>2026-04-04T14:19:23.583Z</time></trkpt><trkpt lat="43.1345065" lon="11.5335686"><ele>264.0</ele><time>2026-04-04T14:19:24.582Z</time></trkpt><trkpt lat="43.134474" lon="11.5336728"><ele>264.0</ele><time>2026-04-04T14:19:25.586Z</time></trkpt><trkpt lat="43.1344396" lon="11.5337754"><ele>264.0</ele><time>2026-04-04T14:19:26.585Z</time></trkpt><trkpt lat="43.134406" lon="11.5338743"><ele>264.0</ele><time>2026-04-04T14:19:27.596Z</time></trkpt><trkpt lat="43.1343681" lon="11.5339741"><ele>264.0</ele><time>2026-04-04T14:19:28.586Z</time></trkpt><trkpt lat="43.1343297" lon="11.5340752"><ele>264.6666666666667</ele><time>2026-04-04T14:19:29.577Z</time></trkpt><trkpt lat="43.1342892" lon="11.5341771"><ele>265.3333333333333</ele><time>2026-04-04T14:19:30.579Z</time></trkpt><trkpt lat="43.1342454" lon="11.5342774"><ele>266.0</ele><time>2026-04-04T14:19:31.597Z</time></trkpt><trkpt lat="43.1341989" lon="11.5343781"><ele>266.66666666666663</ele><time>2026-04-04T14:19:32.588Z</time></trkpt><trkpt lat="43.1341545" lon="11.5344784"><ele>267.3333333333333</ele><time>2026-04-04T14:19:33.598Z</time></trkpt><trkpt lat="43.1341076" lon="11.5345856"><ele>268.0</ele><time>2026-04-04T14:19:34.61Z</time></trkpt><trkpt lat="43.1340577" lon="11.5346996"><ele>267.2</ele><time>2026-04-04T14:19:35.597Z</time></trkpt><trkpt lat="43.1340047" lon="11.5348175"><ele>266.4</ele><time>2026-04-04T14:19:36.592Z</time></trkpt><trkpt lat="43.1339507" lon="11.5349407"><ele>265.59999999999997</ele><time>2026-04-04T14:19:37.585Z</time></trkpt><trkpt lat="43.1338949" lon="11.5350646"><ele>264.8</ele><time>2026-04-04T14:19:38.587Z</time></trkpt><trkpt lat="43.1338379" lon="11.5351955"><ele>264.0</ele><time>2026-04-04T14:19:39.593Z</time></trkpt><trkpt lat="43.1337814" lon="11.5353351"><ele>266.25</ele><time>2026-04-04T14:19:40.583Z</time></trkpt><trkpt lat="43.1337161" lon="11.5354866"><ele>268.5</ele><time>2026-04-04T14:19:41.584Z</time></trkpt><trkpt lat="43.1336458" lon="11.5356497"><ele>270.75</ele><time>2026-04-04T14:19:42.584Z</time></trkpt><trkpt lat="43.1335708" lon="11.5358166"><ele>273.0</ele><time>2026-04-04T14:19:43.58Z</time></trkpt><trkpt lat="43.1334898" lon="11.5359747"><ele>273.0</ele><time>2026-04-04T14:19:44.579Z</time></trkpt><trkpt lat="43.1334103" lon="11.536117"><ele>273.0</ele><time>2026-04-04T14:19:45.583Z</time></trkpt><trkpt lat="43.1333312" lon="11.5362415"><ele>273.0</ele><time>2026-04-04T14:19:46.594Z</time></trkpt><trkpt lat="43.1332558" lon="11.536353"><ele>273.0</ele><time>2026-04-04T14:19:47.595Z</time></trkpt><trkpt lat="43.1331864" lon="11.5364503"><ele>273.3333333333333</ele><time>2026-04-04T14:19:48.588Z</time></trkpt><trkpt lat="43.1331246" lon="11.536534"><ele>273.6666666666667</ele><time>2026-04-04T14:19:49.572Z</time></trkpt><trkpt lat="43.1330668" lon="11.5366112"><ele>274.0</ele><time>2026-04-04T14:19:50.598Z</time></trkpt><trkpt lat="43.1330119" lon="11.5366865"><ele>274.33333333333337</ele><time>2026-04-04T14:19:51.591Z</time></trkpt><trkpt lat="43.132957" lon="11.5367619"><ele>274.6666666666667</ele><time>2026-04-04T14:19:52.587Z</time></trkpt><trkpt lat="43.1329034" lon="11.5368419"><ele>275.0</ele><time>2026-04-04T14:19:53.596Z</time></trkpt><trkpt lat="43.1328468" lon="11.5369205"><ele>275.0</ele><time>2026-04-04T14:19:54.6Z</time></trkpt><trkpt lat="43.1327877" lon="11.5370124"><ele>275.0</ele><time>2026-04-04T14:19:55.595Z</time></trkpt><trkpt lat="43.1327281" lon="11.5371187"><ele>275.0</ele><time>2026-04-04T14:19:56.598Z</time></trkpt><trkpt lat="43.1326684" lon="11.5372404"><ele>275.0</ele><time>2026-04-04T14:19:57.596Z</time></trkpt><trkpt lat="43.1326094" lon="11.5373726"><ele>275.0</ele><time>2026-04-04T14:19:58.577Z</time></trkpt><trkpt lat="43.1325602" lon="11.5375083"><ele>277.0</ele><time>2026-04-04T14:19:59.58Z</time></trkpt><trkpt lat="43.1325128" lon="11.5376442"><ele>279.0</ele><time>2026-04-04T14:20:00.581Z</time></trkpt><trkpt lat="43.1324637" lon="11.5377899"><ele>281.0</ele><time>2026-04-04T14:20:01.584Z</time></trkpt><trkpt lat="43.132415" lon="11.5379407"><ele>283.0</ele><time>2026-04-04T14:20:02.592Z</time></trkpt><trkpt lat="43.1323721" lon="11.5380965"><ele>285.5</ele><time>2026-04-04T14:20:03.607Z</time></trkpt><trkpt lat="43.1323332" lon="11.5382614"><ele>288.0</ele><time>2026-04-04T14:20:04.579Z</time></trkpt><trkpt lat="43.1323002" lon="11.5384324"><ele>290.5</ele><time>2026-04-04T14:20:05.59Z</time></trkpt><trkpt lat="43.1322692" lon="11.5386073"><ele>293.0</ele><time>2026-04-04T14:20:06.597Z</time></trkpt><trkpt lat="43.1322423" lon="11.5387856"><ele>295.0</ele><time>2026-04-04T14:20:07.586Z</time></trkpt><trkpt lat="43.1322198" lon="11.5389668"><ele>297.0</ele><time>2026-04-04T14:20:08.59Z</time></trkpt><trkpt lat="43.1322052" lon="11.5391532"><ele>299.0</ele><time>2026-04-04T14:20:09.589Z</time></trkpt><trkpt lat="43.1322005" lon="11.5393404"><ele>301.0</ele><time>2026-04-04T14:20:10.596Z</time></trkpt><trkpt lat="43.1322017" lon="11.5395097"><ele>302.25</ele><time>2026-04-04T14:20:11.581Z</time></trkpt><trkpt lat="43.1321969" lon="11.5396718"><ele>303.5</ele><time>2026-04-04T14:20:12.586Z</time></trkpt><trkpt lat="43.1321827" lon="11.5398316"><ele>304.75</ele><time>2026-04-04T14:20:13.586Z</time></trkpt><trkpt lat="43.1321538" lon="11.5399908"><ele>306.0</ele><time>2026-04-04T14:20:14.592Z</time></trkpt><trkpt lat="43.1321111" lon="11.5401612"><ele>306.0</ele><time>2026-04-04T14:20:15.59Z</time></trkpt><trkpt lat="43.1320621" lon="11.5403381"><ele>306.0</ele><time>2026-04-04T14:20:16.587Z</time></trkpt><trkpt lat="43.1320162" lon="11.5405231"><ele>306.0</ele><time>2026-04-04T14:20:17.594Z</time></trkpt><trkpt lat="43.1319821" lon="11.5407202"><ele>306.0</ele><time>2026-04-04T14:20:18.584Z</time></trkpt><trkpt lat="43.1319601" lon="11.5409231"><ele>306.0</ele><time>2026-04-04T14:20:19.592Z</time></trkpt><trkpt lat="43.1319385" lon="11.5411081"><ele>306.0</ele><time>2026-04-04T14:20:20.586Z</time></trkpt><trkpt lat="43.1319156" lon="11.5412769"><ele>306.0</ele><time>2026-04-04T14:20:21.592Z</time></trkpt><trkpt lat="43.1318876" lon="11.5414226"><ele>306.0</ele><time>2026-04-04T14:20:22.592Z</time></trkpt><trkpt lat="43.1318614" lon="11.5415551"><ele>305.8</ele><time>2026-04-04T14:20:23.605Z</time></trkpt><trkpt lat="43.1318386" lon="11.5416736"><ele>305.6</ele><time>2026-04-04T14:20:24.596Z</time></trkpt><trkpt lat="43.131822" lon="11.5417999"><ele>305.4</ele><time>2026-04-04T14:20:25.59Z</time></trkpt><trkpt lat="43.1318174" lon="11.5419348"><ele>305.2</ele><time>2026-04-04T14:20:26.589Z</time></trkpt><trkpt lat="43.1318288" lon="11.5420784"><ele>305.0</ele><time>2026-04-04T14:20:27.58Z</time></trkpt><trkpt lat="43.1318602" lon="11.5422256"><ele>304.75</ele><time>2026-04-04T14:20:28.598Z</time></trkpt><trkpt lat="43.1319102" lon="11.5423713"><ele>304.5</ele><time>2026-04-04T14:20:29.591Z</time></trkpt><trkpt lat="43.1319724" lon="11.5425301"><ele>304.25</ele><time>2026-04-04T14:20:30.589Z</time></trkpt><trkpt lat="43.1320443" lon="11.5426991"><ele>304.0</ele><time>2026-04-04T14:20:31.587Z</time></trkpt><trkpt lat="43.1321124" lon="11.5428589"><ele>303.5</ele><time>2026-04-04T14:20:32.588Z</time></trkpt><trkpt lat="43.1321723" lon="11.5430042"><ele>303.0</ele><time>2026-04-04T14:20:33.597Z</time></trkpt><trkpt lat="43.1322269" lon="11.5431484"><ele>302.5</ele><time>2026-04-04T14:20:34.592Z</time></trkpt><trkpt lat="43.1322861" lon="11.5433025"><ele>302.0</ele><time>2026-04-04T14:20:35.585Z</time></trkpt><trkpt lat="43.1323479" lon="11.5434648"><ele>302.0</ele><time>2026-04-04T14:20:36.586Z</time></trkpt><trkpt lat="43.1324155" lon="11.5436383"><ele>302.0</ele><time>2026-04-04T14:20:37.584Z</time></trkpt><trkpt lat="43.1324861" lon="11.5438275"><ele>302.0</ele><time>2026-04-04T14:20:38.587Z</time></trkpt><trkpt lat="43.1325512" lon="11.5440287"><ele>302.0</ele><time>2026-04-04T14:20:39.587Z</time></trkpt><trkpt lat="43.1326126" lon="11.5442494"><ele>302.0</ele><time>2026-04-04T14:20:40.585Z</time></trkpt><trkpt lat="43.132672" lon="11.5444824"><ele>302.0</ele><time>2026-04-04T14:20:41.604Z</time></trkpt><trkpt lat="43.1327308" lon="11.5447272"><ele>300.6666666666667</ele><time>2026-04-04T14:20:42.581Z</time></trkpt><trkpt lat="43.1327895" lon="11.544978"><ele>299.3333333333333</ele><time>2026-04-04T14:20:43.593Z</time></trkpt><trkpt lat="43.1328518" lon="11.5452341"><ele>298.0</ele><time>2026-04-04T14:20:44.599Z</time></trkpt><trkpt lat="43.1329145" lon="11.5455014"><ele>297.0</ele><time>2026-04-04T14:20:45.587Z</time></trkpt><trkpt lat="43.1329781" lon="11.5457775"><ele>296.0</ele><time>2026-04-04T14:20:46.59Z</time></trkpt><trkpt lat="43.1330416" lon="11.5460494"><ele>295.0</ele><time>2026-04-04T14:20:47.594Z</time></trkpt><trkpt lat="43.1331004" lon="11.5463005"><ele>295.0</ele><time>2026-04-04T14:20:48.6Z</time></trkpt><trkpt lat="43.1331544" lon="11.5465372"><ele>295.0</ele><time>2026-04-04T14:20:49.594Z</time></trkpt><trkpt lat="43.1332076" lon="11.5467625"><ele>295.0</ele><time>2026-04-04T14:20:50.591Z</time></trkpt><trkpt lat="43.1332616" lon="11.5469871"><ele>300.3333333333333</ele><time>2026-04-04T14:20:51.589Z</time></trkpt><trkpt lat="43.1333156" lon="11.5472086"><ele>305.6666666666667</ele><time>2026-04-04T14:20:52.603Z</time></trkpt><trkpt lat="43.1333635" lon="11.5474097"><ele>311.0</ele><time>2026-04-04T14:20:53.589Z</time></trkpt><trkpt lat="43.1334046" lon="11.5475859"><ele>311.0</ele><time>2026-04-04T14:20:54.59Z</time></trkpt><trkpt lat="43.1334392" lon="11.5477408"><ele>311.0</ele><time>2026-04-04T14:20:55.577Z</time></trkpt><trkpt lat="43.1334649" lon="11.5478851"><ele>311.0</ele><time>2026-04-04T14:20:56.584Z</time></trkpt><trkpt lat="43.1334778" lon="11.5480164"><ele>311.0</ele><time>2026-04-04T14:20:57.59Z</time></trkpt><trkpt lat="43.1334754" lon="11.5481534"><ele>311.0</ele><time>2026-04-04T14:20:58.586Z</time></trkpt><trkpt lat="43.1334497" lon="11.5482936"><ele>311.0</ele><time>2026-04-04T14:20:59.59Z</time></trkpt><trkpt lat="43.133407" lon="11.5484232"><ele>311.0</ele><time>2026-04-04T14:21:00.586Z</time></trkpt><trkpt lat="43.1333532" lon="11.548547"><ele>311.0</ele><time>2026-04-04T14:21:01.593Z</time></trkpt><trkpt lat="43.1332874" lon="11.5486577"><ele>311.0</ele><time>2026-04-04T14:21:02.592Z</time></trkpt><trkpt lat="43.1332041" lon="11.5487554"><ele>311.0</ele><time>2026-04-04T14:21:03.579Z</time></trkpt><trkpt lat="43.1331023" lon="11.5488374"><ele>310.5</ele><time>2026-04-04T14:21:04.592Z</time></trkpt><trkpt lat="43.132985" lon="11.5489173"><ele>310.0</ele><time>2026-04-04T14:21:05.583Z</time></trkpt><trkpt lat="43.1328801" lon="11.5489903"><ele>309.5</ele><time>2026-04-04T14:21:06.592Z</time></trkpt><trkpt lat="43.1327801" lon="11.5490645"><ele>309.0</ele><time>2026-04-04T14:21:07.58Z</time></trkpt><trkpt lat="43.1326858" lon="11.5491407"><ele>309.0</ele><time>2026-04-04T14:21:08.6Z</time></trkpt><trkpt lat="43.1325956" lon="11.5492272"><ele>309.0</ele><time>2026-04-04T14:21:09.59Z</time></trkpt><trkpt lat="43.1325087" lon="11.5493245"><ele>309.0</ele><time>2026-04-04T14:21:10.585Z</time></trkpt><trkpt lat="43.1324254" lon="11.5494375"><ele>309.0</ele><time>2026-04-04T14:21:11.583Z</time></trkpt><trkpt lat="43.1323425" lon="11.5495725"><ele>308.5</ele><time>2026-04-04T14:21:12.582Z</time></trkpt><trkpt lat="43.1322586" lon="11.5497241"><ele>308.0</ele><time>2026-04-04T14:21:13.599Z</time></trkpt><trkpt lat="43.1321661" lon="11.5498957"><ele>307.5</ele><time>2026-04-04T14:21:14.599Z</time></trkpt><trkpt lat="43.1320769" lon="11.5500623"><ele>307.0</ele><time>2026-04-04T14:21:15.59Z</time></trkpt><trkpt lat="43.131993" lon="11.5502239"><ele>304.75</ele><time>2026-04-04T14:21:16.581Z</time></trkpt><trkpt lat="43.1319096" lon="11.5503802"><ele>302.5</ele><time>2026-04-04T14:21:17.593Z</time></trkpt><trkpt lat="43.1318293" lon="11.5505264"><ele>300.25</ele><time>2026-04-04T14:21:18.588Z</time></trkpt><trkpt lat="43.1317521" lon="11.5506652"><ele>298.0</ele><time>2026-04-04T14:21:19.587Z</time></trkpt><trkpt lat="43.131679" lon="11.5507964"><ele>298.0</ele><time>2026-04-04T14:21:20.59Z</time></trkpt><trkpt lat="43.1316081" lon="11.5509214"><ele>298.0</ele><time>2026-04-04T14:21:21.584Z</time></trkpt><trkpt lat="43.1315422" lon="11.5510429"><ele>298.0</ele><time>2026-04-04T14:21:22.585Z</time></trkpt><trkpt lat="43.1314775" lon="11.5511607"><ele>298.0</ele><time>2026-04-04T14:21:23.581Z</time></trkpt><trkpt lat="43.1314157" lon="11.5512727"><ele>298.0</ele><time>2026-04-04T14:21:24.586Z</time></trkpt><trkpt lat="43.1313556" lon="11.5513786"><ele>298.6</ele><time>2026-04-04T14:21:25.586Z</time></trkpt><trkpt lat="43.1312967" lon="11.5514787"><ele>299.20000000000005</ele><time>2026-04-04T14:21:26.589Z</time></trkpt><trkpt lat="43.1312417" lon="11.5515764"><ele>299.8</ele><time>2026-04-04T14:21:27.614Z</time></trkpt><trkpt lat="43.1311898" lon="11.5516862"><ele>300.40000000000003</ele><time>2026-04-04T14:21:28.598Z</time></trkpt><trkpt lat="43.1311483" lon="11.5518095"><ele>301.0</ele><time>2026-04-04T14:21:29.587Z</time></trkpt><trkpt lat="43.1311203" lon="11.5519442"><ele>299.2</ele><time>2026-04-04T14:21:30.594Z</time></trkpt><trkpt lat="43.1311076" lon="11.5520894"><ele>297.40000000000003</ele><time>2026-04-04T14:21:31.589Z</time></trkpt><trkpt lat="43.1311049" lon="11.552238"><ele>295.6</ele><time>2026-04-04T14:21:32.591Z</time></trkpt><trkpt lat="43.1311103" lon="11.5523875"><ele>293.8</ele><time>2026-04-04T14:21:33.614Z</time></trkpt><trkpt lat="43.1311216" lon="11.5525277"><ele>292.0</ele><time>2026-04-04T14:21:34.578Z</time></trkpt><trkpt lat="43.1311289" lon="11.552657"><ele>292.0</ele><time>2026-04-04T14:21:35.597Z</time></trkpt><trkpt lat="43.1311269" lon="11.5527785"><ele>292.0</ele><time>2026-04-04T14:21:36.594Z</time></trkpt><trkpt lat="43.1311132" lon="11.5528918"><ele>292.0</ele><time>2026-04-04T14:21:37.579Z</time></trkpt><trkpt lat="43.1310892" lon="11.5530059"><ele>292.0</ele><time>2026-04-04T14:21:38.592Z</time></trkpt><trkpt lat="43.1310482" lon="11.5531064"><ele>292.0</ele><time>2026-04-04T14:21:39.598Z</time></trkpt><trkpt lat="43.1309893" lon="11.5531931"><ele>292.0</ele><time>2026-04-04T14:21:40.601Z</time></trkpt><trkpt lat="43.1309162" lon="11.553268"><ele>290.2</ele><time>2026-04-04T14:21:41.587Z</time></trkpt><trkpt lat="43.1308418" lon="11.5533224"><ele>288.4</ele><time>2026-04-04T14:21:42.586Z</time></trkpt><trkpt lat="43.1307599" lon="11.5533591"><ele>286.6</ele><time>2026-04-04T14:21:43.599Z</time></trkpt><trkpt lat="43.1306665" lon="11.5533758"><ele>284.8</ele><time>2026-04-04T14:21:44.588Z</time></trkpt><trkpt lat="43.1305691" lon="11.5533704"><ele>283.0</ele><time>2026-04-04T14:21:45.584Z</time></trkpt><trkpt lat="43.1304606" lon="11.5533418"><ele>282.0</ele><time>2026-04-04T14:21:46.575Z</time></trkpt><trkpt lat="43.1303464" lon="11.5533008"><ele>281.0</ele><time>2026-04-04T14:21:47.587Z</time></trkpt><trkpt lat="43.1302401" lon="11.553263"><ele>280.0</ele><time>2026-04-04T14:21:48.586Z</time></trkpt><trkpt lat="43.1301374" lon="11.5532254"><ele>279.0</ele><time>2026-04-04T14:21:49.592Z</time></trkpt><trkpt lat="43.1300412" lon="11.5531885"><ele>278.0</ele><time>2026-04-04T14:21:50.587Z</time></trkpt><trkpt lat="43.1299469" lon="11.5531554"><ele>278.0</ele><time>2026-04-04T14:21:51.584Z</time></trkpt><trkpt lat="43.1298507" lon="11.5531243"><ele>278.0</ele><time>2026-04-04T14:21:52.583Z</time></trkpt><trkpt lat="43.1297519" lon="11.5531007"><ele>278.0</ele><time>2026-04-04T14:21:53.576Z</time></trkpt><trkpt lat="43.129655" lon="11.5530906"><ele>278.0</ele><time>2026-04-04T14:21:54.592Z</time></trkpt><trkpt lat="43.1295637" lon="11.553099"><ele>278.0</ele><time>2026-04-04T14:21:55.598Z</time></trkpt><trkpt lat="43.129483" lon="11.5531397"><ele>278.0</ele><time>2026-04-04T14:21:56.592Z</time></trkpt><trkpt lat="43.1294166" lon="11.5532031"><ele>278.0</ele><time>2026-04-04T14:21:57.592Z</time></trkpt><trkpt lat="43.1293627" lon="11.5532955"><ele>278.0</ele><time>2026-04-04T14:21:58.581Z</time></trkpt><trkpt lat="43.129336" lon="11.5533981"><ele>278.0</ele><time>2026-04-04T14:21:59.591Z</time></trkpt><trkpt lat="43.1293303" lon="11.553504"><ele>278.0</ele><time>2026-04-04T14:22:00.587Z</time></trkpt><trkpt lat="43.1293457" lon="11.5535998"><ele>278.0</ele><time>2026-04-04T14:22:01.587Z</time></trkpt><trkpt lat="43.1293906" lon="11.5536864"><ele>275.8</ele><time>2026-04-04T14:22:02.582Z</time></trkpt><trkpt lat="43.1294576" lon="11.5537474"><ele>273.6</ele><time>2026-04-04T14:22:03.595Z</time></trkpt><trkpt lat="43.1295486" lon="11.5537848"><ele>271.4</ele><time>2026-04-04T14:22:04.588Z</time></trkpt><trkpt lat="43.1296638" lon="11.5538084"><ele>269.2</ele><time>2026-04-04T14:22:05.592Z</time></trkpt><trkpt lat="43.1297811" lon="11.5538351"><ele>267.0</ele><time>2026-04-04T14:22:06.59Z</time></trkpt><trkpt lat="43.1298935" lon="11.5538835"><ele>266.8</ele><time>2026-04-04T14:22:07.6Z</time></trkpt><trkpt lat="43.1300061" lon="11.5539631"><ele>266.6</ele><time>2026-04-04T14:22:08.595Z</time></trkpt><trkpt lat="43.1300999" lon="11.55405"><ele>266.40000000000003</ele><time>2026-04-04T14:22:09.582Z</time></trkpt><trkpt lat="43.1301795" lon="11.5541321"><ele>266.2</ele><time>2026-04-04T14:22:10.583Z</time></trkpt><trkpt lat="43.1302512" lon="11.5542287"><ele>266.0</ele><time>2026-04-04T14:22:11.59Z</time></trkpt><trkpt lat="43.1303393" lon="11.5543269"><ele>266.0</ele><time>2026-04-04T14:22:12.587Z</time></trkpt><trkpt lat="43.1304509" lon="11.5544312"><ele>266.0</ele><time>2026-04-04T14:22:13.595Z</time></trkpt><trkpt lat="43.1305531" lon="11.5545189"><ele>266.0</ele><time>2026-04-04T14:22:14.594Z</time></trkpt><trkpt lat="43.1306455" lon="11.5546156"><ele>266.0</ele><time>2026-04-04T14:22:15.605Z</time></trkpt><trkpt lat="43.130726" lon="11.5547154"><ele>265.2</ele><time>2026-04-04T14:22:16.597Z</time></trkpt><trkpt lat="43.1307946" lon="11.5548205"><ele>264.40000000000003</ele><time>2026-04-04T14:22:17.596Z</time></trkpt><trkpt lat="43.1308527" lon="11.5549239"><ele>263.6</ele><time>2026-04-04T14:22:18.592Z</time></trkpt><trkpt lat="43.1309163" lon="11.5550099"><ele>262.8</ele><time>2026-04-04T14:22:19.582Z</time></trkpt><trkpt lat="43.1309924" lon="11.5550868"><ele>262.0</ele><time>2026-04-04T14:22:20.594Z</time></trkpt><trkpt lat="43.1310686" lon="11.5551372"><ele>262.0</ele><time>2026-04-04T14:22:21.592Z</time></trkpt><trkpt lat="43.1311513" lon="11.5551612"><ele>262.0</ele><time>2026-04-04T14:22:22.588Z</time></trkpt><trkpt lat="43.1312432" lon="11.5551635"><ele>262.0</ele><time>2026-04-04T14:22:23.59Z</time></trkpt><trkpt lat="43.1313376" lon="11.5551413"><ele>262.0</ele><time>2026-04-04T14:22:24.582Z</time></trkpt><trkpt lat="43.1314342" lon="11.5550917"><ele>262.0</ele><time>2026-04-04T14:22:25.588Z</time></trkpt><trkpt lat="43.1315301" lon="11.5550153"><ele>260.5</ele><time>2026-04-04T14:22:26.58Z</time></trkpt><trkpt lat="43.1316248" lon="11.5549156"><ele>259.0</ele><time>2026-04-04T14:22:27.589Z</time></trkpt><trkpt lat="43.131721" lon="11.554799"><ele>257.5</ele><time>2026-04-04T14:22:28.586Z</time></trkpt><trkpt lat="43.1318046" lon="11.5546835"><ele>256.0</ele><time>2026-04-04T14:22:29.588Z</time></trkpt><trkpt lat="43.1318786" lon="11.5545725"><ele>257.66666666666663</ele><time>2026-04-04T14:22:30.587Z</time></trkpt><trkpt lat="43.131948" lon="11.55447"><ele>259.3333333333333</ele><time>2026-04-04T14:22:31.586Z</time></trkpt><trkpt lat="43.1320125" lon="11.5543744"><ele>261.0</ele><time>2026-04-04T14:22:32.601Z</time></trkpt><trkpt lat="43.1320724" lon="11.5542855"><ele>262.6666666666667</ele><time>2026-04-04T14:22:33.591Z</time></trkpt><trkpt lat="43.1321296" lon="11.5542104"><ele>264.33333333333337</ele><time>2026-04-04T14:22:34.578Z</time></trkpt><trkpt lat="43.1321891" lon="11.5541472"><ele>266.0</ele><time>2026-04-04T14:22:35.579Z</time></trkpt><trkpt lat="43.1322547" lon="11.5541064"><ele>266.0</ele><time>2026-04-04T14:22:36.579Z</time></trkpt><trkpt lat="43.1323249" lon="11.5540819"><ele>266.0</ele><time>2026-04-04T14:22:37.576Z</time></trkpt><trkpt lat="43.1323938" lon="11.554071"><ele>266.0</ele><time>2026-04-04T14:22:38.585Z</time></trkpt><trkpt lat="43.1324593" lon="11.5540858"><ele>266.0</ele><time>2026-04-04T14:22:39.603Z</time></trkpt><trkpt lat="43.1325244" lon="11.5541215"><ele>266.0</ele><time>2026-04-04T14:22:40.577Z</time></trkpt><trkpt lat="43.1325929" lon="11.5541846"><ele>266.0</ele><time>2026-04-04T14:22:41.585Z</time></trkpt><trkpt lat="43.1326629" lon="11.5542607"><ele>263.33333333333337</ele><time>2026-04-04T14:22:42.59Z</time></trkpt><trkpt lat="43.1327246" lon="11.5543421"><ele>260.6666666666667</ele><time>2026-04-04T14:22:43.585Z</time></trkpt><trkpt lat="43.1327774" lon="11.5544307"><ele>258.0</ele><time>2026-04-04T14:22:44.58Z</time></trkpt><trkpt lat="43.1328171" lon="11.5545252"><ele>255.33333333333331</ele><time>2026-04-04T14:22:45.588Z</time></trkpt><trkpt lat="43.1328427" lon="11.5546223"><ele>252.66666666666666</ele><time>2026-04-04T14:22:46.593Z</time></trkpt><trkpt lat="43.132853" lon="11.5547215"><ele>250.0</ele><time>2026-04-04T14:22:47.583Z</time></trkpt><trkpt lat="43.1328498" lon="11.5548157"><ele>249.33333333333331</ele><time>2026-04-04T14:22:48.576Z</time></trkpt><trkpt lat="43.1328294" lon="11.5549096"><ele>248.66666666666666</ele><time>2026-04-04T14:22:49.594Z</time></trkpt><trkpt lat="43.1327984" lon="11.5550022"><ele>248.0</ele><time>2026-04-04T14:22:50.584Z</time></trkpt><trkpt lat="43.1327501" lon="11.5550946"><ele>247.33333333333331</ele><time>2026-04-04T14:22:51.592Z</time></trkpt><trkpt lat="43.1326805" lon="11.5551871"><ele>246.66666666666666</ele><time>2026-04-04T14:22:52.603Z</time></trkpt><trkpt lat="43.1325911" lon="11.555284"><ele>246.0</ele><time>2026-04-04T14:22:53.591Z</time></trkpt><trkpt lat="43.132477" lon="11.5554074"><ele>245.25</ele><time>2026-04-04T14:22:54.582Z</time></trkpt><trkpt lat="43.132358" lon="11.5555407"><ele>244.5</ele><time>2026-04-04T14:22:55.592Z</time></trkpt><trkpt lat="43.1322469" lon="11.555662"><ele>243.75</ele><time>2026-04-04T14:22:56.584Z</time></trkpt><trkpt lat="43.1321375" lon="11.5557798"><ele>243.0</ele><time>2026-04-04T14:22:57.579Z</time></trkpt><trkpt lat="43.1320327" lon="11.5558883"><ele>243.0</ele><time>2026-04-04T14:22:58.589Z</time></trkpt><trkpt lat="43.1319288" lon="11.5559863"><ele>243.0</ele><time>2026-04-04T14:22:59.594Z</time></trkpt><trkpt lat="43.1318287" lon="11.5560738"><ele>243.0</ele><time>2026-04-04T14:23:00.585Z</time></trkpt><trkpt lat="43.1317314" lon="11.5561543"><ele>243.0</ele><time>2026-04-04T14:23:01.591Z</time></trkpt><trkpt lat="43.1316387" lon="11.5562295"><ele>240.4</ele><time>2026-04-04T14:23:02.59Z</time></trkpt><trkpt lat="43.1315491" lon="11.5562994"><ele>237.8</ele><time>2026-04-04T14:23:03.59Z</time></trkpt><trkpt lat="43.1314612" lon="11.5563687"><ele>235.2</ele><time>2026-04-04T14:23:04.583Z</time></trkpt><trkpt lat="43.1313731" lon="11.5564377"><ele>232.6</ele><time>2026-04-04T14:23:05.591Z</time></trkpt><trkpt lat="43.1312896" lon="11.5565"><ele>230.0</ele><time>2026-04-04T14:23:06.594Z</time></trkpt><trkpt lat="43.1312155" lon="11.5565561"><ele>229.99999999999997</ele><time>2026-04-04T14:23:07.587Z</time></trkpt><trkpt lat="43.1311554" lon="11.5566177"><ele>230.0</ele><time>2026-04-04T14:23:08.582Z</time></trkpt><trkpt lat="43.1311108" lon="11.556689"><ele>229.99999999999997</ele><time>2026-04-04T14:23:09.579Z</time></trkpt><trkpt lat="43.1310819" lon="11.5567697"><ele>229.99999999999997</ele><time>2026-04-04T14:23:10.598Z</time></trkpt><trkpt lat="43.13107" lon="11.5568604"><ele>230.0</ele><time>2026-04-04T14:23:11.581Z</time></trkpt><trkpt lat="43.1310728" lon="11.5569627"><ele>229.99999999999997</ele><time>2026-04-04T14:23:12.594Z</time></trkpt><trkpt lat="43.1310965" lon="11.5570693"><ele>229.99999999999997</ele><time>2026-04-04T14:23:13.599Z</time></trkpt><trkpt lat="43.1311359" lon="11.5571682"><ele>227.33333333333334</ele><time>2026-04-04T14:23:14.597Z</time></trkpt><trkpt lat="43.1311863" lon="11.5572517"><ele>224.66666666666669</ele><time>2026-04-04T14:23:15.583Z</time></trkpt><trkpt lat="43.1312505" lon="11.5573202"><ele>222.0</ele><time>2026-04-04T14:23:16.586Z</time></trkpt><trkpt lat="43.1313297" lon="11.5573689"><ele>219.33333333333331</ele><time>2026-04-04T14:23:17.595Z</time></trkpt><trkpt lat="43.131414" lon="11.5573859"><ele>216.66666666666666</ele><time>2026-04-04T14:23:18.602Z</time></trkpt><trkpt lat="43.1315024" lon="11.557371"><ele>214.0</ele><time>2026-04-04T14:23:19.595Z</time></trkpt><trkpt lat="43.1316042" lon="11.5573311"><ele>214.0</ele><time>2026-04-04T14:23:20.593Z</time></trkpt><trkpt lat="43.1317286" lon="11.5572728"><ele>214.0</ele><time>2026-04-04T14:23:21.588Z</time></trkpt><trkpt lat="43.1318598" lon="11.557216"><ele>214.0</ele><time>2026-04-04T14:23:22.59Z</time></trkpt><trkpt lat="43.131976" lon="11.557168"><ele>214.0</ele><time>2026-04-04T14:23:23.583Z</time></trkpt><trkpt lat="43.1320851" lon="11.5571193"><ele>214.0</ele><time>2026-04-04T14:23:24.583Z</time></trkpt><trkpt lat="43.1321859" lon="11.5570638"><ele>213.99999999999997</ele><time>2026-04-04T14:23:25.596Z</time></trkpt><trkpt lat="43.1322751" lon="11.556992"><ele>213.99999999999997</ele><time>2026-04-04T14:23:26.588Z</time></trkpt><trkpt lat="43.1323495" lon="11.5569069"><ele>214.0</ele><time>2026-04-04T14:23:27.579Z</time></trkpt><trkpt lat="43.1324174" lon="11.5568191"><ele>214.0</ele><time>2026-04-04T14:23:28.594Z</time></trkpt><trkpt lat="43.1324821" lon="11.5567299"><ele>214.79999999999998</ele><time>2026-04-04T14:23:29.593Z</time></trkpt><trkpt lat="43.1325521" lon="11.5566298"><ele>215.59999999999997</ele><time>2026-04-04T14:23:30.592Z</time></trkpt><trkpt lat="43.1326273" lon="11.5565261"><ele>216.4</ele><time>2026-04-04T14:23:31.579Z</time></trkpt><trkpt lat="43.1327004" lon="11.556426"><ele>217.2</ele><time>2026-04-04T14:23:32.596Z</time></trkpt><trkpt lat="43.1327674" lon="11.5563353"><ele>218.0</ele><time>2026-04-04T14:23:33.579Z</time></trkpt><trkpt lat="43.1328292" lon="11.5562407"><ele>221.4</ele><time>2026-04-04T14:23:34.587Z</time></trkpt><trkpt lat="43.1328892" lon="11.5561433"><ele>224.8</ele><time>2026-04-04T14:23:35.596Z</time></trkpt><trkpt lat="43.1329567" lon="11.5560563"><ele>228.2</ele><time>2026-04-04T14:23:36.599Z</time></trkpt><trkpt lat="43.1330299" lon="11.5559814"><ele>231.6</ele><time>2026-04-04T14:23:37.587Z</time></trkpt><trkpt lat="43.1331119" lon="11.5559276"><ele>235.0</ele><time>2026-04-04T14:23:38.586Z</time></trkpt><trkpt lat="43.1331955" lon="11.5558887"><ele>231.66666666666666</ele><time>2026-04-04T14:23:39.599Z</time></trkpt><trkpt lat="43.133276" lon="11.5558713"><ele>228.33333333333331</ele><time>2026-04-04T14:23:40.599Z</time></trkpt><trkpt lat="43.1333587" lon="11.5558652"><ele>225.0</ele><time>2026-04-04T14:23:41.579Z</time></trkpt><trkpt lat="43.133439" lon="11.5558723"><ele>221.66666666666669</ele><time>2026-04-04T14:23:42.597Z</time></trkpt><trkpt lat="43.1335053" lon="11.5558985"><ele>218.33333333333334</ele><time>2026-04-04T14:23:43.581Z</time></trkpt><trkpt lat="43.1335661" lon="11.5559474"><ele>215.0</ele><time>2026-04-04T14:23:44.585Z</time></trkpt><trkpt lat="43.1336252" lon="11.5560181"><ele>215.0</ele><time>2026-04-04T14:23:45.581Z</time></trkpt><trkpt lat="43.1336787" lon="11.5561067"><ele>215.0</ele><time>2026-04-04T14:23:46.599Z</time></trkpt><trkpt lat="43.1337188" lon="11.5562014"><ele>215.0</ele><time>2026-04-04T14:23:47.601Z</time></trkpt><trkpt lat="43.133755" lon="11.5563167"><ele>215.0</ele><time>2026-04-04T14:23:48.599Z</time></trkpt><trkpt lat="43.1337891" lon="11.556466"><ele>215.0</ele><time>2026-04-04T14:23:49.587Z</time></trkpt><trkpt lat="43.1338227" lon="11.5566462"><ele>211.66666666666669</ele><time>2026-04-04T14:23:50.59Z</time></trkpt><trkpt lat="43.1338592" lon="11.556848"><ele>208.33333333333331</ele><time>2026-04-04T14:23:51.575Z</time></trkpt><trkpt lat="43.1338997" lon="11.5570643"><ele>205.0</ele><time>2026-04-04T14:23:52.584Z</time></trkpt><trkpt lat="43.133936" lon="11.5572825"><ele>203.33333333333331</ele><time>2026-04-04T14:23:53.587Z</time></trkpt><trkpt lat="43.1339693" lon="11.5575093"><ele>201.66666666666669</ele><time>2026-04-04T14:23:54.59Z</time></trkpt><trkpt lat="43.1339984" lon="11.5577403"><ele>200.0</ele><time>2026-04-04T14:23:55.584Z</time></trkpt><trkpt lat="43.13402" lon="11.5579662"><ele>200.0</ele><time>2026-04-04T14:23:56.592Z</time></trkpt><trkpt lat="43.1340295" lon="11.5581929"><ele>200.0</ele><time>2026-04-04T14:23:57.6Z</time></trkpt><trkpt lat="43.1340265" lon="11.5584152"><ele>200.0</ele><time>2026-04-04T14:23:58.593Z</time></trkpt><trkpt lat="43.1340181" lon="11.5586133"><ele>200.0</ele><time>2026-04-04T14:23:59.595Z</time></trkpt><trkpt lat="43.1340108" lon="11.5587869"><ele>200.0</ele><time>2026-04-04T14:24:00.594Z</time></trkpt><trkpt lat="43.1340069" lon="11.55895"><ele>200.0</ele><time>2026-04-04T14:24:01.586Z</time></trkpt><trkpt lat="43.1340089" lon="11.5591095"><ele>200.0</ele><time>2026-04-04T14:24:02.585Z</time></trkpt><trkpt lat="43.1340189" lon="11.5592638"><ele>200.0</ele><time>2026-04-04T14:24:03.598Z</time></trkpt><trkpt lat="43.1340346" lon="11.5594047"><ele>200.0</ele><time>2026-04-04T14:24:04.583Z</time></trkpt><trkpt lat="43.1340611" lon="11.559537"><ele>200.0</ele><time>2026-04-04T14:24:05.595Z</time></trkpt><trkpt lat="43.1341047" lon="11.559663"><ele>200.0</ele><time>2026-04-04T14:24:06.596Z</time></trkpt><trkpt lat="43.1341615" lon="11.5597906"><ele>200.0</ele><time>2026-04-04T14:24:07.585Z</time></trkpt><trkpt lat="43.1342293" lon="11.5599202"><ele>203.0</ele><time>2026-04-04T14:24:08.592Z</time></trkpt><trkpt lat="43.1343085" lon="11.560062"><ele>206.0</ele><time>2026-04-04T14:24:09.582Z</time></trkpt><trkpt lat="43.1343985" lon="11.5602244"><ele>209.0</ele><time>2026-04-04T14:24:10.598Z</time></trkpt><trkpt lat="43.1344949" lon="11.5604031"><ele>212.0</ele><time>2026-04-04T14:24:11.594Z</time></trkpt><trkpt lat="43.134598" lon="11.5605937"><ele>212.0</ele><time>2026-04-04T14:24:12.605Z</time></trkpt><trkpt lat="43.1346993" lon="11.5607831"><ele>212.0</ele><time>2026-04-04T14:24:13.577Z</time></trkpt><trkpt lat="43.1348018" lon="11.5609787"><ele>212.0</ele><time>2026-04-04T14:24:14.597Z</time></trkpt><trkpt lat="43.1349045" lon="11.5611743"><ele>219.0</ele><time>2026-04-04T14:24:15.585Z</time></trkpt><trkpt lat="43.1350112" lon="11.5613763"><ele>226.0</ele><time>2026-04-04T14:24:16.587Z</time></trkpt><trkpt lat="43.1351191" lon="11.561578"><ele>233.0</ele><time>2026-04-04T14:24:17.585Z</time></trkpt><trkpt lat="43.1352146" lon="11.5617621"><ele>233.0</ele><time>2026-04-04T14:24:18.581Z</time></trkpt><trkpt lat="43.1352959" lon="11.5619181"><ele>233.0</ele><time>2026-04-04T14:24:19.582Z</time></trkpt><trkpt lat="43.1353816" lon="11.5620726"><ele>233.0</ele><time>2026-04-04T14:24:20.581Z</time></trkpt><trkpt lat="43.1354701" lon="11.5622175"><ele>233.0</ele><time>2026-04-04T14:24:21.578Z</time></trkpt><trkpt lat="43.1355658" lon="11.5623567"><ele>231.75</ele><time>2026-04-04T14:24:22.593Z</time></trkpt><trkpt lat="43.1356715" lon="11.5625004"><ele>230.5</ele><time>2026-04-04T14:24:23.579Z</time></trkpt><trkpt lat="43.1357843" lon="11.5626476"><ele>229.25</ele><time>2026-04-04T14:24:24.582Z</time></trkpt><trkpt lat="43.1358868" lon="11.5627813"><ele>228.0</ele><time>2026-04-04T14:24:25.587Z</time></trkpt><trkpt lat="43.1359817" lon="11.5629012"><ele>230.60000000000002</ele><time>2026-04-04T14:24:26.594Z</time></trkpt><trkpt lat="43.1360718" lon="11.5630108"><ele>233.20000000000002</ele><time>2026-04-04T14:24:27.582Z</time></trkpt><trkpt lat="43.1361516" lon="11.563105"><ele>235.8</ele><time>2026-04-04T14:24:28.599Z</time></trkpt><trkpt lat="43.1362225" lon="11.5631873"><ele>238.4</ele><time>2026-04-04T14:24:29.581Z</time></trkpt><trkpt lat="43.136286" lon="11.5632864"><ele>241.0</ele><time>2026-04-04T14:24:30.587Z</time></trkpt><trkpt lat="43.1363297" lon="11.5634012"><ele>241.0</ele><time>2026-04-04T14:24:31.597Z</time></trkpt><trkpt lat="43.1363598" lon="11.5635314"><ele>241.00000000000003</ele><time>2026-04-04T14:24:32.58Z</time></trkpt><trkpt lat="43.1363762" lon="11.5636683"><ele>241.00000000000003</ele><time>2026-04-04T14:24:33.596Z</time></trkpt><trkpt lat="43.1363796" lon="11.5638116"><ele>241.0</ele><time>2026-04-04T14:24:34.594Z</time></trkpt><trkpt lat="43.1363617" lon="11.5639345"><ele>241.0</ele><time>2026-04-04T14:24:35.593Z</time></trkpt><trkpt lat="43.1363238" lon="11.5640714"><ele>240.8</ele><time>2026-04-04T14:24:36.58Z</time></trkpt><trkpt lat="43.1362695" lon="11.5642112"><ele>240.60000000000002</ele><time>2026-04-04T14:24:37.59Z</time></trkpt><trkpt lat="43.1362045" lon="11.5643565"><ele>240.4</ele><time>2026-04-04T14:24:38.598Z</time></trkpt><trkpt lat="43.1361497" lon="11.5644866"><ele>240.2</ele><time>2026-04-04T14:24:39.584Z</time></trkpt><trkpt lat="43.1361069" lon="11.5646065"><ele>240.0</ele><time>2026-04-04T14:24:40.59Z</time></trkpt><trkpt lat="43.1360771" lon="11.5647128"><ele>240.83333333333334</ele><time>2026-04-04T14:24:41.589Z</time></trkpt><trkpt lat="43.1360588" lon="11.5648103"><ele>241.66666666666669</ele><time>2026-04-04T14:24:42.592Z</time></trkpt><trkpt lat="43.1360607" lon="11.5649156"><ele>242.5</ele><time>2026-04-04T14:24:43.595Z</time></trkpt><trkpt lat="43.1360856" lon="11.5650199"><ele>243.33333333333334</ele><time>2026-04-04T14:24:44.594Z</time></trkpt><trkpt lat="43.1361298" lon="11.5651378"><ele>244.16666666666669</ele><time>2026-04-04T14:24:45.584Z</time></trkpt><trkpt lat="43.136196" lon="11.565246"><ele>245.0</ele><time>2026-04-04T14:24:46.591Z</time></trkpt><trkpt lat="43.1362711" lon="11.5653465"><ele>245.50000000000003</ele><time>2026-04-04T14:24:47.588Z</time></trkpt><trkpt lat="43.1363258" lon="11.5654306"><ele>246.0</ele><time>2026-04-04T14:24:48.594Z</time></trkpt><trkpt lat="43.1363611" lon="11.5655181"><ele>246.5</ele><time>2026-04-04T14:24:49.591Z</time></trkpt><trkpt lat="43.1363831" lon="11.5656226"><ele>247.0</ele><time>2026-04-04T14:24:50.584Z</time></trkpt><trkpt lat="43.1363829" lon="11.5657371"><ele>247.50000000000003</ele><time>2026-04-04T14:24:51.592Z</time></trkpt><trkpt lat="43.1363624" lon="11.5658472"><ele>248.0</ele><time>2026-04-04T14:24:52.591Z</time></trkpt><trkpt lat="43.1363201" lon="11.5659474"><ele>248.00000000000003</ele><time>2026-04-04T14:24:53.596Z</time></trkpt><trkpt lat="43.1362633" lon="11.5660371"><ele>248.0</ele><time>2026-04-04T14:24:54.594Z</time></trkpt><trkpt lat="43.1362024" lon="11.5661273"><ele>248.0</ele><time>2026-04-04T14:24:55.584Z</time></trkpt><trkpt lat="43.1361604" lon="11.5662149"><ele>248.0</ele><time>2026-04-04T14:24:56.596Z</time></trkpt><trkpt lat="43.1361387" lon="11.5663073"><ele>248.00000000000003</ele><time>2026-04-04T14:24:57.585Z</time></trkpt><trkpt lat="43.1361377" lon="11.5664037"><ele>248.0</ele><time>2026-04-04T14:24:58.582Z</time></trkpt><trkpt lat="43.1361605" lon="11.5664847"><ele>248.00000000000003</ele><time>2026-04-04T14:24:59.595Z</time></trkpt><trkpt lat="43.1362055" lon="11.566548"><ele>248.0</ele><time>2026-04-04T14:25:00.58Z</time></trkpt><trkpt lat="43.1362672" lon="11.5665835"><ele>248.0</ele><time>2026-04-04T14:25:01.592Z</time></trkpt><trkpt lat="43.1363363" lon="11.5665823"><ele>248.0</ele><time>2026-04-04T14:25:02.597Z</time></trkpt><trkpt lat="43.1364107" lon="11.566553"><ele>248.00000000000003</ele><time>2026-04-04T14:25:03.584Z</time></trkpt><trkpt lat="43.1364966" lon="11.5665035"><ele>248.0</ele><time>2026-04-04T14:25:04.59Z</time></trkpt><trkpt lat="43.1365902" lon="11.5664565"><ele>252.60000000000002</ele><time>2026-04-04T14:25:05.587Z</time></trkpt><trkpt lat="43.1366912" lon="11.5664116"><ele>257.20000000000005</ele><time>2026-04-04T14:25:06.582Z</time></trkpt><trkpt lat="43.1367997" lon="11.5663678"><ele>261.8</ele><time>2026-04-04T14:25:07.589Z</time></trkpt><trkpt lat="43.1369104" lon="11.5663245"><ele>266.40000000000003</ele><time>2026-04-04T14:25:08.587Z</time></trkpt><trkpt lat="43.1370053" lon="11.5662724"><ele>271.0</ele><time>2026-04-04T14:25:09.588Z</time></trkpt><trkpt lat="43.1370879" lon="11.566201"><ele>270.2</ele><time>2026-04-04T14:25:10.582Z</time></trkpt><trkpt lat="43.1371592" lon="11.5661034"><ele>269.40000000000003</ele><time>2026-04-04T14:25:11.594Z</time></trkpt><trkpt lat="43.1372127" lon="11.5659854"><ele>268.6</ele><time>2026-04-04T14:25:12.581Z</time></trkpt><trkpt lat="43.1372507" lon="11.5658545"><ele>267.8</ele><time>2026-04-04T14:25:13.581Z</time></trkpt><trkpt lat="43.137269" lon="11.5657182"><ele>267.0</ele><time>2026-04-04T14:25:14.604Z</time></trkpt><trkpt lat="43.1372641" lon="11.5655837"><ele>267.0</ele><time>2026-04-04T14:25:15.583Z</time></trkpt><trkpt lat="43.1372387" lon="11.5654556"><ele>267.0</ele><time>2026-04-04T14:25:16.594Z</time></trkpt><trkpt lat="43.137196" lon="11.5653395"><ele>267.0</ele><time>2026-04-04T14:25:17.588Z</time></trkpt><trkpt lat="43.1371396" lon="11.5652236"><ele>267.0</ele><time>2026-04-04T14:25:18.591Z</time></trkpt><trkpt lat="43.1370832" lon="11.5651122"><ele>267.0</ele><time>2026-04-04T14:25:19.589Z</time></trkpt><trkpt lat="43.1370426" lon="11.5650126"><ele>267.3333333333333</ele><time>2026-04-04T14:25:20.589Z</time></trkpt><trkpt lat="43.1370116" lon="11.56491"><ele>267.6666666666667</ele><time>2026-04-04T14:25:21.589Z</time></trkpt><trkpt lat="43.1369937" lon="11.5648039"><ele>268.0</ele><time>2026-04-04T14:25:22.596Z</time></trkpt><trkpt lat="43.136996" lon="11.5646955"><ele>268.33333333333337</ele><time>2026-04-04T14:25:23.593Z</time></trkpt><trkpt lat="43.1370211" lon="11.5645945"><ele>268.6666666666667</ele><time>2026-04-04T14:25:24.592Z</time></trkpt><trkpt lat="43.1370653" lon="11.5645063"><ele>269.0</ele><time>2026-04-04T14:25:25.589Z</time></trkpt><trkpt lat="43.1371197" lon="11.5644309"><ele>268.14285714285717</ele><time>2026-04-04T14:25:26.591Z</time></trkpt><trkpt lat="43.1371836" lon="11.5643762"><ele>267.28571428571433</ele><time>2026-04-04T14:25:27.599Z</time></trkpt><trkpt lat="43.1372551" lon="11.5643469"><ele>266.42857142857144</ele><time>2026-04-04T14:25:28.584Z</time></trkpt><trkpt lat="43.1373254" lon="11.5643443"><ele>265.57142857142856</ele><time>2026-04-04T14:25:29.587Z</time></trkpt><trkpt lat="43.1373903" lon="11.5643683"><ele>264.71428571428567</ele><time>2026-04-04T14:25:30.582Z</time></trkpt><trkpt lat="43.1374451" lon="11.5644176"><ele>263.85714285714283</ele><time>2026-04-04T14:25:31.584Z</time></trkpt><trkpt lat="43.1374937" lon="11.5644874"><ele>263.0</ele><time>2026-04-04T14:25:32.586Z</time></trkpt><trkpt lat="43.1375345" lon="11.5645779"><ele>268.0</ele><time>2026-04-04T14:25:33.582Z</time></trkpt><trkpt lat="43.1375828" lon="11.5646741"><ele>273.0</ele><time>2026-04-04T14:25:34.591Z</time></trkpt><trkpt lat="43.1376408" lon="11.5647829"><ele>278.0</ele><time>2026-04-04T14:25:35.591Z</time></trkpt><trkpt lat="43.1377037" lon="11.5649021"><ele>283.0</ele><time>2026-04-04T14:25:36.6Z</time></trkpt><trkpt lat="43.1377638" lon="11.565034"><ele>288.0</ele><time>2026-04-04T14:25:37.583Z</time></trkpt><trkpt lat="43.1378071" lon="11.5651653"><ele>288.0</ele><time>2026-04-04T14:25:38.587Z</time></trkpt><trkpt lat="43.1378346" lon="11.5653019"><ele>288.0</ele><time>2026-04-04T14:25:39.586Z</time></trkpt><trkpt lat="43.1378485" lon="11.565447"><ele>288.0</ele><time>2026-04-04T14:25:40.587Z</time></trkpt><trkpt lat="43.1378566" lon="11.5656065"><ele>288.0</ele><time>2026-04-04T14:25:41.592Z</time></trkpt><trkpt lat="43.137865" lon="11.5657683"><ele>288.0</ele><time>2026-04-04T14:25:42.589Z</time></trkpt><trkpt lat="43.1378775" lon="11.5659413"><ele>288.0</ele><time>2026-04-04T14:25:43.589Z</time></trkpt><trkpt lat="43.1378909" lon="11.5661207"><ele>288.0</ele><time>2026-04-04T14:25:44.597Z</time></trkpt><trkpt lat="43.1379028" lon="11.5663026"><ele>288.0</ele><time>2026-04-04T14:25:45.578Z</time></trkpt><trkpt lat="43.1379151" lon="11.5664887"><ele>288.0</ele><time>2026-04-04T14:25:46.589Z</time></trkpt><trkpt lat="43.1379281" lon="11.5666761"><ele>288.0</ele><time>2026-04-04T14:25:47.598Z</time></trkpt><trkpt lat="43.1379393" lon="11.5668504"><ele>288.0</ele><time>2026-04-04T14:25:48.589Z</time></trkpt><trkpt lat="43.1379407" lon="11.5670086"><ele>288.0</ele><time>2026-04-04T14:25:49.595Z</time></trkpt><trkpt lat="43.1379297" lon="11.5671738"><ele>288.0</ele><time>2026-04-04T14:25:50.592Z</time></trkpt><trkpt lat="43.1379095" lon="11.5673402"><ele>288.2</ele><time>2026-04-04T14:25:51.588Z</time></trkpt><trkpt lat="43.1378915" lon="11.567506"><ele>288.4</ele><time>2026-04-04T14:25:52.584Z</time></trkpt><trkpt lat="43.1378796" lon="11.5676474"><ele>288.59999999999997</ele><time>2026-04-04T14:25:53.59Z</time></trkpt><trkpt lat="43.1378805" lon="11.5677748"><ele>288.8</ele><time>2026-04-04T14:25:54.589Z</time></trkpt><trkpt lat="43.1378991" lon="11.5678826"><ele>289.0</ele><time>2026-04-04T14:25:55.596Z</time></trkpt><trkpt lat="43.1379335" lon="11.5679887"><ele>287.59999999999997</ele><time>2026-04-04T14:25:56.595Z</time></trkpt><trkpt lat="43.1379789" lon="11.5680907"><ele>286.2</ele><time>2026-04-04T14:25:57.597Z</time></trkpt><trkpt lat="43.1380373" lon="11.5681919"><ele>284.79999999999995</ele><time>2026-04-04T14:25:58.588Z</time></trkpt><trkpt lat="43.1381055" lon="11.5682903"><ele>283.4</ele><time>2026-04-04T14:25:59.589Z</time></trkpt><trkpt lat="43.1381813" lon="11.5683916"><ele>282.0</ele><time>2026-04-04T14:26:00.59Z</time></trkpt><trkpt lat="43.1382616" lon="11.5684969"><ele>286.8</ele><time>2026-04-04T14:26:01.589Z</time></trkpt><trkpt lat="43.1383343" lon="11.5686045"><ele>291.6</ele><time>2026-04-04T14:26:02.594Z</time></trkpt><trkpt lat="43.1383946" lon="11.5687173"><ele>296.40000000000003</ele><time>2026-04-04T14:26:03.584Z</time></trkpt><trkpt lat="43.1384471" lon="11.5688489"><ele>301.2</ele><time>2026-04-04T14:26:04.592Z</time></trkpt><trkpt lat="43.1384881" lon="11.5689921"><ele>306.0</ele><time>2026-04-04T14:26:05.59Z</time></trkpt><trkpt lat="43.1385147" lon="11.5691409"><ele>306.0</ele><time>2026-04-04T14:26:06.588Z</time></trkpt><trkpt lat="43.1385287" lon="11.569294"><ele>306.0</ele><time>2026-04-04T14:26:07.578Z</time></trkpt><trkpt lat="43.1385384" lon="11.5694582"><ele>306.0</ele><time>2026-04-04T14:26:08.586Z</time></trkpt><trkpt lat="43.1385401" lon="11.5696287"><ele>306.0</ele><time>2026-04-04T14:26:09.581Z</time></trkpt><trkpt lat="43.1385303" lon="11.5697882"><ele>305.8</ele><time>2026-04-04T14:26:10.592Z</time></trkpt><trkpt lat="43.1385117" lon="11.5699336"><ele>305.6</ele><time>2026-04-04T14:26:11.593Z</time></trkpt><trkpt lat="43.1384889" lon="11.5700713"><ele>305.4</ele><time>2026-04-04T14:26:12.587Z</time></trkpt><trkpt lat="43.1384724" lon="11.5701976"><ele>305.2</ele><time>2026-04-04T14:26:13.594Z</time></trkpt><trkpt lat="43.138467" lon="11.5703069"><ele>305.0</ele><time>2026-04-04T14:26:14.586Z</time></trkpt><trkpt lat="43.1384781" lon="11.5704077"><ele>304.1666666666667</ele><time>2026-04-04T14:26:15.596Z</time></trkpt><trkpt lat="43.1385021" lon="11.5705009"><ele>303.33333333333337</ele><time>2026-04-04T14:26:16.594Z</time></trkpt><trkpt lat="43.1385388" lon="11.5705912"><ele>302.5</ele><time>2026-04-04T14:26:17.589Z</time></trkpt><trkpt lat="43.1385859" lon="11.5706855"><ele>301.6666666666667</ele><time>2026-04-04T14:26:18.585Z</time></trkpt><trkpt lat="43.1386335" lon="11.5707876"><ele>300.8333333333333</ele><time>2026-04-04T14:26:19.587Z</time></trkpt><trkpt lat="43.138674" lon="11.5708962"><ele>300.0</ele><time>2026-04-04T14:26:20.585Z</time></trkpt><trkpt lat="43.1387037" lon="11.5710128"><ele>300.0</ele><time>2026-04-04T14:26:21.593Z</time></trkpt><trkpt lat="43.138718" lon="11.5711387"><ele>300.0</ele><time>2026-04-04T14:26:22.601Z</time></trkpt><trkpt lat="43.1387147" lon="11.5712652"><ele>300.0</ele><time>2026-04-04T14:26:23.593Z</time></trkpt><trkpt lat="43.1386987" lon="11.5713872"><ele>300.0</ele><time>2026-04-04T14:26:24.586Z</time></trkpt><trkpt lat="43.1386456" lon="11.5714943"><ele>300.0</ele><time>2026-04-04T14:26:25.586Z</time></trkpt><trkpt lat="43.1385883" lon="11.5715963"><ele>300.4</ele><time>2026-04-04T14:26:26.591Z</time></trkpt><trkpt lat="43.1385115" lon="11.5716839"><ele>300.8</ele><time>2026-04-04T14:26:27.595Z</time></trkpt><trkpt lat="43.1384217" lon="11.5717517"><ele>301.2</ele><time>2026-04-04T14:26:28.591Z</time></trkpt><trkpt lat="43.1383218" lon="11.5718045"><ele>301.6</ele><time>2026-04-04T14:26:29.592Z</time></trkpt><trkpt lat="43.1382192" lon="11.5718567"><ele>302.0</ele><time>2026-04-04T14:26:30.596Z</time></trkpt><trkpt lat="43.1381303" lon="11.5719172"><ele>300.6666666666667</ele><time>2026-04-04T14:26:31.587Z</time></trkpt><trkpt lat="43.1380623" lon="11.5719856"><ele>299.33333333333337</ele><time>2026-04-04T14:26:32.588Z</time></trkpt><trkpt lat="43.1380151" lon="11.5720637"><ele>298.0</ele><time>2026-04-04T14:26:33.583Z</time></trkpt><trkpt lat="43.1379792" lon="11.572158"><ele>296.6666666666667</ele><time>2026-04-04T14:26:34.592Z</time></trkpt><trkpt lat="43.1379636" lon="11.5722586"><ele>295.3333333333333</ele><time>2026-04-04T14:26:35.582Z</time></trkpt><trkpt lat="43.1379579" lon="11.5723708"><ele>294.0</ele><time>2026-04-04T14:26:36.592Z</time></trkpt><trkpt lat="43.1379585" lon="11.5725099"><ele>294.0</ele><time>2026-04-04T14:26:37.59Z</time></trkpt><trkpt lat="43.1379618" lon="11.5726754"><ele>294.0</ele><time>2026-04-04T14:26:38.593Z</time></trkpt><trkpt lat="43.1379663" lon="11.572865"><ele>294.0</ele><time>2026-04-04T14:26:39.598Z</time></trkpt><trkpt lat="43.1379708" lon="11.573074"><ele>294.0</ele><time>2026-04-04T14:26:40.587Z</time></trkpt><trkpt lat="43.1379769" lon="11.5732727"><ele>295.0</ele><time>2026-04-04T14:26:41.597Z</time></trkpt><trkpt lat="43.1379846" lon="11.5734538"><ele>296.0</ele><time>2026-04-04T14:26:42.595Z</time></trkpt><trkpt lat="43.137991" lon="11.573624"><ele>297.0</ele><time>2026-04-04T14:26:43.584Z</time></trkpt><trkpt lat="43.1379964" lon="11.5737821"><ele>298.0</ele><time>2026-04-04T14:26:44.585Z</time></trkpt><trkpt lat="43.1379984" lon="11.5739287"><ele>298.5</ele><time>2026-04-04T14:26:45.594Z</time></trkpt><trkpt lat="43.1380002" lon="11.5740609"><ele>299.0</ele><time>2026-04-04T14:26:46.596Z</time></trkpt><trkpt lat="43.1380036" lon="11.5741708"><ele>299.5</ele><time>2026-04-04T14:26:47.591Z</time></trkpt><trkpt lat="43.1380116" lon="11.5742724"><ele>300.0</ele><time>2026-04-04T14:26:48.588Z</time></trkpt><trkpt lat="43.1380278" lon="11.5743759"><ele>300.5</ele><time>2026-04-04T14:26:49.598Z</time></trkpt><trkpt lat="43.1380538" lon="11.5744803"><ele>301.0</ele><time>2026-04-04T14:26:50.595Z</time></trkpt><trkpt lat="43.1380912" lon="11.5745809"><ele>301.6</ele><time>2026-04-04T14:26:51.591Z</time></trkpt><trkpt lat="43.13814" lon="11.5746767"><ele>302.20000000000005</ele><time>2026-04-04T14:26:52.599Z</time></trkpt><trkpt lat="43.1382022" lon="11.5747698"><ele>302.79999999999995</ele><time>2026-04-04T14:26:53.599Z</time></trkpt><trkpt lat="43.1382738" lon="11.574864"><ele>303.4</ele><time>2026-04-04T14:26:54.592Z</time></trkpt><trkpt lat="43.1383508" lon="11.5749569"><ele>304.0</ele><time>2026-04-04T14:26:55.593Z</time></trkpt><trkpt lat="43.1384298" lon="11.5750441"><ele>302.8</ele><time>2026-04-04T14:26:56.587Z</time></trkpt><trkpt lat="43.1385035" lon="11.5751333"><ele>301.59999999999997</ele><time>2026-04-04T14:26:57.593Z</time></trkpt><trkpt lat="43.138575" lon="11.5752223"><ele>300.4</ele><time>2026-04-04T14:26:58.585Z</time></trkpt><trkpt lat="43.1386375" lon="11.5753165"><ele>299.2</ele><time>2026-04-04T14:26:59.594Z</time></trkpt><trkpt lat="43.1386912" lon="11.5754164"><ele>298.0</ele><time>2026-04-04T14:27:00.589Z</time></trkpt><trkpt lat="43.1387342" lon="11.5755263"><ele>295.4</ele><time>2026-04-04T14:27:01.588Z</time></trkpt><trkpt lat="43.1387615" lon="11.5756472"><ele>292.8</ele><time>2026-04-04T14:27:02.589Z</time></trkpt><trkpt lat="43.1387741" lon="11.5757744"><ele>290.2</ele><time>2026-04-04T14:27:03.593Z</time></trkpt><trkpt lat="43.1387795" lon="11.5759042"><ele>287.6</ele><time>2026-04-04T14:27:04.59Z</time></trkpt><trkpt lat="43.1387838" lon="11.5760372"><ele>285.0</ele><time>2026-04-04T14:27:05.596Z</time></trkpt><trkpt lat="43.1387874" lon="11.5761727"><ele>283.6</ele><time>2026-04-04T14:27:06.589Z</time></trkpt><trkpt lat="43.1387878" lon="11.5763102"><ele>282.2</ele><time>2026-04-04T14:27:07.592Z</time></trkpt><trkpt lat="43.1387815" lon="11.5764496"><ele>280.8</ele><time>2026-04-04T14:27:08.584Z</time></trkpt><trkpt lat="43.1387669" lon="11.5765868"><ele>279.4</ele><time>2026-04-04T14:27:09.591Z</time></trkpt><trkpt lat="43.1387409" lon="11.5767118"><ele>278.0</ele><time>2026-04-04T14:27:10.587Z</time></trkpt><trkpt lat="43.1387031" lon="11.5768279"><ele>278.0</ele><time>2026-04-04T14:27:11.596Z</time></trkpt><trkpt lat="43.1386553" lon="11.5769332"><ele>278.0</ele><time>2026-04-04T14:27:12.598Z</time></trkpt><trkpt lat="43.1385932" lon="11.5770421"><ele>278.0</ele><time>2026-04-04T14:27:13.58Z</time></trkpt><trkpt lat="43.1385172" lon="11.5771733"><ele>278.0</ele><time>2026-04-04T14:27:14.591Z</time></trkpt><trkpt lat="43.1384294" lon="11.577322"><ele>277.25</ele><time>2026-04-04T14:27:15.582Z</time></trkpt><trkpt lat="43.1383457" lon="11.5774686"><ele>276.5</ele><time>2026-04-04T14:27:16.58Z</time></trkpt><trkpt lat="43.1382642" lon="11.5776104"><ele>275.75</ele><time>2026-04-04T14:27:17.579Z</time></trkpt><trkpt lat="43.1381846" lon="11.5777479"><ele>275.0</ele><time>2026-04-04T14:27:18.592Z</time></trkpt><trkpt lat="43.1381101" lon="11.5778783"><ele>273.6</ele><time>2026-04-04T14:27:19.597Z</time></trkpt><trkpt lat="43.13804" lon="11.5780007"><ele>272.2</ele><time>2026-04-04T14:27:20.61Z</time></trkpt><trkpt lat="43.1379723" lon="11.5781154"><ele>270.8</ele><time>2026-04-04T14:27:21.584Z</time></trkpt><trkpt lat="43.1379079" lon="11.5782228"><ele>269.4</ele><time>2026-04-04T14:27:22.581Z</time></trkpt><trkpt lat="43.1378523" lon="11.5783161"><ele>268.0</ele><time>2026-04-04T14:27:23.581Z</time></trkpt><trkpt lat="43.1377991" lon="11.5784061"><ele>268.0</ele><time>2026-04-04T14:27:24.592Z</time></trkpt><trkpt lat="43.1377528" lon="11.578489"><ele>268.0</ele><time>2026-04-04T14:27:25.583Z</time></trkpt><trkpt lat="43.1377084" lon="11.5785598"><ele>268.0</ele><time>2026-04-04T14:27:26.577Z</time></trkpt><trkpt lat="43.1376373" lon="11.5786463"><ele>268.0</ele><time>2026-04-04T14:27:28.593Z</time></trkpt><trkpt lat="43.1375524" lon="11.5786601"><ele>268.0</ele><time>2026-04-04T14:27:31.603Z</time></trkpt><trkpt lat="43.1374727" lon="11.5785995"><ele>268.0</ele><time>2026-04-04T14:27:33.6Z</time></trkpt><trkpt lat="43.1373868" lon="11.5785139"><ele>267.2</ele><time>2026-04-04T14:27:35.591Z</time></trkpt><trkpt lat="43.1372716" lon="11.5784171"><ele>266.4</ele><time>2026-04-04T14:27:37.577Z</time></trkpt><trkpt lat="43.1371988" lon="11.5783538"><ele>265.59999999999997</ele><time>2026-04-04T14:27:38.591Z</time></trkpt><trkpt lat="43.1371151" lon="11.5782797"><ele>264.8</ele><time>2026-04-04T14:27:39.591Z</time></trkpt><trkpt lat="43.1370249" lon="11.5781996"><ele>264.0</ele><time>2026-04-04T14:27:40.594Z</time></trkpt><trkpt lat="43.1369231" lon="11.5781109"><ele>264.0</ele><time>2026-04-04T14:27:41.583Z</time></trkpt><trkpt lat="43.1368122" lon="11.5780093"><ele>264.0</ele><time>2026-04-04T14:27:42.582Z</time></trkpt><trkpt lat="43.1366896" lon="11.5778997"><ele>264.0</ele><time>2026-04-04T14:27:43.582Z</time></trkpt><trkpt lat="43.136559" lon="11.5777848"><ele>264.0</ele><time>2026-04-04T14:27:44.591Z</time></trkpt><trkpt lat="43.1364182" lon="11.5776608"><ele>263.3333333333333</ele><time>2026-04-04T14:27:45.577Z</time></trkpt><trkpt lat="43.1362721" lon="11.5775243"><ele>262.66666666666663</ele><time>2026-04-04T14:27:46.584Z</time></trkpt><trkpt lat="43.1361195" lon="11.5773829"><ele>262.0</ele><time>2026-04-04T14:27:47.6Z</time></trkpt><trkpt lat="43.1359578" lon="11.5772399"><ele>262.0</ele><time>2026-04-04T14:27:48.587Z</time></trkpt><trkpt lat="43.1357883" lon="11.5770916"><ele>262.0</ele><time>2026-04-04T14:27:49.587Z</time></trkpt><trkpt lat="43.1356214" lon="11.5769435"><ele>262.0</ele><time>2026-04-04T14:27:50.596Z</time></trkpt><trkpt lat="43.1354664" lon="11.5768009"><ele>262.3333333333333</ele><time>2026-04-04T14:27:51.592Z</time></trkpt><trkpt lat="43.1353173" lon="11.5766688"><ele>262.6666666666667</ele><time>2026-04-04T14:27:52.577Z</time></trkpt><trkpt lat="43.1351678" lon="11.5765405"><ele>263.0</ele><time>2026-04-04T14:27:53.591Z</time></trkpt><trkpt lat="43.1350075" lon="11.5764352"><ele>262.33333333333337</ele><time>2026-04-04T14:27:54.584Z</time></trkpt><trkpt lat="43.1348336" lon="11.576344"><ele>261.6666666666667</ele><time>2026-04-04T14:27:55.587Z</time></trkpt><trkpt lat="43.1346456" lon="11.5762668"><ele>261.0</ele><time>2026-04-04T14:27:56.586Z</time></trkpt><trkpt lat="43.1344477" lon="11.5761947"><ele>262.3333333333333</ele><time>2026-04-04T14:27:57.591Z</time></trkpt><trkpt lat="43.1342454" lon="11.5761252"><ele>263.66666666666663</ele><time>2026-04-04T14:27:58.593Z</time></trkpt><trkpt lat="43.1340386" lon="11.5760581"><ele>265.0</ele><time>2026-04-04T14:27:59.582Z</time></trkpt><trkpt lat="43.1338263" lon="11.5759889"><ele>265.0</ele><time>2026-04-04T14:28:00.595Z</time></trkpt><trkpt lat="43.1336144" lon="11.5759189"><ele>265.0</ele><time>2026-04-04T14:28:01.592Z</time></trkpt><trkpt lat="43.1334172" lon="11.5758541"><ele>265.0</ele><time>2026-04-04T14:28:02.592Z</time></trkpt><trkpt lat="43.1332283" lon="11.5757915"><ele>265.0</ele><time>2026-04-04T14:28:03.602Z</time></trkpt><trkpt lat="43.1330489" lon="11.5757298"><ele>265.0</ele><time>2026-04-04T14:28:04.592Z</time></trkpt><trkpt lat="43.1328679" lon="11.575669"><ele>265.0</ele><time>2026-04-04T14:28:05.592Z</time></trkpt><trkpt lat="43.1326832" lon="11.5756136"><ele>265.0</ele><time>2026-04-04T14:28:06.589Z</time></trkpt><trkpt lat="43.1324968" lon="11.5755534"><ele>265.0</ele><time>2026-04-04T14:28:07.59Z</time></trkpt><trkpt lat="43.1323101" lon="11.5754946"><ele>265.0</ele><time>2026-04-04T14:28:08.594Z</time></trkpt><trkpt lat="43.1321317" lon="11.5754425"><ele>265.0</ele><time>2026-04-04T14:28:09.584Z</time></trkpt><trkpt lat="43.1319635" lon="11.5753944"><ele>265.0</ele><time>2026-04-04T14:28:10.581Z</time></trkpt><trkpt lat="43.1318015" lon="11.5753512"><ele>265.0</ele><time>2026-04-04T14:28:11.586Z</time></trkpt><trkpt lat="43.1316461" lon="11.5753084"><ele>264.0</ele><time>2026-04-04T14:28:12.581Z</time></trkpt><trkpt lat="43.1315016" lon="11.5752651"><ele>263.0</ele><time>2026-04-04T14:28:13.579Z</time></trkpt><trkpt lat="43.13136" lon="11.5752276"><ele>262.0</ele><time>2026-04-04T14:28:14.598Z</time></trkpt><trkpt lat="43.1312238" lon="11.5751916"><ele>261.0</ele><time>2026-04-04T14:28:15.586Z</time></trkpt><trkpt lat="43.1310834" lon="11.575154"><ele>261.0</ele><time>2026-04-04T14:28:16.582Z</time></trkpt><trkpt lat="43.1309388" lon="11.5751152"><ele>261.0</ele><time>2026-04-04T14:28:17.584Z</time></trkpt><trkpt lat="43.130791" lon="11.5750732"><ele>261.0</ele><time>2026-04-04T14:28:18.593Z</time></trkpt><trkpt lat="43.1306424" lon="11.5750305"><ele>260.6666666666667</ele><time>2026-04-04T14:28:19.59Z</time></trkpt><trkpt lat="43.1304908" lon="11.5749932"><ele>260.33333333333337</ele><time>2026-04-04T14:28:20.584Z</time></trkpt><trkpt lat="43.1303408" lon="11.5749544"><ele>260.0</ele><time>2026-04-04T14:28:21.597Z</time></trkpt><trkpt lat="43.1301951" lon="11.5749174"><ele>260.0</ele><time>2026-04-04T14:28:22.581Z</time></trkpt><trkpt lat="43.1300558" lon="11.5748852"><ele>260.0</ele><time>2026-04-04T14:28:23.585Z</time></trkpt><trkpt lat="43.1299239" lon="11.5748493"><ele>260.0</ele><time>2026-04-04T14:28:24.599Z</time></trkpt><trkpt lat="43.1298016" lon="11.5748194"><ele>260.0</ele><time>2026-04-04T14:28:25.606Z</time></trkpt><trkpt lat="43.1296965" lon="11.5747991"><ele>260.0</ele><time>2026-04-04T14:28:26.583Z</time></trkpt><trkpt lat="43.1296029" lon="11.5747877"><ele>260.0</ele><time>2026-04-04T14:28:27.595Z</time></trkpt><trkpt lat="43.1295153" lon="11.574778"><ele>260.0</ele><time>2026-04-04T14:28:28.594Z</time></trkpt><trkpt lat="43.1294229" lon="11.5747656"><ele>260.0</ele><time>2026-04-04T14:28:29.597Z</time></trkpt><trkpt lat="43.1293257" lon="11.5747453"><ele>260.0</ele><time>2026-04-04T14:28:30.597Z</time></trkpt><trkpt lat="43.1292252" lon="11.5747226"><ele>260.0</ele><time>2026-04-04T14:28:31.596Z</time></trkpt><trkpt lat="43.1291239" lon="11.5747069"><ele>260.0</ele><time>2026-04-04T14:28:32.591Z</time></trkpt><trkpt lat="43.1290376" lon="11.5746965"><ele>260.0</ele><time>2026-04-04T14:28:33.58Z</time></trkpt><trkpt lat="43.1289568" lon="11.5746943"><ele>260.0</ele><time>2026-04-04T14:28:34.584Z</time></trkpt><trkpt lat="43.1288914" lon="11.5747009"><ele>260.0</ele><time>2026-04-04T14:28:35.592Z</time></trkpt><trkpt lat="43.1288224" lon="11.5747368"><ele>260.0</ele><time>2026-04-04T14:28:37.594Z</time></trkpt><trkpt lat="43.1288742" lon="11.5748126"><ele>260.0</ele><time>2026-04-04T14:28:40.582Z</time></trkpt><trkpt lat="43.128959" lon="11.5748533"><ele>260.0</ele><time>2026-04-04T14:28:42.602Z</time></trkpt><trkpt lat="43.1290676" lon="11.5749064"><ele>260.0</ele><time>2026-04-04T14:28:44.595Z</time></trkpt><trkpt lat="43.1291554" lon="11.5749673"><ele>260.0</ele><time>2026-04-04T14:28:46.593Z</time></trkpt><trkpt lat="43.1292074" lon="11.5750254"><ele>260.0</ele><time>2026-04-04T14:28:49.583Z</time></trkpt><trkpt lat="43.1292269" lon="11.5751645"><ele>260.0</ele><time>2026-04-04T14:29:48.598Z</time></trkpt><trkpt lat="43.1292122" lon="11.5752501"><ele>260.0</ele><time>2026-04-04T14:29:49.587Z</time></trkpt><trkpt lat="43.1291948" lon="11.5753543"><ele>260.0</ele><time>2026-04-04T14:29:50.594Z</time></trkpt><trkpt lat="43.12918" lon="11.5754675"><ele>260.0</ele><time>2026-04-04T14:29:51.583Z</time></trkpt><trkpt lat="43.1291654" lon="11.5755844"><ele>260.0</ele><time>2026-04-04T14:29:52.593Z</time></trkpt><trkpt lat="43.1291514" lon="11.5757071"><ele>260.0</ele><time>2026-04-04T14:29:53.593Z</time></trkpt><trkpt lat="43.1291413" lon="11.5758376"><ele>259.6</ele><time>2026-04-04T14:29:54.601Z</time></trkpt><trkpt lat="43.129131" lon="11.5759673"><ele>259.2</ele><time>2026-04-04T14:29:55.591Z</time></trkpt><trkpt lat="43.1291236" lon="11.5760956"><ele>258.8</ele><time>2026-04-04T14:29:56.588Z</time></trkpt><trkpt lat="43.1291186" lon="11.5762297"><ele>258.4</ele><time>2026-04-04T14:29:57.595Z</time></trkpt><trkpt lat="43.1291162" lon="11.5763673"><ele>258.0</ele><time>2026-04-04T14:29:58.597Z</time></trkpt><trkpt lat="43.1291169" lon="11.576506"><ele>257.5</ele><time>2026-04-04T14:29:59.583Z</time></trkpt><trkpt lat="43.1291168" lon="11.5766386"><ele>257.0</ele><time>2026-04-04T14:30:00.583Z</time></trkpt><trkpt lat="43.1291165" lon="11.5767587"><ele>256.5</ele><time>2026-04-04T14:30:01.587Z</time></trkpt><trkpt lat="43.1291222" lon="11.5768671"><ele>256.0</ele><time>2026-04-04T14:30:02.59Z</time></trkpt><trkpt lat="43.129139" lon="11.5769647"><ele>255.5</ele><time>2026-04-04T14:30:03.59Z</time></trkpt><trkpt lat="43.129169" lon="11.5770581"><ele>255.0</ele><time>2026-04-04T14:30:04.587Z</time></trkpt><trkpt lat="43.1292194" lon="11.577143"><ele>254.66666666666666</ele><time>2026-04-04T14:30:05.586Z</time></trkpt><trkpt lat="43.1292871" lon="11.5772151"><ele>254.33333333333331</ele><time>2026-04-04T14:30:06.585Z</time></trkpt><trkpt lat="43.1293671" lon="11.5772697"><ele>254.0</ele><time>2026-04-04T14:30:07.592Z</time></trkpt><trkpt lat="43.1294536" lon="11.5773019"><ele>253.66666666666666</ele><time>2026-04-04T14:30:08.587Z</time></trkpt><trkpt lat="43.1295415" lon="11.5773164"><ele>253.33333333333331</ele><time>2026-04-04T14:30:09.59Z</time></trkpt><trkpt lat="43.1296289" lon="11.5773202"><ele>253.0</ele><time>2026-04-04T14:30:10.586Z</time></trkpt><trkpt lat="43.1297062" lon="11.5773308"><ele>252.99999999999997</ele><time>2026-04-04T14:30:11.597Z</time></trkpt><trkpt lat="43.1297783" lon="11.5773652"><ele>253.0</ele><time>2026-04-04T14:30:12.595Z</time></trkpt><trkpt lat="43.1298461" lon="11.5774133"><ele>253.0</ele><time>2026-04-04T14:30:13.588Z</time></trkpt><trkpt lat="43.1299082" lon="11.5774704"><ele>253.0</ele><time>2026-04-04T14:30:14.588Z</time></trkpt><trkpt lat="43.1299641" lon="11.5775461"><ele>252.99999999999997</ele><time>2026-04-04T14:30:15.593Z</time></trkpt><trkpt lat="43.1300177" lon="11.5776329"><ele>253.0</ele><time>2026-04-04T14:30:16.596Z</time></trkpt><trkpt lat="43.1300709" lon="11.5777219"><ele>253.33333333333331</ele><time>2026-04-04T14:30:17.595Z</time></trkpt><trkpt lat="43.130123" lon="11.5778159"><ele>253.66666666666666</ele><time>2026-04-04T14:30:18.583Z</time></trkpt><trkpt lat="43.1301691" lon="11.5779152"><ele>254.0</ele><time>2026-04-04T14:30:19.594Z</time></trkpt><trkpt lat="43.130205" lon="11.5780175"><ele>254.33333333333331</ele><time>2026-04-04T14:30:20.596Z</time></trkpt><trkpt lat="43.1302294" lon="11.5781231"><ele>254.66666666666666</ele><time>2026-04-04T14:30:21.587Z</time></trkpt><trkpt lat="43.1302401" lon="11.5782313"><ele>255.0</ele><time>2026-04-04T14:30:22.579Z</time></trkpt><trkpt lat="43.1302413" lon="11.5783445"><ele>256.0</ele><time>2026-04-04T14:30:23.589Z</time></trkpt><trkpt lat="43.1302376" lon="11.5784633"><ele>257.0</ele><time>2026-04-04T14:30:24.581Z</time></trkpt><trkpt lat="43.1302295" lon="11.5785875"><ele>258.0</ele><time>2026-04-04T14:30:25.592Z</time></trkpt><trkpt lat="43.1302074" lon="11.5787132"><ele>259.0</ele><time>2026-04-04T14:30:26.587Z</time></trkpt><trkpt lat="43.1301709" lon="11.5788348"><ele>260.0</ele><time>2026-04-04T14:30:27.579Z</time></trkpt><trkpt lat="43.1301289" lon="11.5789571"><ele>260.4</ele><time>2026-04-04T14:30:28.596Z</time></trkpt><trkpt lat="43.130081" lon="11.5790796"><ele>260.8</ele><time>2026-04-04T14:30:29.586Z</time></trkpt><trkpt lat="43.1300267" lon="11.5792011"><ele>261.2</ele><time>2026-04-04T14:30:30.586Z</time></trkpt><trkpt lat="43.129971" lon="11.5793248"><ele>261.6</ele><time>2026-04-04T14:30:31.583Z</time></trkpt><trkpt lat="43.1299147" lon="11.5794497"><ele>262.0</ele><time>2026-04-04T14:30:32.594Z</time></trkpt><trkpt lat="43.1298587" lon="11.5795809"><ele>262.0</ele><time>2026-04-04T14:30:33.587Z</time></trkpt><trkpt lat="43.1298039" lon="11.5797151"><ele>262.0</ele><time>2026-04-04T14:30:34.584Z</time></trkpt><trkpt lat="43.1297522" lon="11.5798512"><ele>262.0</ele><time>2026-04-04T14:30:35.596Z</time></trkpt><trkpt lat="43.1297108" lon="11.5799867"><ele>262.0</ele><time>2026-04-04T14:30:36.592Z</time></trkpt><trkpt lat="43.1296809" lon="11.5801127"><ele>262.0</ele><time>2026-04-04T14:30:37.604Z</time></trkpt><trkpt lat="43.1296629" lon="11.5802282"><ele>262.0</ele><time>2026-04-04T14:30:38.587Z</time></trkpt><trkpt lat="43.1296499" lon="11.5803365"><ele>262.0</ele><time>2026-04-04T14:30:39.59Z</time></trkpt><trkpt lat="43.1296376" lon="11.5804309"><ele>262.0</ele><time>2026-04-04T14:30:40.585Z</time></trkpt><trkpt lat="43.1296103" lon="11.580584"><ele>262.0</ele><time>2026-04-04T14:30:42.586Z</time></trkpt><trkpt lat="43.1295924" lon="11.5806963"><ele>262.0</ele><time>2026-04-04T14:30:44.591Z</time></trkpt><trkpt lat="43.1295859" lon="11.5807875"><ele>262.0</ele><time>2026-04-04T14:31:02.591Z</time></trkpt><trkpt lat="43.1295694" lon="11.5809162"><ele>262.4</ele><time>2026-04-04T14:31:04.598Z</time></trkpt><trkpt lat="43.129557" lon="11.5810048"><ele>262.79999999999995</ele><time>2026-04-04T14:31:05.586Z</time></trkpt><trkpt lat="43.1295415" lon="11.5811126"><ele>263.2</ele><time>2026-04-04T14:31:06.588Z</time></trkpt><trkpt lat="43.1295221" lon="11.5812395"><ele>263.59999999999997</ele><time>2026-04-04T14:31:07.592Z</time></trkpt><trkpt lat="43.1294989" lon="11.58138"><ele>264.0</ele><time>2026-04-04T14:31:08.588Z</time></trkpt><trkpt lat="43.1294776" lon="11.58153"><ele>265.75</ele><time>2026-04-04T14:31:09.583Z</time></trkpt><trkpt lat="43.129456" lon="11.581689"><ele>267.5</ele><time>2026-04-04T14:31:10.597Z</time></trkpt><trkpt lat="43.1294348" lon="11.5818541"><ele>269.25</ele><time>2026-04-04T14:31:11.588Z</time></trkpt><trkpt lat="43.1294121" lon="11.5820238"><ele>271.0</ele><time>2026-04-04T14:31:12.588Z</time></trkpt><trkpt lat="43.1293882" lon="11.5821897"><ele>274.0</ele><time>2026-04-04T14:31:13.597Z</time></trkpt><trkpt lat="43.129364" lon="11.5823538"><ele>277.0</ele><time>2026-04-04T14:31:14.588Z</time></trkpt><trkpt lat="43.129343" lon="11.5825215"><ele>280.0</ele><time>2026-04-04T14:31:15.59Z</time></trkpt><trkpt lat="43.1293257" lon="11.5826872"><ele>283.0</ele><time>2026-04-04T14:31:16.589Z</time></trkpt><trkpt lat="43.1293031" lon="11.5828497"><ele>285.75</ele><time>2026-04-04T14:31:17.595Z</time></trkpt><trkpt lat="43.1292708" lon="11.5830073"><ele>288.5</ele><time>2026-04-04T14:31:18.578Z</time></trkpt><trkpt lat="43.1292304" lon="11.5831629"><ele>291.25</ele><time>2026-04-04T14:31:19.581Z</time></trkpt><trkpt lat="43.1291878" lon="11.583307"><ele>294.0</ele><time>2026-04-04T14:31:20.584Z</time></trkpt><trkpt lat="43.1291442" lon="11.5834434"><ele>294.0</ele><time>2026-04-04T14:31:21.587Z</time></trkpt><trkpt lat="43.1290901" lon="11.5835608"><ele>294.0</ele><time>2026-04-04T14:31:22.595Z</time></trkpt><trkpt lat="43.1290195" lon="11.5836459"><ele>294.0</ele><time>2026-04-04T14:31:23.591Z</time></trkpt><trkpt lat="43.1289341" lon="11.5836974"><ele>294.0</ele><time>2026-04-04T14:31:24.584Z</time></trkpt><trkpt lat="43.1288446" lon="11.583736"><ele>294.0</ele><time>2026-04-04T14:31:25.576Z</time></trkpt><trkpt lat="43.1287497" lon="11.5837876"><ele>297.59999999999997</ele><time>2026-04-04T14:31:26.598Z</time></trkpt><trkpt lat="43.1286629" lon="11.5838597"><ele>301.2</ele><time>2026-04-04T14:31:27.59Z</time></trkpt><trkpt lat="43.1285842" lon="11.5839527"><ele>304.79999999999995</ele><time>2026-04-04T14:31:28.59Z</time></trkpt><trkpt lat="43.128515" lon="11.5840668"><ele>308.4</ele><time>2026-04-04T14:31:29.582Z</time></trkpt><trkpt lat="43.1284521" lon="11.5841909"><ele>312.0</ele><time>2026-04-04T14:31:30.581Z</time></trkpt><trkpt lat="43.1284005" lon="11.5843289"><ele>312.0</ele><time>2026-04-04T14:31:31.596Z</time></trkpt><trkpt lat="43.1283593" lon="11.584478"><ele>312.0</ele><time>2026-04-04T14:31:32.577Z</time></trkpt><trkpt lat="43.1283302" lon="11.5846384"><ele>312.0</ele><time>2026-04-04T14:31:33.593Z</time></trkpt><trkpt lat="43.1283067" lon="11.5848039"><ele>312.0</ele><time>2026-04-04T14:31:34.592Z</time></trkpt><trkpt lat="43.1282934" lon="11.584962"><ele>314.0</ele><time>2026-04-04T14:31:35.587Z</time></trkpt><trkpt lat="43.1282852" lon="11.5851191"><ele>316.0</ele><time>2026-04-04T14:31:36.601Z</time></trkpt><trkpt lat="43.1282787" lon="11.5852721"><ele>318.0</ele><time>2026-04-04T14:31:37.593Z</time></trkpt><trkpt lat="43.1282688" lon="11.5854304"><ele>320.0</ele><time>2026-04-04T14:31:38.597Z</time></trkpt><trkpt lat="43.1282569" lon="11.5855849"><ele>320.8</ele><time>2026-04-04T14:31:39.588Z</time></trkpt><trkpt lat="43.1282443" lon="11.5857226"><ele>321.6</ele><time>2026-04-04T14:31:40.587Z</time></trkpt><trkpt lat="43.1282341" lon="11.5858436"><ele>322.4</ele><time>2026-04-04T14:31:41.595Z</time></trkpt><trkpt lat="43.1282216" lon="11.5859551"><ele>323.2</ele><time>2026-04-04T14:31:42.585Z</time></trkpt><trkpt lat="43.1282059" lon="11.5860705"><ele>324.0</ele><time>2026-04-04T14:31:43.59Z</time></trkpt><trkpt lat="43.1281811" lon="11.586192"><ele>325.4</ele><time>2026-04-04T14:31:44.593Z</time></trkpt><trkpt lat="43.1281523" lon="11.5863213"><ele>326.79999999999995</ele><time>2026-04-04T14:31:45.578Z</time></trkpt><trkpt lat="43.1281209" lon="11.5864559"><ele>328.20000000000005</ele><time>2026-04-04T14:31:46.588Z</time></trkpt><trkpt lat="43.1280882" lon="11.586588"><ele>329.6</ele><time>2026-04-04T14:31:47.589Z</time></trkpt><trkpt lat="43.1280587" lon="11.5867261"><ele>331.0</ele><time>2026-04-04T14:31:48.59Z</time></trkpt><trkpt lat="43.1280323" lon="11.5868646"><ele>331.0</ele><time>2026-04-04T14:31:49.583Z</time></trkpt><trkpt lat="43.1280084" lon="11.5870062"><ele>331.0</ele><time>2026-04-04T14:31:50.592Z</time></trkpt><trkpt lat="43.1279836" lon="11.587149"><ele>331.0</ele><time>2026-04-04T14:31:51.588Z</time></trkpt><trkpt lat="43.1279587" lon="11.5872938"><ele>331.0</ele><time>2026-04-04T14:31:52.598Z</time></trkpt><trkpt lat="43.1279334" lon="11.5874375"><ele>331.0</ele><time>2026-04-04T14:31:53.592Z</time></trkpt><trkpt lat="43.1279084" lon="11.5875785"><ele>331.6</ele><time>2026-04-04T14:31:54.596Z</time></trkpt><trkpt lat="43.1278815" lon="11.5877171"><ele>332.20000000000005</ele><time>2026-04-04T14:31:55.578Z</time></trkpt><trkpt lat="43.1278472" lon="11.5878423"><ele>332.79999999999995</ele><time>2026-04-04T14:31:56.589Z</time></trkpt><trkpt lat="43.1278065" lon="11.5879558"><ele>333.4</ele><time>2026-04-04T14:31:57.586Z</time></trkpt><trkpt lat="43.1277524" lon="11.5880539"><ele>334.0</ele><time>2026-04-04T14:31:58.583Z</time></trkpt><trkpt lat="43.1276952" lon="11.5881516"><ele>334.4</ele><time>2026-04-04T14:31:59.595Z</time></trkpt><trkpt lat="43.1276281" lon="11.5882479"><ele>334.79999999999995</ele><time>2026-04-04T14:32:00.595Z</time></trkpt><trkpt lat="43.1275569" lon="11.5883496"><ele>335.20000000000005</ele><time>2026-04-04T14:32:01.591Z</time></trkpt><trkpt lat="43.1274836" lon="11.5884577"><ele>335.6</ele><time>2026-04-04T14:32:02.584Z</time></trkpt><trkpt lat="43.1274069" lon="11.5885635"><ele>336.0</ele><time>2026-04-04T14:32:03.586Z</time></trkpt><trkpt lat="43.1273281" lon="11.5886728"><ele>336.5</ele><time>2026-04-04T14:32:04.582Z</time></trkpt><trkpt lat="43.1272439" lon="11.5887892"><ele>337.0</ele><time>2026-04-04T14:32:05.594Z</time></trkpt><trkpt lat="43.1271581" lon="11.5889068"><ele>337.5</ele><time>2026-04-04T14:32:06.586Z</time></trkpt><trkpt lat="43.1270705" lon="11.5890267"><ele>338.0</ele><time>2026-04-04T14:32:07.599Z</time></trkpt><trkpt lat="43.1269846" lon="11.58915"><ele>338.0</ele><time>2026-04-04T14:32:08.591Z</time></trkpt><trkpt lat="43.1268976" lon="11.5892714"><ele>338.0</ele><time>2026-04-04T14:32:09.59Z</time></trkpt><trkpt lat="43.1268093" lon="11.5893891"><ele>338.0</ele><time>2026-04-04T14:32:10.577Z</time></trkpt><trkpt lat="43.1267168" lon="11.5895105"><ele>338.0</ele><time>2026-04-04T14:32:11.59Z</time></trkpt><trkpt lat="43.1266276" lon="11.58963"><ele>337.79999999999995</ele><time>2026-04-04T14:32:12.591Z</time></trkpt><trkpt lat="43.1265515" lon="11.5897534"><ele>337.6</ele><time>2026-04-04T14:32:13.586Z</time></trkpt><trkpt lat="43.1264761" lon="11.5898713"><ele>337.4</ele><time>2026-04-04T14:32:14.584Z</time></trkpt><trkpt lat="43.1264179" lon="11.5899972"><ele>337.20000000000005</ele><time>2026-04-04T14:32:15.584Z</time></trkpt><trkpt lat="43.1263739" lon="11.5901015"><ele>337.0</ele><time>2026-04-04T14:32:16.592Z</time></trkpt><trkpt lat="43.126336" lon="11.5901922"><ele>337.0</ele><time>2026-04-04T14:32:17.593Z</time></trkpt><trkpt lat="43.1263102" lon="11.5902912"><ele>337.0</ele><time>2026-04-04T14:32:18.586Z</time></trkpt><trkpt lat="43.126297" lon="11.590385"><ele>337.0</ele><time>2026-04-04T14:32:19.585Z</time></trkpt><trkpt lat="43.1262957" lon="11.5904903"><ele>337.0</ele><time>2026-04-04T14:32:20.593Z</time></trkpt><trkpt lat="43.1263108" lon="11.590594"><ele>337.0</ele><time>2026-04-04T14:32:21.594Z</time></trkpt><trkpt lat="43.1263351" lon="11.5907013"><ele>337.0</ele><time>2026-04-04T14:32:22.593Z</time></trkpt><trkpt lat="43.1263722" lon="11.5908084"><ele>339.3333333333333</ele><time>2026-04-04T14:32:23.6Z</time></trkpt><trkpt lat="43.1264035" lon="11.5909331"><ele>341.66666666666663</ele><time>2026-04-04T14:32:24.587Z</time></trkpt><trkpt lat="43.1264319" lon="11.5910459"><ele>344.0</ele><time>2026-04-04T14:32:25.582Z</time></trkpt><trkpt lat="43.1264475" lon="11.5911511"><ele>346.3333333333333</ele><time>2026-04-04T14:32:26.583Z</time></trkpt><trkpt lat="43.1264549" lon="11.5912549"><ele>348.6666666666667</ele><time>2026-04-04T14:32:27.585Z</time></trkpt><trkpt lat="43.1264344" lon="11.5913565"><ele>351.0</ele><time>2026-04-04T14:32:28.592Z</time></trkpt><trkpt lat="43.1264054" lon="11.591475"><ele>352.6</ele><time>2026-04-04T14:32:29.588Z</time></trkpt><trkpt lat="43.126368" lon="11.5916028"><ele>354.20000000000005</ele><time>2026-04-04T14:32:30.578Z</time></trkpt><trkpt lat="43.1263246" lon="11.5917453"><ele>355.79999999999995</ele><time>2026-04-04T14:32:31.584Z</time></trkpt><trkpt lat="43.1262693" lon="11.5918889"><ele>357.4</ele><time>2026-04-04T14:32:32.591Z</time></trkpt><trkpt lat="43.1262042" lon="11.5920208"><ele>359.0</ele><time>2026-04-04T14:32:33.593Z</time></trkpt><trkpt lat="43.1261386" lon="11.5921455"><ele>359.0</ele><time>2026-04-04T14:32:34.58Z</time></trkpt><trkpt lat="43.1260771" lon="11.5922507"><ele>359.0</ele><time>2026-04-04T14:32:35.598Z</time></trkpt><trkpt lat="43.1260114" lon="11.5923367"><ele>359.0</ele><time>2026-04-04T14:32:36.598Z</time></trkpt><trkpt lat="43.1259355" lon="11.5924061"><ele>359.0</ele><time>2026-04-04T14:32:37.587Z</time></trkpt><trkpt lat="43.1258456" lon="11.59246"><ele>359.0</ele><time>2026-04-04T14:32:38.594Z</time></trkpt><trkpt lat="43.1257535" lon="11.5925066"><ele>362.0</ele><time>2026-04-04T14:32:39.596Z</time></trkpt><trkpt lat="43.1256526" lon="11.5925413"><ele>365.0</ele><time>2026-04-04T14:32:40.582Z</time></trkpt><trkpt lat="43.1255449" lon="11.5925721"><ele>368.0</ele><time>2026-04-04T14:32:41.594Z</time></trkpt><trkpt lat="43.1254337" lon="11.5926021"><ele>371.0</ele><time>2026-04-04T14:32:42.588Z</time></trkpt><trkpt lat="43.125316" lon="11.5926394"><ele>374.0</ele><time>2026-04-04T14:32:43.597Z</time></trkpt><trkpt lat="43.1251967" lon="11.5926944"><ele>374.0</ele><time>2026-04-04T14:32:44.578Z</time></trkpt><trkpt lat="43.1250699" lon="11.5927596"><ele>374.0</ele><time>2026-04-04T14:32:45.585Z</time></trkpt><trkpt lat="43.124939" lon="11.5928315"><ele>374.0</ele><time>2026-04-04T14:32:46.59Z</time></trkpt><trkpt lat="43.1248184" lon="11.5928985"><ele>374.0</ele><time>2026-04-04T14:32:47.591Z</time></trkpt><trkpt lat="43.1247061" lon="11.5929657"><ele>372.75</ele><time>2026-04-04T14:32:48.594Z</time></trkpt><trkpt lat="43.1245969" lon="11.5930357"><ele>371.5</ele><time>2026-04-04T14:32:49.596Z</time></trkpt><trkpt lat="43.1244858" lon="11.5931007"><ele>370.25</ele><time>2026-04-04T14:32:50.592Z</time></trkpt><trkpt lat="43.1243793" lon="11.5931523"><ele>369.0</ele><time>2026-04-04T14:32:51.6Z</time></trkpt><trkpt lat="43.1242818" lon="11.5931786"><ele>369.0</ele><time>2026-04-04T14:32:52.587Z</time></trkpt><trkpt lat="43.1241791" lon="11.5932019"><ele>369.0</ele><time>2026-04-04T14:32:54.586Z</time></trkpt><trkpt lat="43.1241224" lon="11.5932822"><ele>369.0</ele><time>2026-04-04T14:32:57.589Z</time></trkpt><trkpt lat="43.1241153" lon="11.5934238"><ele>369.0</ele><time>2026-04-04T14:32:59.597Z</time></trkpt><trkpt lat="43.1241263" lon="11.5935209"><ele>369.0</ele><time>2026-04-04T14:33:00.591Z</time></trkpt><trkpt lat="43.1241228" lon="11.5936366"><ele>369.0</ele><time>2026-04-04T14:33:01.601Z</time></trkpt><trkpt lat="43.1241098" lon="11.5937752"><ele>368.4</ele><time>2026-04-04T14:33:02.594Z</time></trkpt><trkpt lat="43.1241013" lon="11.5939261"><ele>367.79999999999995</ele><time>2026-04-04T14:33:03.599Z</time></trkpt><trkpt lat="43.1241" lon="11.5940662"><ele>367.20000000000005</ele><time>2026-04-04T14:33:04.598Z</time></trkpt><trkpt lat="43.1241045" lon="11.5941917"><ele>366.6</ele><time>2026-04-04T14:33:05.585Z</time></trkpt><trkpt lat="43.1241265" lon="11.5942945"><ele>366.0</ele><time>2026-04-04T14:33:06.584Z</time></trkpt><trkpt lat="43.1241543" lon="11.5943903"><ele>366.0</ele><time>2026-04-04T14:33:07.59Z</time></trkpt><trkpt lat="43.1241862" lon="11.5944867"><ele>366.0</ele><time>2026-04-04T14:33:08.588Z</time></trkpt><trkpt lat="43.1242201" lon="11.5945831"><ele>366.0</ele><time>2026-04-04T14:33:09.585Z</time></trkpt><trkpt lat="43.124258" lon="11.594692"><ele>366.0</ele><time>2026-04-04T14:33:10.592Z</time></trkpt><trkpt lat="43.1242963" lon="11.5948106"><ele>366.0</ele><time>2026-04-04T14:33:11.592Z</time></trkpt><trkpt lat="43.1243331" lon="11.5949226"><ele>366.0</ele><time>2026-04-04T14:33:12.585Z</time></trkpt><trkpt lat="43.1243648" lon="11.5950322"><ele>365.6666666666667</ele><time>2026-04-04T14:33:13.591Z</time></trkpt><trkpt lat="43.1243913" lon="11.5951331"><ele>365.3333333333333</ele><time>2026-04-04T14:33:14.582Z</time></trkpt><trkpt lat="43.1244165" lon="11.595238"><ele>365.0</ele><time>2026-04-04T14:33:15.602Z</time></trkpt><trkpt lat="43.1244394" lon="11.5953536"><ele>364.66666666666663</ele><time>2026-04-04T14:33:16.599Z</time></trkpt><trkpt lat="43.124458" lon="11.5954743"><ele>364.3333333333333</ele><time>2026-04-04T14:33:17.588Z</time></trkpt><trkpt lat="43.1244756" lon="11.5956041"><ele>364.0</ele><time>2026-04-04T14:33:18.589Z</time></trkpt><trkpt lat="43.1244792" lon="11.5957217"><ele>363.0</ele><time>2026-04-04T14:33:19.605Z</time></trkpt><trkpt lat="43.1244753" lon="11.5958455"><ele>362.0</ele><time>2026-04-04T14:33:20.611Z</time></trkpt><trkpt lat="43.1244642" lon="11.5959847"><ele>361.0</ele><time>2026-04-04T14:33:21.576Z</time></trkpt><trkpt lat="43.124451" lon="11.5961301"><ele>360.0</ele><time>2026-04-04T14:33:22.602Z</time></trkpt><trkpt lat="43.1244331" lon="11.5962799"><ele>359.0</ele><time>2026-04-04T14:33:23.58Z</time></trkpt><trkpt lat="43.1244222" lon="11.5964336"><ele>359.0</ele><time>2026-04-04T14:33:24.579Z</time></trkpt><trkpt lat="43.1244096" lon="11.5965928"><ele>359.0</ele><time>2026-04-04T14:33:25.589Z</time></trkpt><trkpt lat="43.1243982" lon="11.5967555"><ele>359.0</ele><time>2026-04-04T14:33:26.591Z</time></trkpt><trkpt lat="43.1243901" lon="11.596922"><ele>359.0</ele><time>2026-04-04T14:33:27.592Z</time></trkpt><trkpt lat="43.1243806" lon="11.5970867"><ele>360.75</ele><time>2026-04-04T14:33:28.582Z</time></trkpt><trkpt lat="43.1243698" lon="11.597251"><ele>362.5</ele><time>2026-04-04T14:33:29.589Z</time></trkpt><trkpt lat="43.1243607" lon="11.5974166"><ele>364.25</ele><time>2026-04-04T14:33:30.585Z</time></trkpt><trkpt lat="43.1243527" lon="11.5975855"><ele>366.0</ele><time>2026-04-04T14:33:31.581Z</time></trkpt><trkpt lat="43.124346" lon="11.5977553"><ele>366.4</ele><time>2026-04-04T14:33:32.587Z</time></trkpt><trkpt lat="43.1243432" lon="11.5979046"><ele>366.8</ele><time>2026-04-04T14:33:33.593Z</time></trkpt><trkpt lat="43.124337" lon="11.5980439"><ele>367.2</ele><time>2026-04-04T14:33:34.588Z</time></trkpt><trkpt lat="43.1243157" lon="11.5981848"><ele>367.59999999999997</ele><time>2026-04-04T14:33:35.586Z</time></trkpt><trkpt lat="43.1242789" lon="11.5983243"><ele>368.0</ele><time>2026-04-04T14:33:36.587Z</time></trkpt><trkpt lat="43.1242304" lon="11.5984635"><ele>368.0</ele><time>2026-04-04T14:33:37.595Z</time></trkpt><trkpt lat="43.1241764" lon="11.5986063"><ele>368.0</ele><time>2026-04-04T14:33:38.585Z</time></trkpt><trkpt lat="43.1241233" lon="11.5987545"><ele>368.0</ele><time>2026-04-04T14:33:39.589Z</time></trkpt><trkpt lat="43.1240749" lon="11.5989048"><ele>368.0</ele><time>2026-04-04T14:33:40.59Z</time></trkpt><trkpt lat="43.1240455" lon="11.5990415"><ele>368.4</ele><time>2026-04-04T14:33:41.583Z</time></trkpt><trkpt lat="43.1240403" lon="11.5991671"><ele>368.79999999999995</ele><time>2026-04-04T14:33:42.583Z</time></trkpt><trkpt lat="43.1240581" lon="11.5992804"><ele>369.2</ele><time>2026-04-04T14:33:43.592Z</time></trkpt><trkpt lat="43.1240945" lon="11.5993982"><ele>369.6</ele><time>2026-04-04T14:33:44.593Z</time></trkpt><trkpt lat="43.1241491" lon="11.5995083"><ele>370.0</ele><time>2026-04-04T14:33:45.583Z</time></trkpt><trkpt lat="43.1242086" lon="11.5996228"><ele>370.2</ele><time>2026-04-04T14:33:46.581Z</time></trkpt><trkpt lat="43.1242687" lon="11.5997459"><ele>370.4</ele><time>2026-04-04T14:33:47.591Z</time></trkpt><trkpt lat="43.1243338" lon="11.5998724"><ele>370.6</ele><time>2026-04-04T14:33:48.576Z</time></trkpt><trkpt lat="43.124397" lon="11.5999918"><ele>370.8</ele><time>2026-04-04T14:33:49.584Z</time></trkpt><trkpt lat="43.1244594" lon="11.6001161"><ele>371.0</ele><time>2026-04-04T14:33:50.595Z</time></trkpt><trkpt lat="43.1245274" lon="11.6002449"><ele>369.4</ele><time>2026-04-04T14:33:51.587Z</time></trkpt><trkpt lat="43.1245935" lon="11.6003732"><ele>367.8</ele><time>2026-04-04T14:33:52.586Z</time></trkpt><trkpt lat="43.124651" lon="11.6004944"><ele>366.2</ele><time>2026-04-04T14:33:53.584Z</time></trkpt><trkpt lat="43.1247016" lon="11.600614"><ele>364.59999999999997</ele><time>2026-04-04T14:33:54.585Z</time></trkpt><trkpt lat="43.1247529" lon="11.6007404"><ele>363.0</ele><time>2026-04-04T14:33:55.585Z</time></trkpt><trkpt lat="43.1248028" lon="11.6008734"><ele>363.0</ele><time>2026-04-04T14:33:56.587Z</time></trkpt><trkpt lat="43.1248535" lon="11.601015"><ele>363.0</ele><time>2026-04-04T14:33:57.586Z</time></trkpt><trkpt lat="43.1249052" lon="11.6011641"><ele>363.0</ele><time>2026-04-04T14:33:58.592Z</time></trkpt><trkpt lat="43.1249578" lon="11.6013206"><ele>363.0</ele><time>2026-04-04T14:33:59.6Z</time></trkpt><trkpt lat="43.1250143" lon="11.6014795"><ele>362.75</ele><time>2026-04-04T14:34:00.581Z</time></trkpt><trkpt lat="43.1250654" lon="11.6016286"><ele>362.5</ele><time>2026-04-04T14:34:01.591Z</time></trkpt><trkpt lat="43.1251145" lon="11.6017696"><ele>362.25</ele><time>2026-04-04T14:34:02.583Z</time></trkpt><trkpt lat="43.1251644" lon="11.6019002"><ele>362.0</ele><time>2026-04-04T14:34:03.584Z</time></trkpt><trkpt lat="43.1252167" lon="11.6020329"><ele>362.0</ele><time>2026-04-04T14:34:04.578Z</time></trkpt><trkpt lat="43.125273" lon="11.6021701"><ele>362.0</ele><time>2026-04-04T14:34:05.597Z</time></trkpt><trkpt lat="43.1253329" lon="11.6023097"><ele>362.0</ele><time>2026-04-04T14:34:06.58Z</time></trkpt><trkpt lat="43.1253919" lon="11.6024472"><ele>362.0</ele><time>2026-04-04T14:34:07.59Z</time></trkpt><trkpt lat="43.1254462" lon="11.6025769"><ele>362.0</ele><time>2026-04-04T14:34:08.588Z</time></trkpt><trkpt lat="43.1254958" lon="11.6026998"><ele>362.0</ele><time>2026-04-04T14:34:09.589Z</time></trkpt><trkpt lat="43.125545" lon="11.6028207"><ele>362.0</ele><time>2026-04-04T14:34:10.595Z</time></trkpt><trkpt lat="43.1255975" lon="11.6029488"><ele>362.0</ele><time>2026-04-04T14:34:11.592Z</time></trkpt><trkpt lat="43.1256526" lon="11.6030822"><ele>362.0</ele><time>2026-04-04T14:34:12.585Z</time></trkpt><trkpt lat="43.1257098" lon="11.6032165"><ele>362.75</ele><time>2026-04-04T14:34:13.594Z</time></trkpt><trkpt lat="43.1257669" lon="11.6033588"><ele>363.5</ele><time>2026-04-04T14:34:14.59Z</time></trkpt><trkpt lat="43.1258231" lon="11.6035028"><ele>364.25</ele><time>2026-04-04T14:34:15.588Z</time></trkpt><trkpt lat="43.1258827" lon="11.6036475"><ele>365.0</ele><time>2026-04-04T14:34:16.603Z</time></trkpt><trkpt lat="43.1259423" lon="11.6037944"><ele>365.25</ele><time>2026-04-04T14:34:17.588Z</time></trkpt><trkpt lat="43.1260053" lon="11.6039412"><ele>365.5</ele><time>2026-04-04T14:34:18.591Z</time></trkpt><trkpt lat="43.1260652" lon="11.6040929"><ele>365.75</ele><time>2026-04-04T14:34:19.59Z</time></trkpt><trkpt lat="43.1261291" lon="11.6042442"><ele>366.0</ele><time>2026-04-04T14:34:20.59Z</time></trkpt><trkpt lat="43.1261884" lon="11.6043837"><ele>364.75</ele><time>2026-04-04T14:34:21.587Z</time></trkpt><trkpt lat="43.1262459" lon="11.6045256"><ele>363.5</ele><time>2026-04-04T14:34:22.587Z</time></trkpt><trkpt lat="43.1263049" lon="11.6046686"><ele>362.25</ele><time>2026-04-04T14:34:23.588Z</time></trkpt><trkpt lat="43.1263689" lon="11.6048079"><ele>361.0</ele><time>2026-04-04T14:34:24.591Z</time></trkpt><trkpt lat="43.12644" lon="11.6049364"><ele>361.0</ele><time>2026-04-04T14:34:25.603Z</time></trkpt><trkpt lat="43.126521" lon="11.6050565"><ele>361.0</ele><time>2026-04-04T14:34:26.585Z</time></trkpt><trkpt lat="43.1266094" lon="11.6051613"><ele>361.0</ele><time>2026-04-04T14:34:27.595Z</time></trkpt><trkpt lat="43.1267033" lon="11.605258"><ele>361.0</ele><time>2026-04-04T14:34:28.578Z</time></trkpt><trkpt lat="43.1267988" lon="11.605351"><ele>361.25</ele><time>2026-04-04T14:34:29.585Z</time></trkpt><trkpt lat="43.1268965" lon="11.6054418"><ele>361.5</ele><time>2026-04-04T14:34:30.597Z</time></trkpt><trkpt lat="43.1269951" lon="11.6055348"><ele>361.75</ele><time>2026-04-04T14:34:31.59Z</time></trkpt><trkpt lat="43.1270827" lon="11.6056375"><ele>362.0</ele><time>2026-04-04T14:34:32.595Z</time></trkpt><trkpt lat="43.1271599" lon="11.6057542"><ele>362.0</ele><time>2026-04-04T14:34:33.586Z</time></trkpt><trkpt lat="43.127226" lon="11.6058818"><ele>362.0</ele><time>2026-04-04T14:34:34.589Z</time></trkpt><trkpt lat="43.1272791" lon="11.6060159"><ele>362.0</ele><time>2026-04-04T14:34:35.594Z</time></trkpt><trkpt lat="43.1273159" lon="11.6061517"><ele>362.0</ele><time>2026-04-04T14:34:36.583Z</time></trkpt><trkpt lat="43.1273404" lon="11.6062888"><ele>362.0</ele><time>2026-04-04T14:34:37.605Z</time></trkpt><trkpt lat="43.1273633" lon="11.6064261"><ele>361.20000000000005</ele><time>2026-04-04T14:34:38.596Z</time></trkpt><trkpt lat="43.1273909" lon="11.6065615"><ele>360.4</ele><time>2026-04-04T14:34:39.59Z</time></trkpt><trkpt lat="43.1274216" lon="11.6066979"><ele>359.6</ele><time>2026-04-04T14:34:40.589Z</time></trkpt><trkpt lat="43.12746" lon="11.6068352"><ele>358.79999999999995</ele><time>2026-04-04T14:34:41.588Z</time></trkpt><trkpt lat="43.1275009" lon="11.6069667"><ele>358.0</ele><time>2026-04-04T14:34:42.582Z</time></trkpt><trkpt lat="43.1275365" lon="11.6070757"><ele>360.0</ele><time>2026-04-04T14:34:43.588Z</time></trkpt><trkpt lat="43.1275677" lon="11.6071739"><ele>362.0</ele><time>2026-04-04T14:34:44.59Z</time></trkpt><trkpt lat="43.1275962" lon="11.6072624"><ele>364.0</ele><time>2026-04-04T14:34:45.581Z</time></trkpt><trkpt lat="43.1276215" lon="11.6073433"><ele>366.0</ele><time>2026-04-04T14:34:46.586Z</time></trkpt><trkpt lat="43.1276656" lon="11.607485"><ele>368.0</ele><time>2026-04-04T14:34:48.595Z</time></trkpt><trkpt lat="43.1276957" lon="11.6075814"><ele>370.0</ele><time>2026-04-04T14:34:50.598Z</time></trkpt><trkpt lat="43.1277442" lon="11.6076862"><ele>370.0</ele><time>2026-04-04T14:35:40.581Z</time></trkpt><trkpt lat="43.1277848" lon="11.6077666"><ele>370.0</ele><time>2026-04-04T14:35:41.592Z</time></trkpt><trkpt lat="43.1278369" lon="11.6078578"><ele>370.0</ele><time>2026-04-04T14:35:42.593Z</time></trkpt><trkpt lat="43.1278901" lon="11.6079479"><ele>370.0</ele><time>2026-04-04T14:35:43.592Z</time></trkpt><trkpt lat="43.1279509" lon="11.6080486"><ele>370.0</ele><time>2026-04-04T14:35:44.594Z</time></trkpt><trkpt lat="43.1280257" lon="11.6081656"><ele>370.0</ele><time>2026-04-04T14:35:45.586Z</time></trkpt><trkpt lat="43.1281063" lon="11.6082973"><ele>369.75</ele><time>2026-04-04T14:35:46.588Z</time></trkpt><trkpt lat="43.1281875" lon="11.6084451"><ele>369.5</ele><time>2026-04-04T14:35:47.592Z</time></trkpt><trkpt lat="43.1282578" lon="11.6086057"><ele>369.25</ele><time>2026-04-04T14:35:48.581Z</time></trkpt><trkpt lat="43.1283161" lon="11.6087621"><ele>369.0</ele><time>2026-04-04T14:35:49.592Z</time></trkpt><trkpt lat="43.1283677" lon="11.608912"><ele>369.0</ele><time>2026-04-04T14:35:50.602Z</time></trkpt><trkpt lat="43.1284195" lon="11.6090517"><ele>369.0</ele><time>2026-04-04T14:35:51.577Z</time></trkpt><trkpt lat="43.1284788" lon="11.6091905"><ele>369.0</ele><time>2026-04-04T14:35:52.599Z</time></trkpt><trkpt lat="43.1285454" lon="11.6093357"><ele>369.0</ele><time>2026-04-04T14:35:53.593Z</time></trkpt><trkpt lat="43.1286151" lon="11.609491"><ele>366.5</ele><time>2026-04-04T14:35:54.582Z</time></trkpt><trkpt lat="43.1286846" lon="11.6096532"><ele>364.0</ele><time>2026-04-04T14:35:55.583Z</time></trkpt><trkpt lat="43.1287449" lon="11.6098203"><ele>361.5</ele><time>2026-04-04T14:35:56.587Z</time></trkpt><trkpt lat="43.128796" lon="11.6099957"><ele>359.0</ele><time>2026-04-04T14:35:57.583Z</time></trkpt><trkpt lat="43.1288376" lon="11.6101822"><ele>357.25</ele><time>2026-04-04T14:35:58.59Z</time></trkpt><trkpt lat="43.1288655" lon="11.610347"><ele>355.5</ele><time>2026-04-04T14:35:59.593Z</time></trkpt><trkpt lat="43.1288836" lon="11.6105261"><ele>353.75</ele><time>2026-04-04T14:36:00.597Z</time></trkpt><trkpt lat="43.1288862" lon="11.6107002"><ele>352.0</ele><time>2026-04-04T14:36:01.585Z</time></trkpt><trkpt lat="43.1288796" lon="11.6108981"><ele>352.0</ele><time>2026-04-04T14:36:02.592Z</time></trkpt><trkpt lat="43.1288691" lon="11.6111115"><ele>352.0</ele><time>2026-04-04T14:36:03.585Z</time></trkpt><trkpt lat="43.1288594" lon="11.611308"><ele>352.0</ele><time>2026-04-04T14:36:04.6Z</time></trkpt><trkpt lat="43.1288517" lon="11.6115277"><ele>352.66666666666663</ele><time>2026-04-04T14:36:05.601Z</time></trkpt><trkpt lat="43.1288471" lon="11.6117595"><ele>353.3333333333333</ele><time>2026-04-04T14:36:06.588Z</time></trkpt><trkpt lat="43.1288416" lon="11.611961"><ele>354.0</ele><time>2026-04-04T14:36:07.606Z</time></trkpt><trkpt lat="43.1288359" lon="11.6121601"><ele>355.4</ele><time>2026-04-04T14:36:08.589Z</time></trkpt><trkpt lat="43.1288315" lon="11.6123462"><ele>356.79999999999995</ele><time>2026-04-04T14:36:09.595Z</time></trkpt><trkpt lat="43.1288302" lon="11.6124744"><ele>358.20000000000005</ele><time>2026-04-04T14:36:10.584Z</time></trkpt><trkpt lat="43.1288296" lon="11.6125941"><ele>359.6</ele><time>2026-04-04T14:36:11.589Z</time></trkpt><trkpt lat="43.1288074" lon="11.6127503"><ele>361.0</ele><time>2026-04-04T14:36:13.585Z</time></trkpt><trkpt lat="43.1287439" lon="11.6128683"><ele>362.16666666666663</ele><time>2026-04-04T14:36:15.6Z</time></trkpt><trkpt lat="43.1286421" lon="11.6129607"><ele>363.3333333333333</ele><time>2026-04-04T14:36:17.592Z</time></trkpt><trkpt lat="43.1285791" lon="11.6130035"><ele>364.5</ele><time>2026-04-04T14:36:18.594Z</time></trkpt><trkpt lat="43.1285083" lon="11.6130509"><ele>365.6666666666667</ele><time>2026-04-04T14:36:19.595Z</time></trkpt><trkpt lat="43.1284388" lon="11.613098"><ele>366.83333333333337</ele><time>2026-04-04T14:36:20.594Z</time></trkpt><trkpt lat="43.1283633" lon="11.6131482"><ele>368.0</ele><time>2026-04-04T14:36:21.598Z</time></trkpt><trkpt lat="43.1282818" lon="11.6132016"><ele>368.33333333333337</ele><time>2026-04-04T14:36:22.595Z</time></trkpt><trkpt lat="43.1282082" lon="11.6132538"><ele>368.6666666666667</ele><time>2026-04-04T14:36:23.583Z</time></trkpt><trkpt lat="43.1281329" lon="11.6133128"><ele>369.0</ele><time>2026-04-04T14:36:24.591Z</time></trkpt><trkpt lat="43.1280468" lon="11.6133833"><ele>369.3333333333333</ele><time>2026-04-04T14:36:25.585Z</time></trkpt><trkpt lat="43.1279774" lon="11.6134464"><ele>369.66666666666663</ele><time>2026-04-04T14:36:26.587Z</time></trkpt><trkpt lat="43.1279045" lon="11.6135212"><ele>370.0</ele><time>2026-04-04T14:36:27.584Z</time></trkpt><trkpt lat="43.1278446" lon="11.6135943"><ele>370.8333333333333</ele><time>2026-04-04T14:36:28.589Z</time></trkpt><trkpt lat="43.1277843" lon="11.6136747"><ele>371.66666666666663</ele><time>2026-04-04T14:36:29.588Z</time></trkpt><trkpt lat="43.127732" lon="11.6137493"><ele>372.5</ele><time>2026-04-04T14:36:30.593Z</time></trkpt><trkpt lat="43.1276751" lon="11.6138271"><ele>373.3333333333333</ele><time>2026-04-04T14:36:31.606Z</time></trkpt><trkpt lat="43.1276108" lon="11.6139181"><ele>374.1666666666667</ele><time>2026-04-04T14:36:32.599Z</time></trkpt><trkpt lat="43.1275561" lon="11.613997"><ele>375.0</ele><time>2026-04-04T14:36:33.599Z</time></trkpt><trkpt lat="43.1274924" lon="11.6140821"><ele>375.0</ele><time>2026-04-04T14:36:34.588Z</time></trkpt><trkpt lat="43.1274217" lon="11.6141673"><ele>375.0</ele><time>2026-04-04T14:36:35.59Z</time></trkpt><trkpt lat="43.1273582" lon="11.6142291"><ele>375.0</ele><time>2026-04-04T14:36:36.607Z</time></trkpt><trkpt lat="43.1272826" lon="11.6142856"><ele>375.0</ele><time>2026-04-04T14:36:37.59Z</time></trkpt><trkpt lat="43.1272081" lon="11.6143229"><ele>375.0</ele><time>2026-04-04T14:36:38.608Z</time></trkpt><trkpt lat="43.1271327" lon="11.6143479"><ele>375.0</ele><time>2026-04-04T14:36:39.588Z</time></trkpt><trkpt lat="43.1270373" lon="11.6143665"><ele>375.6</ele><time>2026-04-04T14:36:40.593Z</time></trkpt><trkpt lat="43.126942" lon="11.6143781"><ele>376.2</ele><time>2026-04-04T14:36:41.587Z</time></trkpt><trkpt lat="43.1268448" lon="11.6143868"><ele>376.79999999999995</ele><time>2026-04-04T14:36:42.592Z</time></trkpt><trkpt lat="43.1267228" lon="11.6143964"><ele>377.4</ele><time>2026-04-04T14:36:43.59Z</time></trkpt><trkpt lat="43.1266056" lon="11.6144058"><ele>378.0</ele><time>2026-04-04T14:36:44.59Z</time></trkpt><trkpt lat="43.1264691" lon="11.6144192"><ele>378.25</ele><time>2026-04-04T14:36:45.587Z</time></trkpt><trkpt lat="43.126334" lon="11.6144358"><ele>378.5</ele><time>2026-04-04T14:36:46.598Z</time></trkpt><trkpt lat="43.126208" lon="11.6144549"><ele>378.75</ele><time>2026-04-04T14:36:47.585Z</time></trkpt><trkpt lat="43.1260774" lon="11.6144792"><ele>379.0</ele><time>2026-04-04T14:36:48.593Z</time></trkpt><trkpt lat="43.1259688" lon="11.6144934"><ele>378.6</ele><time>2026-04-04T14:36:49.599Z</time></trkpt><trkpt lat="43.1258542" lon="11.6145069"><ele>378.2</ele><time>2026-04-04T14:36:50.604Z</time></trkpt><trkpt lat="43.125749" lon="11.6145091"><ele>377.8</ele><time>2026-04-04T14:36:51.59Z</time></trkpt><trkpt lat="43.1256493" lon="11.6144963"><ele>377.40000000000003</ele><time>2026-04-04T14:36:52.59Z</time></trkpt><trkpt lat="43.1255385" lon="11.6144671"><ele>377.0</ele><time>2026-04-04T14:36:53.598Z</time></trkpt><trkpt lat="43.1254378" lon="11.6144265"><ele>377.83333333333337</ele><time>2026-04-04T14:36:54.589Z</time></trkpt><trkpt lat="43.1253491" lon="11.6143815"><ele>378.6666666666667</ele><time>2026-04-04T14:36:55.592Z</time></trkpt><trkpt lat="43.1252561" lon="11.614331"><ele>379.5</ele><time>2026-04-04T14:36:56.59Z</time></trkpt><trkpt lat="43.125179" lon="11.6142895"><ele>380.3333333333333</ele><time>2026-04-04T14:36:57.592Z</time></trkpt><trkpt lat="43.1251133" lon="11.6142577"><ele>381.16666666666663</ele><time>2026-04-04T14:36:58.591Z</time></trkpt><trkpt lat="43.1250478" lon="11.6142322"><ele>382.0</ele><time>2026-04-04T14:36:59.581Z</time></trkpt><trkpt lat="43.1249445" lon="11.6142032"><ele>383.16666666666663</ele><time>2026-04-04T14:37:01.595Z</time></trkpt><trkpt lat="43.1248462" lon="11.6141912"><ele>384.3333333333333</ele><time>2026-04-04T14:37:03.581Z</time></trkpt><trkpt lat="43.1247335" lon="11.6142095"><ele>385.5</ele><time>2026-04-04T14:37:05.588Z</time></trkpt><trkpt lat="43.1246653" lon="11.6142259"><ele>386.66666666666663</ele><time>2026-04-04T14:37:06.596Z</time></trkpt><trkpt lat="43.124581" lon="11.6142438"><ele>387.8333333333333</ele><time>2026-04-04T14:37:07.594Z</time></trkpt><trkpt lat="43.1244997" lon="11.6142618"><ele>389.0</ele><time>2026-04-04T14:37:08.593Z</time></trkpt><trkpt lat="43.1244033" lon="11.6142838"><ele>388.99999999999994</ele><time>2026-04-04T14:37:09.594Z</time></trkpt><trkpt lat="43.1243157" lon="11.614306"><ele>389.0</ele><time>2026-04-04T14:37:10.589Z</time></trkpt><trkpt lat="43.1242427" lon="11.6143289"><ele>389.0</ele><time>2026-04-04T14:37:11.583Z</time></trkpt><trkpt lat="43.1241594" lon="11.614366"><ele>389.0</ele><time>2026-04-04T14:37:12.578Z</time></trkpt><trkpt lat="43.1240803" lon="11.6144108"><ele>388.99999999999994</ele><time>2026-04-04T14:37:13.591Z</time></trkpt><trkpt lat="43.1240013" lon="11.6144638"><ele>389.0</ele><time>2026-04-04T14:37:14.592Z</time></trkpt><trkpt lat="43.1239127" lon="11.614533"><ele>387.6</ele><time>2026-04-04T14:37:15.592Z</time></trkpt><trkpt lat="43.123838" lon="11.6145989"><ele>386.2</ele><time>2026-04-04T14:37:16.589Z</time></trkpt><trkpt lat="43.1237606" lon="11.6146803"><ele>384.8</ele><time>2026-04-04T14:37:17.592Z</time></trkpt><trkpt lat="43.1236927" lon="11.6147646"><ele>383.40000000000003</ele><time>2026-04-04T14:37:18.589Z</time></trkpt><trkpt lat="43.12363" lon="11.6148505"><ele>382.0</ele><time>2026-04-04T14:37:19.586Z</time></trkpt><trkpt lat="43.1235607" lon="11.6149531"><ele>382.0</ele><time>2026-04-04T14:37:20.588Z</time></trkpt><trkpt lat="43.1235003" lon="11.615048"><ele>382.0</ele><time>2026-04-04T14:37:21.589Z</time></trkpt><trkpt lat="43.1234398" lon="11.6151487"><ele>382.0</ele><time>2026-04-04T14:37:22.588Z</time></trkpt><trkpt lat="43.1233698" lon="11.6152722"><ele>382.0</ele><time>2026-04-04T14:37:23.583Z</time></trkpt><trkpt lat="43.1233018" lon="11.6153943"><ele>382.0</ele><time>2026-04-04T14:37:24.583Z</time></trkpt><trkpt lat="43.1232226" lon="11.6155447"><ele>380.0</ele><time>2026-04-04T14:37:25.591Z</time></trkpt><trkpt lat="43.1231466" lon="11.6156996"><ele>378.0</ele><time>2026-04-04T14:37:26.587Z</time></trkpt><trkpt lat="43.1230749" lon="11.6158552"><ele>376.0</ele><time>2026-04-04T14:37:27.59Z</time></trkpt><trkpt lat="43.1229965" lon="11.6160236"><ele>374.0</ele><time>2026-04-04T14:37:28.59Z</time></trkpt><trkpt lat="43.1229251" lon="11.6161875"><ele>374.0</ele><time>2026-04-04T14:37:29.594Z</time></trkpt><trkpt lat="43.1228519" lon="11.6163396"><ele>374.0</ele><time>2026-04-04T14:37:30.597Z</time></trkpt><trkpt lat="43.1227731" lon="11.6164896"><ele>374.0</ele><time>2026-04-04T14:37:31.605Z</time></trkpt><trkpt lat="43.122687" lon="11.6166362"><ele>374.0</ele><time>2026-04-04T14:37:32.6Z</time></trkpt><trkpt lat="43.1225943" lon="11.6167753"><ele>374.0</ele><time>2026-04-04T14:37:33.588Z</time></trkpt><trkpt lat="43.1224961" lon="11.6169087"><ele>374.0</ele><time>2026-04-04T14:37:34.602Z</time></trkpt><trkpt lat="43.1223922" lon="11.6170357"><ele>374.0</ele><time>2026-04-04T14:37:35.575Z</time></trkpt><trkpt lat="43.1222827" lon="11.6171519"><ele>374.0</ele><time>2026-04-04T14:37:36.592Z</time></trkpt><trkpt lat="43.1221726" lon="11.6172641"><ele>376.25</ele><time>2026-04-04T14:37:37.595Z</time></trkpt><trkpt lat="43.1220627" lon="11.6173784"><ele>378.5</ele><time>2026-04-04T14:37:38.589Z</time></trkpt><trkpt lat="43.1219541" lon="11.61749"><ele>380.75</ele><time>2026-04-04T14:37:39.59Z</time></trkpt><trkpt lat="43.1218529" lon="11.6175946"><ele>383.0</ele><time>2026-04-04T14:37:40.598Z</time></trkpt><trkpt lat="43.1217586" lon="11.6176903"><ele>383.0</ele><time>2026-04-04T14:37:41.592Z</time></trkpt><trkpt lat="43.1216661" lon="11.6177847"><ele>383.0</ele><time>2026-04-04T14:37:42.605Z</time></trkpt><trkpt lat="43.1215729" lon="11.6178818"><ele>383.0</ele><time>2026-04-04T14:37:43.588Z</time></trkpt><trkpt lat="43.1214763" lon="11.6179863"><ele>383.0</ele><time>2026-04-04T14:37:44.59Z</time></trkpt><trkpt lat="43.1213785" lon="11.6180913"><ele>382.4</ele><time>2026-04-04T14:37:45.577Z</time></trkpt><trkpt lat="43.1212864" lon="11.6181861"><ele>381.79999999999995</ele><time>2026-04-04T14:37:46.582Z</time></trkpt><trkpt lat="43.1211973" lon="11.6182773"><ele>381.2</ele><time>2026-04-04T14:37:47.596Z</time></trkpt><trkpt lat="43.1211124" lon="11.6183681"><ele>380.6</ele><time>2026-04-04T14:37:48.597Z</time></trkpt><trkpt lat="43.1210297" lon="11.6184595"><ele>380.0</ele><time>2026-04-04T14:37:49.59Z</time></trkpt><trkpt lat="43.1209475" lon="11.6185449"><ele>380.0</ele><time>2026-04-04T14:37:50.595Z</time></trkpt><trkpt lat="43.1208641" lon="11.6186155"><ele>380.0</ele><time>2026-04-04T14:37:51.593Z</time></trkpt><trkpt lat="43.1207786" lon="11.6186689"><ele>380.0</ele><time>2026-04-04T14:37:52.591Z</time></trkpt><trkpt lat="43.1206928" lon="11.6187049"><ele>380.0</ele><time>2026-04-04T14:37:53.595Z</time></trkpt><trkpt lat="43.1206073" lon="11.6187228"><ele>380.0</ele><time>2026-04-04T14:37:54.595Z</time></trkpt><trkpt lat="43.1205212" lon="11.6187295"><ele>379.0</ele><time>2026-04-04T14:37:55.592Z</time></trkpt><trkpt lat="43.1204257" lon="11.6187274"><ele>378.0</ele><time>2026-04-04T14:37:56.595Z</time></trkpt><trkpt lat="43.1203221" lon="11.6187165"><ele>377.0</ele><time>2026-04-04T14:37:57.587Z</time></trkpt><trkpt lat="43.1202094" lon="11.6187031"><ele>376.0</ele><time>2026-04-04T14:37:58.587Z</time></trkpt><trkpt lat="43.120085" lon="11.6186918"><ele>375.0</ele><time>2026-04-04T14:37:59.581Z</time></trkpt><trkpt lat="43.1199555" lon="11.6186821"><ele>373.5</ele><time>2026-04-04T14:38:00.581Z</time></trkpt><trkpt lat="43.1198182" lon="11.6186745"><ele>372.0</ele><time>2026-04-04T14:38:01.587Z</time></trkpt><trkpt lat="43.119676" lon="11.6186661"><ele>370.5</ele><time>2026-04-04T14:38:02.597Z</time></trkpt><trkpt lat="43.1195263" lon="11.6186551"><ele>369.0</ele><time>2026-04-04T14:38:03.59Z</time></trkpt><trkpt lat="43.1193689" lon="11.6186409"><ele>369.0</ele><time>2026-04-04T14:38:04.595Z</time></trkpt><trkpt lat="43.1192048" lon="11.6186181"><ele>369.0</ele><time>2026-04-04T14:38:05.585Z</time></trkpt><trkpt lat="43.1190467" lon="11.6185985"><ele>369.0</ele><time>2026-04-04T14:38:06.585Z</time></trkpt><trkpt lat="43.118892" lon="11.6185809"><ele>369.6666666666667</ele><time>2026-04-04T14:38:07.574Z</time></trkpt><trkpt lat="43.1187259" lon="11.6185679"><ele>370.33333333333337</ele><time>2026-04-04T14:38:08.59Z</time></trkpt><trkpt lat="43.1185548" lon="11.6185559"><ele>371.0</ele><time>2026-04-04T14:38:09.598Z</time></trkpt><trkpt lat="43.1183794" lon="11.6185457"><ele>371.6666666666667</ele><time>2026-04-04T14:38:10.589Z</time></trkpt><trkpt lat="43.1182102" lon="11.6185407"><ele>372.3333333333333</ele><time>2026-04-04T14:38:11.589Z</time></trkpt><trkpt lat="43.1180515" lon="11.6185378"><ele>373.0</ele><time>2026-04-04T14:38:12.585Z</time></trkpt><trkpt lat="43.1178988" lon="11.6185324"><ele>373.0</ele><time>2026-04-04T14:38:13.602Z</time></trkpt><trkpt lat="43.11775" lon="11.6185274"><ele>373.0</ele><time>2026-04-04T14:38:14.587Z</time></trkpt><trkpt lat="43.1175981" lon="11.6185205"><ele>373.0</ele><time>2026-04-04T14:38:15.583Z</time></trkpt><trkpt lat="43.1174481" lon="11.6185088"><ele>374.25</ele><time>2026-04-04T14:38:16.596Z</time></trkpt><trkpt lat="43.117299" lon="11.6184925"><ele>375.5</ele><time>2026-04-04T14:38:17.591Z</time></trkpt><trkpt lat="43.1171624" lon="11.6184761"><ele>376.75</ele><time>2026-04-04T14:38:18.588Z</time></trkpt><trkpt lat="43.1170352" lon="11.6184603"><ele>378.0</ele><time>2026-04-04T14:38:19.599Z</time></trkpt><trkpt lat="43.1169063" lon="11.6184477"><ele>378.0</ele><time>2026-04-04T14:38:20.588Z</time></trkpt><trkpt lat="43.1167807" lon="11.6184408"><ele>378.0</ele><time>2026-04-04T14:38:21.587Z</time></trkpt><trkpt lat="43.1166608" lon="11.6184463"><ele>378.0</ele><time>2026-04-04T14:38:22.596Z</time></trkpt><trkpt lat="43.1165367" lon="11.6184686"><ele>378.0</ele><time>2026-04-04T14:38:23.592Z</time></trkpt><trkpt lat="43.1164118" lon="11.6185016"><ele>380.0</ele><time>2026-04-04T14:38:24.591Z</time></trkpt><trkpt lat="43.1162858" lon="11.6185377"><ele>382.0</ele><time>2026-04-04T14:38:25.594Z</time></trkpt><trkpt lat="43.1161796" lon="11.6185692"><ele>384.0</ele><time>2026-04-04T14:38:26.593Z</time></trkpt><trkpt lat="43.1160742" lon="11.618593"><ele>386.0</ele><time>2026-04-04T14:38:27.584Z</time></trkpt><trkpt lat="43.1159655" lon="11.6186086"><ele>386.0</ele><time>2026-04-04T14:38:28.592Z</time></trkpt><trkpt lat="43.115853" lon="11.6186164"><ele>386.0</ele><time>2026-04-04T14:38:29.598Z</time></trkpt><trkpt lat="43.1157382" lon="11.6186109"><ele>386.0</ele><time>2026-04-04T14:38:30.592Z</time></trkpt><trkpt lat="43.1156358" lon="11.6185979"><ele>386.0</ele><time>2026-04-04T14:38:31.591Z</time></trkpt><trkpt lat="43.1155491" lon="11.6185812"><ele>386.0</ele><time>2026-04-04T14:38:32.578Z</time></trkpt><trkpt lat="43.11547" lon="11.6185608"><ele>386.49999999999994</ele><time>2026-04-04T14:38:33.59Z</time></trkpt><trkpt lat="43.1153987" lon="11.6185368"><ele>387.0</ele><time>2026-04-04T14:38:34.579Z</time></trkpt><trkpt lat="43.1153368" lon="11.6185121"><ele>387.5</ele><time>2026-04-04T14:38:35.593Z</time></trkpt><trkpt lat="43.1152498" lon="11.6184733"><ele>388.0</ele><time>2026-04-04T14:38:37.588Z</time></trkpt><trkpt lat="43.1151864" lon="11.6184207"><ele>388.49999999999994</ele><time>2026-04-04T14:40:24.578Z</time></trkpt><trkpt lat="43.1151758" lon="11.6182774"><ele>389.0</ele><time>2026-04-04T14:40:26.592Z</time></trkpt><trkpt lat="43.1151915" lon="11.6181936"><ele>389.0</ele><time>2026-04-04T14:40:27.575Z</time></trkpt><trkpt lat="43.1152277" lon="11.61808"><ele>389.0</ele><time>2026-04-04T14:40:28.583Z</time></trkpt><trkpt lat="43.1152776" lon="11.6179408"><ele>389.0</ele><time>2026-04-04T14:40:29.58Z</time></trkpt><trkpt lat="43.1153382" lon="11.6177715"><ele>389.0</ele><time>2026-04-04T14:40:30.581Z</time></trkpt><trkpt lat="43.1154039" lon="11.6176046"><ele>387.25</ele><time>2026-04-04T14:40:31.586Z</time></trkpt><trkpt lat="43.1154707" lon="11.6174538"><ele>385.5</ele><time>2026-04-04T14:40:32.589Z</time></trkpt><trkpt lat="43.1155358" lon="11.6173132"><ele>383.75</ele><time>2026-04-04T14:40:33.582Z</time></trkpt><trkpt lat="43.1155942" lon="11.6171789"><ele>382.0</ele><time>2026-04-04T14:40:34.591Z</time></trkpt><trkpt lat="43.1156508" lon="11.617045"><ele>381.75</ele><time>2026-04-04T14:40:35.58Z</time></trkpt><trkpt lat="43.1157107" lon="11.61691"><ele>381.5</ele><time>2026-04-04T14:40:36.582Z</time></trkpt><trkpt lat="43.1157708" lon="11.6167717"><ele>381.25</ele><time>2026-04-04T14:40:37.589Z</time></trkpt><trkpt lat="43.1158313" lon="11.6166266"><ele>381.0</ele><time>2026-04-04T14:40:38.579Z</time></trkpt><trkpt lat="43.1158895" lon="11.6164829"><ele>381.0</ele><time>2026-04-04T14:40:39.601Z</time></trkpt><trkpt lat="43.1159394" lon="11.6163502"><ele>381.0</ele><time>2026-04-04T14:40:40.588Z</time></trkpt><trkpt lat="43.115983" lon="11.6162238"><ele>381.0</ele><time>2026-04-04T14:40:41.59Z</time></trkpt><trkpt lat="43.1160179" lon="11.616103"><ele>381.0</ele><time>2026-04-04T14:40:42.592Z</time></trkpt><trkpt lat="43.1160426" lon="11.6159845"><ele>381.0</ele><time>2026-04-04T14:40:43.59Z</time></trkpt><trkpt lat="43.1160618" lon="11.6158476"><ele>380.5</ele><time>2026-04-04T14:40:44.593Z</time></trkpt><trkpt lat="43.1160747" lon="11.6156983"><ele>380.0</ele><time>2026-04-04T14:40:45.586Z</time></trkpt><trkpt lat="43.1160842" lon="11.6155385"><ele>379.5</ele><time>2026-04-04T14:40:46.587Z</time></trkpt><trkpt lat="43.1160915" lon="11.6153673"><ele>379.0</ele><time>2026-04-04T14:40:47.597Z</time></trkpt><trkpt lat="43.1160978" lon="11.6152035"><ele>378.6</ele><time>2026-04-04T14:40:48.587Z</time></trkpt><trkpt lat="43.1161021" lon="11.6150522"><ele>378.2</ele><time>2026-04-04T14:40:49.593Z</time></trkpt><trkpt lat="43.1161008" lon="11.6149118"><ele>377.8</ele><time>2026-04-04T14:40:50.589Z</time></trkpt><trkpt lat="43.1160916" lon="11.6147802"><ele>377.40000000000003</ele><time>2026-04-04T14:40:51.597Z</time></trkpt><trkpt lat="43.1160679" lon="11.6146466"><ele>377.0</ele><time>2026-04-04T14:40:52.593Z</time></trkpt><trkpt lat="43.1160285" lon="11.6145129"><ele>376.8</ele><time>2026-04-04T14:40:53.589Z</time></trkpt><trkpt lat="43.1159767" lon="11.6143849"><ele>376.6</ele><time>2026-04-04T14:40:54.596Z</time></trkpt><trkpt lat="43.115915" lon="11.6142661"><ele>376.40000000000003</ele><time>2026-04-04T14:40:55.594Z</time></trkpt><trkpt lat="43.1158409" lon="11.6141636"><ele>376.20000000000005</ele><time>2026-04-04T14:40:56.594Z</time></trkpt><trkpt lat="43.1157533" lon="11.6140716"><ele>376.0</ele><time>2026-04-04T14:40:57.592Z</time></trkpt><trkpt lat="43.1156616" lon="11.6139811"><ele>374.5</ele><time>2026-04-04T14:40:58.59Z</time></trkpt><trkpt lat="43.1155686" lon="11.6138829"><ele>373.0</ele><time>2026-04-04T14:40:59.603Z</time></trkpt><trkpt lat="43.115478" lon="11.6137757"><ele>371.5</ele><time>2026-04-04T14:41:00.596Z</time></trkpt><trkpt lat="43.1153954" lon="11.6136577"><ele>370.0</ele><time>2026-04-04T14:41:01.595Z</time></trkpt><trkpt lat="43.1153115" lon="11.6135239"><ele>370.0</ele><time>2026-04-04T14:41:02.588Z</time></trkpt><trkpt lat="43.1152214" lon="11.6133811"><ele>370.0</ele><time>2026-04-04T14:41:03.588Z</time></trkpt><trkpt lat="43.1151365" lon="11.6132499"><ele>370.0</ele><time>2026-04-04T14:41:04.591Z</time></trkpt><trkpt lat="43.115054" lon="11.6131289"><ele>370.0</ele><time>2026-04-04T14:41:05.592Z</time></trkpt><trkpt lat="43.1149729" lon="11.6130109"><ele>367.5</ele><time>2026-04-04T14:41:06.594Z</time></trkpt><trkpt lat="43.1148914" lon="11.612888"><ele>365.0</ele><time>2026-04-04T14:41:07.585Z</time></trkpt><trkpt lat="43.1148209" lon="11.6127559"><ele>362.5</ele><time>2026-04-04T14:41:08.585Z</time></trkpt><trkpt lat="43.1147682" lon="11.6126177"><ele>360.0</ele><time>2026-04-04T14:41:09.585Z</time></trkpt><trkpt lat="43.114731" lon="11.6124813"><ele>360.0</ele><time>2026-04-04T14:41:10.579Z</time></trkpt><trkpt lat="43.1146995" lon="11.6123358"><ele>360.0</ele><time>2026-04-04T14:41:11.601Z</time></trkpt><trkpt lat="43.114669" lon="11.6121859"><ele>360.0</ele><time>2026-04-04T14:41:12.602Z</time></trkpt><trkpt lat="43.1146294" lon="11.6120397"><ele>360.0</ele><time>2026-04-04T14:41:13.59Z</time></trkpt><trkpt lat="43.1145788" lon="11.611918"><ele>360.0</ele><time>2026-04-04T14:41:14.593Z</time></trkpt><trkpt lat="43.1145174" lon="11.6118002"><ele>362.0</ele><time>2026-04-04T14:41:15.6Z</time></trkpt><trkpt lat="43.1144532" lon="11.6116765"><ele>364.0</ele><time>2026-04-04T14:41:16.589Z</time></trkpt><trkpt lat="43.114381" lon="11.6115538"><ele>366.0</ele><time>2026-04-04T14:41:17.592Z</time></trkpt><trkpt lat="43.1142987" lon="11.6114306"><ele>368.0</ele><time>2026-04-04T14:41:18.59Z</time></trkpt><trkpt lat="43.1142056" lon="11.6113153"><ele>368.0</ele><time>2026-04-04T14:41:19.593Z</time></trkpt><trkpt lat="43.1141069" lon="11.6112026"><ele>368.0</ele><time>2026-04-04T14:41:20.591Z</time></trkpt><trkpt lat="43.1140129" lon="11.6110894"><ele>368.0</ele><time>2026-04-04T14:41:21.584Z</time></trkpt><trkpt lat="43.1139227" lon="11.6109639"><ele>368.0</ele><time>2026-04-04T14:41:22.597Z</time></trkpt><trkpt lat="43.1138407" lon="11.610825"><ele>368.25</ele><time>2026-04-04T14:41:23.587Z</time></trkpt><trkpt lat="43.1137607" lon="11.6106786"><ele>368.5</ele><time>2026-04-04T14:41:24.594Z</time></trkpt><trkpt lat="43.1136792" lon="11.6105267"><ele>368.75</ele><time>2026-04-04T14:41:25.589Z</time></trkpt><trkpt lat="43.1135954" lon="11.6103708"><ele>369.0</ele><time>2026-04-04T14:41:26.589Z</time></trkpt><trkpt lat="43.1135148" lon="11.6102175"><ele>369.0</ele><time>2026-04-04T14:41:27.597Z</time></trkpt><trkpt lat="43.1134427" lon="11.6100655"><ele>369.0</ele><time>2026-04-04T14:41:28.592Z</time></trkpt><trkpt lat="43.1133737" lon="11.6099058"><ele>369.0</ele><time>2026-04-04T14:41:29.592Z</time></trkpt><trkpt lat="43.1133087" lon="11.6097345"><ele>369.0</ele><time>2026-04-04T14:41:30.588Z</time></trkpt><trkpt lat="43.1132445" lon="11.609551"><ele>366.75</ele><time>2026-04-04T14:41:31.587Z</time></trkpt><trkpt lat="43.1131817" lon="11.6093783"><ele>364.5</ele><time>2026-04-04T14:41:32.595Z</time></trkpt><trkpt lat="43.1131107" lon="11.6092186"><ele>362.25</ele><time>2026-04-04T14:41:33.585Z</time></trkpt><trkpt lat="43.1130221" lon="11.609049"><ele>360.0</ele><time>2026-04-04T14:41:34.578Z</time></trkpt><trkpt lat="43.1129231" lon="11.6088718"><ele>360.0</ele><time>2026-04-04T14:41:35.587Z</time></trkpt><trkpt lat="43.1128141" lon="11.6086958"><ele>360.0</ele><time>2026-04-04T14:41:36.591Z</time></trkpt><trkpt lat="43.1126975" lon="11.6085321"><ele>360.0</ele><time>2026-04-04T14:41:37.586Z</time></trkpt><trkpt lat="43.1125717" lon="11.608378"><ele>361.6666666666667</ele><time>2026-04-04T14:41:38.584Z</time></trkpt><trkpt lat="43.1124378" lon="11.6082339"><ele>363.33333333333337</ele><time>2026-04-04T14:41:39.59Z</time></trkpt><trkpt lat="43.1122987" lon="11.608095"><ele>365.0</ele><time>2026-04-04T14:41:40.587Z</time></trkpt><trkpt lat="43.1121588" lon="11.6079578"><ele>365.0</ele><time>2026-04-04T14:41:41.59Z</time></trkpt><trkpt lat="43.1120287" lon="11.6078348"><ele>365.0</ele><time>2026-04-04T14:41:42.585Z</time></trkpt><trkpt lat="43.1119089" lon="11.60773"><ele>365.0</ele><time>2026-04-04T14:41:43.586Z</time></trkpt><trkpt lat="43.1117996" lon="11.6076383"><ele>365.0</ele><time>2026-04-04T14:41:44.594Z</time></trkpt><trkpt lat="43.111693" lon="11.607545"><ele>365.0</ele><time>2026-04-04T14:41:45.592Z</time></trkpt><trkpt lat="43.1115881" lon="11.6074494"><ele>365.0</ele><time>2026-04-04T14:41:46.585Z</time></trkpt><trkpt lat="43.1114824" lon="11.6073514"><ele>365.0</ele><time>2026-04-04T14:41:47.593Z</time></trkpt><trkpt lat="43.1113725" lon="11.6072486"><ele>365.0</ele><time>2026-04-04T14:41:48.593Z</time></trkpt><trkpt lat="43.1112627" lon="11.6071446"><ele>365.0</ele><time>2026-04-04T14:41:49.589Z</time></trkpt><trkpt lat="43.111161" lon="11.6070478"><ele>365.0</ele><time>2026-04-04T14:41:50.592Z</time></trkpt><trkpt lat="43.1110565" lon="11.6069594"><ele>365.0</ele><time>2026-04-04T14:41:51.596Z</time></trkpt><trkpt lat="43.1109564" lon="11.6068839"><ele>365.0</ele><time>2026-04-04T14:41:52.593Z</time></trkpt><trkpt lat="43.1108606" lon="11.6068215"><ele>365.1666666666667</ele><time>2026-04-04T14:41:53.6Z</time></trkpt><trkpt lat="43.1107688" lon="11.6067806"><ele>365.33333333333337</ele><time>2026-04-04T14:41:54.592Z</time></trkpt><trkpt lat="43.1106821" lon="11.6067474"><ele>365.5</ele><time>2026-04-04T14:41:55.595Z</time></trkpt><trkpt lat="43.1106022" lon="11.6067138"><ele>365.6666666666667</ele><time>2026-04-04T14:41:56.582Z</time></trkpt><trkpt lat="43.1105344" lon="11.6066703"><ele>365.8333333333333</ele><time>2026-04-04T14:41:57.588Z</time></trkpt><trkpt lat="43.1104718" lon="11.6066174"><ele>366.0</ele><time>2026-04-04T14:41:58.584Z</time></trkpt><trkpt lat="43.110411" lon="11.6065585"><ele>367.0</ele><time>2026-04-04T14:41:59.588Z</time></trkpt><trkpt lat="43.110348" lon="11.606499"><ele>368.0</ele><time>2026-04-04T14:42:00.587Z</time></trkpt><trkpt lat="43.1102828" lon="11.606441"><ele>369.0</ele><time>2026-04-04T14:42:01.596Z</time></trkpt><trkpt lat="43.1102206" lon="11.6063822"><ele>370.0</ele><time>2026-04-04T14:42:02.592Z</time></trkpt><trkpt lat="43.1101609" lon="11.6063241"><ele>371.0</ele><time>2026-04-04T14:42:03.59Z</time></trkpt><trkpt lat="43.1100806" lon="11.606247"><ele>372.0</ele><time>2026-04-04T14:42:05.597Z</time></trkpt><trkpt lat="43.1100298" lon="11.6061876"><ele>372.6</ele><time>2026-04-04T14:44:31.585Z</time></trkpt><trkpt lat="43.1099311" lon="11.6060916"><ele>373.20000000000005</ele><time>2026-04-04T14:44:34.584Z</time></trkpt><trkpt lat="43.1098686" lon="11.606036"><ele>373.8</ele><time>2026-04-04T14:44:35.608Z</time></trkpt><trkpt lat="43.1097953" lon="11.6059652"><ele>374.4</ele><time>2026-04-04T14:44:36.595Z</time></trkpt><trkpt lat="43.1097078" lon="11.6058837"><ele>375.0</ele><time>2026-04-04T14:44:37.592Z</time></trkpt><trkpt lat="43.1096146" lon="11.6057923"><ele>375.0</ele><time>2026-04-04T14:44:38.58Z</time></trkpt><trkpt lat="43.1095122" lon="11.6056859"><ele>375.0</ele><time>2026-04-04T14:44:39.589Z</time></trkpt><trkpt lat="43.1094026" lon="11.6055799"><ele>375.0</ele><time>2026-04-04T14:44:40.59Z</time></trkpt><trkpt lat="43.1092935" lon="11.605478"><ele>375.0</ele><time>2026-04-04T14:44:41.577Z</time></trkpt><trkpt lat="43.109193" lon="11.6053853"><ele>375.25</ele><time>2026-04-04T14:44:42.591Z</time></trkpt><trkpt lat="43.109094" lon="11.6052935"><ele>375.5</ele><time>2026-04-04T14:44:43.593Z</time></trkpt><trkpt lat="43.1089892" lon="11.6052003"><ele>375.75</ele><time>2026-04-04T14:44:44.582Z</time></trkpt><trkpt lat="43.1088802" lon="11.6051012"><ele>376.0</ele><time>2026-04-04T14:44:45.59Z</time></trkpt><trkpt lat="43.1087686" lon="11.6049993"><ele>376.0</ele><time>2026-04-04T14:44:46.597Z</time></trkpt><trkpt lat="43.1086533" lon="11.604894"><ele>376.0</ele><time>2026-04-04T14:44:47.577Z</time></trkpt><trkpt lat="43.1085486" lon="11.6047956"><ele>376.0</ele><time>2026-04-04T14:44:48.587Z</time></trkpt><trkpt lat="43.1084517" lon="11.6047087"><ele>376.0</ele><time>2026-04-04T14:44:49.594Z</time></trkpt><trkpt lat="43.1083593" lon="11.6046265"><ele>376.0</ele><time>2026-04-04T14:44:50.593Z</time></trkpt><trkpt lat="43.1082708" lon="11.6045332"><ele>376.0</ele><time>2026-04-04T14:44:51.599Z</time></trkpt><trkpt lat="43.1081902" lon="11.6044323"><ele>376.0</ele><time>2026-04-04T14:44:52.592Z</time></trkpt><trkpt lat="43.1081339" lon="11.6043315"><ele>376.0</ele><time>2026-04-04T14:44:53.591Z</time></trkpt><trkpt lat="43.1080882" lon="11.6042216"><ele>376.0</ele><time>2026-04-04T14:44:54.58Z</time></trkpt><trkpt lat="43.1080469" lon="11.6040971"><ele>376.4</ele><time>2026-04-04T14:44:55.59Z</time></trkpt><trkpt lat="43.1080032" lon="11.6039678"><ele>376.8</ele><time>2026-04-04T14:44:56.593Z</time></trkpt><trkpt lat="43.1079611" lon="11.6038312"><ele>377.2</ele><time>2026-04-04T14:44:57.594Z</time></trkpt><trkpt lat="43.1079225" lon="11.6036906"><ele>377.59999999999997</ele><time>2026-04-04T14:44:58.588Z</time></trkpt><trkpt lat="43.1078883" lon="11.6035449"><ele>378.0</ele><time>2026-04-04T14:44:59.583Z</time></trkpt><trkpt lat="43.1078637" lon="11.6034014"><ele>378.0</ele><time>2026-04-04T14:45:00.581Z</time></trkpt><trkpt lat="43.1078613" lon="11.603274"><ele>378.0</ele><time>2026-04-04T14:45:01.586Z</time></trkpt><trkpt lat="43.1078778" lon="11.603144"><ele>378.0</ele><time>2026-04-04T14:45:02.597Z</time></trkpt><trkpt lat="43.1079043" lon="11.6030087"><ele>378.0</ele><time>2026-04-04T14:45:03.588Z</time></trkpt><trkpt lat="43.1079404" lon="11.6028625"><ele>378.0</ele><time>2026-04-04T14:45:04.592Z</time></trkpt><trkpt lat="43.1079776" lon="11.6027071"><ele>380.2</ele><time>2026-04-04T14:45:05.598Z</time></trkpt><trkpt lat="43.1080134" lon="11.602547"><ele>382.4</ele><time>2026-04-04T14:45:06.591Z</time></trkpt><trkpt lat="43.1080421" lon="11.6024042"><ele>384.59999999999997</ele><time>2026-04-04T14:45:07.592Z</time></trkpt><trkpt lat="43.1080655" lon="11.6022623"><ele>386.79999999999995</ele><time>2026-04-04T14:45:08.581Z</time></trkpt><trkpt lat="43.1080791" lon="11.6021293"><ele>389.0</ele><time>2026-04-04T14:45:09.587Z</time></trkpt><trkpt lat="43.1080797" lon="11.6020016"><ele>389.66666666666663</ele><time>2026-04-04T14:45:10.592Z</time></trkpt><trkpt lat="43.1080711" lon="11.6018778"><ele>390.3333333333333</ele><time>2026-04-04T14:45:11.579Z</time></trkpt><trkpt lat="43.1080533" lon="11.6017636"><ele>391.0</ele><time>2026-04-04T14:45:12.589Z</time></trkpt><trkpt lat="43.108029" lon="11.6016546"><ele>391.66666666666663</ele><time>2026-04-04T14:45:13.596Z</time></trkpt><trkpt lat="43.1079921" lon="11.6015576"><ele>392.3333333333333</ele><time>2026-04-04T14:45:14.587Z</time></trkpt><trkpt lat="43.1079394" lon="11.6014643"><ele>393.0</ele><time>2026-04-04T14:45:15.589Z</time></trkpt><trkpt lat="43.1078777" lon="11.6013766"><ele>393.0</ele><time>2026-04-04T14:45:16.587Z</time></trkpt><trkpt lat="43.1078073" lon="11.6012974"><ele>393.0</ele><time>2026-04-04T14:45:17.59Z</time></trkpt><trkpt lat="43.1077264" lon="11.60122"><ele>393.0</ele><time>2026-04-04T14:45:18.595Z</time></trkpt><trkpt lat="43.1076298" lon="11.6011476"><ele>393.0</ele><time>2026-04-04T14:45:19.579Z</time></trkpt><trkpt lat="43.1075234" lon="11.601066"><ele>393.0</ele><time>2026-04-04T14:45:20.589Z</time></trkpt><trkpt lat="43.1074084" lon="11.6009829"><ele>390.0</ele><time>2026-04-04T14:45:21.592Z</time></trkpt><trkpt lat="43.1072829" lon="11.6008883"><ele>387.0</ele><time>2026-04-04T14:45:22.583Z</time></trkpt><trkpt lat="43.1071458" lon="11.6007868"><ele>384.0</ele><time>2026-04-04T14:45:23.589Z</time></trkpt><trkpt lat="43.1070047" lon="11.6006859"><ele>384.0</ele><time>2026-04-04T14:45:24.586Z</time></trkpt><trkpt lat="43.1068706" lon="11.6005914"><ele>384.0</ele><time>2026-04-04T14:45:25.596Z</time></trkpt><trkpt lat="43.1067491" lon="11.6005087"><ele>384.0</ele><time>2026-04-04T14:45:26.583Z</time></trkpt><trkpt lat="43.1066403" lon="11.6004363"><ele>384.0</ele><time>2026-04-04T14:45:27.592Z</time></trkpt><trkpt lat="43.1065463" lon="11.6003772"><ele>382.1666666666667</ele><time>2026-04-04T14:45:28.589Z</time></trkpt><trkpt lat="43.1064644" lon="11.6003331"><ele>380.3333333333333</ele><time>2026-04-04T14:45:29.596Z</time></trkpt><trkpt lat="43.1063911" lon="11.6003071"><ele>378.5</ele><time>2026-04-04T14:45:30.586Z</time></trkpt><trkpt lat="43.1063191" lon="11.6002967"><ele>376.66666666666663</ele><time>2026-04-04T14:45:31.589Z</time></trkpt><trkpt lat="43.1062427" lon="11.6003064"><ele>374.8333333333333</ele><time>2026-04-04T14:45:32.589Z</time></trkpt><trkpt lat="43.1061594" lon="11.6003314"><ele>373.0</ele><time>2026-04-04T14:45:33.579Z</time></trkpt><trkpt lat="43.1060708" lon="11.6003718"><ele>373.0</ele><time>2026-04-04T14:45:34.594Z</time></trkpt><trkpt lat="43.1059724" lon="11.6004272"><ele>373.0</ele><time>2026-04-04T14:45:35.58Z</time></trkpt><trkpt lat="43.1058711" lon="11.6004925"><ele>373.0</ele><time>2026-04-04T14:45:36.597Z</time></trkpt><trkpt lat="43.1057575" lon="11.6005605"><ele>373.0</ele><time>2026-04-04T14:45:37.586Z</time></trkpt><trkpt lat="43.1056319" lon="11.6006216"><ele>371.5</ele><time>2026-04-04T14:45:38.583Z</time></trkpt><trkpt lat="43.1055039" lon="11.6006687"><ele>370.0</ele><time>2026-04-04T14:45:39.593Z</time></trkpt><trkpt lat="43.105375" lon="11.6007027"><ele>368.5</ele><time>2026-04-04T14:45:40.59Z</time></trkpt><trkpt lat="43.1052484" lon="11.6007123"><ele>367.0</ele><time>2026-04-04T14:45:41.581Z</time></trkpt><trkpt lat="43.1051171" lon="11.6007014"><ele>367.0</ele><time>2026-04-04T14:45:42.593Z</time></trkpt><trkpt lat="43.1049774" lon="11.6006778"><ele>367.0</ele><time>2026-04-04T14:45:43.583Z</time></trkpt><trkpt lat="43.104825" lon="11.6006562"><ele>367.0</ele><time>2026-04-04T14:45:44.596Z</time></trkpt><trkpt lat="43.1046579" lon="11.6006302"><ele>366.3333333333333</ele><time>2026-04-04T14:45:45.586Z</time></trkpt><trkpt lat="43.104481" lon="11.6006002"><ele>365.6666666666667</ele><time>2026-04-04T14:45:46.583Z</time></trkpt><trkpt lat="43.1043153" lon="11.6005722"><ele>365.0</ele><time>2026-04-04T14:45:47.592Z</time></trkpt><trkpt lat="43.1041581" lon="11.6005457"><ele>364.5</ele><time>2026-04-04T14:45:48.597Z</time></trkpt><trkpt lat="43.1040111" lon="11.6005205"><ele>364.0</ele><time>2026-04-04T14:45:49.583Z</time></trkpt><trkpt lat="43.1038755" lon="11.600496"><ele>363.5</ele><time>2026-04-04T14:45:50.596Z</time></trkpt><trkpt lat="43.1037481" lon="11.6004736"><ele>363.0</ele><time>2026-04-04T14:45:51.582Z</time></trkpt><trkpt lat="43.1036322" lon="11.6004561"><ele>363.0</ele><time>2026-04-04T14:45:52.603Z</time></trkpt><trkpt lat="43.1035346" lon="11.6004387"><ele>363.0</ele><time>2026-04-04T14:45:53.589Z</time></trkpt><trkpt lat="43.1034489" lon="11.6004304"><ele>363.0</ele><time>2026-04-04T14:45:54.587Z</time></trkpt><trkpt lat="43.1033732" lon="11.6004401"><ele>363.0</ele><time>2026-04-04T14:45:55.6Z</time></trkpt><trkpt lat="43.1033011" lon="11.6004698"><ele>363.0</ele><time>2026-04-04T14:45:56.589Z</time></trkpt><trkpt lat="43.1032259" lon="11.6005228"><ele>363.0</ele><time>2026-04-04T14:45:57.588Z</time></trkpt><trkpt lat="43.1031521" lon="11.6006035"><ele>362.8333333333333</ele><time>2026-04-04T14:45:58.587Z</time></trkpt><trkpt lat="43.1030764" lon="11.6006955"><ele>362.6666666666667</ele><time>2026-04-04T14:45:59.591Z</time></trkpt><trkpt lat="43.1030036" lon="11.6007843"><ele>362.5</ele><time>2026-04-04T14:46:00.597Z</time></trkpt><trkpt lat="43.1029344" lon="11.6008686"><ele>362.33333333333337</ele><time>2026-04-04T14:46:01.59Z</time></trkpt><trkpt lat="43.1028708" lon="11.6009409"><ele>362.1666666666667</ele><time>2026-04-04T14:46:02.588Z</time></trkpt><trkpt lat="43.1028126" lon="11.6009973"><ele>362.0</ele><time>2026-04-04T14:46:03.577Z</time></trkpt><trkpt lat="43.1027066" lon="11.6010471"><ele>362.0</ele><time>2026-04-04T14:46:05.586Z</time></trkpt><trkpt lat="43.1025879" lon="11.6009974"><ele>362.0</ele><time>2026-04-04T14:46:07.581Z</time></trkpt><trkpt lat="43.1025287" lon="11.6009415"><ele>362.0</ele><time>2026-04-04T14:46:08.598Z</time></trkpt><trkpt lat="43.102467" lon="11.6008587"><ele>362.0</ele><time>2026-04-04T14:46:09.585Z</time></trkpt><trkpt lat="43.102408" lon="11.6007544"><ele>362.0</ele><time>2026-04-04T14:46:10.581Z</time></trkpt><trkpt lat="43.102348" lon="11.6006296"><ele>359.5</ele><time>2026-04-04T14:46:11.59Z</time></trkpt><trkpt lat="43.1022869" lon="11.6004859"><ele>357.0</ele><time>2026-04-04T14:46:12.596Z</time></trkpt><trkpt lat="43.1022258" lon="11.6003458"><ele>354.5</ele><time>2026-04-04T14:46:13.587Z</time></trkpt><trkpt lat="43.1021647" lon="11.6002181"><ele>352.0</ele><time>2026-04-04T14:46:14.591Z</time></trkpt><trkpt lat="43.1021042" lon="11.6000976"><ele>352.0</ele><time>2026-04-04T14:46:15.591Z</time></trkpt><trkpt lat="43.102046" lon="11.5999721"><ele>352.0</ele><time>2026-04-04T14:46:16.598Z</time></trkpt><trkpt lat="43.1019883" lon="11.5998505"><ele>352.0</ele><time>2026-04-04T14:46:17.587Z</time></trkpt><trkpt lat="43.1019288" lon="11.5997344"><ele>352.0</ele><time>2026-04-04T14:46:18.596Z</time></trkpt><trkpt lat="43.1018622" lon="11.5996278"><ele>352.0</ele><time>2026-04-04T14:46:19.588Z</time></trkpt><trkpt lat="43.1017893" lon="11.5995327"><ele>351.40000000000003</ele><time>2026-04-04T14:46:20.594Z</time></trkpt><trkpt lat="43.1017131" lon="11.5994543"><ele>350.8</ele><time>2026-04-04T14:46:21.585Z</time></trkpt><trkpt lat="43.101631" lon="11.5993842"><ele>350.2</ele><time>2026-04-04T14:46:22.591Z</time></trkpt><trkpt lat="43.1015462" lon="11.5993219"><ele>349.6</ele><time>2026-04-04T14:46:23.585Z</time></trkpt><trkpt lat="43.1014536" lon="11.5992621"><ele>349.0</ele><time>2026-04-04T14:46:24.589Z</time></trkpt><trkpt lat="43.1013534" lon="11.5992128"><ele>349.0</ele><time>2026-04-04T14:46:25.592Z</time></trkpt><trkpt lat="43.1012585" lon="11.5991903"><ele>349.0</ele><time>2026-04-04T14:46:26.598Z</time></trkpt><trkpt lat="43.1011576" lon="11.5991856"><ele>349.0</ele><time>2026-04-04T14:46:27.604Z</time></trkpt><trkpt lat="43.1010504" lon="11.5991995"><ele>349.0</ele><time>2026-04-04T14:46:28.601Z</time></trkpt><trkpt lat="43.1009411" lon="11.5992142"><ele>349.0</ele><time>2026-04-04T14:46:29.595Z</time></trkpt><trkpt lat="43.1008286" lon="11.5992252"><ele>350.0</ele><time>2026-04-04T14:46:30.589Z</time></trkpt><trkpt lat="43.1007136" lon="11.5992343"><ele>351.0</ele><time>2026-04-04T14:46:31.584Z</time></trkpt><trkpt lat="43.1006025" lon="11.5992359"><ele>352.0</ele><time>2026-04-04T14:46:32.586Z</time></trkpt><trkpt lat="43.1005012" lon="11.5992213"><ele>353.0</ele><time>2026-04-04T14:46:33.585Z</time></trkpt><trkpt lat="43.1004042" lon="11.5991923"><ele>354.0</ele><time>2026-04-04T14:46:34.584Z</time></trkpt><trkpt lat="43.1003092" lon="11.5991483"><ele>354.0</ele><time>2026-04-04T14:46:35.588Z</time></trkpt><trkpt lat="43.1002206" lon="11.5990871"><ele>354.0</ele><time>2026-04-04T14:46:36.587Z</time></trkpt><trkpt lat="43.1001417" lon="11.5990081"><ele>354.0</ele><time>2026-04-04T14:46:37.592Z</time></trkpt><trkpt lat="43.1000682" lon="11.5989134"><ele>354.0</ele><time>2026-04-04T14:46:38.591Z</time></trkpt><trkpt lat="43.0999932" lon="11.598807"><ele>354.0</ele><time>2026-04-04T14:46:39.585Z</time></trkpt><trkpt lat="43.0999195" lon="11.5986848"><ele>357.0</ele><time>2026-04-04T14:46:40.583Z</time></trkpt><trkpt lat="43.0998467" lon="11.598559"><ele>360.0</ele><time>2026-04-04T14:46:41.599Z</time></trkpt><trkpt lat="43.0997708" lon="11.5984262"><ele>363.0</ele><time>2026-04-04T14:46:42.583Z</time></trkpt><trkpt lat="43.0996923" lon="11.5982921"><ele>366.0</ele><time>2026-04-04T14:46:43.596Z</time></trkpt><trkpt lat="43.0996118" lon="11.5981632"><ele>366.0</ele><time>2026-04-04T14:46:44.588Z</time></trkpt><trkpt lat="43.0995316" lon="11.5980398"><ele>366.0</ele><time>2026-04-04T14:46:45.597Z</time></trkpt><trkpt lat="43.0994518" lon="11.5979228"><ele>366.0</ele><time>2026-04-04T14:46:46.585Z</time></trkpt><trkpt lat="43.0993709" lon="11.5978096"><ele>366.0</ele><time>2026-04-04T14:46:47.586Z</time></trkpt><trkpt lat="43.0992895" lon="11.5977022"><ele>365.20000000000005</ele><time>2026-04-04T14:46:48.582Z</time></trkpt><trkpt lat="43.0992037" lon="11.5976013"><ele>364.40000000000003</ele><time>2026-04-04T14:46:49.583Z</time></trkpt><trkpt lat="43.0991212" lon="11.5975128"><ele>363.6</ele><time>2026-04-04T14:46:50.589Z</time></trkpt><trkpt lat="43.0990414" lon="11.5974456"><ele>362.8</ele><time>2026-04-04T14:46:51.591Z</time></trkpt><trkpt lat="43.0989562" lon="11.5973991"><ele>362.0</ele><time>2026-04-04T14:46:52.585Z</time></trkpt><trkpt lat="43.0988783" lon="11.5973785"><ele>362.0</ele><time>2026-04-04T14:46:53.592Z</time></trkpt><trkpt lat="43.0988111" lon="11.5973902"><ele>362.0</ele><time>2026-04-04T14:46:54.597Z</time></trkpt><trkpt lat="43.0987522" lon="11.5974279"><ele>362.0</ele><time>2026-04-04T14:46:55.598Z</time></trkpt><trkpt lat="43.0987046" lon="11.5975027"><ele>362.0</ele><time>2026-04-04T14:46:56.587Z</time></trkpt><trkpt lat="43.0986617" lon="11.5975927"><ele>362.0</ele><time>2026-04-04T14:46:57.589Z</time></trkpt><trkpt lat="43.0986248" lon="11.5977014"><ele>362.0</ele><time>2026-04-04T14:46:58.593Z</time></trkpt><trkpt lat="43.0985882" lon="11.5978327"><ele>363.0</ele><time>2026-04-04T14:46:59.593Z</time></trkpt><trkpt lat="43.0985507" lon="11.597975"><ele>364.0</ele><time>2026-04-04T14:47:00.587Z</time></trkpt><trkpt lat="43.098516" lon="11.5981091"><ele>365.0</ele><time>2026-04-04T14:47:01.587Z</time></trkpt><trkpt lat="43.0984863" lon="11.5982329"><ele>366.0</ele><time>2026-04-04T14:47:02.594Z</time></trkpt><trkpt lat="43.098452" lon="11.5983367"><ele>367.0</ele><time>2026-04-04T14:47:03.589Z</time></trkpt><trkpt lat="43.0984099" lon="11.5984206"><ele>367.0</ele><time>2026-04-04T14:47:04.582Z</time></trkpt><trkpt lat="43.0983467" lon="11.598485"><ele>367.0</ele><time>2026-04-04T14:47:05.592Z</time></trkpt><trkpt lat="43.0982734" lon="11.5985341"><ele>367.0</ele><time>2026-04-04T14:47:06.596Z</time></trkpt><trkpt lat="43.0982008" lon="11.598556"><ele>367.0</ele><time>2026-04-04T14:47:07.594Z</time></trkpt><trkpt lat="43.0981276" lon="11.5985625"><ele>367.0</ele><time>2026-04-04T14:47:08.587Z</time></trkpt><trkpt lat="43.0980555" lon="11.5985401"><ele>367.0</ele><time>2026-04-04T14:47:09.592Z</time></trkpt><trkpt lat="43.097989" lon="11.5984876"><ele>367.40000000000003</ele><time>2026-04-04T14:47:10.578Z</time></trkpt><trkpt lat="43.0979274" lon="11.5984112"><ele>367.8</ele><time>2026-04-04T14:47:11.585Z</time></trkpt><trkpt lat="43.0978654" lon="11.5983039"><ele>368.2</ele><time>2026-04-04T14:47:12.592Z</time></trkpt><trkpt lat="43.0977974" lon="11.5981814"><ele>368.6</ele><time>2026-04-04T14:47:13.591Z</time></trkpt><trkpt lat="43.0977156" lon="11.5980527"><ele>369.0</ele><time>2026-04-04T14:47:14.586Z</time></trkpt><trkpt lat="43.0976221" lon="11.5979142"><ele>367.5</ele><time>2026-04-04T14:47:15.589Z</time></trkpt><trkpt lat="43.0975323" lon="11.5977767"><ele>366.0</ele><time>2026-04-04T14:47:16.588Z</time></trkpt><trkpt lat="43.0974492" lon="11.5976491"><ele>364.5</ele><time>2026-04-04T14:47:17.591Z</time></trkpt><trkpt lat="43.0973677" lon="11.5975315"><ele>363.0</ele><time>2026-04-04T14:47:18.579Z</time></trkpt><trkpt lat="43.0972831" lon="11.5974288"><ele>363.0</ele><time>2026-04-04T14:47:19.586Z</time></trkpt><trkpt lat="43.0971961" lon="11.5973517"><ele>363.0</ele><time>2026-04-04T14:47:20.605Z</time></trkpt><trkpt lat="43.0971087" lon="11.597302"><ele>363.0</ele><time>2026-04-04T14:47:21.584Z</time></trkpt><trkpt lat="43.0970294" lon="11.5972668"><ele>363.0</ele><time>2026-04-04T14:47:22.585Z</time></trkpt><trkpt lat="43.0969589" lon="11.597219"><ele>363.0</ele><time>2026-04-04T14:47:23.592Z</time></trkpt><trkpt lat="43.096902" lon="11.5971571"><ele>363.0</ele><time>2026-04-04T14:47:24.59Z</time></trkpt><trkpt lat="43.0968642" lon="11.5970794"><ele>361.79999999999995</ele><time>2026-04-04T14:47:25.591Z</time></trkpt><trkpt lat="43.096834" lon="11.5969807"><ele>360.6</ele><time>2026-04-04T14:47:26.582Z</time></trkpt><trkpt lat="43.0968094" lon="11.5968568"><ele>359.4</ele><time>2026-04-04T14:47:27.587Z</time></trkpt><trkpt lat="43.0967835" lon="11.5967141"><ele>358.20000000000005</ele><time>2026-04-04T14:47:28.592Z</time></trkpt><trkpt lat="43.0967494" lon="11.5965562"><ele>357.0</ele><time>2026-04-04T14:47:29.582Z</time></trkpt><trkpt lat="43.0967098" lon="11.5963839"><ele>357.0</ele><time>2026-04-04T14:47:30.59Z</time></trkpt><trkpt lat="43.0966663" lon="11.596205"><ele>357.0</ele><time>2026-04-04T14:47:31.591Z</time></trkpt><trkpt lat="43.0966255" lon="11.5960377"><ele>357.0</ele><time>2026-04-04T14:47:32.586Z</time></trkpt><trkpt lat="43.0965855" lon="11.5958838"><ele>357.0</ele><time>2026-04-04T14:47:33.598Z</time></trkpt><trkpt lat="43.0965442" lon="11.5957497"><ele>355.0</ele><time>2026-04-04T14:47:34.581Z</time></trkpt><trkpt lat="43.0965018" lon="11.5956261"><ele>353.0</ele><time>2026-04-04T14:47:35.593Z</time></trkpt><trkpt lat="43.0964575" lon="11.5955069"><ele>351.0</ele><time>2026-04-04T14:47:36.594Z</time></trkpt><trkpt lat="43.0964127" lon="11.5953848"><ele>349.0</ele><time>2026-04-04T14:47:37.588Z</time></trkpt><trkpt lat="43.0963672" lon="11.5952746"><ele>347.0</ele><time>2026-04-04T14:47:38.587Z</time></trkpt><trkpt lat="43.0963143" lon="11.595176"><ele>347.0</ele><time>2026-04-04T14:47:39.588Z</time></trkpt><trkpt lat="43.0962478" lon="11.5950864"><ele>347.0</ele><time>2026-04-04T14:47:40.593Z</time></trkpt><trkpt lat="43.0961623" lon="11.5950052"><ele>347.0</ele><time>2026-04-04T14:47:41.586Z</time></trkpt><trkpt lat="43.0960671" lon="11.5949314"><ele>347.0</ele><time>2026-04-04T14:47:42.6Z</time></trkpt><trkpt lat="43.0959821" lon="11.5948562"><ele>347.0</ele><time>2026-04-04T14:47:43.59Z</time></trkpt><trkpt lat="43.0959056" lon="11.5947727"><ele>347.0</ele><time>2026-04-04T14:47:44.6Z</time></trkpt><trkpt lat="43.0958413" lon="11.5946769"><ele>347.0</ele><time>2026-04-04T14:47:45.575Z</time></trkpt><trkpt lat="43.0957796" lon="11.5945616"><ele>347.0</ele><time>2026-04-04T14:47:46.592Z</time></trkpt><trkpt lat="43.0957187" lon="11.5944298"><ele>347.0</ele><time>2026-04-04T14:47:47.598Z</time></trkpt><trkpt lat="43.0956575" lon="11.5942836"><ele>347.0</ele><time>2026-04-04T14:47:48.589Z</time></trkpt><trkpt lat="43.0955889" lon="11.5941208"><ele>346.0</ele><time>2026-04-04T14:47:49.593Z</time></trkpt><trkpt lat="43.0955187" lon="11.5939511"><ele>345.0</ele><time>2026-04-04T14:47:50.584Z</time></trkpt><trkpt lat="43.0954464" lon="11.593773"><ele>344.0</ele><time>2026-04-04T14:47:51.594Z</time></trkpt><trkpt lat="43.0953829" lon="11.5936156"><ele>343.0</ele><time>2026-04-04T14:47:52.596Z</time></trkpt><trkpt lat="43.0953216" lon="11.593465"><ele>343.0</ele><time>2026-04-04T14:47:53.588Z</time></trkpt><trkpt lat="43.0952572" lon="11.5933097"><ele>343.0</ele><time>2026-04-04T14:47:54.59Z</time></trkpt><trkpt lat="43.0951891" lon="11.5931446"><ele>343.0</ele><time>2026-04-04T14:47:55.59Z</time></trkpt><trkpt lat="43.0951164" lon="11.5929739"><ele>343.0</ele><time>2026-04-04T14:47:56.585Z</time></trkpt><trkpt lat="43.0950476" lon="11.5928149"><ele>345.25</ele><time>2026-04-04T14:47:57.585Z</time></trkpt><trkpt lat="43.0949814" lon="11.5926605"><ele>347.5</ele><time>2026-04-04T14:47:58.595Z</time></trkpt><trkpt lat="43.094911" lon="11.5924963"><ele>349.75</ele><time>2026-04-04T14:47:59.588Z</time></trkpt><trkpt lat="43.09484" lon="11.5923209"><ele>352.0</ele><time>2026-04-04T14:48:00.587Z</time></trkpt><trkpt lat="43.0947724" lon="11.5921519"><ele>348.25</ele><time>2026-04-04T14:48:01.586Z</time></trkpt><trkpt lat="43.0947098" lon="11.5919962"><ele>344.5</ele><time>2026-04-04T14:48:02.596Z</time></trkpt><trkpt lat="43.0946528" lon="11.5918478"><ele>340.75</ele><time>2026-04-04T14:48:03.585Z</time></trkpt><trkpt lat="43.0945975" lon="11.5917031"><ele>337.0</ele><time>2026-04-04T14:48:04.587Z</time></trkpt><trkpt lat="43.0945449" lon="11.5915548"><ele>337.0</ele><time>2026-04-04T14:48:05.582Z</time></trkpt><trkpt lat="43.0944999" lon="11.5914071"><ele>337.0</ele><time>2026-04-04T14:48:06.579Z</time></trkpt><trkpt lat="43.0944531" lon="11.5912728"><ele>337.0</ele><time>2026-04-04T14:48:07.588Z</time></trkpt><trkpt lat="43.0943981" lon="11.5911535"><ele>337.0</ele><time>2026-04-04T14:48:08.582Z</time></trkpt><trkpt lat="43.0943327" lon="11.591045"><ele>337.0</ele><time>2026-04-04T14:48:09.599Z</time></trkpt><trkpt lat="43.0942567" lon="11.5909501"><ele>336.5</ele><time>2026-04-04T14:48:10.6Z</time></trkpt><trkpt lat="43.0941675" lon="11.59086"><ele>336.0</ele><time>2026-04-04T14:48:11.596Z</time></trkpt><trkpt lat="43.094069" lon="11.5907674"><ele>335.5</ele><time>2026-04-04T14:48:12.577Z</time></trkpt><trkpt lat="43.0939672" lon="11.5906705"><ele>335.0</ele><time>2026-04-04T14:48:13.584Z</time></trkpt><trkpt lat="43.0938743" lon="11.5905758"><ele>335.0</ele><time>2026-04-04T14:48:14.582Z</time></trkpt><trkpt lat="43.0937881" lon="11.5904867"><ele>335.0</ele><time>2026-04-04T14:48:15.582Z</time></trkpt><trkpt lat="43.093702" lon="11.5903952"><ele>335.0</ele><time>2026-04-04T14:48:16.585Z</time></trkpt><trkpt lat="43.0936163" lon="11.5902956"><ele>335.0</ele><time>2026-04-04T14:48:17.582Z</time></trkpt><trkpt lat="43.0935373" lon="11.5901831"><ele>335.0</ele><time>2026-04-04T14:48:18.588Z</time></trkpt><trkpt lat="43.0934624" lon="11.5900544"><ele>338.25</ele><time>2026-04-04T14:48:19.582Z</time></trkpt><trkpt lat="43.0933916" lon="11.5899132"><ele>341.5</ele><time>2026-04-04T14:48:20.59Z</time></trkpt><trkpt lat="43.0933224" lon="11.5897599"><ele>344.75</ele><time>2026-04-04T14:48:21.586Z</time></trkpt><trkpt lat="43.0932522" lon="11.5895988"><ele>348.0</ele><time>2026-04-04T14:48:22.587Z</time></trkpt><trkpt lat="43.0931771" lon="11.5894427"><ele>350.5</ele><time>2026-04-04T14:48:23.587Z</time></trkpt><trkpt lat="43.0930992" lon="11.5893075"><ele>353.0</ele><time>2026-04-04T14:48:24.588Z</time></trkpt><trkpt lat="43.0930135" lon="11.589181"><ele>355.5</ele><time>2026-04-04T14:48:25.607Z</time></trkpt><trkpt lat="43.0929245" lon="11.5890677"><ele>358.0</ele><time>2026-04-04T14:48:26.585Z</time></trkpt><trkpt lat="43.0928346" lon="11.5889574"><ele>358.0</ele><time>2026-04-04T14:48:27.578Z</time></trkpt><trkpt lat="43.0927419" lon="11.5888605"><ele>358.0</ele><time>2026-04-04T14:48:28.583Z</time></trkpt><trkpt lat="43.0926458" lon="11.588773"><ele>358.0</ele><time>2026-04-04T14:48:29.583Z</time></trkpt><trkpt lat="43.0925445" lon="11.5886952"><ele>358.0</ele><time>2026-04-04T14:48:30.592Z</time></trkpt><trkpt lat="43.0924381" lon="11.5886245"><ele>360.0</ele><time>2026-04-04T14:48:31.594Z</time></trkpt><trkpt lat="43.0923218" lon="11.5885507"><ele>362.0</ele><time>2026-04-04T14:48:32.59Z</time></trkpt><trkpt lat="43.0921973" lon="11.5884703"><ele>364.0</ele><time>2026-04-04T14:48:33.592Z</time></trkpt><trkpt lat="43.0920626" lon="11.5883856"><ele>366.0</ele><time>2026-04-04T14:48:34.597Z</time></trkpt><trkpt lat="43.0919208" lon="11.5882945"><ele>366.0</ele><time>2026-04-04T14:48:35.59Z</time></trkpt><trkpt lat="43.0917791" lon="11.5882011"><ele>366.0</ele><time>2026-04-04T14:48:36.592Z</time></trkpt><trkpt lat="43.091653" lon="11.5881163"><ele>366.0</ele><time>2026-04-04T14:48:37.587Z</time></trkpt><trkpt lat="43.0915342" lon="11.588039"><ele>366.0</ele><time>2026-04-04T14:48:38.588Z</time></trkpt><trkpt lat="43.0914188" lon="11.58797"><ele>366.4</ele><time>2026-04-04T14:48:39.587Z</time></trkpt><trkpt lat="43.0913094" lon="11.5879039"><ele>366.8</ele><time>2026-04-04T14:48:40.59Z</time></trkpt><trkpt lat="43.0912034" lon="11.587839"><ele>367.2</ele><time>2026-04-04T14:48:41.585Z</time></trkpt><trkpt lat="43.0911057" lon="11.5877731"><ele>367.59999999999997</ele><time>2026-04-04T14:48:42.588Z</time></trkpt><trkpt lat="43.0910224" lon="11.5877016"><ele>368.0</ele><time>2026-04-04T14:48:43.595Z</time></trkpt><trkpt lat="43.09094" lon="11.5876149"><ele>368.0</ele><time>2026-04-04T14:48:44.585Z</time></trkpt><trkpt lat="43.0908643" lon="11.5875107"><ele>368.0</ele><time>2026-04-04T14:48:45.585Z</time></trkpt><trkpt lat="43.0907926" lon="11.5873839"><ele>368.0</ele><time>2026-04-04T14:48:46.577Z</time></trkpt><trkpt lat="43.0907209" lon="11.5872374"><ele>368.0</ele><time>2026-04-04T14:48:47.593Z</time></trkpt><trkpt lat="43.0906418" lon="11.5870806"><ele>370.5</ele><time>2026-04-04T14:48:48.583Z</time></trkpt><trkpt lat="43.0905527" lon="11.5869135"><ele>373.0</ele><time>2026-04-04T14:48:49.592Z</time></trkpt><trkpt lat="43.0904709" lon="11.5867575"><ele>375.5</ele><time>2026-04-04T14:48:50.596Z</time></trkpt><trkpt lat="43.0903934" lon="11.5866091"><ele>378.0</ele><time>2026-04-04T14:48:51.589Z</time></trkpt><trkpt lat="43.0903237" lon="11.5864699"><ele>378.0</ele><time>2026-04-04T14:48:52.589Z</time></trkpt><trkpt lat="43.0902557" lon="11.5863426"><ele>378.0</ele><time>2026-04-04T14:48:53.596Z</time></trkpt><trkpt lat="43.0901902" lon="11.586229"><ele>378.0</ele><time>2026-04-04T14:48:54.575Z</time></trkpt><trkpt lat="43.0901161" lon="11.5861248"><ele>378.0</ele><time>2026-04-04T14:48:55.597Z</time></trkpt><trkpt lat="43.0900311" lon="11.5860311"><ele>378.0</ele><time>2026-04-04T14:48:56.581Z</time></trkpt><trkpt lat="43.08994" lon="11.5859398"><ele>376.0</ele><time>2026-04-04T14:48:57.592Z</time></trkpt><trkpt lat="43.0898407" lon="11.5858467"><ele>374.0</ele><time>2026-04-04T14:48:58.594Z</time></trkpt><trkpt lat="43.0897352" lon="11.5857511"><ele>372.0</ele><time>2026-04-04T14:48:59.587Z</time></trkpt><trkpt lat="43.0896234" lon="11.5856541"><ele>370.0</ele><time>2026-04-04T14:49:00.586Z</time></trkpt><trkpt lat="43.0895143" lon="11.5855621"><ele>370.0</ele><time>2026-04-04T14:49:01.58Z</time></trkpt><trkpt lat="43.0894146" lon="11.5854804"><ele>370.0</ele><time>2026-04-04T14:49:02.589Z</time></trkpt><trkpt lat="43.0893146" lon="11.5853957"><ele>370.0</ele><time>2026-04-04T14:49:03.586Z</time></trkpt><trkpt lat="43.0892072" lon="11.5853003"><ele>370.0</ele><time>2026-04-04T14:49:04.594Z</time></trkpt><trkpt lat="43.0890959" lon="11.5852042"><ele>367.5</ele><time>2026-04-04T14:49:05.587Z</time></trkpt><trkpt lat="43.08899" lon="11.5851147"><ele>365.0</ele><time>2026-04-04T14:49:06.595Z</time></trkpt><trkpt lat="43.088889" lon="11.5850265"><ele>362.5</ele><time>2026-04-04T14:49:07.591Z</time></trkpt><trkpt lat="43.0887932" lon="11.5849412"><ele>360.0</ele><time>2026-04-04T14:49:08.59Z</time></trkpt><trkpt lat="43.0887004" lon="11.5848651"><ele>360.0</ele><time>2026-04-04T14:49:09.595Z</time></trkpt><trkpt lat="43.088604" lon="11.5847974"><ele>360.0</ele><time>2026-04-04T14:49:10.595Z</time></trkpt><trkpt lat="43.0885025" lon="11.5847297"><ele>360.0</ele><time>2026-04-04T14:49:11.591Z</time></trkpt><trkpt lat="43.0883987" lon="11.5846669"><ele>360.0</ele><time>2026-04-04T14:49:12.583Z</time></trkpt><trkpt lat="43.0882936" lon="11.5845937"><ele>358.75</ele><time>2026-04-04T14:49:13.588Z</time></trkpt><trkpt lat="43.0881884" lon="11.5845202"><ele>357.5</ele><time>2026-04-04T14:49:14.581Z</time></trkpt><trkpt lat="43.0880823" lon="11.584442"><ele>356.25</ele><time>2026-04-04T14:49:15.592Z</time></trkpt><trkpt lat="43.0879768" lon="11.58436"><ele>355.0</ele><time>2026-04-04T14:49:16.587Z</time></trkpt><trkpt lat="43.0878723" lon="11.5842782"><ele>355.0</ele><time>2026-04-04T14:49:17.593Z</time></trkpt><trkpt lat="43.0877679" lon="11.5841937"><ele>355.0</ele><time>2026-04-04T14:49:18.588Z</time></trkpt><trkpt lat="43.0876637" lon="11.5841102"><ele>355.0</ele><time>2026-04-04T14:49:19.582Z</time></trkpt><trkpt lat="43.0875594" lon="11.5840269"><ele>355.0</ele><time>2026-04-04T14:49:20.589Z</time></trkpt><trkpt lat="43.0874582" lon="11.5839453"><ele>353.8</ele><time>2026-04-04T14:49:21.59Z</time></trkpt><trkpt lat="43.0873572" lon="11.583865"><ele>352.6</ele><time>2026-04-04T14:49:22.593Z</time></trkpt><trkpt lat="43.0872609" lon="11.5837858"><ele>351.4</ele><time>2026-04-04T14:49:23.599Z</time></trkpt><trkpt lat="43.0871701" lon="11.583714"><ele>350.2</ele><time>2026-04-04T14:49:24.589Z</time></trkpt><trkpt lat="43.0870821" lon="11.5836434"><ele>349.0</ele><time>2026-04-04T14:49:25.584Z</time></trkpt><trkpt lat="43.0869954" lon="11.5835744"><ele>350.6</ele><time>2026-04-04T14:49:26.591Z</time></trkpt><trkpt lat="43.0869053" lon="11.5835086"><ele>352.2</ele><time>2026-04-04T14:49:27.585Z</time></trkpt><trkpt lat="43.0868123" lon="11.5834428"><ele>353.8</ele><time>2026-04-04T14:49:28.588Z</time></trkpt><trkpt lat="43.0867208" lon="11.5833723"><ele>355.40000000000003</ele><time>2026-04-04T14:49:29.587Z</time></trkpt><trkpt lat="43.0866319" lon="11.583298"><ele>357.0</ele><time>2026-04-04T14:49:30.597Z</time></trkpt><trkpt lat="43.0865464" lon="11.5832151"><ele>357.0</ele><time>2026-04-04T14:49:31.591Z</time></trkpt><trkpt lat="43.0864609" lon="11.5831304"><ele>357.0</ele><time>2026-04-04T14:49:32.591Z</time></trkpt><trkpt lat="43.0863753" lon="11.5830465"><ele>357.0</ele><time>2026-04-04T14:49:33.592Z</time></trkpt><trkpt lat="43.0862855" lon="11.582959"><ele>357.0</ele><time>2026-04-04T14:49:34.583Z</time></trkpt><trkpt lat="43.086192" lon="11.5828707"><ele>357.0</ele><time>2026-04-04T14:49:35.595Z</time></trkpt><trkpt lat="43.0860989" lon="11.5827797"><ele>356.6666666666667</ele><time>2026-04-04T14:49:36.591Z</time></trkpt><trkpt lat="43.086019" lon="11.5827042"><ele>356.3333333333333</ele><time>2026-04-04T14:49:37.603Z</time></trkpt><trkpt lat="43.0859518" lon="11.5826445"><ele>356.0</ele><time>2026-04-04T14:49:38.604Z</time></trkpt><trkpt lat="43.0858965" lon="11.5825934"><ele>355.66666666666663</ele><time>2026-04-04T14:49:39.591Z</time></trkpt><trkpt lat="43.0858129" lon="11.582475"><ele>355.3333333333333</ele><time>2026-04-04T14:49:41.604Z</time></trkpt><trkpt lat="43.0857717" lon="11.582391"><ele>355.0</ele><time>2026-04-04T14:49:42.592Z</time></trkpt><trkpt lat="43.0857236" lon="11.5822982"><ele>355.0</ele><time>2026-04-04T14:49:43.592Z</time></trkpt><trkpt lat="43.0856687" lon="11.5822016"><ele>355.0</ele><time>2026-04-04T14:49:44.593Z</time></trkpt><trkpt lat="43.0856051" lon="11.5821064"><ele>355.0</ele><time>2026-04-04T14:49:45.591Z</time></trkpt><trkpt lat="43.0855393" lon="11.5820073"><ele>355.0</ele><time>2026-04-04T14:49:46.592Z</time></trkpt><trkpt lat="43.085473" lon="11.5819029"><ele>355.0</ele><time>2026-04-04T14:49:47.592Z</time></trkpt><trkpt lat="43.0854054" lon="11.5817988"><ele>358.2</ele><time>2026-04-04T14:49:48.595Z</time></trkpt><trkpt lat="43.0853471" lon="11.5816873"><ele>361.4</ele><time>2026-04-04T14:49:49.589Z</time></trkpt><trkpt lat="43.0852977" lon="11.5815684"><ele>364.6</ele><time>2026-04-04T14:49:50.586Z</time></trkpt><trkpt lat="43.085254" lon="11.5814419"><ele>367.8</ele><time>2026-04-04T14:49:51.586Z</time></trkpt><trkpt lat="43.0852142" lon="11.5813166"><ele>371.0</ele><time>2026-04-04T14:49:52.595Z</time></trkpt><trkpt lat="43.0851753" lon="11.5811902"><ele>371.8</ele><time>2026-04-04T14:49:53.593Z</time></trkpt><trkpt lat="43.0851388" lon="11.5810596"><ele>372.6</ele><time>2026-04-04T14:49:54.599Z</time></trkpt><trkpt lat="43.0851009" lon="11.5809271"><ele>373.4</ele><time>2026-04-04T14:49:55.59Z</time></trkpt><trkpt lat="43.0850616" lon="11.5807909"><ele>374.2</ele><time>2026-04-04T14:49:56.59Z</time></trkpt><trkpt lat="43.085026" lon="11.5806646"><ele>375.0</ele><time>2026-04-04T14:49:57.594Z</time></trkpt><trkpt lat="43.0849936" lon="11.5805513"><ele>375.0</ele><time>2026-04-04T14:49:58.588Z</time></trkpt><trkpt lat="43.0849638" lon="11.5804533"><ele>375.0</ele><time>2026-04-04T14:49:59.59Z</time></trkpt><trkpt lat="43.0849336" lon="11.580361"><ele>375.0</ele><time>2026-04-04T14:50:00.593Z</time></trkpt><trkpt lat="43.0849008" lon="11.5802712"><ele>375.0</ele><time>2026-04-04T14:50:01.592Z</time></trkpt><trkpt lat="43.0848612" lon="11.5801814"><ele>375.0</ele><time>2026-04-04T14:50:02.579Z</time></trkpt><trkpt lat="43.0848108" lon="11.5800814"><ele>375.0</ele><time>2026-04-04T14:50:03.59Z</time></trkpt><trkpt lat="43.0847529" lon="11.5799725"><ele>374.1666666666667</ele><time>2026-04-04T14:50:04.6Z</time></trkpt><trkpt lat="43.084697" lon="11.5798726"><ele>373.3333333333333</ele><time>2026-04-04T14:50:05.599Z</time></trkpt><trkpt lat="43.0846462" lon="11.5797791"><ele>372.5</ele><time>2026-04-04T14:50:06.583Z</time></trkpt><trkpt lat="43.0846009" lon="11.5796936"><ele>371.66666666666663</ele><time>2026-04-04T14:50:07.583Z</time></trkpt><trkpt lat="43.0845608" lon="11.5796175"><ele>370.8333333333333</ele><time>2026-04-04T14:50:08.591Z</time></trkpt><trkpt lat="43.0844919" lon="11.5795033"><ele>370.0</ele><time>2026-04-04T14:50:10.585Z</time></trkpt><trkpt lat="43.0844292" lon="11.5794429"><ele>368.66666666666663</ele><time>2026-04-04T14:50:12.589Z</time></trkpt><trkpt lat="43.0843637" lon="11.5794382"><ele>367.3333333333333</ele><time>2026-04-04T14:50:15.589Z</time></trkpt><trkpt lat="43.0842724" lon="11.579423"><ele>366.0</ele><time>2026-04-04T14:50:43.608Z</time></trkpt><trkpt lat="43.0841895" lon="11.5794097"><ele>364.6666666666667</ele><time>2026-04-04T14:50:45.588Z</time></trkpt><trkpt lat="43.0841205" lon="11.5794023"><ele>363.33333333333337</ele><time>2026-04-04T14:50:52.587Z</time></trkpt><trkpt lat="43.0840334" lon="11.5793615"><ele>362.0</ele><time>2026-04-04T14:50:55.584Z</time></trkpt><trkpt lat="43.0839695" lon="11.5793816"><ele>361.1666666666667</ele><time>2026-04-04T14:50:58.574Z</time></trkpt><trkpt lat="43.0839327" lon="11.5794923"><ele>360.33333333333337</ele><time>2026-04-04T14:51:01.586Z</time></trkpt><trkpt lat="43.0838708" lon="11.5795864"><ele>359.5</ele><time>2026-04-04T14:51:04.592Z</time></trkpt><trkpt lat="43.0837809" lon="11.5796537"><ele>358.6666666666667</ele><time>2026-04-04T14:51:06.581Z</time></trkpt><trkpt lat="43.0837187" lon="11.5796929"><ele>357.8333333333333</ele><time>2026-04-04T14:51:07.591Z</time></trkpt><trkpt lat="43.0836425" lon="11.5797386"><ele>357.0</ele><time>2026-04-04T14:51:08.597Z</time></trkpt><trkpt lat="43.0835586" lon="11.5797898"><ele>357.0</ele><time>2026-04-04T14:51:09.582Z</time></trkpt><trkpt lat="43.0834702" lon="11.5798438"><ele>357.0</ele><time>2026-04-04T14:51:10.581Z</time></trkpt><trkpt lat="43.0833737" lon="11.5798989"><ele>357.0</ele><time>2026-04-04T14:51:11.585Z</time></trkpt><trkpt lat="43.0832712" lon="11.5799567"><ele>357.0</ele><time>2026-04-04T14:51:12.584Z</time></trkpt><trkpt lat="43.083166" lon="11.5800089"><ele>357.0</ele><time>2026-04-04T14:51:13.582Z</time></trkpt><trkpt lat="43.0830543" lon="11.580056"><ele>355.0</ele><time>2026-04-04T14:51:14.584Z</time></trkpt><trkpt lat="43.0829494" lon="11.5800944"><ele>353.0</ele><time>2026-04-04T14:51:15.582Z</time></trkpt><trkpt lat="43.0828461" lon="11.5801287"><ele>351.0</ele><time>2026-04-04T14:51:16.582Z</time></trkpt><trkpt lat="43.0827399" lon="11.5801574"><ele>349.0</ele><time>2026-04-04T14:51:17.598Z</time></trkpt><trkpt lat="43.0826318" lon="11.5801868"><ele>347.0</ele><time>2026-04-04T14:51:18.588Z</time></trkpt><trkpt lat="43.0825247" lon="11.5802139"><ele>347.0</ele><time>2026-04-04T14:51:19.581Z</time></trkpt><trkpt lat="43.0824172" lon="11.5802408"><ele>347.0</ele><time>2026-04-04T14:51:20.589Z</time></trkpt><trkpt lat="43.0823151" lon="11.5802688"><ele>347.0</ele><time>2026-04-04T14:51:21.59Z</time></trkpt><trkpt lat="43.0822092" lon="11.5802983"><ele>347.0</ele><time>2026-04-04T14:51:22.59Z</time></trkpt><trkpt lat="43.0821047" lon="11.5803284"><ele>347.0</ele><time>2026-04-04T14:51:23.593Z</time></trkpt><trkpt lat="43.0820055" lon="11.5803549"><ele>347.0</ele><time>2026-04-04T14:51:24.586Z</time></trkpt><trkpt lat="43.0819149" lon="11.5803783"><ele>347.0</ele><time>2026-04-04T14:51:25.581Z</time></trkpt><trkpt lat="43.0818393" lon="11.5803989"><ele>347.0</ele><time>2026-04-04T14:51:26.588Z</time></trkpt><trkpt lat="43.0817778" lon="11.5804235"><ele>347.0</ele><time>2026-04-04T14:51:27.589Z</time></trkpt><trkpt lat="43.0816893" lon="11.5804852"><ele>347.0</ele><time>2026-04-04T14:51:29.588Z</time></trkpt><trkpt lat="43.0816183" lon="11.5805233"><ele>347.0</ele><time>2026-04-04T14:51:31.573Z</time></trkpt><trkpt lat="43.0815299" lon="11.5805287"><ele>346.20000000000005</ele><time>2026-04-04T14:51:33.59Z</time></trkpt><trkpt lat="43.0814101" lon="11.5805191"><ele>345.4</ele><time>2026-04-04T14:51:35.597Z</time></trkpt><trkpt lat="43.0813435" lon="11.5805146"><ele>344.6</ele><time>2026-04-04T14:51:36.59Z</time></trkpt><trkpt lat="43.0812745" lon="11.5805041"><ele>343.79999999999995</ele><time>2026-04-04T14:51:37.59Z</time></trkpt><trkpt lat="43.081149" lon="11.5804785"><ele>343.0</ele><time>2026-04-04T14:51:39.588Z</time></trkpt><trkpt lat="43.0810835" lon="11.5804565"><ele>343.0</ele><time>2026-04-04T14:51:40.589Z</time></trkpt><trkpt lat="43.0810152" lon="11.5804353"><ele>343.0</ele><time>2026-04-04T14:51:41.581Z</time></trkpt><trkpt lat="43.0809514" lon="11.5804129"><ele>343.0</ele><time>2026-04-04T14:51:42.575Z</time></trkpt><trkpt lat="43.0808851" lon="11.580391"><ele>343.0</ele><time>2026-04-04T14:51:43.589Z</time></trkpt><trkpt lat="43.0807729" lon="11.5803638"><ele>343.0</ele><time>2026-04-04T14:51:45.601Z</time></trkpt><trkpt lat="43.080672" lon="11.5803465"><ele>343.0</ele><time>2026-04-04T14:51:47.593Z</time></trkpt><trkpt lat="43.0805701" lon="11.580321"><ele>342.8333333333333</ele><time>2026-04-04T14:51:49.591Z</time></trkpt><trkpt lat="43.0804792" lon="11.5802913"><ele>342.66666666666663</ele><time>2026-04-04T14:51:51.588Z</time></trkpt><trkpt lat="43.0804094" lon="11.5803355"><ele>342.5</ele><time>2026-04-04T14:52:53.582Z</time></trkpt><trkpt lat="43.0803919" lon="11.5804503"><ele>342.3333333333333</ele><time>2026-04-04T14:52:56.589Z</time></trkpt><trkpt lat="43.080423" lon="11.5803276"><ele>342.1666666666667</ele><time>2026-04-04T14:53:09.596Z</time></trkpt><trkpt lat="43.0805173" lon="11.5803243"><ele>342.0</ele><time>2026-04-04T14:53:12.583Z</time></trkpt><trkpt lat="43.0806347" lon="11.580353"><ele>342.0</ele><time>2026-04-04T14:53:14.587Z</time></trkpt><trkpt lat="43.0807118" lon="11.5803667"><ele>342.0</ele><time>2026-04-04T14:53:15.584Z</time></trkpt><trkpt lat="43.0807922" lon="11.5803859"><ele>342.0</ele><time>2026-04-04T14:53:16.598Z</time></trkpt><trkpt lat="43.0808638" lon="11.5804055"><ele>342.0</ele><time>2026-04-04T14:53:17.59Z</time></trkpt><trkpt lat="43.0809714" lon="11.5804397"><ele>342.0</ele><time>2026-04-04T14:53:19.589Z</time></trkpt><trkpt lat="43.0810602" lon="11.580468"><ele>342.0</ele><time>2026-04-04T14:53:21.592Z</time></trkpt><trkpt lat="43.0811206" lon="11.5805143"><ele>342.0</ele><time>2026-04-04T14:53:25.579Z</time></trkpt><trkpt lat="43.0810749" lon="11.5805817"><ele>342.0</ele><time>2026-04-04T14:53:35.592Z</time></trkpt><trkpt lat="43.0810079" lon="11.5805419"><ele>342.0</ele><time>2026-04-04T14:53:38.588Z</time></trkpt><trkpt lat="43.0809396" lon="11.5804971"><ele>342.0</ele><time>2026-04-04T14:53:40.585Z</time></trkpt><trkpt lat="43.0808514" lon="11.5804715"><ele>342.0</ele><time>2026-04-04T14:53:42.583Z</time></trkpt><trkpt lat="43.0807492" lon="11.5804805"><ele>342.0</ele><time>2026-04-04T14:53:44.577Z</time></trkpt><trkpt lat="43.0806892" lon="11.5805318"><ele>342.0</ele><time>2026-04-04T14:53:47.59Z</time></trkpt><trkpt lat="43.080644" lon="11.580622"><ele>342.0</ele><time>2026-04-04T14:53:50.582Z</time></trkpt><trkpt lat="43.0806206" lon="11.580714"><ele>342.0</ele><time>2026-04-04T14:53:52.589Z</time></trkpt><trkpt lat="43.0806014" lon="11.5808143"><ele>342.0</ele><time>2026-04-04T14:53:54.587Z</time></trkpt><trkpt lat="43.0805862" lon="11.5809153"><ele>342.0</ele><time>2026-04-04T14:53:56.593Z</time></trkpt><trkpt lat="43.0805724" lon="11.5810112"><ele>342.0</ele><time>2026-04-04T14:53:58.582Z</time></trkpt><trkpt lat="43.0805562" lon="11.5811193"><ele>340.1666666666667</ele><time>2026-04-04T14:54:00.595Z</time></trkpt><trkpt lat="43.0805378" lon="11.5812278"><ele>338.3333333333333</ele><time>2026-04-04T14:54:02.591Z</time></trkpt><trkpt lat="43.0805135" lon="11.5813444"><ele>336.5</ele><time>2026-04-04T14:54:04.578Z</time></trkpt><trkpt lat="43.0804887" lon="11.5814559"><ele>334.66666666666663</ele><time>2026-04-04T14:54:06.586Z</time></trkpt><trkpt lat="43.0804567" lon="11.581563"><ele>332.8333333333333</ele><time>2026-04-04T14:54:08.603Z</time></trkpt><trkpt lat="43.0804155" lon="11.5816716"><ele>331.0</ele><time>2026-04-04T14:54:10.595Z</time></trkpt><trkpt lat="43.0803535" lon="11.5817926"><ele>331.0</ele><time>2026-04-04T14:54:12.584Z</time></trkpt><trkpt lat="43.0802801" lon="11.5819139"><ele>331.0</ele><time>2026-04-04T14:54:14.582Z</time></trkpt><trkpt lat="43.0802078" lon="11.5820252"><ele>331.0</ele><time>2026-04-04T14:54:16.59Z</time></trkpt><trkpt lat="43.0801458" lon="11.5821205"><ele>331.0</ele><time>2026-04-04T14:54:18.587Z</time></trkpt><trkpt lat="43.0800913" lon="11.5822019"><ele>331.0</ele><time>2026-04-04T14:54:20.588Z</time></trkpt><trkpt lat="43.0800266" lon="11.5823053"><ele>328.2</ele><time>2026-04-04T14:54:22.592Z</time></trkpt><trkpt lat="43.0799545" lon="11.5824264"><ele>325.40000000000003</ele><time>2026-04-04T14:54:24.599Z</time></trkpt><trkpt lat="43.079892" lon="11.5825379"><ele>322.6</ele><time>2026-04-04T14:54:26.596Z</time></trkpt><trkpt lat="43.0798457" lon="11.5826335"><ele>319.8</ele><time>2026-04-04T14:54:28.584Z</time></trkpt><trkpt lat="43.0798099" lon="11.5827261"><ele>317.0</ele><time>2026-04-04T14:54:30.581Z</time></trkpt><trkpt lat="43.0797827" lon="11.5828186"><ele>313.2</ele><time>2026-04-04T14:54:32.59Z</time></trkpt><trkpt lat="43.0797595" lon="11.5829205"><ele>309.4</ele><time>2026-04-04T14:54:34.59Z</time></trkpt><trkpt lat="43.0797323" lon="11.5830344"><ele>305.6</ele><time>2026-04-04T14:54:36.6Z</time></trkpt><trkpt lat="43.0796878" lon="11.5831506"><ele>301.8</ele><time>2026-04-04T14:54:38.584Z</time></trkpt><trkpt lat="43.0796273" lon="11.5832572"><ele>298.0</ele><time>2026-04-04T14:54:40.583Z</time></trkpt><trkpt lat="43.0795556" lon="11.5833472"><ele>298.0</ele><time>2026-04-04T14:54:42.598Z</time></trkpt><trkpt lat="43.0794813" lon="11.5834118"><ele>298.0</ele><time>2026-04-04T14:54:44.597Z</time></trkpt><trkpt lat="43.0793931" lon="11.5834707"><ele>298.0</ele><time>2026-04-04T14:54:46.585Z</time></trkpt><trkpt lat="43.0792984" lon="11.5835032"><ele>298.0</ele><time>2026-04-04T14:54:48.595Z</time></trkpt><trkpt lat="43.0791886" lon="11.583531"><ele>298.0</ele><time>2026-04-04T14:54:50.587Z</time></trkpt><trkpt lat="43.0790839" lon="11.5835574"><ele>297.3333333333333</ele><time>2026-04-04T14:54:52.589Z</time></trkpt><trkpt lat="43.0790078" lon="11.5835863"><ele>296.66666666666663</ele><time>2026-04-04T14:54:54.587Z</time></trkpt><trkpt lat="43.0789334" lon="11.5836063"><ele>296.0</ele><time>2026-04-04T14:54:56.605Z</time></trkpt><trkpt lat="43.0788535" lon="11.583639"><ele>295.3333333333333</ele><time>2026-04-04T14:54:58.596Z</time></trkpt><trkpt lat="43.0787742" lon="11.5836944"><ele>294.6666666666667</ele><time>2026-04-04T14:55:00.599Z</time></trkpt><trkpt lat="43.0786998" lon="11.5837587"><ele>294.0</ele><time>2026-04-04T14:55:02.594Z</time></trkpt><trkpt lat="43.0786303" lon="11.5838203"><ele>291.0</ele><time>2026-04-04T14:55:04.591Z</time></trkpt><trkpt lat="43.0785498" lon="11.5838996"><ele>288.0</ele><time>2026-04-04T14:55:06.59Z</time></trkpt><trkpt lat="43.0784962" lon="11.5839532"><ele>285.0</ele><time>2026-04-04T14:55:07.593Z</time></trkpt><trkpt lat="43.0784067" lon="11.5840512"><ele>282.0</ele><time>2026-04-04T14:55:09.576Z</time></trkpt><trkpt lat="43.0783227" lon="11.5841378"><ele>279.0</ele><time>2026-04-04T14:55:11.597Z</time></trkpt><trkpt lat="43.0782502" lon="11.5842176"><ele>278.1666666666667</ele><time>2026-04-04T14:55:13.584Z</time></trkpt><trkpt lat="43.0781733" lon="11.5842926"><ele>277.3333333333333</ele><time>2026-04-04T14:55:15.588Z</time></trkpt><trkpt lat="43.0781107" lon="11.5843583"><ele>276.5</ele><time>2026-04-04T14:55:17.603Z</time></trkpt><trkpt lat="43.0780579" lon="11.5844092"><ele>275.66666666666663</ele><time>2026-04-04T14:55:19.591Z</time></trkpt><trkpt lat="43.0779982" lon="11.5844712"><ele>274.8333333333333</ele><time>2026-04-04T14:55:21.587Z</time></trkpt><trkpt lat="43.0779094" lon="11.5845601"><ele>274.0</ele><time>2026-04-04T14:55:23.582Z</time></trkpt><trkpt lat="43.0778132" lon="11.584653"><ele>272.4</ele><time>2026-04-04T14:55:25.593Z</time></trkpt><trkpt lat="43.0777551" lon="11.5847029"><ele>270.79999999999995</ele><time>2026-04-04T14:55:26.587Z</time></trkpt><trkpt lat="43.0776975" lon="11.5847604"><ele>269.20000000000005</ele><time>2026-04-04T14:55:27.582Z</time></trkpt><trkpt lat="43.0775924" lon="11.5848635"><ele>267.6</ele><time>2026-04-04T14:55:29.593Z</time></trkpt><trkpt lat="43.077541" lon="11.584916"><ele>266.0</ele><time>2026-04-04T14:55:30.595Z</time></trkpt><trkpt lat="43.0774417" lon="11.5850186"><ele>265.33333333333337</ele><time>2026-04-04T14:55:32.583Z</time></trkpt><trkpt lat="43.0773795" lon="11.5850847"><ele>264.6666666666667</ele><time>2026-04-04T14:55:33.581Z</time></trkpt><trkpt lat="43.0773163" lon="11.5851584"><ele>264.0</ele><time>2026-04-04T14:55:34.584Z</time></trkpt><trkpt lat="43.0772539" lon="11.585232"><ele>263.3333333333333</ele><time>2026-04-04T14:55:35.588Z</time></trkpt><trkpt lat="43.0771862" lon="11.5853176"><ele>262.66666666666663</ele><time>2026-04-04T14:55:36.597Z</time></trkpt><trkpt lat="43.0771306" lon="11.5853903"><ele>262.0</ele><time>2026-04-04T14:55:37.591Z</time></trkpt><trkpt lat="43.0770822" lon="11.5854504"><ele>261.8333333333333</ele><time>2026-04-04T14:55:38.589Z</time></trkpt><trkpt lat="43.0770361" lon="11.5855119"><ele>261.66666666666663</ele><time>2026-04-04T14:55:39.596Z</time></trkpt><trkpt lat="43.0769907" lon="11.5855794"><ele>261.5</ele><time>2026-04-04T14:55:40.591Z</time></trkpt><trkpt lat="43.0769436" lon="11.5856543"><ele>261.3333333333333</ele><time>2026-04-04T14:55:41.59Z</time></trkpt><trkpt lat="43.0768947" lon="11.5857328"><ele>261.1666666666667</ele><time>2026-04-04T14:55:42.585Z</time></trkpt><trkpt lat="43.0768347" lon="11.5858186"><ele>261.0</ele><time>2026-04-04T14:55:43.584Z</time></trkpt><trkpt lat="43.0767704" lon="11.5859099"><ele>261.0</ele><time>2026-04-04T14:55:44.58Z</time></trkpt><trkpt lat="43.0767073" lon="11.5859983"><ele>261.0</ele><time>2026-04-04T14:55:45.59Z</time></trkpt><trkpt lat="43.0766433" lon="11.5860877"><ele>261.0</ele><time>2026-04-04T14:55:46.591Z</time></trkpt><trkpt lat="43.0765884" lon="11.5861664"><ele>261.0</ele><time>2026-04-04T14:55:47.585Z</time></trkpt><trkpt lat="43.0765338" lon="11.5862475"><ele>261.0</ele><time>2026-04-04T14:55:48.583Z</time></trkpt><trkpt lat="43.0764791" lon="11.5863217"><ele>261.0</ele><time>2026-04-04T14:55:49.597Z</time></trkpt><trkpt lat="43.0764317" lon="11.5863837"><ele>260.3333333333333</ele><time>2026-04-04T14:55:50.599Z</time></trkpt><trkpt lat="43.0763819" lon="11.5864524"><ele>259.6666666666667</ele><time>2026-04-04T14:55:51.58Z</time></trkpt><trkpt lat="43.0763313" lon="11.5865237"><ele>259.0</ele><time>2026-04-04T14:55:52.591Z</time></trkpt><trkpt lat="43.0762878" lon="11.5865898"><ele>258.33333333333337</ele><time>2026-04-04T14:55:53.588Z</time></trkpt><trkpt lat="43.0762102" lon="11.5866976"><ele>257.6666666666667</ele><time>2026-04-04T14:55:55.598Z</time></trkpt><trkpt lat="43.0761413" lon="11.5867822"><ele>257.0</ele><time>2026-04-04T14:55:57.594Z</time></trkpt><trkpt lat="43.0760913" lon="11.586856"><ele>257.0</ele><time>2026-04-04T14:55:59.592Z</time></trkpt><trkpt lat="43.0760414" lon="11.5869171"><ele>257.0</ele><time>2026-04-04T14:56:01.58Z</time></trkpt><trkpt lat="43.0759941" lon="11.5869942"><ele>257.0</ele><time>2026-04-04T14:56:04.589Z</time></trkpt><trkpt lat="43.0759318" lon="11.5869755"><ele>257.0</ele><time>2026-04-04T14:56:33.577Z</time></trkpt><trkpt lat="43.0758717" lon="11.5870149"><ele>257.0</ele><time>2026-04-04T14:56:35.594Z</time></trkpt><trkpt lat="43.0757704" lon="11.5870367"><ele>257.0</ele><time>2026-04-04T14:56:37.595Z</time></trkpt><trkpt lat="43.0757068" lon="11.5870564"><ele>257.0</ele><time>2026-04-04T14:56:38.588Z</time></trkpt><trkpt lat="43.0756422" lon="11.587082"><ele>256.6</ele><time>2026-04-04T14:56:39.58Z</time></trkpt><trkpt lat="43.0755323" lon="11.587121"><ele>256.2</ele><time>2026-04-04T14:56:41.583Z</time></trkpt><trkpt lat="43.0754382" lon="11.5871651"><ele>255.8</ele><time>2026-04-04T14:56:43.583Z</time></trkpt><trkpt lat="43.0753453" lon="11.5872059"><ele>255.4</ele><time>2026-04-04T14:56:45.581Z</time></trkpt><trkpt lat="43.0752329" lon="11.5872562"><ele>255.0</ele><time>2026-04-04T14:56:47.595Z</time></trkpt><trkpt lat="43.0751714" lon="11.5872829"><ele>255.0</ele><time>2026-04-04T14:56:48.596Z</time></trkpt><trkpt lat="43.0750749" lon="11.5873275"><ele>255.0</ele><time>2026-04-04T14:56:50.591Z</time></trkpt><trkpt lat="43.0749929" lon="11.5873292"><ele>255.0</ele><time>2026-04-04T14:56:52.58Z</time></trkpt><trkpt lat="43.0749008" lon="11.5872801"><ele>255.0</ele><time>2026-04-04T14:56:54.597Z</time></trkpt><trkpt lat="43.0748437" lon="11.5872436"><ele>255.0</ele><time>2026-04-04T14:56:55.588Z</time></trkpt><trkpt lat="43.0747426" lon="11.5871717"><ele>255.0</ele><time>2026-04-04T14:56:57.599Z</time></trkpt><trkpt lat="43.0746749" lon="11.5870641"><ele>255.0</ele><time>2026-04-04T14:56:59.598Z</time></trkpt><trkpt lat="43.0746533" lon="11.5868981"><ele>255.0</ele><time>2026-04-04T14:57:01.579Z</time></trkpt><trkpt lat="43.0746451" lon="11.5867894"><ele>255.0</ele><time>2026-04-04T14:57:02.584Z</time></trkpt><trkpt lat="43.0746458" lon="11.5866808"><ele>255.0</ele><time>2026-04-04T14:57:03.587Z</time></trkpt><trkpt lat="43.0746485" lon="11.5865779"><ele>255.33333333333334</ele><time>2026-04-04T14:57:04.588Z</time></trkpt><trkpt lat="43.0746513" lon="11.58648"><ele>255.66666666666669</ele><time>2026-04-04T14:57:05.585Z</time></trkpt><trkpt lat="43.0746646" lon="11.5863779"><ele>256.0</ele><time>2026-04-04T14:57:06.589Z</time></trkpt><trkpt lat="43.0746886" lon="11.5862778"><ele>256.33333333333337</ele><time>2026-04-04T14:57:07.594Z</time></trkpt><trkpt lat="43.0747098" lon="11.5861709"><ele>256.6666666666667</ele><time>2026-04-04T14:57:08.592Z</time></trkpt><trkpt lat="43.0747203" lon="11.5860512"><ele>257.0</ele><time>2026-04-04T14:57:09.593Z</time></trkpt><trkpt lat="43.0747273" lon="11.5859304"><ele>257.0</ele><time>2026-04-04T14:57:10.591Z</time></trkpt><trkpt lat="43.0747303" lon="11.5858233"><ele>257.0</ele><time>2026-04-04T14:57:11.594Z</time></trkpt><trkpt lat="43.0747297" lon="11.5857168"><ele>257.0</ele><time>2026-04-04T14:57:12.6Z</time></trkpt><trkpt lat="43.0747317" lon="11.5856093"><ele>257.0</ele><time>2026-04-04T14:57:13.59Z</time></trkpt><trkpt lat="43.0747428" lon="11.5854957"><ele>257.0</ele><time>2026-04-04T14:57:14.586Z</time></trkpt><trkpt lat="43.074754" lon="11.5853716"><ele>257.0</ele><time>2026-04-04T14:57:15.595Z</time></trkpt><trkpt lat="43.0747724" lon="11.5852425"><ele>257.0</ele><time>2026-04-04T14:57:16.585Z</time></trkpt><trkpt lat="43.074795" lon="11.5851169"><ele>257.0</ele><time>2026-04-04T14:57:17.592Z</time></trkpt><trkpt lat="43.0748118" lon="11.5850134"><ele>257.0</ele><time>2026-04-04T14:57:18.601Z</time></trkpt><trkpt lat="43.0748229" lon="11.5849273"><ele>257.0</ele><time>2026-04-04T14:57:19.594Z</time></trkpt><trkpt lat="43.0748071" lon="11.5848049"><ele>257.0</ele><time>2026-04-04T14:57:21.586Z</time></trkpt><trkpt lat="43.0747568" lon="11.5846874"><ele>257.0</ele><time>2026-04-04T14:57:23.593Z</time></trkpt><trkpt lat="43.0747071" lon="11.5845309"><ele>256.6666666666667</ele><time>2026-04-04T14:57:25.583Z</time></trkpt><trkpt lat="43.0746977" lon="11.5844387"><ele>256.33333333333337</ele><time>2026-04-04T14:57:26.592Z</time></trkpt><trkpt lat="43.0746947" lon="11.5843274"><ele>256.0</ele><time>2026-04-04T14:57:27.596Z</time></trkpt><trkpt lat="43.0747023" lon="11.5842209"><ele>255.66666666666669</ele><time>2026-04-04T14:57:28.595Z</time></trkpt><trkpt lat="43.0747273" lon="11.5841162"><ele>255.33333333333334</ele><time>2026-04-04T14:57:29.591Z</time></trkpt><trkpt lat="43.074762" lon="11.5840107"><ele>255.0</ele><time>2026-04-04T14:57:30.593Z</time></trkpt><trkpt lat="43.0748005" lon="11.5838998"><ele>255.0</ele><time>2026-04-04T14:57:31.596Z</time></trkpt><trkpt lat="43.0748354" lon="11.5837868"><ele>255.0</ele><time>2026-04-04T14:57:32.605Z</time></trkpt><trkpt lat="43.074874" lon="11.5836533"><ele>255.0</ele><time>2026-04-04T14:57:33.59Z</time></trkpt><trkpt lat="43.0749185" lon="11.5835188"><ele>255.0</ele><time>2026-04-04T14:57:34.589Z</time></trkpt><trkpt lat="43.0749668" lon="11.5833802"><ele>255.0</ele><time>2026-04-04T14:57:35.587Z</time></trkpt><trkpt lat="43.0750067" lon="11.583256"><ele>255.0</ele><time>2026-04-04T14:57:36.589Z</time></trkpt><trkpt lat="43.0750381" lon="11.583147"><ele>255.0</ele><time>2026-04-04T14:57:37.598Z</time></trkpt><trkpt lat="43.0750532" lon="11.5830441"><ele>255.0</ele><time>2026-04-04T14:57:38.592Z</time></trkpt><trkpt lat="43.0750631" lon="11.5829334"><ele>255.0</ele><time>2026-04-04T14:57:39.59Z</time></trkpt><trkpt lat="43.0750595" lon="11.5828255"><ele>255.0</ele><time>2026-04-04T14:57:40.588Z</time></trkpt><trkpt lat="43.0750428" lon="11.5827306"><ele>255.0</ele><time>2026-04-04T14:57:41.593Z</time></trkpt><trkpt lat="43.0750141" lon="11.582626"><ele>254.33333333333334</ele><time>2026-04-04T14:57:42.603Z</time></trkpt><trkpt lat="43.0749706" lon="11.5825273"><ele>253.66666666666669</ele><time>2026-04-04T14:57:43.589Z</time></trkpt><trkpt lat="43.0749139" lon="11.5824399"><ele>253.0</ele><time>2026-04-04T14:57:44.59Z</time></trkpt><trkpt lat="43.0748431" lon="11.5823578"><ele>252.33333333333334</ele><time>2026-04-04T14:57:45.589Z</time></trkpt><trkpt lat="43.0747721" lon="11.5822829"><ele>251.66666666666669</ele><time>2026-04-04T14:57:46.592Z</time></trkpt><trkpt lat="43.074713" lon="11.5822098"><ele>251.0</ele><time>2026-04-04T14:57:47.587Z</time></trkpt><trkpt lat="43.0746608" lon="11.5821196"><ele>251.0</ele><time>2026-04-04T14:57:48.586Z</time></trkpt><trkpt lat="43.0746119" lon="11.5820176"><ele>251.00000000000003</ele><time>2026-04-04T14:57:49.584Z</time></trkpt><trkpt lat="43.0745727" lon="11.5819081"><ele>251.00000000000003</ele><time>2026-04-04T14:57:50.589Z</time></trkpt><trkpt lat="43.0745402" lon="11.5817812"><ele>251.0</ele><time>2026-04-04T14:57:51.583Z</time></trkpt><trkpt lat="43.0745055" lon="11.5816352"><ele>251.0</ele><time>2026-04-04T14:57:52.583Z</time></trkpt><trkpt lat="43.0744744" lon="11.5814759"><ele>251.33333333333334</ele><time>2026-04-04T14:57:53.593Z</time></trkpt><trkpt lat="43.0744493" lon="11.581334"><ele>251.66666666666669</ele><time>2026-04-04T14:57:54.592Z</time></trkpt><trkpt lat="43.0744287" lon="11.5812122"><ele>252.0</ele><time>2026-04-04T14:57:55.593Z</time></trkpt><trkpt lat="43.0744089" lon="11.5811112"><ele>252.33333333333331</ele><time>2026-04-04T14:57:56.595Z</time></trkpt><trkpt lat="43.074394" lon="11.5810188"><ele>252.66666666666666</ele><time>2026-04-04T14:57:57.582Z</time></trkpt><trkpt lat="43.0743865" lon="11.5809172"><ele>253.0</ele><time>2026-04-04T14:57:58.583Z</time></trkpt><trkpt lat="43.0743931" lon="11.5808084"><ele>253.0</ele><time>2026-04-04T14:57:59.577Z</time></trkpt><trkpt lat="43.0744068" lon="11.580683"><ele>253.0</ele><time>2026-04-04T14:58:00.588Z</time></trkpt><trkpt lat="43.0744282" lon="11.5805415"><ele>253.0</ele><time>2026-04-04T14:58:01.597Z</time></trkpt><trkpt lat="43.07445" lon="11.5803984"><ele>253.0</ele><time>2026-04-04T14:58:02.58Z</time></trkpt><trkpt lat="43.0744692" lon="11.5802731"><ele>253.0</ele><time>2026-04-04T14:58:03.589Z</time></trkpt><trkpt lat="43.074485" lon="11.5801588"><ele>252.8</ele><time>2026-04-04T14:58:04.592Z</time></trkpt><trkpt lat="43.0745005" lon="11.5800419"><ele>252.60000000000002</ele><time>2026-04-04T14:58:05.588Z</time></trkpt><trkpt lat="43.0745171" lon="11.5799273"><ele>252.39999999999998</ele><time>2026-04-04T14:58:06.586Z</time></trkpt><trkpt lat="43.0745308" lon="11.579811"><ele>252.2</ele><time>2026-04-04T14:58:07.588Z</time></trkpt><trkpt lat="43.0745484" lon="11.5796848"><ele>252.0</ele><time>2026-04-04T14:58:08.597Z</time></trkpt><trkpt lat="43.0745679" lon="11.579551"><ele>252.0</ele><time>2026-04-04T14:58:09.587Z</time></trkpt><trkpt lat="43.0745847" lon="11.5794303"><ele>252.0</ele><time>2026-04-04T14:58:10.583Z</time></trkpt><trkpt lat="43.0745955" lon="11.5793172"><ele>252.0</ele><time>2026-04-04T14:58:11.582Z</time></trkpt><trkpt lat="43.0745984" lon="11.5792121"><ele>252.0</ele><time>2026-04-04T14:58:12.583Z</time></trkpt><trkpt lat="43.0745963" lon="11.5791175"><ele>252.0</ele><time>2026-04-04T14:58:13.589Z</time></trkpt><trkpt lat="43.0745886" lon="11.5790236"><ele>252.0</ele><time>2026-04-04T14:58:14.594Z</time></trkpt><trkpt lat="43.0745781" lon="11.5789338"><ele>252.0</ele><time>2026-04-04T14:58:15.591Z</time></trkpt><trkpt lat="43.0745661" lon="11.5788445"><ele>252.0</ele><time>2026-04-04T14:58:16.593Z</time></trkpt><trkpt lat="43.0745524" lon="11.5787546"><ele>252.0</ele><time>2026-04-04T14:58:17.595Z</time></trkpt><trkpt lat="43.0745353" lon="11.5786677"><ele>252.0</ele><time>2026-04-04T14:58:18.588Z</time></trkpt><trkpt lat="43.0744908" lon="11.5785288"><ele>252.0</ele><time>2026-04-04T14:58:20.595Z</time></trkpt><trkpt lat="43.0744476" lon="11.5784274"><ele>252.0</ele><time>2026-04-04T14:58:22.602Z</time></trkpt><trkpt lat="43.074409" lon="11.5783316"><ele>252.16666666666666</ele><time>2026-04-04T14:58:25.584Z</time></trkpt><trkpt lat="43.0743658" lon="11.5782587"><ele>252.33333333333331</ele><time>2026-04-04T14:59:52.592Z</time></trkpt><trkpt lat="43.074307" lon="11.5782196"><ele>252.5</ele><time>2026-04-04T14:59:55.587Z</time></trkpt><trkpt lat="43.074226" lon="11.5781669"><ele>252.66666666666666</ele><time>2026-04-04T14:59:57.588Z</time></trkpt><trkpt lat="43.0741127" lon="11.578139"><ele>252.83333333333331</ele><time>2026-04-04T14:59:59.591Z</time></trkpt><trkpt lat="43.0740464" lon="11.5781437"><ele>253.0</ele><time>2026-04-04T15:00:00.585Z</time></trkpt><trkpt lat="43.073982" lon="11.5781626"><ele>252.60000000000002</ele><time>2026-04-04T15:00:01.597Z</time></trkpt><trkpt lat="43.073918" lon="11.5781896"><ele>252.20000000000002</ele><time>2026-04-04T15:00:02.591Z</time></trkpt><trkpt lat="43.0738047" lon="11.5782293"><ele>251.8</ele><time>2026-04-04T15:00:04.588Z</time></trkpt><trkpt lat="43.0736997" lon="11.5782279"><ele>251.4</ele><time>2026-04-04T15:00:06.587Z</time></trkpt><trkpt lat="43.0736075" lon="11.5781905"><ele>251.0</ele><time>2026-04-04T15:00:08.597Z</time></trkpt><trkpt lat="43.0735381" lon="11.5781653"><ele>251.0</ele><time>2026-04-04T15:00:10.59Z</time></trkpt><trkpt lat="43.0734666" lon="11.5782169"><ele>251.00000000000003</ele><time>2026-04-04T15:00:41.596Z</time></trkpt><trkpt lat="43.073412" lon="11.5782801"><ele>251.00000000000003</ele><time>2026-04-04T15:00:42.59Z</time></trkpt><trkpt lat="43.0733537" lon="11.5783719"><ele>251.0</ele><time>2026-04-04T15:00:43.586Z</time></trkpt><trkpt lat="43.0732808" lon="11.5784848"><ele>251.0</ele><time>2026-04-04T15:00:44.587Z</time></trkpt><trkpt lat="43.0731962" lon="11.5786231"><ele>251.66666666666669</ele><time>2026-04-04T15:00:45.589Z</time></trkpt><trkpt lat="43.0731032" lon="11.5787833"><ele>252.33333333333331</ele><time>2026-04-04T15:00:46.593Z</time></trkpt><trkpt lat="43.0729998" lon="11.5789597"><ele>253.0</ele><time>2026-04-04T15:00:47.588Z</time></trkpt><trkpt lat="43.0728898" lon="11.5791544"><ele>253.0</ele><time>2026-04-04T15:00:48.595Z</time></trkpt><trkpt lat="43.0727794" lon="11.5793464"><ele>253.0</ele><time>2026-04-04T15:00:49.589Z</time></trkpt><trkpt lat="43.072686" lon="11.5795151"><ele>253.0</ele><time>2026-04-04T15:00:50.591Z</time></trkpt><trkpt lat="43.0726071" lon="11.5796582"><ele>253.2</ele><time>2026-04-04T15:00:51.592Z</time></trkpt><trkpt lat="43.0725254" lon="11.5797748"><ele>253.4</ele><time>2026-04-04T15:00:52.586Z</time></trkpt><trkpt lat="43.0724374" lon="11.5798713"><ele>253.59999999999997</ele><time>2026-04-04T15:00:53.583Z</time></trkpt><trkpt lat="43.0723506" lon="11.5799613"><ele>253.79999999999998</ele><time>2026-04-04T15:00:54.598Z</time></trkpt><trkpt lat="43.0722762" lon="11.5800423"><ele>254.0</ele><time>2026-04-04T15:00:55.593Z</time></trkpt><trkpt lat="43.0722165" lon="11.5801093"><ele>254.0</ele><time>2026-04-04T15:00:56.59Z</time></trkpt><trkpt lat="43.0721451" lon="11.5801846"><ele>253.99999999999997</ele><time>2026-04-04T15:00:58.589Z</time></trkpt><trkpt lat="43.0722205" lon="11.5801877"><ele>253.99999999999997</ele><time>2026-04-04T15:01:05.591Z</time></trkpt><trkpt lat="43.0723053" lon="11.5800706"><ele>254.0</ele><time>2026-04-04T15:01:07.585Z</time></trkpt><trkpt lat="43.0723753" lon="11.5799843"><ele>254.0</ele><time>2026-04-04T15:01:08.612Z</time></trkpt><trkpt lat="43.0724514" lon="11.579883"><ele>254.0</ele><time>2026-04-04T15:01:09.583Z</time></trkpt><trkpt lat="43.0725356" lon="11.5797635"><ele>253.99999999999997</ele><time>2026-04-04T15:01:10.588Z</time></trkpt><trkpt lat="43.0726071" lon="11.5796583"><ele>253.99999999999997</ele><time>2026-04-04T15:01:11.586Z</time></trkpt><trkpt lat="43.0726741" lon="11.5795628"><ele>254.0</ele><time>2026-04-04T15:01:12.581Z</time></trkpt><trkpt lat="43.0727249" lon="11.5794789"><ele>254.0</ele><time>2026-04-04T15:01:13.586Z</time></trkpt><trkpt lat="43.0727576" lon="11.5793661"><ele>253.83333333333334</ele><time>2026-04-04T15:01:15.593Z</time></trkpt><trkpt lat="43.0726987" lon="11.5792728"><ele>253.66666666666669</ele><time>2026-04-04T15:01:18.578Z</time></trkpt><trkpt lat="43.0726426" lon="11.5792323"><ele>253.5</ele><time>2026-04-04T15:01:20.587Z</time></trkpt><trkpt lat="43.0725781" lon="11.5791722"><ele>253.33333333333331</ele><time>2026-04-04T15:01:22.589Z</time></trkpt><trkpt lat="43.0724913" lon="11.5790814"><ele>253.16666666666666</ele><time>2026-04-04T15:01:24.588Z</time></trkpt><trkpt lat="43.0724428" lon="11.5790134"><ele>253.0</ele><time>2026-04-04T15:01:25.591Z</time></trkpt><trkpt lat="43.0723879" lon="11.5789397"><ele>252.49999999999997</ele><time>2026-04-04T15:01:26.596Z</time></trkpt><trkpt lat="43.0723293" lon="11.5788694"><ele>252.0</ele><time>2026-04-04T15:01:27.594Z</time></trkpt><trkpt lat="43.072266" lon="11.5788043"><ele>251.5</ele><time>2026-04-04T15:01:28.588Z</time></trkpt><trkpt lat="43.0722044" lon="11.5787418"><ele>251.0</ele><time>2026-04-04T15:01:29.588Z</time></trkpt><trkpt lat="43.0721423" lon="11.5786736"><ele>250.49999999999997</ele><time>2026-04-04T15:01:30.592Z</time></trkpt><trkpt lat="43.0720806" lon="11.578603"><ele>250.0</ele><time>2026-04-04T15:01:31.586Z</time></trkpt><trkpt lat="43.0720158" lon="11.5785299"><ele>249.99999999999997</ele><time>2026-04-04T15:01:32.591Z</time></trkpt><trkpt lat="43.0719457" lon="11.5784558"><ele>250.0</ele><time>2026-04-04T15:01:33.588Z</time></trkpt><trkpt lat="43.0718727" lon="11.5783847"><ele>250.0</ele><time>2026-04-04T15:01:34.591Z</time></trkpt><trkpt lat="43.0717991" lon="11.5783199"><ele>250.0</ele><time>2026-04-04T15:01:35.598Z</time></trkpt><trkpt lat="43.0717263" lon="11.5782536"><ele>249.99999999999997</ele><time>2026-04-04T15:01:36.588Z</time></trkpt><trkpt lat="43.0716518" lon="11.5781829"><ele>250.0</ele><time>2026-04-04T15:01:37.588Z</time></trkpt><trkpt lat="43.0715668" lon="11.5781041"><ele>249.5</ele><time>2026-04-04T15:01:38.584Z</time></trkpt><trkpt lat="43.0714753" lon="11.5780169"><ele>249.0</ele><time>2026-04-04T15:01:39.585Z</time></trkpt><trkpt lat="43.0713794" lon="11.5779209"><ele>248.5</ele><time>2026-04-04T15:01:40.596Z</time></trkpt><trkpt lat="43.0712757" lon="11.5778207"><ele>248.0</ele><time>2026-04-04T15:01:41.596Z</time></trkpt><trkpt lat="43.0711598" lon="11.5777141"><ele>248.0</ele><time>2026-04-04T15:01:42.587Z</time></trkpt><trkpt lat="43.0710417" lon="11.5776031"><ele>248.0</ele><time>2026-04-04T15:01:43.593Z</time></trkpt><trkpt lat="43.0709223" lon="11.5774863"><ele>248.0</ele><time>2026-04-04T15:01:44.584Z</time></trkpt><trkpt lat="43.0708042" lon="11.5773614"><ele>248.0</ele><time>2026-04-04T15:01:45.58Z</time></trkpt><trkpt lat="43.0706971" lon="11.5772411"><ele>248.4</ele><time>2026-04-04T15:01:46.596Z</time></trkpt><trkpt lat="43.0705954" lon="11.5771265"><ele>248.8</ele><time>2026-04-04T15:01:47.594Z</time></trkpt><trkpt lat="43.0705027" lon="11.5770229"><ele>249.2</ele><time>2026-04-04T15:01:48.588Z</time></trkpt><trkpt lat="43.0704213" lon="11.5769291"><ele>249.6</ele><time>2026-04-04T15:01:49.589Z</time></trkpt><trkpt lat="43.0703541" lon="11.5768521"><ele>250.0</ele><time>2026-04-04T15:01:50.582Z</time></trkpt><trkpt lat="43.0703028" lon="11.5767997"><ele>249.99999999999997</ele><time>2026-04-04T15:01:51.596Z</time></trkpt><trkpt lat="43.0702198" lon="11.5767725"><ele>250.0</ele><time>2026-04-04T15:01:53.583Z</time></trkpt><trkpt lat="43.0701571" lon="11.5768371"><ele>250.0</ele><time>2026-04-04T15:01:55.601Z</time></trkpt><trkpt lat="43.0701337" lon="11.5769593"><ele>250.0</ele><time>2026-04-04T15:01:57.591Z</time></trkpt><trkpt lat="43.0701339" lon="11.5771143"><ele>249.99999999999997</ele><time>2026-04-04T15:01:59.597Z</time></trkpt><trkpt lat="43.0701379" lon="11.5772062"><ele>250.0</ele><time>2026-04-04T15:02:00.581Z</time></trkpt><trkpt lat="43.0701341" lon="11.5773148"><ele>251.4</ele><time>2026-04-04T15:02:01.589Z</time></trkpt><trkpt lat="43.07012" lon="11.5774325"><ele>252.8</ele><time>2026-04-04T15:02:02.576Z</time></trkpt><trkpt lat="43.0700966" lon="11.5775602"><ele>254.2</ele><time>2026-04-04T15:02:03.586Z</time></trkpt><trkpt lat="43.0700749" lon="11.5776896"><ele>255.6</ele><time>2026-04-04T15:02:04.591Z</time></trkpt><trkpt lat="43.0700553" lon="11.5778209"><ele>257.0</ele><time>2026-04-04T15:02:05.59Z</time></trkpt><trkpt lat="43.0700402" lon="11.5779537"><ele>258.33333333333337</ele><time>2026-04-04T15:02:06.586Z</time></trkpt><trkpt lat="43.070032" lon="11.5780809"><ele>259.6666666666667</ele><time>2026-04-04T15:02:07.594Z</time></trkpt><trkpt lat="43.0700276" lon="11.5782066"><ele>261.0</ele><time>2026-04-04T15:02:08.595Z</time></trkpt><trkpt lat="43.0700219" lon="11.578326"><ele>262.3333333333333</ele><time>2026-04-04T15:02:09.596Z</time></trkpt><trkpt lat="43.0700135" lon="11.5784431"><ele>263.66666666666663</ele><time>2026-04-04T15:02:10.588Z</time></trkpt><trkpt lat="43.0699986" lon="11.578563"><ele>265.0</ele><time>2026-04-04T15:02:11.594Z</time></trkpt><trkpt lat="43.0699761" lon="11.5786841"><ele>266.8</ele><time>2026-04-04T15:02:12.599Z</time></trkpt><trkpt lat="43.069947" lon="11.5788041"><ele>268.6</ele><time>2026-04-04T15:02:13.591Z</time></trkpt><trkpt lat="43.0699136" lon="11.578923"><ele>270.4</ele><time>2026-04-04T15:02:14.576Z</time></trkpt><trkpt lat="43.0698794" lon="11.5790396"><ele>272.2</ele><time>2026-04-04T15:02:15.596Z</time></trkpt><trkpt lat="43.0698435" lon="11.5791492"><ele>274.0</ele><time>2026-04-04T15:02:16.592Z</time></trkpt><trkpt lat="43.0698061" lon="11.5792572"><ele>275.4</ele><time>2026-04-04T15:02:17.588Z</time></trkpt><trkpt lat="43.0697669" lon="11.5793707"><ele>276.79999999999995</ele><time>2026-04-04T15:02:18.595Z</time></trkpt><trkpt lat="43.069728" lon="11.5794946"><ele>278.20000000000005</ele><time>2026-04-04T15:02:19.585Z</time></trkpt><trkpt lat="43.0696882" lon="11.5796242"><ele>279.6</ele><time>2026-04-04T15:02:20.595Z</time></trkpt><trkpt lat="43.0696488" lon="11.5797603"><ele>281.0</ele><time>2026-04-04T15:02:21.596Z</time></trkpt><trkpt lat="43.0696061" lon="11.579897"><ele>281.8</ele><time>2026-04-04T15:02:22.597Z</time></trkpt><trkpt lat="43.0695563" lon="11.5800317"><ele>282.6</ele><time>2026-04-04T15:02:23.594Z</time></trkpt><trkpt lat="43.0694958" lon="11.5801581"><ele>283.4</ele><time>2026-04-04T15:02:24.588Z</time></trkpt><trkpt lat="43.0694245" lon="11.5802686"><ele>284.2</ele><time>2026-04-04T15:02:25.587Z</time></trkpt><trkpt lat="43.0693444" lon="11.5803713"><ele>285.0</ele><time>2026-04-04T15:02:26.596Z</time></trkpt><trkpt lat="43.0692651" lon="11.5804717"><ele>285.6</ele><time>2026-04-04T15:02:27.587Z</time></trkpt><trkpt lat="43.0691853" lon="11.5805744"><ele>286.2</ele><time>2026-04-04T15:02:28.588Z</time></trkpt><trkpt lat="43.0691039" lon="11.5806758"><ele>286.8</ele><time>2026-04-04T15:02:29.604Z</time></trkpt><trkpt lat="43.0690215" lon="11.5807777"><ele>287.4</ele><time>2026-04-04T15:02:30.584Z</time></trkpt><trkpt lat="43.0689401" lon="11.5808761"><ele>288.0</ele><time>2026-04-04T15:02:31.594Z</time></trkpt><trkpt lat="43.0688581" lon="11.580977"><ele>289.6</ele><time>2026-04-04T15:02:32.586Z</time></trkpt><trkpt lat="43.0687761" lon="11.5810811"><ele>291.20000000000005</ele><time>2026-04-04T15:02:33.576Z</time></trkpt><trkpt lat="43.0686931" lon="11.581185"><ele>292.8</ele><time>2026-04-04T15:02:34.588Z</time></trkpt><trkpt lat="43.0686112" lon="11.5812912"><ele>294.40000000000003</ele><time>2026-04-04T15:02:35.588Z</time></trkpt><trkpt lat="43.0685294" lon="11.5813923"><ele>296.0</ele><time>2026-04-04T15:02:36.586Z</time></trkpt><trkpt lat="43.0684491" lon="11.5814909"><ele>296.33333333333337</ele><time>2026-04-04T15:02:37.588Z</time></trkpt><trkpt lat="43.0683791" lon="11.581577"><ele>296.6666666666667</ele><time>2026-04-04T15:02:38.582Z</time></trkpt><trkpt lat="43.0683138" lon="11.5816436"><ele>297.0</ele><time>2026-04-04T15:02:39.595Z</time></trkpt><trkpt lat="43.0682436" lon="11.581697"><ele>297.3333333333333</ele><time>2026-04-04T15:02:40.589Z</time></trkpt><trkpt lat="43.068172" lon="11.5817425"><ele>297.66666666666663</ele><time>2026-04-04T15:02:41.584Z</time></trkpt><trkpt lat="43.0681007" lon="11.5817775"><ele>298.0</ele><time>2026-04-04T15:02:42.594Z</time></trkpt><trkpt lat="43.0680262" lon="11.5818066"><ele>299.3333333333333</ele><time>2026-04-04T15:02:43.598Z</time></trkpt><trkpt lat="43.067947" lon="11.5818355"><ele>300.66666666666663</ele><time>2026-04-04T15:02:44.586Z</time></trkpt><trkpt lat="43.0678686" lon="11.5818721"><ele>302.0</ele><time>2026-04-04T15:02:45.595Z</time></trkpt><trkpt lat="43.0677915" lon="11.5819074"><ele>303.3333333333333</ele><time>2026-04-04T15:02:46.593Z</time></trkpt><trkpt lat="43.0677196" lon="11.5819564"><ele>304.6666666666667</ele><time>2026-04-04T15:02:47.589Z</time></trkpt><trkpt lat="43.0676502" lon="11.5820041"><ele>306.0</ele><time>2026-04-04T15:02:48.577Z</time></trkpt><trkpt lat="43.0675882" lon="11.5820615"><ele>306.0</ele><time>2026-04-04T15:02:49.582Z</time></trkpt><trkpt lat="43.067528" lon="11.5821277"><ele>306.0</ele><time>2026-04-04T15:02:50.588Z</time></trkpt><trkpt lat="43.0674674" lon="11.5822038"><ele>306.0</ele><time>2026-04-04T15:02:51.592Z</time></trkpt><trkpt lat="43.0674077" lon="11.5822877"><ele>306.0</ele><time>2026-04-04T15:02:52.595Z</time></trkpt><trkpt lat="43.0673452" lon="11.5823743"><ele>306.0</ele><time>2026-04-04T15:02:53.593Z</time></trkpt><trkpt lat="43.067278" lon="11.5824648"><ele>306.0</ele><time>2026-04-04T15:02:54.584Z</time></trkpt><trkpt lat="43.0672128" lon="11.5825552"><ele>307.0</ele><time>2026-04-04T15:02:55.598Z</time></trkpt><trkpt lat="43.0671502" lon="11.5826362"><ele>308.0</ele><time>2026-04-04T15:02:56.582Z</time></trkpt><trkpt lat="43.067093" lon="11.582701"><ele>309.0</ele><time>2026-04-04T15:02:57.593Z</time></trkpt><trkpt lat="43.0670352" lon="11.5827476"><ele>310.0</ele><time>2026-04-04T15:02:58.594Z</time></trkpt><trkpt lat="43.0669701" lon="11.5827746"><ele>311.0</ele><time>2026-04-04T15:02:59.605Z</time></trkpt><trkpt lat="43.0669025" lon="11.5827773"><ele>312.0</ele><time>2026-04-04T15:03:00.591Z</time></trkpt><trkpt lat="43.0668329" lon="11.5827707"><ele>313.0</ele><time>2026-04-04T15:03:01.591Z</time></trkpt><trkpt lat="43.0667589" lon="11.5827672"><ele>313.0</ele><time>2026-04-04T15:03:02.598Z</time></trkpt><trkpt lat="43.0666831" lon="11.5827664"><ele>313.0</ele><time>2026-04-04T15:03:03.591Z</time></trkpt><trkpt lat="43.0666004" lon="11.5827706"><ele>313.0</ele><time>2026-04-04T15:03:04.582Z</time></trkpt><trkpt lat="43.0665141" lon="11.5827767"><ele>313.0</ele><time>2026-04-04T15:03:05.587Z</time></trkpt><trkpt lat="43.0664286" lon="11.5827818"><ele>313.0</ele><time>2026-04-04T15:03:06.583Z</time></trkpt><trkpt lat="43.0663437" lon="11.5827955"><ele>313.0</ele><time>2026-04-04T15:03:07.587Z</time></trkpt><trkpt lat="43.0662758" lon="11.5828126"><ele>314.6</ele><time>2026-04-04T15:03:08.589Z</time></trkpt><trkpt lat="43.0661644" lon="11.5828056"><ele>316.20000000000005</ele><time>2026-04-04T15:03:10.594Z</time></trkpt><trkpt lat="43.0660631" lon="11.582702"><ele>317.8</ele><time>2026-04-04T15:03:12.583Z</time></trkpt><trkpt lat="43.0660049" lon="11.5826152"><ele>319.40000000000003</ele><time>2026-04-04T15:03:13.59Z</time></trkpt><trkpt lat="43.0659411" lon="11.5825224"><ele>321.0</ele><time>2026-04-04T15:03:14.597Z</time></trkpt><trkpt lat="43.0658666" lon="11.5824242"><ele>321.0</ele><time>2026-04-04T15:03:15.59Z</time></trkpt><trkpt lat="43.0657885" lon="11.5823188"><ele>321.0</ele><time>2026-04-04T15:03:16.588Z</time></trkpt><trkpt lat="43.0657112" lon="11.582212"><ele>321.0</ele><time>2026-04-04T15:03:17.594Z</time></trkpt><trkpt lat="43.0656298" lon="11.5820979"><ele>321.0</ele><time>2026-04-04T15:03:18.591Z</time></trkpt><trkpt lat="43.065542" lon="11.5819765"><ele>322.20000000000005</ele><time>2026-04-04T15:03:19.585Z</time></trkpt><trkpt lat="43.0654585" lon="11.581864"><ele>323.40000000000003</ele><time>2026-04-04T15:03:20.581Z</time></trkpt><trkpt lat="43.0653855" lon="11.5817654"><ele>324.6</ele><time>2026-04-04T15:03:21.599Z</time></trkpt><trkpt lat="43.0653163" lon="11.5816781"><ele>325.8</ele><time>2026-04-04T15:03:22.586Z</time></trkpt><trkpt lat="43.0652535" lon="11.5816015"><ele>327.0</ele><time>2026-04-04T15:03:23.582Z</time></trkpt><trkpt lat="43.0651913" lon="11.5815296"><ele>327.0</ele><time>2026-04-04T15:03:24.585Z</time></trkpt><trkpt lat="43.0651123" lon="11.5814691"><ele>327.0</ele><time>2026-04-04T15:03:25.584Z</time></trkpt><trkpt lat="43.0650275" lon="11.5814107"><ele>327.0</ele><time>2026-04-04T15:03:26.591Z</time></trkpt><trkpt lat="43.0649527" lon="11.5813603"><ele>327.0</ele><time>2026-04-04T15:03:27.593Z</time></trkpt><trkpt lat="43.064857" lon="11.5813206"><ele>327.0</ele><time>2026-04-04T15:03:29.601Z</time></trkpt><trkpt lat="43.0648034" lon="11.5813739"><ele>327.0</ele><time>2026-04-04T15:03:31.598Z</time></trkpt><trkpt lat="43.0647624" lon="11.5814944"><ele>328.0</ele><time>2026-04-04T15:03:33.593Z</time></trkpt><trkpt lat="43.0646985" lon="11.5816446"><ele>329.0</ele><time>2026-04-04T15:03:35.585Z</time></trkpt><trkpt lat="43.06466" lon="11.5817219"><ele>330.0</ele><time>2026-04-04T15:03:36.592Z</time></trkpt><trkpt lat="43.0646142" lon="11.581797"><ele>331.0</ele><time>2026-04-04T15:03:37.587Z</time></trkpt><trkpt lat="43.0645634" lon="11.5818621"><ele>332.0</ele><time>2026-04-04T15:03:38.59Z</time></trkpt><trkpt lat="43.0645083" lon="11.5819249"><ele>333.0</ele><time>2026-04-04T15:03:39.592Z</time></trkpt><trkpt lat="43.0644528" lon="11.5819956"><ele>333.8333333333333</ele><time>2026-04-04T15:03:40.592Z</time></trkpt><trkpt lat="43.0644007" lon="11.5820725"><ele>334.6666666666667</ele><time>2026-04-04T15:03:41.588Z</time></trkpt><trkpt lat="43.0643532" lon="11.5821569"><ele>335.5</ele><time>2026-04-04T15:03:42.587Z</time></trkpt><trkpt lat="43.0643036" lon="11.5822329"><ele>336.33333333333337</ele><time>2026-04-04T15:03:43.596Z</time></trkpt><trkpt lat="43.0642527" lon="11.5823186"><ele>337.1666666666667</ele><time>2026-04-04T15:03:44.582Z</time></trkpt><trkpt lat="43.0641966" lon="11.582408"><ele>338.0</ele><time>2026-04-04T15:03:45.592Z</time></trkpt><trkpt lat="43.0641446" lon="11.5824927"><ele>339.33333333333337</ele><time>2026-04-04T15:03:46.595Z</time></trkpt><trkpt lat="43.0640918" lon="11.582587"><ele>340.6666666666667</ele><time>2026-04-04T15:03:47.598Z</time></trkpt><trkpt lat="43.064034" lon="11.5826735"><ele>342.0</ele><time>2026-04-04T15:03:48.591Z</time></trkpt><trkpt lat="43.063971" lon="11.5827672"><ele>343.3333333333333</ele><time>2026-04-04T15:03:49.589Z</time></trkpt><trkpt lat="43.0639066" lon="11.5828641"><ele>344.66666666666663</ele><time>2026-04-04T15:03:50.582Z</time></trkpt><trkpt lat="43.0638518" lon="11.5829436"><ele>346.0</ele><time>2026-04-04T15:03:51.594Z</time></trkpt><trkpt lat="43.0638034" lon="11.5830061"><ele>346.3333333333333</ele><time>2026-04-04T15:03:52.591Z</time></trkpt><trkpt lat="43.0636885" lon="11.5830628"><ele>346.66666666666663</ele><time>2026-04-04T15:03:54.578Z</time></trkpt><trkpt lat="43.0636182" lon="11.5830676"><ele>347.0</ele><time>2026-04-04T15:03:55.591Z</time></trkpt><trkpt lat="43.063539" lon="11.5830632"><ele>347.3333333333333</ele><time>2026-04-04T15:03:56.588Z</time></trkpt><trkpt lat="43.0634535" lon="11.5830518"><ele>347.6666666666667</ele><time>2026-04-04T15:03:57.583Z</time></trkpt><trkpt lat="43.0633678" lon="11.5830583"><ele>348.0</ele><time>2026-04-04T15:03:58.584Z</time></trkpt><trkpt lat="43.06328" lon="11.5830635"><ele>348.79999999999995</ele><time>2026-04-04T15:03:59.584Z</time></trkpt><trkpt lat="43.0631899" lon="11.5830697"><ele>349.6</ele><time>2026-04-04T15:04:00.593Z</time></trkpt><trkpt lat="43.0631018" lon="11.5830807"><ele>350.4</ele><time>2026-04-04T15:04:01.581Z</time></trkpt><trkpt lat="43.0630064" lon="11.5830975"><ele>351.20000000000005</ele><time>2026-04-04T15:04:02.588Z</time></trkpt><trkpt lat="43.0629062" lon="11.5831122"><ele>352.0</ele><time>2026-04-04T15:04:03.587Z</time></trkpt><trkpt lat="43.0628046" lon="11.5831429"><ele>352.0</ele><time>2026-04-04T15:04:04.588Z</time></trkpt><trkpt lat="43.0627121" lon="11.5831815"><ele>352.0</ele><time>2026-04-04T15:04:05.588Z</time></trkpt><trkpt lat="43.062624" lon="11.5832259"><ele>352.0</ele><time>2026-04-04T15:04:06.595Z</time></trkpt><trkpt lat="43.0625288" lon="11.5832706"><ele>352.0</ele><time>2026-04-04T15:04:07.578Z</time></trkpt><trkpt lat="43.0624306" lon="11.5833173"><ele>352.0</ele><time>2026-04-04T15:04:08.591Z</time></trkpt><trkpt lat="43.0623254" lon="11.5833583"><ele>353.0</ele><time>2026-04-04T15:04:09.585Z</time></trkpt><trkpt lat="43.0622191" lon="11.5833993"><ele>354.0</ele><time>2026-04-04T15:04:10.587Z</time></trkpt><trkpt lat="43.062111" lon="11.5834343"><ele>355.0</ele><time>2026-04-04T15:04:11.598Z</time></trkpt><trkpt lat="43.0620165" lon="11.5834571"><ele>356.0</ele><time>2026-04-04T15:04:12.59Z</time></trkpt><trkpt lat="43.0619155" lon="11.5834782"><ele>357.0</ele><time>2026-04-04T15:04:13.591Z</time></trkpt><trkpt lat="43.0618177" lon="11.5834998"><ele>357.0</ele><time>2026-04-04T15:04:14.59Z</time></trkpt><trkpt lat="43.0617192" lon="11.5835168"><ele>357.0</ele><time>2026-04-04T15:04:15.58Z</time></trkpt><trkpt lat="43.0616172" lon="11.5835346"><ele>357.0</ele><time>2026-04-04T15:04:16.59Z</time></trkpt><trkpt lat="43.0615193" lon="11.5835521"><ele>357.0</ele><time>2026-04-04T15:04:17.597Z</time></trkpt><trkpt lat="43.061425" lon="11.5835708"><ele>357.0</ele><time>2026-04-04T15:04:18.593Z</time></trkpt><trkpt lat="43.0613238" lon="11.5835839"><ele>358.75</ele><time>2026-04-04T15:04:19.603Z</time></trkpt><trkpt lat="43.0612114" lon="11.5836011"><ele>360.5</ele><time>2026-04-04T15:04:20.584Z</time></trkpt><trkpt lat="43.0610927" lon="11.5836249"><ele>362.25</ele><time>2026-04-04T15:04:21.594Z</time></trkpt><trkpt lat="43.0609694" lon="11.5836514"><ele>364.0</ele><time>2026-04-04T15:04:22.6Z</time></trkpt><trkpt lat="43.0608665" lon="11.5836727"><ele>365.0</ele><time>2026-04-04T15:04:23.587Z</time></trkpt><trkpt lat="43.0607664" lon="11.5836946"><ele>366.0</ele><time>2026-04-04T15:04:24.591Z</time></trkpt><trkpt lat="43.0606649" lon="11.5837219"><ele>367.0</ele><time>2026-04-04T15:04:25.588Z</time></trkpt><trkpt lat="43.0605659" lon="11.5837573"><ele>368.0</ele><time>2026-04-04T15:04:26.581Z</time></trkpt><trkpt lat="43.0604693" lon="11.5838096"><ele>369.0</ele><time>2026-04-04T15:04:27.589Z</time></trkpt><trkpt lat="43.0603733" lon="11.583884"><ele>369.0</ele><time>2026-04-04T15:04:28.582Z</time></trkpt><trkpt lat="43.0602772" lon="11.583969"><ele>369.0</ele><time>2026-04-04T15:04:29.582Z</time></trkpt><trkpt lat="43.0601777" lon="11.5840506"><ele>369.0</ele><time>2026-04-04T15:04:30.58Z</time></trkpt><trkpt lat="43.0600794" lon="11.5841287"><ele>369.0</ele><time>2026-04-04T15:04:31.592Z</time></trkpt><trkpt lat="43.0599875" lon="11.5841991"><ele>369.0</ele><time>2026-04-04T15:04:32.59Z</time></trkpt><trkpt lat="43.0598968" lon="11.5842593"><ele>369.4</ele><time>2026-04-04T15:04:33.589Z</time></trkpt><trkpt lat="43.059811" lon="11.584309"><ele>369.79999999999995</ele><time>2026-04-04T15:04:34.587Z</time></trkpt><trkpt lat="43.0597318" lon="11.584362"><ele>370.20000000000005</ele><time>2026-04-04T15:04:35.583Z</time></trkpt><trkpt lat="43.0596706" lon="11.5844184"><ele>370.6</ele><time>2026-04-04T15:04:36.589Z</time></trkpt><trkpt lat="43.0596195" lon="11.5844744"><ele>371.0</ele><time>2026-04-04T15:04:37.587Z</time></trkpt><trkpt lat="43.0595413" lon="11.5846243"><ele>371.6666666666667</ele><time>2026-04-04T15:04:39.597Z</time></trkpt><trkpt lat="43.0595017" lon="11.5847216"><ele>372.33333333333337</ele><time>2026-04-04T15:04:40.581Z</time></trkpt><trkpt lat="43.0594581" lon="11.5848184"><ele>373.0</ele><time>2026-04-04T15:04:41.594Z</time></trkpt><trkpt lat="43.059401" lon="11.5849018"><ele>373.6666666666667</ele><time>2026-04-04T15:04:42.594Z</time></trkpt><trkpt lat="43.0593371" lon="11.5849933"><ele>374.3333333333333</ele><time>2026-04-04T15:04:43.588Z</time></trkpt><trkpt lat="43.0592767" lon="11.5850998"><ele>375.0</ele><time>2026-04-04T15:04:44.593Z</time></trkpt><trkpt lat="43.0592164" lon="11.5851776"><ele>375.0</ele><time>2026-04-04T15:04:45.604Z</time></trkpt><trkpt lat="43.0591456" lon="11.5852706"><ele>375.0</ele><time>2026-04-04T15:04:46.581Z</time></trkpt><trkpt lat="43.0590694" lon="11.585377"><ele>375.0</ele><time>2026-04-04T15:04:47.587Z</time></trkpt><trkpt lat="43.0589939" lon="11.5854822"><ele>375.0</ele><time>2026-04-04T15:04:48.584Z</time></trkpt><trkpt lat="43.0589262" lon="11.5855811"><ele>375.0</ele><time>2026-04-04T15:04:49.591Z</time></trkpt><trkpt lat="43.0588605" lon="11.5856712"><ele>376.2</ele><time>2026-04-04T15:04:50.602Z</time></trkpt><trkpt lat="43.0587979" lon="11.5857578"><ele>377.4</ele><time>2026-04-04T15:04:51.586Z</time></trkpt><trkpt lat="43.0587321" lon="11.5858493"><ele>378.6</ele><time>2026-04-04T15:04:52.587Z</time></trkpt><trkpt lat="43.0586659" lon="11.5859473"><ele>379.8</ele><time>2026-04-04T15:04:53.584Z</time></trkpt><trkpt lat="43.0585968" lon="11.586051"><ele>381.0</ele><time>2026-04-04T15:04:54.593Z</time></trkpt><trkpt lat="43.0585246" lon="11.5861554"><ele>381.1666666666667</ele><time>2026-04-04T15:04:55.592Z</time></trkpt><trkpt lat="43.0584551" lon="11.5862514"><ele>381.3333333333333</ele><time>2026-04-04T15:04:56.591Z</time></trkpt><trkpt lat="43.0583909" lon="11.5863334"><ele>381.5</ele><time>2026-04-04T15:04:57.587Z</time></trkpt><trkpt lat="43.058326" lon="11.5864069"><ele>381.66666666666663</ele><time>2026-04-04T15:04:58.582Z</time></trkpt><trkpt lat="43.0582573" lon="11.5864769"><ele>381.8333333333333</ele><time>2026-04-04T15:04:59.602Z</time></trkpt><trkpt lat="43.0581923" lon="11.5865628"><ele>382.0</ele><time>2026-04-04T15:05:00.592Z</time></trkpt><trkpt lat="43.0581293" lon="11.5866619"><ele>382.0</ele><time>2026-04-04T15:05:01.586Z</time></trkpt><trkpt lat="43.0580615" lon="11.5867725"><ele>382.0</ele><time>2026-04-04T15:05:02.588Z</time></trkpt><trkpt lat="43.0579996" lon="11.586883"><ele>382.0</ele><time>2026-04-04T15:05:03.581Z</time></trkpt><trkpt lat="43.0579482" lon="11.5869848"><ele>382.0</ele><time>2026-04-04T15:05:04.592Z</time></trkpt><trkpt lat="43.0579014" lon="11.5870971"><ele>382.0</ele><time>2026-04-04T15:05:05.586Z</time></trkpt><trkpt lat="43.0578584" lon="11.5872176"><ele>382.5</ele><time>2026-04-04T15:05:06.592Z</time></trkpt><trkpt lat="43.0578178" lon="11.5873313"><ele>383.0</ele><time>2026-04-04T15:05:07.59Z</time></trkpt><trkpt lat="43.0577816" lon="11.5874311"><ele>383.5</ele><time>2026-04-04T15:05:08.59Z</time></trkpt><trkpt lat="43.0577431" lon="11.5875275"><ele>384.0</ele><time>2026-04-04T15:05:09.587Z</time></trkpt><trkpt lat="43.0577002" lon="11.5876316"><ele>384.50000000000006</ele><time>2026-04-04T15:05:10.585Z</time></trkpt><trkpt lat="43.0576554" lon="11.5877381"><ele>385.0</ele><time>2026-04-04T15:05:11.582Z</time></trkpt><trkpt lat="43.0576208" lon="11.5878418"><ele>385.50000000000006</ele><time>2026-04-04T15:05:12.59Z</time></trkpt><trkpt lat="43.0575887" lon="11.587949"><ele>386.0</ele><time>2026-04-04T15:05:13.586Z</time></trkpt><trkpt lat="43.0575572" lon="11.5880608"><ele>386.5</ele><time>2026-04-04T15:05:14.597Z</time></trkpt><trkpt lat="43.0575244" lon="11.5881665"><ele>387.0</ele><time>2026-04-04T15:05:15.596Z</time></trkpt><trkpt lat="43.0574919" lon="11.5882578"><ele>387.50000000000006</ele><time>2026-04-04T15:05:16.59Z</time></trkpt><trkpt lat="43.0574717" lon="11.5883432"><ele>388.0</ele><time>2026-04-04T15:05:17.588Z</time></trkpt><trkpt lat="43.057458" lon="11.588503"><ele>388.0</ele><time>2026-04-04T15:05:19.586Z</time></trkpt><trkpt lat="43.0574751" lon="11.588587"><ele>388.0</ele><time>2026-04-04T15:05:20.593Z</time></trkpt><trkpt lat="43.0574951" lon="11.5886807"><ele>388.0</ele><time>2026-04-04T15:05:21.593Z</time></trkpt><trkpt lat="43.0575176" lon="11.5888159"><ele>388.0</ele><time>2026-04-04T15:05:22.592Z</time></trkpt><trkpt lat="43.0575362" lon="11.5889806"><ele>388.0</ele><time>2026-04-04T15:05:23.596Z</time></trkpt><trkpt lat="43.0575563" lon="11.5891416"><ele>387.79999999999995</ele><time>2026-04-04T15:05:24.591Z</time></trkpt><trkpt lat="43.0575787" lon="11.5892928"><ele>387.6</ele><time>2026-04-04T15:05:25.583Z</time></trkpt><trkpt lat="43.0575981" lon="11.5894367"><ele>387.4</ele><time>2026-04-04T15:05:26.586Z</time></trkpt><trkpt lat="43.0576083" lon="11.589569"><ele>387.20000000000005</ele><time>2026-04-04T15:05:27.586Z</time></trkpt><trkpt lat="43.0576199" lon="11.5896924"><ele>387.0</ele><time>2026-04-04T15:05:28.584Z</time></trkpt><trkpt lat="43.0576401" lon="11.5898219"><ele>387.0</ele><time>2026-04-04T15:05:29.579Z</time></trkpt><trkpt lat="43.0576604" lon="11.5899584"><ele>387.0</ele><time>2026-04-04T15:05:30.585Z</time></trkpt><trkpt lat="43.0576788" lon="11.5900923"><ele>387.0</ele><time>2026-04-04T15:05:31.581Z</time></trkpt><trkpt lat="43.0576988" lon="11.5902272"><ele>387.0</ele><time>2026-04-04T15:05:32.601Z</time></trkpt><trkpt lat="43.0577208" lon="11.5903636"><ele>387.0</ele><time>2026-04-04T15:05:33.594Z</time></trkpt><trkpt lat="43.0577411" lon="11.5905005"><ele>387.0</ele><time>2026-04-04T15:05:34.595Z</time></trkpt><trkpt lat="43.0577583" lon="11.5906304"><ele>387.0</ele><time>2026-04-04T15:05:35.594Z</time></trkpt><trkpt lat="43.0577728" lon="11.5907562"><ele>387.0</ele><time>2026-04-04T15:05:36.603Z</time></trkpt><trkpt lat="43.0577883" lon="11.5908845"><ele>387.0</ele><time>2026-04-04T15:05:37.588Z</time></trkpt><trkpt lat="43.0578106" lon="11.591006"><ele>387.0</ele><time>2026-04-04T15:05:38.59Z</time></trkpt><trkpt lat="43.0578347" lon="11.5911215"><ele>386.6</ele><time>2026-04-04T15:05:39.595Z</time></trkpt><trkpt lat="43.0578584" lon="11.5912349"><ele>386.20000000000005</ele><time>2026-04-04T15:05:40.588Z</time></trkpt><trkpt lat="43.0578829" lon="11.5913461"><ele>385.8</ele><time>2026-04-04T15:05:41.591Z</time></trkpt><trkpt lat="43.0579017" lon="11.5914581"><ele>385.4</ele><time>2026-04-04T15:05:42.585Z</time></trkpt><trkpt lat="43.0579117" lon="11.5915817"><ele>385.0</ele><time>2026-04-04T15:05:43.587Z</time></trkpt><trkpt lat="43.0579198" lon="11.5917285"><ele>385.0</ele><time>2026-04-04T15:05:44.59Z</time></trkpt><trkpt lat="43.0579235" lon="11.5918837"><ele>385.0</ele><time>2026-04-04T15:05:45.598Z</time></trkpt><trkpt lat="43.0579346" lon="11.5920539"><ele>385.0</ele><time>2026-04-04T15:05:46.581Z</time></trkpt><trkpt lat="43.0579468" lon="11.592227"><ele>385.0</ele><time>2026-04-04T15:05:47.585Z</time></trkpt><trkpt lat="43.0579636" lon="11.5923902"><ele>385.25</ele><time>2026-04-04T15:05:48.585Z</time></trkpt><trkpt lat="43.0579907" lon="11.5925482"><ele>385.5</ele><time>2026-04-04T15:05:49.581Z</time></trkpt><trkpt lat="43.0580219" lon="11.5927129"><ele>385.75</ele><time>2026-04-04T15:05:50.585Z</time></trkpt><trkpt lat="43.058051" lon="11.5928756"><ele>386.0</ele><time>2026-04-04T15:05:51.597Z</time></trkpt><trkpt lat="43.0580757" lon="11.5930432"><ele>387.25</ele><time>2026-04-04T15:05:52.593Z</time></trkpt><trkpt lat="43.0580977" lon="11.5932172"><ele>388.5</ele><time>2026-04-04T15:05:53.59Z</time></trkpt><trkpt lat="43.0581206" lon="11.5933961"><ele>389.75</ele><time>2026-04-04T15:05:54.583Z</time></trkpt><trkpt lat="43.0581478" lon="11.5935611"><ele>391.0</ele><time>2026-04-04T15:05:55.588Z</time></trkpt><trkpt lat="43.0581847" lon="11.5937059"><ele>392.0</ele><time>2026-04-04T15:05:56.591Z</time></trkpt><trkpt lat="43.0582338" lon="11.5938477"><ele>393.0</ele><time>2026-04-04T15:05:57.59Z</time></trkpt><trkpt lat="43.0582883" lon="11.5939907"><ele>394.0</ele><time>2026-04-04T15:05:58.586Z</time></trkpt><trkpt lat="43.0583429" lon="11.5941383"><ele>395.0</ele><time>2026-04-04T15:05:59.592Z</time></trkpt><trkpt lat="43.0583945" lon="11.5942922"><ele>392.75</ele><time>2026-04-04T15:06:00.588Z</time></trkpt><trkpt lat="43.0584433" lon="11.5944501"><ele>390.5</ele><time>2026-04-04T15:06:01.597Z</time></trkpt><trkpt lat="43.0584925" lon="11.5946107"><ele>388.25</ele><time>2026-04-04T15:06:02.592Z</time></trkpt><trkpt lat="43.0585414" lon="11.5947756"><ele>386.0</ele><time>2026-04-04T15:06:03.601Z</time></trkpt><trkpt lat="43.0585907" lon="11.5949436"><ele>386.0</ele><time>2026-04-04T15:06:04.581Z</time></trkpt><trkpt lat="43.0586423" lon="11.595108"><ele>386.0</ele><time>2026-04-04T15:06:05.6Z</time></trkpt><trkpt lat="43.0586938" lon="11.5952605"><ele>386.0</ele><time>2026-04-04T15:06:06.585Z</time></trkpt><trkpt lat="43.0587488" lon="11.5954098"><ele>386.0</ele><time>2026-04-04T15:06:07.598Z</time></trkpt><trkpt lat="43.0588089" lon="11.5955518"><ele>386.25</ele><time>2026-04-04T15:06:08.596Z</time></trkpt><trkpt lat="43.0588757" lon="11.5956885"><ele>386.5</ele><time>2026-04-04T15:06:09.586Z</time></trkpt><trkpt lat="43.0589469" lon="11.5958328"><ele>386.75</ele><time>2026-04-04T15:06:10.586Z</time></trkpt><trkpt lat="43.0590203" lon="11.5959802"><ele>387.0</ele><time>2026-04-04T15:06:11.592Z</time></trkpt><trkpt lat="43.0590952" lon="11.5961254"><ele>386.20000000000005</ele><time>2026-04-04T15:06:12.602Z</time></trkpt><trkpt lat="43.0591654" lon="11.596254"><ele>385.4</ele><time>2026-04-04T15:06:13.595Z</time></trkpt><trkpt lat="43.0592307" lon="11.5963728"><ele>384.6</ele><time>2026-04-04T15:06:14.594Z</time></trkpt><trkpt lat="43.0592874" lon="11.5964784"><ele>383.79999999999995</ele><time>2026-04-04T15:06:15.594Z</time></trkpt><trkpt lat="43.0593402" lon="11.5965792"><ele>383.0</ele><time>2026-04-04T15:06:16.583Z</time></trkpt><trkpt lat="43.059383" lon="11.5966879"><ele>383.0</ele><time>2026-04-04T15:06:17.587Z</time></trkpt><trkpt lat="43.0594213" lon="11.5968146"><ele>383.0</ele><time>2026-04-04T15:06:18.588Z</time></trkpt><trkpt lat="43.0594495" lon="11.5969443"><ele>383.0</ele><time>2026-04-04T15:06:19.582Z</time></trkpt><trkpt lat="43.0594692" lon="11.5970699"><ele>383.0</ele><time>2026-04-04T15:06:20.592Z</time></trkpt><trkpt lat="43.0594792" lon="11.5971964"><ele>383.0</ele><time>2026-04-04T15:06:21.588Z</time></trkpt><trkpt lat="43.0594783" lon="11.5973172"><ele>382.59999999999997</ele><time>2026-04-04T15:06:22.584Z</time></trkpt><trkpt lat="43.0594697" lon="11.5974351"><ele>382.2</ele><time>2026-04-04T15:06:23.578Z</time></trkpt><trkpt lat="43.0594534" lon="11.5975516"><ele>381.8</ele><time>2026-04-04T15:06:24.584Z</time></trkpt><trkpt lat="43.0594278" lon="11.5976789"><ele>381.4</ele><time>2026-04-04T15:06:25.587Z</time></trkpt><trkpt lat="43.0593911" lon="11.597814"><ele>381.0</ele><time>2026-04-04T15:06:26.579Z</time></trkpt><trkpt lat="43.0593495" lon="11.5979554"><ele>379.8</ele><time>2026-04-04T15:06:27.588Z</time></trkpt><trkpt lat="43.0593099" lon="11.5980972"><ele>378.6</ele><time>2026-04-04T15:06:28.59Z</time></trkpt><trkpt lat="43.0592752" lon="11.5982331"><ele>377.4</ele><time>2026-04-04T15:06:29.595Z</time></trkpt><trkpt lat="43.0592433" lon="11.5983631"><ele>376.2</ele><time>2026-04-04T15:06:30.594Z</time></trkpt><trkpt lat="43.0592125" lon="11.5984852"><ele>375.0</ele><time>2026-04-04T15:06:31.582Z</time></trkpt><trkpt lat="43.0591884" lon="11.5985905"><ele>374.6666666666667</ele><time>2026-04-04T15:06:32.589Z</time></trkpt><trkpt lat="43.0591718" lon="11.5986792"><ele>374.3333333333333</ele><time>2026-04-04T15:06:33.598Z</time></trkpt><trkpt lat="43.0591573" lon="11.5988107"><ele>374.0</ele><time>2026-04-04T15:06:35.597Z</time></trkpt><trkpt lat="43.0591458" lon="11.598929"><ele>373.66666666666663</ele><time>2026-04-04T15:06:38.585Z</time></trkpt><trkpt lat="43.0591591" lon="11.5990612"><ele>373.3333333333333</ele><time>2026-04-04T15:06:40.607Z</time></trkpt><trkpt lat="43.0591759" lon="11.599148"><ele>373.0</ele><time>2026-04-04T15:06:41.594Z</time></trkpt><trkpt lat="43.0591931" lon="11.5992394"><ele>373.0</ele><time>2026-04-04T15:06:42.596Z</time></trkpt><trkpt lat="43.0592089" lon="11.5993346"><ele>373.0</ele><time>2026-04-04T15:06:43.59Z</time></trkpt><trkpt lat="43.0592268" lon="11.5994304"><ele>373.0</ele><time>2026-04-04T15:06:44.595Z</time></trkpt><trkpt lat="43.0592497" lon="11.5995205"><ele>373.0</ele><time>2026-04-04T15:06:45.597Z</time></trkpt><trkpt lat="43.0592845" lon="11.5995971"><ele>373.0</ele><time>2026-04-04T15:06:46.583Z</time></trkpt><trkpt lat="43.0593291" lon="11.5996656"><ele>373.0</ele><time>2026-04-04T15:06:47.592Z</time></trkpt><trkpt lat="43.0593792" lon="11.5997286"><ele>373.0</ele><time>2026-04-04T15:06:48.591Z</time></trkpt><trkpt lat="43.0594318" lon="11.5997869"><ele>373.7142857142857</ele><time>2026-04-04T15:06:49.59Z</time></trkpt><trkpt lat="43.0594909" lon="11.5998432"><ele>374.42857142857144</ele><time>2026-04-04T15:06:50.59Z</time></trkpt><trkpt lat="43.0595487" lon="11.5999042"><ele>375.1428571428571</ele><time>2026-04-04T15:06:51.583Z</time></trkpt><trkpt lat="43.0596054" lon="11.5999744"><ele>375.8571428571429</ele><time>2026-04-04T15:06:52.584Z</time></trkpt><trkpt lat="43.0596637" lon="11.6000376"><ele>376.57142857142856</ele><time>2026-04-04T15:06:53.599Z</time></trkpt><trkpt lat="43.0597206" lon="11.6000996"><ele>377.2857142857143</ele><time>2026-04-04T15:06:54.587Z</time></trkpt><trkpt lat="43.0597729" lon="11.6001693"><ele>378.0</ele><time>2026-04-04T15:06:55.585Z</time></trkpt><trkpt lat="43.0598212" lon="11.6002493"><ele>379.4</ele><time>2026-04-04T15:06:56.602Z</time></trkpt><trkpt lat="43.0598692" lon="11.6003423"><ele>380.79999999999995</ele><time>2026-04-04T15:06:57.584Z</time></trkpt><trkpt lat="43.0599066" lon="11.600444"><ele>382.2</ele><time>2026-04-04T15:06:58.586Z</time></trkpt><trkpt lat="43.0599385" lon="11.6005574"><ele>383.6</ele><time>2026-04-04T15:06:59.592Z</time></trkpt><trkpt lat="43.0599694" lon="11.6006883"><ele>385.0</ele><time>2026-04-04T15:07:00.598Z</time></trkpt><trkpt lat="43.0600064" lon="11.6008236"><ele>385.2</ele><time>2026-04-04T15:07:01.589Z</time></trkpt><trkpt lat="43.0600394" lon="11.6009539"><ele>385.4</ele><time>2026-04-04T15:07:02.6Z</time></trkpt><trkpt lat="43.0600678" lon="11.601056"><ele>385.6</ele><time>2026-04-04T15:07:03.596Z</time></trkpt><trkpt lat="43.0601052" lon="11.6012196"><ele>385.8</ele><time>2026-04-04T15:07:05.587Z</time></trkpt><trkpt lat="43.0601225" lon="11.6013397"><ele>386.0</ele><time>2026-04-04T15:07:07.592Z</time></trkpt><trkpt lat="43.0600902" lon="11.6014512"><ele>387.3333333333333</ele><time>2026-04-04T15:07:10.581Z</time></trkpt><trkpt lat="43.0599901" lon="11.6015033"><ele>388.66666666666663</ele><time>2026-04-04T15:07:12.602Z</time></trkpt><trkpt lat="43.0599221" lon="11.601502"><ele>390.0</ele><time>2026-04-04T15:07:13.59Z</time></trkpt><trkpt lat="43.0598523" lon="11.6014871"><ele>391.33333333333337</ele><time>2026-04-04T15:07:14.594Z</time></trkpt><trkpt lat="43.0597738" lon="11.6014562"><ele>392.6666666666667</ele><time>2026-04-04T15:07:15.593Z</time></trkpt><trkpt lat="43.0596969" lon="11.6014249"><ele>394.0</ele><time>2026-04-04T15:07:16.584Z</time></trkpt><trkpt lat="43.0596185" lon="11.601402"><ele>394.00000000000006</ele><time>2026-04-04T15:07:17.585Z</time></trkpt><trkpt lat="43.0595445" lon="11.6013814"><ele>394.0</ele><time>2026-04-04T15:07:18.584Z</time></trkpt><trkpt lat="43.0594665" lon="11.6013642"><ele>394.0</ele><time>2026-04-04T15:07:19.597Z</time></trkpt><trkpt lat="43.0593856" lon="11.6013477"><ele>394.0</ele><time>2026-04-04T15:07:20.601Z</time></trkpt><trkpt lat="43.0592967" lon="11.6013403"><ele>394.00000000000006</ele><time>2026-04-04T15:07:21.587Z</time></trkpt><trkpt lat="43.0592018" lon="11.6013254"><ele>394.0</ele><time>2026-04-04T15:07:22.591Z</time></trkpt><trkpt lat="43.059103" lon="11.6013112"><ele>394.79999999999995</ele><time>2026-04-04T15:07:23.586Z</time></trkpt><trkpt lat="43.0589993" lon="11.6012982"><ele>395.59999999999997</ele><time>2026-04-04T15:07:24.587Z</time></trkpt><trkpt lat="43.0588921" lon="11.6012889"><ele>396.4</ele><time>2026-04-04T15:07:25.584Z</time></trkpt><trkpt lat="43.0587955" lon="11.601278"><ele>397.2</ele><time>2026-04-04T15:07:26.594Z</time></trkpt><trkpt lat="43.0587087" lon="11.6012649"><ele>398.0</ele><time>2026-04-04T15:07:27.592Z</time></trkpt><trkpt lat="43.0586328" lon="11.6012496"><ele>397.99999999999994</ele><time>2026-04-04T15:07:28.599Z</time></trkpt><trkpt lat="43.0585673" lon="11.6012397"><ele>398.0</ele><time>2026-04-04T15:07:29.582Z</time></trkpt><trkpt lat="43.0584595" lon="11.6012072"><ele>398.0</ele><time>2026-04-04T15:07:31.591Z</time></trkpt><trkpt lat="43.0584049" lon="11.6011515"><ele>398.0</ele><time>2026-04-04T15:07:33.586Z</time></trkpt><trkpt lat="43.0583354" lon="11.6010685"><ele>397.99999999999994</ele><time>2026-04-04T15:08:13.588Z</time></trkpt><trkpt lat="43.0582403" lon="11.6010695"><ele>398.0</ele><time>2026-04-04T15:08:15.598Z</time></trkpt><trkpt lat="43.0581179" lon="11.6011435"><ele>399.49999999999994</ele><time>2026-04-04T15:08:17.593Z</time></trkpt><trkpt lat="43.0580461" lon="11.6011948"><ele>401.0</ele><time>2026-04-04T15:08:18.587Z</time></trkpt><trkpt lat="43.0579703" lon="11.6012466"><ele>402.5</ele><time>2026-04-04T15:08:19.586Z</time></trkpt><trkpt lat="43.0578989" lon="11.6012946"><ele>404.0</ele><time>2026-04-04T15:08:20.595Z</time></trkpt><trkpt lat="43.0578278" lon="11.6013529"><ele>405.49999999999994</ele><time>2026-04-04T15:08:21.591Z</time></trkpt><trkpt lat="43.0577518" lon="11.601407"><ele>407.0</ele><time>2026-04-04T15:08:22.597Z</time></trkpt><trkpt lat="43.0576752" lon="11.6014704"><ele>406.99999999999994</ele><time>2026-04-04T15:08:23.591Z</time></trkpt><trkpt lat="43.0575968" lon="11.6015349"><ele>407.0</ele><time>2026-04-04T15:08:24.589Z</time></trkpt><trkpt lat="43.0575134" lon="11.6015989"><ele>407.0</ele><time>2026-04-04T15:08:25.593Z</time></trkpt><trkpt lat="43.0574339" lon="11.6016616"><ele>407.0</ele><time>2026-04-04T15:08:26.589Z</time></trkpt><trkpt lat="43.0573598" lon="11.6017227"><ele>406.99999999999994</ele><time>2026-04-04T15:08:27.593Z</time></trkpt><trkpt lat="43.0572942" lon="11.6017875"><ele>407.0</ele><time>2026-04-04T15:08:28.588Z</time></trkpt><trkpt lat="43.0572344" lon="11.6018676"><ele>408.99999999999994</ele><time>2026-04-04T15:08:29.597Z</time></trkpt><trkpt lat="43.0571878" lon="11.6019668"><ele>411.0</ele><time>2026-04-04T15:08:30.588Z</time></trkpt><trkpt lat="43.0571524" lon="11.6020795"><ele>413.0</ele><time>2026-04-04T15:08:31.601Z</time></trkpt><trkpt lat="43.0571235" lon="11.6022121"><ele>415.0</ele><time>2026-04-04T15:08:32.592Z</time></trkpt><trkpt lat="43.0570922" lon="11.6023318"><ele>416.99999999999994</ele><time>2026-04-04T15:08:33.593Z</time></trkpt><trkpt lat="43.0570697" lon="11.6024298"><ele>419.0</ele><time>2026-04-04T15:08:34.588Z</time></trkpt><trkpt lat="43.057032" lon="11.6025764"><ele>419.49999999999994</ele><time>2026-04-04T15:08:36.581Z</time></trkpt><trkpt lat="43.0569827" lon="11.6027094"><ele>420.0</ele><time>2026-04-04T15:08:38.607Z</time></trkpt><trkpt lat="43.0569452" lon="11.6027933"><ele>420.5</ele><time>2026-04-04T15:08:39.579Z</time></trkpt><trkpt lat="43.0569092" lon="11.6029003"><ele>421.0</ele><time>2026-04-04T15:08:40.584Z</time></trkpt><trkpt lat="43.0568712" lon="11.603023"><ele>421.49999999999994</ele><time>2026-04-04T15:08:41.592Z</time></trkpt><trkpt lat="43.0568345" lon="11.6031253"><ele>422.0</ele><time>2026-04-04T15:08:42.587Z</time></trkpt><trkpt lat="43.0568067" lon="11.6032073"><ele>422.0</ele><time>2026-04-04T15:08:43.592Z</time></trkpt><trkpt lat="43.0567571" lon="11.6033597"><ele>422.0</ele><time>2026-04-04T15:08:45.593Z</time></trkpt><trkpt lat="43.0567128" lon="11.6035008"><ele>422.0</ele><time>2026-04-04T15:08:47.596Z</time></trkpt><trkpt lat="43.0566584" lon="11.6036037"><ele>422.0</ele><time>2026-04-04T15:08:49.584Z</time></trkpt><trkpt lat="43.0565959" lon="11.6036616"><ele>422.0</ele><time>2026-04-04T15:08:51.578Z</time></trkpt><trkpt lat="43.0565379" lon="11.6037084"><ele>421.6</ele><time>2026-04-04T15:08:53.592Z</time></trkpt><trkpt lat="43.0565039" lon="11.6037844"><ele>421.20000000000005</ele><time>2026-04-04T15:08:55.585Z</time></trkpt><trkpt lat="43.0565616" lon="11.6039055"><ele>420.8</ele><time>2026-04-04T15:08:57.591Z</time></trkpt><trkpt lat="43.0566284" lon="11.6040461"><ele>420.4</ele><time>2026-04-04T15:08:59.599Z</time></trkpt><trkpt lat="43.056689" lon="11.6041642"><ele>420.0</ele><time>2026-04-04T15:09:01.589Z</time></trkpt><trkpt lat="43.0567436" lon="11.6042673"><ele>420.0</ele><time>2026-04-04T15:09:03.582Z</time></trkpt><trkpt lat="43.056799" lon="11.6043723"><ele>420.0</ele><time>2026-04-04T15:09:05.593Z</time></trkpt><trkpt lat="43.0568587" lon="11.6044625"><ele>420.0</ele><time>2026-04-04T15:09:07.584Z</time></trkpt><trkpt lat="43.0569153" lon="11.6045478"><ele>420.0</ele><time>2026-04-04T15:09:09.582Z</time></trkpt><trkpt lat="43.0569789" lon="11.6046174"><ele>420.0</ele><time>2026-04-04T15:09:11.575Z</time></trkpt><trkpt lat="43.0570409" lon="11.6046835"><ele>420.0</ele><time>2026-04-04T15:09:14.592Z</time></trkpt><trkpt lat="43.0570867" lon="11.6047462"><ele>419.0</ele><time>2026-04-04T15:09:17.592Z</time></trkpt><trkpt lat="43.0571184" lon="11.6048524"><ele>418.0</ele><time>2026-04-04T15:09:19.596Z</time></trkpt><trkpt lat="43.0571444" lon="11.6049373"><ele>417.0</ele><time>2026-04-04T15:09:20.584Z</time></trkpt><trkpt lat="43.0571823" lon="11.6050588"><ele>416.0</ele><time>2026-04-04T15:09:21.587Z</time></trkpt><trkpt lat="43.0572301" lon="11.6052029"><ele>415.0</ele><time>2026-04-04T15:09:22.582Z</time></trkpt><trkpt lat="43.0572815" lon="11.6053526"><ele>414.6</ele><time>2026-04-04T15:09:23.588Z</time></trkpt><trkpt lat="43.0573305" lon="11.6054926"><ele>414.2</ele><time>2026-04-04T15:09:24.583Z</time></trkpt><trkpt lat="43.0573782" lon="11.6056266"><ele>413.79999999999995</ele><time>2026-04-04T15:09:25.591Z</time></trkpt><trkpt lat="43.0574176" lon="11.6057534"><ele>413.4</ele><time>2026-04-04T15:09:26.587Z</time></trkpt><trkpt lat="43.0574586" lon="11.6058747"><ele>413.0</ele><time>2026-04-04T15:09:27.589Z</time></trkpt><trkpt lat="43.0574971" lon="11.6059898"><ele>412.99999999999994</ele><time>2026-04-04T15:09:28.584Z</time></trkpt><trkpt lat="43.0575384" lon="11.6060989"><ele>413.0</ele><time>2026-04-04T15:09:29.601Z</time></trkpt><trkpt lat="43.0575777" lon="11.6062055"><ele>413.0</ele><time>2026-04-04T15:09:30.586Z</time></trkpt><trkpt lat="43.0576154" lon="11.6063049"><ele>413.0</ele><time>2026-04-04T15:09:31.591Z</time></trkpt><trkpt lat="43.0576482" lon="11.6064004"><ele>412.99999999999994</ele><time>2026-04-04T15:09:32.596Z</time></trkpt><trkpt lat="43.0576832" lon="11.6064917"><ele>413.0</ele><time>2026-04-04T15:09:33.595Z</time></trkpt><trkpt lat="43.0577193" lon="11.6065745"><ele>412.0</ele><time>2026-04-04T15:09:34.596Z</time></trkpt><trkpt lat="43.0577649" lon="11.6067026"><ele>411.0</ele><time>2026-04-04T15:09:36.592Z</time></trkpt><trkpt lat="43.0577242" lon="11.6068252"><ele>410.0</ele><time>2026-04-04T15:09:38.597Z</time></trkpt><trkpt lat="43.0576714" lon="11.6069259"><ele>409.0</ele><time>2026-04-04T15:09:39.589Z</time></trkpt><trkpt lat="43.0575991" lon="11.6070472"><ele>408.0</ele><time>2026-04-04T15:09:40.586Z</time></trkpt><trkpt lat="43.0575301" lon="11.6071563"><ele>407.3333333333333</ele><time>2026-04-04T15:09:41.589Z</time></trkpt><trkpt lat="43.0574685" lon="11.6072605"><ele>406.66666666666663</ele><time>2026-04-04T15:09:42.589Z</time></trkpt><trkpt lat="43.0574109" lon="11.607359"><ele>406.0</ele><time>2026-04-04T15:09:43.6Z</time></trkpt><trkpt lat="43.0573541" lon="11.6074479"><ele>405.3333333333333</ele><time>2026-04-04T15:09:44.59Z</time></trkpt><trkpt lat="43.057298" lon="11.6075381"><ele>404.66666666666663</ele><time>2026-04-04T15:09:45.587Z</time></trkpt><trkpt lat="43.0572456" lon="11.607632"><ele>404.0</ele><time>2026-04-04T15:09:46.583Z</time></trkpt><trkpt lat="43.0571898" lon="11.6077217"><ele>403.3333333333333</ele><time>2026-04-04T15:09:47.583Z</time></trkpt><trkpt lat="43.0571343" lon="11.6078106"><ele>402.66666666666663</ele><time>2026-04-04T15:09:48.587Z</time></trkpt><trkpt lat="43.0570803" lon="11.6078973"><ele>402.0</ele><time>2026-04-04T15:09:49.598Z</time></trkpt><trkpt lat="43.0570271" lon="11.607983"><ele>401.33333333333337</ele><time>2026-04-04T15:09:50.582Z</time></trkpt><trkpt lat="43.0569746" lon="11.6080672"><ele>400.6666666666667</ele><time>2026-04-04T15:09:51.598Z</time></trkpt><trkpt lat="43.0569251" lon="11.6081505"><ele>400.0</ele><time>2026-04-04T15:09:52.589Z</time></trkpt><trkpt lat="43.0568748" lon="11.6082332"><ele>398.83333333333337</ele><time>2026-04-04T15:09:53.59Z</time></trkpt><trkpt lat="43.056828" lon="11.6083146"><ele>397.6666666666667</ele><time>2026-04-04T15:09:54.594Z</time></trkpt><trkpt lat="43.056782" lon="11.6083949"><ele>396.5</ele><time>2026-04-04T15:09:55.594Z</time></trkpt><trkpt lat="43.0567364" lon="11.6084764"><ele>395.33333333333337</ele><time>2026-04-04T15:09:56.598Z</time></trkpt><trkpt lat="43.0566869" lon="11.608565"><ele>394.1666666666667</ele><time>2026-04-04T15:09:57.585Z</time></trkpt><trkpt lat="43.056635" lon="11.6086583"><ele>393.0</ele><time>2026-04-04T15:09:58.586Z</time></trkpt><trkpt lat="43.0565869" lon="11.6087477"><ele>391.1666666666667</ele><time>2026-04-04T15:09:59.584Z</time></trkpt><trkpt lat="43.0565405" lon="11.608836"><ele>389.3333333333333</ele><time>2026-04-04T15:10:00.59Z</time></trkpt><trkpt lat="43.0565018" lon="11.6089231"><ele>387.5</ele><time>2026-04-04T15:10:01.59Z</time></trkpt><trkpt lat="43.0564569" lon="11.6090156"><ele>385.66666666666663</ele><time>2026-04-04T15:10:02.583Z</time></trkpt><trkpt lat="43.0564097" lon="11.6091125"><ele>383.8333333333333</ele><time>2026-04-04T15:10:03.59Z</time></trkpt><trkpt lat="43.0563585" lon="11.6092122"><ele>382.0</ele><time>2026-04-04T15:10:04.59Z</time></trkpt><trkpt lat="43.056312" lon="11.609298"><ele>382.0</ele><time>2026-04-04T15:10:05.591Z</time></trkpt><trkpt lat="43.0562626" lon="11.609363"><ele>382.0</ele><time>2026-04-04T15:10:06.592Z</time></trkpt><trkpt lat="43.0561825" lon="11.609462"><ele>382.0</ele><time>2026-04-04T15:10:08.59Z</time></trkpt><trkpt lat="43.0561343" lon="11.609542"><ele>382.0</ele><time>2026-04-04T15:10:10.599Z</time></trkpt><trkpt lat="43.0560704" lon="11.6096135"><ele>382.0</ele><time>2026-04-04T15:10:13.584Z</time></trkpt><trkpt lat="43.0560189" lon="11.6096888"><ele>382.0</ele><time>2026-04-04T15:10:15.588Z</time></trkpt><trkpt lat="43.0559652" lon="11.609813"><ele>381.16666666666663</ele><time>2026-04-04T15:10:17.578Z</time></trkpt><trkpt lat="43.0559219" lon="11.6099014"><ele>380.3333333333333</ele><time>2026-04-04T15:10:19.597Z</time></trkpt><trkpt lat="43.0558845" lon="11.60999"><ele>379.5</ele><time>2026-04-04T15:10:22.592Z</time></trkpt><trkpt lat="43.0558107" lon="11.6100179"><ele>378.6666666666667</ele><time>2026-04-04T15:10:28.584Z</time></trkpt><trkpt lat="43.0557469" lon="11.6099705"><ele>377.83333333333337</ele><time>2026-04-04T15:10:29.592Z</time></trkpt><trkpt lat="43.0556656" lon="11.6099008"><ele>377.0</ele><time>2026-04-04T15:10:30.586Z</time></trkpt><trkpt lat="43.0555603" lon="11.6098152"><ele>376.5</ele><time>2026-04-04T15:10:31.593Z</time></trkpt><trkpt lat="43.0554526" lon="11.6097121"><ele>376.0</ele><time>2026-04-04T15:10:32.58Z</time></trkpt><trkpt lat="43.0553569" lon="11.6096215"><ele>375.5</ele><time>2026-04-04T15:10:33.58Z</time></trkpt><trkpt lat="43.0552569" lon="11.6095382"><ele>375.0</ele><time>2026-04-04T15:10:34.587Z</time></trkpt><trkpt lat="43.0551544" lon="11.609448"><ele>375.0</ele><time>2026-04-04T15:10:35.591Z</time></trkpt><trkpt lat="43.0550436" lon="11.6093553"><ele>375.0</ele><time>2026-04-04T15:10:36.594Z</time></trkpt><trkpt lat="43.0549244" lon="11.6092627"><ele>375.0</ele><time>2026-04-04T15:10:37.59Z</time></trkpt><trkpt lat="43.0548147" lon="11.6091718"><ele>375.0</ele><time>2026-04-04T15:10:38.58Z</time></trkpt><trkpt lat="43.0547008" lon="11.6090719"><ele>372.0</ele><time>2026-04-04T15:10:39.584Z</time></trkpt><trkpt lat="43.0545829" lon="11.6089698"><ele>369.0</ele><time>2026-04-04T15:10:40.593Z</time></trkpt><trkpt lat="43.0544724" lon="11.6088754"><ele>366.0</ele><time>2026-04-04T15:10:41.591Z</time></trkpt><trkpt lat="43.0543646" lon="11.6087833"><ele>363.0</ele><time>2026-04-04T15:10:42.586Z</time></trkpt><trkpt lat="43.0542681" lon="11.6087019"><ele>363.2</ele><time>2026-04-04T15:10:43.586Z</time></trkpt><trkpt lat="43.0541774" lon="11.6086278"><ele>363.4</ele><time>2026-04-04T15:10:44.579Z</time></trkpt><trkpt lat="43.0540907" lon="11.6085574"><ele>363.59999999999997</ele><time>2026-04-04T15:10:45.583Z</time></trkpt><trkpt lat="43.0540097" lon="11.6084895"><ele>363.79999999999995</ele><time>2026-04-04T15:10:46.585Z</time></trkpt><trkpt lat="43.0539387" lon="11.6084341"><ele>364.0</ele><time>2026-04-04T15:10:47.595Z</time></trkpt><trkpt lat="43.0538755" lon="11.6083928"><ele>364.0</ele><time>2026-04-04T15:10:48.6Z</time></trkpt><trkpt lat="43.0538155" lon="11.6083612"><ele>364.0</ele><time>2026-04-04T15:10:49.587Z</time></trkpt><trkpt lat="43.0537239" lon="11.6083104"><ele>364.0</ele><time>2026-04-04T15:10:51.584Z</time></trkpt></trkseg><trkseg><trkpt lat="43.0256743" lon="11.6192728"><ele>249.0</ele><time>2026-04-04T16:51:17.598Z</time></trkpt><trkpt lat="43.0256907" lon="11.6193691"><ele>248.99999999999997</ele><time>2026-04-04T16:51:18.599Z</time></trkpt><trkpt lat="43.0257215" lon="11.6194897"><ele>248.99999999999997</ele><time>2026-04-04T16:51:19.598Z</time></trkpt><trkpt lat="43.025773" lon="11.6196125"><ele>249.0</ele><time>2026-04-04T16:51:20.601Z</time></trkpt><trkpt lat="43.0258401" lon="11.6197379"><ele>249.0</ele><time>2026-04-04T16:51:21.598Z</time></trkpt><trkpt lat="43.0258977" lon="11.6198321"><ele>249.83333333333334</ele><time>2026-04-04T16:51:22.605Z</time></trkpt><trkpt lat="43.0259398" lon="11.6199029"><ele>250.66666666666669</ele><time>2026-04-04T16:51:23.591Z</time></trkpt><trkpt lat="43.0259847" lon="11.6199864"><ele>251.5</ele><time>2026-04-04T16:51:25.59Z</time></trkpt><trkpt lat="43.0260798" lon="11.6200678"><ele>252.33333333333334</ele><time>2026-04-04T16:52:17.608Z</time></trkpt><trkpt lat="43.0261503" lon="11.6201042"><ele>253.16666666666669</ele><time>2026-04-04T16:52:18.603Z</time></trkpt><trkpt lat="43.0262325" lon="11.6201368"><ele>254.0</ele><time>2026-04-04T16:52:19.6Z</time></trkpt><trkpt lat="43.026317" lon="11.6201612"><ele>254.00000000000003</ele><time>2026-04-04T16:52:20.605Z</time></trkpt><trkpt lat="43.0263999" lon="11.6201827"><ele>254.0</ele><time>2026-04-04T16:52:21.596Z</time></trkpt><trkpt lat="43.0264628" lon="11.6202074"><ele>254.0</ele><time>2026-04-04T16:52:22.596Z</time></trkpt><trkpt lat="43.0265475" lon="11.6202567"><ele>254.0</ele><time>2026-04-04T16:52:24.595Z</time></trkpt><trkpt lat="43.0265699" lon="11.6203488"><ele>254.00000000000003</ele><time>2026-04-04T16:52:35.61Z</time></trkpt><trkpt lat="43.0266526" lon="11.6202983"><ele>254.0</ele><time>2026-04-04T16:52:40.605Z</time></trkpt><trkpt lat="43.02674" lon="11.6203216"><ele>255.16666666666669</ele><time>2026-04-04T16:52:42.604Z</time></trkpt><trkpt lat="43.0268032" lon="11.6203456"><ele>256.33333333333337</ele><time>2026-04-04T16:52:43.596Z</time></trkpt><trkpt lat="43.0268921" lon="11.6203768"><ele>257.5</ele><time>2026-04-04T16:52:44.6Z</time></trkpt><trkpt lat="43.0269865" lon="11.6204175"><ele>258.6666666666667</ele><time>2026-04-04T16:52:45.601Z</time></trkpt><trkpt lat="43.0270759" lon="11.6204656"><ele>259.8333333333333</ele><time>2026-04-04T16:52:46.597Z</time></trkpt><trkpt lat="43.0271516" lon="11.6205116"><ele>261.0</ele><time>2026-04-04T16:52:47.607Z</time></trkpt><trkpt lat="43.0272193" lon="11.6205677"><ele>261.0</ele><time>2026-04-04T16:52:48.602Z</time></trkpt><trkpt lat="43.0272902" lon="11.620636"><ele>261.0</ele><time>2026-04-04T16:52:49.614Z</time></trkpt><trkpt lat="43.0273618" lon="11.6207179"><ele>261.0</ele><time>2026-04-04T16:52:50.604Z</time></trkpt><trkpt lat="43.027435" lon="11.6208055"><ele>261.0</ele><time>2026-04-04T16:52:51.603Z</time></trkpt><trkpt lat="43.0275072" lon="11.6208921"><ele>261.0</ele><time>2026-04-04T16:52:52.603Z</time></trkpt><trkpt lat="43.0275683" lon="11.6209701"><ele>262.5</ele><time>2026-04-04T16:52:53.606Z</time></trkpt><trkpt lat="43.0276301" lon="11.6210557"><ele>264.0</ele><time>2026-04-04T16:52:54.604Z</time></trkpt><trkpt lat="43.0276718" lon="11.6211299"><ele>265.5</ele><time>2026-04-04T16:52:55.603Z</time></trkpt><trkpt lat="43.0277096" lon="11.6212975"><ele>267.0</ele><time>2026-04-04T16:52:57.602Z</time></trkpt><trkpt lat="43.0277163" lon="11.6213988"><ele>268.5</ele><time>2026-04-04T16:52:58.605Z</time></trkpt><trkpt lat="43.0277263" lon="11.621517"><ele>270.0</ele><time>2026-04-04T16:52:59.606Z</time></trkpt><trkpt lat="43.0277453" lon="11.6216532"><ele>270.0</ele><time>2026-04-04T16:53:00.603Z</time></trkpt><trkpt lat="43.0277721" lon="11.6218098"><ele>270.0</ele><time>2026-04-04T16:53:01.604Z</time></trkpt><trkpt lat="43.0278033" lon="11.6219768"><ele>270.0</ele><time>2026-04-04T16:53:02.596Z</time></trkpt><trkpt lat="43.0278321" lon="11.6221276"><ele>270.0</ele><time>2026-04-04T16:53:03.593Z</time></trkpt><trkpt lat="43.0278603" lon="11.6222524"><ele>268.8</ele><time>2026-04-04T16:53:04.599Z</time></trkpt><trkpt lat="43.0278851" lon="11.622352"><ele>267.6</ele><time>2026-04-04T16:53:05.596Z</time></trkpt><trkpt lat="43.0279279" lon="11.6225101"><ele>266.4</ele><time>2026-04-04T16:53:07.604Z</time></trkpt><trkpt lat="43.02797" lon="11.622674"><ele>265.2</ele><time>2026-04-04T16:53:09.597Z</time></trkpt><trkpt lat="43.0279929" lon="11.6227831"><ele>264.0</ele><time>2026-04-04T16:53:11.587Z</time></trkpt><trkpt lat="43.0280008" lon="11.6228803"><ele>262.8</ele><time>2026-04-04T16:53:13.593Z</time></trkpt><trkpt lat="43.0279714" lon="11.6230326"><ele>261.59999999999997</ele><time>2026-04-04T16:53:15.596Z</time></trkpt><trkpt lat="43.0279533" lon="11.6231333"><ele>260.4</ele><time>2026-04-04T16:53:16.593Z</time></trkpt><trkpt lat="43.0279393" lon="11.6232479"><ele>259.2</ele><time>2026-04-04T16:53:17.609Z</time></trkpt><trkpt lat="43.0279235" lon="11.6233838"><ele>258.0</ele><time>2026-04-04T16:53:18.599Z</time></trkpt><trkpt lat="43.0279166" lon="11.6235331"><ele>257.8</ele><time>2026-04-04T16:53:19.594Z</time></trkpt><trkpt lat="43.0279198" lon="11.623676"><ele>257.6</ele><time>2026-04-04T16:53:20.595Z</time></trkpt><trkpt lat="43.0279309" lon="11.6238279"><ele>257.4</ele><time>2026-04-04T16:53:21.602Z</time></trkpt><trkpt lat="43.0279477" lon="11.6239763"><ele>257.2</ele><time>2026-04-04T16:53:22.6Z</time></trkpt><trkpt lat="43.0279717" lon="11.6241159"><ele>257.0</ele><time>2026-04-04T16:53:23.605Z</time></trkpt><trkpt lat="43.0280009" lon="11.6242484"><ele>257.0</ele><time>2026-04-04T16:53:24.602Z</time></trkpt><trkpt lat="43.0280364" lon="11.624371"><ele>257.0</ele><time>2026-04-04T16:53:25.601Z</time></trkpt><trkpt lat="43.0280737" lon="11.6244837"><ele>257.0</ele><time>2026-04-04T16:53:26.599Z</time></trkpt><trkpt lat="43.0281121" lon="11.6245894"><ele>257.0</ele><time>2026-04-04T16:53:27.605Z</time></trkpt><trkpt lat="43.0281466" lon="11.6246905"><ele>257.0</ele><time>2026-04-04T16:53:28.595Z</time></trkpt><trkpt lat="43.0281778" lon="11.624788"><ele>257.0</ele><time>2026-04-04T16:53:29.588Z</time></trkpt><trkpt lat="43.0282105" lon="11.6248826"><ele>257.2</ele><time>2026-04-04T16:53:30.603Z</time></trkpt><trkpt lat="43.0282437" lon="11.6249762"><ele>257.4</ele><time>2026-04-04T16:53:31.589Z</time></trkpt><trkpt lat="43.0282634" lon="11.6250622"><ele>257.6</ele><time>2026-04-04T16:53:32.601Z</time></trkpt><trkpt lat="43.0282691" lon="11.625166"><ele>257.8</ele><time>2026-04-04T16:53:34.595Z</time></trkpt><trkpt lat="43.0282146" lon="11.6253064"><ele>258.0</ele><time>2026-04-04T16:54:06.607Z</time></trkpt><trkpt lat="43.0281163" lon="11.625423"><ele>258.8333333333333</ele><time>2026-04-04T16:54:08.606Z</time></trkpt><trkpt lat="43.0280585" lon="11.6254867"><ele>259.6666666666667</ele><time>2026-04-04T16:54:09.597Z</time></trkpt><trkpt lat="43.0279941" lon="11.6255561"><ele>260.5</ele><time>2026-04-04T16:54:10.603Z</time></trkpt><trkpt lat="43.0279231" lon="11.6256284"><ele>261.33333333333337</ele><time>2026-04-04T16:54:11.597Z</time></trkpt><trkpt lat="43.0278521" lon="11.6257088"><ele>262.1666666666667</ele><time>2026-04-04T16:54:12.588Z</time></trkpt><trkpt lat="43.0277781" lon="11.62579"><ele>263.0</ele><time>2026-04-04T16:54:13.601Z</time></trkpt><trkpt lat="43.0277077" lon="11.6258789"><ele>263.0</ele><time>2026-04-04T16:54:14.599Z</time></trkpt><trkpt lat="43.0276495" lon="11.6259698"><ele>263.0</ele><time>2026-04-04T16:54:15.591Z</time></trkpt><trkpt lat="43.0276116" lon="11.6260672"><ele>263.0</ele><time>2026-04-04T16:54:16.59Z</time></trkpt><trkpt lat="43.0275981" lon="11.6261721"><ele>263.0</ele><time>2026-04-04T16:54:17.601Z</time></trkpt><trkpt lat="43.0276106" lon="11.6262842"><ele>263.0</ele><time>2026-04-04T16:54:18.599Z</time></trkpt><trkpt lat="43.0276262" lon="11.6264015"><ele>263.0</ele><time>2026-04-04T16:54:19.607Z</time></trkpt><trkpt lat="43.027637" lon="11.6265213"><ele>264.6</ele><time>2026-04-04T16:54:20.593Z</time></trkpt><trkpt lat="43.0276425" lon="11.626645"><ele>266.20000000000005</ele><time>2026-04-04T16:54:21.593Z</time></trkpt><trkpt lat="43.0276376" lon="11.6267692"><ele>267.8</ele><time>2026-04-04T16:54:22.605Z</time></trkpt><trkpt lat="43.0276145" lon="11.6268893"><ele>269.40000000000003</ele><time>2026-04-04T16:54:23.598Z</time></trkpt><trkpt lat="43.0275767" lon="11.6270037"><ele>271.0</ele><time>2026-04-04T16:54:24.597Z</time></trkpt><trkpt lat="43.0275313" lon="11.627116"><ele>271.0</ele><time>2026-04-04T16:54:25.588Z</time></trkpt><trkpt lat="43.0274853" lon="11.6272324"><ele>271.0</ele><time>2026-04-04T16:54:26.594Z</time></trkpt><trkpt lat="43.0274325" lon="11.6273498"><ele>271.0</ele><time>2026-04-04T16:54:27.6Z</time></trkpt><trkpt lat="43.0273782" lon="11.6274489"><ele>271.0</ele><time>2026-04-04T16:54:28.602Z</time></trkpt><trkpt lat="43.0273233" lon="11.6275267"><ele>271.0</ele><time>2026-04-04T16:54:29.595Z</time></trkpt><trkpt lat="43.0272585" lon="11.6275907"><ele>271.0</ele><time>2026-04-04T16:54:30.601Z</time></trkpt><trkpt lat="43.0271815" lon="11.6276386"><ele>273.0</ele><time>2026-04-04T16:54:31.588Z</time></trkpt><trkpt lat="43.0270925" lon="11.6276685"><ele>275.0</ele><time>2026-04-04T16:54:32.593Z</time></trkpt><trkpt lat="43.0269833" lon="11.62769"><ele>277.0</ele><time>2026-04-04T16:54:33.606Z</time></trkpt><trkpt lat="43.0268535" lon="11.6277088"><ele>279.0</ele><time>2026-04-04T16:54:34.617Z</time></trkpt><trkpt lat="43.026703" lon="11.6277362"><ele>280.0</ele><time>2026-04-04T16:54:35.593Z</time></trkpt><trkpt lat="43.0265364" lon="11.6277669"><ele>281.0</ele><time>2026-04-04T16:54:36.602Z</time></trkpt><trkpt lat="43.0263667" lon="11.6277958"><ele>282.0</ele><time>2026-04-04T16:54:37.6Z</time></trkpt><trkpt lat="43.0262119" lon="11.6278205"><ele>281.25</ele><time>2026-04-04T16:54:38.601Z</time></trkpt><trkpt lat="43.0260712" lon="11.627848"><ele>280.5</ele><time>2026-04-04T16:54:39.594Z</time></trkpt><trkpt lat="43.0259473" lon="11.6278887"><ele>279.75</ele><time>2026-04-04T16:54:40.613Z</time></trkpt><trkpt lat="43.0258334" lon="11.6279557"><ele>279.0</ele><time>2026-04-04T16:54:41.595Z</time></trkpt><trkpt lat="43.0257314" lon="11.6280609"><ele>279.0</ele><time>2026-04-04T16:54:42.593Z</time></trkpt><trkpt lat="43.025642" lon="11.6282104"><ele>279.0</ele><time>2026-04-04T16:54:43.593Z</time></trkpt><trkpt lat="43.0255532" lon="11.6283934"><ele>279.0</ele><time>2026-04-04T16:54:44.601Z</time></trkpt><trkpt lat="43.0254492" lon="11.6286023"><ele>276.3333333333333</ele><time>2026-04-04T16:54:45.605Z</time></trkpt><trkpt lat="43.0253344" lon="11.6288149"><ele>273.66666666666663</ele><time>2026-04-04T16:54:46.605Z</time></trkpt><trkpt lat="43.0252178" lon="11.6290395"><ele>271.0</ele><time>2026-04-04T16:54:47.587Z</time></trkpt><trkpt lat="43.0251104" lon="11.6292489"><ele>271.0</ele><time>2026-04-04T16:54:48.595Z</time></trkpt><trkpt lat="43.0250069" lon="11.6294514"><ele>271.0</ele><time>2026-04-04T16:54:49.602Z</time></trkpt><trkpt lat="43.0249102" lon="11.6296471"><ele>271.0</ele><time>2026-04-04T16:54:50.603Z</time></trkpt><trkpt lat="43.0248227" lon="11.6298342"><ele>269.0</ele><time>2026-04-04T16:54:51.589Z</time></trkpt><trkpt lat="43.0247587" lon="11.6300293"><ele>267.0</ele><time>2026-04-04T16:54:52.586Z</time></trkpt><trkpt lat="43.0247183" lon="11.6302462"><ele>265.0</ele><time>2026-04-04T16:54:53.599Z</time></trkpt><trkpt lat="43.0246961" lon="11.6304783"><ele>264.75</ele><time>2026-04-04T16:54:54.594Z</time></trkpt><trkpt lat="43.0246841" lon="11.6306915"><ele>264.5</ele><time>2026-04-04T16:54:55.599Z</time></trkpt><trkpt lat="43.0246646" lon="11.6308881"><ele>264.25</ele><time>2026-04-04T16:54:56.593Z</time></trkpt><trkpt lat="43.0246222" lon="11.6310744"><ele>264.0</ele><time>2026-04-04T16:54:57.595Z</time></trkpt><trkpt lat="43.0245406" lon="11.6312305"><ele>264.0</ele><time>2026-04-04T16:54:58.614Z</time></trkpt><trkpt lat="43.0244234" lon="11.6313654"><ele>264.0</ele><time>2026-04-04T16:54:59.595Z</time></trkpt><trkpt lat="43.024285" lon="11.6314865"><ele>264.0</ele><time>2026-04-04T16:55:00.596Z</time></trkpt><trkpt lat="43.0241367" lon="11.6316261"><ele>264.6666666666667</ele><time>2026-04-04T16:55:01.604Z</time></trkpt><trkpt lat="43.0239783" lon="11.6317707"><ele>265.33333333333337</ele><time>2026-04-04T16:55:02.604Z</time></trkpt><trkpt lat="43.023829" lon="11.6318997"><ele>266.0</ele><time>2026-04-04T16:55:03.599Z</time></trkpt><trkpt lat="43.0236924" lon="11.6320237"><ele>266.5</ele><time>2026-04-04T16:55:04.604Z</time></trkpt><trkpt lat="43.0235661" lon="11.6321384"><ele>267.0</ele><time>2026-04-04T16:55:05.598Z</time></trkpt><trkpt lat="43.0234467" lon="11.6322383"><ele>267.5</ele><time>2026-04-04T16:55:06.605Z</time></trkpt><trkpt lat="43.0233383" lon="11.6323321"><ele>268.0</ele><time>2026-04-04T16:55:07.594Z</time></trkpt><trkpt lat="43.0232352" lon="11.6324078"><ele>268.25</ele><time>2026-04-04T16:55:08.607Z</time></trkpt><trkpt lat="43.0231252" lon="11.6324498"><ele>268.5</ele><time>2026-04-04T16:55:09.592Z</time></trkpt><trkpt lat="43.0230087" lon="11.6324755"><ele>268.75</ele><time>2026-04-04T16:55:10.588Z</time></trkpt><trkpt lat="43.0228901" lon="11.6325138"><ele>269.0</ele><time>2026-04-04T16:55:11.6Z</time></trkpt><trkpt lat="43.0227683" lon="11.6325789"><ele>269.0</ele><time>2026-04-04T16:55:12.604Z</time></trkpt><trkpt lat="43.0226479" lon="11.6326799"><ele>269.0</ele><time>2026-04-04T16:55:13.608Z</time></trkpt><trkpt lat="43.0225426" lon="11.6328171"><ele>269.0</ele><time>2026-04-04T16:55:14.598Z</time></trkpt><trkpt lat="43.022448" lon="11.6329775"><ele>269.0</ele><time>2026-04-04T16:55:15.597Z</time></trkpt><trkpt lat="43.0223729" lon="11.6331524"><ele>271.0</ele><time>2026-04-04T16:55:16.597Z</time></trkpt><trkpt lat="43.022328" lon="11.6333401"><ele>273.0</ele><time>2026-04-04T16:55:17.599Z</time></trkpt><trkpt lat="43.022299" lon="11.6335451"><ele>275.0</ele><time>2026-04-04T16:55:18.607Z</time></trkpt><trkpt lat="43.0222687" lon="11.6337626"><ele>276.33333333333337</ele><time>2026-04-04T16:55:19.595Z</time></trkpt><trkpt lat="43.0222326" lon="11.6339907"><ele>277.6666666666667</ele><time>2026-04-04T16:55:20.606Z</time></trkpt><trkpt lat="43.0221932" lon="11.6342301"><ele>279.0</ele><time>2026-04-04T16:55:21.594Z</time></trkpt><trkpt lat="43.0221531" lon="11.6344833"><ele>280.0</ele><time>2026-04-04T16:55:22.596Z</time></trkpt><trkpt lat="43.0221163" lon="11.6347274"><ele>281.0</ele><time>2026-04-04T16:55:23.597Z</time></trkpt><trkpt lat="43.0220852" lon="11.6349474"><ele>282.0</ele><time>2026-04-04T16:55:24.603Z</time></trkpt><trkpt lat="43.022058" lon="11.6351474"><ele>282.5</ele><time>2026-04-04T16:55:25.602Z</time></trkpt><trkpt lat="43.0220321" lon="11.6353299"><ele>283.0</ele><time>2026-04-04T16:55:26.603Z</time></trkpt><trkpt lat="43.0220053" lon="11.6355097"><ele>283.5</ele><time>2026-04-04T16:55:27.604Z</time></trkpt><trkpt lat="43.0219814" lon="11.6356717"><ele>284.0</ele><time>2026-04-04T16:55:28.609Z</time></trkpt><trkpt lat="43.0219575" lon="11.635816"><ele>284.0</ele><time>2026-04-04T16:55:29.591Z</time></trkpt><trkpt lat="43.0219362" lon="11.6359516"><ele>284.0</ele><time>2026-04-04T16:55:30.603Z</time></trkpt><trkpt lat="43.0219201" lon="11.6360962"><ele>284.0</ele><time>2026-04-04T16:55:31.598Z</time></trkpt><trkpt lat="43.0219012" lon="11.6362382"><ele>284.0</ele><time>2026-04-04T16:55:32.6Z</time></trkpt><trkpt lat="43.0218807" lon="11.6363656"><ele>284.0</ele><time>2026-04-04T16:55:33.6Z</time></trkpt><trkpt lat="43.0218624" lon="11.6364695"><ele>284.5</ele><time>2026-04-04T16:55:34.597Z</time></trkpt><trkpt lat="43.0218389" lon="11.6366147"><ele>285.0</ele><time>2026-04-04T16:55:36.595Z</time></trkpt><trkpt lat="43.0218164" lon="11.6367214"><ele>285.5</ele><time>2026-04-04T16:55:39.601Z</time></trkpt><trkpt lat="43.0218544" lon="11.6367989"><ele>286.0</ele><time>2026-04-04T16:55:42.596Z</time></trkpt><trkpt lat="43.0219175" lon="11.6368141"><ele>286.5</ele><time>2026-04-04T16:55:44.604Z</time></trkpt><trkpt lat="43.0219865" lon="11.63684"><ele>287.0</ele><time>2026-04-04T16:55:47.604Z</time></trkpt><trkpt lat="43.0220344" lon="11.6369034"><ele>287.0</ele><time>2026-04-04T16:56:19.589Z</time></trkpt><trkpt lat="43.0219496" lon="11.6368891"><ele>287.0</ele><time>2026-04-04T16:56:24.607Z</time></trkpt><trkpt lat="43.0218622" lon="11.6368855"><ele>287.0</ele><time>2026-04-04T16:56:27.605Z</time></trkpt><trkpt lat="43.0218081" lon="11.6369771"><ele>287.0</ele><time>2026-04-04T16:56:29.596Z</time></trkpt><trkpt lat="43.0217732" lon="11.6370657"><ele>287.0</ele><time>2026-04-04T16:56:30.595Z</time></trkpt><trkpt lat="43.0217384" lon="11.6371906"><ele>287.0</ele><time>2026-04-04T16:56:31.587Z</time></trkpt><trkpt lat="43.0217132" lon="11.6373557"><ele>286.6666666666667</ele><time>2026-04-04T16:56:32.602Z</time></trkpt><trkpt lat="43.021684" lon="11.6375529"><ele>286.3333333333333</ele><time>2026-04-04T16:56:33.596Z</time></trkpt><trkpt lat="43.021647" lon="11.6377827"><ele>286.0</ele><time>2026-04-04T16:56:34.599Z</time></trkpt><trkpt lat="43.0216063" lon="11.6380337"><ele>285.66666666666663</ele><time>2026-04-04T16:56:35.589Z</time></trkpt><trkpt lat="43.0215641" lon="11.638303"><ele>285.3333333333333</ele><time>2026-04-04T16:56:36.601Z</time></trkpt><trkpt lat="43.0215219" lon="11.6385816"><ele>285.0</ele><time>2026-04-04T16:56:37.593Z</time></trkpt><trkpt lat="43.0214826" lon="11.6388397"><ele>285.0</ele><time>2026-04-04T16:56:38.62Z</time></trkpt><trkpt lat="43.0214438" lon="11.6390814"><ele>285.0</ele><time>2026-04-04T16:56:39.596Z</time></trkpt><trkpt lat="43.0214067" lon="11.6393106"><ele>285.0</ele><time>2026-04-04T16:56:40.599Z</time></trkpt><trkpt lat="43.0213627" lon="11.6395191"><ele>284.75</ele><time>2026-04-04T16:56:41.596Z</time></trkpt><trkpt lat="43.0213106" lon="11.6397116"><ele>284.5</ele><time>2026-04-04T16:56:42.597Z</time></trkpt><trkpt lat="43.0212545" lon="11.6398943"><ele>284.25</ele><time>2026-04-04T16:56:43.592Z</time></trkpt><trkpt lat="43.021195" lon="11.6400612"><ele>284.0</ele><time>2026-04-04T16:56:44.604Z</time></trkpt><trkpt lat="43.0211317" lon="11.6402215"><ele>283.25</ele><time>2026-04-04T16:56:45.598Z</time></trkpt><trkpt lat="43.0210592" lon="11.6403654"><ele>282.5</ele><time>2026-04-04T16:56:46.6Z</time></trkpt><trkpt lat="43.0209815" lon="11.6404983"><ele>281.75</ele><time>2026-04-04T16:56:47.598Z</time></trkpt><trkpt lat="43.0209001" lon="11.6406239"><ele>281.0</ele><time>2026-04-04T16:56:48.589Z</time></trkpt><trkpt lat="43.0208233" lon="11.6407452"><ele>279.8</ele><time>2026-04-04T16:56:49.598Z</time></trkpt><trkpt lat="43.02075" lon="11.640866"><ele>278.6</ele><time>2026-04-04T16:56:50.592Z</time></trkpt><trkpt lat="43.0206788" lon="11.6409881"><ele>277.4</ele><time>2026-04-04T16:56:51.594Z</time></trkpt><trkpt lat="43.0206085" lon="11.6410966"><ele>276.2</ele><time>2026-04-04T16:56:52.594Z</time></trkpt><trkpt lat="43.0205375" lon="11.6412138"><ele>275.0</ele><time>2026-04-04T16:56:53.6Z</time></trkpt><trkpt lat="43.0204588" lon="11.6413418"><ele>274.5</ele><time>2026-04-04T16:56:54.6Z</time></trkpt><trkpt lat="43.0203735" lon="11.6414771"><ele>274.0</ele><time>2026-04-04T16:56:55.598Z</time></trkpt><trkpt lat="43.0202839" lon="11.6416199"><ele>273.5</ele><time>2026-04-04T16:56:56.6Z</time></trkpt><trkpt lat="43.0201896" lon="11.641769"><ele>273.0</ele><time>2026-04-04T16:56:57.598Z</time></trkpt><trkpt lat="43.0200964" lon="11.6419155"><ele>272.5</ele><time>2026-04-04T16:56:58.6Z</time></trkpt><trkpt lat="43.020005" lon="11.6420635"><ele>272.0</ele><time>2026-04-04T16:56:59.598Z</time></trkpt><trkpt lat="43.019926" lon="11.6422133"><ele>271.5</ele><time>2026-04-04T16:57:00.594Z</time></trkpt><trkpt lat="43.0198627" lon="11.6423775"><ele>271.0</ele><time>2026-04-04T16:57:01.607Z</time></trkpt><trkpt lat="43.0198229" lon="11.6425525"><ele>271.0</ele><time>2026-04-04T16:57:02.597Z</time></trkpt><trkpt lat="43.019812" lon="11.6427313"><ele>271.0</ele><time>2026-04-04T16:57:03.602Z</time></trkpt><trkpt lat="43.0198155" lon="11.642922"><ele>271.0</ele><time>2026-04-04T16:57:04.601Z</time></trkpt><trkpt lat="43.0198257" lon="11.6431355"><ele>271.0</ele><time>2026-04-04T16:57:05.596Z</time></trkpt><trkpt lat="43.0198425" lon="11.6433686"><ele>270.3333333333333</ele><time>2026-04-04T16:57:06.604Z</time></trkpt><trkpt lat="43.019862" lon="11.6436254"><ele>269.6666666666667</ele><time>2026-04-04T16:57:07.602Z</time></trkpt><trkpt lat="43.0198853" lon="11.643901"><ele>269.0</ele><time>2026-04-04T16:57:08.595Z</time></trkpt><trkpt lat="43.0199171" lon="11.6441924"><ele>268.5</ele><time>2026-04-04T16:57:09.591Z</time></trkpt><trkpt lat="43.0199572" lon="11.644502"><ele>268.0</ele><time>2026-04-04T16:57:10.596Z</time></trkpt><trkpt lat="43.0200017" lon="11.6448201"><ele>268.0</ele><time>2026-04-04T16:57:11.593Z</time></trkpt><trkpt lat="43.020045" lon="11.6451481"><ele>268.0</ele><time>2026-04-04T16:57:12.589Z</time></trkpt><trkpt lat="43.0200924" lon="11.6454867"><ele>268.0</ele><time>2026-04-04T16:57:13.594Z</time></trkpt><trkpt lat="43.0201434" lon="11.645839"><ele>268.0</ele><time>2026-04-04T16:57:14.599Z</time></trkpt><trkpt lat="43.0201933" lon="11.6461994"><ele>270.0</ele><time>2026-04-04T16:57:15.605Z</time></trkpt><trkpt lat="43.0202442" lon="11.6465539"><ele>272.0</ele><time>2026-04-04T16:57:16.607Z</time></trkpt><trkpt lat="43.0202911" lon="11.6468797"><ele>274.0</ele><time>2026-04-04T16:57:17.602Z</time></trkpt><trkpt lat="43.0203375" lon="11.64719"><ele>276.0</ele><time>2026-04-04T16:57:18.605Z</time></trkpt><trkpt lat="43.0203827" lon="11.647496"><ele>276.6666666666667</ele><time>2026-04-04T16:57:19.596Z</time></trkpt><trkpt lat="43.0204255" lon="11.6478009"><ele>277.33333333333337</ele><time>2026-04-04T16:57:20.607Z</time></trkpt><trkpt lat="43.0204641" lon="11.6480912"><ele>278.0</ele><time>2026-04-04T16:57:21.596Z</time></trkpt><trkpt lat="43.020498" lon="11.6483607"><ele>278.0</ele><time>2026-04-04T16:57:22.605Z</time></trkpt><trkpt lat="43.0205247" lon="11.6486118"><ele>278.0</ele><time>2026-04-04T16:57:23.595Z</time></trkpt><trkpt lat="43.0205432" lon="11.6488422"><ele>278.0</ele><time>2026-04-04T16:57:24.604Z</time></trkpt><trkpt lat="43.0205482" lon="11.6490497"><ele>277.75</ele><time>2026-04-04T16:57:25.603Z</time></trkpt><trkpt lat="43.0205432" lon="11.6492407"><ele>277.5</ele><time>2026-04-04T16:57:26.613Z</time></trkpt><trkpt lat="43.0205279" lon="11.6494162"><ele>277.25</ele><time>2026-04-04T16:57:27.602Z</time></trkpt><trkpt lat="43.0205073" lon="11.6495833"><ele>277.0</ele><time>2026-04-04T16:57:28.597Z</time></trkpt><trkpt lat="43.0204807" lon="11.6497209"><ele>277.3333333333333</ele><time>2026-04-04T16:57:29.613Z</time></trkpt><trkpt lat="43.0204615" lon="11.6498171"><ele>277.66666666666663</ele><time>2026-04-04T16:57:30.601Z</time></trkpt><trkpt lat="43.0204725" lon="11.6499303"><ele>278.0</ele><time>2026-04-04T16:57:32.599Z</time></trkpt><trkpt lat="43.0205523" lon="11.6499405"><ele>278.3333333333333</ele><time>2026-04-04T16:57:35.598Z</time></trkpt><trkpt lat="43.020613" lon="11.6498955"><ele>278.6666666666667</ele><time>2026-04-04T16:57:37.613Z</time></trkpt><trkpt lat="43.0206846" lon="11.6498227"><ele>279.0</ele><time>2026-04-04T16:57:39.612Z</time></trkpt><trkpt lat="43.0207692" lon="11.6497351"><ele>279.0</ele><time>2026-04-04T16:57:41.6Z</time></trkpt><trkpt lat="43.0208593" lon="11.6496449"><ele>279.0</ele><time>2026-04-04T16:57:43.602Z</time></trkpt><trkpt lat="43.0209281" lon="11.6495794"><ele>279.0</ele><time>2026-04-04T16:57:45.599Z</time></trkpt><trkpt lat="43.0209833" lon="11.6495221"><ele>279.0</ele><time>2026-04-04T16:57:47.592Z</time></trkpt><trkpt lat="43.0210341" lon="11.6494584"><ele>279.0</ele><time>2026-04-04T16:57:49.598Z</time></trkpt><trkpt lat="43.0210954" lon="11.6493991"><ele>279.0</ele><time>2026-04-04T16:57:51.597Z</time></trkpt><trkpt lat="43.0211642" lon="11.6493343"><ele>279.0</ele><time>2026-04-04T16:57:53.604Z</time></trkpt><trkpt lat="43.0212329" lon="11.6492761"><ele>279.0</ele><time>2026-04-04T16:57:55.6Z</time></trkpt><trkpt lat="43.0212845" lon="11.649193"><ele>279.0</ele><time>2026-04-04T17:01:13.604Z</time></trkpt><trkpt lat="43.0213472" lon="11.6491749"><ele>279.0</ele><time>2026-04-04T17:01:45.602Z</time></trkpt><trkpt lat="43.0214055" lon="11.6491175"><ele>279.0</ele><time>2026-04-04T17:01:49.606Z</time></trkpt><trkpt lat="43.0214733" lon="11.6490275"><ele>279.0</ele><time>2026-04-04T17:02:10.598Z</time></trkpt><trkpt lat="43.0215502" lon="11.6489361"><ele>278.8</ele><time>2026-04-04T17:02:12.604Z</time></trkpt><trkpt lat="43.0216497" lon="11.6488366"><ele>278.59999999999997</ele><time>2026-04-04T17:02:14.593Z</time></trkpt><trkpt lat="43.0217123" lon="11.648772"><ele>278.4</ele><time>2026-04-04T17:02:15.601Z</time></trkpt><trkpt lat="43.0217852" lon="11.6486955"><ele>278.2</ele><time>2026-04-04T17:02:16.609Z</time></trkpt><trkpt lat="43.0218679" lon="11.648607"><ele>278.0</ele><time>2026-04-04T17:02:17.597Z</time></trkpt><trkpt lat="43.0219607" lon="11.6485112"><ele>278.0</ele><time>2026-04-04T17:02:18.595Z</time></trkpt><trkpt lat="43.0220562" lon="11.6484122"><ele>278.0</ele><time>2026-04-04T17:02:19.603Z</time></trkpt><trkpt lat="43.0221594" lon="11.6483045"><ele>278.0</ele><time>2026-04-04T17:02:20.606Z</time></trkpt><trkpt lat="43.0222709" lon="11.6481922"><ele>278.0</ele><time>2026-04-04T17:02:21.604Z</time></trkpt><trkpt lat="43.0223863" lon="11.6480762"><ele>277.0</ele><time>2026-04-04T17:02:22.61Z</time></trkpt><trkpt lat="43.0225041" lon="11.6479562"><ele>276.0</ele><time>2026-04-04T17:02:23.605Z</time></trkpt><trkpt lat="43.022627" lon="11.6478314"><ele>275.0</ele><time>2026-04-04T17:02:24.597Z</time></trkpt><trkpt lat="43.0227547" lon="11.6477014"><ele>275.0</ele><time>2026-04-04T17:02:25.614Z</time></trkpt><trkpt lat="43.0228848" lon="11.6475672"><ele>275.0</ele><time>2026-04-04T17:02:26.6Z</time></trkpt><trkpt lat="43.0230181" lon="11.6474299"><ele>275.0</ele><time>2026-04-04T17:02:27.598Z</time></trkpt><trkpt lat="43.0231546" lon="11.6472889"><ele>275.0</ele><time>2026-04-04T17:02:28.599Z</time></trkpt><trkpt lat="43.0232927" lon="11.6471451"><ele>275.0</ele><time>2026-04-04T17:02:29.59Z</time></trkpt><trkpt lat="43.0234219" lon="11.6470103"><ele>275.0</ele><time>2026-04-04T17:02:30.586Z</time></trkpt><trkpt lat="43.0235429" lon="11.6468865"><ele>274.5</ele><time>2026-04-04T17:02:31.608Z</time></trkpt><trkpt lat="43.023658" lon="11.6467727"><ele>274.0</ele><time>2026-04-04T17:02:32.604Z</time></trkpt><trkpt lat="43.0237737" lon="11.646658"><ele>273.5</ele><time>2026-04-04T17:02:33.603Z</time></trkpt><trkpt lat="43.0238924" lon="11.646541"><ele>273.0</ele><time>2026-04-04T17:02:34.595Z</time></trkpt><trkpt lat="43.0240119" lon="11.646421"><ele>273.0</ele><time>2026-04-04T17:02:35.589Z</time></trkpt><trkpt lat="43.0241358" lon="11.6462958"><ele>273.0</ele><time>2026-04-04T17:02:36.605Z</time></trkpt><trkpt lat="43.0242604" lon="11.6461753"><ele>273.0</ele><time>2026-04-04T17:02:37.603Z</time></trkpt><trkpt lat="43.0243876" lon="11.6460497"><ele>272.5</ele><time>2026-04-04T17:02:38.612Z</time></trkpt><trkpt lat="43.0245114" lon="11.6459222"><ele>272.0</ele><time>2026-04-04T17:02:39.604Z</time></trkpt><trkpt lat="43.0246262" lon="11.6458006"><ele>271.5</ele><time>2026-04-04T17:02:40.599Z</time></trkpt><trkpt lat="43.0247317" lon="11.6456897"><ele>271.0</ele><time>2026-04-04T17:02:41.607Z</time></trkpt><trkpt lat="43.024831" lon="11.645591"><ele>271.0</ele><time>2026-04-04T17:02:42.596Z</time></trkpt><trkpt lat="43.0249185" lon="11.6455092"><ele>271.0</ele><time>2026-04-04T17:02:43.609Z</time></trkpt><trkpt lat="43.0249926" lon="11.6454371"><ele>271.0</ele><time>2026-04-04T17:02:44.59Z</time></trkpt><trkpt lat="43.0250562" lon="11.6453655"><ele>271.0</ele><time>2026-04-04T17:02:45.604Z</time></trkpt><trkpt lat="43.0251133" lon="11.6453078"><ele>271.0</ele><time>2026-04-04T17:02:46.604Z</time></trkpt><trkpt lat="43.025172" lon="11.6452567"><ele>271.0</ele><time>2026-04-04T17:02:47.601Z</time></trkpt><trkpt lat="43.0252387" lon="11.6451944"><ele>270.8</ele><time>2026-04-04T17:02:48.6Z</time></trkpt><trkpt lat="43.0253064" lon="11.6451347"><ele>270.6</ele><time>2026-04-04T17:02:49.592Z</time></trkpt><trkpt lat="43.0253876" lon="11.6450661"><ele>270.4</ele><time>2026-04-04T17:02:50.611Z</time></trkpt><trkpt lat="43.0254778" lon="11.6449932"><ele>270.2</ele><time>2026-04-04T17:02:51.613Z</time></trkpt><trkpt lat="43.0255708" lon="11.6449172"><ele>270.0</ele><time>2026-04-04T17:02:52.6Z</time></trkpt><trkpt lat="43.0256769" lon="11.6448278"><ele>270.0</ele><time>2026-04-04T17:02:53.602Z</time></trkpt><trkpt lat="43.0257918" lon="11.6447326"><ele>270.0</ele><time>2026-04-04T17:02:54.601Z</time></trkpt><trkpt lat="43.0259062" lon="11.6446372"><ele>270.0</ele><time>2026-04-04T17:02:55.603Z</time></trkpt><trkpt lat="43.0260106" lon="11.6445499"><ele>270.0</ele><time>2026-04-04T17:02:56.61Z</time></trkpt><trkpt lat="43.0261134" lon="11.6444624"><ele>267.5</ele><time>2026-04-04T17:02:57.612Z</time></trkpt><trkpt lat="43.0262213" lon="11.6443731"><ele>265.0</ele><time>2026-04-04T17:02:58.595Z</time></trkpt><trkpt lat="43.0263308" lon="11.6442829"><ele>262.5</ele><time>2026-04-04T17:02:59.604Z</time></trkpt><trkpt lat="43.0264405" lon="11.6441913"><ele>260.0</ele><time>2026-04-04T17:03:00.6Z</time></trkpt><trkpt lat="43.0265512" lon="11.6441036"><ele>260.5</ele><time>2026-04-04T17:03:01.611Z</time></trkpt><trkpt lat="43.0266627" lon="11.6440184"><ele>261.0</ele><time>2026-04-04T17:03:02.604Z</time></trkpt><trkpt lat="43.0267708" lon="11.6439345"><ele>261.5</ele><time>2026-04-04T17:03:03.601Z</time></trkpt><trkpt lat="43.026869" lon="11.6438517"><ele>262.0</ele><time>2026-04-04T17:03:04.597Z</time></trkpt><trkpt lat="43.0269587" lon="11.6437784"><ele>262.0</ele><time>2026-04-04T17:03:05.605Z</time></trkpt><trkpt lat="43.027037" lon="11.6437125"><ele>262.0</ele><time>2026-04-04T17:03:06.601Z</time></trkpt><trkpt lat="43.0271051" lon="11.6436504"><ele>262.0</ele><time>2026-04-04T17:03:07.594Z</time></trkpt><trkpt lat="43.0271769" lon="11.6435956"><ele>262.0</ele><time>2026-04-04T17:03:08.597Z</time></trkpt><trkpt lat="43.027262" lon="11.6435335"><ele>262.0</ele><time>2026-04-04T17:03:09.607Z</time></trkpt><trkpt lat="43.027356" lon="11.6434606"><ele>262.0</ele><time>2026-04-04T17:03:10.597Z</time></trkpt><trkpt lat="43.0274601" lon="11.6433756"><ele>262.0</ele><time>2026-04-04T17:03:11.601Z</time></trkpt><trkpt lat="43.0275682" lon="11.6432838"><ele>262.0</ele><time>2026-04-04T17:03:12.599Z</time></trkpt><trkpt lat="43.0276704" lon="11.6431922"><ele>262.0</ele><time>2026-04-04T17:03:13.592Z</time></trkpt><trkpt lat="43.0277743" lon="11.6430996"><ele>261.5</ele><time>2026-04-04T17:03:14.609Z</time></trkpt><trkpt lat="43.0278766" lon="11.6430114"><ele>261.0</ele><time>2026-04-04T17:03:15.6Z</time></trkpt><trkpt lat="43.0279746" lon="11.6429244"><ele>260.5</ele><time>2026-04-04T17:03:16.591Z</time></trkpt><trkpt lat="43.0280632" lon="11.6428431"><ele>260.0</ele><time>2026-04-04T17:03:17.598Z</time></trkpt><trkpt lat="43.0281545" lon="11.6427525"><ele>260.0</ele><time>2026-04-04T17:03:18.594Z</time></trkpt><trkpt lat="43.0282378" lon="11.6426652"><ele>260.0</ele><time>2026-04-04T17:03:19.605Z</time></trkpt><trkpt lat="43.0283136" lon="11.6425778"><ele>260.0</ele><time>2026-04-04T17:03:20.6Z</time></trkpt><trkpt lat="43.0283817" lon="11.642498"><ele>260.0</ele><time>2026-04-04T17:03:21.6Z</time></trkpt><trkpt lat="43.0284424" lon="11.6424214"><ele>260.0</ele><time>2026-04-04T17:03:22.588Z</time></trkpt><trkpt lat="43.028504" lon="11.6423455"><ele>260.00000000000006</ele><time>2026-04-04T17:03:23.597Z</time></trkpt><trkpt lat="43.0285604" lon="11.6422811"><ele>260.0</ele><time>2026-04-04T17:03:24.593Z</time></trkpt><trkpt lat="43.0286139" lon="11.6422205"><ele>260.0</ele><time>2026-04-04T17:03:25.6Z</time></trkpt><trkpt lat="43.028658" lon="11.6421572"><ele>260.0</ele><time>2026-04-04T17:03:26.604Z</time></trkpt><trkpt lat="43.0287043" lon="11.6420852"><ele>260.0</ele><time>2026-04-04T17:03:28.596Z</time></trkpt><trkpt lat="43.0287314" lon="11.641964"><ele>260.00000000000006</ele><time>2026-04-04T17:03:56.61Z</time></trkpt><trkpt lat="43.0287699" lon="11.6418757"><ele>260.0</ele><time>2026-04-04T17:03:58.601Z</time></trkpt><trkpt lat="43.0287972" lon="11.6417753"><ele>260.0</ele><time>2026-04-04T17:04:01.599Z</time></trkpt><trkpt lat="43.0288326" lon="11.6416722"><ele>260.0</ele><time>2026-04-04T17:04:04.604Z</time></trkpt><trkpt lat="43.0288641" lon="11.6415652"><ele>260.0</ele><time>2026-04-04T17:04:07.597Z</time></trkpt><trkpt lat="43.0289163" lon="11.6415068"><ele>260.0</ele><time>2026-04-04T17:04:09.604Z</time></trkpt><trkpt lat="43.0289798" lon="11.6414417"><ele>260.0</ele><time>2026-04-04T17:04:11.6Z</time></trkpt><trkpt lat="43.0290632" lon="11.6413691"><ele>260.0</ele><time>2026-04-04T17:04:13.614Z</time></trkpt><trkpt lat="43.0291397" lon="11.6412869"><ele>259.8</ele><time>2026-04-04T17:04:15.599Z</time></trkpt><trkpt lat="43.0292304" lon="11.6412123"><ele>259.6</ele><time>2026-04-04T17:04:17.59Z</time></trkpt><trkpt lat="43.0293228" lon="11.6411385"><ele>259.4</ele><time>2026-04-04T17:04:19.605Z</time></trkpt><trkpt lat="43.029391" lon="11.641077"><ele>259.2</ele><time>2026-04-04T17:04:21.602Z</time></trkpt><trkpt lat="43.0293383" lon="11.641128"><ele>259.0</ele><time>2026-04-04T17:08:18.604Z</time></trkpt><trkpt lat="43.0292514" lon="11.6411914"><ele>259.0</ele><time>2026-04-04T17:08:21.605Z</time></trkpt><trkpt lat="43.0291827" lon="11.6412514"><ele>259.0</ele><time>2026-04-04T17:08:23.598Z</time></trkpt><trkpt lat="43.0290883" lon="11.6413412"><ele>259.0</ele><time>2026-04-04T17:08:25.599Z</time></trkpt><trkpt lat="43.0290305" lon="11.6414046"><ele>259.0</ele><time>2026-04-04T17:08:26.608Z</time></trkpt><trkpt lat="43.0289433" lon="11.6414978"><ele>259.0</ele><time>2026-04-04T17:08:28.605Z</time></trkpt><trkpt lat="43.0288727" lon="11.6415812"><ele>259.16666666666663</ele><time>2026-04-04T17:08:30.61Z</time></trkpt><trkpt lat="43.0288328" lon="11.6416849"><ele>259.3333333333333</ele><time>2026-04-04T17:08:32.602Z</time></trkpt><trkpt lat="43.0288037" lon="11.6417782"><ele>259.5</ele><time>2026-04-04T17:08:34.61Z</time></trkpt><trkpt lat="43.0287655" lon="11.641875"><ele>259.6666666666667</ele><time>2026-04-04T17:08:36.589Z</time></trkpt><trkpt lat="43.0287281" lon="11.6419729"><ele>259.83333333333337</ele><time>2026-04-04T17:08:38.608Z</time></trkpt><trkpt lat="43.028708" lon="11.6420903"><ele>260.0</ele><time>2026-04-04T17:08:40.604Z</time></trkpt><trkpt lat="43.0286462" lon="11.6421934"><ele>260.0</ele><time>2026-04-04T17:08:42.613Z</time></trkpt><trkpt lat="43.0285452" lon="11.6423081"><ele>260.0</ele><time>2026-04-04T17:08:44.59Z</time></trkpt><trkpt lat="43.0284809" lon="11.64238"><ele>260.0</ele><time>2026-04-04T17:08:45.607Z</time></trkpt><trkpt lat="43.0284176" lon="11.6424618"><ele>260.0</ele><time>2026-04-04T17:08:46.589Z</time></trkpt><trkpt lat="43.0283541" lon="11.6425369"><ele>260.0</ele><time>2026-04-04T17:08:47.609Z</time></trkpt><trkpt lat="43.0282933" lon="11.6425998"><ele>260.0</ele><time>2026-04-04T17:08:48.596Z</time></trkpt><trkpt lat="43.0282252" lon="11.6426739"><ele>260.0</ele><time>2026-04-04T17:08:49.601Z</time></trkpt><trkpt lat="43.0281521" lon="11.6427499"><ele>260.0</ele><time>2026-04-04T17:08:50.601Z</time></trkpt><trkpt lat="43.0280755" lon="11.6428274"><ele>260.0</ele><time>2026-04-04T17:08:51.617Z</time></trkpt><trkpt lat="43.028008" lon="11.6429021"><ele>260.0</ele><time>2026-04-04T17:08:52.597Z</time></trkpt><trkpt lat="43.0279443" lon="11.6429624"><ele>260.0</ele><time>2026-04-04T17:08:53.6Z</time></trkpt><trkpt lat="43.0278733" lon="11.6430206"><ele>260.0</ele><time>2026-04-04T17:08:54.597Z</time></trkpt><trkpt lat="43.0278005" lon="11.6430923"><ele>260.0</ele><time>2026-04-04T17:08:55.606Z</time></trkpt><trkpt lat="43.0277218" lon="11.6431562"><ele>260.0</ele><time>2026-04-04T17:08:56.602Z</time></trkpt><trkpt lat="43.0276502" lon="11.6432236"><ele>260.0</ele><time>2026-04-04T17:08:57.611Z</time></trkpt><trkpt lat="43.0275726" lon="11.6432929"><ele>260.0</ele><time>2026-04-04T17:08:58.6Z</time></trkpt><trkpt lat="43.0274894" lon="11.6433612"><ele>260.33333333333337</ele><time>2026-04-04T17:08:59.602Z</time></trkpt><trkpt lat="43.0274144" lon="11.6434252"><ele>260.6666666666667</ele><time>2026-04-04T17:09:00.606Z</time></trkpt><trkpt lat="43.0273344" lon="11.6434879"><ele>261.0</ele><time>2026-04-04T17:09:01.599Z</time></trkpt><trkpt lat="43.0272604" lon="11.6435432"><ele>261.3333333333333</ele><time>2026-04-04T17:09:02.592Z</time></trkpt><trkpt lat="43.0271824" lon="11.6435994"><ele>261.66666666666663</ele><time>2026-04-04T17:09:03.61Z</time></trkpt><trkpt lat="43.0271016" lon="11.6436543"><ele>262.0</ele><time>2026-04-04T17:09:04.604Z</time></trkpt><trkpt lat="43.0270193" lon="11.6437134"><ele>262.0</ele><time>2026-04-04T17:09:05.611Z</time></trkpt><trkpt lat="43.0269381" lon="11.6437767"><ele>262.0</ele><time>2026-04-04T17:09:06.6Z</time></trkpt><trkpt lat="43.0268534" lon="11.6438486"><ele>262.0</ele><time>2026-04-04T17:09:07.597Z</time></trkpt><trkpt lat="43.0267748" lon="11.6439158"><ele>262.0</ele><time>2026-04-04T17:09:08.596Z</time></trkpt><trkpt lat="43.0266965" lon="11.6439785"><ele>262.0</ele><time>2026-04-04T17:09:09.601Z</time></trkpt><trkpt lat="43.0266112" lon="11.6440429"><ele>261.6</ele><time>2026-04-04T17:09:10.602Z</time></trkpt><trkpt lat="43.0265192" lon="11.644115"><ele>261.2</ele><time>2026-04-04T17:09:11.603Z</time></trkpt><trkpt lat="43.0264388" lon="11.6441824"><ele>260.8</ele><time>2026-04-04T17:09:12.601Z</time></trkpt><trkpt lat="43.0263634" lon="11.6442547"><ele>260.4</ele><time>2026-04-04T17:09:13.602Z</time></trkpt><trkpt lat="43.026283" lon="11.6443299"><ele>260.0</ele><time>2026-04-04T17:09:14.596Z</time></trkpt><trkpt lat="43.0261932" lon="11.644402"><ele>260.25</ele><time>2026-04-04T17:09:15.596Z</time></trkpt><trkpt lat="43.0260983" lon="11.6444815"><ele>260.5</ele><time>2026-04-04T17:09:16.612Z</time></trkpt><trkpt lat="43.0259981" lon="11.6445643"><ele>260.75</ele><time>2026-04-04T17:09:17.605Z</time></trkpt><trkpt lat="43.0258949" lon="11.6446528"><ele>261.0</ele><time>2026-04-04T17:09:18.604Z</time></trkpt><trkpt lat="43.025796" lon="11.6447369"><ele>262.8</ele><time>2026-04-04T17:09:19.604Z</time></trkpt><trkpt lat="43.0257098" lon="11.6448082"><ele>264.6</ele><time>2026-04-04T17:09:20.601Z</time></trkpt><trkpt lat="43.0256316" lon="11.6448734"><ele>266.4</ele><time>2026-04-04T17:09:21.595Z</time></trkpt><trkpt lat="43.0255471" lon="11.6449438"><ele>268.2</ele><time>2026-04-04T17:09:22.608Z</time></trkpt><trkpt lat="43.025459" lon="11.6450187"><ele>270.0</ele><time>2026-04-04T17:09:23.6Z</time></trkpt><trkpt lat="43.0253695" lon="11.6450947"><ele>270.0</ele><time>2026-04-04T17:09:24.612Z</time></trkpt><trkpt lat="43.0252789" lon="11.6451701"><ele>270.0</ele><time>2026-04-04T17:09:25.605Z</time></trkpt><trkpt lat="43.0251902" lon="11.6452484"><ele>270.0</ele><time>2026-04-04T17:09:26.611Z</time></trkpt><trkpt lat="43.0251107" lon="11.6453201"><ele>270.0</ele><time>2026-04-04T17:09:27.605Z</time></trkpt><trkpt lat="43.025037" lon="11.6453934"><ele>270.0</ele><time>2026-04-04T17:09:28.596Z</time></trkpt><trkpt lat="43.0249709" lon="11.6454617"><ele>270.2</ele><time>2026-04-04T17:09:29.612Z</time></trkpt><trkpt lat="43.0249039" lon="11.6455264"><ele>270.4</ele><time>2026-04-04T17:09:30.608Z</time></trkpt><trkpt lat="43.0248366" lon="11.645591"><ele>270.6</ele><time>2026-04-04T17:09:31.604Z</time></trkpt><trkpt lat="43.0247652" lon="11.6456627"><ele>270.8</ele><time>2026-04-04T17:09:32.596Z</time></trkpt><trkpt lat="43.024689" lon="11.6457403"><ele>271.0</ele><time>2026-04-04T17:09:33.599Z</time></trkpt><trkpt lat="43.0246056" lon="11.6458267"><ele>271.0</ele><time>2026-04-04T17:09:34.586Z</time></trkpt><trkpt lat="43.0245171" lon="11.6459228"><ele>271.0</ele><time>2026-04-04T17:09:35.604Z</time></trkpt><trkpt lat="43.0244187" lon="11.646021"><ele>271.0</ele><time>2026-04-04T17:09:36.6Z</time></trkpt><trkpt lat="43.0243166" lon="11.6461231"><ele>271.0</ele><time>2026-04-04T17:09:37.602Z</time></trkpt><trkpt lat="43.024205" lon="11.6462294"><ele>271.5</ele><time>2026-04-04T17:09:38.606Z</time></trkpt><trkpt lat="43.0240917" lon="11.6463423"><ele>272.0</ele><time>2026-04-04T17:09:39.602Z</time></trkpt><trkpt lat="43.0239782" lon="11.6464556"><ele>272.5</ele><time>2026-04-04T17:09:40.602Z</time></trkpt><trkpt lat="43.0238645" lon="11.6465687"><ele>273.0</ele><time>2026-04-04T17:09:41.597Z</time></trkpt><trkpt lat="43.0237587" lon="11.6466731"><ele>273.0</ele><time>2026-04-04T17:09:42.6Z</time></trkpt><trkpt lat="43.0236526" lon="11.6467792"><ele>273.0</ele><time>2026-04-04T17:09:43.604Z</time></trkpt><trkpt lat="43.0235468" lon="11.646889"><ele>273.0</ele><time>2026-04-04T17:09:44.609Z</time></trkpt><trkpt lat="43.0234404" lon="11.6469989"><ele>273.0</ele><time>2026-04-04T17:09:45.607Z</time></trkpt><trkpt lat="43.0233331" lon="11.6471099"><ele>273.5</ele><time>2026-04-04T17:09:46.605Z</time></trkpt><trkpt lat="43.0232247" lon="11.6472215"><ele>274.0</ele><time>2026-04-04T17:09:47.606Z</time></trkpt><trkpt lat="43.0231157" lon="11.647335"><ele>274.5</ele><time>2026-04-04T17:09:48.598Z</time></trkpt><trkpt lat="43.0230046" lon="11.6474497"><ele>275.0</ele><time>2026-04-04T17:09:49.597Z</time></trkpt><trkpt lat="43.0228924" lon="11.6475662"><ele>275.0</ele><time>2026-04-04T17:09:50.602Z</time></trkpt><trkpt lat="43.0227808" lon="11.6476804"><ele>275.0</ele><time>2026-04-04T17:09:51.606Z</time></trkpt><trkpt lat="43.0226681" lon="11.6477969"><ele>275.0</ele><time>2026-04-04T17:09:52.607Z</time></trkpt><trkpt lat="43.0225546" lon="11.6479125"><ele>275.0</ele><time>2026-04-04T17:09:53.606Z</time></trkpt><trkpt lat="43.0224407" lon="11.6480271"><ele>275.75</ele><time>2026-04-04T17:09:54.599Z</time></trkpt><trkpt lat="43.0223295" lon="11.6481383"><ele>276.5</ele><time>2026-04-04T17:09:55.6Z</time></trkpt><trkpt lat="43.0222221" lon="11.6482488"><ele>277.25</ele><time>2026-04-04T17:09:56.594Z</time></trkpt><trkpt lat="43.0221171" lon="11.6483569"><ele>278.0</ele><time>2026-04-04T17:09:57.605Z</time></trkpt><trkpt lat="43.0220142" lon="11.6484649"><ele>278.0</ele><time>2026-04-04T17:09:58.601Z</time></trkpt><trkpt lat="43.0219122" lon="11.6485716"><ele>278.0</ele><time>2026-04-04T17:09:59.601Z</time></trkpt><trkpt lat="43.0218095" lon="11.6486823"><ele>278.0</ele><time>2026-04-04T17:10:00.599Z</time></trkpt><trkpt lat="43.0217044" lon="11.648791"><ele>278.0</ele><time>2026-04-04T17:10:01.608Z</time></trkpt><trkpt lat="43.0216006" lon="11.6488974"><ele>278.2</ele><time>2026-04-04T17:10:02.602Z</time></trkpt><trkpt lat="43.0215004" lon="11.6490012"><ele>278.4</ele><time>2026-04-04T17:10:03.597Z</time></trkpt><trkpt lat="43.0214063" lon="11.6490994"><ele>278.59999999999997</ele><time>2026-04-04T17:10:04.607Z</time></trkpt><trkpt lat="43.021322" lon="11.6491886"><ele>278.8</ele><time>2026-04-04T17:10:05.601Z</time></trkpt><trkpt lat="43.0212463" lon="11.6492706"><ele>279.0</ele><time>2026-04-04T17:10:06.599Z</time></trkpt><trkpt lat="43.0211676" lon="11.6493519"><ele>279.0</ele><time>2026-04-04T17:10:07.605Z</time></trkpt><trkpt lat="43.0210858" lon="11.649435"><ele>279.0</ele><time>2026-04-04T17:10:08.599Z</time></trkpt><trkpt lat="43.0210001" lon="11.6495221"><ele>279.0</ele><time>2026-04-04T17:10:09.597Z</time></trkpt><trkpt lat="43.0209213" lon="11.6496039"><ele>279.0</ele><time>2026-04-04T17:10:10.586Z</time></trkpt><trkpt lat="43.0208492" lon="11.6496809"><ele>279.0</ele><time>2026-04-04T17:10:11.594Z</time></trkpt><trkpt lat="43.0207818" lon="11.6497496"><ele>279.0</ele><time>2026-04-04T17:10:12.595Z</time></trkpt><trkpt lat="43.0207247" lon="11.6498093"><ele>279.0</ele><time>2026-04-04T17:10:13.595Z</time></trkpt><trkpt lat="43.0206312" lon="11.6499002"><ele>279.0</ele><time>2026-04-04T17:10:15.598Z</time></trkpt><trkpt lat="43.0205667" lon="11.6499652"><ele>279.0</ele><time>2026-04-04T17:10:17.599Z</time></trkpt><trkpt lat="43.0205038" lon="11.6500008"><ele>279.0</ele><time>2026-04-04T17:10:19.588Z</time></trkpt><trkpt lat="43.0204411" lon="11.6500443"><ele>279.0</ele><time>2026-04-04T17:10:21.608Z</time></trkpt><trkpt lat="43.0203467" lon="11.6501437"><ele>279.0</ele><time>2026-04-04T17:10:23.601Z</time></trkpt><trkpt lat="43.0202844" lon="11.6502136"><ele>279.0</ele><time>2026-04-04T17:10:24.595Z</time></trkpt><trkpt lat="43.0202089" lon="11.6502934"><ele>279.0</ele><time>2026-04-04T17:10:25.601Z</time></trkpt><trkpt lat="43.0201249" lon="11.650378"><ele>279.0</ele><time>2026-04-04T17:10:26.602Z</time></trkpt><trkpt lat="43.0200337" lon="11.6504699"><ele>279.0</ele><time>2026-04-04T17:10:27.599Z</time></trkpt><trkpt lat="43.0199361" lon="11.6505653"><ele>280.4</ele><time>2026-04-04T17:10:28.603Z</time></trkpt><trkpt lat="43.0198336" lon="11.6506677"><ele>281.79999999999995</ele><time>2026-04-04T17:10:29.605Z</time></trkpt><trkpt lat="43.0197412" lon="11.6507638"><ele>283.20000000000005</ele><time>2026-04-04T17:10:30.599Z</time></trkpt><trkpt lat="43.0196615" lon="11.6508516"><ele>284.6</ele><time>2026-04-04T17:10:31.601Z</time></trkpt><trkpt lat="43.0195904" lon="11.6509269"><ele>286.0</ele><time>2026-04-04T17:10:32.601Z</time></trkpt><trkpt lat="43.0195205" lon="11.6510136"><ele>286.0</ele><time>2026-04-04T17:10:33.606Z</time></trkpt><trkpt lat="43.0194523" lon="11.6511182"><ele>286.0</ele><time>2026-04-04T17:10:34.614Z</time></trkpt><trkpt lat="43.0193796" lon="11.6512466"><ele>286.0</ele><time>2026-04-04T17:10:35.601Z</time></trkpt><trkpt lat="43.0193017" lon="11.6514047"><ele>286.0</ele><time>2026-04-04T17:10:36.597Z</time></trkpt><trkpt lat="43.0192216" lon="11.6515792"><ele>286.66666666666663</ele><time>2026-04-04T17:10:37.6Z</time></trkpt><trkpt lat="43.0191391" lon="11.6517692"><ele>287.3333333333333</ele><time>2026-04-04T17:10:38.594Z</time></trkpt><trkpt lat="43.0190606" lon="11.6519565"><ele>288.0</ele><time>2026-04-04T17:10:39.6Z</time></trkpt><trkpt lat="43.0189912" lon="11.6521257"><ele>288.25</ele><time>2026-04-04T17:10:40.595Z</time></trkpt><trkpt lat="43.0189271" lon="11.6522822"><ele>288.5</ele><time>2026-04-04T17:10:41.59Z</time></trkpt><trkpt lat="43.0188684" lon="11.6524285"><ele>288.75</ele><time>2026-04-04T17:10:42.6Z</time></trkpt><trkpt lat="43.018813" lon="11.6525715"><ele>289.0</ele><time>2026-04-04T17:10:43.61Z</time></trkpt><trkpt lat="43.0187515" lon="11.652716"><ele>289.25</ele><time>2026-04-04T17:10:44.6Z</time></trkpt><trkpt lat="43.0186874" lon="11.6528725"><ele>289.5</ele><time>2026-04-04T17:10:45.609Z</time></trkpt><trkpt lat="43.0186252" lon="11.6530351"><ele>289.75</ele><time>2026-04-04T17:10:46.604Z</time></trkpt><trkpt lat="43.01856" lon="11.6531996"><ele>290.0</ele><time>2026-04-04T17:10:47.592Z</time></trkpt><trkpt lat="43.0184935" lon="11.6533659"><ele>290.0</ele><time>2026-04-04T17:10:48.597Z</time></trkpt><trkpt lat="43.0184246" lon="11.6535302"><ele>290.0</ele><time>2026-04-04T17:10:49.608Z</time></trkpt><trkpt lat="43.0183549" lon="11.653688"><ele>290.0</ele><time>2026-04-04T17:10:50.614Z</time></trkpt><trkpt lat="43.0182852" lon="11.6538439"><ele>290.0</ele><time>2026-04-04T17:10:51.605Z</time></trkpt><trkpt lat="43.0182087" lon="11.6540057"><ele>290.0</ele><time>2026-04-04T17:10:52.599Z</time></trkpt><trkpt lat="43.0181196" lon="11.6541709"><ele>290.0</ele><time>2026-04-04T17:10:53.588Z</time></trkpt><trkpt lat="43.0180219" lon="11.6543457"><ele>290.0</ele><time>2026-04-04T17:10:54.612Z</time></trkpt><trkpt lat="43.0179184" lon="11.6545316"><ele>290.6666666666667</ele><time>2026-04-04T17:10:55.592Z</time></trkpt><trkpt lat="43.0178127" lon="11.6547271"><ele>291.3333333333333</ele><time>2026-04-04T17:10:56.603Z</time></trkpt><trkpt lat="43.0177098" lon="11.6549166"><ele>292.0</ele><time>2026-04-04T17:10:57.611Z</time></trkpt><trkpt lat="43.0176108" lon="11.6551001"><ele>292.0</ele><time>2026-04-04T17:10:58.601Z</time></trkpt><trkpt lat="43.0175146" lon="11.6552751"><ele>292.0</ele><time>2026-04-04T17:10:59.607Z</time></trkpt><trkpt lat="43.0174144" lon="11.6554481"><ele>292.0</ele><time>2026-04-04T17:11:00.607Z</time></trkpt><trkpt lat="43.0173091" lon="11.6556248"><ele>293.66666666666663</ele><time>2026-04-04T17:11:01.591Z</time></trkpt><trkpt lat="43.0171998" lon="11.6558075"><ele>295.3333333333333</ele><time>2026-04-04T17:11:02.613Z</time></trkpt><trkpt lat="43.01709" lon="11.6559755"><ele>297.0</ele><time>2026-04-04T17:11:03.605Z</time></trkpt><trkpt lat="43.0169781" lon="11.6561201"><ele>297.3333333333333</ele><time>2026-04-04T17:11:04.6Z</time></trkpt><trkpt lat="43.016868" lon="11.6562592"><ele>297.66666666666663</ele><time>2026-04-04T17:11:05.598Z</time></trkpt><trkpt lat="43.0167557" lon="11.6564008"><ele>298.0</ele><time>2026-04-04T17:11:06.605Z</time></trkpt><trkpt lat="43.0166358" lon="11.6565383"><ele>298.66666666666663</ele><time>2026-04-04T17:11:07.599Z</time></trkpt><trkpt lat="43.0165161" lon="11.6566764"><ele>299.3333333333333</ele><time>2026-04-04T17:11:08.6Z</time></trkpt><trkpt lat="43.0163943" lon="11.6568276"><ele>300.0</ele><time>2026-04-04T17:11:09.607Z</time></trkpt><trkpt lat="43.0162718" lon="11.6569967"><ele>300.3333333333333</ele><time>2026-04-04T17:11:10.61Z</time></trkpt><trkpt lat="43.0161543" lon="11.657187"><ele>300.66666666666663</ele><time>2026-04-04T17:11:11.6Z</time></trkpt><trkpt lat="43.0160427" lon="11.6573902"><ele>301.0</ele><time>2026-04-04T17:11:12.592Z</time></trkpt><trkpt lat="43.0159393" lon="11.6576013"><ele>300.66666666666663</ele><time>2026-04-04T17:11:13.605Z</time></trkpt><trkpt lat="43.0158393" lon="11.6578157"><ele>300.3333333333333</ele><time>2026-04-04T17:11:14.598Z</time></trkpt><trkpt lat="43.0157407" lon="11.6580431"><ele>300.0</ele><time>2026-04-04T17:11:15.615Z</time></trkpt><trkpt lat="43.0156381" lon="11.6582679"><ele>302.6666666666667</ele><time>2026-04-04T17:11:16.595Z</time></trkpt><trkpt lat="43.0155477" lon="11.6584689"><ele>305.33333333333337</ele><time>2026-04-04T17:11:17.601Z</time></trkpt><trkpt lat="43.0154666" lon="11.6586463"><ele>308.0</ele><time>2026-04-04T17:11:18.593Z</time></trkpt><trkpt lat="43.0153978" lon="11.6588109"><ele>308.5</ele><time>2026-04-04T17:11:19.601Z</time></trkpt><trkpt lat="43.0153355" lon="11.6589639"><ele>309.0</ele><time>2026-04-04T17:11:20.593Z</time></trkpt><trkpt lat="43.0152825" lon="11.6591047"><ele>309.5</ele><time>2026-04-04T17:11:21.607Z</time></trkpt><trkpt lat="43.0152261" lon="11.6592387"><ele>310.0</ele><time>2026-04-04T17:11:22.613Z</time></trkpt><trkpt lat="43.0151671" lon="11.6593647"><ele>309.8333333333333</ele><time>2026-04-04T17:11:23.612Z</time></trkpt><trkpt lat="43.0151098" lon="11.6594824"><ele>309.66666666666663</ele><time>2026-04-04T17:11:24.604Z</time></trkpt><trkpt lat="43.015062" lon="11.6595828"><ele>309.5</ele><time>2026-04-04T17:11:25.599Z</time></trkpt><trkpt lat="43.0150232" lon="11.6596645"><ele>309.3333333333333</ele><time>2026-04-04T17:11:26.589Z</time></trkpt><trkpt lat="43.0149791" lon="11.6597926"><ele>309.1666666666667</ele><time>2026-04-04T17:11:28.609Z</time></trkpt><trkpt lat="43.0150068" lon="11.6598885"><ele>309.0</ele><time>2026-04-04T17:11:31.599Z</time></trkpt><trkpt lat="43.0151069" lon="11.6599037"><ele>309.0</ele><time>2026-04-04T17:11:34.593Z</time></trkpt><trkpt lat="43.015204" lon="11.6598997"><ele>309.0</ele><time>2026-04-04T17:11:36.598Z</time></trkpt><trkpt lat="43.0153062" lon="11.6598996"><ele>309.0</ele><time>2026-04-04T17:11:38.596Z</time></trkpt><trkpt lat="43.0154094" lon="11.6599013"><ele>309.0</ele><time>2026-04-04T17:11:40.591Z</time></trkpt><trkpt lat="43.0155044" lon="11.6599076"><ele>309.0</ele><time>2026-04-04T17:11:42.595Z</time></trkpt><trkpt lat="43.0155901" lon="11.6599115"><ele>309.0</ele><time>2026-04-04T17:11:44.597Z</time></trkpt><trkpt lat="43.0156734" lon="11.6599099"><ele>309.0</ele><time>2026-04-04T17:11:46.604Z</time></trkpt><trkpt lat="43.0157574" lon="11.6599088"><ele>309.0</ele><time>2026-04-04T17:11:48.605Z</time></trkpt><trkpt lat="43.0158398" lon="11.6599026"><ele>309.0</ele><time>2026-04-04T17:11:50.601Z</time></trkpt><trkpt lat="43.0159315" lon="11.6599101"><ele>309.0</ele><time>2026-04-04T17:11:52.607Z</time></trkpt><trkpt lat="43.0160204" lon="11.6599175"><ele>309.0</ele><time>2026-04-04T17:11:54.61Z</time></trkpt><trkpt lat="43.0161016" lon="11.6599249"><ele>308.0</ele><time>2026-04-04T17:11:56.604Z</time></trkpt><trkpt lat="43.0161827" lon="11.6599478"><ele>307.0</ele><time>2026-04-04T17:11:58.604Z</time></trkpt><trkpt lat="43.0162638" lon="11.6599704"><ele>306.0</ele><time>2026-04-04T17:12:00.601Z</time></trkpt><trkpt lat="43.0163551" lon="11.6600061"><ele>305.0</ele><time>2026-04-04T17:12:02.609Z</time></trkpt><trkpt lat="43.0164758" lon="11.6600543"><ele>304.0</ele><time>2026-04-04T17:12:04.602Z</time></trkpt><trkpt lat="43.0165541" lon="11.6600969"><ele>304.0</ele><time>2026-04-04T17:12:05.613Z</time></trkpt><trkpt lat="43.0166455" lon="11.6601512"><ele>304.0</ele><time>2026-04-04T17:12:06.605Z</time></trkpt><trkpt lat="43.0167433" lon="11.6602072"><ele>304.0</ele><time>2026-04-04T17:12:07.594Z</time></trkpt><trkpt lat="43.0168463" lon="11.6602628"><ele>304.0</ele><time>2026-04-04T17:12:08.598Z</time></trkpt><trkpt lat="43.0169362" lon="11.6603155"><ele>304.0</ele><time>2026-04-04T17:12:09.598Z</time></trkpt><trkpt lat="43.0170222" lon="11.6603589"><ele>303.66666666666663</ele><time>2026-04-04T17:12:10.609Z</time></trkpt><trkpt lat="43.0170999" lon="11.6603976"><ele>303.3333333333333</ele><time>2026-04-04T17:12:11.602Z</time></trkpt><trkpt lat="43.0171692" lon="11.6604339"><ele>303.0</ele><time>2026-04-04T17:12:12.604Z</time></trkpt><trkpt lat="43.0172392" lon="11.6604799"><ele>302.6666666666667</ele><time>2026-04-04T17:12:13.604Z</time></trkpt><trkpt lat="43.0173069" lon="11.6605497"><ele>302.33333333333337</ele><time>2026-04-04T17:12:14.605Z</time></trkpt><trkpt lat="43.0173725" lon="11.6606443"><ele>302.0</ele><time>2026-04-04T17:12:15.601Z</time></trkpt><trkpt lat="43.0174287" lon="11.660761"><ele>302.0</ele><time>2026-04-04T17:12:16.596Z</time></trkpt><trkpt lat="43.0174793" lon="11.6608937"><ele>302.0</ele><time>2026-04-04T17:12:17.598Z</time></trkpt><trkpt lat="43.0175281" lon="11.6610338"><ele>302.0</ele><time>2026-04-04T17:12:18.606Z</time></trkpt><trkpt lat="43.0175742" lon="11.6611589"><ele>302.0</ele><time>2026-04-04T17:12:19.6Z</time></trkpt><trkpt lat="43.0176224" lon="11.6612809"><ele>302.0</ele><time>2026-04-04T17:12:20.603Z</time></trkpt><trkpt lat="43.017674" lon="11.6614025"><ele>302.2</ele><time>2026-04-04T17:12:21.602Z</time></trkpt><trkpt lat="43.0177268" lon="11.6615141"><ele>302.4</ele><time>2026-04-04T17:12:22.597Z</time></trkpt><trkpt lat="43.0177863" lon="11.6616157"><ele>302.6</ele><time>2026-04-04T17:12:23.6Z</time></trkpt><trkpt lat="43.0178565" lon="11.6617062"><ele>302.8</ele><time>2026-04-04T17:12:24.605Z</time></trkpt><trkpt lat="43.0179404" lon="11.6617917"><ele>303.0</ele><time>2026-04-04T17:12:25.607Z</time></trkpt><trkpt lat="43.0180354" lon="11.6618653"><ele>303.0</ele><time>2026-04-04T17:12:26.605Z</time></trkpt><trkpt lat="43.0181423" lon="11.6619243"><ele>303.0</ele><time>2026-04-04T17:12:27.605Z</time></trkpt><trkpt lat="43.0182553" lon="11.6619723"><ele>303.0</ele><time>2026-04-04T17:12:28.606Z</time></trkpt><trkpt lat="43.0183629" lon="11.6620076"><ele>303.0</ele><time>2026-04-04T17:12:29.604Z</time></trkpt><trkpt lat="43.0184634" lon="11.6620299"><ele>303.0</ele><time>2026-04-04T17:12:30.603Z</time></trkpt><trkpt lat="43.0185596" lon="11.6620506"><ele>302.8</ele><time>2026-04-04T17:12:31.611Z</time></trkpt><trkpt lat="43.0186537" lon="11.6620684"><ele>302.6</ele><time>2026-04-04T17:12:32.605Z</time></trkpt><trkpt lat="43.0187457" lon="11.6620846"><ele>302.4</ele><time>2026-04-04T17:12:33.601Z</time></trkpt><trkpt lat="43.0188361" lon="11.662096"><ele>302.2</ele><time>2026-04-04T17:12:34.602Z</time></trkpt><trkpt lat="43.0189248" lon="11.6621085"><ele>302.0</ele><time>2026-04-04T17:12:35.602Z</time></trkpt><trkpt lat="43.019021" lon="11.6621062"><ele>302.0</ele><time>2026-04-04T17:12:36.6Z</time></trkpt><trkpt lat="43.0191097" lon="11.6620917"><ele>302.0</ele><time>2026-04-04T17:12:37.604Z</time></trkpt><trkpt lat="43.0191995" lon="11.6620743"><ele>302.0</ele><time>2026-04-04T17:12:38.587Z</time></trkpt><trkpt lat="43.0192931" lon="11.6620474"><ele>302.0</ele><time>2026-04-04T17:12:39.598Z</time></trkpt><trkpt lat="43.0193912" lon="11.6620165"><ele>302.0</ele><time>2026-04-04T17:12:40.597Z</time></trkpt><trkpt lat="43.0194913" lon="11.6619798"><ele>301.0</ele><time>2026-04-04T17:12:41.6Z</time></trkpt><trkpt lat="43.0195812" lon="11.6619336"><ele>300.0</ele><time>2026-04-04T17:12:42.599Z</time></trkpt><trkpt lat="43.0196625" lon="11.6618784"><ele>299.0</ele><time>2026-04-04T17:12:43.607Z</time></trkpt><trkpt lat="43.019733" lon="11.6618197"><ele>298.0</ele><time>2026-04-04T17:12:44.6Z</time></trkpt><trkpt lat="43.0197998" lon="11.6617514"><ele>297.0</ele><time>2026-04-04T17:12:45.596Z</time></trkpt><trkpt lat="43.0198667" lon="11.6616668"><ele>296.0</ele><time>2026-04-04T17:12:46.606Z</time></trkpt><trkpt lat="43.0199342" lon="11.661567"><ele>295.8</ele><time>2026-04-04T17:12:47.603Z</time></trkpt><trkpt lat="43.0199989" lon="11.6614528"><ele>295.6</ele><time>2026-04-04T17:12:48.598Z</time></trkpt><trkpt lat="43.0200605" lon="11.6613319"><ele>295.4</ele><time>2026-04-04T17:12:49.603Z</time></trkpt><trkpt lat="43.0201159" lon="11.6612213"><ele>295.2</ele><time>2026-04-04T17:12:50.602Z</time></trkpt><trkpt lat="43.020163" lon="11.6611001"><ele>295.0</ele><time>2026-04-04T17:12:51.61Z</time></trkpt><trkpt lat="43.0202016" lon="11.6609724"><ele>295.0</ele><time>2026-04-04T17:12:52.601Z</time></trkpt><trkpt lat="43.02023" lon="11.6608546"><ele>295.0</ele><time>2026-04-04T17:12:53.603Z</time></trkpt><trkpt lat="43.0202545" lon="11.6607423"><ele>295.0</ele><time>2026-04-04T17:12:54.605Z</time></trkpt><trkpt lat="43.0202765" lon="11.6606264"><ele>295.0</ele><time>2026-04-04T17:12:55.607Z</time></trkpt><trkpt lat="43.0202966" lon="11.6605077"><ele>295.0</ele><time>2026-04-04T17:12:56.603Z</time></trkpt><trkpt lat="43.0203149" lon="11.660384"><ele>295.0</ele><time>2026-04-04T17:12:57.593Z</time></trkpt><trkpt lat="43.0203303" lon="11.6602683"><ele>294.8</ele><time>2026-04-04T17:12:58.616Z</time></trkpt><trkpt lat="43.0203421" lon="11.6601739"><ele>294.6</ele><time>2026-04-04T17:12:59.597Z</time></trkpt><trkpt lat="43.0203988" lon="11.6600624"><ele>294.4</ele><time>2026-04-04T17:13:01.607Z</time></trkpt><trkpt lat="43.0204851" lon="11.6600314"><ele>294.2</ele><time>2026-04-04T17:13:03.598Z</time></trkpt><trkpt lat="43.0205885" lon="11.6600199"><ele>294.0</ele><time>2026-04-04T17:13:05.603Z</time></trkpt><trkpt lat="43.0206759" lon="11.6600383"><ele>294.0</ele><time>2026-04-04T17:13:07.598Z</time></trkpt><trkpt lat="43.0207717" lon="11.6600803"><ele>294.0</ele><time>2026-04-04T17:13:09.601Z</time></trkpt><trkpt lat="43.0208843" lon="11.660126"><ele>294.0</ele><time>2026-04-04T17:13:11.611Z</time></trkpt><trkpt lat="43.0209915" lon="11.6601509"><ele>294.0</ele><time>2026-04-04T17:13:13.612Z</time></trkpt><trkpt lat="43.0210863" lon="11.6601525"><ele>294.0</ele><time>2026-04-04T17:13:15.6Z</time></trkpt><trkpt lat="43.0211513" lon="11.660134"><ele>294.8</ele><time>2026-04-04T17:13:17.591Z</time></trkpt><trkpt lat="43.021216" lon="11.6600921"><ele>295.59999999999997</ele><time>2026-04-04T17:13:20.606Z</time></trkpt><trkpt lat="43.0212378" lon="11.6600098"><ele>296.4</ele><time>2026-04-04T17:13:24.609Z</time></trkpt><trkpt lat="43.0211803" lon="11.6600993"><ele>297.2</ele><time>2026-04-04T17:15:59.6Z</time></trkpt><trkpt lat="43.0210854" lon="11.660144"><ele>298.0</ele><time>2026-04-04T17:16:01.609Z</time></trkpt><trkpt lat="43.0209501" lon="11.6601258"><ele>298.0</ele><time>2026-04-04T17:16:03.594Z</time></trkpt><trkpt lat="43.0208713" lon="11.6601029"><ele>298.0</ele><time>2026-04-04T17:16:04.593Z</time></trkpt><trkpt lat="43.0207905" lon="11.6600721"><ele>298.0</ele><time>2026-04-04T17:16:05.601Z</time></trkpt><trkpt lat="43.0206759" lon="11.6600264"><ele>298.0</ele><time>2026-04-04T17:16:07.6Z</time></trkpt><trkpt lat="43.0205614" lon="11.6600144"><ele>298.0</ele><time>2026-04-04T17:16:09.604Z</time></trkpt><trkpt lat="43.0204685" lon="11.6600141"><ele>297.5</ele><time>2026-04-04T17:16:11.605Z</time></trkpt><trkpt lat="43.0203948" lon="11.6600506"><ele>297.0</ele><time>2026-04-04T17:16:13.61Z</time></trkpt><trkpt lat="43.0203494" lon="11.6601311"><ele>296.5</ele><time>2026-04-04T17:16:15.603Z</time></trkpt><trkpt lat="43.0203273" lon="11.6602842"><ele>296.0</ele><time>2026-04-04T17:16:17.602Z</time></trkpt><trkpt lat="43.020313" lon="11.6603795"><ele>295.5</ele><time>2026-04-04T17:16:18.606Z</time></trkpt><trkpt lat="43.0203027" lon="11.6604697"><ele>295.0</ele><time>2026-04-04T17:16:19.599Z</time></trkpt><trkpt lat="43.0202907" lon="11.6605619"><ele>295.0</ele><time>2026-04-04T17:16:20.603Z</time></trkpt><trkpt lat="43.0202754" lon="11.6606616"><ele>295.0</ele><time>2026-04-04T17:16:21.606Z</time></trkpt><trkpt lat="43.0202583" lon="11.6607787"><ele>295.0</ele><time>2026-04-04T17:16:22.603Z</time></trkpt><trkpt lat="43.0202314" lon="11.6609028"><ele>295.0</ele><time>2026-04-04T17:16:23.602Z</time></trkpt><trkpt lat="43.0202017" lon="11.6610301"><ele>295.0</ele><time>2026-04-04T17:16:24.601Z</time></trkpt><trkpt lat="43.0201631" lon="11.6611511"><ele>295.0</ele><time>2026-04-04T17:16:25.609Z</time></trkpt><trkpt lat="43.0201172" lon="11.6612567"><ele>295.0</ele><time>2026-04-04T17:16:26.606Z</time></trkpt><trkpt lat="43.0200664" lon="11.6613469"><ele>295.0</ele><time>2026-04-04T17:16:27.606Z</time></trkpt><trkpt lat="43.0200148" lon="11.6614352"><ele>295.0</ele><time>2026-04-04T17:16:28.591Z</time></trkpt><trkpt lat="43.0199614" lon="11.6615281"><ele>295.0</ele><time>2026-04-04T17:16:29.605Z</time></trkpt><trkpt lat="43.0199017" lon="11.6616234"><ele>295.0</ele><time>2026-04-04T17:16:30.606Z</time></trkpt><trkpt lat="43.0198355" lon="11.6617135"><ele>295.2</ele><time>2026-04-04T17:16:31.609Z</time></trkpt><trkpt lat="43.0197689" lon="11.66179"><ele>295.4</ele><time>2026-04-04T17:16:32.611Z</time></trkpt><trkpt lat="43.0196935" lon="11.6618523"><ele>295.6</ele><time>2026-04-04T17:16:33.6Z</time></trkpt><trkpt lat="43.0196087" lon="11.6619087"><ele>295.8</ele><time>2026-04-04T17:16:34.601Z</time></trkpt><trkpt lat="43.019514" lon="11.6619527"><ele>296.0</ele><time>2026-04-04T17:16:35.601Z</time></trkpt><trkpt lat="43.0194127" lon="11.6619931"><ele>297.0</ele><time>2026-04-04T17:16:36.617Z</time></trkpt><trkpt lat="43.0193057" lon="11.6620294"><ele>298.0</ele><time>2026-04-04T17:16:37.598Z</time></trkpt><trkpt lat="43.0191965" lon="11.6620629"><ele>299.0</ele><time>2026-04-04T17:16:38.606Z</time></trkpt><trkpt lat="43.0190933" lon="11.6620833"><ele>300.0</ele><time>2026-04-04T17:16:39.613Z</time></trkpt><trkpt lat="43.019001" lon="11.6620916"><ele>301.0</ele><time>2026-04-04T17:16:40.596Z</time></trkpt><trkpt lat="43.0189153" lon="11.6620934"><ele>301.2</ele><time>2026-04-04T17:16:41.609Z</time></trkpt><trkpt lat="43.0188365" lon="11.6620829"><ele>301.40000000000003</ele><time>2026-04-04T17:16:42.601Z</time></trkpt><trkpt lat="43.018754" lon="11.6620678"><ele>301.6</ele><time>2026-04-04T17:16:43.607Z</time></trkpt><trkpt lat="43.0186628" lon="11.6620522"><ele>301.8</ele><time>2026-04-04T17:16:44.612Z</time></trkpt><trkpt lat="43.0185673" lon="11.6620331"><ele>302.0</ele><time>2026-04-04T17:16:45.598Z</time></trkpt><trkpt lat="43.0184665" lon="11.662015"><ele>302.0</ele><time>2026-04-04T17:16:46.591Z</time></trkpt><trkpt lat="43.0183604" lon="11.6619899"><ele>302.0</ele><time>2026-04-04T17:16:47.611Z</time></trkpt><trkpt lat="43.0182596" lon="11.6619562"><ele>302.0</ele><time>2026-04-04T17:16:48.609Z</time></trkpt><trkpt lat="43.0181561" lon="11.661909"><ele>302.0</ele><time>2026-04-04T17:16:49.598Z</time></trkpt><trkpt lat="43.0180626" lon="11.6618595"><ele>302.0</ele><time>2026-04-04T17:16:50.596Z</time></trkpt><trkpt lat="43.0179776" lon="11.6618028"><ele>302.2</ele><time>2026-04-04T17:16:51.6Z</time></trkpt><trkpt lat="43.0178938" lon="11.6617252"><ele>302.4</ele><time>2026-04-04T17:16:52.597Z</time></trkpt><trkpt lat="43.0178156" lon="11.6616301"><ele>302.6</ele><time>2026-04-04T17:16:53.607Z</time></trkpt><trkpt lat="43.0177458" lon="11.6615182"><ele>302.8</ele><time>2026-04-04T17:16:54.591Z</time></trkpt><trkpt lat="43.0176875" lon="11.6613887"><ele>303.0</ele><time>2026-04-04T17:16:55.605Z</time></trkpt><trkpt lat="43.0176326" lon="11.6612507"><ele>303.0</ele><time>2026-04-04T17:16:56.605Z</time></trkpt><trkpt lat="43.0175754" lon="11.6611022"><ele>303.0</ele><time>2026-04-04T17:16:57.617Z</time></trkpt><trkpt lat="43.0175217" lon="11.6609619"><ele>303.0</ele><time>2026-04-04T17:16:58.601Z</time></trkpt><trkpt lat="43.0174689" lon="11.6608347"><ele>303.0</ele><time>2026-04-04T17:16:59.603Z</time></trkpt><trkpt lat="43.0174133" lon="11.6607085"><ele>302.8333333333333</ele><time>2026-04-04T17:17:00.61Z</time></trkpt><trkpt lat="43.0173577" lon="11.6606047"><ele>302.6666666666667</ele><time>2026-04-04T17:17:01.607Z</time></trkpt><trkpt lat="43.0172984" lon="11.6605231"><ele>302.5</ele><time>2026-04-04T17:17:02.599Z</time></trkpt><trkpt lat="43.0172293" lon="11.660462"><ele>302.33333333333337</ele><time>2026-04-04T17:17:03.592Z</time></trkpt><trkpt lat="43.0171495" lon="11.6604147"><ele>302.1666666666667</ele><time>2026-04-04T17:17:04.607Z</time></trkpt><trkpt lat="43.0170622" lon="11.6603698"><ele>302.0</ele><time>2026-04-04T17:17:05.608Z</time></trkpt><trkpt lat="43.0169708" lon="11.6603234"><ele>302.5</ele><time>2026-04-04T17:17:06.604Z</time></trkpt><trkpt lat="43.0168704" lon="11.6602695"><ele>303.0</ele><time>2026-04-04T17:17:07.606Z</time></trkpt><trkpt lat="43.0167635" lon="11.6602154"><ele>303.5</ele><time>2026-04-04T17:17:08.614Z</time></trkpt><trkpt lat="43.0166546" lon="11.6601508"><ele>304.0</ele><time>2026-04-04T17:17:09.604Z</time></trkpt><trkpt lat="43.0165469" lon="11.6600897"><ele>304.0</ele><time>2026-04-04T17:17:10.6Z</time></trkpt><trkpt lat="43.0164368" lon="11.6600269"><ele>304.0</ele><time>2026-04-04T17:17:11.604Z</time></trkpt><trkpt lat="43.016327" lon="11.6599752"><ele>304.0</ele><time>2026-04-04T17:17:12.605Z</time></trkpt><trkpt lat="43.0162154" lon="11.6599406"><ele>304.0</ele><time>2026-04-04T17:17:13.598Z</time></trkpt><trkpt lat="43.016106" lon="11.6599234"><ele>304.0</ele><time>2026-04-04T17:17:14.593Z</time></trkpt><trkpt lat="43.0159932" lon="11.6599151"><ele>304.0</ele><time>2026-04-04T17:17:15.602Z</time></trkpt><trkpt lat="43.0158757" lon="11.659906"><ele>304.0</ele><time>2026-04-04T17:17:16.612Z</time></trkpt><trkpt lat="43.0157522" lon="11.6599077"><ele>304.0</ele><time>2026-04-04T17:17:17.599Z</time></trkpt><trkpt lat="43.0156362" lon="11.659907"><ele>304.8333333333333</ele><time>2026-04-04T17:17:18.606Z</time></trkpt><trkpt lat="43.0155296" lon="11.6599055"><ele>305.66666666666663</ele><time>2026-04-04T17:17:19.613Z</time></trkpt><trkpt lat="43.0154346" lon="11.6599036"><ele>306.5</ele><time>2026-04-04T17:17:20.601Z</time></trkpt><trkpt lat="43.0153492" lon="11.6599025"><ele>307.3333333333333</ele><time>2026-04-04T17:17:21.61Z</time></trkpt><trkpt lat="43.0152678" lon="11.6599025"><ele>308.1666666666667</ele><time>2026-04-04T17:17:22.595Z</time></trkpt><trkpt lat="43.0151992" lon="11.6599009"><ele>309.0</ele><time>2026-04-04T17:17:23.609Z</time></trkpt><trkpt lat="43.0150927" lon="11.6598995"><ele>309.0</ele><time>2026-04-04T17:17:25.599Z</time></trkpt><trkpt lat="43.0150246" lon="11.6598831"><ele>309.0</ele><time>2026-04-04T17:17:27.606Z</time></trkpt><trkpt lat="43.0149493" lon="11.6598638"><ele>309.0</ele><time>2026-04-04T17:17:30.602Z</time></trkpt><trkpt lat="43.0148739" lon="11.6599261"><ele>309.0</ele><time>2026-04-04T17:17:33.602Z</time></trkpt><trkpt lat="43.0148182" lon="11.6600163"><ele>309.0</ele><time>2026-04-04T17:17:35.603Z</time></trkpt><trkpt lat="43.0147749" lon="11.6600799"><ele>309.0</ele><time>2026-04-04T17:17:36.605Z</time></trkpt><trkpt lat="43.0147315" lon="11.660149"><ele>309.2</ele><time>2026-04-04T17:17:37.607Z</time></trkpt><trkpt lat="43.0146735" lon="11.6602264"><ele>309.4</ele><time>2026-04-04T17:17:38.607Z</time></trkpt><trkpt lat="43.0146109" lon="11.6603115"><ele>309.6</ele><time>2026-04-04T17:17:39.604Z</time></trkpt><trkpt lat="43.0145468" lon="11.6604034"><ele>309.8</ele><time>2026-04-04T17:17:40.612Z</time></trkpt><trkpt lat="43.0144773" lon="11.6605078"><ele>310.0</ele><time>2026-04-04T17:17:41.594Z</time></trkpt><trkpt lat="43.0143964" lon="11.660621"><ele>310.0</ele><time>2026-04-04T17:17:42.606Z</time></trkpt><trkpt lat="43.0143024" lon="11.6607431"><ele>310.0</ele><time>2026-04-04T17:17:43.599Z</time></trkpt><trkpt lat="43.0141948" lon="11.660873"><ele>310.0</ele><time>2026-04-04T17:17:44.597Z</time></trkpt><trkpt lat="43.0140735" lon="11.6610097"><ele>310.0</ele><time>2026-04-04T17:17:45.609Z</time></trkpt><trkpt lat="43.0139465" lon="11.6611434"><ele>308.3333333333333</ele><time>2026-04-04T17:17:46.603Z</time></trkpt><trkpt lat="43.0138217" lon="11.6612792"><ele>306.6666666666667</ele><time>2026-04-04T17:17:47.603Z</time></trkpt><trkpt lat="43.0136992" lon="11.6614195"><ele>305.0</ele><time>2026-04-04T17:17:48.612Z</time></trkpt><trkpt lat="43.0135696" lon="11.6615587"><ele>305.0</ele><time>2026-04-04T17:17:49.61Z</time></trkpt><trkpt lat="43.0134315" lon="11.6616958"><ele>305.0</ele><time>2026-04-04T17:17:50.597Z</time></trkpt><trkpt lat="43.0132886" lon="11.661831"><ele>305.0</ele><time>2026-04-04T17:17:51.596Z</time></trkpt><trkpt lat="43.013138" lon="11.6619696"><ele>304.6666666666667</ele><time>2026-04-04T17:17:52.604Z</time></trkpt><trkpt lat="43.0129937" lon="11.6621118"><ele>304.3333333333333</ele><time>2026-04-04T17:17:53.597Z</time></trkpt><trkpt lat="43.0128657" lon="11.6622644"><ele>304.0</ele><time>2026-04-04T17:17:54.607Z</time></trkpt><trkpt lat="43.0127476" lon="11.6624352"><ele>304.0</ele><time>2026-04-04T17:17:55.593Z</time></trkpt><trkpt lat="43.0126344" lon="11.6626151"><ele>304.0</ele><time>2026-04-04T17:17:56.589Z</time></trkpt><trkpt lat="43.0125159" lon="11.6628009"><ele>304.0</ele><time>2026-04-04T17:17:57.612Z</time></trkpt><trkpt lat="43.0123959" lon="11.6629847"><ele>305.66666666666663</ele><time>2026-04-04T17:17:58.594Z</time></trkpt><trkpt lat="43.0122711" lon="11.663167"><ele>307.3333333333333</ele><time>2026-04-04T17:17:59.605Z</time></trkpt><trkpt lat="43.0121408" lon="11.6633446"><ele>309.0</ele><time>2026-04-04T17:18:00.606Z</time></trkpt><trkpt lat="43.0120012" lon="11.6635212"><ele>308.6666666666667</ele><time>2026-04-04T17:18:01.607Z</time></trkpt><trkpt lat="43.0118632" lon="11.6637084"><ele>308.33333333333337</ele><time>2026-04-04T17:18:02.602Z</time></trkpt><trkpt lat="43.0117257" lon="11.6639053"><ele>308.0</ele><time>2026-04-04T17:18:03.604Z</time></trkpt><trkpt lat="43.0115848" lon="11.6641078"><ele>308.0</ele><time>2026-04-04T17:18:04.611Z</time></trkpt><trkpt lat="43.0114446" lon="11.6643133"><ele>308.0</ele><time>2026-04-04T17:18:05.606Z</time></trkpt><trkpt lat="43.0113088" lon="11.6645125"><ele>308.0</ele><time>2026-04-04T17:18:06.608Z</time></trkpt><trkpt lat="43.0111799" lon="11.6646972"><ele>308.0</ele><time>2026-04-04T17:18:07.597Z</time></trkpt><trkpt lat="43.0110553" lon="11.6648779"><ele>308.0</ele><time>2026-04-04T17:18:08.598Z</time></trkpt><trkpt lat="43.0109348" lon="11.6650548"><ele>308.0</ele><time>2026-04-04T17:18:09.6Z</time></trkpt><trkpt lat="43.010814" lon="11.6652384"><ele>309.0</ele><time>2026-04-04T17:18:10.599Z</time></trkpt><trkpt lat="43.0106884" lon="11.6654258"><ele>310.0</ele><time>2026-04-04T17:18:11.6Z</time></trkpt><trkpt lat="43.0105594" lon="11.6656181"><ele>311.0</ele><time>2026-04-04T17:18:12.602Z</time></trkpt><trkpt lat="43.0104245" lon="11.6658121"><ele>311.0</ele><time>2026-04-04T17:18:13.6Z</time></trkpt><trkpt lat="43.010291" lon="11.6660059"><ele>311.0</ele><time>2026-04-04T17:18:14.591Z</time></trkpt><trkpt lat="43.0101661" lon="11.6661915"><ele>311.0</ele><time>2026-04-04T17:18:15.594Z</time></trkpt><trkpt lat="43.0100479" lon="11.6663714"><ele>310.0</ele><time>2026-04-04T17:18:16.596Z</time></trkpt><trkpt lat="43.0099327" lon="11.666548"><ele>309.0</ele><time>2026-04-04T17:18:17.597Z</time></trkpt><trkpt lat="43.0098135" lon="11.6667153"><ele>308.0</ele><time>2026-04-04T17:18:18.604Z</time></trkpt><trkpt lat="43.0096884" lon="11.6668807"><ele>307.6666666666667</ele><time>2026-04-04T17:18:19.602Z</time></trkpt><trkpt lat="43.0095605" lon="11.6670502"><ele>307.3333333333333</ele><time>2026-04-04T17:18:20.597Z</time></trkpt><trkpt lat="43.0094271" lon="11.667226"><ele>307.0</ele><time>2026-04-04T17:18:21.61Z</time></trkpt><trkpt lat="43.0092882" lon="11.6674093"><ele>307.66666666666663</ele><time>2026-04-04T17:18:22.601Z</time></trkpt><trkpt lat="43.0091428" lon="11.6675982"><ele>308.3333333333333</ele><time>2026-04-04T17:18:23.61Z</time></trkpt><trkpt lat="43.0089961" lon="11.6677904"><ele>309.0</ele><time>2026-04-04T17:18:24.604Z</time></trkpt><trkpt lat="43.0088515" lon="11.667975"><ele>310.0</ele><time>2026-04-04T17:18:25.603Z</time></trkpt><trkpt lat="43.0087109" lon="11.6681554"><ele>311.0</ele><time>2026-04-04T17:18:26.592Z</time></trkpt><trkpt lat="43.0085771" lon="11.6683173"><ele>312.0</ele><time>2026-04-04T17:18:27.607Z</time></trkpt><trkpt lat="43.0084465" lon="11.6684711"><ele>317.3333333333333</ele><time>2026-04-04T17:18:28.612Z</time></trkpt><trkpt lat="43.0083206" lon="11.6686253"><ele>322.66666666666663</ele><time>2026-04-04T17:18:29.622Z</time></trkpt><trkpt lat="43.0082086" lon="11.6687677"><ele>328.0</ele><time>2026-04-04T17:18:30.598Z</time></trkpt><trkpt lat="43.0081086" lon="11.6689012"><ele>328.0</ele><time>2026-04-04T17:18:31.6Z</time></trkpt><trkpt lat="43.0080216" lon="11.669049"><ele>328.0</ele><time>2026-04-04T17:18:32.596Z</time></trkpt><trkpt lat="43.0079477" lon="11.66922"><ele>328.0</ele><time>2026-04-04T17:18:33.596Z</time></trkpt><trkpt lat="43.0078859" lon="11.6694066"><ele>328.0</ele><time>2026-04-04T17:18:34.604Z</time></trkpt><trkpt lat="43.0078328" lon="11.6696053"><ele>328.3333333333333</ele><time>2026-04-04T17:18:35.606Z</time></trkpt><trkpt lat="43.0077806" lon="11.6698128"><ele>328.6666666666667</ele><time>2026-04-04T17:18:36.614Z</time></trkpt><trkpt lat="43.0077178" lon="11.670013"><ele>329.0</ele><time>2026-04-04T17:18:37.6Z</time></trkpt><trkpt lat="43.0076492" lon="11.67019"><ele>328.5</ele><time>2026-04-04T17:18:38.595Z</time></trkpt><trkpt lat="43.0075833" lon="11.6703601"><ele>328.0</ele><time>2026-04-04T17:18:39.59Z</time></trkpt><trkpt lat="43.0075122" lon="11.6705126"><ele>327.5</ele><time>2026-04-04T17:18:40.608Z</time></trkpt><trkpt lat="43.0074238" lon="11.6706518"><ele>327.0</ele><time>2026-04-04T17:18:41.602Z</time></trkpt><trkpt lat="43.0073123" lon="11.6707903"><ele>326.0</ele><time>2026-04-04T17:18:42.602Z</time></trkpt><trkpt lat="43.0071906" lon="11.6709376"><ele>325.0</ele><time>2026-04-04T17:18:43.609Z</time></trkpt><trkpt lat="43.0070576" lon="11.671097"><ele>324.0</ele><time>2026-04-04T17:18:44.597Z</time></trkpt><trkpt lat="43.0069128" lon="11.6712687"><ele>323.0</ele><time>2026-04-04T17:18:45.6Z</time></trkpt><trkpt lat="43.0067559" lon="11.6714512"><ele>322.0</ele><time>2026-04-04T17:18:46.594Z</time></trkpt><trkpt lat="43.0065851" lon="11.6716376"><ele>321.0</ele><time>2026-04-04T17:18:47.605Z</time></trkpt><trkpt lat="43.0064003" lon="11.6718233"><ele>317.5</ele><time>2026-04-04T17:18:48.609Z</time></trkpt><trkpt lat="43.0062077" lon="11.6720034"><ele>314.0</ele><time>2026-04-04T17:18:49.6Z</time></trkpt><trkpt lat="43.006021" lon="11.6721748"><ele>314.0</ele><time>2026-04-04T17:18:50.602Z</time></trkpt><trkpt lat="43.0058437" lon="11.6723529"><ele>314.0</ele><time>2026-04-04T17:18:51.603Z</time></trkpt><trkpt lat="43.0056658" lon="11.6725452"><ele>314.0</ele><time>2026-04-04T17:18:52.595Z</time></trkpt><trkpt lat="43.0055018" lon="11.6727414"><ele>315.0</ele><time>2026-04-04T17:18:53.601Z</time></trkpt><trkpt lat="43.0053512" lon="11.6729384"><ele>316.0</ele><time>2026-04-04T17:18:54.598Z</time></trkpt><trkpt lat="43.0052118" lon="11.6731407"><ele>317.0</ele><time>2026-04-04T17:18:55.598Z</time></trkpt><trkpt lat="43.0050907" lon="11.6733383"><ele>316.6666666666667</ele><time>2026-04-04T17:18:56.603Z</time></trkpt><trkpt lat="43.0049778" lon="11.6735259"><ele>316.3333333333333</ele><time>2026-04-04T17:18:57.607Z</time></trkpt><trkpt lat="43.0048725" lon="11.6736807"><ele>316.0</ele><time>2026-04-04T17:18:58.601Z</time></trkpt><trkpt lat="43.0047691" lon="11.6738115"><ele>316.0</ele><time>2026-04-04T17:18:59.611Z</time></trkpt><trkpt lat="43.0046633" lon="11.6739379"><ele>316.0</ele><time>2026-04-04T17:19:00.604Z</time></trkpt><trkpt lat="43.0045511" lon="11.6740833"><ele>316.0</ele><time>2026-04-04T17:19:01.592Z</time></trkpt><trkpt lat="43.0044341" lon="11.6742493"><ele>315.66666666666663</ele><time>2026-04-04T17:19:02.602Z</time></trkpt><trkpt lat="43.0043225" lon="11.6744382"><ele>315.3333333333333</ele><time>2026-04-04T17:19:03.607Z</time></trkpt><trkpt lat="43.0042164" lon="11.6746395"><ele>315.0</ele><time>2026-04-04T17:19:04.607Z</time></trkpt><trkpt lat="43.0041252" lon="11.6748394"><ele>314.0</ele><time>2026-04-04T17:19:05.613Z</time></trkpt><trkpt lat="43.0040563" lon="11.675043"><ele>313.0</ele><time>2026-04-04T17:19:06.613Z</time></trkpt><trkpt lat="43.0040031" lon="11.6752656"><ele>312.0</ele><time>2026-04-04T17:19:07.604Z</time></trkpt><trkpt lat="43.0039532" lon="11.6755096"><ele>312.0</ele><time>2026-04-04T17:19:08.601Z</time></trkpt><trkpt lat="43.0038986" lon="11.6757666"><ele>312.0</ele><time>2026-04-04T17:19:09.604Z</time></trkpt><trkpt lat="43.0038376" lon="11.676036"><ele>312.0</ele><time>2026-04-04T17:19:10.591Z</time></trkpt><trkpt lat="43.0037732" lon="11.6763165"><ele>312.0</ele><time>2026-04-04T17:19:11.602Z</time></trkpt><trkpt lat="43.0037041" lon="11.6766024"><ele>312.0</ele><time>2026-04-04T17:19:12.59Z</time></trkpt><trkpt lat="43.0036328" lon="11.6768732"><ele>312.0</ele><time>2026-04-04T17:19:13.605Z</time></trkpt><trkpt lat="43.0035596" lon="11.6771388"><ele>311.6666666666667</ele><time>2026-04-04T17:19:14.618Z</time></trkpt><trkpt lat="43.0034866" lon="11.6773931"><ele>311.33333333333337</ele><time>2026-04-04T17:19:15.59Z</time></trkpt><trkpt lat="43.0034109" lon="11.6776352"><ele>311.0</ele><time>2026-04-04T17:19:16.601Z</time></trkpt><trkpt lat="43.0033322" lon="11.6778664"><ele>310.33333333333337</ele><time>2026-04-04T17:19:17.6Z</time></trkpt><trkpt lat="43.003245" lon="11.678093"><ele>309.6666666666667</ele><time>2026-04-04T17:19:18.596Z</time></trkpt><trkpt lat="43.0031555" lon="11.6783172"><ele>309.0</ele><time>2026-04-04T17:19:19.601Z</time></trkpt><trkpt lat="43.003064" lon="11.6785363"><ele>308.6666666666667</ele><time>2026-04-04T17:19:20.612Z</time></trkpt><trkpt lat="43.002971" lon="11.6787469"><ele>308.33333333333337</ele><time>2026-04-04T17:19:21.6Z</time></trkpt><trkpt lat="43.0028748" lon="11.678947"><ele>308.0</ele><time>2026-04-04T17:19:22.604Z</time></trkpt><trkpt lat="43.0027772" lon="11.679154"><ele>308.0</ele><time>2026-04-04T17:19:23.595Z</time></trkpt><trkpt lat="43.0026793" lon="11.6793593"><ele>308.0</ele><time>2026-04-04T17:19:24.606Z</time></trkpt><trkpt lat="43.0025798" lon="11.6795714"><ele>308.0</ele><time>2026-04-04T17:19:25.607Z</time></trkpt><trkpt lat="43.0024784" lon="11.6797936"><ele>308.0</ele><time>2026-04-04T17:19:26.608Z</time></trkpt><trkpt lat="43.0023736" lon="11.6800304"><ele>308.0</ele><time>2026-04-04T17:19:27.605Z</time></trkpt><trkpt lat="43.002268" lon="11.6802815"><ele>308.0</ele><time>2026-04-04T17:19:28.598Z</time></trkpt><trkpt lat="43.0021633" lon="11.6805443"><ele>308.0</ele><time>2026-04-04T17:19:29.598Z</time></trkpt><trkpt lat="43.0020589" lon="11.6808116"><ele>308.0</ele><time>2026-04-04T17:19:30.602Z</time></trkpt><trkpt lat="43.0019614" lon="11.6810651"><ele>308.0</ele><time>2026-04-04T17:19:31.597Z</time></trkpt><trkpt lat="43.0018696" lon="11.6813002"><ele>308.33333333333337</ele><time>2026-04-04T17:19:32.606Z</time></trkpt><trkpt lat="43.0017776" lon="11.6815143"><ele>308.6666666666667</ele><time>2026-04-04T17:19:33.609Z</time></trkpt><trkpt lat="43.0016842" lon="11.6816996"><ele>309.0</ele><time>2026-04-04T17:19:34.61Z</time></trkpt><trkpt lat="43.0015816" lon="11.6818611"><ele>311.25</ele><time>2026-04-04T17:19:35.613Z</time></trkpt><trkpt lat="43.0014755" lon="11.6820057"><ele>313.5</ele><time>2026-04-04T17:19:36.611Z</time></trkpt><trkpt lat="43.0013646" lon="11.6821381"><ele>315.75</ele><time>2026-04-04T17:19:37.597Z</time></trkpt><trkpt lat="43.0012454" lon="11.6822637"><ele>318.0</ele><time>2026-04-04T17:19:38.603Z</time></trkpt><trkpt lat="43.0011196" lon="11.6823889"><ele>318.0</ele><time>2026-04-04T17:19:39.603Z</time></trkpt><trkpt lat="43.0009833" lon="11.6825058"><ele>318.0</ele><time>2026-04-04T17:19:40.596Z</time></trkpt><trkpt lat="43.0008518" lon="11.6826279"><ele>318.0</ele><time>2026-04-04T17:19:41.598Z</time></trkpt><trkpt lat="43.0007148" lon="11.6827456"><ele>319.0</ele><time>2026-04-04T17:19:42.607Z</time></trkpt><trkpt lat="43.0005757" lon="11.6828653"><ele>320.0</ele><time>2026-04-04T17:19:43.593Z</time></trkpt><trkpt lat="43.0004474" lon="11.6829824"><ele>321.0</ele><time>2026-04-04T17:19:44.597Z</time></trkpt><trkpt lat="43.000329" lon="11.6830944"><ele>321.0</ele><time>2026-04-04T17:19:45.609Z</time></trkpt><trkpt lat="43.0002155" lon="11.683199"><ele>321.0</ele><time>2026-04-04T17:19:46.594Z</time></trkpt><trkpt lat="43.0001057" lon="11.6833003"><ele>321.0</ele><time>2026-04-04T17:19:47.593Z</time></trkpt><trkpt lat="42.9999939" lon="11.6833973"><ele>321.0</ele><time>2026-04-04T17:19:48.594Z</time></trkpt><trkpt lat="42.9998725" lon="11.6834811"><ele>321.0</ele><time>2026-04-04T17:19:49.596Z</time></trkpt><trkpt lat="42.999751" lon="11.6835425"><ele>321.0</ele><time>2026-04-04T17:19:50.596Z</time></trkpt><trkpt lat="42.999618" lon="11.6835756"><ele>321.0</ele><time>2026-04-04T17:19:51.595Z</time></trkpt><trkpt lat="42.9994753" lon="11.6835822"><ele>321.0</ele><time>2026-04-04T17:19:52.618Z</time></trkpt><trkpt lat="42.9993227" lon="11.683583"><ele>320.6666666666667</ele><time>2026-04-04T17:19:53.597Z</time></trkpt><trkpt lat="42.9991573" lon="11.6835823"><ele>320.33333333333337</ele><time>2026-04-04T17:19:54.603Z</time></trkpt><trkpt lat="42.9989897" lon="11.6835751"><ele>320.0</ele><time>2026-04-04T17:19:55.608Z</time></trkpt><trkpt lat="42.9988269" lon="11.6835712"><ele>320.0</ele><time>2026-04-04T17:19:56.613Z</time></trkpt><trkpt lat="42.9986611" lon="11.6835696"><ele>320.0</ele><time>2026-04-04T17:19:57.602Z</time></trkpt><trkpt lat="42.9984997" lon="11.683565"><ele>320.0</ele><time>2026-04-04T17:19:58.604Z</time></trkpt><trkpt lat="42.998346" lon="11.683561"><ele>319.0</ele><time>2026-04-04T17:19:59.598Z</time></trkpt><trkpt lat="42.9981939" lon="11.6835577"><ele>318.0</ele><time>2026-04-04T17:20:00.594Z</time></trkpt><trkpt lat="42.9980414" lon="11.6835521"><ele>317.0</ele><time>2026-04-04T17:20:01.602Z</time></trkpt><trkpt lat="42.9978945" lon="11.6835424"><ele>317.0</ele><time>2026-04-04T17:20:02.604Z</time></trkpt><trkpt lat="42.9977461" lon="11.6835256"><ele>317.0</ele><time>2026-04-04T17:20:03.605Z</time></trkpt><trkpt lat="42.9976007" lon="11.6835057"><ele>317.0</ele><time>2026-04-04T17:20:04.603Z</time></trkpt><trkpt lat="42.9974541" lon="11.6834839"><ele>317.0</ele><time>2026-04-04T17:20:05.607Z</time></trkpt><trkpt lat="42.9973025" lon="11.6834664"><ele>314.6666666666667</ele><time>2026-04-04T17:20:06.599Z</time></trkpt><trkpt lat="42.9971434" lon="11.6834594"><ele>312.3333333333333</ele><time>2026-04-04T17:20:07.603Z</time></trkpt><trkpt lat="42.9969897" lon="11.683475"><ele>310.0</ele><time>2026-04-04T17:20:08.611Z</time></trkpt><trkpt lat="42.996846" lon="11.6835222"><ele>309.25</ele><time>2026-04-04T17:20:09.606Z</time></trkpt><trkpt lat="42.9967222" lon="11.6835998"><ele>308.5</ele><time>2026-04-04T17:20:10.609Z</time></trkpt><trkpt lat="42.9966192" lon="11.6837013"><ele>307.75</ele><time>2026-04-04T17:20:11.601Z</time></trkpt><trkpt lat="42.9965314" lon="11.6838298"><ele>307.0</ele><time>2026-04-04T17:20:12.611Z</time></trkpt><trkpt lat="42.9964592" lon="11.6839881"><ele>307.0</ele><time>2026-04-04T17:20:13.595Z</time></trkpt><trkpt lat="42.9963829" lon="11.6841516"><ele>307.0</ele><time>2026-04-04T17:20:14.597Z</time></trkpt><trkpt lat="42.9962791" lon="11.6842964"><ele>307.0</ele><time>2026-04-04T17:20:15.594Z</time></trkpt><trkpt lat="42.9961537" lon="11.6844262"><ele>307.0</ele><time>2026-04-04T17:20:16.601Z</time></trkpt><trkpt lat="42.9960108" lon="11.6845477"><ele>306.3333333333333</ele><time>2026-04-04T17:20:17.6Z</time></trkpt><trkpt lat="42.9958577" lon="11.6846727"><ele>305.6666666666667</ele><time>2026-04-04T17:20:18.604Z</time></trkpt><trkpt lat="42.9957038" lon="11.6847968"><ele>305.0</ele><time>2026-04-04T17:20:19.6Z</time></trkpt><trkpt lat="42.9955588" lon="11.6849135"><ele>305.0</ele><time>2026-04-04T17:20:20.606Z</time></trkpt><trkpt lat="42.9954217" lon="11.6850292"><ele>305.0</ele><time>2026-04-04T17:20:21.601Z</time></trkpt><trkpt lat="42.9952911" lon="11.6851353"><ele>305.0</ele><time>2026-04-04T17:20:22.588Z</time></trkpt><trkpt lat="42.9951647" lon="11.6852302"><ele>304.75</ele><time>2026-04-04T17:20:23.594Z</time></trkpt><trkpt lat="42.9950461" lon="11.6853194"><ele>304.5</ele><time>2026-04-04T17:20:24.598Z</time></trkpt><trkpt lat="42.9949361" lon="11.6854069"><ele>304.25</ele><time>2026-04-04T17:20:25.602Z</time></trkpt><trkpt lat="42.9948325" lon="11.6854882"><ele>304.0</ele><time>2026-04-04T17:20:26.606Z</time></trkpt><trkpt lat="42.9947346" lon="11.6855635"><ele>304.0</ele><time>2026-04-04T17:20:27.606Z</time></trkpt><trkpt lat="42.9946369" lon="11.6856404"><ele>304.0</ele><time>2026-04-04T17:20:28.607Z</time></trkpt><trkpt lat="42.9945381" lon="11.6857152"><ele>304.0</ele><time>2026-04-04T17:20:29.602Z</time></trkpt><trkpt lat="42.9944442" lon="11.6857832"><ele>304.0</ele><time>2026-04-04T17:20:30.601Z</time></trkpt><trkpt lat="42.9943519" lon="11.6858534"><ele>304.0</ele><time>2026-04-04T17:20:31.613Z</time></trkpt><trkpt lat="42.9942574" lon="11.685922"><ele>304.25</ele><time>2026-04-04T17:20:32.607Z</time></trkpt><trkpt lat="42.9941615" lon="11.685993"><ele>304.5</ele><time>2026-04-04T17:20:33.607Z</time></trkpt><trkpt lat="42.9940542" lon="11.686067"><ele>304.75</ele><time>2026-04-04T17:20:34.604Z</time></trkpt><trkpt lat="42.9939345" lon="11.6861486"><ele>305.0</ele><time>2026-04-04T17:20:35.604Z</time></trkpt><trkpt lat="42.9938062" lon="11.6862407"><ele>305.0</ele><time>2026-04-04T17:20:36.608Z</time></trkpt><trkpt lat="42.993668" lon="11.6863414"><ele>305.0</ele><time>2026-04-04T17:20:37.605Z</time></trkpt><trkpt lat="42.9935273" lon="11.6864302"><ele>305.0</ele><time>2026-04-04T17:20:38.602Z</time></trkpt><trkpt lat="42.9933823" lon="11.6864929"><ele>306.0</ele><time>2026-04-04T17:20:39.6Z</time></trkpt><trkpt lat="42.9932251" lon="11.6865413"><ele>307.0</ele><time>2026-04-04T17:20:40.612Z</time></trkpt><trkpt lat="42.993061" lon="11.6865852"><ele>308.0</ele><time>2026-04-04T17:20:41.61Z</time></trkpt><trkpt lat="42.9928907" lon="11.6866351"><ele>308.0</ele><time>2026-04-04T17:20:42.601Z</time></trkpt><trkpt lat="42.992716" lon="11.6866791"><ele>308.0</ele><time>2026-04-04T17:20:43.608Z</time></trkpt><trkpt lat="42.9925383" lon="11.6867193"><ele>308.0</ele><time>2026-04-04T17:20:44.601Z</time></trkpt><trkpt lat="42.9923662" lon="11.6867601"><ele>309.0</ele><time>2026-04-04T17:20:45.603Z</time></trkpt><trkpt lat="42.9921954" lon="11.6868066"><ele>310.0</ele><time>2026-04-04T17:20:46.599Z</time></trkpt><trkpt lat="42.992021" lon="11.6868522"><ele>311.0</ele><time>2026-04-04T17:20:47.591Z</time></trkpt><trkpt lat="42.991855" lon="11.686888"><ele>311.0</ele><time>2026-04-04T17:20:48.59Z</time></trkpt><trkpt lat="42.9916959" lon="11.686921"><ele>311.0</ele><time>2026-04-04T17:20:49.6Z</time></trkpt><trkpt lat="42.991537" lon="11.6869582"><ele>311.0</ele><time>2026-04-04T17:20:50.602Z</time></trkpt><trkpt lat="42.9913907" lon="11.686995"><ele>309.75</ele><time>2026-04-04T17:20:51.599Z</time></trkpt><trkpt lat="42.9912512" lon="11.6870282"><ele>308.5</ele><time>2026-04-04T17:20:52.598Z</time></trkpt><trkpt lat="42.9911266" lon="11.6870659"><ele>307.25</ele><time>2026-04-04T17:20:53.603Z</time></trkpt><trkpt lat="42.9910069" lon="11.6871292"><ele>306.0</ele><time>2026-04-04T17:20:54.609Z</time></trkpt><trkpt lat="42.9909007" lon="11.6872252"><ele>306.25</ele><time>2026-04-04T17:20:55.608Z</time></trkpt><trkpt lat="42.9908138" lon="11.6873516"><ele>306.5</ele><time>2026-04-04T17:20:56.601Z</time></trkpt><trkpt lat="42.9907496" lon="11.6875034"><ele>306.75</ele><time>2026-04-04T17:20:57.592Z</time></trkpt><trkpt lat="42.9907109" lon="11.6876724"><ele>307.0</ele><time>2026-04-04T17:20:58.605Z</time></trkpt><trkpt lat="42.9906975" lon="11.6878496"><ele>307.0</ele><time>2026-04-04T17:20:59.606Z</time></trkpt><trkpt lat="42.9906919" lon="11.6880418"><ele>307.0</ele><time>2026-04-04T17:21:00.6Z</time></trkpt><trkpt lat="42.9906827" lon="11.6882361"><ele>307.0</ele><time>2026-04-04T17:21:01.592Z</time></trkpt><trkpt lat="42.9906757" lon="11.6884143"><ele>307.0</ele><time>2026-04-04T17:21:02.606Z</time></trkpt><trkpt lat="42.9906644" lon="11.6885801"><ele>307.5</ele><time>2026-04-04T17:21:03.606Z</time></trkpt><trkpt lat="42.990623" lon="11.6887351"><ele>308.0</ele><time>2026-04-04T17:21:04.599Z</time></trkpt><trkpt lat="42.9905536" lon="11.6888955"><ele>308.5</ele><time>2026-04-04T17:21:05.604Z</time></trkpt><trkpt lat="42.9904569" lon="11.6890512"><ele>309.0</ele><time>2026-04-04T17:21:06.592Z</time></trkpt><trkpt lat="42.9903435" lon="11.6892093"><ele>309.0</ele><time>2026-04-04T17:21:07.608Z</time></trkpt><trkpt lat="42.9902237" lon="11.6893823"><ele>309.0</ele><time>2026-04-04T17:21:08.598Z</time></trkpt><trkpt lat="42.9900959" lon="11.689563"><ele>309.0</ele><time>2026-04-04T17:21:09.606Z</time></trkpt><trkpt lat="42.9899748" lon="11.6897298"><ele>309.3333333333333</ele><time>2026-04-04T17:21:10.609Z</time></trkpt><trkpt lat="42.9898634" lon="11.6898908"><ele>309.66666666666663</ele><time>2026-04-04T17:21:11.6Z</time></trkpt><trkpt lat="42.9897576" lon="11.6900453"><ele>310.0</ele><time>2026-04-04T17:21:12.605Z</time></trkpt><trkpt lat="42.9896537" lon="11.6901955"><ele>311.3333333333333</ele><time>2026-04-04T17:21:13.599Z</time></trkpt><trkpt lat="42.9895493" lon="11.6903484"><ele>312.6666666666667</ele><time>2026-04-04T17:21:14.607Z</time></trkpt><trkpt lat="42.9894362" lon="11.6905128"><ele>314.0</ele><time>2026-04-04T17:21:15.593Z</time></trkpt><trkpt lat="42.989312" lon="11.690687"><ele>314.0</ele><time>2026-04-04T17:21:16.601Z</time></trkpt><trkpt lat="42.9891807" lon="11.6908733"><ele>314.0</ele><time>2026-04-04T17:21:17.6Z</time></trkpt><trkpt lat="42.9890444" lon="11.6910677"><ele>314.0</ele><time>2026-04-04T17:21:18.601Z</time></trkpt><trkpt lat="42.9889169" lon="11.6912477"><ele>315.33333333333337</ele><time>2026-04-04T17:21:19.609Z</time></trkpt><trkpt lat="42.9887893" lon="11.6914274"><ele>316.6666666666667</ele><time>2026-04-04T17:21:20.614Z</time></trkpt><trkpt lat="42.9886679" lon="11.6915999"><ele>318.0</ele><time>2026-04-04T17:21:21.602Z</time></trkpt><trkpt lat="42.9885482" lon="11.691768"><ele>317.6666666666667</ele><time>2026-04-04T17:21:22.61Z</time></trkpt><trkpt lat="42.9884279" lon="11.6919356"><ele>317.33333333333337</ele><time>2026-04-04T17:21:23.603Z</time></trkpt><trkpt lat="42.9883072" lon="11.692107"><ele>317.0</ele><time>2026-04-04T17:21:24.614Z</time></trkpt><trkpt lat="42.9881878" lon="11.6922817"><ele>317.0</ele><time>2026-04-04T17:21:25.599Z</time></trkpt><trkpt lat="42.9880643" lon="11.6924556"><ele>317.0</ele><time>2026-04-04T17:21:26.604Z</time></trkpt><trkpt lat="42.9879422" lon="11.692628"><ele>317.0</ele><time>2026-04-04T17:21:27.598Z</time></trkpt><trkpt lat="42.9878215" lon="11.6927968"><ele>317.33333333333337</ele><time>2026-04-04T17:21:28.613Z</time></trkpt><trkpt lat="42.9877063" lon="11.6929661"><ele>317.6666666666667</ele><time>2026-04-04T17:21:29.594Z</time></trkpt><trkpt lat="42.9875917" lon="11.6931337"><ele>318.0</ele><time>2026-04-04T17:21:30.609Z</time></trkpt><trkpt lat="42.9874713" lon="11.6933009"><ele>318.0</ele><time>2026-04-04T17:21:31.592Z</time></trkpt><trkpt lat="42.9873492" lon="11.6934655"><ele>318.0</ele><time>2026-04-04T17:21:32.608Z</time></trkpt><trkpt lat="42.9872285" lon="11.6936361"><ele>318.0</ele><time>2026-04-04T17:21:33.598Z</time></trkpt><trkpt lat="42.9871035" lon="11.6938148"><ele>320.0</ele><time>2026-04-04T17:21:34.596Z</time></trkpt><trkpt lat="42.986967" lon="11.6939975"><ele>322.0</ele><time>2026-04-04T17:21:35.595Z</time></trkpt><trkpt lat="42.9868267" lon="11.6941875"><ele>324.0</ele><time>2026-04-04T17:21:36.604Z</time></trkpt><trkpt lat="42.9866869" lon="11.6943849"><ele>323.3333333333333</ele><time>2026-04-04T17:21:37.599Z</time></trkpt><trkpt lat="42.9865535" lon="11.6945766"><ele>322.66666666666663</ele><time>2026-04-04T17:21:38.586Z</time></trkpt><trkpt lat="42.9864229" lon="11.6947597"><ele>322.0</ele><time>2026-04-04T17:21:39.593Z</time></trkpt><trkpt lat="42.9862883" lon="11.694944"><ele>322.0</ele><time>2026-04-04T17:21:40.606Z</time></trkpt><trkpt lat="42.9861522" lon="11.6951277"><ele>322.0</ele><time>2026-04-04T17:21:41.616Z</time></trkpt><trkpt lat="42.9860162" lon="11.6953196"><ele>322.0</ele><time>2026-04-04T17:21:42.599Z</time></trkpt><trkpt lat="42.9858773" lon="11.6955157"><ele>321.66666666666663</ele><time>2026-04-04T17:21:43.605Z</time></trkpt><trkpt lat="42.9857365" lon="11.6957154"><ele>321.3333333333333</ele><time>2026-04-04T17:21:44.605Z</time></trkpt><trkpt lat="42.9855936" lon="11.6959182"><ele>321.0</ele><time>2026-04-04T17:21:45.613Z</time></trkpt><trkpt lat="42.9854525" lon="11.6961268"><ele>321.0</ele><time>2026-04-04T17:21:46.603Z</time></trkpt><trkpt lat="42.9853127" lon="11.6963412"><ele>321.0</ele><time>2026-04-04T17:21:47.605Z</time></trkpt><trkpt lat="42.9851773" lon="11.6965549"><ele>321.0</ele><time>2026-04-04T17:21:48.612Z</time></trkpt><trkpt lat="42.9850467" lon="11.6967668"><ele>320.6666666666667</ele><time>2026-04-04T17:21:49.594Z</time></trkpt><trkpt lat="42.9849201" lon="11.6969788"><ele>320.33333333333337</ele><time>2026-04-04T17:21:50.599Z</time></trkpt><trkpt lat="42.9847989" lon="11.6971877"><ele>320.0</ele><time>2026-04-04T17:21:51.602Z</time></trkpt><trkpt lat="42.9846785" lon="11.6974"><ele>320.0</ele><time>2026-04-04T17:21:52.598Z</time></trkpt><trkpt lat="42.9845591" lon="11.6976141"><ele>320.0</ele><time>2026-04-04T17:21:53.604Z</time></trkpt><trkpt lat="42.9844394" lon="11.6978276"><ele>320.0</ele><time>2026-04-04T17:21:54.593Z</time></trkpt><trkpt lat="42.9843219" lon="11.698047"><ele>322.0</ele><time>2026-04-04T17:21:55.6Z</time></trkpt><trkpt lat="42.9842086" lon="11.6982732"><ele>324.0</ele><time>2026-04-04T17:21:56.612Z</time></trkpt><trkpt lat="42.9840983" lon="11.6985017"><ele>326.0</ele><time>2026-04-04T17:21:57.605Z</time></trkpt><trkpt lat="42.9839938" lon="11.6987305"><ele>328.0</ele><time>2026-04-04T17:21:58.616Z</time></trkpt><trkpt lat="42.9838911" lon="11.6989594"><ele>330.0</ele><time>2026-04-04T17:21:59.605Z</time></trkpt><trkpt lat="42.9837888" lon="11.699188"><ele>332.0</ele><time>2026-04-04T17:22:00.601Z</time></trkpt><trkpt lat="42.983687" lon="11.6994183"><ele>335.0</ele><time>2026-04-04T17:22:01.612Z</time></trkpt><trkpt lat="42.9835846" lon="11.699654"><ele>338.0</ele><time>2026-04-04T17:22:02.611Z</time></trkpt><trkpt lat="42.9834828" lon="11.6998945"><ele>341.0</ele><time>2026-04-04T17:22:03.607Z</time></trkpt><trkpt lat="42.9833851" lon="11.7001344"><ele>339.0</ele><time>2026-04-04T17:22:04.594Z</time></trkpt><trkpt lat="42.98329" lon="11.7003752"><ele>337.0</ele><time>2026-04-04T17:22:05.606Z</time></trkpt><trkpt lat="42.9831992" lon="11.7006125"><ele>335.0</ele><time>2026-04-04T17:22:06.606Z</time></trkpt><trkpt lat="42.9831065" lon="11.7008489"><ele>336.0</ele><time>2026-04-04T17:22:07.605Z</time></trkpt><trkpt lat="42.9830195" lon="11.7010863"><ele>337.0</ele><time>2026-04-04T17:22:08.603Z</time></trkpt><trkpt lat="42.9829326" lon="11.701327"><ele>338.0</ele><time>2026-04-04T17:22:09.608Z</time></trkpt><trkpt lat="42.9828446" lon="11.7015672"><ele>338.0</ele><time>2026-04-04T17:22:10.605Z</time></trkpt><trkpt lat="42.9827598" lon="11.7017994"><ele>338.0</ele><time>2026-04-04T17:22:11.599Z</time></trkpt><trkpt lat="42.9826776" lon="11.7020162"><ele>338.0</ele><time>2026-04-04T17:22:12.612Z</time></trkpt><trkpt lat="42.9826021" lon="11.7022203"><ele>339.33333333333337</ele><time>2026-04-04T17:22:13.585Z</time></trkpt><trkpt lat="42.9825238" lon="11.7024307"><ele>340.6666666666667</ele><time>2026-04-04T17:22:14.602Z</time></trkpt><trkpt lat="42.9824376" lon="11.7026457"><ele>342.0</ele><time>2026-04-04T17:22:15.603Z</time></trkpt><trkpt lat="42.9823425" lon="11.7028637"><ele>344.3333333333333</ele><time>2026-04-04T17:22:16.585Z</time></trkpt><trkpt lat="42.982239" lon="11.7030823"><ele>346.66666666666663</ele><time>2026-04-04T17:22:17.6Z</time></trkpt><trkpt lat="42.9821326" lon="11.703305"><ele>349.0</ele><time>2026-04-04T17:22:18.602Z</time></trkpt><trkpt lat="42.9820225" lon="11.7035228"><ele>348.0</ele><time>2026-04-04T17:22:19.596Z</time></trkpt><trkpt lat="42.9819068" lon="11.7037269"><ele>347.0</ele><time>2026-04-04T17:22:20.61Z</time></trkpt><trkpt lat="42.9817859" lon="11.7039184"><ele>346.0</ele><time>2026-04-04T17:22:21.602Z</time></trkpt><trkpt lat="42.9816595" lon="11.7041069"><ele>347.0</ele><time>2026-04-04T17:22:22.595Z</time></trkpt><trkpt lat="42.9815349" lon="11.7042754"><ele>348.0</ele><time>2026-04-04T17:22:23.595Z</time></trkpt><trkpt lat="42.981414" lon="11.7044305"><ele>349.0</ele><time>2026-04-04T17:22:24.59Z</time></trkpt><trkpt lat="42.9812969" lon="11.7045784"><ele>349.0</ele><time>2026-04-04T17:22:25.596Z</time></trkpt><trkpt lat="42.9811836" lon="11.7047263"><ele>349.0</ele><time>2026-04-04T17:22:26.599Z</time></trkpt><trkpt lat="42.9810721" lon="11.7048657"><ele>349.0</ele><time>2026-04-04T17:22:27.6Z</time></trkpt><trkpt lat="42.9809633" lon="11.7049896"><ele>349.0</ele><time>2026-04-04T17:22:28.595Z</time></trkpt><trkpt lat="42.9808573" lon="11.7050954"><ele>350.2</ele><time>2026-04-04T17:22:29.599Z</time></trkpt><trkpt lat="42.9807577" lon="11.7051932"><ele>351.4</ele><time>2026-04-04T17:22:30.591Z</time></trkpt><trkpt lat="42.9806611" lon="11.7052815"><ele>352.6</ele><time>2026-04-04T17:22:31.591Z</time></trkpt><trkpt lat="42.980568" lon="11.7053533"><ele>353.8</ele><time>2026-04-04T17:22:32.595Z</time></trkpt><trkpt lat="42.9804902" lon="11.7054172"><ele>355.0</ele><time>2026-04-04T17:22:33.598Z</time></trkpt><trkpt lat="42.9804357" lon="11.7054844"><ele>355.0</ele><time>2026-04-04T17:22:34.6Z</time></trkpt><trkpt lat="42.9804079" lon="11.7055667"><ele>355.0</ele><time>2026-04-04T17:22:35.602Z</time></trkpt><trkpt lat="42.9803969" lon="11.7056631"><ele>355.0</ele><time>2026-04-04T17:22:36.599Z</time></trkpt><trkpt lat="42.9803983" lon="11.7057762"><ele>355.0</ele><time>2026-04-04T17:22:37.607Z</time></trkpt><trkpt lat="42.9804242" lon="11.7058966"><ele>355.0</ele><time>2026-04-04T17:22:38.593Z</time></trkpt><trkpt lat="42.9804696" lon="11.7060384"><ele>355.0</ele><time>2026-04-04T17:22:39.605Z</time></trkpt><trkpt lat="42.9805247" lon="11.7062046"><ele>354.3333333333333</ele><time>2026-04-04T17:22:40.602Z</time></trkpt><trkpt lat="42.9805817" lon="11.7063877"><ele>353.6666666666667</ele><time>2026-04-04T17:22:41.604Z</time></trkpt><trkpt lat="42.9806339" lon="11.7065788"><ele>353.0</ele><time>2026-04-04T17:22:42.604Z</time></trkpt><trkpt lat="42.980678" lon="11.7067863"><ele>351.33333333333337</ele><time>2026-04-04T17:22:43.603Z</time></trkpt><trkpt lat="42.980718" lon="11.7069967"><ele>349.6666666666667</ele><time>2026-04-04T17:22:44.598Z</time></trkpt><trkpt lat="42.9807625" lon="11.7072062"><ele>348.0</ele><time>2026-04-04T17:22:45.599Z</time></trkpt><trkpt lat="42.9808075" lon="11.7074241"><ele>348.0</ele><time>2026-04-04T17:22:46.604Z</time></trkpt><trkpt lat="42.9808486" lon="11.7076417"><ele>348.0</ele><time>2026-04-04T17:22:47.609Z</time></trkpt><trkpt lat="42.9808886" lon="11.7078555"><ele>348.0</ele><time>2026-04-04T17:22:48.602Z</time></trkpt><trkpt lat="42.9809337" lon="11.7080765"><ele>347.6666666666667</ele><time>2026-04-04T17:22:49.608Z</time></trkpt><trkpt lat="42.9809813" lon="11.7083071"><ele>347.33333333333337</ele><time>2026-04-04T17:22:50.6Z</time></trkpt><trkpt lat="42.981027" lon="11.7085389"><ele>347.0</ele><time>2026-04-04T17:22:51.598Z</time></trkpt><trkpt lat="42.9810702" lon="11.7087637"><ele>345.33333333333337</ele><time>2026-04-04T17:22:52.601Z</time></trkpt><trkpt lat="42.9811144" lon="11.7089909"><ele>343.6666666666667</ele><time>2026-04-04T17:22:53.609Z</time></trkpt><trkpt lat="42.9811636" lon="11.709222"><ele>342.0</ele><time>2026-04-04T17:22:54.608Z</time></trkpt><trkpt lat="42.9812127" lon="11.7094524"><ele>342.0</ele><time>2026-04-04T17:22:55.601Z</time></trkpt><trkpt lat="42.9812648" lon="11.709687"><ele>342.0</ele><time>2026-04-04T17:22:56.592Z</time></trkpt><trkpt lat="42.9813203" lon="11.7099122"><ele>342.0</ele><time>2026-04-04T17:22:57.59Z</time></trkpt><trkpt lat="42.9813864" lon="11.7101279"><ele>342.0</ele><time>2026-04-04T17:22:58.606Z</time></trkpt><trkpt lat="42.9814666" lon="11.7103417"><ele>342.0</ele><time>2026-04-04T17:22:59.603Z</time></trkpt><trkpt lat="42.9815615" lon="11.7105578"><ele>342.0</ele><time>2026-04-04T17:23:00.6Z</time></trkpt><trkpt lat="42.9816706" lon="11.7107755"><ele>342.0</ele><time>2026-04-04T17:23:01.611Z</time></trkpt><trkpt lat="42.9817937" lon="11.7109896"><ele>342.0</ele><time>2026-04-04T17:23:02.606Z</time></trkpt><trkpt lat="42.9819256" lon="11.7111926"><ele>342.0</ele><time>2026-04-04T17:23:03.606Z</time></trkpt><trkpt lat="42.9820714" lon="11.711383"><ele>342.0</ele><time>2026-04-04T17:23:04.612Z</time></trkpt><trkpt lat="42.9822249" lon="11.7115535"><ele>342.0</ele><time>2026-04-04T17:23:05.608Z</time></trkpt><trkpt lat="42.9823852" lon="11.7117097"><ele>342.0</ele><time>2026-04-04T17:23:06.6Z</time></trkpt><trkpt lat="42.9825521" lon="11.7118478"><ele>342.6666666666667</ele><time>2026-04-04T17:23:07.595Z</time></trkpt><trkpt lat="42.982726" lon="11.7119652"><ele>343.33333333333337</ele><time>2026-04-04T17:23:08.607Z</time></trkpt><trkpt lat="42.9829153" lon="11.7120701"><ele>344.0</ele><time>2026-04-04T17:23:09.599Z</time></trkpt><trkpt lat="42.9831156" lon="11.7121698"><ele>344.0</ele><time>2026-04-04T17:23:10.603Z</time></trkpt><trkpt lat="42.983323" lon="11.7122653"><ele>344.0</ele><time>2026-04-04T17:23:11.606Z</time></trkpt><trkpt lat="42.9835235" lon="11.7123566"><ele>344.0</ele><time>2026-04-04T17:23:12.596Z</time></trkpt><trkpt lat="42.9837152" lon="11.7124451"><ele>342.6666666666667</ele><time>2026-04-04T17:23:13.602Z</time></trkpt><trkpt lat="42.9839074" lon="11.7125369"><ele>341.3333333333333</ele><time>2026-04-04T17:23:14.595Z</time></trkpt><trkpt lat="42.9840964" lon="11.7126333"><ele>340.0</ele><time>2026-04-04T17:23:15.598Z</time></trkpt><trkpt lat="42.9842897" lon="11.7127278"><ele>339.0</ele><time>2026-04-04T17:23:16.595Z</time></trkpt><trkpt lat="42.9844883" lon="11.7128296"><ele>338.0</ele><time>2026-04-04T17:23:17.598Z</time></trkpt><trkpt lat="42.984678" lon="11.712942"><ele>337.0</ele><time>2026-04-04T17:23:18.614Z</time></trkpt><trkpt lat="42.9848561" lon="11.7130634"><ele>336.66666666666663</ele><time>2026-04-04T17:23:19.59Z</time></trkpt><trkpt lat="42.9850332" lon="11.713198"><ele>336.3333333333333</ele><time>2026-04-04T17:23:20.602Z</time></trkpt><trkpt lat="42.9852127" lon="11.7133381"><ele>336.0</ele><time>2026-04-04T17:23:21.596Z</time></trkpt><trkpt lat="42.985391" lon="11.7134881"><ele>335.3333333333333</ele><time>2026-04-04T17:23:22.608Z</time></trkpt><trkpt lat="42.9855652" lon="11.713657"><ele>334.66666666666663</ele><time>2026-04-04T17:23:23.598Z</time></trkpt><trkpt lat="42.9857274" lon="11.7138319"><ele>334.0</ele><time>2026-04-04T17:23:24.6Z</time></trkpt><trkpt lat="42.9858804" lon="11.7140078"><ele>334.0</ele><time>2026-04-04T17:23:25.598Z</time></trkpt><trkpt lat="42.9860348" lon="11.7141918"><ele>334.0</ele><time>2026-04-04T17:23:26.594Z</time></trkpt><trkpt lat="42.9861941" lon="11.7143719"><ele>334.0</ele><time>2026-04-04T17:23:27.607Z</time></trkpt><trkpt lat="42.9863561" lon="11.7145541"><ele>333.3333333333333</ele><time>2026-04-04T17:23:28.589Z</time></trkpt><trkpt lat="42.9865224" lon="11.71474"><ele>332.6666666666667</ele><time>2026-04-04T17:23:29.605Z</time></trkpt><trkpt lat="42.9866867" lon="11.7149299"><ele>332.0</ele><time>2026-04-04T17:23:30.613Z</time></trkpt><trkpt lat="42.9868455" lon="11.7151171"><ele>334.0</ele><time>2026-04-04T17:23:31.612Z</time></trkpt><trkpt lat="42.9870009" lon="11.7152959"><ele>336.0</ele><time>2026-04-04T17:23:32.603Z</time></trkpt><trkpt lat="42.9871592" lon="11.7154738"><ele>338.0</ele><time>2026-04-04T17:23:33.602Z</time></trkpt><trkpt lat="42.9873262" lon="11.7156462"><ele>338.0</ele><time>2026-04-04T17:23:34.591Z</time></trkpt><trkpt lat="42.987505" lon="11.715804"><ele>338.0</ele><time>2026-04-04T17:23:35.606Z</time></trkpt><trkpt lat="42.987691" lon="11.7159515"><ele>338.0</ele><time>2026-04-04T17:23:36.607Z</time></trkpt><trkpt lat="42.9878777" lon="11.716085"><ele>337.33333333333337</ele><time>2026-04-04T17:23:37.604Z</time></trkpt><trkpt lat="42.9880676" lon="11.71621"><ele>336.6666666666667</ele><time>2026-04-04T17:23:38.611Z</time></trkpt><trkpt lat="42.988264" lon="11.7163429"><ele>336.0</ele><time>2026-04-04T17:23:39.602Z</time></trkpt><trkpt lat="42.9884625" lon="11.7164745"><ele>334.6666666666667</ele><time>2026-04-04T17:23:40.615Z</time></trkpt><trkpt lat="42.9886542" lon="11.7166045"><ele>333.33333333333337</ele><time>2026-04-04T17:23:41.592Z</time></trkpt><trkpt lat="42.9888445" lon="11.7167322"><ele>332.0</ele><time>2026-04-04T17:23:42.609Z</time></trkpt><trkpt lat="42.9890346" lon="11.7168584"><ele>331.33333333333337</ele><time>2026-04-04T17:23:43.598Z</time></trkpt><trkpt lat="42.9892237" lon="11.7169847"><ele>330.6666666666667</ele><time>2026-04-04T17:23:44.597Z</time></trkpt><trkpt lat="42.9894112" lon="11.7171121"><ele>330.0</ele><time>2026-04-04T17:23:45.599Z</time></trkpt><trkpt lat="42.9895993" lon="11.7172405"><ele>330.0</ele><time>2026-04-04T17:23:46.606Z</time></trkpt><trkpt lat="42.9897897" lon="11.7173758"><ele>330.0</ele><time>2026-04-04T17:23:47.607Z</time></trkpt><trkpt lat="42.9899786" lon="11.7175223"><ele>330.0</ele><time>2026-04-04T17:23:48.611Z</time></trkpt><trkpt lat="42.9901556" lon="11.7176739"><ele>329.6666666666667</ele><time>2026-04-04T17:23:49.602Z</time></trkpt><trkpt lat="42.9903256" lon="11.7178297"><ele>329.33333333333337</ele><time>2026-04-04T17:23:50.604Z</time></trkpt><trkpt lat="42.9904944" lon="11.7179884"><ele>329.0</ele><time>2026-04-04T17:23:51.616Z</time></trkpt><trkpt lat="42.9906659" lon="11.7181525"><ele>329.0</ele><time>2026-04-04T17:23:52.607Z</time></trkpt><trkpt lat="42.9908337" lon="11.7183256"><ele>329.0</ele><time>2026-04-04T17:23:53.601Z</time></trkpt><trkpt lat="42.9909953" lon="11.7185019"><ele>329.0</ele><time>2026-04-04T17:23:54.604Z</time></trkpt><trkpt lat="42.9911543" lon="11.7186818"><ele>329.0</ele><time>2026-04-04T17:23:55.604Z</time></trkpt><trkpt lat="42.9913143" lon="11.7188604"><ele>329.0</ele><time>2026-04-04T17:23:56.603Z</time></trkpt><trkpt lat="42.9914767" lon="11.7190371"><ele>329.0</ele><time>2026-04-04T17:23:57.609Z</time></trkpt><trkpt lat="42.9916389" lon="11.719218"><ele>328.0</ele><time>2026-04-04T17:23:58.602Z</time></trkpt><trkpt lat="42.9918009" lon="11.7194044"><ele>327.0</ele><time>2026-04-04T17:23:59.603Z</time></trkpt><trkpt lat="42.9919662" lon="11.7195925"><ele>326.0</ele><time>2026-04-04T17:24:00.605Z</time></trkpt><trkpt lat="42.9921375" lon="11.7197788"><ele>326.0</ele><time>2026-04-04T17:24:01.606Z</time></trkpt><trkpt lat="42.9923106" lon="11.7199654"><ele>326.0</ele><time>2026-04-04T17:24:02.603Z</time></trkpt><trkpt lat="42.9924847" lon="11.7201517"><ele>326.0</ele><time>2026-04-04T17:24:03.605Z</time></trkpt><trkpt lat="42.9926597" lon="11.7203461"><ele>326.6666666666667</ele><time>2026-04-04T17:24:04.6Z</time></trkpt><trkpt lat="42.9928274" lon="11.7205367"><ele>327.3333333333333</ele><time>2026-04-04T17:24:05.595Z</time></trkpt><trkpt lat="42.9929922" lon="11.7207224"><ele>328.0</ele><time>2026-04-04T17:24:06.598Z</time></trkpt><trkpt lat="42.9931586" lon="11.7209087"><ele>327.3333333333333</ele><time>2026-04-04T17:24:07.606Z</time></trkpt><trkpt lat="42.9933257" lon="11.7210897"><ele>326.6666666666667</ele><time>2026-04-04T17:24:08.605Z</time></trkpt><trkpt lat="42.9934898" lon="11.7212685"><ele>326.0</ele><time>2026-04-04T17:24:09.604Z</time></trkpt><trkpt lat="42.993652" lon="11.7214455"><ele>325.33333333333337</ele><time>2026-04-04T17:24:10.593Z</time></trkpt><trkpt lat="42.9938131" lon="11.7216204"><ele>324.6666666666667</ele><time>2026-04-04T17:24:11.603Z</time></trkpt><trkpt lat="42.9939734" lon="11.7217992"><ele>324.0</ele><time>2026-04-04T17:24:12.594Z</time></trkpt><trkpt lat="42.9941374" lon="11.721979"><ele>323.0</ele><time>2026-04-04T17:24:13.602Z</time></trkpt><trkpt lat="42.9943034" lon="11.722159"><ele>322.0</ele><time>2026-04-04T17:24:14.612Z</time></trkpt><trkpt lat="42.9944646" lon="11.7223368"><ele>321.0</ele><time>2026-04-04T17:24:15.614Z</time></trkpt><trkpt lat="42.994622" lon="11.7225114"><ele>321.0</ele><time>2026-04-04T17:24:16.61Z</time></trkpt><trkpt lat="42.994782" lon="11.7226864"><ele>321.0</ele><time>2026-04-04T17:24:17.602Z</time></trkpt><trkpt lat="42.9949431" lon="11.7228641"><ele>321.0</ele><time>2026-04-04T17:24:18.602Z</time></trkpt><trkpt lat="42.9950957" lon="11.7230345"><ele>321.0</ele><time>2026-04-04T17:24:19.592Z</time></trkpt><trkpt lat="42.9952432" lon="11.7231978"><ele>321.0</ele><time>2026-04-04T17:24:20.6Z</time></trkpt><trkpt lat="42.9953927" lon="11.723364"><ele>321.0</ele><time>2026-04-04T17:24:21.604Z</time></trkpt><trkpt lat="42.9955463" lon="11.7235297"><ele>321.0</ele><time>2026-04-04T17:24:22.597Z</time></trkpt><trkpt lat="42.9957044" lon="11.723689"><ele>321.0</ele><time>2026-04-04T17:24:23.609Z</time></trkpt><trkpt lat="42.9958644" lon="11.7238415"><ele>321.0</ele><time>2026-04-04T17:24:24.607Z</time></trkpt><trkpt lat="42.9960314" lon="11.7239953"><ele>320.6666666666667</ele><time>2026-04-04T17:24:25.594Z</time></trkpt><trkpt lat="42.9962057" lon="11.7241468"><ele>320.33333333333337</ele><time>2026-04-04T17:24:26.605Z</time></trkpt><trkpt lat="42.9963866" lon="11.7242958"><ele>320.0</ele><time>2026-04-04T17:24:27.607Z</time></trkpt><trkpt lat="42.9965742" lon="11.7244439"><ele>319.33333333333337</ele><time>2026-04-04T17:24:28.616Z</time></trkpt><trkpt lat="42.9967661" lon="11.7245872"><ele>318.6666666666667</ele><time>2026-04-04T17:24:29.608Z</time></trkpt><trkpt lat="42.9969627" lon="11.7247308"><ele>318.0</ele><time>2026-04-04T17:24:30.601Z</time></trkpt><trkpt lat="42.9971614" lon="11.7248784"><ele>318.0</ele><time>2026-04-04T17:24:31.6Z</time></trkpt><trkpt lat="42.997356" lon="11.7250261"><ele>318.0</ele><time>2026-04-04T17:24:32.605Z</time></trkpt><trkpt lat="42.9975442" lon="11.7251676"><ele>318.0</ele><time>2026-04-04T17:24:33.595Z</time></trkpt><trkpt lat="42.9977342" lon="11.7253089"><ele>318.0</ele><time>2026-04-04T17:24:34.586Z</time></trkpt><trkpt lat="42.9979188" lon="11.7254482"><ele>318.0</ele><time>2026-04-04T17:24:35.601Z</time></trkpt><trkpt lat="42.9980989" lon="11.7255839"><ele>318.0</ele><time>2026-04-04T17:24:36.604Z</time></trkpt><trkpt lat="42.9982723" lon="11.7257143"><ele>317.3333333333333</ele><time>2026-04-04T17:24:37.605Z</time></trkpt><trkpt lat="42.9984429" lon="11.7258404"><ele>316.66666666666663</ele><time>2026-04-04T17:24:38.607Z</time></trkpt><trkpt lat="42.9986083" lon="11.7259648"><ele>316.0</ele><time>2026-04-04T17:24:39.593Z</time></trkpt><trkpt lat="42.9987751" lon="11.7260913"><ele>316.0</ele><time>2026-04-04T17:24:40.599Z</time></trkpt><trkpt lat="42.9989484" lon="11.7262309"><ele>316.0</ele><time>2026-04-04T17:24:41.608Z</time></trkpt><trkpt lat="42.9991263" lon="11.7263749"><ele>316.0</ele><time>2026-04-04T17:24:42.602Z</time></trkpt><trkpt lat="42.9993072" lon="11.726517"><ele>315.66666666666663</ele><time>2026-04-04T17:24:43.599Z</time></trkpt><trkpt lat="42.9994887" lon="11.7266602"><ele>315.3333333333333</ele><time>2026-04-04T17:24:44.602Z</time></trkpt><trkpt lat="42.9996726" lon="11.7267986"><ele>315.0</ele><time>2026-04-04T17:24:45.604Z</time></trkpt><trkpt lat="42.9998572" lon="11.7269354"><ele>315.0</ele><time>2026-04-04T17:24:46.593Z</time></trkpt><trkpt lat="43.0000378" lon="11.7270699"><ele>315.0</ele><time>2026-04-04T17:24:47.605Z</time></trkpt><trkpt lat="43.0002175" lon="11.7272056"><ele>315.0</ele><time>2026-04-04T17:24:48.606Z</time></trkpt><trkpt lat="43.0003958" lon="11.7273398"><ele>315.0</ele><time>2026-04-04T17:24:49.602Z</time></trkpt><trkpt lat="43.0005712" lon="11.7274712"><ele>315.0</ele><time>2026-04-04T17:24:50.605Z</time></trkpt><trkpt lat="43.0007436" lon="11.7276047"><ele>315.0</ele><time>2026-04-04T17:24:51.601Z</time></trkpt><trkpt lat="43.0009181" lon="11.7277351"><ele>315.0</ele><time>2026-04-04T17:24:52.604Z</time></trkpt><trkpt lat="43.0010923" lon="11.7278632"><ele>315.0</ele><time>2026-04-04T17:24:53.599Z</time></trkpt><trkpt lat="43.001265" lon="11.7279932"><ele>315.0</ele><time>2026-04-04T17:24:54.6Z</time></trkpt><trkpt lat="43.001439" lon="11.7281241"><ele>315.0</ele><time>2026-04-04T17:24:55.604Z</time></trkpt><trkpt lat="43.0016127" lon="11.7282531"><ele>315.0</ele><time>2026-04-04T17:24:56.616Z</time></trkpt><trkpt lat="43.0017864" lon="11.7283881"><ele>315.0</ele><time>2026-04-04T17:24:57.6Z</time></trkpt><trkpt lat="43.0019595" lon="11.7285234"><ele>314.3333333333333</ele><time>2026-04-04T17:24:58.605Z</time></trkpt><trkpt lat="43.0021378" lon="11.728655"><ele>313.66666666666663</ele><time>2026-04-04T17:24:59.609Z</time></trkpt><trkpt lat="43.0023194" lon="11.7287909"><ele>313.0</ele><time>2026-04-04T17:25:00.594Z</time></trkpt><trkpt lat="43.0025033" lon="11.7289331"><ele>312.66666666666663</ele><time>2026-04-04T17:25:01.605Z</time></trkpt><trkpt lat="43.0026905" lon="11.7290726"><ele>312.3333333333333</ele><time>2026-04-04T17:25:02.607Z</time></trkpt><trkpt lat="43.002881" lon="11.7292094"><ele>312.0</ele><time>2026-04-04T17:25:03.599Z</time></trkpt><trkpt lat="43.0030741" lon="11.7293438"><ele>312.0</ele><time>2026-04-04T17:25:04.603Z</time></trkpt><trkpt lat="43.003271" lon="11.7294646"><ele>312.0</ele><time>2026-04-04T17:25:05.604Z</time></trkpt><trkpt lat="43.003469" lon="11.7295766"><ele>312.0</ele><time>2026-04-04T17:25:06.602Z</time></trkpt><trkpt lat="43.0036709" lon="11.7296751"><ele>311.3333333333333</ele><time>2026-04-04T17:25:07.603Z</time></trkpt><trkpt lat="43.0038726" lon="11.7297715"><ele>310.66666666666663</ele><time>2026-04-04T17:25:08.605Z</time></trkpt><trkpt lat="43.0040753" lon="11.7298707"><ele>310.0</ele><time>2026-04-04T17:25:09.6Z</time></trkpt><trkpt lat="43.0042774" lon="11.7299669"><ele>309.66666666666663</ele><time>2026-04-04T17:25:10.61Z</time></trkpt><trkpt lat="43.0044792" lon="11.7300618"><ele>309.3333333333333</ele><time>2026-04-04T17:25:11.604Z</time></trkpt><trkpt lat="43.0046772" lon="11.730156"><ele>309.0</ele><time>2026-04-04T17:25:12.601Z</time></trkpt><trkpt lat="43.0048718" lon="11.7302479"><ele>309.3333333333333</ele><time>2026-04-04T17:25:13.602Z</time></trkpt><trkpt lat="43.0050621" lon="11.7303382"><ele>309.66666666666663</ele><time>2026-04-04T17:25:14.603Z</time></trkpt><trkpt lat="43.005253" lon="11.7304312"><ele>310.0</ele><time>2026-04-04T17:25:15.604Z</time></trkpt><trkpt lat="43.0054402" lon="11.7305382"><ele>310.0</ele><time>2026-04-04T17:25:16.606Z</time></trkpt><trkpt lat="43.0056237" lon="11.7306601"><ele>310.0</ele><time>2026-04-04T17:25:17.609Z</time></trkpt><trkpt lat="43.0058017" lon="11.730798"><ele>310.0</ele><time>2026-04-04T17:25:18.6Z</time></trkpt><trkpt lat="43.0059713" lon="11.7309469"><ele>310.0</ele><time>2026-04-04T17:25:19.61Z</time></trkpt><trkpt lat="43.006132" lon="11.7311071"><ele>310.0</ele><time>2026-04-04T17:25:20.603Z</time></trkpt><trkpt lat="43.0062797" lon="11.7312777"><ele>310.0</ele><time>2026-04-04T17:25:21.59Z</time></trkpt><trkpt lat="43.0064191" lon="11.7314612"><ele>310.0</ele><time>2026-04-04T17:25:22.62Z</time></trkpt><trkpt lat="43.0065486" lon="11.7316572"><ele>310.0</ele><time>2026-04-04T17:25:23.596Z</time></trkpt><trkpt lat="43.0066696" lon="11.7318608"><ele>310.0</ele><time>2026-04-04T17:25:24.603Z</time></trkpt><trkpt lat="43.0067847" lon="11.7320714"><ele>309.66666666666663</ele><time>2026-04-04T17:25:25.602Z</time></trkpt><trkpt lat="43.0068884" lon="11.7322933"><ele>309.3333333333333</ele><time>2026-04-04T17:25:26.605Z</time></trkpt><trkpt lat="43.0069828" lon="11.7325225"><ele>309.0</ele><time>2026-04-04T17:25:27.598Z</time></trkpt><trkpt lat="43.0070661" lon="11.7327591"><ele>310.6666666666667</ele><time>2026-04-04T17:25:28.595Z</time></trkpt><trkpt lat="43.0071393" lon="11.7329996"><ele>312.33333333333337</ele><time>2026-04-04T17:25:29.598Z</time></trkpt><trkpt lat="43.0072017" lon="11.7332471"><ele>314.0</ele><time>2026-04-04T17:25:30.596Z</time></trkpt><trkpt lat="43.007253" lon="11.7335021"><ele>314.0</ele><time>2026-04-04T17:25:31.601Z</time></trkpt><trkpt lat="43.0072944" lon="11.7337616"><ele>314.0</ele><time>2026-04-04T17:25:32.603Z</time></trkpt><trkpt lat="43.0073273" lon="11.7340242"><ele>314.0</ele><time>2026-04-04T17:25:33.6Z</time></trkpt><trkpt lat="43.0073471" lon="11.7342881"><ele>314.0</ele><time>2026-04-04T17:25:34.601Z</time></trkpt><trkpt lat="43.0073534" lon="11.7345484"><ele>314.0</ele><time>2026-04-04T17:25:35.6Z</time></trkpt><trkpt lat="43.0073496" lon="11.7348007"><ele>314.0</ele><time>2026-04-04T17:25:36.602Z</time></trkpt><trkpt lat="43.0073452" lon="11.7350492"><ele>313.33333333333337</ele><time>2026-04-04T17:25:37.607Z</time></trkpt><trkpt lat="43.0073432" lon="11.7352949"><ele>312.6666666666667</ele><time>2026-04-04T17:25:38.617Z</time></trkpt><trkpt lat="43.0073416" lon="11.7355274"><ele>312.0</ele><time>2026-04-04T17:25:39.594Z</time></trkpt><trkpt lat="43.0073361" lon="11.7357383"><ele>312.0</ele><time>2026-04-04T17:25:40.599Z</time></trkpt><trkpt lat="43.0073299" lon="11.7359306"><ele>312.0</ele><time>2026-04-04T17:25:41.606Z</time></trkpt><trkpt lat="43.0073237" lon="11.7360948"><ele>312.0</ele><time>2026-04-04T17:25:42.586Z</time></trkpt><trkpt lat="43.0073206" lon="11.7362234"><ele>312.0</ele><time>2026-04-04T17:25:43.592Z</time></trkpt><trkpt lat="43.0073148" lon="11.7363152"><ele>312.0</ele><time>2026-04-04T17:25:44.61Z</time></trkpt><trkpt lat="43.0073108" lon="11.7364307"><ele>310.8</ele><time>2026-04-04T17:25:46.597Z</time></trkpt><trkpt lat="43.0073152" lon="11.7365692"><ele>309.6</ele><time>2026-04-04T17:32:13.605Z</time></trkpt><trkpt lat="43.0073216" lon="11.7366706"><ele>308.40000000000003</ele><time>2026-04-04T17:32:14.602Z</time></trkpt><trkpt lat="43.0073253" lon="11.7367984"><ele>307.2</ele><time>2026-04-04T17:32:15.606Z</time></trkpt><trkpt lat="43.0073242" lon="11.7369434"><ele>306.0</ele><time>2026-04-04T17:32:16.605Z</time></trkpt><trkpt lat="43.0073268" lon="11.7370931"><ele>305.40000000000003</ele><time>2026-04-04T17:32:17.6Z</time></trkpt><trkpt lat="43.0073261" lon="11.7372357"><ele>304.8</ele><time>2026-04-04T17:32:18.6Z</time></trkpt><trkpt lat="43.0073228" lon="11.7373865"><ele>304.20000000000005</ele><time>2026-04-04T17:32:19.611Z</time></trkpt><trkpt lat="43.0073175" lon="11.7375445"><ele>303.6</ele><time>2026-04-04T17:32:20.61Z</time></trkpt><trkpt lat="43.0073151" lon="11.7377026"><ele>303.0</ele><time>2026-04-04T17:32:21.607Z</time></trkpt><trkpt lat="43.0073154" lon="11.7378748"><ele>302.75</ele><time>2026-04-04T17:32:22.606Z</time></trkpt><trkpt lat="43.0073152" lon="11.738059"><ele>302.5</ele><time>2026-04-04T17:32:23.601Z</time></trkpt><trkpt lat="43.0073143" lon="11.7382608"><ele>302.25</ele><time>2026-04-04T17:32:24.605Z</time></trkpt><trkpt lat="43.0073123" lon="11.7384802"><ele>302.0</ele><time>2026-04-04T17:32:25.609Z</time></trkpt><trkpt lat="43.0073093" lon="11.7387057"><ele>301.6666666666667</ele><time>2026-04-04T17:32:26.608Z</time></trkpt><trkpt lat="43.0073066" lon="11.7389506"><ele>301.3333333333333</ele><time>2026-04-04T17:32:27.598Z</time></trkpt><trkpt lat="43.007303" lon="11.7391824"><ele>301.0</ele><time>2026-04-04T17:32:28.595Z</time></trkpt><trkpt lat="43.0072994" lon="11.739397"><ele>301.0</ele><time>2026-04-04T17:32:29.596Z</time></trkpt><trkpt lat="43.0072992" lon="11.7396255"><ele>301.0</ele><time>2026-04-04T17:32:30.612Z</time></trkpt><trkpt lat="43.0072978" lon="11.739832"><ele>301.0</ele><time>2026-04-04T17:32:31.599Z</time></trkpt><trkpt lat="43.0072939" lon="11.740053"><ele>301.66666666666663</ele><time>2026-04-04T17:32:32.601Z</time></trkpt><trkpt lat="43.0072908" lon="11.7402662"><ele>302.3333333333333</ele><time>2026-04-04T17:32:33.6Z</time></trkpt><trkpt lat="43.0072896" lon="11.7404731"><ele>303.0</ele><time>2026-04-04T17:32:34.605Z</time></trkpt><trkpt lat="43.0072894" lon="11.7406819"><ele>303.0</ele><time>2026-04-04T17:32:35.611Z</time></trkpt><trkpt lat="43.0072882" lon="11.7408888"><ele>303.0</ele><time>2026-04-04T17:32:36.602Z</time></trkpt><trkpt lat="43.0072857" lon="11.7410986"><ele>303.0</ele><time>2026-04-04T17:32:37.608Z</time></trkpt><trkpt lat="43.0072845" lon="11.7413174"><ele>303.0</ele><time>2026-04-04T17:32:38.602Z</time></trkpt><trkpt lat="43.0072821" lon="11.7415121"><ele>303.0</ele><time>2026-04-04T17:32:39.596Z</time></trkpt><trkpt lat="43.0072795" lon="11.7417299"><ele>303.0</ele><time>2026-04-04T17:32:40.604Z</time></trkpt><trkpt lat="43.00728" lon="11.7419479"><ele>302.6666666666667</ele><time>2026-04-04T17:32:41.607Z</time></trkpt><trkpt lat="43.0072789" lon="11.7421687"><ele>302.33333333333337</ele><time>2026-04-04T17:32:42.603Z</time></trkpt><trkpt lat="43.0072755" lon="11.7423949"><ele>302.0</ele><time>2026-04-04T17:32:43.613Z</time></trkpt><trkpt lat="43.0072742" lon="11.7426206"><ele>303.0</ele><time>2026-04-04T17:32:44.604Z</time></trkpt><trkpt lat="43.0072762" lon="11.7428509"><ele>304.0</ele><time>2026-04-04T17:32:45.606Z</time></trkpt><trkpt lat="43.0072749" lon="11.7430848"><ele>305.0</ele><time>2026-04-04T17:32:46.606Z</time></trkpt><trkpt lat="43.0072703" lon="11.7433231"><ele>305.33333333333337</ele><time>2026-04-04T17:32:47.599Z</time></trkpt><trkpt lat="43.00727" lon="11.7435606"><ele>305.6666666666667</ele><time>2026-04-04T17:32:48.608Z</time></trkpt><trkpt lat="43.0072688" lon="11.7438009"><ele>306.0</ele><time>2026-04-04T17:32:49.598Z</time></trkpt><trkpt lat="43.0072661" lon="11.7440403"><ele>306.0</ele><time>2026-04-04T17:32:50.608Z</time></trkpt><trkpt lat="43.0072624" lon="11.7442814"><ele>306.0</ele><time>2026-04-04T17:32:51.605Z</time></trkpt><trkpt lat="43.0072583" lon="11.7445243"><ele>306.0</ele><time>2026-04-04T17:32:52.612Z</time></trkpt><trkpt lat="43.0072554" lon="11.7447666"><ele>307.3333333333333</ele><time>2026-04-04T17:32:53.596Z</time></trkpt><trkpt lat="43.0072535" lon="11.7450109"><ele>308.66666666666663</ele><time>2026-04-04T17:32:54.598Z</time></trkpt><trkpt lat="43.0072541" lon="11.745255"><ele>310.0</ele><time>2026-04-04T17:32:55.614Z</time></trkpt><trkpt lat="43.0072524" lon="11.745502"><ele>312.66666666666663</ele><time>2026-04-04T17:32:56.605Z</time></trkpt><trkpt lat="43.0072502" lon="11.7457522"><ele>315.3333333333333</ele><time>2026-04-04T17:32:57.605Z</time></trkpt><trkpt lat="43.0072488" lon="11.7460091"><ele>318.0</ele><time>2026-04-04T17:32:58.613Z</time></trkpt><trkpt lat="43.0072478" lon="11.7462658"><ele>319.3333333333333</ele><time>2026-04-04T17:32:59.604Z</time></trkpt><trkpt lat="43.0072473" lon="11.7465283"><ele>320.66666666666663</ele><time>2026-04-04T17:33:00.612Z</time></trkpt><trkpt lat="43.0072445" lon="11.7467907"><ele>322.0</ele><time>2026-04-04T17:33:01.618Z</time></trkpt><trkpt lat="43.0072405" lon="11.7470534"><ele>322.3333333333333</ele><time>2026-04-04T17:33:02.611Z</time></trkpt><trkpt lat="43.0072363" lon="11.7473165"><ele>322.6666666666667</ele><time>2026-04-04T17:33:03.61Z</time></trkpt><trkpt lat="43.0072333" lon="11.7475792"><ele>323.0</ele><time>2026-04-04T17:33:04.601Z</time></trkpt><trkpt lat="43.0072304" lon="11.7478378"><ele>324.0</ele><time>2026-04-04T17:33:05.606Z</time></trkpt><trkpt lat="43.0072285" lon="11.7480937"><ele>325.0</ele><time>2026-04-04T17:33:06.617Z</time></trkpt><trkpt lat="43.0072276" lon="11.7483455"><ele>326.0</ele><time>2026-04-04T17:33:07.612Z</time></trkpt><trkpt lat="43.0072278" lon="11.7485921"><ele>327.6666666666667</ele><time>2026-04-04T17:33:08.603Z</time></trkpt><trkpt lat="43.0072256" lon="11.7488382"><ele>329.3333333333333</ele><time>2026-04-04T17:33:09.605Z</time></trkpt><trkpt lat="43.0072249" lon="11.7490802"><ele>331.0</ele><time>2026-04-04T17:33:10.598Z</time></trkpt><trkpt lat="43.0072231" lon="11.7493226"><ele>332.0</ele><time>2026-04-04T17:33:11.601Z</time></trkpt><trkpt lat="43.00722" lon="11.7495659"><ele>333.0</ele><time>2026-04-04T17:33:12.603Z</time></trkpt><trkpt lat="43.0072186" lon="11.7498072"><ele>334.0</ele><time>2026-04-04T17:33:13.611Z</time></trkpt><trkpt lat="43.0072154" lon="11.750045"><ele>334.66666666666663</ele><time>2026-04-04T17:33:14.607Z</time></trkpt><trkpt lat="43.0072131" lon="11.7502832"><ele>335.3333333333333</ele><time>2026-04-04T17:33:15.604Z</time></trkpt><trkpt lat="43.0072119" lon="11.7505201"><ele>336.0</ele><time>2026-04-04T17:33:16.622Z</time></trkpt><trkpt lat="43.0072084" lon="11.7507482"><ele>336.0</ele><time>2026-04-04T17:33:17.612Z</time></trkpt><trkpt lat="43.007206" lon="11.7509652"><ele>336.0</ele><time>2026-04-04T17:33:18.609Z</time></trkpt><trkpt lat="43.0072139" lon="11.751183"><ele>336.0</ele><time>2026-04-04T17:33:19.61Z</time></trkpt><trkpt lat="43.0072428" lon="11.751408"><ele>335.6666666666667</ele><time>2026-04-04T17:33:20.599Z</time></trkpt><trkpt lat="43.0072867" lon="11.7516315"><ele>335.33333333333337</ele><time>2026-04-04T17:33:21.609Z</time></trkpt><trkpt lat="43.0073398" lon="11.7518485"><ele>335.0</ele><time>2026-04-04T17:33:22.608Z</time></trkpt><trkpt lat="43.0074067" lon="11.7520562"><ele>335.0</ele><time>2026-04-04T17:33:23.609Z</time></trkpt><trkpt lat="43.0074921" lon="11.7522615"><ele>335.0</ele><time>2026-04-04T17:33:24.6Z</time></trkpt><trkpt lat="43.0075925" lon="11.75247"><ele>335.0</ele><time>2026-04-04T17:33:25.608Z</time></trkpt><trkpt lat="43.0076868" lon="11.752672"><ele>336.0</ele><time>2026-04-04T17:33:26.605Z</time></trkpt><trkpt lat="43.0077696" lon="11.7528572"><ele>337.0</ele><time>2026-04-04T17:33:27.615Z</time></trkpt><trkpt lat="43.0078601" lon="11.7530764"><ele>338.0</ele><time>2026-04-04T17:33:28.61Z</time></trkpt><trkpt lat="43.0079317" lon="11.7532907"><ele>338.0</ele><time>2026-04-04T17:33:29.603Z</time></trkpt><trkpt lat="43.0079909" lon="11.7535156"><ele>338.0</ele><time>2026-04-04T17:33:30.609Z</time></trkpt><trkpt lat="43.0080365" lon="11.7537539"><ele>338.0</ele><time>2026-04-04T17:33:31.6Z</time></trkpt><trkpt lat="43.0080617" lon="11.7539806"><ele>338.0</ele><time>2026-04-04T17:33:32.61Z</time></trkpt><trkpt lat="43.0080718" lon="11.7542464"><ele>338.0</ele><time>2026-04-04T17:33:33.6Z</time></trkpt><trkpt lat="43.0080711" lon="11.7544964"><ele>338.0</ele><time>2026-04-04T17:33:34.594Z</time></trkpt><trkpt lat="43.0080686" lon="11.7547358"><ele>339.6666666666667</ele><time>2026-04-04T17:33:35.607Z</time></trkpt><trkpt lat="43.0080653" lon="11.7550088"><ele>341.3333333333333</ele><time>2026-04-04T17:33:36.608Z</time></trkpt><trkpt lat="43.0080623" lon="11.7552553"><ele>343.0</ele><time>2026-04-04T17:33:37.613Z</time></trkpt><trkpt lat="43.0080585" lon="11.7555392"><ele>344.0</ele><time>2026-04-04T17:33:38.61Z</time></trkpt><trkpt lat="43.0080534" lon="11.7558136"><ele>345.0</ele><time>2026-04-04T17:33:39.605Z</time></trkpt><trkpt lat="43.0080488" lon="11.7560686"><ele>346.0</ele><time>2026-04-04T17:33:40.611Z</time></trkpt><trkpt lat="43.0080443" lon="11.756344"><ele>346.66666666666663</ele><time>2026-04-04T17:33:41.61Z</time></trkpt><trkpt lat="43.0080419" lon="11.7565968"><ele>347.3333333333333</ele><time>2026-04-04T17:33:42.604Z</time></trkpt><trkpt lat="43.0080428" lon="11.7568289"><ele>348.0</ele><time>2026-04-04T17:33:43.605Z</time></trkpt><trkpt lat="43.0080514" lon="11.7570936"><ele>348.0</ele><time>2026-04-04T17:33:44.619Z</time></trkpt><trkpt lat="43.00807" lon="11.7573406"><ele>348.0</ele><time>2026-04-04T17:33:45.592Z</time></trkpt><trkpt lat="43.0080996" lon="11.7575702"><ele>348.0</ele><time>2026-04-04T17:33:46.603Z</time></trkpt><trkpt lat="43.0081457" lon="11.7578244"><ele>348.0</ele><time>2026-04-04T17:33:47.606Z</time></trkpt><trkpt lat="43.0081945" lon="11.7580419"><ele>348.0</ele><time>2026-04-04T17:33:48.612Z</time></trkpt><trkpt lat="43.0082571" lon="11.7582716"><ele>348.0</ele><time>2026-04-04T17:33:49.598Z</time></trkpt><trkpt lat="43.0083345" lon="11.7585039"><ele>348.3333333333333</ele><time>2026-04-04T17:33:50.606Z</time></trkpt><trkpt lat="43.0084092" lon="11.758706"><ele>348.66666666666663</ele><time>2026-04-04T17:33:51.599Z</time></trkpt><trkpt lat="43.008501" lon="11.7589272"><ele>349.0</ele><time>2026-04-04T17:33:52.612Z</time></trkpt><trkpt lat="43.0085955" lon="11.7591189"><ele>349.0</ele><time>2026-04-04T17:33:53.61Z</time></trkpt><trkpt lat="43.0087091" lon="11.7593134"><ele>349.0</ele><time>2026-04-04T17:33:54.6Z</time></trkpt><trkpt lat="43.008839" lon="11.7595116"><ele>349.0</ele><time>2026-04-04T17:33:55.602Z</time></trkpt><trkpt lat="43.0089781" lon="11.7597044"><ele>349.0</ele><time>2026-04-04T17:33:56.603Z</time></trkpt><trkpt lat="43.0091167" lon="11.7599053"><ele>349.0</ele><time>2026-04-04T17:33:57.613Z</time></trkpt><trkpt lat="43.0092595" lon="11.7601055"><ele>349.0</ele><time>2026-04-04T17:33:58.604Z</time></trkpt><trkpt lat="43.0094031" lon="11.7603016"><ele>351.3333333333333</ele><time>2026-04-04T17:33:59.616Z</time></trkpt><trkpt lat="43.0095364" lon="11.7604877"><ele>353.6666666666667</ele><time>2026-04-04T17:34:00.6Z</time></trkpt><trkpt lat="43.0096606" lon="11.760665"><ele>356.0</ele><time>2026-04-04T17:34:01.608Z</time></trkpt><trkpt lat="43.0097841" lon="11.7608384"><ele>356.0</ele><time>2026-04-04T17:34:02.607Z</time></trkpt><trkpt lat="43.0099104" lon="11.7610072"><ele>356.0</ele><time>2026-04-04T17:34:03.6Z</time></trkpt><trkpt lat="43.0100357" lon="11.7611753"><ele>356.0</ele><time>2026-04-04T17:34:04.592Z</time></trkpt><trkpt lat="43.0101625" lon="11.7613468"><ele>358.6666666666667</ele><time>2026-04-04T17:34:05.612Z</time></trkpt><trkpt lat="43.0102931" lon="11.7615248"><ele>361.3333333333333</ele><time>2026-04-04T17:34:06.595Z</time></trkpt><trkpt lat="43.0104271" lon="11.7617095"><ele>364.0</ele><time>2026-04-04T17:34:07.608Z</time></trkpt><trkpt lat="43.0105688" lon="11.7618989"><ele>364.66666666666663</ele><time>2026-04-04T17:34:08.61Z</time></trkpt><trkpt lat="43.0107046" lon="11.7620843"><ele>365.3333333333333</ele><time>2026-04-04T17:34:09.6Z</time></trkpt><trkpt lat="43.0108315" lon="11.762265"><ele>366.0</ele><time>2026-04-04T17:34:10.604Z</time></trkpt><trkpt lat="43.010957" lon="11.7624437"><ele>366.0</ele><time>2026-04-04T17:34:11.61Z</time></trkpt><trkpt lat="43.0110875" lon="11.7626237"><ele>366.0</ele><time>2026-04-04T17:34:12.605Z</time></trkpt><trkpt lat="43.0112216" lon="11.7628032"><ele>366.0</ele><time>2026-04-04T17:34:13.616Z</time></trkpt><trkpt lat="43.0113538" lon="11.7629845"><ele>366.0</ele><time>2026-04-04T17:34:14.599Z</time></trkpt><trkpt lat="43.0114797" lon="11.763162"><ele>366.0</ele><time>2026-04-04T17:34:15.605Z</time></trkpt><trkpt lat="43.0116014" lon="11.7633321"><ele>366.0</ele><time>2026-04-04T17:34:16.608Z</time></trkpt><trkpt lat="43.0117276" lon="11.7634987"><ele>366.3333333333333</ele><time>2026-04-04T17:34:17.599Z</time></trkpt><trkpt lat="43.0118574" lon="11.7636547"><ele>366.66666666666663</ele><time>2026-04-04T17:34:18.602Z</time></trkpt><trkpt lat="43.0119986" lon="11.7637848"><ele>367.0</ele><time>2026-04-04T17:34:19.602Z</time></trkpt><trkpt lat="43.0121561" lon="11.7638892"><ele>367.0</ele><time>2026-04-04T17:34:20.603Z</time></trkpt><trkpt lat="43.0123282" lon="11.7639788"><ele>367.0</ele><time>2026-04-04T17:34:21.602Z</time></trkpt><trkpt lat="43.0125117" lon="11.764062"><ele>367.0</ele><time>2026-04-04T17:34:22.613Z</time></trkpt><trkpt lat="43.0127067" lon="11.7641447"><ele>367.3333333333333</ele><time>2026-04-04T17:34:23.604Z</time></trkpt><trkpt lat="43.0128894" lon="11.76422"><ele>367.6666666666667</ele><time>2026-04-04T17:34:24.604Z</time></trkpt><trkpt lat="43.013068" lon="11.7643003"><ele>368.0</ele><time>2026-04-04T17:34:25.606Z</time></trkpt><trkpt lat="43.0132504" lon="11.7643818"><ele>371.6666666666667</ele><time>2026-04-04T17:34:26.6Z</time></trkpt><trkpt lat="43.0134379" lon="11.7644662"><ele>375.3333333333333</ele><time>2026-04-04T17:34:27.609Z</time></trkpt><trkpt lat="43.0136343" lon="11.7645539"><ele>379.0</ele><time>2026-04-04T17:34:28.604Z</time></trkpt><trkpt lat="43.0138377" lon="11.7646406"><ele>379.0</ele><time>2026-04-04T17:34:29.616Z</time></trkpt><trkpt lat="43.0140342" lon="11.7647226"><ele>379.0</ele><time>2026-04-04T17:34:30.591Z</time></trkpt><trkpt lat="43.0142189" lon="11.7648017"><ele>379.0</ele><time>2026-04-04T17:34:31.596Z</time></trkpt><trkpt lat="43.0143969" lon="11.7648768"><ele>378.0</ele><time>2026-04-04T17:34:32.604Z</time></trkpt><trkpt lat="43.0145632" lon="11.7649483"><ele>377.0</ele><time>2026-04-04T17:34:33.61Z</time></trkpt><trkpt lat="43.0147265" lon="11.7650171"><ele>376.0</ele><time>2026-04-04T17:34:34.599Z</time></trkpt><trkpt lat="43.0148963" lon="11.7650895"><ele>377.0</ele><time>2026-04-04T17:34:35.598Z</time></trkpt><trkpt lat="43.0150693" lon="11.7651628"><ele>378.0</ele><time>2026-04-04T17:34:36.602Z</time></trkpt><trkpt lat="43.0152325" lon="11.7652364"><ele>379.0</ele><time>2026-04-04T17:34:37.612Z</time></trkpt><trkpt lat="43.0153858" lon="11.7652958"><ele>381.3333333333333</ele><time>2026-04-04T17:34:38.592Z</time></trkpt><trkpt lat="43.015535" lon="11.7653327"><ele>383.66666666666663</ele><time>2026-04-04T17:34:39.599Z</time></trkpt><trkpt lat="43.0156869" lon="11.7653396"><ele>386.0</ele><time>2026-04-04T17:34:40.6Z</time></trkpt><trkpt lat="43.0158415" lon="11.7653118"><ele>387.3333333333333</ele><time>2026-04-04T17:34:41.6Z</time></trkpt><trkpt lat="43.0159986" lon="11.765255"><ele>388.66666666666663</ele><time>2026-04-04T17:34:42.591Z</time></trkpt><trkpt lat="43.0161522" lon="11.7651982"><ele>390.0</ele><time>2026-04-04T17:34:43.606Z</time></trkpt><trkpt lat="43.016304" lon="11.7651677"><ele>390.0</ele><time>2026-04-04T17:34:44.596Z</time></trkpt><trkpt lat="43.0164568" lon="11.7651752"><ele>390.0</ele><time>2026-04-04T17:34:45.614Z</time></trkpt><trkpt lat="43.0166132" lon="11.7652188"><ele>390.0</ele><time>2026-04-04T17:34:46.604Z</time></trkpt><trkpt lat="43.0167709" lon="11.7652883"><ele>390.66666666666663</ele><time>2026-04-04T17:34:47.607Z</time></trkpt><trkpt lat="43.0169312" lon="11.7653749"><ele>391.3333333333333</ele><time>2026-04-04T17:34:48.6Z</time></trkpt><trkpt lat="43.0170916" lon="11.7654805"><ele>392.0</ele><time>2026-04-04T17:34:49.604Z</time></trkpt><trkpt lat="43.0172384" lon="11.7656197"><ele>392.0</ele><time>2026-04-04T17:34:50.605Z</time></trkpt><trkpt lat="43.0173623" lon="11.7657763"><ele>392.0</ele><time>2026-04-04T17:34:51.592Z</time></trkpt><trkpt lat="43.0174702" lon="11.7659343"><ele>392.0</ele><time>2026-04-04T17:34:52.608Z</time></trkpt><trkpt lat="43.017571" lon="11.7660778"><ele>393.25</ele><time>2026-04-04T17:34:53.605Z</time></trkpt><trkpt lat="43.0176718" lon="11.7661956"><ele>394.5</ele><time>2026-04-04T17:34:54.605Z</time></trkpt><trkpt lat="43.017779" lon="11.7662749"><ele>395.75</ele><time>2026-04-04T17:34:55.596Z</time></trkpt><trkpt lat="43.0178973" lon="11.7663166"><ele>397.0</ele><time>2026-04-04T17:34:56.615Z</time></trkpt><trkpt lat="43.0180239" lon="11.7663164"><ele>397.0</ele><time>2026-04-04T17:34:57.607Z</time></trkpt><trkpt lat="43.0181549" lon="11.7662862"><ele>397.0</ele><time>2026-04-04T17:34:58.6Z</time></trkpt><trkpt lat="43.0182978" lon="11.7662624"><ele>397.0</ele><time>2026-04-04T17:34:59.605Z</time></trkpt><trkpt lat="43.0184496" lon="11.7662619"><ele>397.0</ele><time>2026-04-04T17:35:00.604Z</time></trkpt><trkpt lat="43.0186078" lon="11.7662957"><ele>397.6666666666667</ele><time>2026-04-04T17:35:01.606Z</time></trkpt><trkpt lat="43.0187661" lon="11.7663559"><ele>398.33333333333337</ele><time>2026-04-04T17:35:02.6Z</time></trkpt><trkpt lat="43.0189148" lon="11.7664173"><ele>399.0</ele><time>2026-04-04T17:35:03.603Z</time></trkpt><trkpt lat="43.0190543" lon="11.7664857"><ele>399.5</ele><time>2026-04-04T17:35:04.606Z</time></trkpt><trkpt lat="43.0191761" lon="11.7665773"><ele>400.0</ele><time>2026-04-04T17:35:05.612Z</time></trkpt><trkpt lat="43.0192715" lon="11.7667238"><ele>400.5</ele><time>2026-04-04T17:35:06.599Z</time></trkpt><trkpt lat="43.0193592" lon="11.7668858"><ele>401.0</ele><time>2026-04-04T17:35:07.609Z</time></trkpt><trkpt lat="43.0194339" lon="11.7670661"><ele>403.25</ele><time>2026-04-04T17:35:08.601Z</time></trkpt><trkpt lat="43.0194931" lon="11.7672406"><ele>405.5</ele><time>2026-04-04T17:35:09.608Z</time></trkpt><trkpt lat="43.019557" lon="11.7673849"><ele>407.75</ele><time>2026-04-04T17:35:10.602Z</time></trkpt><trkpt lat="43.0196448" lon="11.7675016"><ele>410.0</ele><time>2026-04-04T17:35:11.595Z</time></trkpt><trkpt lat="43.0197502" lon="11.7675843"><ele>410.0</ele><time>2026-04-04T17:35:12.598Z</time></trkpt><trkpt lat="43.019867" lon="11.7676284"><ele>410.0</ele><time>2026-04-04T17:35:13.599Z</time></trkpt><trkpt lat="43.0199944" lon="11.7676252"><ele>410.0</ele><time>2026-04-04T17:35:14.6Z</time></trkpt><trkpt lat="43.0201277" lon="11.7675815"><ele>410.0</ele><time>2026-04-04T17:35:15.6Z</time></trkpt><trkpt lat="43.0202668" lon="11.7675154"><ele>410.0</ele><time>2026-04-04T17:35:16.613Z</time></trkpt><trkpt lat="43.0204154" lon="11.7674544"><ele>410.0</ele><time>2026-04-04T17:35:17.602Z</time></trkpt><trkpt lat="43.0205777" lon="11.7674106"><ele>410.0</ele><time>2026-04-04T17:35:18.591Z</time></trkpt><trkpt lat="43.0207453" lon="11.7674"><ele>411.0</ele><time>2026-04-04T17:35:19.596Z</time></trkpt><trkpt lat="43.02091" lon="11.7674256"><ele>412.0</ele><time>2026-04-04T17:35:20.61Z</time></trkpt><trkpt lat="43.0210655" lon="11.7674933"><ele>413.0</ele><time>2026-04-04T17:35:21.618Z</time></trkpt><trkpt lat="43.0212105" lon="11.7675945"><ele>415.66666666666663</ele><time>2026-04-04T17:35:22.607Z</time></trkpt><trkpt lat="43.0213497" lon="11.7677009"><ele>418.33333333333337</ele><time>2026-04-04T17:35:23.602Z</time></trkpt><trkpt lat="43.0214822" lon="11.7678026"><ele>421.0</ele><time>2026-04-04T17:35:24.6Z</time></trkpt><trkpt lat="43.0216107" lon="11.7678982"><ele>421.0</ele><time>2026-04-04T17:35:25.608Z</time></trkpt><trkpt lat="43.021724" lon="11.7679979"><ele>421.0</ele><time>2026-04-04T17:35:26.6Z</time></trkpt><trkpt lat="43.0218161" lon="11.7681152"><ele>421.0</ele><time>2026-04-04T17:35:27.601Z</time></trkpt><trkpt lat="43.0218895" lon="11.7682609"><ele>421.0</ele><time>2026-04-04T17:35:28.602Z</time></trkpt><trkpt lat="43.0219497" lon="11.7684264"><ele>423.5</ele><time>2026-04-04T17:35:29.604Z</time></trkpt><trkpt lat="43.0219926" lon="11.7686099"><ele>426.0</ele><time>2026-04-04T17:35:30.603Z</time></trkpt><trkpt lat="43.0220217" lon="11.7687891"><ele>428.5</ele><time>2026-04-04T17:35:31.601Z</time></trkpt><trkpt lat="43.0220552" lon="11.7689542"><ele>431.0</ele><time>2026-04-04T17:35:32.609Z</time></trkpt><trkpt lat="43.0221232" lon="11.769101"><ele>431.0</ele><time>2026-04-04T17:35:33.6Z</time></trkpt><trkpt lat="43.0222169" lon="11.7692154"><ele>431.0</ele><time>2026-04-04T17:35:34.597Z</time></trkpt><trkpt lat="43.0223287" lon="11.7692935"><ele>431.0</ele><time>2026-04-04T17:35:35.604Z</time></trkpt><trkpt lat="43.0224488" lon="11.7693172"><ele>431.0</ele><time>2026-04-04T17:35:36.606Z</time></trkpt><trkpt lat="43.0225701" lon="11.7692844"><ele>430.0</ele><time>2026-04-04T17:35:37.606Z</time></trkpt><trkpt lat="43.0226907" lon="11.7692232"><ele>429.0</ele><time>2026-04-04T17:35:38.607Z</time></trkpt><trkpt lat="43.0228145" lon="11.769192"><ele>428.0</ele><time>2026-04-04T17:35:39.599Z</time></trkpt><trkpt lat="43.0229419" lon="11.769203"><ele>427.0</ele><time>2026-04-04T17:35:40.6Z</time></trkpt><trkpt lat="43.0230657" lon="11.7692557"><ele>427.0</ele><time>2026-04-04T17:35:41.61Z</time></trkpt><trkpt lat="43.0231786" lon="11.7693551"><ele>427.0</ele><time>2026-04-04T17:35:42.599Z</time></trkpt><trkpt lat="43.0232889" lon="11.7694818"><ele>427.0</ele><time>2026-04-04T17:35:43.599Z</time></trkpt><trkpt lat="43.0234127" lon="11.769607"><ele>427.0</ele><time>2026-04-04T17:35:44.6Z</time></trkpt><trkpt lat="43.0235456" lon="11.7697367"><ele>430.25</ele><time>2026-04-04T17:35:45.597Z</time></trkpt><trkpt lat="43.0236714" lon="11.7698713"><ele>433.5</ele><time>2026-04-04T17:35:46.604Z</time></trkpt><trkpt lat="43.0237848" lon="11.7699913"><ele>436.75</ele><time>2026-04-04T17:35:47.598Z</time></trkpt><trkpt lat="43.0238914" lon="11.7700957"><ele>440.0</ele><time>2026-04-04T17:35:48.59Z</time></trkpt><trkpt lat="43.0239876" lon="11.7701759"><ele>440.8</ele><time>2026-04-04T17:35:49.604Z</time></trkpt><trkpt lat="43.0240869" lon="11.7702257"><ele>441.6</ele><time>2026-04-04T17:35:50.598Z</time></trkpt><trkpt lat="43.0241941" lon="11.7702344"><ele>442.4</ele><time>2026-04-04T17:35:51.606Z</time></trkpt><trkpt lat="43.0243025" lon="11.7702055"><ele>443.2</ele><time>2026-04-04T17:35:52.6Z</time></trkpt><trkpt lat="43.0244106" lon="11.7701349"><ele>444.0</ele><time>2026-04-04T17:35:53.594Z</time></trkpt><trkpt lat="43.0245205" lon="11.7700217"><ele>444.0</ele><time>2026-04-04T17:35:54.599Z</time></trkpt><trkpt lat="43.0246336" lon="11.7698779"><ele>444.0</ele><time>2026-04-04T17:35:55.605Z</time></trkpt><trkpt lat="43.0247533" lon="11.7697237"><ele>444.0</ele><time>2026-04-04T17:35:56.604Z</time></trkpt><trkpt lat="43.0248716" lon="11.7695716"><ele>444.0</ele><time>2026-04-04T17:35:57.608Z</time></trkpt><trkpt lat="43.0250006" lon="11.7694339"><ele>444.0</ele><time>2026-04-04T17:35:58.6Z</time></trkpt><trkpt lat="43.0251319" lon="11.7693155"><ele>444.0</ele><time>2026-04-04T17:35:59.594Z</time></trkpt><trkpt lat="43.0252604" lon="11.7692348"><ele>444.0</ele><time>2026-04-04T17:36:00.601Z</time></trkpt><trkpt lat="43.0253905" lon="11.769192"><ele>444.0</ele><time>2026-04-04T17:36:01.605Z</time></trkpt><trkpt lat="43.0255258" lon="11.7691923"><ele>444.0</ele><time>2026-04-04T17:36:02.602Z</time></trkpt><trkpt lat="43.0256611" lon="11.7692275"><ele>444.0</ele><time>2026-04-04T17:36:03.615Z</time></trkpt><trkpt lat="43.0257898" lon="11.7692973"><ele>446.25</ele><time>2026-04-04T17:36:04.606Z</time></trkpt><trkpt lat="43.025922" lon="11.7693802"><ele>448.5</ele><time>2026-04-04T17:36:05.607Z</time></trkpt><trkpt lat="43.0260592" lon="11.7694576"><ele>450.75</ele><time>2026-04-04T17:36:06.607Z</time></trkpt><trkpt lat="43.0262024" lon="11.7695171"><ele>453.0</ele><time>2026-04-04T17:36:07.608Z</time></trkpt><trkpt lat="43.0263524" lon="11.7695403"><ele>453.0</ele><time>2026-04-04T17:36:08.605Z</time></trkpt><trkpt lat="43.0265106" lon="11.7695372"><ele>453.0</ele><time>2026-04-04T17:36:09.601Z</time></trkpt><trkpt lat="43.0266767" lon="11.7695133"><ele>453.0</ele><time>2026-04-04T17:36:10.597Z</time></trkpt><trkpt lat="43.0268343" lon="11.7694826"><ele>452.5</ele><time>2026-04-04T17:36:11.612Z</time></trkpt><trkpt lat="43.0269803" lon="11.7694535"><ele>452.0</ele><time>2026-04-04T17:36:12.601Z</time></trkpt><trkpt lat="43.0271149" lon="11.7694241"><ele>451.5</ele><time>2026-04-04T17:36:13.601Z</time></trkpt><trkpt lat="43.0272374" lon="11.7693702"><ele>451.0</ele><time>2026-04-04T17:36:14.598Z</time></trkpt><trkpt lat="43.0273542" lon="11.7692902"><ele>451.0</ele><time>2026-04-04T17:36:15.612Z</time></trkpt><trkpt lat="43.0274732" lon="11.7691785"><ele>451.0</ele><time>2026-04-04T17:36:16.609Z</time></trkpt><trkpt lat="43.0275974" lon="11.7690415"><ele>451.0</ele><time>2026-04-04T17:36:17.607Z</time></trkpt><trkpt lat="43.0277245" lon="11.7688934"><ele>451.0</ele><time>2026-04-04T17:36:18.591Z</time></trkpt><trkpt lat="43.02784" lon="11.7687494"><ele>451.0</ele><time>2026-04-04T17:36:19.61Z</time></trkpt><trkpt lat="43.0279529" lon="11.7686256"><ele>451.0</ele><time>2026-04-04T17:36:20.601Z</time></trkpt><trkpt lat="43.0280592" lon="11.7685279"><ele>451.0</ele><time>2026-04-04T17:36:21.605Z</time></trkpt><trkpt lat="43.0281624" lon="11.7684565"><ele>451.0</ele><time>2026-04-04T17:36:22.61Z</time></trkpt><trkpt lat="43.0282741" lon="11.7684175"><ele>451.0</ele><time>2026-04-04T17:36:23.602Z</time></trkpt><trkpt lat="43.0283937" lon="11.7684191"><ele>451.0</ele><time>2026-04-04T17:36:24.591Z</time></trkpt><trkpt lat="43.0285136" lon="11.7684628"><ele>451.0</ele><time>2026-04-04T17:36:25.621Z</time></trkpt><trkpt lat="43.0286266" lon="11.7685396"><ele>455.25</ele><time>2026-04-04T17:36:26.604Z</time></trkpt><trkpt lat="43.0287264" lon="11.7686557"><ele>459.5</ele><time>2026-04-04T17:36:27.599Z</time></trkpt><trkpt lat="43.0288118" lon="11.7688073"><ele>463.75</ele><time>2026-04-04T17:36:28.605Z</time></trkpt><trkpt lat="43.0288995" lon="11.7689778"><ele>468.0</ele><time>2026-04-04T17:36:29.601Z</time></trkpt><trkpt lat="43.0290016" lon="11.7691542"><ele>468.0</ele><time>2026-04-04T17:36:30.609Z</time></trkpt><trkpt lat="43.0291077" lon="11.7693454"><ele>468.0</ele><time>2026-04-04T17:36:31.6Z</time></trkpt><trkpt lat="43.0292128" lon="11.7695337"><ele>468.0</ele><time>2026-04-04T17:36:32.6Z</time></trkpt><trkpt lat="43.0293088" lon="11.7697065"><ele>469.5</ele><time>2026-04-04T17:36:33.603Z</time></trkpt><trkpt lat="43.0293993" lon="11.7698644"><ele>471.0</ele><time>2026-04-04T17:36:34.596Z</time></trkpt><trkpt lat="43.0294884" lon="11.7700043"><ele>472.5</ele><time>2026-04-04T17:36:35.615Z</time></trkpt><trkpt lat="43.0295873" lon="11.7701114"><ele>474.0</ele><time>2026-04-04T17:36:36.612Z</time></trkpt><trkpt lat="43.0296965" lon="11.7701897"><ele>475.75</ele><time>2026-04-04T17:36:37.604Z</time></trkpt><trkpt lat="43.0298192" lon="11.7702308"><ele>477.5</ele><time>2026-04-04T17:36:38.61Z</time></trkpt><trkpt lat="43.0299472" lon="11.770231"><ele>479.25</ele><time>2026-04-04T17:36:39.612Z</time></trkpt><trkpt lat="43.0300733" lon="11.7702203"><ele>481.0</ele><time>2026-04-04T17:36:40.597Z</time></trkpt><trkpt lat="43.0301853" lon="11.7702267"><ele>481.0</ele><time>2026-04-04T17:36:41.607Z</time></trkpt><trkpt lat="43.0302794" lon="11.7702782"><ele>481.0</ele><time>2026-04-04T17:36:42.593Z</time></trkpt><trkpt lat="43.0303571" lon="11.770362"><ele>481.0</ele><time>2026-04-04T17:36:43.598Z</time></trkpt><trkpt lat="43.0304058" lon="11.7704782"><ele>481.0</ele><time>2026-04-04T17:36:44.607Z</time></trkpt><trkpt lat="43.0304203" lon="11.7706124"><ele>481.0</ele><time>2026-04-04T17:36:45.61Z</time></trkpt><trkpt lat="43.0303916" lon="11.7707414"><ele>481.0</ele><time>2026-04-04T17:36:46.6Z</time></trkpt><trkpt lat="43.0303247" lon="11.7708462"><ele>481.0</ele><time>2026-04-04T17:36:47.6Z</time></trkpt><trkpt lat="43.0302324" lon="11.7709157"><ele>481.0</ele><time>2026-04-04T17:36:48.601Z</time></trkpt><trkpt lat="43.030121" lon="11.770941"><ele>481.0</ele><time>2026-04-04T17:36:49.606Z</time></trkpt><trkpt lat="43.0299951" lon="11.7709572"><ele>481.0</ele><time>2026-04-04T17:36:50.605Z</time></trkpt><trkpt lat="43.0298576" lon="11.7709836"><ele>481.0</ele><time>2026-04-04T17:36:51.615Z</time></trkpt><trkpt lat="43.0297378" lon="11.7710098"><ele>481.0</ele><time>2026-04-04T17:36:52.605Z</time></trkpt><trkpt lat="43.0296245" lon="11.7710535"><ele>481.0</ele><time>2026-04-04T17:36:53.605Z</time></trkpt><trkpt lat="43.0295237" lon="11.7711259"><ele>481.0</ele><time>2026-04-04T17:36:54.605Z</time></trkpt><trkpt lat="43.0294402" lon="11.7712247"><ele>482.4</ele><time>2026-04-04T17:36:55.61Z</time></trkpt><trkpt lat="43.0293846" lon="11.7713488"><ele>483.8</ele><time>2026-04-04T17:36:56.589Z</time></trkpt><trkpt lat="43.0293618" lon="11.771487"><ele>485.19999999999993</ele><time>2026-04-04T17:36:57.602Z</time></trkpt><trkpt lat="43.02937" lon="11.7716307"><ele>486.59999999999997</ele><time>2026-04-04T17:36:58.607Z</time></trkpt><trkpt lat="43.0294083" lon="11.7717678"><ele>488.0</ele><time>2026-04-04T17:36:59.6Z</time></trkpt><trkpt lat="43.0294757" lon="11.7718886"><ele>489.75</ele><time>2026-04-04T17:37:00.606Z</time></trkpt><trkpt lat="43.0295682" lon="11.7719922"><ele>491.5</ele><time>2026-04-04T17:37:01.613Z</time></trkpt><trkpt lat="43.029683" lon="11.7720779"><ele>493.25</ele><time>2026-04-04T17:37:02.595Z</time></trkpt><trkpt lat="43.0298077" lon="11.7721526"><ele>495.0</ele><time>2026-04-04T17:37:03.614Z</time></trkpt><trkpt lat="43.0299142" lon="11.7722246"><ele>495.2</ele><time>2026-04-04T17:37:04.604Z</time></trkpt><trkpt lat="43.0299915" lon="11.772308"><ele>495.4</ele><time>2026-04-04T17:37:05.607Z</time></trkpt><trkpt lat="43.03006" lon="11.772421"><ele>495.6</ele><time>2026-04-04T17:37:06.608Z</time></trkpt><trkpt lat="43.0301043" lon="11.7725548"><ele>495.8</ele><time>2026-04-04T17:37:07.61Z</time></trkpt><trkpt lat="43.030121" lon="11.7727054"><ele>496.0</ele><time>2026-04-04T17:37:08.607Z</time></trkpt><trkpt lat="43.0300984" lon="11.7728611"><ele>497.75</ele><time>2026-04-04T17:37:09.601Z</time></trkpt><trkpt lat="43.0300401" lon="11.7730054"><ele>499.5</ele><time>2026-04-04T17:37:10.604Z</time></trkpt><trkpt lat="43.0299587" lon="11.773148"><ele>501.25</ele><time>2026-04-04T17:37:11.604Z</time></trkpt><trkpt lat="43.0298701" lon="11.7733022"><ele>503.0</ele><time>2026-04-04T17:37:12.616Z</time></trkpt><trkpt lat="43.0297724" lon="11.7734742"><ele>505.66666666666663</ele><time>2026-04-04T17:37:13.608Z</time></trkpt><trkpt lat="43.0296661" lon="11.7736542"><ele>508.33333333333337</ele><time>2026-04-04T17:37:14.601Z</time></trkpt><trkpt lat="43.0295507" lon="11.7738282"><ele>511.0</ele><time>2026-04-04T17:37:15.608Z</time></trkpt><trkpt lat="43.0294155" lon="11.773978"><ele>511.0</ele><time>2026-04-04T17:37:16.6Z</time></trkpt><trkpt lat="43.029268" lon="11.7740927"><ele>511.0</ele><time>2026-04-04T17:37:17.601Z</time></trkpt><trkpt lat="43.0291106" lon="11.7741774"><ele>511.0</ele><time>2026-04-04T17:37:18.613Z</time></trkpt><trkpt lat="43.0289579" lon="11.7742452"><ele>510.75</ele><time>2026-04-04T17:37:19.604Z</time></trkpt><trkpt lat="43.02881" lon="11.7743022"><ele>510.5</ele><time>2026-04-04T17:37:20.62Z</time></trkpt><trkpt lat="43.0286759" lon="11.77436"><ele>510.25</ele><time>2026-04-04T17:37:21.604Z</time></trkpt><trkpt lat="43.0285548" lon="11.7744218"><ele>510.0</ele><time>2026-04-04T17:37:22.613Z</time></trkpt><trkpt lat="43.0284528" lon="11.774488"><ele>510.8</ele><time>2026-04-04T17:37:23.611Z</time></trkpt><trkpt lat="43.0283743" lon="11.7745518"><ele>511.6</ele><time>2026-04-04T17:37:24.609Z</time></trkpt><trkpt lat="43.02831" lon="11.774636"><ele>512.4</ele><time>2026-04-04T17:37:25.611Z</time></trkpt><trkpt lat="43.0282525" lon="11.7747362"><ele>513.2</ele><time>2026-04-04T17:37:26.599Z</time></trkpt><trkpt lat="43.0281956" lon="11.7748598"><ele>514.0</ele><time>2026-04-04T17:37:27.595Z</time></trkpt><trkpt lat="43.0281464" lon="11.7750009"><ele>514.0</ele><time>2026-04-04T17:37:28.614Z</time></trkpt><trkpt lat="43.02809" lon="11.7751578"><ele>514.0</ele><time>2026-04-04T17:37:29.604Z</time></trkpt><trkpt lat="43.0280308" lon="11.7753306"><ele>514.0</ele><time>2026-04-04T17:37:30.602Z</time></trkpt><trkpt lat="43.0279624" lon="11.7755097"><ele>514.0</ele><time>2026-04-04T17:37:31.602Z</time></trkpt><trkpt lat="43.0278735" lon="11.7756901"><ele>517.6666666666667</ele><time>2026-04-04T17:37:32.602Z</time></trkpt><trkpt lat="43.0277697" lon="11.7758581"><ele>521.3333333333334</ele><time>2026-04-04T17:37:33.6Z</time></trkpt><trkpt lat="43.0276522" lon="11.7760115"><ele>525.0</ele><time>2026-04-04T17:37:34.613Z</time></trkpt><trkpt lat="43.0275169" lon="11.7761409"><ele>530.3333333333334</ele><time>2026-04-04T17:37:35.594Z</time></trkpt><trkpt lat="43.0273763" lon="11.7762535"><ele>535.6666666666667</ele><time>2026-04-04T17:37:36.602Z</time></trkpt><trkpt lat="43.0272223" lon="11.7763646"><ele>541.0</ele><time>2026-04-04T17:37:37.603Z</time></trkpt><trkpt lat="43.0270649" lon="11.7764528"><ele>541.0</ele><time>2026-04-04T17:37:38.609Z</time></trkpt><trkpt lat="43.0269048" lon="11.776514"><ele>541.0</ele><time>2026-04-04T17:37:39.605Z</time></trkpt><trkpt lat="43.0267507" lon="11.7765686"><ele>541.0</ele><time>2026-04-04T17:37:40.598Z</time></trkpt><trkpt lat="43.0266108" lon="11.776621"><ele>539.4</ele><time>2026-04-04T17:37:41.61Z</time></trkpt><trkpt lat="43.0264989" lon="11.7766648"><ele>537.8</ele><time>2026-04-04T17:37:42.605Z</time></trkpt><trkpt lat="43.0263965" lon="11.7766957"><ele>536.1999999999999</ele><time>2026-04-04T17:37:43.61Z</time></trkpt><trkpt lat="43.026306" lon="11.7767224"><ele>534.6</ele><time>2026-04-04T17:37:44.601Z</time></trkpt><trkpt lat="43.0262168" lon="11.7767578"><ele>533.0</ele><time>2026-04-04T17:37:45.611Z</time></trkpt><trkpt lat="43.0261275" lon="11.7768208"><ele>534.25</ele><time>2026-04-04T17:37:46.594Z</time></trkpt><trkpt lat="43.0260422" lon="11.776912"><ele>535.5</ele><time>2026-04-04T17:37:47.607Z</time></trkpt><trkpt lat="43.0259556" lon="11.7770269"><ele>536.75</ele><time>2026-04-04T17:37:48.61Z</time></trkpt><trkpt lat="43.0258792" lon="11.7771652"><ele>538.0</ele><time>2026-04-04T17:37:49.597Z</time></trkpt><trkpt lat="43.0258067" lon="11.7773044"><ele>538.0</ele><time>2026-04-04T17:37:50.605Z</time></trkpt><trkpt lat="43.0257255" lon="11.7774172"><ele>538.0</ele><time>2026-04-04T17:37:51.597Z</time></trkpt><trkpt lat="43.0256376" lon="11.7775134"><ele>538.0</ele><time>2026-04-04T17:37:52.601Z</time></trkpt><trkpt lat="43.0255419" lon="11.7776009"><ele>538.0</ele><time>2026-04-04T17:37:53.604Z</time></trkpt><trkpt lat="43.025439" lon="11.7776774"><ele>540.6</ele><time>2026-04-04T17:37:54.61Z</time></trkpt><trkpt lat="43.025346" lon="11.7777571"><ele>543.1999999999999</ele><time>2026-04-04T17:37:55.596Z</time></trkpt><trkpt lat="43.0252758" lon="11.7778435"><ele>545.8</ele><time>2026-04-04T17:37:56.597Z</time></trkpt><trkpt lat="43.0252275" lon="11.7779183"><ele>548.4</ele><time>2026-04-04T17:37:57.608Z</time></trkpt><trkpt lat="43.0251971" lon="11.7780277"><ele>551.0</ele><time>2026-04-04T17:37:59.598Z</time></trkpt><trkpt lat="43.0252574" lon="11.7781132"><ele>551.0</ele><time>2026-04-04T17:38:01.612Z</time></trkpt><trkpt lat="43.0253216" lon="11.7781247"><ele>551.0</ele><time>2026-04-04T17:38:02.603Z</time></trkpt><trkpt lat="43.0254042" lon="11.7781155"><ele>551.0</ele><time>2026-04-04T17:38:03.603Z</time></trkpt><trkpt lat="43.0254858" lon="11.778106"><ele>551.0</ele><time>2026-04-04T17:38:04.604Z</time></trkpt><trkpt lat="43.0255533" lon="11.7780954"><ele>551.0</ele><time>2026-04-04T17:38:05.608Z</time></trkpt><trkpt lat="43.025655" lon="11.7780552"><ele>551.0</ele><time>2026-04-04T17:38:07.599Z</time></trkpt><trkpt lat="43.0257488" lon="11.777984"><ele>550.6666666666666</ele><time>2026-04-04T17:38:09.589Z</time></trkpt><trkpt lat="43.0258119" lon="11.7779348"><ele>550.3333333333333</ele><time>2026-04-04T17:38:11.603Z</time></trkpt><trkpt lat="43.0258587" lon="11.7778642"><ele>550.0</ele><time>2026-04-04T17:38:53.616Z</time></trkpt><trkpt lat="43.025929" lon="11.7778263"><ele>549.6666666666666</ele><time>2026-04-04T17:38:54.624Z</time></trkpt><trkpt lat="43.0259927" lon="11.7777613"><ele>549.3333333333334</ele><time>2026-04-04T17:38:55.606Z</time></trkpt><trkpt lat="43.0260522" lon="11.7777003"><ele>549.0</ele><time>2026-04-04T17:38:56.595Z</time></trkpt><trkpt lat="43.0261131" lon="11.7776332"><ele>549.0</ele><time>2026-04-04T17:38:57.603Z</time></trkpt><trkpt lat="43.0261842" lon="11.7775595"><ele>549.0</ele><time>2026-04-04T17:38:58.613Z</time></trkpt><trkpt lat="43.0262551" lon="11.7774847"><ele>549.0</ele><time>2026-04-04T17:38:59.592Z</time></trkpt><trkpt lat="43.0263142" lon="11.777432"><ele>549.0</ele><time>2026-04-04T17:39:00.621Z</time></trkpt><trkpt lat="43.0263755" lon="11.7773927"><ele>549.0</ele><time>2026-04-04T17:39:01.605Z</time></trkpt><trkpt lat="43.0264469" lon="11.7773648"><ele>549.0</ele><time>2026-04-04T17:39:02.603Z</time></trkpt><trkpt lat="43.0265379" lon="11.7773458"><ele>549.0</ele><time>2026-04-04T17:39:03.602Z</time></trkpt><trkpt lat="43.0266328" lon="11.7773266"><ele>549.0</ele><time>2026-04-04T17:39:04.602Z</time></trkpt><trkpt lat="43.0267208" lon="11.7772999"><ele>549.0</ele><time>2026-04-04T17:39:05.602Z</time></trkpt><trkpt lat="43.026815" lon="11.7772686"><ele>549.0</ele><time>2026-04-04T17:39:06.6Z</time></trkpt><trkpt lat="43.026916" lon="11.7772447"><ele>549.0</ele><time>2026-04-04T17:39:07.607Z</time></trkpt><trkpt lat="43.0270185" lon="11.7772342"><ele>551.4</ele><time>2026-04-04T17:39:08.598Z</time></trkpt><trkpt lat="43.0271168" lon="11.7772382"><ele>553.8</ele><time>2026-04-04T17:39:09.602Z</time></trkpt><trkpt lat="43.0272205" lon="11.7772506"><ele>556.2</ele><time>2026-04-04T17:39:10.596Z</time></trkpt><trkpt lat="43.0273187" lon="11.7772675"><ele>558.6</ele><time>2026-04-04T17:39:11.606Z</time></trkpt><trkpt lat="43.0274207" lon="11.7772922"><ele>561.0</ele><time>2026-04-04T17:39:12.61Z</time></trkpt><trkpt lat="43.0275083" lon="11.7773344"><ele>561.0</ele><time>2026-04-04T17:39:13.604Z</time></trkpt><trkpt lat="43.0275978" lon="11.7773765"><ele>561.0</ele><time>2026-04-04T17:39:14.599Z</time></trkpt><trkpt lat="43.0276931" lon="11.7774201"><ele>561.0</ele><time>2026-04-04T17:39:15.608Z</time></trkpt><trkpt lat="43.0277951" lon="11.7774536"><ele>561.0</ele><time>2026-04-04T17:39:16.604Z</time></trkpt><trkpt lat="43.0279026" lon="11.7774757"><ele>561.0</ele><time>2026-04-04T17:39:17.604Z</time></trkpt><trkpt lat="43.0280119" lon="11.7774873"><ele>561.0</ele><time>2026-04-04T17:39:18.596Z</time></trkpt><trkpt lat="43.0281148" lon="11.7774901"><ele>561.0</ele><time>2026-04-04T17:39:19.607Z</time></trkpt><trkpt lat="43.0282108" lon="11.7774992"><ele>561.0</ele><time>2026-04-04T17:39:20.603Z</time></trkpt><trkpt lat="43.0283049" lon="11.7775085"><ele>561.0</ele><time>2026-04-04T17:39:21.607Z</time></trkpt><trkpt lat="43.0284082" lon="11.7775106"><ele>561.0</ele><time>2026-04-04T17:39:22.61Z</time></trkpt><trkpt lat="43.028523" lon="11.777505"><ele>559.0</ele><time>2026-04-04T17:39:23.607Z</time></trkpt><trkpt lat="43.0286483" lon="11.7774965"><ele>557.0</ele><time>2026-04-04T17:39:24.595Z</time></trkpt><trkpt lat="43.0287755" lon="11.77749"><ele>555.0</ele><time>2026-04-04T17:39:25.597Z</time></trkpt><trkpt lat="43.0289072" lon="11.7774817"><ele>553.0</ele><time>2026-04-04T17:39:26.614Z</time></trkpt><trkpt lat="43.0290406" lon="11.7774741"><ele>553.25</ele><time>2026-04-04T17:39:27.601Z</time></trkpt><trkpt lat="43.0291767" lon="11.777469"><ele>553.5</ele><time>2026-04-04T17:39:28.605Z</time></trkpt><trkpt lat="43.0293134" lon="11.7774676"><ele>553.75</ele><time>2026-04-04T17:39:29.607Z</time></trkpt><trkpt lat="43.0294522" lon="11.7774669"><ele>554.0</ele><time>2026-04-04T17:39:30.616Z</time></trkpt><trkpt lat="43.0295807" lon="11.7774646"><ele>554.0</ele><time>2026-04-04T17:39:31.605Z</time></trkpt><trkpt lat="43.029694" lon="11.7774639"><ele>554.0</ele><time>2026-04-04T17:39:32.599Z</time></trkpt><trkpt lat="43.0298074" lon="11.7774581"><ele>554.0</ele><time>2026-04-04T17:39:33.609Z</time></trkpt><trkpt lat="43.0299162" lon="11.7774562"><ele>554.0</ele><time>2026-04-04T17:39:34.603Z</time></trkpt><trkpt lat="43.0300293" lon="11.7774553"><ele>554.0</ele><time>2026-04-04T17:39:35.61Z</time></trkpt><trkpt lat="43.0301406" lon="11.7774579"><ele>555.4</ele><time>2026-04-04T17:39:36.597Z</time></trkpt><trkpt lat="43.0302536" lon="11.7774645"><ele>556.8</ele><time>2026-04-04T17:39:37.598Z</time></trkpt><trkpt lat="43.0303539" lon="11.7774587"><ele>558.2</ele><time>2026-04-04T17:39:38.607Z</time></trkpt><trkpt lat="43.0304485" lon="11.7774522"><ele>559.6</ele><time>2026-04-04T17:39:39.595Z</time></trkpt><trkpt lat="43.0305376" lon="11.7774311"><ele>561.0</ele><time>2026-04-04T17:39:40.608Z</time></trkpt><trkpt lat="43.0306232" lon="11.7773969"><ele>561.0</ele><time>2026-04-04T17:39:41.608Z</time></trkpt><trkpt lat="43.0307054" lon="11.7773454"><ele>561.0</ele><time>2026-04-04T17:39:42.61Z</time></trkpt><trkpt lat="43.0307868" lon="11.7772839"><ele>561.0</ele><time>2026-04-04T17:39:43.597Z</time></trkpt><trkpt lat="43.0308757" lon="11.7772153"><ele>561.0</ele><time>2026-04-04T17:39:44.609Z</time></trkpt><trkpt lat="43.0309714" lon="11.7771383"><ele>561.0</ele><time>2026-04-04T17:39:45.611Z</time></trkpt><trkpt lat="43.0310681" lon="11.7770573"><ele>560.3333333333334</ele><time>2026-04-04T17:39:46.613Z</time></trkpt><trkpt lat="43.0311485" lon="11.7769879"><ele>559.6666666666666</ele><time>2026-04-04T17:39:47.594Z</time></trkpt><trkpt lat="43.0312248" lon="11.7769224"><ele>559.0</ele><time>2026-04-04T17:39:48.605Z</time></trkpt><trkpt lat="43.0313013" lon="11.776861"><ele>558.3333333333333</ele><time>2026-04-04T17:39:49.62Z</time></trkpt><trkpt lat="43.0313712" lon="11.7768042"><ele>557.6666666666666</ele><time>2026-04-04T17:39:50.621Z</time></trkpt><trkpt lat="43.0314505" lon="11.7767417"><ele>557.0</ele><time>2026-04-04T17:39:51.604Z</time></trkpt><trkpt lat="43.0315311" lon="11.7766756"><ele>557.0</ele><time>2026-04-04T17:39:52.606Z</time></trkpt><trkpt lat="43.0316181" lon="11.7766078"><ele>557.0</ele><time>2026-04-04T17:39:53.607Z</time></trkpt><trkpt lat="43.0317065" lon="11.7765379"><ele>557.0</ele><time>2026-04-04T17:39:54.601Z</time></trkpt><trkpt lat="43.0317868" lon="11.7764741"><ele>557.0</ele><time>2026-04-04T17:39:55.613Z</time></trkpt><trkpt lat="43.0318533" lon="11.7764222"><ele>557.0</ele><time>2026-04-04T17:39:56.608Z</time></trkpt><trkpt lat="43.03191" lon="11.776381"><ele>557.0</ele><time>2026-04-04T17:39:57.602Z</time></trkpt><trkpt lat="43.0320123" lon="11.7763394"><ele>560.5</ele><time>2026-04-04T17:39:59.608Z</time></trkpt><trkpt lat="43.032105" lon="11.776395"><ele>564.0</ele><time>2026-04-04T17:40:01.605Z</time></trkpt><trkpt lat="43.0321747" lon="11.7764846"><ele>567.5</ele><time>2026-04-04T17:40:03.6Z</time></trkpt><trkpt lat="43.0322441" lon="11.7765124"><ele>571.0</ele><time>2026-04-04T17:40:05.598Z</time></trkpt><trkpt lat="43.0323191" lon="11.7764747"><ele>574.5</ele><time>2026-04-04T17:40:07.601Z</time></trkpt><trkpt lat="43.0323822" lon="11.7764149"><ele>578.0</ele><time>2026-04-04T17:40:08.609Z</time></trkpt><trkpt lat="43.0324501" lon="11.776349"><ele>578.0</ele><time>2026-04-04T17:40:09.604Z</time></trkpt><trkpt lat="43.0325195" lon="11.7762645"><ele>578.0</ele><time>2026-04-04T17:40:10.605Z</time></trkpt><trkpt lat="43.0325857" lon="11.7761812"><ele>578.0</ele><time>2026-04-04T17:40:11.592Z</time></trkpt><trkpt lat="43.0326353" lon="11.7761089"><ele>578.0</ele><time>2026-04-04T17:40:12.613Z</time></trkpt><trkpt lat="43.0326834" lon="11.7760441"><ele>578.0</ele><time>2026-04-04T17:40:13.607Z</time></trkpt><trkpt lat="43.0327766" lon="11.775945"><ele>578.0</ele><time>2026-04-04T17:40:15.61Z</time></trkpt><trkpt lat="43.0329022" lon="11.7758832"><ele>578.0</ele><time>2026-04-04T17:40:17.602Z</time></trkpt><trkpt lat="43.0329724" lon="11.7758572"><ele>578.0</ele><time>2026-04-04T17:40:18.599Z</time></trkpt><trkpt lat="43.0330427" lon="11.775836"><ele>578.0</ele><time>2026-04-04T17:40:19.603Z</time></trkpt><trkpt lat="43.0331125" lon="11.7758119"><ele>578.0</ele><time>2026-04-04T17:40:20.6Z</time></trkpt><trkpt lat="43.033185" lon="11.7757909"><ele>578.0</ele><time>2026-04-04T17:40:21.602Z</time></trkpt><trkpt lat="43.0332585" lon="11.7757708"><ele>578.0</ele><time>2026-04-04T17:40:22.601Z</time></trkpt><trkpt lat="43.0333313" lon="11.7757508"><ele>578.0</ele><time>2026-04-04T17:40:23.606Z</time></trkpt><trkpt lat="43.0333957" lon="11.7757347"><ele>577.1428571428571</ele><time>2026-04-04T17:40:24.616Z</time></trkpt><trkpt lat="43.0334607" lon="11.7757169"><ele>576.2857142857142</ele><time>2026-04-04T17:40:25.608Z</time></trkpt><trkpt lat="43.0335266" lon="11.775722"><ele>575.4285714285713</ele><time>2026-04-04T17:40:26.604Z</time></trkpt><trkpt lat="43.0335904" lon="11.775738"><ele>574.5714285714286</ele><time>2026-04-04T17:40:27.612Z</time></trkpt><trkpt lat="43.0336522" lon="11.775786"><ele>573.7142857142857</ele><time>2026-04-04T17:40:28.607Z</time></trkpt><trkpt lat="43.03371" lon="11.7758472"><ele>572.8571428571428</ele><time>2026-04-04T17:40:29.608Z</time></trkpt><trkpt lat="43.03377" lon="11.7759397"><ele>572.0</ele><time>2026-04-04T17:40:30.608Z</time></trkpt><trkpt lat="43.0338198" lon="11.7760511"><ele>570.8000000000001</ele><time>2026-04-04T17:40:31.606Z</time></trkpt><trkpt lat="43.0338602" lon="11.7761792"><ele>569.6</ele><time>2026-04-04T17:40:32.602Z</time></trkpt><trkpt lat="43.0338899" lon="11.7763172"><ele>568.4000000000001</ele><time>2026-04-04T17:40:33.596Z</time></trkpt><trkpt lat="43.0339095" lon="11.7764572"><ele>567.2</ele><time>2026-04-04T17:40:34.604Z</time></trkpt><trkpt lat="43.033915" lon="11.7765945"><ele>566.0</ele><time>2026-04-04T17:40:35.607Z</time></trkpt><trkpt lat="43.0339119" lon="11.7767478"><ele>566.25</ele><time>2026-04-04T17:40:36.614Z</time></trkpt><trkpt lat="43.0339089" lon="11.7769207"><ele>566.5</ele><time>2026-04-04T17:40:37.61Z</time></trkpt><trkpt lat="43.033909" lon="11.7771119"><ele>566.75</ele><time>2026-04-04T17:40:38.598Z</time></trkpt><trkpt lat="43.0339108" lon="11.7773142"><ele>567.0</ele><time>2026-04-04T17:40:39.608Z</time></trkpt><trkpt lat="43.0339212" lon="11.7775274"><ele>567.6666666666666</ele><time>2026-04-04T17:40:40.611Z</time></trkpt><trkpt lat="43.0339394" lon="11.7777515"><ele>568.3333333333333</ele><time>2026-04-04T17:40:41.6Z</time></trkpt><trkpt lat="43.0339643" lon="11.7779811"><ele>569.0</ele><time>2026-04-04T17:40:42.604Z</time></trkpt><trkpt lat="43.0339932" lon="11.7782074"><ele>569.0</ele><time>2026-04-04T17:40:43.598Z</time></trkpt><trkpt lat="43.0340199" lon="11.7784056"><ele>569.0</ele><time>2026-04-04T17:40:44.608Z</time></trkpt><trkpt lat="43.0340501" lon="11.7785999"><ele>569.0</ele><time>2026-04-04T17:40:45.61Z</time></trkpt><trkpt lat="43.0340873" lon="11.7787923"><ele>569.0</ele><time>2026-04-04T17:40:46.604Z</time></trkpt><trkpt lat="43.0341315" lon="11.7789886"><ele>574.0</ele><time>2026-04-04T17:40:47.612Z</time></trkpt><trkpt lat="43.0341788" lon="11.7791929"><ele>579.0</ele><time>2026-04-04T17:40:48.599Z</time></trkpt><trkpt lat="43.0342285" lon="11.7794035"><ele>584.0</ele><time>2026-04-04T17:40:49.612Z</time></trkpt><trkpt lat="43.0342786" lon="11.7796045"><ele>585.5</ele><time>2026-04-04T17:40:50.59Z</time></trkpt><trkpt lat="43.0343278" lon="11.7797806"><ele>587.0</ele><time>2026-04-04T17:40:51.615Z</time></trkpt><trkpt lat="43.0343793" lon="11.7799521"><ele>588.5</ele><time>2026-04-04T17:40:52.605Z</time></trkpt><trkpt lat="43.0344319" lon="11.7801095"><ele>590.0</ele><time>2026-04-04T17:40:53.607Z</time></trkpt><trkpt lat="43.0344864" lon="11.7802502"><ele>591.4</ele><time>2026-04-04T17:40:54.604Z</time></trkpt><trkpt lat="43.0345458" lon="11.780379"><ele>592.8</ele><time>2026-04-04T17:40:55.611Z</time></trkpt><trkpt lat="43.0346112" lon="11.7804926"><ele>594.2</ele><time>2026-04-04T17:40:56.607Z</time></trkpt><trkpt lat="43.0346857" lon="11.7805964"><ele>595.6</ele><time>2026-04-04T17:40:57.619Z</time></trkpt><trkpt lat="43.0347663" lon="11.7806894"><ele>597.0</ele><time>2026-04-04T17:40:58.604Z</time></trkpt><trkpt lat="43.0348508" lon="11.7807693"><ele>597.0</ele><time>2026-04-04T17:40:59.604Z</time></trkpt><trkpt lat="43.034942" lon="11.7808405"><ele>597.0</ele><time>2026-04-04T17:41:00.604Z</time></trkpt><trkpt lat="43.0350398" lon="11.7809014"><ele>597.0</ele><time>2026-04-04T17:41:01.619Z</time></trkpt><trkpt lat="43.0351407" lon="11.7809562"><ele>597.0</ele><time>2026-04-04T17:41:02.609Z</time></trkpt><trkpt lat="43.0352477" lon="11.7810074"><ele>597.0</ele><time>2026-04-04T17:41:03.602Z</time></trkpt><trkpt lat="43.0353609" lon="11.7810501"><ele>600.75</ele><time>2026-04-04T17:41:04.609Z</time></trkpt><trkpt lat="43.0354823" lon="11.7810907"><ele>604.5</ele><time>2026-04-04T17:41:05.606Z</time></trkpt><trkpt lat="43.0356099" lon="11.7811265"><ele>608.25</ele><time>2026-04-04T17:41:06.607Z</time></trkpt><trkpt lat="43.0357451" lon="11.7811572"><ele>612.0</ele><time>2026-04-04T17:41:07.6Z</time></trkpt><trkpt lat="43.0358952" lon="11.7811804"><ele>613.25</ele><time>2026-04-04T17:41:08.599Z</time></trkpt><trkpt lat="43.0360416" lon="11.7811943"><ele>614.5</ele><time>2026-04-04T17:41:09.602Z</time></trkpt><trkpt lat="43.0361799" lon="11.7812025"><ele>615.75</ele><time>2026-04-04T17:41:10.613Z</time></trkpt><trkpt lat="43.0363144" lon="11.7812017"><ele>617.0</ele><time>2026-04-04T17:41:11.607Z</time></trkpt><trkpt lat="43.0364378" lon="11.7811934"><ele>617.0</ele><time>2026-04-04T17:41:12.601Z</time></trkpt><trkpt lat="43.0365446" lon="11.7811725"><ele>617.0</ele><time>2026-04-04T17:41:13.609Z</time></trkpt><trkpt lat="43.0366456" lon="11.7811287"><ele>617.0</ele><time>2026-04-04T17:41:14.598Z</time></trkpt><trkpt lat="43.0367483" lon="11.7810701"><ele>617.0</ele><time>2026-04-04T17:41:15.62Z</time></trkpt><trkpt lat="43.0368573" lon="11.7810024"><ele>617.0</ele><time>2026-04-04T17:41:16.603Z</time></trkpt><trkpt lat="43.036975" lon="11.7809312"><ele>616.0</ele><time>2026-04-04T17:41:17.604Z</time></trkpt><trkpt lat="43.0370993" lon="11.7808608"><ele>615.0</ele><time>2026-04-04T17:41:18.607Z</time></trkpt><trkpt lat="43.0372317" lon="11.7807867"><ele>614.0</ele><time>2026-04-04T17:41:19.61Z</time></trkpt><trkpt lat="43.0373719" lon="11.7807075"><ele>613.0</ele><time>2026-04-04T17:41:20.61Z</time></trkpt><trkpt lat="43.0375165" lon="11.7806269"><ele>616.0</ele><time>2026-04-04T17:41:21.611Z</time></trkpt><trkpt lat="43.0376637" lon="11.7805452"><ele>619.0</ele><time>2026-04-04T17:41:22.604Z</time></trkpt><trkpt lat="43.0378098" lon="11.7804637"><ele>622.0</ele><time>2026-04-04T17:41:23.611Z</time></trkpt><trkpt lat="43.0379586" lon="11.780383"><ele>622.0</ele><time>2026-04-04T17:41:24.613Z</time></trkpt><trkpt lat="43.0381045" lon="11.7803043"><ele>622.0</ele><time>2026-04-04T17:41:25.615Z</time></trkpt><trkpt lat="43.0382374" lon="11.7802315"><ele>622.0</ele><time>2026-04-04T17:41:26.613Z</time></trkpt><trkpt lat="43.0383701" lon="11.7801493"><ele>622.0</ele><time>2026-04-04T17:41:27.606Z</time></trkpt><trkpt lat="43.0385012" lon="11.7800655"><ele>621.8000000000001</ele><time>2026-04-04T17:41:28.597Z</time></trkpt><trkpt lat="43.038619" lon="11.7799892"><ele>621.6</ele><time>2026-04-04T17:41:29.601Z</time></trkpt><trkpt lat="43.0387238" lon="11.7799197"><ele>621.4000000000001</ele><time>2026-04-04T17:41:30.609Z</time></trkpt><trkpt lat="43.0388127" lon="11.7798532"><ele>621.2</ele><time>2026-04-04T17:41:31.602Z</time></trkpt><trkpt lat="43.0388921" lon="11.7797794"><ele>621.0</ele><time>2026-04-04T17:41:32.612Z</time></trkpt><trkpt lat="43.0389561" lon="11.7796904"><ele>621.0</ele><time>2026-04-04T17:41:33.611Z</time></trkpt><trkpt lat="43.0390068" lon="11.7795861"><ele>621.0</ele><time>2026-04-04T17:41:34.608Z</time></trkpt><trkpt lat="43.0390378" lon="11.7794724"><ele>621.0</ele><time>2026-04-04T17:41:35.595Z</time></trkpt><trkpt lat="43.0390499" lon="11.7793527"><ele>621.0</ele><time>2026-04-04T17:41:36.612Z</time></trkpt><trkpt lat="43.039047" lon="11.7792282"><ele>621.0</ele><time>2026-04-04T17:41:37.609Z</time></trkpt><trkpt lat="43.0390273" lon="11.7791017"><ele>620.8</ele><time>2026-04-04T17:41:38.609Z</time></trkpt><trkpt lat="43.0389909" lon="11.7789705"><ele>620.6</ele><time>2026-04-04T17:41:39.606Z</time></trkpt><trkpt lat="43.038947" lon="11.7788363"><ele>620.4</ele><time>2026-04-04T17:41:40.614Z</time></trkpt><trkpt lat="43.0389043" lon="11.7787041"><ele>620.2</ele><time>2026-04-04T17:41:41.611Z</time></trkpt><trkpt lat="43.0388615" lon="11.7785693"><ele>620.0</ele><time>2026-04-04T17:41:42.603Z</time></trkpt><trkpt lat="43.0388165" lon="11.7784319"><ele>621.8</ele><time>2026-04-04T17:41:43.604Z</time></trkpt><trkpt lat="43.0387682" lon="11.7782966"><ele>623.6</ele><time>2026-04-04T17:41:44.616Z</time></trkpt><trkpt lat="43.0387271" lon="11.7781712"><ele>625.4</ele><time>2026-04-04T17:41:45.61Z</time></trkpt><trkpt lat="43.0386879" lon="11.7780638"><ele>627.2</ele><time>2026-04-04T17:41:46.614Z</time></trkpt><trkpt lat="43.0386575" lon="11.7779567"><ele>629.0</ele><time>2026-04-04T17:41:47.603Z</time></trkpt><trkpt lat="43.0386412" lon="11.7778546"><ele>629.0</ele><time>2026-04-04T17:41:48.615Z</time></trkpt><trkpt lat="43.0386384" lon="11.7777551"><ele>629.0</ele><time>2026-04-04T17:41:49.604Z</time></trkpt><trkpt lat="43.0386559" lon="11.7776713"><ele>629.0</ele><time>2026-04-04T17:41:50.601Z</time></trkpt><trkpt lat="43.03873" lon="11.7775649"><ele>629.0</ele><time>2026-04-04T17:41:52.601Z</time></trkpt><trkpt lat="43.0388419" lon="11.7775161"><ele>629.0</ele><time>2026-04-04T17:41:54.605Z</time></trkpt><trkpt lat="43.0389112" lon="11.7775097"><ele>629.0</ele><time>2026-04-04T17:41:55.606Z</time></trkpt><trkpt lat="43.0389919" lon="11.7775131"><ele>630.2</ele><time>2026-04-04T17:41:56.609Z</time></trkpt><trkpt lat="43.0390853" lon="11.7775215"><ele>631.4</ele><time>2026-04-04T17:41:57.609Z</time></trkpt><trkpt lat="43.0391885" lon="11.7775333"><ele>632.6</ele><time>2026-04-04T17:41:58.604Z</time></trkpt><trkpt lat="43.0393021" lon="11.7775427"><ele>633.8</ele><time>2026-04-04T17:41:59.598Z</time></trkpt><trkpt lat="43.0394215" lon="11.7775574"><ele>635.0</ele><time>2026-04-04T17:42:00.609Z</time></trkpt><trkpt lat="43.039548" lon="11.7775732"><ele>636.25</ele><time>2026-04-04T17:42:01.611Z</time></trkpt><trkpt lat="43.0396882" lon="11.7775926"><ele>637.5</ele><time>2026-04-04T17:42:02.608Z</time></trkpt><trkpt lat="43.0398302" lon="11.7776113"><ele>638.75</ele><time>2026-04-04T17:42:03.607Z</time></trkpt><trkpt lat="43.0399597" lon="11.7776258"><ele>640.0</ele><time>2026-04-04T17:42:04.611Z</time></trkpt><trkpt lat="43.0400802" lon="11.7776325"><ele>640.0</ele><time>2026-04-04T17:42:05.613Z</time></trkpt><trkpt lat="43.0401892" lon="11.7776326"><ele>640.0</ele><time>2026-04-04T17:42:06.604Z</time></trkpt><trkpt lat="43.0402867" lon="11.7776162"><ele>640.0</ele><time>2026-04-04T17:42:07.6Z</time></trkpt><trkpt lat="43.0403859" lon="11.7775756"><ele>640.0</ele><time>2026-04-04T17:42:08.6Z</time></trkpt><trkpt lat="43.0404836" lon="11.7775122"><ele>640.0</ele><time>2026-04-04T17:42:09.604Z</time></trkpt><trkpt lat="43.0405809" lon="11.7774417"><ele>640.0</ele><time>2026-04-04T17:42:10.603Z</time></trkpt><trkpt lat="43.040677" lon="11.7773684"><ele>640.0</ele><time>2026-04-04T17:42:11.607Z</time></trkpt><trkpt lat="43.0407749" lon="11.7772898"><ele>640.0</ele><time>2026-04-04T17:42:12.614Z</time></trkpt><trkpt lat="43.0408699" lon="11.7772175"><ele>640.0</ele><time>2026-04-04T17:42:13.615Z</time></trkpt><trkpt lat="43.0409575" lon="11.7771469"><ele>640.0</ele><time>2026-04-04T17:42:14.608Z</time></trkpt><trkpt lat="43.0410346" lon="11.7770851"><ele>641.5</ele><time>2026-04-04T17:42:15.61Z</time></trkpt><trkpt lat="43.0411068" lon="11.7770359"><ele>643.0</ele><time>2026-04-04T17:42:16.609Z</time></trkpt><trkpt lat="43.0411783" lon="11.777"><ele>644.5</ele><time>2026-04-04T17:42:17.604Z</time></trkpt><trkpt lat="43.0412553" lon="11.7769782"><ele>646.0</ele><time>2026-04-04T17:42:18.599Z</time></trkpt><trkpt lat="43.0413364" lon="11.7769745"><ele>647.5</ele><time>2026-04-04T17:42:19.594Z</time></trkpt><trkpt lat="43.0414145" lon="11.7769884"><ele>649.0</ele><time>2026-04-04T17:42:20.604Z</time></trkpt><trkpt lat="43.0414996" lon="11.7770155"><ele>649.0</ele><time>2026-04-04T17:42:21.608Z</time></trkpt><trkpt lat="43.0415888" lon="11.7770585"><ele>649.0</ele><time>2026-04-04T17:42:22.613Z</time></trkpt><trkpt lat="43.0416784" lon="11.7771087"><ele>649.0</ele><time>2026-04-04T17:42:23.601Z</time></trkpt><trkpt lat="43.041765" lon="11.7771654"><ele>649.0</ele><time>2026-04-04T17:42:24.606Z</time></trkpt><trkpt lat="43.0418584" lon="11.7772267"><ele>649.0</ele><time>2026-04-04T17:42:25.618Z</time></trkpt><trkpt lat="43.0419475" lon="11.7772845"><ele>648.4000000000001</ele><time>2026-04-04T17:42:26.615Z</time></trkpt><trkpt lat="43.0420418" lon="11.7773444"><ele>647.8</ele><time>2026-04-04T17:42:27.609Z</time></trkpt><trkpt lat="43.0421433" lon="11.777401"><ele>647.2</ele><time>2026-04-04T17:42:28.615Z</time></trkpt><trkpt lat="43.042244" lon="11.777455"><ele>646.5999999999999</ele><time>2026-04-04T17:42:29.609Z</time></trkpt><trkpt lat="43.0423502" lon="11.7775075"><ele>646.0</ele><time>2026-04-04T17:42:30.594Z</time></trkpt><trkpt lat="43.0424587" lon="11.7775562"><ele>644.0</ele><time>2026-04-04T17:42:31.61Z</time></trkpt><trkpt lat="43.0425696" lon="11.7775982"><ele>642.0</ele><time>2026-04-04T17:42:32.604Z</time></trkpt><trkpt lat="43.0426821" lon="11.7776322"><ele>640.0</ele><time>2026-04-04T17:42:33.605Z</time></trkpt><trkpt lat="43.0427943" lon="11.7776598"><ele>638.0</ele><time>2026-04-04T17:42:34.609Z</time></trkpt><trkpt lat="43.0429056" lon="11.7776787"><ele>638.0</ele><time>2026-04-04T17:42:35.609Z</time></trkpt><trkpt lat="43.0430155" lon="11.7776921"><ele>638.0</ele><time>2026-04-04T17:42:36.612Z</time></trkpt><trkpt lat="43.0431235" lon="11.7777013"><ele>638.0</ele><time>2026-04-04T17:42:37.607Z</time></trkpt><trkpt lat="43.0432324" lon="11.7777038"><ele>638.0</ele><time>2026-04-04T17:42:38.6Z</time></trkpt><trkpt lat="43.043338" lon="11.7776917"><ele>638.0</ele><time>2026-04-04T17:42:39.603Z</time></trkpt><trkpt lat="43.0434428" lon="11.7776723"><ele>637.6</ele><time>2026-04-04T17:42:40.606Z</time></trkpt><trkpt lat="43.0435442" lon="11.7776418"><ele>637.1999999999999</ele><time>2026-04-04T17:42:41.607Z</time></trkpt><trkpt lat="43.0436427" lon="11.7775967"><ele>636.8</ele><time>2026-04-04T17:42:42.618Z</time></trkpt><trkpt lat="43.0437357" lon="11.7775433"><ele>636.4</ele><time>2026-04-04T17:42:43.596Z</time></trkpt><trkpt lat="43.0438216" lon="11.7774862"><ele>636.0</ele><time>2026-04-04T17:42:44.6Z</time></trkpt><trkpt lat="43.0439016" lon="11.7774287"><ele>636.0</ele><time>2026-04-04T17:42:45.61Z</time></trkpt><trkpt lat="43.0439771" lon="11.7773706"><ele>636.0</ele><time>2026-04-04T17:42:46.6Z</time></trkpt><trkpt lat="43.0440517" lon="11.7773119"><ele>636.0</ele><time>2026-04-04T17:42:47.605Z</time></trkpt><trkpt lat="43.0441271" lon="11.7772511"><ele>636.0</ele><time>2026-04-04T17:42:48.615Z</time></trkpt><trkpt lat="43.0442027" lon="11.777185"><ele>636.0</ele><time>2026-04-04T17:42:49.616Z</time></trkpt><trkpt lat="43.044277" lon="11.777112"><ele>636.0</ele><time>2026-04-04T17:42:50.606Z</time></trkpt><trkpt lat="43.044349" lon="11.7770315"><ele>636.0</ele><time>2026-04-04T17:42:51.607Z</time></trkpt><trkpt lat="43.0444198" lon="11.7769414"><ele>636.0</ele><time>2026-04-04T17:42:52.603Z</time></trkpt><trkpt lat="43.0444937" lon="11.7768466"><ele>636.0</ele><time>2026-04-04T17:42:53.616Z</time></trkpt><trkpt lat="43.0445708" lon="11.7767446"><ele>636.0</ele><time>2026-04-04T17:42:54.604Z</time></trkpt><trkpt lat="43.0446516" lon="11.776632"><ele>636.0</ele><time>2026-04-04T17:42:55.611Z</time></trkpt><trkpt lat="43.0447336" lon="11.7765186"><ele>636.0</ele><time>2026-04-04T17:42:56.614Z</time></trkpt><trkpt lat="43.0448084" lon="11.7764155"><ele>636.0</ele><time>2026-04-04T17:42:57.613Z</time></trkpt><trkpt lat="43.0448795" lon="11.7763173"><ele>636.0</ele><time>2026-04-04T17:42:58.598Z</time></trkpt><trkpt lat="43.0449512" lon="11.7762169"><ele>636.0</ele><time>2026-04-04T17:42:59.604Z</time></trkpt><trkpt lat="43.0450272" lon="11.7761135"><ele>636.0</ele><time>2026-04-04T17:43:00.599Z</time></trkpt><trkpt lat="43.0451078" lon="11.7760161"><ele>636.6</ele><time>2026-04-04T17:43:01.609Z</time></trkpt><trkpt lat="43.0451901" lon="11.775929"><ele>637.2</ele><time>2026-04-04T17:43:02.61Z</time></trkpt><trkpt lat="43.0452727" lon="11.7758499"><ele>637.8</ele><time>2026-04-04T17:43:03.597Z</time></trkpt><trkpt lat="43.045364" lon="11.7757788"><ele>638.4</ele><time>2026-04-04T17:43:04.605Z</time></trkpt><trkpt lat="43.045461" lon="11.7757227"><ele>639.0</ele><time>2026-04-04T17:43:05.612Z</time></trkpt><trkpt lat="43.0455623" lon="11.7756878"><ele>639.0</ele><time>2026-04-04T17:43:06.607Z</time></trkpt><trkpt lat="43.0456608" lon="11.7756695"><ele>639.0</ele><time>2026-04-04T17:43:07.608Z</time></trkpt><trkpt lat="43.0457474" lon="11.7756584"><ele>639.0</ele><time>2026-04-04T17:43:08.621Z</time></trkpt><trkpt lat="43.0458269" lon="11.7756458"><ele>639.0</ele><time>2026-04-04T17:43:09.602Z</time></trkpt><trkpt lat="43.0459098" lon="11.7756311"><ele>639.0</ele><time>2026-04-04T17:43:10.601Z</time></trkpt><trkpt lat="43.0459967" lon="11.7756183"><ele>639.0</ele><time>2026-04-04T17:43:11.61Z</time></trkpt><trkpt lat="43.0460875" lon="11.7756036"><ele>638.5</ele><time>2026-04-04T17:43:12.607Z</time></trkpt><trkpt lat="43.0461847" lon="11.7755878"><ele>638.0</ele><time>2026-04-04T17:43:13.611Z</time></trkpt><trkpt lat="43.0462798" lon="11.7755748"><ele>637.5</ele><time>2026-04-04T17:43:14.599Z</time></trkpt><trkpt lat="43.0463679" lon="11.7755603"><ele>637.0</ele><time>2026-04-04T17:43:15.591Z</time></trkpt><trkpt lat="43.0464474" lon="11.7755429"><ele>636.5</ele><time>2026-04-04T17:43:16.607Z</time></trkpt><trkpt lat="43.0465212" lon="11.7755189"><ele>636.0</ele><time>2026-04-04T17:43:17.612Z</time></trkpt><trkpt lat="43.0465958" lon="11.7754861"><ele>635.8333333333334</ele><time>2026-04-04T17:43:18.599Z</time></trkpt><trkpt lat="43.0466639" lon="11.7754413"><ele>635.6666666666666</ele><time>2026-04-04T17:43:19.601Z</time></trkpt><trkpt lat="43.0467323" lon="11.7753906"><ele>635.5</ele><time>2026-04-04T17:43:20.602Z</time></trkpt><trkpt lat="43.046802" lon="11.7753154"><ele>635.3333333333333</ele><time>2026-04-04T17:43:21.608Z</time></trkpt><trkpt lat="43.0468741" lon="11.7752198"><ele>635.1666666666666</ele><time>2026-04-04T17:43:22.607Z</time></trkpt><trkpt lat="43.0469482" lon="11.7751255"><ele>635.0</ele><time>2026-04-04T17:43:23.606Z</time></trkpt><trkpt lat="43.0470174" lon="11.7750317"><ele>635.8</ele><time>2026-04-04T17:43:24.612Z</time></trkpt><trkpt lat="43.0470838" lon="11.7749401"><ele>636.6</ele><time>2026-04-04T17:43:25.602Z</time></trkpt><trkpt lat="43.0471514" lon="11.7748531"><ele>637.4</ele><time>2026-04-04T17:43:26.606Z</time></trkpt><trkpt lat="43.047218" lon="11.7747704"><ele>638.2</ele><time>2026-04-04T17:43:27.6Z</time></trkpt><trkpt lat="43.0472872" lon="11.7746919"><ele>639.0</ele><time>2026-04-04T17:43:28.604Z</time></trkpt><trkpt lat="43.0473675" lon="11.7746161"><ele>637.6</ele><time>2026-04-04T17:43:29.6Z</time></trkpt><trkpt lat="43.0474614" lon="11.7745451"><ele>636.2</ele><time>2026-04-04T17:43:30.611Z</time></trkpt><trkpt lat="43.0475679" lon="11.774485"><ele>634.8000000000001</ele><time>2026-04-04T17:43:31.601Z</time></trkpt><trkpt lat="43.0476734" lon="11.7744436"><ele>633.4</ele><time>2026-04-04T17:43:32.596Z</time></trkpt><trkpt lat="43.0477778" lon="11.7744142"><ele>632.0</ele><time>2026-04-04T17:43:33.602Z</time></trkpt><trkpt lat="43.0478902" lon="11.7743868"><ele>632.0</ele><time>2026-04-04T17:43:34.612Z</time></trkpt><trkpt lat="43.0480052" lon="11.774361"><ele>632.0</ele><time>2026-04-04T17:43:35.611Z</time></trkpt><trkpt lat="43.0481154" lon="11.7743387"><ele>632.0</ele><time>2026-04-04T17:43:36.604Z</time></trkpt><trkpt lat="43.0482214" lon="11.7743207"><ele>632.0</ele><time>2026-04-04T17:43:37.599Z</time></trkpt><trkpt lat="43.0483263" lon="11.7743017"><ele>632.0</ele><time>2026-04-04T17:43:38.605Z</time></trkpt><trkpt lat="43.0484351" lon="11.7742847"><ele>630.0</ele><time>2026-04-04T17:43:39.603Z</time></trkpt><trkpt lat="43.0485375" lon="11.7742735"><ele>628.0</ele><time>2026-04-04T17:43:40.618Z</time></trkpt><trkpt lat="43.0486339" lon="11.7742693"><ele>626.0</ele><time>2026-04-04T17:43:41.61Z</time></trkpt><trkpt lat="43.0487304" lon="11.7742729"><ele>624.0</ele><time>2026-04-04T17:43:42.611Z</time></trkpt><trkpt lat="43.0488284" lon="11.7742835"><ele>622.0</ele><time>2026-04-04T17:43:43.616Z</time></trkpt><trkpt lat="43.0489255" lon="11.7743042"><ele>622.0</ele><time>2026-04-04T17:43:44.61Z</time></trkpt><trkpt lat="43.0490221" lon="11.7743284"><ele>622.0</ele><time>2026-04-04T17:43:45.602Z</time></trkpt><trkpt lat="43.0491157" lon="11.7743522"><ele>622.0</ele><time>2026-04-04T17:43:46.608Z</time></trkpt><trkpt lat="43.0492032" lon="11.7743768"><ele>622.0</ele><time>2026-04-04T17:43:47.599Z</time></trkpt><trkpt lat="43.0492854" lon="11.7743983"><ele>622.0</ele><time>2026-04-04T17:43:48.615Z</time></trkpt><trkpt lat="43.049362" lon="11.7744167"><ele>622.0</ele><time>2026-04-04T17:43:49.61Z</time></trkpt><trkpt lat="43.0494326" lon="11.7744343"><ele>622.1666666666667</ele><time>2026-04-04T17:43:50.6Z</time></trkpt><trkpt lat="43.0494992" lon="11.7744488"><ele>622.3333333333334</ele><time>2026-04-04T17:43:51.618Z</time></trkpt><trkpt lat="43.0495613" lon="11.7744655"><ele>622.5</ele><time>2026-04-04T17:43:52.595Z</time></trkpt><trkpt lat="43.0496782" lon="11.774483"><ele>622.6666666666666</ele><time>2026-04-04T17:43:54.598Z</time></trkpt><trkpt lat="43.0497867" lon="11.7745078"><ele>622.8333333333333</ele><time>2026-04-04T17:43:56.614Z</time></trkpt><trkpt lat="43.0498718" lon="11.7745299"><ele>623.0</ele><time>2026-04-04T17:43:58.603Z</time></trkpt><trkpt lat="43.049941" lon="11.7745491"><ele>622.6666666666666</ele><time>2026-04-04T17:44:00.602Z</time></trkpt><trkpt lat="43.0500088" lon="11.7745704"><ele>622.3333333333333</ele><time>2026-04-04T17:44:03.602Z</time></trkpt><trkpt lat="43.0500864" lon="11.77459"><ele>622.0</ele><time>2026-04-04T17:44:07.614Z</time></trkpt><trkpt lat="43.0501788" lon="11.7746228"><ele>621.6666666666666</ele><time>2026-04-04T17:44:09.591Z</time></trkpt><trkpt lat="43.0502426" lon="11.7746444"><ele>621.3333333333334</ele><time>2026-04-04T17:44:10.602Z</time></trkpt><trkpt lat="43.0503203" lon="11.7746675"><ele>621.0</ele><time>2026-04-04T17:44:11.606Z</time></trkpt><trkpt lat="43.0504109" lon="11.7746976"><ele>621.0</ele><time>2026-04-04T17:44:12.608Z</time></trkpt><trkpt lat="43.0505121" lon="11.7747279"><ele>621.0</ele><time>2026-04-04T17:44:13.6Z</time></trkpt><trkpt lat="43.0506266" lon="11.774764"><ele>621.0</ele><time>2026-04-04T17:44:14.607Z</time></trkpt><trkpt lat="43.0507474" lon="11.7747999"><ele>621.0</ele><time>2026-04-04T17:44:15.601Z</time></trkpt><trkpt lat="43.0508715" lon="11.7748349"><ele>620.5</ele><time>2026-04-04T17:44:16.611Z</time></trkpt><trkpt lat="43.0509891" lon="11.7748652"><ele>620.0</ele><time>2026-04-04T17:44:17.603Z</time></trkpt><trkpt lat="43.0511031" lon="11.7748982"><ele>619.5</ele><time>2026-04-04T17:44:18.601Z</time></trkpt><trkpt lat="43.051213" lon="11.7749351"><ele>619.0</ele><time>2026-04-04T17:44:19.606Z</time></trkpt><trkpt lat="43.0513166" lon="11.774973"><ele>619.0</ele><time>2026-04-04T17:44:20.612Z</time></trkpt><trkpt lat="43.0514162" lon="11.7750078"><ele>619.0</ele><time>2026-04-04T17:44:21.6Z</time></trkpt><trkpt lat="43.0515105" lon="11.7750347"><ele>619.0</ele><time>2026-04-04T17:44:22.621Z</time></trkpt><trkpt lat="43.0516008" lon="11.7750611"><ele>619.0</ele><time>2026-04-04T17:44:23.605Z</time></trkpt><trkpt lat="43.0516847" lon="11.7750872"><ele>619.0</ele><time>2026-04-04T17:44:24.609Z</time></trkpt><trkpt lat="43.0517597" lon="11.7751115"><ele>617.8</ele><time>2026-04-04T17:44:25.604Z</time></trkpt><trkpt lat="43.0518249" lon="11.7751325"><ele>616.5999999999999</ele><time>2026-04-04T17:44:26.614Z</time></trkpt><trkpt lat="43.0519403" lon="11.775153"><ele>615.4</ele><time>2026-04-04T17:44:28.616Z</time></trkpt><trkpt lat="43.0520366" lon="11.7751845"><ele>614.1999999999999</ele><time>2026-04-04T17:44:30.602Z</time></trkpt><trkpt lat="43.0521242" lon="11.7752123"><ele>613.0</ele><time>2026-04-04T17:44:32.603Z</time></trkpt><trkpt lat="43.0522282" lon="11.7752391"><ele>612.8333333333334</ele><time>2026-04-04T17:44:34.599Z</time></trkpt><trkpt lat="43.0523003" lon="11.7752642"><ele>612.6666666666667</ele><time>2026-04-04T17:44:35.608Z</time></trkpt><trkpt lat="43.0523845" lon="11.7752983"><ele>612.5</ele><time>2026-04-04T17:44:36.615Z</time></trkpt><trkpt lat="43.0524676" lon="11.7753402"><ele>612.3333333333334</ele><time>2026-04-04T17:44:37.616Z</time></trkpt><trkpt lat="43.0525467" lon="11.7753907"><ele>612.1666666666666</ele><time>2026-04-04T17:44:38.608Z</time></trkpt><trkpt lat="43.0526209" lon="11.7754545"><ele>612.0</ele><time>2026-04-04T17:44:39.604Z</time></trkpt><trkpt lat="43.0526954" lon="11.7755399"><ele>612.0</ele><time>2026-04-04T17:44:40.608Z</time></trkpt><trkpt lat="43.0527796" lon="11.7756408"><ele>612.0</ele><time>2026-04-04T17:44:41.621Z</time></trkpt><trkpt lat="43.0528765" lon="11.7757509"><ele>612.0</ele><time>2026-04-04T17:44:42.603Z</time></trkpt><trkpt lat="43.0529802" lon="11.7758587"><ele>612.0</ele><time>2026-04-04T17:44:43.601Z</time></trkpt><trkpt lat="43.0530895" lon="11.775976"><ele>611.5</ele><time>2026-04-04T17:44:44.636Z</time></trkpt><trkpt lat="43.0532035" lon="11.7760972"><ele>611.0</ele><time>2026-04-04T17:44:45.604Z</time></trkpt><trkpt lat="43.0533121" lon="11.7762149"><ele>610.5</ele><time>2026-04-04T17:44:46.599Z</time></trkpt><trkpt lat="43.05342" lon="11.7763358"><ele>610.0</ele><time>2026-04-04T17:44:47.606Z</time></trkpt><trkpt lat="43.0535314" lon="11.7764582"><ele>610.75</ele><time>2026-04-04T17:44:48.613Z</time></trkpt><trkpt lat="43.0536412" lon="11.7765811"><ele>611.5</ele><time>2026-04-04T17:44:49.612Z</time></trkpt><trkpt lat="43.0537416" lon="11.7766971"><ele>612.25</ele><time>2026-04-04T17:44:50.602Z</time></trkpt><trkpt lat="43.053836" lon="11.7768086"><ele>613.0</ele><time>2026-04-04T17:44:51.613Z</time></trkpt><trkpt lat="43.0539245" lon="11.7769314"><ele>613.0</ele><time>2026-04-04T17:44:52.614Z</time></trkpt><trkpt lat="43.0539981" lon="11.7770709"><ele>613.0</ele><time>2026-04-04T17:44:53.597Z</time></trkpt><trkpt lat="43.0540506" lon="11.7772312"><ele>613.0</ele><time>2026-04-04T17:44:54.6Z</time></trkpt><trkpt lat="43.0540752" lon="11.7773921"><ele>613.0</ele><time>2026-04-04T17:44:55.602Z</time></trkpt><trkpt lat="43.0540693" lon="11.7775614"><ele>613.75</ele><time>2026-04-04T17:44:56.615Z</time></trkpt><trkpt lat="43.0540491" lon="11.7777426"><ele>614.5</ele><time>2026-04-04T17:44:57.605Z</time></trkpt><trkpt lat="43.0540202" lon="11.7779372"><ele>615.25</ele><time>2026-04-04T17:44:58.609Z</time></trkpt><trkpt lat="43.0539858" lon="11.7781419"><ele>616.0</ele><time>2026-04-04T17:44:59.596Z</time></trkpt><trkpt lat="43.0539596" lon="11.778327"><ele>616.0</ele><time>2026-04-04T17:45:00.611Z</time></trkpt><trkpt lat="43.0539335" lon="11.7784908"><ele>616.0</ele><time>2026-04-04T17:45:01.603Z</time></trkpt><trkpt lat="43.0539117" lon="11.7786365"><ele>616.0</ele><time>2026-04-04T17:45:02.61Z</time></trkpt><trkpt lat="43.0538985" lon="11.7787779"><ele>616.0</ele><time>2026-04-04T17:45:03.594Z</time></trkpt><trkpt lat="43.0538903" lon="11.7789273"><ele>616.0</ele><time>2026-04-04T17:45:04.613Z</time></trkpt><trkpt lat="43.0538926" lon="11.7790917"><ele>616.75</ele><time>2026-04-04T17:45:05.611Z</time></trkpt><trkpt lat="43.0538976" lon="11.7792719"><ele>617.5</ele><time>2026-04-04T17:45:06.602Z</time></trkpt><trkpt lat="43.0539063" lon="11.7794678"><ele>618.25</ele><time>2026-04-04T17:45:07.608Z</time></trkpt><trkpt lat="43.0539222" lon="11.7796798"><ele>619.0</ele><time>2026-04-04T17:45:08.614Z</time></trkpt><trkpt lat="43.0539455" lon="11.7799074"><ele>619.0</ele><time>2026-04-04T17:45:09.603Z</time></trkpt><trkpt lat="43.0539749" lon="11.7801488"><ele>619.0</ele><time>2026-04-04T17:45:10.597Z</time></trkpt><trkpt lat="43.0540044" lon="11.7803967"><ele>619.0</ele><time>2026-04-04T17:45:11.618Z</time></trkpt><trkpt lat="43.0540302" lon="11.7806249"><ele>619.3333333333334</ele><time>2026-04-04T17:45:12.61Z</time></trkpt><trkpt lat="43.0540604" lon="11.7808556"><ele>619.6666666666666</ele><time>2026-04-04T17:45:13.617Z</time></trkpt><trkpt lat="43.0540899" lon="11.7810672"><ele>620.0</ele><time>2026-04-04T17:45:14.602Z</time></trkpt><trkpt lat="43.0541139" lon="11.7812571"><ele>621.5</ele><time>2026-04-04T17:45:15.599Z</time></trkpt><trkpt lat="43.0541361" lon="11.7814257"><ele>623.0</ele><time>2026-04-04T17:45:16.615Z</time></trkpt><trkpt lat="43.0541763" lon="11.7815803"><ele>624.5</ele><time>2026-04-04T17:45:17.605Z</time></trkpt><trkpt lat="43.0542302" lon="11.7817269"><ele>626.0</ele><time>2026-04-04T17:45:18.605Z</time></trkpt><trkpt lat="43.0542984" lon="11.7818562"><ele>626.0</ele><time>2026-04-04T17:45:19.589Z</time></trkpt><trkpt lat="43.0543729" lon="11.7819762"><ele>626.0</ele><time>2026-04-04T17:45:20.608Z</time></trkpt><trkpt lat="43.0544568" lon="11.7820983"><ele>626.0</ele><time>2026-04-04T17:45:21.597Z</time></trkpt><trkpt lat="43.054549" lon="11.7822194"><ele>626.0</ele><time>2026-04-04T17:45:22.6Z</time></trkpt><trkpt lat="43.0546552" lon="11.7823284"><ele>626.0</ele><time>2026-04-04T17:45:23.603Z</time></trkpt><trkpt lat="43.0547746" lon="11.7824203"><ele>626.0</ele><time>2026-04-04T17:45:24.617Z</time></trkpt><trkpt lat="43.0549149" lon="11.7824916"><ele>626.0</ele><time>2026-04-04T17:45:25.618Z</time></trkpt><trkpt lat="43.0550714" lon="11.782558"><ele>625.0</ele><time>2026-04-04T17:45:26.597Z</time></trkpt><trkpt lat="43.0552352" lon="11.7826267"><ele>624.0</ele><time>2026-04-04T17:45:27.604Z</time></trkpt><trkpt lat="43.0554054" lon="11.7826959"><ele>623.0</ele><time>2026-04-04T17:45:28.616Z</time></trkpt><trkpt lat="43.0555848" lon="11.78277"><ele>623.0</ele><time>2026-04-04T17:45:29.602Z</time></trkpt><trkpt lat="43.055772" lon="11.7828469"><ele>623.0</ele><time>2026-04-04T17:45:30.598Z</time></trkpt><trkpt lat="43.0559542" lon="11.7829216"><ele>623.0</ele><time>2026-04-04T17:45:31.603Z</time></trkpt><trkpt lat="43.0561325" lon="11.782992"><ele>621.6666666666666</ele><time>2026-04-04T17:45:32.596Z</time></trkpt><trkpt lat="43.0563079" lon="11.7830647"><ele>620.3333333333334</ele><time>2026-04-04T17:45:33.61Z</time></trkpt><trkpt lat="43.056483" lon="11.7831458"><ele>619.0</ele><time>2026-04-04T17:45:34.602Z</time></trkpt><trkpt lat="43.0566629" lon="11.7832218"><ele>617.3333333333334</ele><time>2026-04-04T17:45:35.603Z</time></trkpt><trkpt lat="43.0568479" lon="11.7833011"><ele>615.6666666666666</ele><time>2026-04-04T17:45:36.61Z</time></trkpt><trkpt lat="43.0570411" lon="11.7833843"><ele>614.0</ele><time>2026-04-04T17:45:37.599Z</time></trkpt><trkpt lat="43.0572361" lon="11.7834643"><ele>616.6666666666666</ele><time>2026-04-04T17:45:38.605Z</time></trkpt><trkpt lat="43.0574294" lon="11.7835448"><ele>619.3333333333334</ele><time>2026-04-04T17:45:39.61Z</time></trkpt><trkpt lat="43.057621" lon="11.7836265"><ele>622.0</ele><time>2026-04-04T17:45:40.603Z</time></trkpt><trkpt lat="43.0578091" lon="11.7837065"><ele>616.3333333333334</ele><time>2026-04-04T17:45:41.611Z</time></trkpt><trkpt lat="43.0579921" lon="11.7837853"><ele>610.6666666666666</ele><time>2026-04-04T17:45:42.605Z</time></trkpt><trkpt lat="43.0581686" lon="11.7838622"><ele>605.0</ele><time>2026-04-04T17:45:43.605Z</time></trkpt><trkpt lat="43.0583433" lon="11.783936"><ele>603.0</ele><time>2026-04-04T17:45:44.612Z</time></trkpt><trkpt lat="43.0585119" lon="11.784011"><ele>601.0</ele><time>2026-04-04T17:45:45.613Z</time></trkpt><trkpt lat="43.0586754" lon="11.7840827"><ele>599.0</ele><time>2026-04-04T17:45:46.599Z</time></trkpt><trkpt lat="43.0588362" lon="11.7841527"><ele>599.0</ele><time>2026-04-04T17:45:47.604Z</time></trkpt><trkpt lat="43.0589991" lon="11.7842251"><ele>599.0</ele><time>2026-04-04T17:45:48.618Z</time></trkpt><trkpt lat="43.0591672" lon="11.7842978"><ele>599.0</ele><time>2026-04-04T17:45:49.604Z</time></trkpt><trkpt lat="43.05934" lon="11.7843743"><ele>597.6666666666666</ele><time>2026-04-04T17:45:50.616Z</time></trkpt><trkpt lat="43.0595107" lon="11.7844515"><ele>596.3333333333334</ele><time>2026-04-04T17:45:51.608Z</time></trkpt><trkpt lat="43.0596783" lon="11.7845283"><ele>595.0</ele><time>2026-04-04T17:45:52.613Z</time></trkpt><trkpt lat="43.0598467" lon="11.7845972"><ele>594.0</ele><time>2026-04-04T17:45:53.612Z</time></trkpt><trkpt lat="43.0600195" lon="11.7846434"><ele>593.0</ele><time>2026-04-04T17:45:54.625Z</time></trkpt><trkpt lat="43.0601971" lon="11.7846645"><ele>592.0</ele><time>2026-04-04T17:45:55.6Z</time></trkpt><trkpt lat="43.0603683" lon="11.7846536"><ele>592.0</ele><time>2026-04-04T17:45:56.621Z</time></trkpt><trkpt lat="43.0605377" lon="11.7846173"><ele>592.0</ele><time>2026-04-04T17:45:57.6Z</time></trkpt><trkpt lat="43.0607003" lon="11.7845553"><ele>592.0</ele><time>2026-04-04T17:45:58.607Z</time></trkpt><trkpt lat="43.0608524" lon="11.7844883"><ele>592.6666666666667</ele><time>2026-04-04T17:45:59.605Z</time></trkpt><trkpt lat="43.0609982" lon="11.7844315"><ele>593.3333333333334</ele><time>2026-04-04T17:46:00.601Z</time></trkpt><trkpt lat="43.0611418" lon="11.7843926"><ele>594.0</ele><time>2026-04-04T17:46:01.608Z</time></trkpt><trkpt lat="43.0612945" lon="11.7843687"><ele>594.0</ele><time>2026-04-04T17:46:02.619Z</time></trkpt><trkpt lat="43.0614561" lon="11.7843588"><ele>594.0</ele><time>2026-04-04T17:46:03.605Z</time></trkpt><trkpt lat="43.0616269" lon="11.7843434"><ele>594.0</ele><time>2026-04-04T17:46:04.606Z</time></trkpt><trkpt lat="43.061804" lon="11.7843274"><ele>590.3333333333334</ele><time>2026-04-04T17:46:05.606Z</time></trkpt><trkpt lat="43.0619913" lon="11.7843113"><ele>586.6666666666667</ele><time>2026-04-04T17:46:06.608Z</time></trkpt><trkpt lat="43.0621864" lon="11.784297"><ele>583.0</ele><time>2026-04-04T17:46:07.605Z</time></trkpt><trkpt lat="43.0623902" lon="11.7842813"><ele>583.0</ele><time>2026-04-04T17:46:08.613Z</time></trkpt><trkpt lat="43.0626002" lon="11.7842603"><ele>583.0</ele><time>2026-04-04T17:46:09.605Z</time></trkpt><trkpt lat="43.0627832" lon="11.7842386"><ele>583.0</ele><time>2026-04-04T17:46:10.601Z</time></trkpt><trkpt lat="43.0629489" lon="11.7842201"><ele>583.0</ele><time>2026-04-04T17:46:11.602Z</time></trkpt><trkpt lat="43.0631052" lon="11.7842054"><ele>583.0</ele><time>2026-04-04T17:46:12.609Z</time></trkpt><trkpt lat="43.0632466" lon="11.7841947"><ele>583.0</ele><time>2026-04-04T17:46:13.609Z</time></trkpt><trkpt lat="43.0633787" lon="11.7841836"><ele>583.0</ele><time>2026-04-04T17:46:14.608Z</time></trkpt><trkpt lat="43.0635077" lon="11.7841727"><ele>583.5</ele><time>2026-04-04T17:46:15.603Z</time></trkpt><trkpt lat="43.0636435" lon="11.7841583"><ele>584.0</ele><time>2026-04-04T17:46:16.617Z</time></trkpt><trkpt lat="43.0637885" lon="11.7841472"><ele>584.5</ele><time>2026-04-04T17:46:17.599Z</time></trkpt><trkpt lat="43.0639421" lon="11.7841392"><ele>585.0</ele><time>2026-04-04T17:46:18.613Z</time></trkpt><trkpt lat="43.0641016" lon="11.7841242"><ele>583.3333333333334</ele><time>2026-04-04T17:46:19.612Z</time></trkpt><trkpt lat="43.0642656" lon="11.7841094"><ele>581.6666666666667</ele><time>2026-04-04T17:46:20.604Z</time></trkpt><trkpt lat="43.0644323" lon="11.7840925"><ele>580.0</ele><time>2026-04-04T17:46:21.602Z</time></trkpt><trkpt lat="43.0645963" lon="11.7840721"><ele>580.0</ele><time>2026-04-04T17:46:22.604Z</time></trkpt><trkpt lat="43.0647501" lon="11.7840595"><ele>580.0</ele><time>2026-04-04T17:46:23.601Z</time></trkpt><trkpt lat="43.0648954" lon="11.7840493"><ele>580.0</ele><time>2026-04-04T17:46:24.603Z</time></trkpt><trkpt lat="43.0650342" lon="11.7840392"><ele>580.0</ele><time>2026-04-04T17:46:25.629Z</time></trkpt><trkpt lat="43.0651726" lon="11.7840203"><ele>578.75</ele><time>2026-04-04T17:46:26.61Z</time></trkpt><trkpt lat="43.0653189" lon="11.7840019"><ele>577.5</ele><time>2026-04-04T17:46:27.61Z</time></trkpt><trkpt lat="43.0654669" lon="11.7839947"><ele>576.25</ele><time>2026-04-04T17:46:28.599Z</time></trkpt><trkpt lat="43.0656121" lon="11.7839872"><ele>575.0</ele><time>2026-04-04T17:46:29.607Z</time></trkpt><trkpt lat="43.0657486" lon="11.7839833"><ele>575.0</ele><time>2026-04-04T17:46:30.595Z</time></trkpt><trkpt lat="43.0658762" lon="11.7839738"><ele>575.0</ele><time>2026-04-04T17:46:31.611Z</time></trkpt><trkpt lat="43.0660062" lon="11.783946"><ele>575.0</ele><time>2026-04-04T17:46:32.602Z</time></trkpt><trkpt lat="43.0661409" lon="11.7838918"><ele>575.0</ele><time>2026-04-04T17:46:33.604Z</time></trkpt><trkpt lat="43.0662721" lon="11.7838196"><ele>575.0</ele><time>2026-04-04T17:46:34.606Z</time></trkpt><trkpt lat="43.0663936" lon="11.7837321"><ele>575.0</ele><time>2026-04-04T17:46:35.604Z</time></trkpt><trkpt lat="43.0665072" lon="11.7836398"><ele>575.0</ele><time>2026-04-04T17:46:36.608Z</time></trkpt><trkpt lat="43.0666111" lon="11.7835408"><ele>575.0</ele><time>2026-04-04T17:46:37.605Z</time></trkpt><trkpt lat="43.0667083" lon="11.7834514"><ele>575.0</ele><time>2026-04-04T17:46:38.606Z</time></trkpt><trkpt lat="43.0668089" lon="11.7833606"><ele>575.0</ele><time>2026-04-04T17:46:39.609Z</time></trkpt><trkpt lat="43.066916" lon="11.783273"><ele>575.0</ele><time>2026-04-04T17:46:40.597Z</time></trkpt><trkpt lat="43.067032" lon="11.7831973"><ele>575.0</ele><time>2026-04-04T17:46:41.605Z</time></trkpt><trkpt lat="43.0671591" lon="11.7831408"><ele>575.0</ele><time>2026-04-04T17:46:42.602Z</time></trkpt><trkpt lat="43.0672984" lon="11.7831103"><ele>575.0</ele><time>2026-04-04T17:46:43.6Z</time></trkpt><trkpt lat="43.0674413" lon="11.783089"><ele>575.0</ele><time>2026-04-04T17:46:44.598Z</time></trkpt><trkpt lat="43.0675724" lon="11.7830736"><ele>575.0</ele><time>2026-04-04T17:46:45.61Z</time></trkpt><trkpt lat="43.0676939" lon="11.7830567"><ele>576.75</ele><time>2026-04-04T17:46:46.605Z</time></trkpt><trkpt lat="43.0678163" lon="11.7830356"><ele>578.5</ele><time>2026-04-04T17:46:47.606Z</time></trkpt><trkpt lat="43.0679407" lon="11.7830142"><ele>580.25</ele><time>2026-04-04T17:46:48.609Z</time></trkpt><trkpt lat="43.0680635" lon="11.7829958"><ele>582.0</ele><time>2026-04-04T17:46:49.604Z</time></trkpt><trkpt lat="43.0681808" lon="11.7829798"><ele>582.4</ele><time>2026-04-04T17:46:50.607Z</time></trkpt><trkpt lat="43.0682876" lon="11.7829574"><ele>582.8000000000001</ele><time>2026-04-04T17:46:51.604Z</time></trkpt><trkpt lat="43.0683941" lon="11.7829354"><ele>583.2</ele><time>2026-04-04T17:46:52.613Z</time></trkpt><trkpt lat="43.0685052" lon="11.7829151"><ele>583.6</ele><time>2026-04-04T17:46:53.608Z</time></trkpt><trkpt lat="43.0686249" lon="11.7828923"><ele>584.0</ele><time>2026-04-04T17:46:54.598Z</time></trkpt><trkpt lat="43.0687563" lon="11.7828649"><ele>584.0</ele><time>2026-04-04T17:46:55.602Z</time></trkpt><trkpt lat="43.0689" lon="11.7828349"><ele>584.0</ele><time>2026-04-04T17:46:56.607Z</time></trkpt><trkpt lat="43.0690558" lon="11.782801"><ele>584.0</ele><time>2026-04-04T17:46:57.608Z</time></trkpt><trkpt lat="43.0692067" lon="11.7827612"><ele>581.75</ele><time>2026-04-04T17:46:58.607Z</time></trkpt><trkpt lat="43.0693438" lon="11.782715"><ele>579.5</ele><time>2026-04-04T17:46:59.604Z</time></trkpt><trkpt lat="43.069475" lon="11.7826768"><ele>577.25</ele><time>2026-04-04T17:47:00.597Z</time></trkpt><trkpt lat="43.0696024" lon="11.7826422"><ele>575.0</ele><time>2026-04-04T17:47:01.592Z</time></trkpt><trkpt lat="43.0697213" lon="11.7826129"><ele>575.0</ele><time>2026-04-04T17:47:02.604Z</time></trkpt><trkpt lat="43.0698426" lon="11.7825817"><ele>575.0</ele><time>2026-04-04T17:47:03.615Z</time></trkpt><trkpt lat="43.0699693" lon="11.7825483"><ele>575.0</ele><time>2026-04-04T17:47:04.61Z</time></trkpt><trkpt lat="43.0701032" lon="11.782509"><ele>575.0</ele><time>2026-04-04T17:47:05.609Z</time></trkpt><trkpt lat="43.0702286" lon="11.7824704"><ele>574.0</ele><time>2026-04-04T17:47:06.612Z</time></trkpt><trkpt lat="43.0703477" lon="11.782438"><ele>573.0</ele><time>2026-04-04T17:47:07.601Z</time></trkpt><trkpt lat="43.0704654" lon="11.7824161"><ele>572.0</ele><time>2026-04-04T17:47:08.607Z</time></trkpt><trkpt lat="43.0705912" lon="11.7824099"><ele>571.0</ele><time>2026-04-04T17:47:09.608Z</time></trkpt><trkpt lat="43.0707214" lon="11.7824261"><ele>571.75</ele><time>2026-04-04T17:47:10.611Z</time></trkpt><trkpt lat="43.0708569" lon="11.7824642"><ele>572.5</ele><time>2026-04-04T17:47:11.602Z</time></trkpt><trkpt lat="43.07099" lon="11.7825161"><ele>573.25</ele><time>2026-04-04T17:47:12.599Z</time></trkpt><trkpt lat="43.071105" lon="11.782569"><ele>574.0</ele><time>2026-04-04T17:47:13.601Z</time></trkpt><trkpt lat="43.0712115" lon="11.7826052"><ele>574.0</ele><time>2026-04-04T17:47:14.608Z</time></trkpt><trkpt lat="43.0713216" lon="11.7826233"><ele>574.0</ele><time>2026-04-04T17:47:15.6Z</time></trkpt><trkpt lat="43.0714405" lon="11.7826194"><ele>574.0</ele><time>2026-04-04T17:47:16.603Z</time></trkpt><trkpt lat="43.0715694" lon="11.7825961"><ele>574.0</ele><time>2026-04-04T17:47:17.601Z</time></trkpt><trkpt lat="43.0717036" lon="11.7825527"><ele>574.75</ele><time>2026-04-04T17:47:18.601Z</time></trkpt><trkpt lat="43.0718437" lon="11.7824954"><ele>575.5</ele><time>2026-04-04T17:47:19.6Z</time></trkpt><trkpt lat="43.0719736" lon="11.7824314"><ele>576.25</ele><time>2026-04-04T17:47:20.599Z</time></trkpt><trkpt lat="43.072098" lon="11.7823782"><ele>577.0</ele><time>2026-04-04T17:47:21.605Z</time></trkpt><trkpt lat="43.0722258" lon="11.7823388"><ele>577.0</ele><time>2026-04-04T17:47:22.611Z</time></trkpt><trkpt lat="43.072359" lon="11.7823177"><ele>577.0</ele><time>2026-04-04T17:47:23.59Z</time></trkpt><trkpt lat="43.0724914" lon="11.7823257"><ele>577.0</ele><time>2026-04-04T17:47:24.607Z</time></trkpt><trkpt lat="43.0726212" lon="11.782361"><ele>577.0</ele><time>2026-04-04T17:47:25.614Z</time></trkpt><trkpt lat="43.0727489" lon="11.7824256"><ele>577.5</ele><time>2026-04-04T17:47:26.597Z</time></trkpt><trkpt lat="43.0728764" lon="11.7825137"><ele>578.0</ele><time>2026-04-04T17:47:27.593Z</time></trkpt><trkpt lat="43.0730009" lon="11.7826196"><ele>578.5</ele><time>2026-04-04T17:47:28.607Z</time></trkpt><trkpt lat="43.0731156" lon="11.7827402"><ele>579.0</ele><time>2026-04-04T17:47:29.609Z</time></trkpt><trkpt lat="43.0732179" lon="11.7828692"><ele>577.0</ele><time>2026-04-04T17:47:30.605Z</time></trkpt><trkpt lat="43.0733138" lon="11.7829981"><ele>575.0</ele><time>2026-04-04T17:47:31.611Z</time></trkpt><trkpt lat="43.0734075" lon="11.7831328"><ele>573.0</ele><time>2026-04-04T17:47:32.603Z</time></trkpt><trkpt lat="43.0735003" lon="11.7832763"><ele>571.0</ele><time>2026-04-04T17:47:33.604Z</time></trkpt><trkpt lat="43.0735892" lon="11.7834335"><ele>566.3333333333334</ele><time>2026-04-04T17:47:34.6Z</time></trkpt><trkpt lat="43.0736682" lon="11.7836097"><ele>561.6666666666666</ele><time>2026-04-04T17:47:35.605Z</time></trkpt><trkpt lat="43.0737482" lon="11.7837977"><ele>557.0</ele><time>2026-04-04T17:47:36.596Z</time></trkpt><trkpt lat="43.073824" lon="11.7839892"><ele>557.0</ele><time>2026-04-04T17:47:37.605Z</time></trkpt><trkpt lat="43.0738957" lon="11.78418"><ele>557.0</ele><time>2026-04-04T17:47:38.607Z</time></trkpt><trkpt lat="43.0739678" lon="11.7843752"><ele>557.0</ele><time>2026-04-04T17:47:39.605Z</time></trkpt><trkpt lat="43.0740377" lon="11.7845666"><ele>557.0</ele><time>2026-04-04T17:47:40.604Z</time></trkpt><trkpt lat="43.0741003" lon="11.784745"><ele>557.0</ele><time>2026-04-04T17:47:41.601Z</time></trkpt><trkpt lat="43.0741493" lon="11.7849078"><ele>557.0</ele><time>2026-04-04T17:47:42.611Z</time></trkpt><trkpt lat="43.0741866" lon="11.7850618"><ele>557.0</ele><time>2026-04-04T17:47:43.611Z</time></trkpt><trkpt lat="43.074221" lon="11.785208"><ele>557.0</ele><time>2026-04-04T17:47:44.611Z</time></trkpt><trkpt lat="43.074254" lon="11.7853601"><ele>557.0</ele><time>2026-04-04T17:47:45.613Z</time></trkpt><trkpt lat="43.0742957" lon="11.7855184"><ele>557.0</ele><time>2026-04-04T17:47:46.608Z</time></trkpt><trkpt lat="43.074344" lon="11.7856845"><ele>557.0</ele><time>2026-04-04T17:47:47.609Z</time></trkpt><trkpt lat="43.0743962" lon="11.7858494"><ele>557.0</ele><time>2026-04-04T17:47:48.604Z</time></trkpt><trkpt lat="43.0744505" lon="11.7860101"><ele>557.0</ele><time>2026-04-04T17:47:49.59Z</time></trkpt><trkpt lat="43.0745048" lon="11.7861621"><ele>557.0</ele><time>2026-04-04T17:47:50.61Z</time></trkpt><trkpt lat="43.0745617" lon="11.7863042"><ele>557.0</ele><time>2026-04-04T17:47:51.608Z</time></trkpt><trkpt lat="43.0746204" lon="11.7864348"><ele>555.4</ele><time>2026-04-04T17:47:52.604Z</time></trkpt><trkpt lat="43.0746786" lon="11.7865464"><ele>553.8000000000001</ele><time>2026-04-04T17:47:53.608Z</time></trkpt><trkpt lat="43.0747362" lon="11.7866503"><ele>552.2</ele><time>2026-04-04T17:47:54.608Z</time></trkpt><trkpt lat="43.0747897" lon="11.7867398"><ele>550.6</ele><time>2026-04-04T17:47:55.612Z</time></trkpt><trkpt lat="43.0748388" lon="11.7868256"><ele>549.0</ele><time>2026-04-04T17:47:56.604Z</time></trkpt><trkpt lat="43.0749082" lon="11.7869443"><ele>550.1666666666666</ele><time>2026-04-04T17:47:58.606Z</time></trkpt><trkpt lat="43.0749574" lon="11.7870251"><ele>551.3333333333334</ele><time>2026-04-04T17:48:00.606Z</time></trkpt><trkpt lat="43.0750038" lon="11.7871093"><ele>552.5</ele><time>2026-04-04T17:48:04.604Z</time></trkpt><trkpt lat="43.0750859" lon="11.7871664"><ele>553.6666666666667</ele><time>2026-04-04T17:48:13.603Z</time></trkpt><trkpt lat="43.0751501" lon="11.7871564"><ele>554.8333333333334</ele><time>2026-04-04T17:48:14.613Z</time></trkpt><trkpt lat="43.0752278" lon="11.7871229"><ele>556.0</ele><time>2026-04-04T17:48:15.621Z</time></trkpt><trkpt lat="43.0753089" lon="11.7870708"><ele>556.0</ele><time>2026-04-04T17:48:16.6Z</time></trkpt><trkpt lat="43.0753934" lon="11.7869898"><ele>556.0</ele><time>2026-04-04T17:48:17.606Z</time></trkpt><trkpt lat="43.0754773" lon="11.7868842"><ele>556.0</ele><time>2026-04-04T17:48:18.61Z</time></trkpt><trkpt lat="43.0755618" lon="11.7867437"><ele>556.0</ele><time>2026-04-04T17:48:19.609Z</time></trkpt><trkpt lat="43.0756485" lon="11.786584"><ele>555.5</ele><time>2026-04-04T17:48:20.607Z</time></trkpt><trkpt lat="43.0757334" lon="11.7864334"><ele>555.0</ele><time>2026-04-04T17:48:21.622Z</time></trkpt><trkpt lat="43.075816" lon="11.7862881"><ele>554.5</ele><time>2026-04-04T17:48:22.601Z</time></trkpt><trkpt lat="43.0758908" lon="11.7861624"><ele>554.0</ele><time>2026-04-04T17:48:23.613Z</time></trkpt><trkpt lat="43.0759609" lon="11.7860363"><ele>558.25</ele><time>2026-04-04T17:48:24.614Z</time></trkpt><trkpt lat="43.0760292" lon="11.7859143"><ele>562.5</ele><time>2026-04-04T17:48:25.603Z</time></trkpt><trkpt lat="43.0760956" lon="11.7857837"><ele>566.75</ele><time>2026-04-04T17:48:26.605Z</time></trkpt><trkpt lat="43.0761586" lon="11.7856468"><ele>571.0</ele><time>2026-04-04T17:48:27.605Z</time></trkpt><trkpt lat="43.0762229" lon="11.7855092"><ele>571.0</ele><time>2026-04-04T17:48:28.627Z</time></trkpt><trkpt lat="43.0762814" lon="11.7853668"><ele>571.0</ele><time>2026-04-04T17:48:29.593Z</time></trkpt><trkpt lat="43.0763326" lon="11.7852238"><ele>571.0</ele><time>2026-04-04T17:48:30.606Z</time></trkpt><trkpt lat="43.0763806" lon="11.7850765"><ele>571.0</ele><time>2026-04-04T17:48:31.61Z</time></trkpt><trkpt lat="43.0764296" lon="11.7849245"><ele>568.25</ele><time>2026-04-04T17:48:32.606Z</time></trkpt><trkpt lat="43.076481" lon="11.7847707"><ele>565.5</ele><time>2026-04-04T17:48:33.614Z</time></trkpt><trkpt lat="43.0765306" lon="11.7846213"><ele>562.75</ele><time>2026-04-04T17:48:34.62Z</time></trkpt><trkpt lat="43.0765842" lon="11.7844815"><ele>560.0</ele><time>2026-04-04T17:48:35.616Z</time></trkpt><trkpt lat="43.0766347" lon="11.7843458"><ele>560.0</ele><time>2026-04-04T17:48:36.619Z</time></trkpt><trkpt lat="43.0766878" lon="11.7842158"><ele>560.0</ele><time>2026-04-04T17:48:37.603Z</time></trkpt><trkpt lat="43.0767461" lon="11.7840943"><ele>560.0</ele><time>2026-04-04T17:48:38.603Z</time></trkpt><trkpt lat="43.0768043" lon="11.7839803"><ele>560.0</ele><time>2026-04-04T17:48:39.605Z</time></trkpt><trkpt lat="43.0768657" lon="11.7838705"><ele>560.0</ele><time>2026-04-04T17:48:40.615Z</time></trkpt><trkpt lat="43.0769268" lon="11.7837667"><ele>560.0</ele><time>2026-04-04T17:48:41.593Z</time></trkpt><trkpt lat="43.0769941" lon="11.7836633"><ele>560.0</ele><time>2026-04-04T17:48:42.603Z</time></trkpt><trkpt lat="43.0770569" lon="11.7835485"><ele>560.0</ele><time>2026-04-04T17:48:43.594Z</time></trkpt><trkpt lat="43.0771266" lon="11.7834282"><ele>560.0</ele><time>2026-04-04T17:48:44.612Z</time></trkpt><trkpt lat="43.077203" lon="11.7832993"><ele>560.0</ele><time>2026-04-04T17:48:45.603Z</time></trkpt><trkpt lat="43.0772879" lon="11.7831562"><ele>561.0</ele><time>2026-04-04T17:48:46.616Z</time></trkpt><trkpt lat="43.077378" lon="11.783007"><ele>562.0</ele><time>2026-04-04T17:48:47.604Z</time></trkpt><trkpt lat="43.0774673" lon="11.7828674"><ele>563.0</ele><time>2026-04-04T17:48:48.603Z</time></trkpt><trkpt lat="43.0775578" lon="11.7827428"><ele>564.0</ele><time>2026-04-04T17:48:49.615Z</time></trkpt><trkpt lat="43.0776726" lon="11.7826337"><ele>559.3333333333334</ele><time>2026-04-04T17:48:50.619Z</time></trkpt><trkpt lat="43.0778036" lon="11.7825437"><ele>554.6666666666667</ele><time>2026-04-04T17:48:51.608Z</time></trkpt><trkpt lat="43.0779456" lon="11.7824763"><ele>550.0</ele><time>2026-04-04T17:48:52.601Z</time></trkpt><trkpt lat="43.0780935" lon="11.7824196"><ele>550.0</ele><time>2026-04-04T17:48:53.606Z</time></trkpt><trkpt lat="43.0782337" lon="11.7823674"><ele>550.0</ele><time>2026-04-04T17:48:54.617Z</time></trkpt><trkpt lat="43.0783719" lon="11.7823202"><ele>550.0</ele><time>2026-04-04T17:48:55.592Z</time></trkpt><trkpt lat="43.0785044" lon="11.782269"><ele>550.0</ele><time>2026-04-04T17:48:56.616Z</time></trkpt><trkpt lat="43.0786409" lon="11.7822217"><ele>547.6666666666667</ele><time>2026-04-04T17:48:57.598Z</time></trkpt><trkpt lat="43.0787853" lon="11.7821695"><ele>545.3333333333334</ele><time>2026-04-04T17:48:58.606Z</time></trkpt><trkpt lat="43.0789353" lon="11.7821188"><ele>543.0</ele><time>2026-04-04T17:48:59.611Z</time></trkpt><trkpt lat="43.0790935" lon="11.7820644"><ele>540.6666666666666</ele><time>2026-04-04T17:49:00.609Z</time></trkpt><trkpt lat="43.0792534" lon="11.7820028"><ele>538.3333333333333</ele><time>2026-04-04T17:49:01.592Z</time></trkpt><trkpt lat="43.0794117" lon="11.7819393"><ele>536.0</ele><time>2026-04-04T17:49:02.612Z</time></trkpt><trkpt lat="43.0795628" lon="11.7818794"><ele>536.25</ele><time>2026-04-04T17:49:03.607Z</time></trkpt><trkpt lat="43.0797075" lon="11.7818207"><ele>536.5</ele><time>2026-04-04T17:49:04.613Z</time></trkpt><trkpt lat="43.0798488" lon="11.7817603"><ele>536.75</ele><time>2026-04-04T17:49:05.6Z</time></trkpt><trkpt lat="43.0799773" lon="11.7816879"><ele>537.0</ele><time>2026-04-04T17:49:06.611Z</time></trkpt><trkpt lat="43.0801067" lon="11.7815877"><ele>537.0</ele><time>2026-04-04T17:49:07.595Z</time></trkpt><trkpt lat="43.0802387" lon="11.7814713"><ele>537.0</ele><time>2026-04-04T17:49:08.616Z</time></trkpt><trkpt lat="43.0803624" lon="11.781342"><ele>537.0</ele><time>2026-04-04T17:49:09.606Z</time></trkpt><trkpt lat="43.0804831" lon="11.781211"><ele>537.0</ele><time>2026-04-04T17:49:10.599Z</time></trkpt><trkpt lat="43.0805975" lon="11.7810875"><ele>537.0</ele><time>2026-04-04T17:49:11.606Z</time></trkpt><trkpt lat="43.0807107" lon="11.7809727"><ele>537.0</ele><time>2026-04-04T17:49:12.608Z</time></trkpt><trkpt lat="43.0808282" lon="11.780855"><ele>537.0</ele><time>2026-04-04T17:49:13.591Z</time></trkpt><trkpt lat="43.0809496" lon="11.7807342"><ele>537.3333333333334</ele><time>2026-04-04T17:49:14.612Z</time></trkpt><trkpt lat="43.0810646" lon="11.7806029"><ele>537.6666666666667</ele><time>2026-04-04T17:49:15.615Z</time></trkpt><trkpt lat="43.0811793" lon="11.7804627"><ele>538.0</ele><time>2026-04-04T17:49:16.604Z</time></trkpt><trkpt lat="43.0812831" lon="11.7803194"><ele>536.25</ele><time>2026-04-04T17:49:17.61Z</time></trkpt><trkpt lat="43.0813803" lon="11.7801737"><ele>534.5</ele><time>2026-04-04T17:49:18.612Z</time></trkpt><trkpt lat="43.08147" lon="11.7800321"><ele>532.75</ele><time>2026-04-04T17:49:19.605Z</time></trkpt><trkpt lat="43.0815577" lon="11.7798929"><ele>531.0</ele><time>2026-04-04T17:49:20.608Z</time></trkpt><trkpt lat="43.0816442" lon="11.7797586"><ele>531.0</ele><time>2026-04-04T17:49:21.609Z</time></trkpt><trkpt lat="43.0817351" lon="11.7796239"><ele>531.0</ele><time>2026-04-04T17:49:22.616Z</time></trkpt><trkpt lat="43.0818151" lon="11.7795174"><ele>531.0</ele><time>2026-04-04T17:49:23.609Z</time></trkpt><trkpt lat="43.0818887" lon="11.7794326"><ele>531.0</ele><time>2026-04-04T17:49:24.597Z</time></trkpt><trkpt lat="43.0819653" lon="11.7793564"><ele>531.0</ele><time>2026-04-04T17:49:25.602Z</time></trkpt><trkpt lat="43.0820465" lon="11.7792981"><ele>531.0</ele><time>2026-04-04T17:49:26.602Z</time></trkpt><trkpt lat="43.0821332" lon="11.7792395"><ele>531.0</ele><time>2026-04-04T17:49:27.602Z</time></trkpt><trkpt lat="43.0822228" lon="11.7791797"><ele>531.0</ele><time>2026-04-04T17:49:28.613Z</time></trkpt><trkpt lat="43.0823103" lon="11.7791311"><ele>531.0</ele><time>2026-04-04T17:49:29.613Z</time></trkpt><trkpt lat="43.0823984" lon="11.7790884"><ele>531.0</ele><time>2026-04-04T17:49:30.609Z</time></trkpt><trkpt lat="43.0824943" lon="11.7790519"><ele>529.5</ele><time>2026-04-04T17:49:31.615Z</time></trkpt><trkpt lat="43.0825998" lon="11.7790259"><ele>528.0</ele><time>2026-04-04T17:49:32.601Z</time></trkpt><trkpt lat="43.0827179" lon="11.7790063"><ele>526.5</ele><time>2026-04-04T17:49:33.612Z</time></trkpt><trkpt lat="43.0828486" lon="11.7789915"><ele>525.0</ele><time>2026-04-04T17:49:34.603Z</time></trkpt><trkpt lat="43.0829926" lon="11.7789869"><ele>525.0</ele><time>2026-04-04T17:49:35.607Z</time></trkpt><trkpt lat="43.0831252" lon="11.7789898"><ele>525.0</ele><time>2026-04-04T17:49:36.598Z</time></trkpt><trkpt lat="43.0832542" lon="11.7790028"><ele>525.0</ele><time>2026-04-04T17:49:37.599Z</time></trkpt><trkpt lat="43.0833896" lon="11.7790195"><ele>525.0</ele><time>2026-04-04T17:49:38.606Z</time></trkpt><trkpt lat="43.0835295" lon="11.7790367"><ele>523.5</ele><time>2026-04-04T17:49:39.606Z</time></trkpt><trkpt lat="43.0836631" lon="11.7790454"><ele>522.0</ele><time>2026-04-04T17:49:40.604Z</time></trkpt><trkpt lat="43.0837919" lon="11.7790396"><ele>520.5</ele><time>2026-04-04T17:49:41.602Z</time></trkpt><trkpt lat="43.0839166" lon="11.7790136"><ele>519.0</ele><time>2026-04-04T17:49:42.597Z</time></trkpt><trkpt lat="43.0840417" lon="11.7789623"><ele>517.25</ele><time>2026-04-04T17:49:43.608Z</time></trkpt><trkpt lat="43.084166" lon="11.7788717"><ele>515.5</ele><time>2026-04-04T17:49:44.605Z</time></trkpt><trkpt lat="43.0842943" lon="11.7787538"><ele>513.75</ele><time>2026-04-04T17:49:45.597Z</time></trkpt><trkpt lat="43.0844151" lon="11.7786323"><ele>512.0</ele><time>2026-04-04T17:49:46.603Z</time></trkpt><trkpt lat="43.0845296" lon="11.7785185"><ele>512.25</ele><time>2026-04-04T17:49:47.609Z</time></trkpt><trkpt lat="43.0846433" lon="11.7784123"><ele>512.5</ele><time>2026-04-04T17:49:48.61Z</time></trkpt><trkpt lat="43.08475" lon="11.7783083"><ele>512.75</ele><time>2026-04-04T17:49:49.616Z</time></trkpt><trkpt lat="43.0848551" lon="11.7782062"><ele>513.0</ele><time>2026-04-04T17:49:50.607Z</time></trkpt><trkpt lat="43.0849629" lon="11.7781156"><ele>513.0</ele><time>2026-04-04T17:49:51.609Z</time></trkpt><trkpt lat="43.0850695" lon="11.7780336"><ele>513.0</ele><time>2026-04-04T17:49:52.612Z</time></trkpt><trkpt lat="43.0851733" lon="11.7779526"><ele>513.0</ele><time>2026-04-04T17:49:53.603Z</time></trkpt><trkpt lat="43.0852871" lon="11.7778631"><ele>513.0</ele><time>2026-04-04T17:49:54.608Z</time></trkpt><trkpt lat="43.0854132" lon="11.7777733"><ele>511.5</ele><time>2026-04-04T17:49:55.612Z</time></trkpt><trkpt lat="43.0855398" lon="11.7776784"><ele>510.0</ele><time>2026-04-04T17:49:56.613Z</time></trkpt><trkpt lat="43.0856631" lon="11.7775824"><ele>508.5</ele><time>2026-04-04T17:49:57.604Z</time></trkpt><trkpt lat="43.0857765" lon="11.7774881"><ele>507.0</ele><time>2026-04-04T17:49:58.607Z</time></trkpt><trkpt lat="43.08589" lon="11.7773829"><ele>507.0</ele><time>2026-04-04T17:49:59.618Z</time></trkpt><trkpt lat="43.0860014" lon="11.7772659"><ele>507.0</ele><time>2026-04-04T17:50:00.607Z</time></trkpt><trkpt lat="43.0861015" lon="11.7771376"><ele>507.0</ele><time>2026-04-04T17:50:01.603Z</time></trkpt><trkpt lat="43.0862013" lon="11.7770197"><ele>507.0</ele><time>2026-04-04T17:50:02.606Z</time></trkpt><trkpt lat="43.0862985" lon="11.7769132"><ele>507.25</ele><time>2026-04-04T17:50:03.601Z</time></trkpt><trkpt lat="43.0863931" lon="11.7768091"><ele>507.5</ele><time>2026-04-04T17:50:04.601Z</time></trkpt><trkpt lat="43.0864919" lon="11.7767063"><ele>507.75</ele><time>2026-04-04T17:50:05.597Z</time></trkpt><trkpt lat="43.0865919" lon="11.7766136"><ele>508.0</ele><time>2026-04-04T17:50:06.614Z</time></trkpt><trkpt lat="43.0866869" lon="11.7765287"><ele>507.33333333333337</ele><time>2026-04-04T17:50:07.605Z</time></trkpt><trkpt lat="43.0867754" lon="11.7764492"><ele>506.6666666666667</ele><time>2026-04-04T17:50:08.605Z</time></trkpt><trkpt lat="43.0868561" lon="11.7763849"><ele>506.0</ele><time>2026-04-04T17:50:09.603Z</time></trkpt><trkpt lat="43.0869273" lon="11.7763361"><ele>505.33333333333337</ele><time>2026-04-04T17:50:10.603Z</time></trkpt><trkpt lat="43.0869909" lon="11.7762897"><ele>504.6666666666667</ele><time>2026-04-04T17:50:11.612Z</time></trkpt><trkpt lat="43.0870503" lon="11.776245"><ele>504.0</ele><time>2026-04-04T17:50:12.598Z</time></trkpt><trkpt lat="43.0871157" lon="11.7762073"><ele>504.0</ele><time>2026-04-04T17:50:13.607Z</time></trkpt><trkpt lat="43.0871793" lon="11.776176"><ele>504.0</ele><time>2026-04-04T17:50:14.598Z</time></trkpt><trkpt lat="43.0872895" lon="11.776186"><ele>504.0</ele><time>2026-04-04T17:50:16.612Z</time></trkpt><trkpt lat="43.0873808" lon="11.7762936"><ele>504.0</ele><time>2026-04-04T17:50:18.604Z</time></trkpt><trkpt lat="43.0874141" lon="11.7763739"><ele>504.0</ele><time>2026-04-04T17:50:19.618Z</time></trkpt><trkpt lat="43.0874389" lon="11.7764649"><ele>504.0</ele><time>2026-04-04T17:50:20.608Z</time></trkpt><trkpt lat="43.0874569" lon="11.7765673"><ele>505.4</ele><time>2026-04-04T17:50:21.607Z</time></trkpt><trkpt lat="43.087469" lon="11.7766765"><ele>506.79999999999995</ele><time>2026-04-04T17:50:22.602Z</time></trkpt><trkpt lat="43.0874873" lon="11.7768012"><ele>508.20000000000005</ele><time>2026-04-04T17:50:23.595Z</time></trkpt><trkpt lat="43.08751" lon="11.776931"><ele>509.6</ele><time>2026-04-04T17:50:24.614Z</time></trkpt><trkpt lat="43.0875431" lon="11.7770635"><ele>511.0</ele><time>2026-04-04T17:50:25.603Z</time></trkpt><trkpt lat="43.0875772" lon="11.7771891"><ele>511.0</ele><time>2026-04-04T17:50:26.612Z</time></trkpt><trkpt lat="43.0876196" lon="11.7773145"><ele>511.0</ele><time>2026-04-04T17:50:27.614Z</time></trkpt><trkpt lat="43.0876678" lon="11.7774425"><ele>511.0</ele><time>2026-04-04T17:50:28.608Z</time></trkpt><trkpt lat="43.0877119" lon="11.7775719"><ele>511.0</ele><time>2026-04-04T17:50:29.607Z</time></trkpt><trkpt lat="43.0877517" lon="11.7777046"><ele>511.0</ele><time>2026-04-04T17:50:30.608Z</time></trkpt><trkpt lat="43.0877868" lon="11.7778487"><ele>509.75</ele><time>2026-04-04T17:50:31.604Z</time></trkpt><trkpt lat="43.0878112" lon="11.778008"><ele>508.5</ele><time>2026-04-04T17:50:32.61Z</time></trkpt><trkpt lat="43.0878309" lon="11.7781702"><ele>507.25</ele><time>2026-04-04T17:50:33.611Z</time></trkpt><trkpt lat="43.087851" lon="11.778334"><ele>506.0</ele><time>2026-04-04T17:50:34.604Z</time></trkpt><trkpt lat="43.0878781" lon="11.7784883"><ele>504.25</ele><time>2026-04-04T17:50:35.604Z</time></trkpt><trkpt lat="43.0879133" lon="11.7786345"><ele>502.5</ele><time>2026-04-04T17:50:36.616Z</time></trkpt><trkpt lat="43.0879614" lon="11.7787743"><ele>500.75</ele><time>2026-04-04T17:50:37.607Z</time></trkpt><trkpt lat="43.0880202" lon="11.7789085"><ele>499.0</ele><time>2026-04-04T17:50:38.612Z</time></trkpt><trkpt lat="43.0880892" lon="11.7790352"><ele>499.0</ele><time>2026-04-04T17:50:39.602Z</time></trkpt><trkpt lat="43.0881685" lon="11.7791595"><ele>499.0</ele><time>2026-04-04T17:50:40.6Z</time></trkpt><trkpt lat="43.0882516" lon="11.779286"><ele>499.0</ele><time>2026-04-04T17:50:41.605Z</time></trkpt><trkpt lat="43.0883371" lon="11.7794074"><ele>499.0</ele><time>2026-04-04T17:50:42.606Z</time></trkpt><trkpt lat="43.0884251" lon="11.7795203"><ele>502.75</ele><time>2026-04-04T17:50:43.603Z</time></trkpt><trkpt lat="43.0885139" lon="11.7796387"><ele>506.5</ele><time>2026-04-04T17:50:44.6Z</time></trkpt><trkpt lat="43.0886058" lon="11.7797667"><ele>510.25</ele><time>2026-04-04T17:50:45.615Z</time></trkpt><trkpt lat="43.0887009" lon="11.7799102"><ele>514.0</ele><time>2026-04-04T17:50:46.607Z</time></trkpt><trkpt lat="43.0887994" lon="11.7800553"><ele>511.25</ele><time>2026-04-04T17:50:47.61Z</time></trkpt><trkpt lat="43.0888932" lon="11.7801964"><ele>508.5</ele><time>2026-04-04T17:50:48.601Z</time></trkpt><trkpt lat="43.0889896" lon="11.7803416"><ele>505.75</ele><time>2026-04-04T17:50:49.607Z</time></trkpt><trkpt lat="43.0890724" lon="11.780496"><ele>503.0</ele><time>2026-04-04T17:50:50.603Z</time></trkpt><trkpt lat="43.0891419" lon="11.7806596"><ele>507.5</ele><time>2026-04-04T17:50:51.601Z</time></trkpt><trkpt lat="43.0892034" lon="11.7808219"><ele>512.0</ele><time>2026-04-04T17:50:52.609Z</time></trkpt><trkpt lat="43.0892571" lon="11.780971"><ele>516.5</ele><time>2026-04-04T17:50:53.616Z</time></trkpt><trkpt lat="43.0893044" lon="11.7811188"><ele>521.0</ele><time>2026-04-04T17:50:54.599Z</time></trkpt><trkpt lat="43.0893426" lon="11.7812568"><ele>521.0</ele><time>2026-04-04T17:50:55.603Z</time></trkpt><trkpt lat="43.0893641" lon="11.7813981"><ele>521.0</ele><time>2026-04-04T17:50:56.617Z</time></trkpt><trkpt lat="43.0893695" lon="11.7815466"><ele>521.0</ele><time>2026-04-04T17:50:57.607Z</time></trkpt><trkpt lat="43.0893713" lon="11.7816985"><ele>521.0</ele><time>2026-04-04T17:50:58.6Z</time></trkpt><trkpt lat="43.0893718" lon="11.7818542"><ele>521.0</ele><time>2026-04-04T17:50:59.607Z</time></trkpt><trkpt lat="43.0893837" lon="11.7820031"><ele>517.8</ele><time>2026-04-04T17:51:00.611Z</time></trkpt><trkpt lat="43.0894128" lon="11.7821372"><ele>514.6</ele><time>2026-04-04T17:51:01.6Z</time></trkpt><trkpt lat="43.0894579" lon="11.782257"><ele>511.4</ele><time>2026-04-04T17:51:02.616Z</time></trkpt><trkpt lat="43.089526" lon="11.7823529"><ele>508.2</ele><time>2026-04-04T17:51:03.612Z</time></trkpt><trkpt lat="43.0896112" lon="11.7824312"><ele>505.0</ele><time>2026-04-04T17:51:04.613Z</time></trkpt><trkpt lat="43.0897099" lon="11.7824896"><ele>505.0</ele><time>2026-04-04T17:51:05.606Z</time></trkpt><trkpt lat="43.0898279" lon="11.7825233"><ele>505.0</ele><time>2026-04-04T17:51:06.61Z</time></trkpt><trkpt lat="43.0899527" lon="11.7825412"><ele>505.0</ele><time>2026-04-04T17:51:07.607Z</time></trkpt><trkpt lat="43.0900727" lon="11.7825569"><ele>505.0</ele><time>2026-04-04T17:51:08.608Z</time></trkpt><trkpt lat="43.090185" lon="11.7825744"><ele>505.5</ele><time>2026-04-04T17:51:09.611Z</time></trkpt><trkpt lat="43.0903012" lon="11.7826059"><ele>506.0</ele><time>2026-04-04T17:51:10.608Z</time></trkpt><trkpt lat="43.090419" lon="11.7826523"><ele>506.5</ele><time>2026-04-04T17:51:11.609Z</time></trkpt><trkpt lat="43.0905289" lon="11.7827079"><ele>507.0</ele><time>2026-04-04T17:51:12.609Z</time></trkpt><trkpt lat="43.0906307" lon="11.7827676"><ele>507.0</ele><time>2026-04-04T17:51:13.591Z</time></trkpt><trkpt lat="43.0907273" lon="11.7828437"><ele>507.00000000000006</ele><time>2026-04-04T17:51:14.61Z</time></trkpt><trkpt lat="43.0908157" lon="11.7829224"><ele>507.00000000000006</ele><time>2026-04-04T17:51:15.607Z</time></trkpt><trkpt lat="43.0909014" lon="11.783006"><ele>507.0</ele><time>2026-04-04T17:51:16.61Z</time></trkpt><trkpt lat="43.0909896" lon="11.7830964"><ele>507.0</ele><time>2026-04-04T17:51:17.607Z</time></trkpt><trkpt lat="43.0910864" lon="11.7831756"><ele>511.0</ele><time>2026-04-04T17:51:18.605Z</time></trkpt><trkpt lat="43.0911958" lon="11.7832426"><ele>515.0</ele><time>2026-04-04T17:51:19.606Z</time></trkpt><trkpt lat="43.0913133" lon="11.7832965"><ele>519.0</ele><time>2026-04-04T17:51:20.619Z</time></trkpt><trkpt lat="43.0914331" lon="11.7833387"><ele>523.0</ele><time>2026-04-04T17:51:21.604Z</time></trkpt><trkpt lat="43.0915451" lon="11.7833732"><ele>523.0</ele><time>2026-04-04T17:51:22.621Z</time></trkpt><trkpt lat="43.0916598" lon="11.7834104"><ele>523.0</ele><time>2026-04-04T17:51:23.611Z</time></trkpt><trkpt lat="43.0917791" lon="11.7834571"><ele>523.0</ele><time>2026-04-04T17:51:24.599Z</time></trkpt><trkpt lat="43.0918976" lon="11.7835126"><ele>523.0</ele><time>2026-04-04T17:51:25.608Z</time></trkpt><trkpt lat="43.0920103" lon="11.7835773"><ele>523.0</ele><time>2026-04-04T17:51:26.614Z</time></trkpt><trkpt lat="43.0921217" lon="11.7836452"><ele>523.0</ele><time>2026-04-04T17:51:27.605Z</time></trkpt><trkpt lat="43.0922384" lon="11.7837148"><ele>523.0</ele><time>2026-04-04T17:51:28.601Z</time></trkpt><trkpt lat="43.0923538" lon="11.7837769"><ele>523.0</ele><time>2026-04-04T17:51:29.599Z</time></trkpt><trkpt lat="43.0924691" lon="11.7838349"><ele>524.0</ele><time>2026-04-04T17:51:30.605Z</time></trkpt><trkpt lat="43.0925833" lon="11.7838838"><ele>525.0</ele><time>2026-04-04T17:51:31.603Z</time></trkpt><trkpt lat="43.0926982" lon="11.7839256"><ele>526.0</ele><time>2026-04-04T17:51:32.613Z</time></trkpt><trkpt lat="43.0928149" lon="11.7839556"><ele>527.0</ele><time>2026-04-04T17:51:33.604Z</time></trkpt><trkpt lat="43.0929328" lon="11.7839626"><ele>527.0</ele><time>2026-04-04T17:51:34.61Z</time></trkpt><trkpt lat="43.0930458" lon="11.7839458"><ele>527.0</ele><time>2026-04-04T17:51:35.616Z</time></trkpt><trkpt lat="43.093153" lon="11.7839064"><ele>527.0</ele><time>2026-04-04T17:51:36.61Z</time></trkpt><trkpt lat="43.093243" lon="11.7838617"><ele>527.0</ele><time>2026-04-04T17:51:37.609Z</time></trkpt><trkpt lat="43.0933218" lon="11.7838073"><ele>527.0</ele><time>2026-04-04T17:51:38.599Z</time></trkpt><trkpt lat="43.0933904" lon="11.7837519"><ele>526.4</ele><time>2026-04-04T17:51:39.609Z</time></trkpt><trkpt lat="43.0934492" lon="11.7836966"><ele>525.8000000000001</ele><time>2026-04-04T17:51:40.602Z</time></trkpt><trkpt lat="43.0935358" lon="11.7836224"><ele>525.2</ele><time>2026-04-04T17:51:42.601Z</time></trkpt><trkpt lat="43.0935952" lon="11.7835609"><ele>524.6</ele><time>2026-04-04T17:51:44.606Z</time></trkpt><trkpt lat="43.0936685" lon="11.7834761"><ele>524.0</ele><time>2026-04-04T17:51:52.607Z</time></trkpt><trkpt lat="43.0937494" lon="11.7833687"><ele>525.5714285714286</ele><time>2026-04-04T17:51:54.598Z</time></trkpt><trkpt lat="43.0937971" lon="11.7833119"><ele>527.1428571428572</ele><time>2026-04-04T17:51:55.6Z</time></trkpt><trkpt lat="43.0938516" lon="11.783259"><ele>528.7142857142858</ele><time>2026-04-04T17:51:56.606Z</time></trkpt><trkpt lat="43.0939093" lon="11.7832244"><ele>530.2857142857143</ele><time>2026-04-04T17:51:57.604Z</time></trkpt><trkpt lat="43.0939817" lon="11.7831964"><ele>531.8571428571429</ele><time>2026-04-04T17:51:58.6Z</time></trkpt><trkpt lat="43.0940643" lon="11.783191"><ele>533.4285714285714</ele><time>2026-04-04T17:51:59.607Z</time></trkpt><trkpt lat="43.0941558" lon="11.7832063"><ele>535.0</ele><time>2026-04-04T17:52:00.609Z</time></trkpt><trkpt lat="43.0942425" lon="11.7832398"><ele>535.0</ele><time>2026-04-04T17:52:01.612Z</time></trkpt><trkpt lat="43.0943262" lon="11.783285"><ele>535.0</ele><time>2026-04-04T17:52:02.606Z</time></trkpt><trkpt lat="43.0944057" lon="11.7833298"><ele>535.0</ele><time>2026-04-04T17:52:03.609Z</time></trkpt><trkpt lat="43.0944873" lon="11.7833771"><ele>535.0</ele><time>2026-04-04T17:52:04.61Z</time></trkpt><trkpt lat="43.094575" lon="11.7834379"><ele>535.0</ele><time>2026-04-04T17:52:05.601Z</time></trkpt><trkpt lat="43.0946575" lon="11.783502"><ele>535.3333333333334</ele><time>2026-04-04T17:52:06.6Z</time></trkpt><trkpt lat="43.0947364" lon="11.7835715"><ele>535.6666666666667</ele><time>2026-04-04T17:52:07.599Z</time></trkpt><trkpt lat="43.0948102" lon="11.7836443"><ele>536.0</ele><time>2026-04-04T17:52:08.613Z</time></trkpt><trkpt lat="43.0948748" lon="11.7837145"><ele>536.3333333333334</ele><time>2026-04-04T17:52:09.6Z</time></trkpt><trkpt lat="43.0949319" lon="11.7837693"><ele>536.6666666666666</ele><time>2026-04-04T17:52:10.603Z</time></trkpt><trkpt lat="43.0949764" lon="11.7838319"><ele>537.0</ele><time>2026-04-04T17:52:11.605Z</time></trkpt><trkpt lat="43.0950406" lon="11.783959"><ele>537.0</ele><time>2026-04-04T17:52:13.61Z</time></trkpt><trkpt lat="43.0950916" lon="11.7840918"><ele>537.0</ele><time>2026-04-04T17:52:15.605Z</time></trkpt><trkpt lat="43.0951162" lon="11.7841896"><ele>537.0</ele><time>2026-04-04T17:52:16.599Z</time></trkpt><trkpt lat="43.0951295" lon="11.7843118"><ele>537.0</ele><time>2026-04-04T17:52:17.606Z</time></trkpt><trkpt lat="43.0951345" lon="11.7844496"><ele>537.0</ele><time>2026-04-04T17:52:18.616Z</time></trkpt><trkpt lat="43.0951426" lon="11.7845921"><ele>536.1666666666666</ele><time>2026-04-04T17:52:19.604Z</time></trkpt><trkpt lat="43.0951509" lon="11.7847264"><ele>535.3333333333334</ele><time>2026-04-04T17:52:20.617Z</time></trkpt><trkpt lat="43.095164" lon="11.7848503"><ele>534.5</ele><time>2026-04-04T17:52:21.624Z</time></trkpt><trkpt lat="43.0951913" lon="11.7849639"><ele>533.6666666666667</ele><time>2026-04-04T17:52:22.605Z</time></trkpt><trkpt lat="43.0952275" lon="11.7850657"><ele>532.8333333333334</ele><time>2026-04-04T17:52:23.602Z</time></trkpt><trkpt lat="43.0952742" lon="11.78515"><ele>532.0</ele><time>2026-04-04T17:52:24.598Z</time></trkpt><trkpt lat="43.0953592" lon="11.7852565"><ele>530.8333333333334</ele><time>2026-04-04T17:52:26.601Z</time></trkpt><trkpt lat="43.0954076" lon="11.7853204"><ele>529.6666666666667</ele><time>2026-04-04T17:52:27.598Z</time></trkpt><trkpt lat="43.0954617" lon="11.7853947"><ele>528.5</ele><time>2026-04-04T17:52:28.614Z</time></trkpt><trkpt lat="43.09553" lon="11.7854784"><ele>527.3333333333334</ele><time>2026-04-04T17:52:29.598Z</time></trkpt><trkpt lat="43.0956029" lon="11.7855607"><ele>526.1666666666666</ele><time>2026-04-04T17:52:30.608Z</time></trkpt><trkpt lat="43.0956755" lon="11.7856345"><ele>525.0</ele><time>2026-04-04T17:52:31.607Z</time></trkpt><trkpt lat="43.0957478" lon="11.7856992"><ele>526.2</ele><time>2026-04-04T17:52:32.617Z</time></trkpt><trkpt lat="43.0958236" lon="11.7857618"><ele>527.4</ele><time>2026-04-04T17:52:33.622Z</time></trkpt><trkpt lat="43.0959076" lon="11.785829"><ele>528.6</ele><time>2026-04-04T17:52:34.609Z</time></trkpt><trkpt lat="43.0959869" lon="11.7858965"><ele>529.8</ele><time>2026-04-04T17:52:35.602Z</time></trkpt><trkpt lat="43.0960655" lon="11.7859654"><ele>531.0</ele><time>2026-04-04T17:52:36.608Z</time></trkpt><trkpt lat="43.0961432" lon="11.786033"><ele>527.0</ele><time>2026-04-04T17:52:37.608Z</time></trkpt><trkpt lat="43.0962215" lon="11.7861002"><ele>523.0</ele><time>2026-04-04T17:52:38.607Z</time></trkpt><trkpt lat="43.0962961" lon="11.7861624"><ele>519.0</ele><time>2026-04-04T17:52:39.608Z</time></trkpt><trkpt lat="43.096373" lon="11.7862241"><ele>515.0</ele><time>2026-04-04T17:52:40.601Z</time></trkpt><trkpt lat="43.0964578" lon="11.786293"><ele>511.0</ele><time>2026-04-04T17:52:41.609Z</time></trkpt><trkpt lat="43.0965497" lon="11.7863685"><ele>512.5</ele><time>2026-04-04T17:52:42.621Z</time></trkpt><trkpt lat="43.0966508" lon="11.7864489"><ele>514.0</ele><time>2026-04-04T17:52:43.609Z</time></trkpt><trkpt lat="43.0967512" lon="11.7865376"><ele>515.5</ele><time>2026-04-04T17:52:44.613Z</time></trkpt><trkpt lat="43.0968505" lon="11.7866106"><ele>517.0</ele><time>2026-04-04T17:52:45.612Z</time></trkpt><trkpt lat="43.0969518" lon="11.7866706"><ele>517.0</ele><time>2026-04-04T17:52:46.616Z</time></trkpt><trkpt lat="43.0970604" lon="11.7867085"><ele>517.0</ele><time>2026-04-04T17:52:47.614Z</time></trkpt><trkpt lat="43.0971722" lon="11.7867258"><ele>517.0</ele><time>2026-04-04T17:52:48.606Z</time></trkpt><trkpt lat="43.0972763" lon="11.7867301"><ele>517.0</ele><time>2026-04-04T17:52:49.609Z</time></trkpt><trkpt lat="43.0973737" lon="11.7867088"><ele>517.0</ele><time>2026-04-04T17:52:50.614Z</time></trkpt><trkpt lat="43.0974665" lon="11.7866702"><ele>517.0</ele><time>2026-04-04T17:52:51.609Z</time></trkpt><trkpt lat="43.0975485" lon="11.7866312"><ele>517.0</ele><time>2026-04-04T17:52:52.604Z</time></trkpt><trkpt lat="43.0976216" lon="11.7865877"><ele>517.0</ele><time>2026-04-04T17:52:53.607Z</time></trkpt><trkpt lat="43.0976813" lon="11.7865444"><ele>517.0</ele><time>2026-04-04T17:52:54.606Z</time></trkpt><trkpt lat="43.0977755" lon="11.7864643"><ele>517.0</ele><time>2026-04-04T17:52:56.602Z</time></trkpt><trkpt lat="43.0978497" lon="11.7863796"><ele>517.0</ele><time>2026-04-04T17:52:58.603Z</time></trkpt><trkpt lat="43.0978992" lon="11.7863206"><ele>517.0</ele><time>2026-04-04T17:53:00.594Z</time></trkpt><trkpt lat="43.0979586" lon="11.7862408"><ele>517.0</ele><time>2026-04-04T17:53:13.614Z</time></trkpt><trkpt lat="43.0979984" lon="11.7861495"><ele>517.0</ele><time>2026-04-04T17:53:17.611Z</time></trkpt><trkpt lat="43.0980254" lon="11.7860685"><ele>517.0</ele><time>2026-04-04T17:53:22.599Z</time></trkpt><trkpt lat="43.098046" lon="11.7859862"><ele>517.0</ele><time>2026-04-04T17:53:27.606Z</time></trkpt><trkpt lat="43.0980609" lon="11.7858551"><ele>517.0</ele><time>2026-04-04T17:53:30.599Z</time></trkpt><trkpt lat="43.0980634" lon="11.7857537"><ele>517.4285714285714</ele><time>2026-04-04T17:53:32.599Z</time></trkpt><trkpt lat="43.0980651" lon="11.785665"><ele>517.8571428571429</ele><time>2026-04-04T17:53:35.6Z</time></trkpt><trkpt lat="43.0980947" lon="11.7855817"><ele>518.2857142857143</ele><time>2026-04-04T17:53:41.609Z</time></trkpt><trkpt lat="43.0981148" lon="11.7854744"><ele>518.7142857142858</ele><time>2026-04-04T17:53:44.599Z</time></trkpt><trkpt lat="43.0981134" lon="11.7853741"><ele>519.1428571428571</ele><time>2026-04-04T17:53:46.606Z</time></trkpt><trkpt lat="43.0981751" lon="11.785323"><ele>519.5714285714287</ele><time>2026-04-04T17:53:48.607Z</time></trkpt><trkpt lat="43.0982615" lon="11.7853394"><ele>520.0</ele><time>2026-04-04T17:53:49.601Z</time></trkpt><trkpt lat="43.098354" lon="11.7853455"><ele>520.0</ele><time>2026-04-04T17:53:50.603Z</time></trkpt><trkpt lat="43.0984595" lon="11.7853492"><ele>520.0</ele><time>2026-04-04T17:53:51.601Z</time></trkpt><trkpt lat="43.0985771" lon="11.7853552"><ele>520.0</ele><time>2026-04-04T17:53:52.604Z</time></trkpt><trkpt lat="43.0987022" lon="11.7853634"><ele>520.0</ele><time>2026-04-04T17:53:53.609Z</time></trkpt><trkpt lat="43.0988483" lon="11.7853787"><ele>520.0</ele><time>2026-04-04T17:53:54.61Z</time></trkpt><trkpt lat="43.0989805" lon="11.7853906"><ele>520.0</ele><time>2026-04-04T17:53:55.606Z</time></trkpt><trkpt lat="43.0991097" lon="11.7853998"><ele>520.0</ele><time>2026-04-04T17:53:56.598Z</time></trkpt><trkpt lat="43.0992401" lon="11.7854099"><ele>520.0</ele><time>2026-04-04T17:53:57.602Z</time></trkpt><trkpt lat="43.0993753" lon="11.7854194"><ele>518.25</ele><time>2026-04-04T17:53:58.596Z</time></trkpt><trkpt lat="43.0995123" lon="11.7854275"><ele>516.5</ele><time>2026-04-04T17:53:59.602Z</time></trkpt><trkpt lat="43.0996495" lon="11.7854375"><ele>514.75</ele><time>2026-04-04T17:54:00.612Z</time></trkpt><trkpt lat="43.099799" lon="11.7854453"><ele>513.0</ele><time>2026-04-04T17:54:01.603Z</time></trkpt><trkpt lat="43.0999502" lon="11.7854621"><ele>509.0</ele><time>2026-04-04T17:54:02.603Z</time></trkpt><trkpt lat="43.1000981" lon="11.7854762"><ele>505.0</ele><time>2026-04-04T17:54:03.617Z</time></trkpt><trkpt lat="43.1002417" lon="11.7854865"><ele>501.0</ele><time>2026-04-04T17:54:04.596Z</time></trkpt><trkpt lat="43.1003805" lon="11.7854927"><ele>497.0</ele><time>2026-04-04T17:54:05.621Z</time></trkpt><trkpt lat="43.1005131" lon="11.785505"><ele>497.0</ele><time>2026-04-04T17:54:06.604Z</time></trkpt><trkpt lat="43.1006439" lon="11.7855176"><ele>497.0</ele><time>2026-04-04T17:54:07.614Z</time></trkpt><trkpt lat="43.1007781" lon="11.7855285"><ele>497.0</ele><time>2026-04-04T17:54:08.606Z</time></trkpt><trkpt lat="43.1009181" lon="11.7855378"><ele>497.0</ele><time>2026-04-04T17:54:09.609Z</time></trkpt><trkpt lat="43.1010624" lon="11.7855507"><ele>495.75</ele><time>2026-04-04T17:54:10.614Z</time></trkpt><trkpt lat="43.1011997" lon="11.7855634"><ele>494.5</ele><time>2026-04-04T17:54:11.614Z</time></trkpt><trkpt lat="43.1013392" lon="11.7855734"><ele>493.25</ele><time>2026-04-04T17:54:12.607Z</time></trkpt><trkpt lat="43.1014751" lon="11.7855771"><ele>492.0</ele><time>2026-04-04T17:54:13.614Z</time></trkpt><trkpt lat="43.1015993" lon="11.7855812"><ele>491.25</ele><time>2026-04-04T17:54:14.609Z</time></trkpt><trkpt lat="43.1017288" lon="11.7855939"><ele>490.5</ele><time>2026-04-04T17:54:15.607Z</time></trkpt><trkpt lat="43.1018645" lon="11.7856078"><ele>489.75</ele><time>2026-04-04T17:54:16.611Z</time></trkpt><trkpt lat="43.1020145" lon="11.7856262"><ele>489.0</ele><time>2026-04-04T17:54:17.612Z</time></trkpt><trkpt lat="43.1021808" lon="11.7856413"><ele>489.0</ele><time>2026-04-04T17:54:18.595Z</time></trkpt><trkpt lat="43.1023657" lon="11.7856587"><ele>489.0</ele><time>2026-04-04T17:54:19.606Z</time></trkpt><trkpt lat="43.10256" lon="11.7856792"><ele>489.0</ele><time>2026-04-04T17:54:20.616Z</time></trkpt><trkpt lat="43.1027422" lon="11.7856929"><ele>488.0</ele><time>2026-04-04T17:54:21.602Z</time></trkpt><trkpt lat="43.1029225" lon="11.7857028"><ele>487.0</ele><time>2026-04-04T17:54:22.602Z</time></trkpt><trkpt lat="43.1031073" lon="11.7857201"><ele>486.0</ele><time>2026-04-04T17:54:23.608Z</time></trkpt><trkpt lat="43.1032734" lon="11.7857368"><ele>484.75</ele><time>2026-04-04T17:54:24.601Z</time></trkpt><trkpt lat="43.103423" lon="11.7857514"><ele>483.5</ele><time>2026-04-04T17:54:25.601Z</time></trkpt><trkpt lat="43.1035631" lon="11.7857658"><ele>482.25</ele><time>2026-04-04T17:54:26.604Z</time></trkpt><trkpt lat="43.1036917" lon="11.7857821"><ele>481.0</ele><time>2026-04-04T17:54:27.619Z</time></trkpt><trkpt lat="43.1038008" lon="11.7857944"><ele>481.0</ele><time>2026-04-04T17:54:28.61Z</time></trkpt><trkpt lat="43.1039021" lon="11.7857994"><ele>481.0</ele><time>2026-04-04T17:54:29.601Z</time></trkpt><trkpt lat="43.1039995" lon="11.7858056"><ele>481.0</ele><time>2026-04-04T17:54:30.596Z</time></trkpt><trkpt lat="43.1041001" lon="11.7858167"><ele>481.0</ele><time>2026-04-04T17:54:31.606Z</time></trkpt><trkpt lat="43.1042059" lon="11.7858303"><ele>481.0</ele><time>2026-04-04T17:54:32.601Z</time></trkpt><trkpt lat="43.1043134" lon="11.7858351"><ele>482.0</ele><time>2026-04-04T17:54:33.609Z</time></trkpt><trkpt lat="43.1044272" lon="11.7858433"><ele>483.0</ele><time>2026-04-04T17:54:34.604Z</time></trkpt><trkpt lat="43.1045475" lon="11.785857"><ele>484.0</ele><time>2026-04-04T17:54:35.614Z</time></trkpt><trkpt lat="43.1046736" lon="11.7858747"><ele>485.0</ele><time>2026-04-04T17:54:36.616Z</time></trkpt><trkpt lat="43.1048088" lon="11.7858908"><ele>484.75</ele><time>2026-04-04T17:54:37.607Z</time></trkpt><trkpt lat="43.104949" lon="11.7859102"><ele>484.5</ele><time>2026-04-04T17:54:38.61Z</time></trkpt><trkpt lat="43.1050918" lon="11.785937"><ele>484.25</ele><time>2026-04-04T17:54:39.606Z</time></trkpt><trkpt lat="43.105245" lon="11.7859633"><ele>484.0</ele><time>2026-04-04T17:54:40.615Z</time></trkpt><trkpt lat="43.1054054" lon="11.7859814"><ele>484.0</ele><time>2026-04-04T17:54:41.612Z</time></trkpt><trkpt lat="43.1055716" lon="11.7860032"><ele>484.0</ele><time>2026-04-04T17:54:42.605Z</time></trkpt><trkpt lat="43.1057429" lon="11.7860239"><ele>484.0</ele><time>2026-04-04T17:54:43.611Z</time></trkpt><trkpt lat="43.1059211" lon="11.7860462"><ele>484.33333333333337</ele><time>2026-04-04T17:54:44.612Z</time></trkpt><trkpt lat="43.106094" lon="11.7860669"><ele>484.66666666666663</ele><time>2026-04-04T17:54:45.597Z</time></trkpt><trkpt lat="43.1062595" lon="11.7860884"><ele>485.0</ele><time>2026-04-04T17:54:46.606Z</time></trkpt><trkpt lat="43.1064126" lon="11.786108"><ele>485.0</ele><time>2026-04-04T17:54:47.613Z</time></trkpt><trkpt lat="43.1065565" lon="11.7861177"><ele>485.0</ele><time>2026-04-04T17:54:48.608Z</time></trkpt><trkpt lat="43.1066945" lon="11.7861284"><ele>485.0</ele><time>2026-04-04T17:54:49.613Z</time></trkpt><trkpt lat="43.1068335" lon="11.7861467"><ele>485.0</ele><time>2026-04-04T17:54:50.608Z</time></trkpt><trkpt lat="43.1069773" lon="11.7861775"><ele>484.66666666666663</ele><time>2026-04-04T17:54:51.614Z</time></trkpt><trkpt lat="43.1071254" lon="11.7862248"><ele>484.33333333333337</ele><time>2026-04-04T17:54:52.616Z</time></trkpt><trkpt lat="43.1072759" lon="11.7862976"><ele>484.0</ele><time>2026-04-04T17:54:53.609Z</time></trkpt><trkpt lat="43.1074266" lon="11.7863868"><ele>483.0</ele><time>2026-04-04T17:54:54.613Z</time></trkpt><trkpt lat="43.107571" lon="11.786482"><ele>482.0</ele><time>2026-04-04T17:54:55.61Z</time></trkpt><trkpt lat="43.1077093" lon="11.7865687"><ele>481.0</ele><time>2026-04-04T17:54:56.602Z</time></trkpt><trkpt lat="43.1078464" lon="11.7866569"><ele>481.0</ele><time>2026-04-04T17:54:57.612Z</time></trkpt><trkpt lat="43.1079812" lon="11.7867455"><ele>481.0</ele><time>2026-04-04T17:54:58.611Z</time></trkpt><trkpt lat="43.1081119" lon="11.7868299"><ele>481.0</ele><time>2026-04-04T17:54:59.598Z</time></trkpt><trkpt lat="43.1082381" lon="11.7869093"><ele>481.0</ele><time>2026-04-04T17:55:00.591Z</time></trkpt><trkpt lat="43.1083652" lon="11.7869885"><ele>477.5</ele><time>2026-04-04T17:55:01.608Z</time></trkpt><trkpt lat="43.1084931" lon="11.7870742"><ele>474.0</ele><time>2026-04-04T17:55:02.596Z</time></trkpt><trkpt lat="43.1086145" lon="11.7871673"><ele>470.5</ele><time>2026-04-04T17:55:03.61Z</time></trkpt><trkpt lat="43.1087255" lon="11.7872734"><ele>467.0</ele><time>2026-04-04T17:55:04.604Z</time></trkpt><trkpt lat="43.1088314" lon="11.7873967"><ele>467.0</ele><time>2026-04-04T17:55:05.609Z</time></trkpt><trkpt lat="43.1089314" lon="11.787539"><ele>467.0</ele><time>2026-04-04T17:55:06.606Z</time></trkpt><trkpt lat="43.1090226" lon="11.787695"><ele>467.0</ele><time>2026-04-04T17:55:07.612Z</time></trkpt><trkpt lat="43.1091112" lon="11.7878619"><ele>467.0</ele><time>2026-04-04T17:55:08.606Z</time></trkpt><trkpt lat="43.1091963" lon="11.7880296"><ele>466.25</ele><time>2026-04-04T17:55:09.605Z</time></trkpt><trkpt lat="43.1092774" lon="11.7881843"><ele>465.5</ele><time>2026-04-04T17:55:10.595Z</time></trkpt><trkpt lat="43.1093525" lon="11.7883196"><ele>464.75</ele><time>2026-04-04T17:55:11.615Z</time></trkpt><trkpt lat="43.1094207" lon="11.7884437"><ele>464.0</ele><time>2026-04-04T17:55:12.603Z</time></trkpt><trkpt lat="43.109484" lon="11.7885535"><ele>463.99999999999994</ele><time>2026-04-04T17:55:13.599Z</time></trkpt><trkpt lat="43.1095408" lon="11.7886548"><ele>464.0</ele><time>2026-04-04T17:55:14.609Z</time></trkpt><trkpt lat="43.1095992" lon="11.7887509"><ele>464.0</ele><time>2026-04-04T17:55:15.606Z</time></trkpt><trkpt lat="43.1096597" lon="11.7888437"><ele>464.0</ele><time>2026-04-04T17:55:16.605Z</time></trkpt><trkpt lat="43.1097095" lon="11.7889322"><ele>463.99999999999994</ele><time>2026-04-04T17:55:17.61Z</time></trkpt><trkpt lat="43.1097439" lon="11.7890409"><ele>464.0</ele><time>2026-04-04T17:55:18.61Z</time></trkpt><trkpt lat="43.1097634" lon="11.7891713"><ele>464.0</ele><time>2026-04-04T17:55:19.601Z</time></trkpt><trkpt lat="43.1097784" lon="11.7893175"><ele>464.0</ele><time>2026-04-04T17:55:20.601Z</time></trkpt><trkpt lat="43.1097889" lon="11.7894711"><ele>464.0</ele><time>2026-04-04T17:55:21.626Z</time></trkpt><trkpt lat="43.1097843" lon="11.7896207"><ele>464.0</ele><time>2026-04-04T17:55:22.621Z</time></trkpt><trkpt lat="43.1097685" lon="11.7897643"><ele>464.0</ele><time>2026-04-04T17:55:23.607Z</time></trkpt><trkpt lat="43.1097465" lon="11.7899042"><ele>462.2</ele><time>2026-04-04T17:55:24.618Z</time></trkpt><trkpt lat="43.1097081" lon="11.7900418"><ele>460.4</ele><time>2026-04-04T17:55:25.609Z</time></trkpt><trkpt lat="43.1096644" lon="11.7901774"><ele>458.6</ele><time>2026-04-04T17:55:26.603Z</time></trkpt><trkpt lat="43.1096222" lon="11.7903162"><ele>456.8</ele><time>2026-04-04T17:55:27.608Z</time></trkpt><trkpt lat="43.1095752" lon="11.790456"><ele>455.0</ele><time>2026-04-04T17:55:28.605Z</time></trkpt><trkpt lat="43.1095342" lon="11.7906044"><ele>455.0</ele><time>2026-04-04T17:55:29.609Z</time></trkpt><trkpt lat="43.1094977" lon="11.7907415"><ele>455.0</ele><time>2026-04-04T17:55:30.609Z</time></trkpt><trkpt lat="43.1094656" lon="11.7908753"><ele>455.0</ele><time>2026-04-04T17:55:31.614Z</time></trkpt><trkpt lat="43.1094413" lon="11.7910049"><ele>455.0</ele><time>2026-04-04T17:55:32.607Z</time></trkpt><trkpt lat="43.109426" lon="11.7911289"><ele>455.0</ele><time>2026-04-04T17:55:33.607Z</time></trkpt><trkpt lat="43.1094151" lon="11.7912375"><ele>454.99999999999994</ele><time>2026-04-04T17:55:34.604Z</time></trkpt><trkpt lat="43.1094091" lon="11.7913325"><ele>455.0</ele><time>2026-04-04T17:55:35.601Z</time></trkpt><trkpt lat="43.1094081" lon="11.7914368"><ele>455.0</ele><time>2026-04-04T17:55:36.607Z</time></trkpt><trkpt lat="43.1094101" lon="11.7915557"><ele>455.0</ele><time>2026-04-04T17:55:37.604Z</time></trkpt><trkpt lat="43.1094074" lon="11.7916904"><ele>454.99999999999994</ele><time>2026-04-04T17:55:38.608Z</time></trkpt><trkpt lat="43.1094089" lon="11.7918321"><ele>455.0</ele><time>2026-04-04T17:55:39.612Z</time></trkpt><trkpt lat="43.1094096" lon="11.7919643"><ele>454.6</ele><time>2026-04-04T17:55:40.602Z</time></trkpt><trkpt lat="43.1094018" lon="11.7920942"><ele>454.2</ele><time>2026-04-04T17:55:41.603Z</time></trkpt><trkpt lat="43.109395" lon="11.7922168"><ele>453.79999999999995</ele><time>2026-04-04T17:55:42.617Z</time></trkpt><trkpt lat="43.1093914" lon="11.7923374"><ele>453.4</ele><time>2026-04-04T17:55:43.611Z</time></trkpt><trkpt lat="43.1093891" lon="11.7924668"><ele>453.0</ele><time>2026-04-04T17:55:44.605Z</time></trkpt><trkpt lat="43.1093819" lon="11.7926024"><ele>452.79999999999995</ele><time>2026-04-04T17:55:45.613Z</time></trkpt><trkpt lat="43.1093693" lon="11.7927362"><ele>452.59999999999997</ele><time>2026-04-04T17:55:46.598Z</time></trkpt><trkpt lat="43.1093467" lon="11.792873"><ele>452.40000000000003</ele><time>2026-04-04T17:55:47.606Z</time></trkpt><trkpt lat="43.1093162" lon="11.7930077"><ele>452.20000000000005</ele><time>2026-04-04T17:55:48.598Z</time></trkpt><trkpt lat="43.1092813" lon="11.7931306"><ele>452.0</ele><time>2026-04-04T17:55:49.615Z</time></trkpt><trkpt lat="43.1092404" lon="11.7932492"><ele>451.99999999999994</ele><time>2026-04-04T17:55:50.609Z</time></trkpt><trkpt lat="43.1091909" lon="11.7933639"><ele>452.0</ele><time>2026-04-04T17:55:51.605Z</time></trkpt><trkpt lat="43.1091383" lon="11.7934618"><ele>452.0</ele><time>2026-04-04T17:55:52.615Z</time></trkpt><trkpt lat="43.1090842" lon="11.7935495"><ele>452.0</ele><time>2026-04-04T17:55:53.602Z</time></trkpt><trkpt lat="43.1090247" lon="11.7936394"><ele>451.99999999999994</ele><time>2026-04-04T17:55:54.605Z</time></trkpt><trkpt lat="43.1089563" lon="11.7937187"><ele>452.0</ele><time>2026-04-04T17:55:55.604Z</time></trkpt><trkpt lat="43.1088751" lon="11.7937944"><ele>452.0</ele><time>2026-04-04T17:55:56.612Z</time></trkpt><trkpt lat="43.1087941" lon="11.7938794"><ele>452.00000000000006</ele><time>2026-04-04T17:55:57.604Z</time></trkpt><trkpt lat="43.1087074" lon="11.7939753"><ele>452.00000000000006</ele><time>2026-04-04T17:55:58.603Z</time></trkpt><trkpt lat="43.1086296" lon="11.7940653"><ele>452.0</ele><time>2026-04-04T17:55:59.606Z</time></trkpt><trkpt lat="43.1085596" lon="11.7941507"><ele>452.0</ele><time>2026-04-04T17:56:00.598Z</time></trkpt><trkpt lat="43.1085072" lon="11.7942311"><ele>452.0</ele><time>2026-04-04T17:56:01.614Z</time></trkpt><trkpt lat="43.1084619" lon="11.7943057"><ele>452.00000000000006</ele><time>2026-04-04T17:56:02.599Z</time></trkpt><trkpt lat="43.1083977" lon="11.7944394"><ele>452.00000000000006</ele><time>2026-04-04T17:56:04.616Z</time></trkpt><trkpt lat="43.1084099" lon="11.7945437"><ele>452.0</ele><time>2026-04-04T17:56:06.612Z</time></trkpt><trkpt lat="43.1085086" lon="11.7946064"><ele>452.0</ele><time>2026-04-04T17:56:08.615Z</time></trkpt><trkpt lat="43.1085845" lon="11.7946125"><ele>452.8</ele><time>2026-04-04T17:56:09.607Z</time></trkpt><trkpt lat="43.1086674" lon="11.7946192"><ele>453.6</ele><time>2026-04-04T17:56:10.603Z</time></trkpt><trkpt lat="43.1087356" lon="11.7946333"><ele>454.40000000000003</ele><time>2026-04-04T17:56:11.611Z</time></trkpt><trkpt lat="43.1088426" lon="11.7946435"><ele>455.20000000000005</ele><time>2026-04-04T17:56:13.617Z</time></trkpt><trkpt lat="43.1089716" lon="11.7946335"><ele>456.0</ele><time>2026-04-04T17:56:15.614Z</time></trkpt><trkpt lat="43.1090575" lon="11.7946269"><ele>455.20000000000005</ele><time>2026-04-04T17:56:17.608Z</time></trkpt><trkpt lat="43.1091084" lon="11.7947243"><ele>454.40000000000003</ele><time>2026-04-04T17:56:20.611Z</time></trkpt><trkpt lat="43.1091038" lon="11.7948837"><ele>453.6</ele><time>2026-04-04T17:56:22.606Z</time></trkpt><trkpt lat="43.1091046" lon="11.7949761"><ele>452.8</ele><time>2026-04-04T17:56:23.6Z</time></trkpt><trkpt lat="43.1091184" lon="11.7950856"><ele>452.0</ele><time>2026-04-04T17:56:24.609Z</time></trkpt><trkpt lat="43.1091453" lon="11.7952136"><ele>450.6</ele><time>2026-04-04T17:56:25.598Z</time></trkpt><trkpt lat="43.1091872" lon="11.7953268"><ele>449.20000000000005</ele><time>2026-04-04T17:56:26.6Z</time></trkpt><trkpt lat="43.1092363" lon="11.795446"><ele>447.8</ele><time>2026-04-04T17:56:27.598Z</time></trkpt><trkpt lat="43.1092829" lon="11.7955633"><ele>446.4</ele><time>2026-04-04T17:56:28.603Z</time></trkpt><trkpt lat="43.1093305" lon="11.7956762"><ele>445.0</ele><time>2026-04-04T17:56:29.612Z</time></trkpt><trkpt lat="43.1093728" lon="11.7957851"><ele>445.0</ele><time>2026-04-04T17:56:30.605Z</time></trkpt><trkpt lat="43.1094132" lon="11.7958927"><ele>445.0</ele><time>2026-04-04T17:56:31.614Z</time></trkpt><trkpt lat="43.109457" lon="11.7959964"><ele>445.0</ele><time>2026-04-04T17:56:32.6Z</time></trkpt><trkpt lat="43.1095054" lon="11.7961065"><ele>445.0</ele><time>2026-04-04T17:56:33.605Z</time></trkpt><trkpt lat="43.1095598" lon="11.7962301"><ele>445.0</ele><time>2026-04-04T17:56:34.608Z</time></trkpt><trkpt lat="43.1096135" lon="11.7963575"><ele>443.1666666666667</ele><time>2026-04-04T17:56:35.616Z</time></trkpt><trkpt lat="43.1096678" lon="11.796481"><ele>441.33333333333337</ele><time>2026-04-04T17:56:36.607Z</time></trkpt><trkpt lat="43.1097191" lon="11.796594"><ele>439.5</ele><time>2026-04-04T17:56:37.593Z</time></trkpt><trkpt lat="43.1097612" lon="11.7966947"><ele>437.66666666666663</ele><time>2026-04-04T17:56:38.595Z</time></trkpt><trkpt lat="43.1097987" lon="11.7967871"><ele>435.8333333333333</ele><time>2026-04-04T17:56:39.608Z</time></trkpt><trkpt lat="43.1098312" lon="11.7968762"><ele>434.0</ele><time>2026-04-04T17:56:40.611Z</time></trkpt><trkpt lat="43.1098612" lon="11.7969727"><ele>433.79999999999995</ele><time>2026-04-04T17:56:41.602Z</time></trkpt><trkpt lat="43.1098883" lon="11.797081"><ele>433.59999999999997</ele><time>2026-04-04T17:56:42.593Z</time></trkpt><trkpt lat="43.1099101" lon="11.7972067"><ele>433.4</ele><time>2026-04-04T17:56:43.593Z</time></trkpt><trkpt lat="43.1099159" lon="11.7973476"><ele>433.2</ele><time>2026-04-04T17:56:44.6Z</time></trkpt><trkpt lat="43.1099184" lon="11.7975002"><ele>433.0</ele><time>2026-04-04T17:56:45.595Z</time></trkpt><trkpt lat="43.1099171" lon="11.7976605"><ele>432.2</ele><time>2026-04-04T17:56:46.607Z</time></trkpt><trkpt lat="43.1099163" lon="11.797823"><ele>431.4</ele><time>2026-04-04T17:56:47.595Z</time></trkpt><trkpt lat="43.1099147" lon="11.7979768"><ele>430.59999999999997</ele><time>2026-04-04T17:56:48.608Z</time></trkpt><trkpt lat="43.1099154" lon="11.7981212"><ele>429.79999999999995</ele><time>2026-04-04T17:56:49.599Z</time></trkpt><trkpt lat="43.1099189" lon="11.7982624"><ele>429.0</ele><time>2026-04-04T17:56:50.603Z</time></trkpt><trkpt lat="43.1099241" lon="11.798398"><ele>429.4</ele><time>2026-04-04T17:56:51.613Z</time></trkpt><trkpt lat="43.1099291" lon="11.7985204"><ele>429.79999999999995</ele><time>2026-04-04T17:56:52.592Z</time></trkpt><trkpt lat="43.1099355" lon="11.7986386"><ele>430.20000000000005</ele><time>2026-04-04T17:56:53.61Z</time></trkpt><trkpt lat="43.1099437" lon="11.7987595"><ele>430.6</ele><time>2026-04-04T17:56:54.602Z</time></trkpt><trkpt lat="43.1099546" lon="11.7988843"><ele>431.0</ele><time>2026-04-04T17:56:55.607Z</time></trkpt><trkpt lat="43.1099766" lon="11.7990114"><ele>430.99999999999994</ele><time>2026-04-04T17:56:56.603Z</time></trkpt><trkpt lat="43.1100086" lon="11.7991359"><ele>431.0</ele><time>2026-04-04T17:56:57.607Z</time></trkpt><trkpt lat="43.1100462" lon="11.7992459"><ele>431.0</ele><time>2026-04-04T17:56:58.592Z</time></trkpt><trkpt lat="43.1100881" lon="11.7993418"><ele>431.0</ele><time>2026-04-04T17:56:59.602Z</time></trkpt><trkpt lat="43.1101325" lon="11.7994321"><ele>430.99999999999994</ele><time>2026-04-04T17:57:00.614Z</time></trkpt><trkpt lat="43.1101785" lon="11.7995212"><ele>431.0</ele><time>2026-04-04T17:57:01.605Z</time></trkpt><trkpt lat="43.110227" lon="11.7996136"><ele>430.49999999999994</ele><time>2026-04-04T17:57:02.607Z</time></trkpt><trkpt lat="43.1102827" lon="11.7996973"><ele>430.0</ele><time>2026-04-04T17:57:03.607Z</time></trkpt><trkpt lat="43.1103449" lon="11.799778"><ele>429.5</ele><time>2026-04-04T17:57:04.61Z</time></trkpt><trkpt lat="43.1104048" lon="11.7998595"><ele>429.0</ele><time>2026-04-04T17:57:05.602Z</time></trkpt><trkpt lat="43.1104627" lon="11.7999408"><ele>428.49999999999994</ele><time>2026-04-04T17:57:06.616Z</time></trkpt><trkpt lat="43.1105122" lon="11.8000192"><ele>428.0</ele><time>2026-04-04T17:57:07.609Z</time></trkpt><trkpt lat="43.1105581" lon="11.8000966"><ele>427.99999999999994</ele><time>2026-04-04T17:57:08.609Z</time></trkpt><trkpt lat="43.1106048" lon="11.8001608"><ele>428.0</ele><time>2026-04-04T17:57:09.612Z</time></trkpt><trkpt lat="43.1106482" lon="11.8002238"><ele>428.0</ele><time>2026-04-04T17:57:10.598Z</time></trkpt><trkpt lat="43.1107035" lon="11.800344"><ele>428.0</ele><time>2026-04-04T17:57:12.611Z</time></trkpt><trkpt lat="43.1107047" lon="11.8004811"><ele>427.99999999999994</ele><time>2026-04-04T17:57:14.612Z</time></trkpt><trkpt lat="43.1106938" lon="11.8005671"><ele>428.0</ele><time>2026-04-04T17:57:15.617Z</time></trkpt><trkpt lat="43.1106805" lon="11.8006613"><ele>426.49999999999994</ele><time>2026-04-04T17:57:16.61Z</time></trkpt><trkpt lat="43.1106594" lon="11.8007643"><ele>425.0</ele><time>2026-04-04T17:57:17.609Z</time></trkpt><trkpt lat="43.1106348" lon="11.8008727"><ele>423.5</ele><time>2026-04-04T17:57:18.607Z</time></trkpt><trkpt lat="43.1106109" lon="11.8009737"><ele>422.0</ele><time>2026-04-04T17:57:19.612Z</time></trkpt><trkpt lat="43.1105949" lon="11.8010585"><ele>420.49999999999994</ele><time>2026-04-04T17:57:20.597Z</time></trkpt><trkpt lat="43.1105768" lon="11.8011965"><ele>419.0</ele><time>2026-04-04T17:57:22.602Z</time></trkpt><trkpt lat="43.1105763" lon="11.8013432"><ele>417.66666666666663</ele><time>2026-04-04T17:57:24.602Z</time></trkpt><trkpt lat="43.1105971" lon="11.8015149"><ele>416.3333333333333</ele><time>2026-04-04T17:57:26.599Z</time></trkpt><trkpt lat="43.1106145" lon="11.8016116"><ele>415.0</ele><time>2026-04-04T17:57:27.606Z</time></trkpt><trkpt lat="43.1106337" lon="11.8017168"><ele>413.66666666666663</ele><time>2026-04-04T17:57:28.606Z</time></trkpt><trkpt lat="43.1106509" lon="11.8018193"><ele>412.3333333333333</ele><time>2026-04-04T17:57:29.611Z</time></trkpt><trkpt lat="43.1106721" lon="11.8019232"><ele>411.0</ele><time>2026-04-04T17:57:30.603Z</time></trkpt><trkpt lat="43.1106923" lon="11.8020246"><ele>409.3333333333333</ele><time>2026-04-04T17:57:31.614Z</time></trkpt><trkpt lat="43.1107121" lon="11.8021206"><ele>407.66666666666663</ele><time>2026-04-04T17:57:32.612Z</time></trkpt><trkpt lat="43.1107314" lon="11.8022117"><ele>406.0</ele><time>2026-04-04T17:57:33.617Z</time></trkpt><trkpt lat="43.1107466" lon="11.8023022"><ele>404.3333333333333</ele><time>2026-04-04T17:57:34.609Z</time></trkpt><trkpt lat="43.1107528" lon="11.80239"><ele>402.66666666666663</ele><time>2026-04-04T17:57:35.592Z</time></trkpt><trkpt lat="43.1107653" lon="11.8024766"><ele>401.0</ele><time>2026-04-04T17:57:36.607Z</time></trkpt><trkpt lat="43.1107624" lon="11.8026445"><ele>400.16666666666663</ele><time>2026-04-04T17:57:38.612Z</time></trkpt><trkpt lat="43.1107685" lon="11.8028295"><ele>399.3333333333333</ele><time>2026-04-04T17:57:40.603Z</time></trkpt><trkpt lat="43.1107758" lon="11.8029296"><ele>398.5</ele><time>2026-04-04T17:57:41.61Z</time></trkpt><trkpt lat="43.1107845" lon="11.8030249"><ele>397.66666666666663</ele><time>2026-04-04T17:57:42.601Z</time></trkpt><trkpt lat="43.1107945" lon="11.8031126"><ele>396.8333333333333</ele><time>2026-04-04T17:57:43.605Z</time></trkpt><trkpt lat="43.1108029" lon="11.8031993"><ele>396.0</ele><time>2026-04-04T17:57:44.62Z</time></trkpt><trkpt lat="43.1108096" lon="11.8032881"><ele>396.0</ele><time>2026-04-04T17:57:45.603Z</time></trkpt><trkpt lat="43.1108181" lon="11.8033823"><ele>396.0</ele><time>2026-04-04T17:57:46.606Z</time></trkpt><trkpt lat="43.1108251" lon="11.8034759"><ele>396.0</ele><time>2026-04-04T17:57:47.605Z</time></trkpt><trkpt lat="43.1108309" lon="11.803566"><ele>396.0</ele><time>2026-04-04T17:57:48.599Z</time></trkpt><trkpt lat="43.1108151" lon="11.8037279"><ele>396.0</ele><time>2026-04-04T17:57:50.615Z</time></trkpt><trkpt lat="43.110785" lon="11.8038688"><ele>396.0</ele><time>2026-04-04T17:57:52.619Z</time></trkpt><trkpt lat="43.1107663" lon="11.8039518"><ele>395.3333333333333</ele><time>2026-04-04T17:57:53.61Z</time></trkpt><trkpt lat="43.1107434" lon="11.804049"><ele>394.66666666666663</ele><time>2026-04-04T17:57:54.607Z</time></trkpt><trkpt lat="43.11072" lon="11.8041457"><ele>394.0</ele><time>2026-04-04T17:57:55.611Z</time></trkpt><trkpt lat="43.110708" lon="11.8042377"><ele>393.3333333333333</ele><time>2026-04-04T17:57:56.608Z</time></trkpt><trkpt lat="43.1107003" lon="11.8043441"><ele>392.66666666666663</ele><time>2026-04-04T17:57:57.606Z</time></trkpt><trkpt lat="43.1107006" lon="11.8044339"><ele>392.0</ele><time>2026-04-04T17:57:58.61Z</time></trkpt><trkpt lat="43.1107031" lon="11.804589"><ele>392.0</ele><time>2026-04-04T17:58:00.624Z</time></trkpt><trkpt lat="43.1106955" lon="11.804682"><ele>392.0</ele><time>2026-04-04T17:58:02.611Z</time></trkpt><trkpt lat="43.1106661" lon="11.8048212"><ele>392.0</ele><time>2026-04-04T17:58:47.607Z</time></trkpt><trkpt lat="43.1106323" lon="11.8049797"><ele>392.0</ele><time>2026-04-04T17:58:49.603Z</time></trkpt><trkpt lat="43.1106111" lon="11.8050632"><ele>392.0</ele><time>2026-04-04T17:58:50.613Z</time></trkpt><trkpt lat="43.110578" lon="11.8051893"><ele>391.99999999999994</ele><time>2026-04-04T17:58:52.606Z</time></trkpt><trkpt lat="43.1105395" lon="11.805276"><ele>392.0</ele><time>2026-04-04T17:58:55.606Z</time></trkpt><trkpt lat="43.1105005" lon="11.8053559"><ele>392.0</ele><time>2026-04-04T18:00:46.609Z</time></trkpt><trkpt lat="43.1104369" lon="11.8054224"><ele>392.0</ele><time>2026-04-04T18:00:48.608Z</time></trkpt><trkpt lat="43.1103624" lon="11.8054995"><ele>391.99999999999994</ele><time>2026-04-04T18:00:50.609Z</time></trkpt><trkpt lat="43.1103057" lon="11.8055431"><ele>392.0</ele><time>2026-04-04T18:00:52.605Z</time></trkpt><trkpt lat="43.1102407" lon="11.8055039"><ele>391.99999999999994</ele><time>2026-04-04T18:02:24.611Z</time></trkpt><trkpt lat="43.1102432" lon="11.805376"><ele>392.0</ele><time>2026-04-04T18:02:27.608Z</time></trkpt><trkpt lat="43.1102317" lon="11.8052833"><ele>392.0</ele><time>2026-04-04T18:02:29.611Z</time></trkpt><trkpt lat="43.1102218" lon="11.8051585"><ele>392.0</ele><time>2026-04-04T18:02:32.603Z</time></trkpt><trkpt lat="43.1101977" lon="11.8050305"><ele>391.99999999999994</ele><time>2026-04-04T18:02:35.601Z</time></trkpt><trkpt lat="43.1101748" lon="11.8049169"><ele>392.0</ele><time>2026-04-04T18:02:37.602Z</time></trkpt><trkpt lat="43.1101518" lon="11.8047768"><ele>391.66666666666663</ele><time>2026-04-04T18:02:39.611Z</time></trkpt><trkpt lat="43.1101159" lon="11.8046462"><ele>391.3333333333333</ele><time>2026-04-04T18:02:41.601Z</time></trkpt><trkpt lat="43.110083" lon="11.8045543"><ele>391.0</ele><time>2026-04-04T18:02:43.6Z</time></trkpt><trkpt lat="43.1100236" lon="11.8044603"><ele>390.66666666666663</ele><time>2026-04-04T18:02:46.607Z</time></trkpt><trkpt lat="43.1099631" lon="11.8043668"><ele>390.3333333333333</ele><time>2026-04-04T18:02:49.6Z</time></trkpt><trkpt lat="43.1099535" lon="11.8042694"><ele>390.0</ele><time>2026-04-04T18:02:52.611Z</time></trkpt><trkpt lat="43.1099311" lon="11.8041645"><ele>389.0</ele><time>2026-04-04T18:03:05.614Z</time></trkpt></trkseg></trk></gpx>